<?xml version='1.0' encoding='UTF-8'?><gpx version="1.1" creator="JPX - https://github.com/jenetics/jpx" xmlns="http://www.topografix.com/GPX/1/1"><trk><trkseg><trkpt lat="42.7604863" lon="10.3131727"><ele>4.0</ele><time>2026-04-04T06:58:24.782Z</time></trkpt><trkpt lat="42.76052" lon="10.313087"><ele>4.0</ele><time>2026-04-04T06:58:29.781Z</time></trkpt><trkpt lat="42.7605971" lon="10.3130749"><ele>4.0</ele><time>2026-04-04T06:58:33.782Z</time></trkpt><trkpt lat="42.7605819" lon="10.3131994"><ele>4.0</ele><time>2026-04-04T06:58:35.782Z</time></trkpt><trkpt lat="42.7605541" lon="10.3133658"><ele>4.0</ele><time>2026-04-04T06:58:37.782Z</time></trkpt><trkpt lat="42.7605287" lon="10.3135244"><ele>3.9999999999999996</ele><time>2026-04-04T06:58:39.781Z</time></trkpt><trkpt lat="42.7605125" lon="10.3136237"><ele>4.0</ele><time>2026-04-04T06:58:40.782Z</time></trkpt><trkpt lat="42.7604924" lon="10.3137363"><ele>4.0</ele><time>2026-04-04T06:58:41.782Z</time></trkpt><trkpt lat="42.7604765" lon="10.3138405"><ele>4.0</ele><time>2026-04-04T06:58:42.782Z</time></trkpt><trkpt lat="42.7604554" lon="10.3139347"><ele>3.9999999999999996</ele><time>2026-04-04T06:58:43.782Z</time></trkpt><trkpt lat="42.7604381" lon="10.3140173"><ele>4.0</ele><time>2026-04-04T06:58:44.782Z</time></trkpt><trkpt lat="42.7604216" lon="10.3141217"><ele>4.2</ele><time>2026-04-04T06:58:45.781Z</time></trkpt><trkpt lat="42.7603999" lon="10.3142325"><ele>4.4</ele><time>2026-04-04T06:58:46.782Z</time></trkpt><trkpt lat="42.7603754" lon="10.3143599"><ele>4.6</ele><time>2026-04-04T06:58:47.782Z</time></trkpt><trkpt lat="42.7603573" lon="10.3144787"><ele>4.8</ele><time>2026-04-04T06:58:48.782Z</time></trkpt><trkpt lat="42.7603331" lon="10.3146051"><ele>5.0</ele><time>2026-04-04T06:58:49.782Z</time></trkpt><trkpt lat="42.760307" lon="10.3147518"><ele>5.25</ele><time>2026-04-04T06:58:50.782Z</time></trkpt><trkpt lat="42.7602778" lon="10.3149209"><ele>5.5</ele><time>2026-04-04T06:58:51.782Z</time></trkpt><trkpt lat="42.7602448" lon="10.3151169"><ele>5.75</ele><time>2026-04-04T06:58:52.782Z</time></trkpt><trkpt lat="42.7602191" lon="10.3153034"><ele>6.0</ele><time>2026-04-04T06:58:53.782Z</time></trkpt><trkpt lat="42.760199" lon="10.31547"><ele>6.0</ele><time>2026-04-04T06:58:54.782Z</time></trkpt><trkpt lat="42.7601809" lon="10.31563"><ele>6.0</ele><time>2026-04-04T06:58:55.782Z</time></trkpt><trkpt lat="42.7601695" lon="10.3157605"><ele>6.0</ele><time>2026-04-04T06:58:56.782Z</time></trkpt><trkpt lat="42.7601633" lon="10.3158727"><ele>6.0</ele><time>2026-04-04T06:58:57.782Z</time></trkpt><trkpt lat="42.7601606" lon="10.315983"><ele>6.0</ele><time>2026-04-04T06:58:58.782Z</time></trkpt><trkpt lat="42.7601816" lon="10.3160846"><ele>6.199999999999999</ele><time>2026-04-04T06:58:59.782Z</time></trkpt><trkpt lat="42.7602142" lon="10.3161655"><ele>6.3999999999999995</ele><time>2026-04-04T06:59:00.782Z</time></trkpt><trkpt lat="42.7602956" lon="10.3162866"><ele>6.6</ele><time>2026-04-04T06:59:02.782Z</time></trkpt><trkpt lat="42.7603636" lon="10.3163218"><ele>6.8</ele><time>2026-04-04T06:59:03.782Z</time></trkpt><trkpt lat="42.7604614" lon="10.3163519"><ele>7.0</ele><time>2026-04-04T06:59:04.782Z</time></trkpt><trkpt lat="42.7605739" lon="10.3163705"><ele>7.0</ele><time>2026-04-04T06:59:05.782Z</time></trkpt><trkpt lat="42.7606881" lon="10.316398"><ele>7.0</ele><time>2026-04-04T06:59:06.782Z</time></trkpt><trkpt lat="42.760826" lon="10.3164227"><ele>7.0</ele><time>2026-04-04T06:59:07.782Z</time></trkpt><trkpt lat="42.760975" lon="10.3164558"><ele>7.0</ele><time>2026-04-04T06:59:08.781Z</time></trkpt><trkpt lat="42.7611466" lon="10.3165036"><ele>8.333333333333334</ele><time>2026-04-04T06:59:09.782Z</time></trkpt><trkpt lat="42.7613148" lon="10.3165441"><ele>9.666666666666666</ele><time>2026-04-04T06:59:10.782Z</time></trkpt><trkpt lat="42.761465" lon="10.3165787"><ele>11.0</ele><time>2026-04-04T06:59:11.782Z</time></trkpt><trkpt lat="42.7615998" lon="10.3166153"><ele>11.0</ele><time>2026-04-04T06:59:12.782Z</time></trkpt><trkpt lat="42.7617137" lon="10.3166393"><ele>11.0</ele><time>2026-04-04T06:59:13.782Z</time></trkpt><trkpt lat="42.7618346" lon="10.3166667"><ele>11.0</ele><time>2026-04-04T06:59:14.782Z</time></trkpt><trkpt lat="42.7619477" lon="10.3166966"><ele>11.0</ele><time>2026-04-04T06:59:15.782Z</time></trkpt><trkpt lat="42.762067" lon="10.3167165"><ele>12.0</ele><time>2026-04-04T06:59:16.781Z</time></trkpt><trkpt lat="42.7621917" lon="10.316742"><ele>13.0</ele><time>2026-04-04T06:59:17.782Z</time></trkpt><trkpt lat="42.7623182" lon="10.316767"><ele>14.0</ele><time>2026-04-04T06:59:18.782Z</time></trkpt><trkpt lat="42.7624391" lon="10.3168011"><ele>15.0</ele><time>2026-04-04T06:59:19.782Z</time></trkpt><trkpt lat="42.762574" lon="10.31683"><ele>15.75</ele><time>2026-04-04T06:59:20.782Z</time></trkpt><trkpt lat="42.762717" lon="10.3168615"><ele>16.5</ele><time>2026-04-04T06:59:21.781Z</time></trkpt><trkpt lat="42.7628512" lon="10.3168846"><ele>17.25</ele><time>2026-04-04T06:59:22.782Z</time></trkpt><trkpt lat="42.7629771" lon="10.3169135"><ele>18.0</ele><time>2026-04-04T06:59:23.782Z</time></trkpt><trkpt lat="42.7631093" lon="10.3169371"><ele>18.0</ele><time>2026-04-04T06:59:24.782Z</time></trkpt><trkpt lat="42.7632462" lon="10.316962"><ele>18.0</ele><time>2026-04-04T06:59:25.782Z</time></trkpt><trkpt lat="42.7633862" lon="10.3169936"><ele>18.0</ele><time>2026-04-04T06:59:26.782Z</time></trkpt><trkpt lat="42.7635175" lon="10.3170283"><ele>18.0</ele><time>2026-04-04T06:59:27.782Z</time></trkpt><trkpt lat="42.7636471" lon="10.3170476"><ele>18.6</ele><time>2026-04-04T06:59:28.781Z</time></trkpt><trkpt lat="42.7637712" lon="10.3170695"><ele>19.200000000000003</ele><time>2026-04-04T06:59:29.782Z</time></trkpt><trkpt lat="42.7638875" lon="10.3170922"><ele>19.8</ele><time>2026-04-04T06:59:30.782Z</time></trkpt><trkpt lat="42.7639801" lon="10.3171147"><ele>20.400000000000002</ele><time>2026-04-04T06:59:31.782Z</time></trkpt><trkpt lat="42.7640698" lon="10.3171384"><ele>21.0</ele><time>2026-04-04T06:59:32.782Z</time></trkpt><trkpt lat="42.7641515" lon="10.317167"><ele>21.0</ele><time>2026-04-04T06:59:33.782Z</time></trkpt><trkpt lat="42.7642299" lon="10.3172119"><ele>21.0</ele><time>2026-04-04T06:59:34.782Z</time></trkpt><trkpt lat="42.764292" lon="10.3172773"><ele>21.0</ele><time>2026-04-04T06:59:35.782Z</time></trkpt><trkpt lat="42.7643423" lon="10.3173747"><ele>21.0</ele><time>2026-04-04T06:59:36.782Z</time></trkpt><trkpt lat="42.7643933" lon="10.3174936"><ele>21.0</ele><time>2026-04-04T06:59:37.782Z</time></trkpt><trkpt lat="42.7644548" lon="10.3176119"><ele>22.6</ele><time>2026-04-04T06:59:38.782Z</time></trkpt><trkpt lat="42.7645377" lon="10.317723"><ele>24.200000000000003</ele><time>2026-04-04T06:59:39.782Z</time></trkpt><trkpt lat="42.7646091" lon="10.3178229"><ele>25.799999999999997</ele><time>2026-04-04T06:59:40.782Z</time></trkpt><trkpt lat="42.7646842" lon="10.3179107"><ele>27.4</ele><time>2026-04-04T06:59:41.782Z</time></trkpt><trkpt lat="42.7647455" lon="10.3179933"><ele>29.0</ele><time>2026-04-04T06:59:42.781Z</time></trkpt><trkpt lat="42.7647994" lon="10.3180907"><ele>29.0</ele><time>2026-04-04T06:59:43.782Z</time></trkpt><trkpt lat="42.764835" lon="10.3182005"><ele>29.0</ele><time>2026-04-04T06:59:44.782Z</time></trkpt><trkpt lat="42.7648436" lon="10.318329"><ele>29.0</ele><time>2026-04-04T06:59:45.782Z</time></trkpt><trkpt lat="42.7648248" lon="10.3184601"><ele>29.0</ele><time>2026-04-04T06:59:46.782Z</time></trkpt><trkpt lat="42.7647886" lon="10.3186195"><ele>29.0</ele><time>2026-04-04T06:59:47.782Z</time></trkpt><trkpt lat="42.7647486" lon="10.3187818"><ele>29.2</ele><time>2026-04-04T06:59:48.782Z</time></trkpt><trkpt lat="42.7647185" lon="10.3189381"><ele>29.4</ele><time>2026-04-04T06:59:49.782Z</time></trkpt><trkpt lat="42.7647005" lon="10.319086"><ele>29.6</ele><time>2026-04-04T06:59:50.782Z</time></trkpt><trkpt lat="42.764702" lon="10.3192349"><ele>29.8</ele><time>2026-04-04T06:59:51.782Z</time></trkpt><trkpt lat="42.7647318" lon="10.3193754"><ele>30.0</ele><time>2026-04-04T06:59:52.781Z</time></trkpt><trkpt lat="42.7647854" lon="10.3195093"><ele>30.0</ele><time>2026-04-04T06:59:53.782Z</time></trkpt><trkpt lat="42.7648611" lon="10.3196149"><ele>30.0</ele><time>2026-04-04T06:59:54.781Z</time></trkpt><trkpt lat="42.7649583" lon="10.319732"><ele>30.0</ele><time>2026-04-04T06:59:55.782Z</time></trkpt><trkpt lat="42.7650782" lon="10.3198433"><ele>30.0</ele><time>2026-04-04T06:59:56.782Z</time></trkpt><trkpt lat="42.7652181" lon="10.3199658"><ele>31.5</ele><time>2026-04-04T06:59:57.782Z</time></trkpt><trkpt lat="42.7653461" lon="10.3200806"><ele>33.0</ele><time>2026-04-04T06:59:58.782Z</time></trkpt><trkpt lat="42.7654531" lon="10.3201887"><ele>34.5</ele><time>2026-04-04T06:59:59.782Z</time></trkpt><trkpt lat="42.7655519" lon="10.3203107"><ele>36.0</ele><time>2026-04-04T07:00:00.782Z</time></trkpt><trkpt lat="42.7656463" lon="10.3204511"><ele>36.0</ele><time>2026-04-04T07:00:01.782Z</time></trkpt><trkpt lat="42.7657354" lon="10.3205945"><ele>36.0</ele><time>2026-04-04T07:00:02.782Z</time></trkpt><trkpt lat="42.765832" lon="10.3207014"><ele>36.0</ele><time>2026-04-04T07:00:03.782Z</time></trkpt><trkpt lat="42.7659118" lon="10.3208017"><ele>36.0</ele><time>2026-04-04T07:00:04.782Z</time></trkpt><trkpt lat="42.7659945" lon="10.3208911"><ele>37.0</ele><time>2026-04-04T07:00:05.781Z</time></trkpt><trkpt lat="42.7660768" lon="10.3209963"><ele>38.0</ele><time>2026-04-04T07:00:06.782Z</time></trkpt><trkpt lat="42.7661471" lon="10.3211234"><ele>39.0</ele><time>2026-04-04T07:00:07.781Z</time></trkpt><trkpt lat="42.7662189" lon="10.3212732"><ele>40.0</ele><time>2026-04-04T07:00:08.782Z</time></trkpt><trkpt lat="42.766282" lon="10.3214207"><ele>40.0</ele><time>2026-04-04T07:00:09.782Z</time></trkpt><trkpt lat="42.7663463" lon="10.3215536"><ele>40.0</ele><time>2026-04-04T07:00:10.781Z</time></trkpt><trkpt lat="42.7664018" lon="10.321675"><ele>40.0</ele><time>2026-04-04T07:00:11.781Z</time></trkpt><trkpt lat="42.7664495" lon="10.3217852"><ele>40.0</ele><time>2026-04-04T07:00:12.781Z</time></trkpt><trkpt lat="42.7664912" lon="10.3218798"><ele>40.0</ele><time>2026-04-04T07:00:13.782Z</time></trkpt><trkpt lat="42.7665218" lon="10.3219713"><ele>40.0</ele><time>2026-04-04T07:00:14.782Z</time></trkpt><trkpt lat="42.7665291" lon="10.3220744"><ele>40.0</ele><time>2026-04-04T07:00:15.782Z</time></trkpt><trkpt lat="42.7665066" lon="10.3221738"><ele>40.0</ele><time>2026-04-04T07:00:16.781Z</time></trkpt><trkpt lat="42.7664462" lon="10.3222527"><ele>40.0</ele><time>2026-04-04T07:00:17.781Z</time></trkpt><trkpt lat="42.766353" lon="10.3223365"><ele>40.0</ele><time>2026-04-04T07:00:18.781Z</time></trkpt><trkpt lat="42.7662575" lon="10.3224108"><ele>39.6</ele><time>2026-04-04T07:00:19.782Z</time></trkpt><trkpt lat="42.7661754" lon="10.3224817"><ele>39.2</ele><time>2026-04-04T07:00:20.782Z</time></trkpt><trkpt lat="42.7661106" lon="10.322566"><ele>38.8</ele><time>2026-04-04T07:00:21.782Z</time></trkpt><trkpt lat="42.7660662" lon="10.3226817"><ele>38.4</ele><time>2026-04-04T07:00:22.782Z</time></trkpt><trkpt lat="42.7660483" lon="10.3228131"><ele>38.0</ele><time>2026-04-04T07:00:23.782Z</time></trkpt><trkpt lat="42.7660389" lon="10.3229576"><ele>38.25</ele><time>2026-04-04T07:00:24.782Z</time></trkpt><trkpt lat="42.7660027" lon="10.3230886"><ele>38.5</ele><time>2026-04-04T07:00:25.782Z</time></trkpt><trkpt lat="42.7659343" lon="10.3231848"><ele>38.75</ele><time>2026-04-04T07:00:26.781Z</time></trkpt><trkpt lat="42.7658276" lon="10.3232555"><ele>39.0</ele><time>2026-04-04T07:00:27.782Z</time></trkpt><trkpt lat="42.7656889" lon="10.3233121"><ele>39.0</ele><time>2026-04-04T07:00:28.782Z</time></trkpt><trkpt lat="42.7655685" lon="10.3233542"><ele>39.0</ele><time>2026-04-04T07:00:29.782Z</time></trkpt><trkpt lat="42.7654596" lon="10.3233949"><ele>39.0</ele><time>2026-04-04T07:00:30.782Z</time></trkpt><trkpt lat="42.7653632" lon="10.3234316"><ele>39.0</ele><time>2026-04-04T07:00:31.782Z</time></trkpt><trkpt lat="42.765288" lon="10.3234766"><ele>39.0</ele><time>2026-04-04T07:00:32.782Z</time></trkpt><trkpt lat="42.7652178" lon="10.3235334"><ele>39.0</ele><time>2026-04-04T07:00:33.782Z</time></trkpt><trkpt lat="42.7651784" lon="10.3236157"><ele>39.0</ele><time>2026-04-04T07:00:34.782Z</time></trkpt><trkpt lat="42.7651663" lon="10.3237175"><ele>39.0</ele><time>2026-04-04T07:00:35.782Z</time></trkpt><trkpt lat="42.7651915" lon="10.3238172"><ele>39.0</ele><time>2026-04-04T07:00:36.781Z</time></trkpt><trkpt lat="42.7652373" lon="10.3238885"><ele>39.0</ele><time>2026-04-04T07:00:37.782Z</time></trkpt><trkpt lat="42.7653054" lon="10.3239591"><ele>39.0</ele><time>2026-04-04T07:00:38.782Z</time></trkpt><trkpt lat="42.7653634" lon="10.3240177"><ele>38.333333333333336</ele><time>2026-04-04T07:00:39.782Z</time></trkpt><trkpt lat="42.7654157" lon="10.3240877"><ele>37.666666666666664</ele><time>2026-04-04T07:00:40.782Z</time></trkpt><trkpt lat="42.7654403" lon="10.3241782"><ele>37.0</ele><time>2026-04-04T07:00:41.782Z</time></trkpt><trkpt lat="42.7654278" lon="10.3242736"><ele>36.33333333333333</ele><time>2026-04-04T07:00:42.782Z</time></trkpt><trkpt lat="42.7653767" lon="10.3243655"><ele>35.666666666666664</ele><time>2026-04-04T07:00:43.782Z</time></trkpt><trkpt lat="42.7652915" lon="10.3244273"><ele>35.0</ele><time>2026-04-04T07:00:44.782Z</time></trkpt><trkpt lat="42.7651955" lon="10.3244587"><ele>35.0</ele><time>2026-04-04T07:00:45.782Z</time></trkpt><trkpt lat="42.7651103" lon="10.3245058"><ele>35.0</ele><time>2026-04-04T07:00:46.782Z</time></trkpt><trkpt lat="42.7650352" lon="10.3245671"><ele>35.0</ele><time>2026-04-04T07:00:47.78Z</time></trkpt><trkpt lat="42.7649758" lon="10.3246491"><ele>35.0</ele><time>2026-04-04T07:00:48.782Z</time></trkpt><trkpt lat="42.7649329" lon="10.3247388"><ele>35.0</ele><time>2026-04-04T07:00:49.782Z</time></trkpt><trkpt lat="42.7649062" lon="10.3248179"><ele>35.0</ele><time>2026-04-04T07:00:50.782Z</time></trkpt><trkpt lat="42.7648729" lon="10.3249045"><ele>36.666666666666664</ele><time>2026-04-04T07:00:51.782Z</time></trkpt><trkpt lat="42.7648428" lon="10.325024"><ele>38.33333333333333</ele><time>2026-04-04T07:00:53.782Z</time></trkpt><trkpt lat="42.7648011" lon="10.3251223"><ele>40.0</ele><time>2026-04-04T07:00:56.782Z</time></trkpt><trkpt lat="42.7647802" lon="10.3252089"><ele>41.666666666666664</ele><time>2026-04-04T07:01:11.782Z</time></trkpt><trkpt lat="42.7648309" lon="10.32526"><ele>43.333333333333336</ele><time>2026-04-04T07:02:17.782Z</time></trkpt><trkpt lat="42.7648566" lon="10.3251553"><ele>45.0</ele><time>2026-04-04T07:03:05.782Z</time></trkpt><trkpt lat="42.7649269" lon="10.3250418"><ele>45.0</ele><time>2026-04-04T07:03:07.782Z</time></trkpt><trkpt lat="42.7649663" lon="10.3249659"><ele>45.0</ele><time>2026-04-04T07:03:08.782Z</time></trkpt><trkpt lat="42.7650084" lon="10.3248947"><ele>45.0</ele><time>2026-04-04T07:03:09.781Z</time></trkpt><trkpt lat="42.765058" lon="10.3248358"><ele>45.0</ele><time>2026-04-04T07:03:10.782Z</time></trkpt><trkpt lat="42.7651277" lon="10.324779"><ele>45.0</ele><time>2026-04-04T07:03:11.782Z</time></trkpt><trkpt lat="42.7652028" lon="10.3247396"><ele>45.0</ele><time>2026-04-04T07:03:12.782Z</time></trkpt><trkpt lat="42.7652705" lon="10.3247226"><ele>45.0</ele><time>2026-04-04T07:03:13.782Z</time></trkpt><trkpt lat="42.7654084" lon="10.3247391"><ele>46.166666666666664</ele><time>2026-04-04T07:03:15.782Z</time></trkpt><trkpt lat="42.7654759" lon="10.324774"><ele>47.33333333333333</ele><time>2026-04-04T07:03:16.781Z</time></trkpt><trkpt lat="42.7655545" lon="10.3248364"><ele>48.5</ele><time>2026-04-04T07:03:18.782Z</time></trkpt><trkpt lat="42.7656184" lon="10.3249126"><ele>49.666666666666664</ele><time>2026-04-04T07:03:20.782Z</time></trkpt><trkpt lat="42.7656751" lon="10.3250089"><ele>50.83333333333333</ele><time>2026-04-04T07:03:22.782Z</time></trkpt><trkpt lat="42.7657192" lon="10.3251093"><ele>52.0</ele><time>2026-04-04T07:03:24.782Z</time></trkpt><trkpt lat="42.7657754" lon="10.3252184"><ele>51.99999999999999</ele><time>2026-04-04T07:03:26.781Z</time></trkpt><trkpt lat="42.7658287" lon="10.3253175"><ele>52.0</ele><time>2026-04-04T07:03:28.782Z</time></trkpt><trkpt lat="42.7659003" lon="10.3253844"><ele>52.0</ele><time>2026-04-04T07:03:30.782Z</time></trkpt><trkpt lat="42.7659645" lon="10.3255016"><ele>52.0</ele><time>2026-04-04T07:03:32.782Z</time></trkpt><trkpt lat="42.7660059" lon="10.3255927"><ele>51.99999999999999</ele><time>2026-04-04T07:03:34.781Z</time></trkpt><trkpt lat="42.7660461" lon="10.3256781"><ele>52.0</ele><time>2026-04-04T07:03:36.782Z</time></trkpt><trkpt lat="42.7660699" lon="10.3257643"><ele>54.400000000000006</ele><time>2026-04-04T07:03:38.782Z</time></trkpt><trkpt lat="42.7661172" lon="10.3258869"><ele>56.800000000000004</ele><time>2026-04-04T07:03:41.782Z</time></trkpt><trkpt lat="42.7661479" lon="10.3259968"><ele>59.2</ele><time>2026-04-04T07:03:43.782Z</time></trkpt><trkpt lat="42.7661851" lon="10.3260888"><ele>61.6</ele><time>2026-04-04T07:03:45.782Z</time></trkpt><trkpt lat="42.7662003" lon="10.3262279"><ele>64.0</ele><time>2026-04-04T07:03:47.782Z</time></trkpt><trkpt lat="42.7662311" lon="10.3263403"><ele>63.99999999999999</ele><time>2026-04-04T07:03:49.782Z</time></trkpt><trkpt lat="42.7662985" lon="10.3264033"><ele>64.0</ele><time>2026-04-04T07:03:51.782Z</time></trkpt><trkpt lat="42.7663877" lon="10.3263869"><ele>64.0</ele><time>2026-04-04T07:03:54.782Z</time></trkpt><trkpt lat="42.7664612" lon="10.3264033"><ele>64.0</ele><time>2026-04-04T07:07:13.782Z</time></trkpt><trkpt lat="42.7665395" lon="10.3264341"><ele>63.99999999999999</ele><time>2026-04-04T07:07:17.782Z</time></trkpt><trkpt lat="42.7666368" lon="10.3264875"><ele>64.0</ele><time>2026-04-04T07:07:19.782Z</time></trkpt><trkpt lat="42.7667509" lon="10.326529"><ele>66.2</ele><time>2026-04-04T07:07:21.781Z</time></trkpt><trkpt lat="42.7668136" lon="10.3265594"><ele>68.4</ele><time>2026-04-04T07:07:22.782Z</time></trkpt><trkpt lat="42.7669213" lon="10.3266164"><ele>70.6</ele><time>2026-04-04T07:07:24.781Z</time></trkpt><trkpt lat="42.7670132" lon="10.3266822"><ele>72.8</ele><time>2026-04-04T07:07:26.782Z</time></trkpt><trkpt lat="42.7671102" lon="10.326738"><ele>75.0</ele><time>2026-04-04T07:07:28.781Z</time></trkpt><trkpt lat="42.7671654" lon="10.3267801"><ele>76.16666666666667</ele><time>2026-04-04T07:07:29.782Z</time></trkpt><trkpt lat="42.7672325" lon="10.3268242"><ele>77.33333333333333</ele><time>2026-04-04T07:07:30.782Z</time></trkpt><trkpt lat="42.7672959" lon="10.3268687"><ele>78.5</ele><time>2026-04-04T07:07:31.782Z</time></trkpt><trkpt lat="42.7673499" lon="10.3269133"><ele>79.66666666666666</ele><time>2026-04-04T07:07:32.782Z</time></trkpt><trkpt lat="42.7674207" lon="10.3269869"><ele>80.83333333333333</ele><time>2026-04-04T07:07:34.782Z</time></trkpt><trkpt lat="42.7673915" lon="10.3270958"><ele>82.0</ele><time>2026-04-04T07:07:37.781Z</time></trkpt><trkpt lat="42.7672687" lon="10.32711"><ele>82.0</ele><time>2026-04-04T07:07:39.781Z</time></trkpt><trkpt lat="42.7672014" lon="10.3271011"><ele>82.0</ele><time>2026-04-04T07:07:40.782Z</time></trkpt><trkpt lat="42.7671261" lon="10.3270855"><ele>82.0</ele><time>2026-04-04T07:07:41.781Z</time></trkpt><trkpt lat="42.7670275" lon="10.3270861"><ele>82.0</ele><time>2026-04-04T07:07:42.782Z</time></trkpt><trkpt lat="42.7669302" lon="10.3270867"><ele>82.0</ele><time>2026-04-04T07:07:43.782Z</time></trkpt><trkpt lat="42.7668417" lon="10.3270962"><ele>82.0</ele><time>2026-04-04T07:07:44.782Z</time></trkpt><trkpt lat="42.766744" lon="10.32714"><ele>80.6</ele><time>2026-04-04T07:07:45.782Z</time></trkpt><trkpt lat="42.7666554" lon="10.327205"><ele>79.19999999999999</ele><time>2026-04-04T07:07:46.782Z</time></trkpt><trkpt lat="42.7665683" lon="10.3272976"><ele>77.8</ele><time>2026-04-04T07:07:47.782Z</time></trkpt><trkpt lat="42.7665169" lon="10.32741"><ele>76.4</ele><time>2026-04-04T07:07:48.782Z</time></trkpt><trkpt lat="42.7664534" lon="10.3275125"><ele>75.0</ele><time>2026-04-04T07:07:49.782Z</time></trkpt><trkpt lat="42.7664108" lon="10.3276027"><ele>79.0</ele><time>2026-04-04T07:07:50.782Z</time></trkpt><trkpt lat="42.7663514" lon="10.3276868"><ele>83.0</ele><time>2026-04-04T07:07:51.782Z</time></trkpt><trkpt lat="42.7662973" lon="10.3278365"><ele>87.0</ele><time>2026-04-04T07:07:53.782Z</time></trkpt><trkpt lat="42.766208" lon="10.3278847"><ele>91.0</ele><time>2026-04-04T07:07:54.781Z</time></trkpt><trkpt lat="42.7661315" lon="10.3279086"><ele>95.0</ele><time>2026-04-04T07:07:55.782Z</time></trkpt><trkpt lat="42.7660472" lon="10.3279454"><ele>94.0</ele><time>2026-04-04T07:07:56.782Z</time></trkpt><trkpt lat="42.7659793" lon="10.327987"><ele>93.0</ele><time>2026-04-04T07:07:57.782Z</time></trkpt><trkpt lat="42.7659164" lon="10.3280442"><ele>92.0</ele><time>2026-04-04T07:07:58.782Z</time></trkpt><trkpt lat="42.7658673" lon="10.3281104"><ele>91.0</ele><time>2026-04-04T07:07:59.782Z</time></trkpt><trkpt lat="42.7658223" lon="10.3281992"><ele>90.0</ele><time>2026-04-04T07:08:00.782Z</time></trkpt><trkpt lat="42.7657824" lon="10.3283117"><ele>89.0</ele><time>2026-04-04T07:08:01.782Z</time></trkpt><trkpt lat="42.7657595" lon="10.3284352"><ele>92.0</ele><time>2026-04-04T07:08:02.782Z</time></trkpt><trkpt lat="42.7657541" lon="10.3285658"><ele>95.0</ele><time>2026-04-04T07:08:03.782Z</time></trkpt><trkpt lat="42.765749" lon="10.3286953"><ele>98.0</ele><time>2026-04-04T07:08:04.781Z</time></trkpt><trkpt lat="42.7657518" lon="10.328815"><ele>101.0</ele><time>2026-04-04T07:08:05.782Z</time></trkpt><trkpt lat="42.7657602" lon="10.3289457"><ele>104.0</ele><time>2026-04-04T07:08:06.781Z</time></trkpt><trkpt lat="42.7657768" lon="10.3290627"><ele>105.0</ele><time>2026-04-04T07:08:07.782Z</time></trkpt><trkpt lat="42.765823" lon="10.3291539"><ele>106.0</ele><time>2026-04-04T07:08:08.782Z</time></trkpt><trkpt lat="42.7658942" lon="10.3292262"><ele>107.0</ele><time>2026-04-04T07:08:09.782Z</time></trkpt><trkpt lat="42.7659849" lon="10.3293061"><ele>108.0</ele><time>2026-04-04T07:08:10.782Z</time></trkpt><trkpt lat="42.766069" lon="10.3293826"><ele>109.0</ele><time>2026-04-04T07:08:11.782Z</time></trkpt><trkpt lat="42.7661405" lon="10.3294676"><ele>113.50000000000001</ele><time>2026-04-04T07:08:12.782Z</time></trkpt><trkpt lat="42.7661854" lon="10.3295398"><ele>118.0</ele><time>2026-04-04T07:08:13.782Z</time></trkpt><trkpt lat="42.7662569" lon="10.3295952"><ele>122.5</ele><time>2026-04-04T07:08:15.782Z</time></trkpt><trkpt lat="42.7663001" lon="10.3295086"><ele>127.0</ele><time>2026-04-04T07:08:18.782Z</time></trkpt><trkpt lat="42.7662314" lon="10.3294005"><ele>131.5</ele><time>2026-04-04T07:08:20.782Z</time></trkpt><trkpt lat="42.7661714" lon="10.3292684"><ele>136.0</ele><time>2026-04-04T07:08:22.782Z</time></trkpt><trkpt lat="42.7661451" lon="10.329175"><ele>136.0</ele><time>2026-04-04T07:08:23.782Z</time></trkpt><trkpt lat="42.7661254" lon="10.3290611"><ele>136.0</ele><time>2026-04-04T07:08:24.782Z</time></trkpt><trkpt lat="42.7661285" lon="10.3289619"><ele>136.0</ele><time>2026-04-04T07:08:25.782Z</time></trkpt><trkpt lat="42.7661508" lon="10.3288757"><ele>136.0</ele><time>2026-04-04T07:08:26.782Z</time></trkpt><trkpt lat="42.7661992" lon="10.3288099"><ele>136.0</ele><time>2026-04-04T07:08:27.781Z</time></trkpt><trkpt lat="42.7663139" lon="10.3287758"><ele>136.0</ele><time>2026-04-04T07:08:29.782Z</time></trkpt><trkpt lat="42.7664389" lon="10.328778"><ele>133.33333333333334</ele><time>2026-04-04T07:08:31.781Z</time></trkpt><trkpt lat="42.766519" lon="10.3287565"><ele>130.66666666666669</ele><time>2026-04-04T07:08:32.782Z</time></trkpt><trkpt lat="42.7665966" lon="10.3287432"><ele>128.0</ele><time>2026-04-04T07:08:33.782Z</time></trkpt><trkpt lat="42.7666801" lon="10.3287279"><ele>125.33333333333334</ele><time>2026-04-04T07:08:34.782Z</time></trkpt><trkpt lat="42.7667593" lon="10.3287337"><ele>122.66666666666667</ele><time>2026-04-04T07:08:35.782Z</time></trkpt><trkpt lat="42.7668327" lon="10.3287542"><ele>120.0</ele><time>2026-04-04T07:08:36.782Z</time></trkpt><trkpt lat="42.7668964" lon="10.3287985"><ele>119.16666666666667</ele><time>2026-04-04T07:08:37.782Z</time></trkpt><trkpt lat="42.7669434" lon="10.3288587"><ele>118.33333333333334</ele><time>2026-04-04T07:08:38.782Z</time></trkpt><trkpt lat="42.7669513" lon="10.328972"><ele>117.5</ele><time>2026-04-04T07:08:40.782Z</time></trkpt><trkpt lat="42.76688" lon="10.3290081"><ele>116.66666666666667</ele><time>2026-04-04T07:08:42.781Z</time></trkpt><trkpt lat="42.7667906" lon="10.3290069"><ele>115.83333333333334</ele><time>2026-04-04T07:08:44.782Z</time></trkpt><trkpt lat="42.7667777" lon="10.3291025"><ele>115.0</ele><time>2026-04-04T07:08:46.782Z</time></trkpt><trkpt lat="42.7668397" lon="10.3292104"><ele>119.50000000000001</ele><time>2026-04-04T07:08:48.782Z</time></trkpt><trkpt lat="42.7668962" lon="10.3292633"><ele>124.0</ele><time>2026-04-04T07:08:49.782Z</time></trkpt><trkpt lat="42.7669604" lon="10.3293244"><ele>128.5</ele><time>2026-04-04T07:08:50.782Z</time></trkpt><trkpt lat="42.7670395" lon="10.3293926"><ele>133.0</ele><time>2026-04-04T07:08:51.781Z</time></trkpt><trkpt lat="42.7671143" lon="10.3294565"><ele>137.5</ele><time>2026-04-04T07:08:52.782Z</time></trkpt><trkpt lat="42.7671873" lon="10.3295186"><ele>142.0</ele><time>2026-04-04T07:08:53.782Z</time></trkpt><trkpt lat="42.7672623" lon="10.3295861"><ele>142.0</ele><time>2026-04-04T07:08:54.781Z</time></trkpt><trkpt lat="42.76734" lon="10.3296384"><ele>142.0</ele><time>2026-04-04T07:08:55.782Z</time></trkpt><trkpt lat="42.7674218" lon="10.3296993"><ele>142.0</ele><time>2026-04-04T07:08:56.782Z</time></trkpt><trkpt lat="42.7674959" lon="10.3297734"><ele>142.0</ele><time>2026-04-04T07:08:57.782Z</time></trkpt><trkpt lat="42.7675571" lon="10.3298526"><ele>142.0</ele><time>2026-04-04T07:08:58.782Z</time></trkpt><trkpt lat="42.7676035" lon="10.3299479"><ele>142.0</ele><time>2026-04-04T07:08:59.782Z</time></trkpt><trkpt lat="42.7676642" lon="10.3300422"><ele>147.39999999999998</ele><time>2026-04-04T07:09:00.782Z</time></trkpt><trkpt lat="42.7677227" lon="10.3301336"><ele>152.79999999999998</ele><time>2026-04-04T07:09:01.782Z</time></trkpt><trkpt lat="42.7677844" lon="10.3302177"><ele>158.2</ele><time>2026-04-04T07:09:02.782Z</time></trkpt><trkpt lat="42.767858" lon="10.3302949"><ele>163.6</ele><time>2026-04-04T07:09:03.782Z</time></trkpt><trkpt lat="42.7679144" lon="10.3303831"><ele>169.0</ele><time>2026-04-04T07:09:04.782Z</time></trkpt><trkpt lat="42.767981" lon="10.3304988"><ele>170.83333333333334</ele><time>2026-04-04T07:09:05.782Z</time></trkpt><trkpt lat="42.7680453" lon="10.3306342"><ele>172.66666666666669</ele><time>2026-04-04T07:09:06.782Z</time></trkpt><trkpt lat="42.7680898" lon="10.3307456"><ele>174.5</ele><time>2026-04-04T07:09:07.782Z</time></trkpt><trkpt lat="42.7681276" lon="10.3308513"><ele>176.33333333333334</ele><time>2026-04-04T07:09:08.782Z</time></trkpt><trkpt lat="42.7681339" lon="10.330937"><ele>178.16666666666666</ele><time>2026-04-04T07:09:09.781Z</time></trkpt><trkpt lat="42.768118" lon="10.3310354"><ele>180.0</ele><time>2026-04-04T07:09:10.782Z</time></trkpt><trkpt lat="42.7680907" lon="10.331136"><ele>180.0</ele><time>2026-04-04T07:09:11.781Z</time></trkpt><trkpt lat="42.7680619" lon="10.3312397"><ele>180.0</ele><time>2026-04-04T07:09:12.782Z</time></trkpt><trkpt lat="42.7680516" lon="10.3313413"><ele>180.0</ele><time>2026-04-04T07:09:13.781Z</time></trkpt><trkpt lat="42.768034" lon="10.3314564"><ele>180.0</ele><time>2026-04-04T07:09:14.782Z</time></trkpt><trkpt lat="42.7680251" lon="10.3315784"><ele>180.0</ele><time>2026-04-04T07:09:15.782Z</time></trkpt><trkpt lat="42.7680229" lon="10.3317063"><ele>180.0</ele><time>2026-04-04T07:09:16.782Z</time></trkpt><trkpt lat="42.7680264" lon="10.3318289"><ele>180.66666666666666</ele><time>2026-04-04T07:09:17.782Z</time></trkpt><trkpt lat="42.7680437" lon="10.3319462"><ele>181.33333333333334</ele><time>2026-04-04T07:09:18.782Z</time></trkpt><trkpt lat="42.7680659" lon="10.3320576"><ele>182.0</ele><time>2026-04-04T07:09:19.782Z</time></trkpt><trkpt lat="42.7681035" lon="10.3321574"><ele>182.66666666666669</ele><time>2026-04-04T07:09:20.782Z</time></trkpt><trkpt lat="42.7681547" lon="10.3322609"><ele>183.33333333333334</ele><time>2026-04-04T07:09:21.782Z</time></trkpt><trkpt lat="42.7682112" lon="10.3323392"><ele>184.0</ele><time>2026-04-04T07:09:22.782Z</time></trkpt><trkpt lat="42.7682759" lon="10.3323859"><ele>184.0</ele><time>2026-04-04T07:09:23.781Z</time></trkpt><trkpt lat="42.7683446" lon="10.3323916"><ele>184.0</ele><time>2026-04-04T07:09:24.782Z</time></trkpt><trkpt lat="42.7684329" lon="10.332334"><ele>184.0</ele><time>2026-04-04T07:09:26.782Z</time></trkpt><trkpt lat="42.7684486" lon="10.3322131"><ele>184.0</ele><time>2026-04-04T07:09:28.782Z</time></trkpt><trkpt lat="42.7683885" lon="10.3320679"><ele>184.0</ele><time>2026-04-04T07:09:30.782Z</time></trkpt><trkpt lat="42.7683561" lon="10.3319583"><ele>184.0</ele><time>2026-04-04T07:09:31.782Z</time></trkpt><trkpt lat="42.7683437" lon="10.3318643"><ele>184.0</ele><time>2026-04-04T07:09:32.782Z</time></trkpt><trkpt lat="42.7683464" lon="10.3317683"><ele>184.0</ele><time>2026-04-04T07:09:33.782Z</time></trkpt><trkpt lat="42.7683607" lon="10.3316799"><ele>184.0</ele><time>2026-04-04T07:09:34.782Z</time></trkpt><trkpt lat="42.7683989" lon="10.3316001"><ele>184.0</ele><time>2026-04-04T07:09:35.782Z</time></trkpt><trkpt lat="42.7684542" lon="10.3315223"><ele>184.0</ele><time>2026-04-04T07:09:36.782Z</time></trkpt><trkpt lat="42.7685176" lon="10.3314343"><ele>184.0</ele><time>2026-04-04T07:09:37.782Z</time></trkpt><trkpt lat="42.7685875" lon="10.3313577"><ele>186.2</ele><time>2026-04-04T07:09:38.782Z</time></trkpt><trkpt lat="42.768666" lon="10.3312894"><ele>188.39999999999998</ele><time>2026-04-04T07:09:39.782Z</time></trkpt><trkpt lat="42.7687428" lon="10.3312052"><ele>190.6</ele><time>2026-04-04T07:09:40.782Z</time></trkpt><trkpt lat="42.7688079" lon="10.331118"><ele>192.8</ele><time>2026-04-04T07:09:41.782Z</time></trkpt><trkpt lat="42.7689075" lon="10.3310505"><ele>195.0</ele><time>2026-04-04T07:09:43.782Z</time></trkpt><trkpt lat="42.769034" lon="10.3311219"><ele>195.0</ele><time>2026-04-04T07:09:45.782Z</time></trkpt><trkpt lat="42.7691006" lon="10.3311772"><ele>195.0</ele><time>2026-04-04T07:09:46.782Z</time></trkpt><trkpt lat="42.7691818" lon="10.3312315"><ele>195.0</ele><time>2026-04-04T07:09:47.781Z</time></trkpt><trkpt lat="42.7692671" lon="10.3313017"><ele>195.0</ele><time>2026-04-04T07:09:48.782Z</time></trkpt><trkpt lat="42.7693723" lon="10.3313742"><ele>195.0</ele><time>2026-04-04T07:09:49.782Z</time></trkpt><trkpt lat="42.7694805" lon="10.3314459"><ele>197.6</ele><time>2026-04-04T07:09:50.782Z</time></trkpt><trkpt lat="42.7695872" lon="10.3315166"><ele>200.2</ele><time>2026-04-04T07:09:51.782Z</time></trkpt><trkpt lat="42.7696897" lon="10.3315855"><ele>202.8</ele><time>2026-04-04T07:09:52.782Z</time></trkpt><trkpt lat="42.7697808" lon="10.331636"><ele>205.4</ele><time>2026-04-04T07:09:53.782Z</time></trkpt><trkpt lat="42.7698598" lon="10.3316795"><ele>208.0</ele><time>2026-04-04T07:09:54.782Z</time></trkpt><trkpt lat="42.7699395" lon="10.3317116"><ele>208.0</ele><time>2026-04-04T07:09:55.782Z</time></trkpt><trkpt lat="42.7700404" lon="10.3317273"><ele>208.0</ele><time>2026-04-04T07:09:57.782Z</time></trkpt><trkpt lat="42.7701025" lon="10.3317022"><ele>208.0</ele><time>2026-04-04T07:14:08.782Z</time></trkpt><trkpt lat="42.7702291" lon="10.33166"><ele>208.0</ele><time>2026-04-04T07:14:10.782Z</time></trkpt><trkpt lat="42.7703014" lon="10.3316216"><ele>208.0</ele><time>2026-04-04T07:14:11.782Z</time></trkpt><trkpt lat="42.7703877" lon="10.3315737"><ele>210.83333333333331</ele><time>2026-04-04T07:14:12.782Z</time></trkpt><trkpt lat="42.7704756" lon="10.3315116"><ele>213.66666666666666</ele><time>2026-04-04T07:14:13.782Z</time></trkpt><trkpt lat="42.7705643" lon="10.331445"><ele>216.5</ele><time>2026-04-04T07:14:14.782Z</time></trkpt><trkpt lat="42.770655" lon="10.331402"><ele>219.33333333333331</ele><time>2026-04-04T07:14:15.782Z</time></trkpt><trkpt lat="42.7707316" lon="10.3313755"><ele>222.16666666666666</ele><time>2026-04-04T07:14:16.782Z</time></trkpt><trkpt lat="42.7707966" lon="10.3313886"><ele>225.0</ele><time>2026-04-04T07:14:17.782Z</time></trkpt><trkpt lat="42.7708588" lon="10.3314402"><ele>225.0</ele><time>2026-04-04T07:14:18.782Z</time></trkpt><trkpt lat="42.7709136" lon="10.3315268"><ele>225.0</ele><time>2026-04-04T07:14:19.782Z</time></trkpt><trkpt lat="42.7709514" lon="10.3316193"><ele>225.0</ele><time>2026-04-04T07:14:20.782Z</time></trkpt><trkpt lat="42.7709791" lon="10.3317372"><ele>225.0</ele><time>2026-04-04T07:14:21.782Z</time></trkpt><trkpt lat="42.7710035" lon="10.3318691"><ele>225.0</ele><time>2026-04-04T07:14:22.782Z</time></trkpt><trkpt lat="42.7710127" lon="10.3320197"><ele>225.0</ele><time>2026-04-04T07:14:23.782Z</time></trkpt><trkpt lat="42.77101" lon="10.3321727"><ele>225.0</ele><time>2026-04-04T07:14:24.782Z</time></trkpt><trkpt lat="42.7709992" lon="10.3323305"><ele>225.0</ele><time>2026-04-04T07:14:25.782Z</time></trkpt><trkpt lat="42.7709916" lon="10.3324847"><ele>225.0</ele><time>2026-04-04T07:14:26.781Z</time></trkpt><trkpt lat="42.7710019" lon="10.3326123"><ele>225.0</ele><time>2026-04-04T07:14:27.782Z</time></trkpt><trkpt lat="42.7710296" lon="10.3326996"><ele>227.16666666666666</ele><time>2026-04-04T07:14:28.782Z</time></trkpt><trkpt lat="42.7710758" lon="10.3327764"><ele>229.33333333333331</ele><time>2026-04-04T07:14:29.782Z</time></trkpt><trkpt lat="42.7711548" lon="10.3328131"><ele>231.5</ele><time>2026-04-04T07:14:30.782Z</time></trkpt><trkpt lat="42.7712465" lon="10.3328214"><ele>233.66666666666666</ele><time>2026-04-04T07:14:31.782Z</time></trkpt><trkpt lat="42.7713351" lon="10.3328119"><ele>235.83333333333331</ele><time>2026-04-04T07:14:32.782Z</time></trkpt><trkpt lat="42.7714392" lon="10.3327693"><ele>238.0</ele><time>2026-04-04T07:14:33.782Z</time></trkpt><trkpt lat="42.7715381" lon="10.3327027"><ele>238.0</ele><time>2026-04-04T07:14:34.782Z</time></trkpt><trkpt lat="42.7716231" lon="10.3326437"><ele>238.0</ele><time>2026-04-04T07:14:35.782Z</time></trkpt><trkpt lat="42.7717274" lon="10.3325852"><ele>238.0</ele><time>2026-04-04T07:14:36.782Z</time></trkpt><trkpt lat="42.7718125" lon="10.3325669"><ele>238.0</ele><time>2026-04-04T07:14:37.782Z</time></trkpt><trkpt lat="42.7719277" lon="10.332667"><ele>238.0</ele><time>2026-04-04T07:14:38.781Z</time></trkpt><trkpt lat="42.7720308" lon="10.3327056"><ele>240.5</ele><time>2026-04-04T07:14:39.782Z</time></trkpt><trkpt lat="42.7721585" lon="10.3327747"><ele>243.0</ele><time>2026-04-04T07:14:40.782Z</time></trkpt><trkpt lat="42.7722868" lon="10.3328076"><ele>245.5</ele><time>2026-04-04T07:14:41.782Z</time></trkpt><trkpt lat="42.7724131" lon="10.3328707"><ele>248.0</ele><time>2026-04-04T07:14:42.782Z</time></trkpt><trkpt lat="42.7725027" lon="10.3329667"><ele>248.0</ele><time>2026-04-04T07:14:43.781Z</time></trkpt><trkpt lat="42.7726008" lon="10.3330515"><ele>248.0</ele><time>2026-04-04T07:14:44.782Z</time></trkpt><trkpt lat="42.7726987" lon="10.3331195"><ele>248.0</ele><time>2026-04-04T07:14:45.782Z</time></trkpt><trkpt lat="42.772815" lon="10.3331426"><ele>248.0</ele><time>2026-04-04T07:14:46.782Z</time></trkpt><trkpt lat="42.772913" lon="10.3331838"><ele>248.0</ele><time>2026-04-04T07:14:47.782Z</time></trkpt><trkpt lat="42.7730044" lon="10.3331991"><ele>247.83333333333334</ele><time>2026-04-04T07:14:48.782Z</time></trkpt><trkpt lat="42.7730938" lon="10.3332207"><ele>247.66666666666669</ele><time>2026-04-04T07:14:50.782Z</time></trkpt><trkpt lat="42.7731601" lon="10.3332115"><ele>247.5</ele><time>2026-04-04T07:14:58.782Z</time></trkpt><trkpt lat="42.7731278" lon="10.3330885"><ele>247.33333333333331</ele><time>2026-04-04T07:15:02.782Z</time></trkpt><trkpt lat="42.7730603" lon="10.3329694"><ele>247.16666666666666</ele><time>2026-04-04T07:15:04.782Z</time></trkpt><trkpt lat="42.773024" lon="10.3328877"><ele>247.0</ele><time>2026-04-04T07:15:05.782Z</time></trkpt><trkpt lat="42.7729774" lon="10.3327987"><ele>247.33333333333331</ele><time>2026-04-04T07:15:06.781Z</time></trkpt><trkpt lat="42.7729325" lon="10.3327001"><ele>247.66666666666666</ele><time>2026-04-04T07:15:07.782Z</time></trkpt><trkpt lat="42.7728881" lon="10.3326022"><ele>248.0</ele><time>2026-04-04T07:15:08.782Z</time></trkpt><trkpt lat="42.7728679" lon="10.3324935"><ele>248.33333333333331</ele><time>2026-04-04T07:15:09.782Z</time></trkpt><trkpt lat="42.7728554" lon="10.3323914"><ele>248.66666666666666</ele><time>2026-04-04T07:15:10.782Z</time></trkpt><trkpt lat="42.7728671" lon="10.3322829"><ele>249.0</ele><time>2026-04-04T07:15:11.782Z</time></trkpt><trkpt lat="42.7729144" lon="10.3321578"><ele>250.0</ele><time>2026-04-04T07:15:12.782Z</time></trkpt><trkpt lat="42.7729519" lon="10.332044"><ele>250.99999999999997</ele><time>2026-04-04T07:15:13.782Z</time></trkpt><trkpt lat="42.7729817" lon="10.3319278"><ele>251.99999999999997</ele><time>2026-04-04T07:15:14.781Z</time></trkpt><trkpt lat="42.7729957" lon="10.3318273"><ele>253.0</ele><time>2026-04-04T07:15:15.781Z</time></trkpt><trkpt lat="42.7730109" lon="10.3316931"><ele>254.0</ele><time>2026-04-04T07:15:16.782Z</time></trkpt><trkpt lat="42.7730421" lon="10.3315688"><ele>254.0</ele><time>2026-04-04T07:15:17.782Z</time></trkpt><trkpt lat="42.7731439" lon="10.3314328"><ele>254.0</ele><time>2026-04-04T07:15:18.782Z</time></trkpt><trkpt lat="42.7732209" lon="10.3312997"><ele>254.0</ele><time>2026-04-04T07:15:19.782Z</time></trkpt><trkpt lat="42.7733124" lon="10.3311959"><ele>254.0</ele><time>2026-04-04T07:15:20.782Z</time></trkpt><trkpt lat="42.7733979" lon="10.3311368"><ele>254.6</ele><time>2026-04-04T07:15:21.782Z</time></trkpt><trkpt lat="42.7734791" lon="10.331083"><ele>255.2</ele><time>2026-04-04T07:15:22.782Z</time></trkpt><trkpt lat="42.7735627" lon="10.3310376"><ele>255.79999999999998</ele><time>2026-04-04T07:15:23.782Z</time></trkpt><trkpt lat="42.7736329" lon="10.3310023"><ele>256.4</ele><time>2026-04-04T07:15:24.781Z</time></trkpt><trkpt lat="42.7736913" lon="10.330935"><ele>257.0</ele><time>2026-04-04T07:15:25.782Z</time></trkpt><trkpt lat="42.7737941" lon="10.3307818"><ele>257.0</ele><time>2026-04-04T07:15:27.782Z</time></trkpt><trkpt lat="42.7738941" lon="10.3306711"><ele>257.0</ele><time>2026-04-04T07:15:29.782Z</time></trkpt><trkpt lat="42.7739431" lon="10.330579"><ele>257.0</ele><time>2026-04-04T07:15:30.782Z</time></trkpt><trkpt lat="42.7739847" lon="10.3304863"><ele>257.0</ele><time>2026-04-04T07:15:31.782Z</time></trkpt><trkpt lat="42.774034" lon="10.3303882"><ele>257.0</ele><time>2026-04-04T07:15:32.782Z</time></trkpt><trkpt lat="42.7740501" lon="10.3302978"><ele>257.0</ele><time>2026-04-04T07:15:33.782Z</time></trkpt><trkpt lat="42.7740912" lon="10.3302092"><ele>256.0</ele><time>2026-04-04T07:15:34.782Z</time></trkpt><trkpt lat="42.774117" lon="10.3301235"><ele>255.0</ele><time>2026-04-04T07:15:35.782Z</time></trkpt><trkpt lat="42.7741488" lon="10.3300407"><ele>254.0</ele><time>2026-04-04T07:15:36.781Z</time></trkpt><trkpt lat="42.7742102" lon="10.3299709"><ele>253.0</ele><time>2026-04-04T07:15:37.782Z</time></trkpt><trkpt lat="42.7742744" lon="10.3298905"><ele>252.00000000000003</ele><time>2026-04-04T07:15:38.782Z</time></trkpt><trkpt lat="42.7743542" lon="10.3298188"><ele>251.0</ele><time>2026-04-04T07:15:39.782Z</time></trkpt><trkpt lat="42.774426" lon="10.3297548"><ele>252.4</ele><time>2026-04-04T07:15:40.782Z</time></trkpt><trkpt lat="42.7744836" lon="10.3296778"><ele>253.8</ele><time>2026-04-04T07:15:41.782Z</time></trkpt><trkpt lat="42.7745408" lon="10.329531"><ele>255.20000000000002</ele><time>2026-04-04T07:15:43.782Z</time></trkpt><trkpt lat="42.7745517" lon="10.3294197"><ele>256.6</ele><time>2026-04-04T07:15:44.782Z</time></trkpt><trkpt lat="42.7745686" lon="10.3293014"><ele>258.0</ele><time>2026-04-04T07:15:45.781Z</time></trkpt><trkpt lat="42.7745709" lon="10.3291606"><ele>258.0</ele><time>2026-04-04T07:15:46.782Z</time></trkpt><trkpt lat="42.7745718" lon="10.3290074"><ele>258.0</ele><time>2026-04-04T07:15:47.782Z</time></trkpt><trkpt lat="42.7745444" lon="10.3288513"><ele>258.0</ele><time>2026-04-04T07:15:48.782Z</time></trkpt><trkpt lat="42.7745221" lon="10.3287215"><ele>258.0</ele><time>2026-04-04T07:15:49.782Z</time></trkpt><trkpt lat="42.7745001" lon="10.3285815"><ele>258.0</ele><time>2026-04-04T07:15:50.782Z</time></trkpt><trkpt lat="42.7744781" lon="10.3284381"><ele>260.8</ele><time>2026-04-04T07:15:51.782Z</time></trkpt><trkpt lat="42.7744736" lon="10.328291"><ele>263.6</ele><time>2026-04-04T07:15:52.782Z</time></trkpt><trkpt lat="42.7744915" lon="10.3281568"><ele>266.4</ele><time>2026-04-04T07:15:53.782Z</time></trkpt><trkpt lat="42.7745296" lon="10.3280581"><ele>269.2</ele><time>2026-04-04T07:15:54.782Z</time></trkpt><trkpt lat="42.7745746" lon="10.3279643"><ele>272.0</ele><time>2026-04-04T07:15:55.782Z</time></trkpt><trkpt lat="42.774685" lon="10.3278958"><ele>275.0</ele><time>2026-04-04T07:15:56.782Z</time></trkpt><trkpt lat="42.774766" lon="10.3278297"><ele>278.0</ele><time>2026-04-04T07:15:57.782Z</time></trkpt><trkpt lat="42.7748521" lon="10.3277766"><ele>281.0</ele><time>2026-04-04T07:15:58.782Z</time></trkpt><trkpt lat="42.774935" lon="10.3277305"><ele>284.0</ele><time>2026-04-04T07:15:59.782Z</time></trkpt><trkpt lat="42.7750015" lon="10.3276683"><ele>287.0</ele><time>2026-04-04T07:16:00.782Z</time></trkpt><trkpt lat="42.7750738" lon="10.3275934"><ele>287.0</ele><time>2026-04-04T07:16:01.782Z</time></trkpt><trkpt lat="42.7751414" lon="10.3274987"><ele>287.0</ele><time>2026-04-04T07:16:02.782Z</time></trkpt><trkpt lat="42.7752318" lon="10.3274043"><ele>287.0</ele><time>2026-04-04T07:16:03.782Z</time></trkpt><trkpt lat="42.7753308" lon="10.3273287"><ele>287.0</ele><time>2026-04-04T07:16:04.782Z</time></trkpt><trkpt lat="42.775437" lon="10.3272766"><ele>287.0</ele><time>2026-04-04T07:16:05.782Z</time></trkpt><trkpt lat="42.7755433" lon="10.3272573"><ele>286.6666666666667</ele><time>2026-04-04T07:16:06.782Z</time></trkpt><trkpt lat="42.7756264" lon="10.3272547"><ele>286.33333333333337</ele><time>2026-04-04T07:16:07.782Z</time></trkpt><trkpt lat="42.775719" lon="10.3272437"><ele>286.0</ele><time>2026-04-04T07:16:08.781Z</time></trkpt><trkpt lat="42.7758024" lon="10.3272355"><ele>285.6666666666667</ele><time>2026-04-04T07:16:09.782Z</time></trkpt><trkpt lat="42.7758867" lon="10.3271938"><ele>285.3333333333333</ele><time>2026-04-04T07:16:10.782Z</time></trkpt><trkpt lat="42.7759632" lon="10.3271343"><ele>285.0</ele><time>2026-04-04T07:16:11.782Z</time></trkpt><trkpt lat="42.7760238" lon="10.327061"><ele>283.6666666666667</ele><time>2026-04-04T07:16:12.781Z</time></trkpt><trkpt lat="42.7760644" lon="10.3269747"><ele>282.3333333333333</ele><time>2026-04-04T07:16:13.782Z</time></trkpt><trkpt lat="42.7761137" lon="10.3268789"><ele>281.0</ele><time>2026-04-04T07:16:14.782Z</time></trkpt><trkpt lat="42.7761628" lon="10.326785"><ele>279.66666666666663</ele><time>2026-04-04T07:16:15.782Z</time></trkpt><trkpt lat="42.7762075" lon="10.3266937"><ele>278.3333333333333</ele><time>2026-04-04T07:16:16.782Z</time></trkpt><trkpt lat="42.7762568" lon="10.3266233"><ele>277.0</ele><time>2026-04-04T07:16:17.782Z</time></trkpt><trkpt lat="42.776259" lon="10.326479"><ele>281.25</ele><time>2026-04-04T07:16:18.782Z</time></trkpt><trkpt lat="42.7762831" lon="10.326326"><ele>285.5</ele><time>2026-04-04T07:16:19.782Z</time></trkpt><trkpt lat="42.7763354" lon="10.3261724"><ele>289.75</ele><time>2026-04-04T07:16:20.782Z</time></trkpt><trkpt lat="42.7763964" lon="10.3260286"><ele>294.0</ele><time>2026-04-04T07:16:21.782Z</time></trkpt><trkpt lat="42.7764589" lon="10.3258846"><ele>294.0</ele><time>2026-04-04T07:16:22.782Z</time></trkpt><trkpt lat="42.7765306" lon="10.3257731"><ele>294.0</ele><time>2026-04-04T07:16:23.782Z</time></trkpt><trkpt lat="42.7765981" lon="10.3256654"><ele>294.0</ele><time>2026-04-04T07:16:24.781Z</time></trkpt><trkpt lat="42.776655" lon="10.3255597"><ele>294.0</ele><time>2026-04-04T07:16:25.782Z</time></trkpt><trkpt lat="42.7766846" lon="10.3254765"><ele>294.0</ele><time>2026-04-04T07:16:26.782Z</time></trkpt><trkpt lat="42.776739" lon="10.325311"><ele>294.6666666666667</ele><time>2026-04-04T07:16:28.782Z</time></trkpt><trkpt lat="42.7767644" lon="10.3252133"><ele>295.3333333333333</ele><time>2026-04-04T07:16:29.782Z</time></trkpt><trkpt lat="42.7767867" lon="10.3251066"><ele>296.0</ele><time>2026-04-04T07:16:30.782Z</time></trkpt><trkpt lat="42.7767979" lon="10.3249898"><ele>296.66666666666663</ele><time>2026-04-04T07:16:31.782Z</time></trkpt><trkpt lat="42.7768145" lon="10.3249011"><ele>297.3333333333333</ele><time>2026-04-04T07:16:32.782Z</time></trkpt><trkpt lat="42.7768599" lon="10.3247628"><ele>298.0</ele><time>2026-04-04T07:16:33.782Z</time></trkpt><trkpt lat="42.7768918" lon="10.3246491"><ele>298.0</ele><time>2026-04-04T07:16:34.782Z</time></trkpt><trkpt lat="42.7768961" lon="10.3245314"><ele>298.0</ele><time>2026-04-04T07:16:35.781Z</time></trkpt><trkpt lat="42.7769045" lon="10.3244275"><ele>298.0</ele><time>2026-04-04T07:16:36.782Z</time></trkpt><trkpt lat="42.7769228" lon="10.3242672"><ele>298.0</ele><time>2026-04-04T07:16:38.782Z</time></trkpt><trkpt lat="42.7769708" lon="10.3242066"><ele>298.0</ele><time>2026-04-04T07:16:40.782Z</time></trkpt><trkpt lat="42.7770649" lon="10.3242055"><ele>298.0</ele><time>2026-04-04T07:16:42.782Z</time></trkpt><trkpt lat="42.7771704" lon="10.3242273"><ele>298.0</ele><time>2026-04-04T07:16:44.782Z</time></trkpt><trkpt lat="42.7772704" lon="10.3242064"><ele>298.0</ele><time>2026-04-04T07:16:46.782Z</time></trkpt><trkpt lat="42.7773697" lon="10.3241789"><ele>298.0</ele><time>2026-04-04T07:16:47.782Z</time></trkpt><trkpt lat="42.7774462" lon="10.3241253"><ele>298.0</ele><time>2026-04-04T07:16:49.782Z</time></trkpt><trkpt lat="42.7775105" lon="10.324081"><ele>298.0</ele><time>2026-04-04T07:16:50.782Z</time></trkpt><trkpt lat="42.7775712" lon="10.3240327"><ele>298.0</ele><time>2026-04-04T07:16:51.782Z</time></trkpt><trkpt lat="42.7776742" lon="10.3239715"><ele>296.0</ele><time>2026-04-04T07:16:53.782Z</time></trkpt><trkpt lat="42.7777379" lon="10.3239603"><ele>294.0</ele><time>2026-04-04T07:16:54.781Z</time></trkpt><trkpt lat="42.7778405" lon="10.3239674"><ele>292.0</ele><time>2026-04-04T07:16:56.782Z</time></trkpt><trkpt lat="42.7779405" lon="10.3240137"><ele>290.0</ele><time>2026-04-04T07:16:58.781Z</time></trkpt><trkpt lat="42.7780132" lon="10.324038"><ele>288.0</ele><time>2026-04-04T07:16:59.782Z</time></trkpt><trkpt lat="42.7780988" lon="10.324042"><ele>286.0</ele><time>2026-04-04T07:17:00.782Z</time></trkpt><trkpt lat="42.7781689" lon="10.3240282"><ele>286.0</ele><time>2026-04-04T07:17:01.782Z</time></trkpt><trkpt lat="42.7782325" lon="10.3239848"><ele>286.0</ele><time>2026-04-04T07:17:02.782Z</time></trkpt><trkpt lat="42.7783059" lon="10.32393"><ele>286.0</ele><time>2026-04-04T07:17:03.782Z</time></trkpt><trkpt lat="42.7784041" lon="10.3238849"><ele>286.0</ele><time>2026-04-04T07:17:05.782Z</time></trkpt><trkpt lat="42.7785061" lon="10.3238866"><ele>286.0</ele><time>2026-04-04T07:17:07.782Z</time></trkpt><trkpt lat="42.7785735" lon="10.3238788"><ele>286.0</ele><time>2026-04-04T07:17:08.782Z</time></trkpt><trkpt lat="42.778684" lon="10.3238332"><ele>286.40000000000003</ele><time>2026-04-04T07:17:10.782Z</time></trkpt><trkpt lat="42.7787808" lon="10.3237786"><ele>286.8</ele><time>2026-04-04T07:17:12.782Z</time></trkpt><trkpt lat="42.7789024" lon="10.3237551"><ele>287.20000000000005</ele><time>2026-04-04T07:17:14.782Z</time></trkpt><trkpt lat="42.7790052" lon="10.3238449"><ele>287.6</ele><time>2026-04-04T07:17:16.782Z</time></trkpt><trkpt lat="42.7790514" lon="10.3239406"><ele>288.0</ele><time>2026-04-04T07:17:17.782Z</time></trkpt><trkpt lat="42.7790888" lon="10.3240432"><ele>288.0</ele><time>2026-04-04T07:17:18.782Z</time></trkpt><trkpt lat="42.7791216" lon="10.3241575"><ele>288.0</ele><time>2026-04-04T07:17:19.782Z</time></trkpt><trkpt lat="42.7791463" lon="10.3242714"><ele>288.0</ele><time>2026-04-04T07:17:20.782Z</time></trkpt><trkpt lat="42.7791739" lon="10.3243874"><ele>288.0</ele><time>2026-04-04T07:17:21.782Z</time></trkpt><trkpt lat="42.779198" lon="10.3245133"><ele>288.0</ele><time>2026-04-04T07:17:22.781Z</time></trkpt><trkpt lat="42.7792239" lon="10.3246307"><ele>288.0</ele><time>2026-04-04T07:17:23.782Z</time></trkpt><trkpt lat="42.7792472" lon="10.324721"><ele>288.0</ele><time>2026-04-04T07:17:24.782Z</time></trkpt><trkpt lat="42.7792812" lon="10.3248072"><ele>288.0</ele><time>2026-04-04T07:17:25.782Z</time></trkpt><trkpt lat="42.7793793" lon="10.3248926"><ele>288.0</ele><time>2026-04-04T07:17:27.782Z</time></trkpt><trkpt lat="42.7794756" lon="10.3248894"><ele>288.0</ele><time>2026-04-04T07:17:28.782Z</time></trkpt><trkpt lat="42.7795573" lon="10.3248803"><ele>288.0</ele><time>2026-04-04T07:17:29.782Z</time></trkpt><trkpt lat="42.7796388" lon="10.3248699"><ele>288.3333333333333</ele><time>2026-04-04T07:17:30.782Z</time></trkpt><trkpt lat="42.7797302" lon="10.3249143"><ele>288.6666666666667</ele><time>2026-04-04T07:17:32.781Z</time></trkpt><trkpt lat="42.7797881" lon="10.3250375"><ele>289.0</ele><time>2026-04-04T07:17:34.782Z</time></trkpt><trkpt lat="42.7798124" lon="10.3251372"><ele>289.33333333333337</ele><time>2026-04-04T07:17:36.782Z</time></trkpt><trkpt lat="42.7798678" lon="10.3251982"><ele>289.6666666666667</ele><time>2026-04-04T07:18:55.782Z</time></trkpt><trkpt lat="42.779893" lon="10.3252821"><ele>290.0</ele><time>2026-04-04T07:18:57.782Z</time></trkpt><trkpt lat="42.779935" lon="10.3254246"><ele>288.0</ele><time>2026-04-04T07:18:59.782Z</time></trkpt><trkpt lat="42.7799889" lon="10.3255715"><ele>286.0</ele><time>2026-04-04T07:19:00.782Z</time></trkpt><trkpt lat="42.780034" lon="10.3257125"><ele>284.0</ele><time>2026-04-04T07:19:01.782Z</time></trkpt><trkpt lat="42.7800919" lon="10.3258649"><ele>282.0</ele><time>2026-04-04T07:19:02.782Z</time></trkpt><trkpt lat="42.7801665" lon="10.3259868"><ele>281.8</ele><time>2026-04-04T07:19:03.782Z</time></trkpt><trkpt lat="42.7802082" lon="10.326105"><ele>281.6</ele><time>2026-04-04T07:19:04.782Z</time></trkpt><trkpt lat="42.7802535" lon="10.3262384"><ele>281.40000000000003</ele><time>2026-04-04T07:19:06.782Z</time></trkpt><trkpt lat="42.7802499" lon="10.326342"><ele>281.2</ele><time>2026-04-04T07:19:08.782Z</time></trkpt><trkpt lat="42.7802774" lon="10.3261982"><ele>281.0</ele><time>2026-04-04T07:19:49.782Z</time></trkpt><trkpt lat="42.7802664" lon="10.3260876"><ele>281.0</ele><time>2026-04-04T07:19:50.782Z</time></trkpt><trkpt lat="42.7802982" lon="10.3259424"><ele>281.0</ele><time>2026-04-04T07:19:51.782Z</time></trkpt><trkpt lat="42.7803372" lon="10.3257837"><ele>281.0</ele><time>2026-04-04T07:19:52.782Z</time></trkpt><trkpt lat="42.7803904" lon="10.325669"><ele>281.0</ele><time>2026-04-04T07:19:53.782Z</time></trkpt><trkpt lat="42.7804305" lon="10.3255619"><ele>281.0</ele><time>2026-04-04T07:19:54.782Z</time></trkpt><trkpt lat="42.7804483" lon="10.3254385"><ele>284.8</ele><time>2026-04-04T07:19:55.782Z</time></trkpt><trkpt lat="42.7804412" lon="10.3252895"><ele>288.6</ele><time>2026-04-04T07:19:56.782Z</time></trkpt><trkpt lat="42.7804312" lon="10.3251254"><ele>292.4</ele><time>2026-04-04T07:19:57.782Z</time></trkpt><trkpt lat="42.7803794" lon="10.3250208"><ele>296.2</ele><time>2026-04-04T07:19:58.782Z</time></trkpt><trkpt lat="42.7803587" lon="10.3248848"><ele>300.0</ele><time>2026-04-04T07:19:59.782Z</time></trkpt><trkpt lat="42.7804026" lon="10.3246957"><ele>304.2</ele><time>2026-04-04T07:20:00.782Z</time></trkpt><trkpt lat="42.7804089" lon="10.3245729"><ele>308.4</ele><time>2026-04-04T07:20:01.781Z</time></trkpt><trkpt lat="42.780452" lon="10.3244396"><ele>312.6</ele><time>2026-04-04T07:20:02.782Z</time></trkpt><trkpt lat="42.7804835" lon="10.3243"><ele>316.8</ele><time>2026-04-04T07:20:03.782Z</time></trkpt><trkpt lat="42.7805288" lon="10.324184"><ele>321.0</ele><time>2026-04-04T07:20:04.782Z</time></trkpt><trkpt lat="42.7805229" lon="10.3240735"><ele>321.0</ele><time>2026-04-04T07:20:05.781Z</time></trkpt><trkpt lat="42.7805223" lon="10.3239762"><ele>321.0</ele><time>2026-04-04T07:20:06.782Z</time></trkpt><trkpt lat="42.7804472" lon="10.3238802"><ele>321.0</ele><time>2026-04-04T07:20:07.782Z</time></trkpt><trkpt lat="42.7803502" lon="10.3237899"><ele>321.0</ele><time>2026-04-04T07:20:08.781Z</time></trkpt><trkpt lat="42.7802512" lon="10.3237086"><ele>321.0</ele><time>2026-04-04T07:20:09.782Z</time></trkpt><trkpt lat="42.7801506" lon="10.3236346"><ele>322.1666666666667</ele><time>2026-04-04T07:20:10.782Z</time></trkpt><trkpt lat="42.7800795" lon="10.3235638"><ele>323.3333333333333</ele><time>2026-04-04T07:20:11.781Z</time></trkpt><trkpt lat="42.7799996" lon="10.323476"><ele>324.5</ele><time>2026-04-04T07:20:12.782Z</time></trkpt><trkpt lat="42.7799441" lon="10.3233861"><ele>325.66666666666663</ele><time>2026-04-04T07:20:13.782Z</time></trkpt><trkpt lat="42.7798932" lon="10.3232791"><ele>326.8333333333333</ele><time>2026-04-04T07:20:14.782Z</time></trkpt><trkpt lat="42.7798683" lon="10.3231802"><ele>328.0</ele><time>2026-04-04T07:20:15.782Z</time></trkpt><trkpt lat="42.7798543" lon="10.323028"><ele>331.79999999999995</ele><time>2026-04-04T07:20:16.781Z</time></trkpt><trkpt lat="42.7798311" lon="10.3228956"><ele>335.6</ele><time>2026-04-04T07:20:17.781Z</time></trkpt><trkpt lat="42.7798213" lon="10.3227771"><ele>339.4</ele><time>2026-04-04T07:20:18.782Z</time></trkpt><trkpt lat="42.7798056" lon="10.3226493"><ele>343.20000000000005</ele><time>2026-04-04T07:20:19.782Z</time></trkpt><trkpt lat="42.7797825" lon="10.3225189"><ele>347.0</ele><time>2026-04-04T07:20:20.782Z</time></trkpt><trkpt lat="42.779758" lon="10.3223879"><ele>347.0</ele><time>2026-04-04T07:20:21.782Z</time></trkpt><trkpt lat="42.7796763" lon="10.3222872"><ele>347.0</ele><time>2026-04-04T07:20:22.782Z</time></trkpt><trkpt lat="42.7795847" lon="10.3221797"><ele>347.0</ele><time>2026-04-04T07:20:23.782Z</time></trkpt><trkpt lat="42.7794974" lon="10.3220656"><ele>347.0</ele><time>2026-04-04T07:20:24.782Z</time></trkpt><trkpt lat="42.7794242" lon="10.3219959"><ele>347.0</ele><time>2026-04-04T07:20:25.782Z</time></trkpt><trkpt lat="42.7793265" lon="10.3219285"><ele>350.25</ele><time>2026-04-04T07:20:26.782Z</time></trkpt><trkpt lat="42.7792174" lon="10.3218857"><ele>353.5</ele><time>2026-04-04T07:20:27.782Z</time></trkpt><trkpt lat="42.7791086" lon="10.3218609"><ele>356.75</ele><time>2026-04-04T07:20:28.782Z</time></trkpt><trkpt lat="42.7789758" lon="10.3218373"><ele>360.0</ele><time>2026-04-04T07:20:29.782Z</time></trkpt><trkpt lat="42.7788536" lon="10.3218144"><ele>360.0</ele><time>2026-04-04T07:20:30.782Z</time></trkpt><trkpt lat="42.7787544" lon="10.3218049"><ele>360.0</ele><time>2026-04-04T07:20:31.782Z</time></trkpt><trkpt lat="42.7786847" lon="10.321793"><ele>360.0</ele><time>2026-04-04T07:20:32.782Z</time></trkpt><trkpt lat="42.7786109" lon="10.3217682"><ele>360.0</ele><time>2026-04-04T07:20:33.781Z</time></trkpt><trkpt lat="42.7786607" lon="10.3216825"><ele>360.0</ele><time>2026-04-04T07:22:18.782Z</time></trkpt><trkpt lat="42.778784" lon="10.3216371"><ele>360.0</ele><time>2026-04-04T07:22:20.782Z</time></trkpt><trkpt lat="42.7788533" lon="10.3216076"><ele>360.0</ele><time>2026-04-04T07:22:21.782Z</time></trkpt><trkpt lat="42.7789508" lon="10.3215762"><ele>360.0</ele><time>2026-04-04T07:22:22.782Z</time></trkpt><trkpt lat="42.7790614" lon="10.3214983"><ele>360.0</ele><time>2026-04-04T07:22:23.782Z</time></trkpt><trkpt lat="42.7791738" lon="10.3214512"><ele>360.0</ele><time>2026-04-04T07:22:24.781Z</time></trkpt><trkpt lat="42.7792889" lon="10.3214159"><ele>361.0</ele><time>2026-04-04T07:22:25.782Z</time></trkpt><trkpt lat="42.7793729" lon="10.3214164"><ele>362.0</ele><time>2026-04-04T07:22:26.782Z</time></trkpt><trkpt lat="42.7794745" lon="10.3214197"><ele>363.0</ele><time>2026-04-04T07:22:27.782Z</time></trkpt><trkpt lat="42.7795918" lon="10.3214517"><ele>364.0</ele><time>2026-04-04T07:22:28.782Z</time></trkpt><trkpt lat="42.7797109" lon="10.3214995"><ele>365.0</ele><time>2026-04-04T07:22:29.782Z</time></trkpt><trkpt lat="42.7798294" lon="10.3215427"><ele>365.0</ele><time>2026-04-04T07:22:30.782Z</time></trkpt><trkpt lat="42.7799382" lon="10.321596"><ele>365.0</ele><time>2026-04-04T07:22:31.782Z</time></trkpt><trkpt lat="42.7800376" lon="10.3216433"><ele>365.0</ele><time>2026-04-04T07:22:32.782Z</time></trkpt><trkpt lat="42.7801308" lon="10.3216677"><ele>365.0</ele><time>2026-04-04T07:22:33.782Z</time></trkpt><trkpt lat="42.7802006" lon="10.3216779"><ele>365.0</ele><time>2026-04-04T07:22:34.782Z</time></trkpt><trkpt lat="42.7802549" lon="10.3216192"><ele>365.0</ele><time>2026-04-04T07:24:08.782Z</time></trkpt><trkpt lat="42.7801576" lon="10.3216144"><ele>365.0</ele><time>2026-04-04T07:24:14.782Z</time></trkpt><trkpt lat="42.7800386" lon="10.3216106"><ele>365.0</ele><time>2026-04-04T07:24:16.782Z</time></trkpt><trkpt lat="42.7799182" lon="10.321559"><ele>365.0</ele><time>2026-04-04T07:24:18.782Z</time></trkpt><trkpt lat="42.7798516" lon="10.321523"><ele>365.0</ele><time>2026-04-04T07:24:19.782Z</time></trkpt><trkpt lat="42.7797674" lon="10.3214875"><ele>365.0</ele><time>2026-04-04T07:24:20.782Z</time></trkpt><trkpt lat="42.7796906" lon="10.3214463"><ele>365.0</ele><time>2026-04-04T07:24:21.782Z</time></trkpt><trkpt lat="42.7796167" lon="10.3214154"><ele>365.0</ele><time>2026-04-04T07:24:22.781Z</time></trkpt><trkpt lat="42.7795456" lon="10.3213913"><ele>365.0</ele><time>2026-04-04T07:24:23.782Z</time></trkpt><trkpt lat="42.7794173" lon="10.3213603"><ele>365.0</ele><time>2026-04-04T07:24:25.782Z</time></trkpt><trkpt lat="42.779337" lon="10.3213724"><ele>365.0</ele><time>2026-04-04T07:24:26.782Z</time></trkpt><trkpt lat="42.7792738" lon="10.3213818"><ele>364.1666666666667</ele><time>2026-04-04T07:24:27.782Z</time></trkpt><trkpt lat="42.779146" lon="10.321426"><ele>363.33333333333337</ele><time>2026-04-04T07:24:29.782Z</time></trkpt><trkpt lat="42.7790821" lon="10.3214605"><ele>362.5</ele><time>2026-04-04T07:24:30.782Z</time></trkpt><trkpt lat="42.7790211" lon="10.3214865"><ele>361.6666666666667</ele><time>2026-04-04T07:24:31.782Z</time></trkpt><trkpt lat="42.7789594" lon="10.3215208"><ele>360.8333333333333</ele><time>2026-04-04T07:24:32.782Z</time></trkpt><trkpt lat="42.7788996" lon="10.3215554"><ele>360.0</ele><time>2026-04-04T07:24:33.782Z</time></trkpt><trkpt lat="42.7788401" lon="10.321594"><ele>360.0</ele><time>2026-04-04T07:24:34.782Z</time></trkpt><trkpt lat="42.7787684" lon="10.3216315"><ele>360.0</ele><time>2026-04-04T07:24:35.782Z</time></trkpt><trkpt lat="42.7786645" lon="10.3216798"><ele>360.0</ele><time>2026-04-04T07:24:37.782Z</time></trkpt><trkpt lat="42.7785695" lon="10.3217331"><ele>360.0</ele><time>2026-04-04T07:24:39.781Z</time></trkpt><trkpt lat="42.7786294" lon="10.3217614"><ele>360.0</ele><time>2026-04-04T07:25:06.791Z</time></trkpt><trkpt lat="42.7787857" lon="10.3216617"><ele>360.0</ele><time>2026-04-04T07:25:08.782Z</time></trkpt><trkpt lat="42.7788763" lon="10.3216119"><ele>360.0</ele><time>2026-04-04T07:25:09.782Z</time></trkpt><trkpt lat="42.7789803" lon="10.3215547"><ele>360.0</ele><time>2026-04-04T07:25:10.782Z</time></trkpt><trkpt lat="42.7790739" lon="10.3215127"><ele>360.0</ele><time>2026-04-04T07:25:11.782Z</time></trkpt><trkpt lat="42.7791741" lon="10.321457"><ele>360.0</ele><time>2026-04-04T07:25:12.782Z</time></trkpt><trkpt lat="42.7792868" lon="10.3214154"><ele>361.25</ele><time>2026-04-04T07:25:13.782Z</time></trkpt><trkpt lat="42.7793888" lon="10.3214087"><ele>362.5</ele><time>2026-04-04T07:25:14.782Z</time></trkpt><trkpt lat="42.7794961" lon="10.3214056"><ele>363.75</ele><time>2026-04-04T07:25:15.782Z</time></trkpt><trkpt lat="42.7796186" lon="10.3214691"><ele>365.0</ele><time>2026-04-04T07:25:16.782Z</time></trkpt><trkpt lat="42.779725" lon="10.3215192"><ele>365.0</ele><time>2026-04-04T07:25:17.782Z</time></trkpt><trkpt lat="42.7798467" lon="10.3215704"><ele>365.0</ele><time>2026-04-04T07:25:18.782Z</time></trkpt><trkpt lat="42.7799429" lon="10.3216168"><ele>365.0</ele><time>2026-04-04T07:25:19.782Z</time></trkpt><trkpt lat="42.7800459" lon="10.3216542"><ele>365.0</ele><time>2026-04-04T07:25:20.782Z</time></trkpt><trkpt lat="42.7801415" lon="10.3216749"><ele>365.0</ele><time>2026-04-04T07:25:21.781Z</time></trkpt><trkpt lat="42.7802045" lon="10.3216517"><ele>365.2</ele><time>2026-04-04T07:25:22.782Z</time></trkpt><trkpt lat="42.7802789" lon="10.3215435"><ele>365.4</ele><time>2026-04-04T07:25:24.782Z</time></trkpt><trkpt lat="42.7802323" lon="10.3214205"><ele>365.6</ele><time>2026-04-04T07:25:25.782Z</time></trkpt><trkpt lat="42.780231" lon="10.3213207"><ele>365.8</ele><time>2026-04-04T07:25:26.781Z</time></trkpt><trkpt lat="42.7802579" lon="10.3212205"><ele>366.0</ele><time>2026-04-04T07:25:28.782Z</time></trkpt><trkpt lat="42.7801763" lon="10.3211473"><ele>366.0</ele><time>2026-04-04T07:38:09.782Z</time></trkpt><trkpt lat="42.7801045" lon="10.3211371"><ele>366.0</ele><time>2026-04-04T07:38:10.782Z</time></trkpt><trkpt lat="42.7800078" lon="10.3211167"><ele>366.0</ele><time>2026-04-04T07:38:11.782Z</time></trkpt><trkpt lat="42.7799001" lon="10.3210873"><ele>366.0</ele><time>2026-04-04T07:38:12.782Z</time></trkpt><trkpt lat="42.779776" lon="10.3210501"><ele>366.0</ele><time>2026-04-04T07:38:13.782Z</time></trkpt><trkpt lat="42.7796387" lon="10.321006"><ele>366.0</ele><time>2026-04-04T07:38:14.782Z</time></trkpt><trkpt lat="42.7794999" lon="10.3209595"><ele>366.0</ele><time>2026-04-04T07:38:15.782Z</time></trkpt><trkpt lat="42.779363" lon="10.3209212"><ele>366.0</ele><time>2026-04-04T07:38:16.782Z</time></trkpt><trkpt lat="42.7792389" lon="10.3208838"><ele>366.0</ele><time>2026-04-04T07:38:17.782Z</time></trkpt><trkpt lat="42.7791355" lon="10.320855"><ele>366.6666666666667</ele><time>2026-04-04T07:38:18.782Z</time></trkpt><trkpt lat="42.779042" lon="10.3208424"><ele>367.3333333333333</ele><time>2026-04-04T07:38:19.782Z</time></trkpt><trkpt lat="42.7789622" lon="10.3208409"><ele>368.0</ele><time>2026-04-04T07:38:20.782Z</time></trkpt><trkpt lat="42.7788971" lon="10.3208376"><ele>368.66666666666663</ele><time>2026-04-04T07:38:21.782Z</time></trkpt><trkpt lat="42.7788022" lon="10.3208491"><ele>369.3333333333333</ele><time>2026-04-04T07:38:23.781Z</time></trkpt><trkpt lat="42.7788661" lon="10.3208602"><ele>370.0</ele><time>2026-04-04T07:40:17.781Z</time></trkpt><trkpt lat="42.7789552" lon="10.3208588"><ele>370.0</ele><time>2026-04-04T07:40:19.782Z</time></trkpt><trkpt lat="42.7790519" lon="10.3208603"><ele>370.0</ele><time>2026-04-04T07:40:21.781Z</time></trkpt><trkpt lat="42.7791145" lon="10.3208719"><ele>370.0</ele><time>2026-04-04T07:40:22.782Z</time></trkpt><trkpt lat="42.7791841" lon="10.3208867"><ele>370.0</ele><time>2026-04-04T07:40:23.782Z</time></trkpt><trkpt lat="42.7792472" lon="10.3208988"><ele>370.0</ele><time>2026-04-04T07:40:24.781Z</time></trkpt><trkpt lat="42.7793191" lon="10.3209222"><ele>370.0</ele><time>2026-04-04T07:40:25.781Z</time></trkpt><trkpt lat="42.7794001" lon="10.3209506"><ele>369.2</ele><time>2026-04-04T07:40:26.781Z</time></trkpt><trkpt lat="42.7794975" lon="10.3209741"><ele>368.4</ele><time>2026-04-04T07:40:27.782Z</time></trkpt><trkpt lat="42.7795936" lon="10.3210063"><ele>367.6</ele><time>2026-04-04T07:40:28.782Z</time></trkpt><trkpt lat="42.7797001" lon="10.3210365"><ele>366.8</ele><time>2026-04-04T07:40:29.782Z</time></trkpt><trkpt lat="42.7798134" lon="10.3210782"><ele>366.0</ele><time>2026-04-04T07:40:30.782Z</time></trkpt><trkpt lat="42.7799297" lon="10.321103"><ele>366.0</ele><time>2026-04-04T07:40:31.782Z</time></trkpt><trkpt lat="42.7800412" lon="10.3211239"><ele>366.0</ele><time>2026-04-04T07:40:32.782Z</time></trkpt><trkpt lat="42.7801471" lon="10.3211468"><ele>366.0</ele><time>2026-04-04T07:40:33.782Z</time></trkpt><trkpt lat="42.7802233" lon="10.3211661"><ele>366.0</ele><time>2026-04-04T07:40:34.781Z</time></trkpt><trkpt lat="42.7803031" lon="10.3211693"><ele>366.0</ele><time>2026-04-04T07:45:37.782Z</time></trkpt><trkpt lat="42.7802854" lon="10.3212691"><ele>365.8333333333333</ele><time>2026-04-04T07:46:08.782Z</time></trkpt><trkpt lat="42.7802658" lon="10.3213509"><ele>365.6666666666667</ele><time>2026-04-04T07:46:10.782Z</time></trkpt><trkpt lat="42.7802675" lon="10.3214576"><ele>365.5</ele><time>2026-04-04T07:46:12.782Z</time></trkpt><trkpt lat="42.7802845" lon="10.3215604"><ele>365.33333333333337</ele><time>2026-04-04T07:46:14.782Z</time></trkpt><trkpt lat="42.7802636" lon="10.3216421"><ele>365.1666666666667</ele><time>2026-04-04T07:46:16.782Z</time></trkpt><trkpt lat="42.780167" lon="10.3216315"><ele>365.0</ele><time>2026-04-04T07:46:18.782Z</time></trkpt><trkpt lat="42.7800551" lon="10.3215938"><ele>365.0</ele><time>2026-04-04T07:46:20.782Z</time></trkpt><trkpt lat="42.7799317" lon="10.3215371"><ele>365.0</ele><time>2026-04-04T07:46:22.782Z</time></trkpt><trkpt lat="42.7798284" lon="10.3214867"><ele>365.0</ele><time>2026-04-04T07:46:24.782Z</time></trkpt><trkpt lat="42.7797639" lon="10.3214589"><ele>365.0</ele><time>2026-04-04T07:46:25.782Z</time></trkpt><trkpt lat="42.7796884" lon="10.3214219"><ele>365.0</ele><time>2026-04-04T07:46:26.782Z</time></trkpt><trkpt lat="42.7796145" lon="10.3214071"><ele>365.14285714285717</ele><time>2026-04-04T07:46:27.782Z</time></trkpt><trkpt lat="42.7795397" lon="10.3213827"><ele>365.2857142857143</ele><time>2026-04-04T07:46:28.782Z</time></trkpt><trkpt lat="42.7794586" lon="10.3213766"><ele>365.42857142857144</ele><time>2026-04-04T07:46:29.782Z</time></trkpt><trkpt lat="42.7793857" lon="10.3213754"><ele>365.57142857142856</ele><time>2026-04-04T07:46:30.782Z</time></trkpt><trkpt lat="42.7793127" lon="10.3213892"><ele>365.7142857142857</ele><time>2026-04-04T07:46:31.782Z</time></trkpt><trkpt lat="42.7792414" lon="10.3214202"><ele>365.8571428571429</ele><time>2026-04-04T07:46:32.781Z</time></trkpt><trkpt lat="42.7791764" lon="10.3214418"><ele>366.0</ele><time>2026-04-04T07:46:33.782Z</time></trkpt><trkpt lat="42.7791166" lon="10.3214688"><ele>364.8</ele><time>2026-04-04T07:46:34.782Z</time></trkpt><trkpt lat="42.7790101" lon="10.3215173"><ele>363.6</ele><time>2026-04-04T07:46:36.782Z</time></trkpt><trkpt lat="42.7789093" lon="10.3215766"><ele>362.4</ele><time>2026-04-04T07:46:38.782Z</time></trkpt><trkpt lat="42.7788223" lon="10.3216437"><ele>361.2</ele><time>2026-04-04T07:46:40.782Z</time></trkpt><trkpt lat="42.7787487" lon="10.3216828"><ele>360.0</ele><time>2026-04-04T07:46:42.782Z</time></trkpt><trkpt lat="42.7786654" lon="10.3217009"><ele>360.0</ele><time>2026-04-04T07:46:45.782Z</time></trkpt><trkpt lat="42.7785999" lon="10.3217586"><ele>360.0</ele><time>2026-04-04T07:46:48.782Z</time></trkpt><trkpt lat="42.7786636" lon="10.3218234"><ele>360.0</ele><time>2026-04-04T07:46:52.782Z</time></trkpt><trkpt lat="42.7787669" lon="10.3218198"><ele>360.0</ele><time>2026-04-04T07:46:54.782Z</time></trkpt><trkpt lat="42.778867" lon="10.3218304"><ele>360.0</ele><time>2026-04-04T07:46:56.781Z</time></trkpt><trkpt lat="42.7789822" lon="10.3218603"><ele>360.0</ele><time>2026-04-04T07:46:58.782Z</time></trkpt><trkpt lat="42.779095" lon="10.3218923"><ele>360.0</ele><time>2026-04-04T07:47:00.782Z</time></trkpt><trkpt lat="42.7792084" lon="10.3219139"><ele>360.0</ele><time>2026-04-04T07:47:02.782Z</time></trkpt><trkpt lat="42.7793287" lon="10.3219613"><ele>360.0</ele><time>2026-04-04T07:47:04.781Z</time></trkpt><trkpt lat="42.7794049" lon="10.3220382"><ele>361.0</ele><time>2026-04-04T07:47:06.782Z</time></trkpt><trkpt lat="42.7794835" lon="10.3221344"><ele>362.0</ele><time>2026-04-04T07:47:08.782Z</time></trkpt><trkpt lat="42.7795721" lon="10.3222518"><ele>363.0</ele><time>2026-04-04T07:47:10.782Z</time></trkpt><trkpt lat="42.7796222" lon="10.322314"><ele>364.0</ele><time>2026-04-04T07:47:11.782Z</time></trkpt><trkpt lat="42.7796781" lon="10.322416"><ele>365.0</ele><time>2026-04-04T07:47:13.782Z</time></trkpt><trkpt lat="42.7797434" lon="10.3225556"><ele>362.0</ele><time>2026-04-04T07:47:15.782Z</time></trkpt><trkpt lat="42.7797665" lon="10.3226387"><ele>359.0</ele><time>2026-04-04T07:47:16.782Z</time></trkpt><trkpt lat="42.7797898" lon="10.3227268"><ele>356.0</ele><time>2026-04-04T07:47:17.782Z</time></trkpt><trkpt lat="42.7798155" lon="10.3228652"><ele>353.0</ele><time>2026-04-04T07:47:19.781Z</time></trkpt><trkpt lat="42.7798304" lon="10.3229535"><ele>350.0</ele><time>2026-04-04T07:47:20.782Z</time></trkpt><trkpt lat="42.779855" lon="10.323034"><ele>347.0</ele><time>2026-04-04T07:47:21.782Z</time></trkpt><trkpt lat="42.7798883" lon="10.3231789"><ele>344.20000000000005</ele><time>2026-04-04T07:47:23.782Z</time></trkpt><trkpt lat="42.7799183" lon="10.3233116"><ele>341.4</ele><time>2026-04-04T07:47:25.782Z</time></trkpt><trkpt lat="42.7799711" lon="10.3234531"><ele>338.6</ele><time>2026-04-04T07:47:27.782Z</time></trkpt><trkpt lat="42.7800278" lon="10.3235715"><ele>335.79999999999995</ele><time>2026-04-04T07:47:29.782Z</time></trkpt><trkpt lat="42.7801249" lon="10.3236593"><ele>333.0</ele><time>2026-04-04T07:47:31.782Z</time></trkpt><trkpt lat="42.7802167" lon="10.3237265"><ele>333.0</ele><time>2026-04-04T07:47:33.782Z</time></trkpt><trkpt lat="42.7803261" lon="10.3238028"><ele>333.0</ele><time>2026-04-04T07:47:35.781Z</time></trkpt><trkpt lat="42.780396" lon="10.3238287"><ele>333.0</ele><time>2026-04-04T07:47:36.782Z</time></trkpt><trkpt lat="42.7804402" lon="10.3238995"><ele>333.0</ele><time>2026-04-04T07:47:38.782Z</time></trkpt><trkpt lat="42.7804917" lon="10.3239775"><ele>333.0</ele><time>2026-04-04T07:47:39.782Z</time></trkpt><trkpt lat="42.7804781" lon="10.3241103"><ele>333.0</ele><time>2026-04-04T07:47:41.782Z</time></trkpt><trkpt lat="42.7804815" lon="10.3242078"><ele>331.0</ele><time>2026-04-04T07:47:42.782Z</time></trkpt><trkpt lat="42.7804839" lon="10.3243062"><ele>329.0</ele><time>2026-04-04T07:47:43.781Z</time></trkpt><trkpt lat="42.7804688" lon="10.3243964"><ele>327.0</ele><time>2026-04-04T07:47:44.782Z</time></trkpt><trkpt lat="42.7804189" lon="10.3244796"><ele>325.0</ele><time>2026-04-04T07:47:45.782Z</time></trkpt><trkpt lat="42.7803593" lon="10.3246136"><ele>323.0</ele><time>2026-04-04T07:47:47.782Z</time></trkpt><trkpt lat="42.7803277" lon="10.3247263"><ele>321.0</ele><time>2026-04-04T07:47:48.782Z</time></trkpt><trkpt lat="42.7803663" lon="10.3248099"><ele>317.5</ele><time>2026-04-04T07:47:49.782Z</time></trkpt><trkpt lat="42.7803506" lon="10.3249052"><ele>314.0</ele><time>2026-04-04T07:47:50.782Z</time></trkpt><trkpt lat="42.7803086" lon="10.3250161"><ele>310.5</ele><time>2026-04-04T07:47:51.782Z</time></trkpt><trkpt lat="42.7803344" lon="10.3251757"><ele>307.0</ele><time>2026-04-04T07:47:53.782Z</time></trkpt><trkpt lat="42.7803656" lon="10.325258"><ele>303.5</ele><time>2026-04-04T07:47:54.782Z</time></trkpt><trkpt lat="42.7804005" lon="10.3253309"><ele>300.0</ele><time>2026-04-04T07:47:55.782Z</time></trkpt><trkpt lat="42.7804302" lon="10.325423"><ele>296.2</ele><time>2026-04-04T07:47:56.782Z</time></trkpt><trkpt lat="42.7804363" lon="10.3255775"><ele>292.4</ele><time>2026-04-04T07:47:58.782Z</time></trkpt><trkpt lat="42.7804208" lon="10.3256937"><ele>288.6</ele><time>2026-04-04T07:47:59.782Z</time></trkpt><trkpt lat="42.7803652" lon="10.3257808"><ele>284.8</ele><time>2026-04-04T07:48:00.782Z</time></trkpt><trkpt lat="42.7803258" lon="10.3258823"><ele>281.0</ele><time>2026-04-04T07:48:01.782Z</time></trkpt><trkpt lat="42.7803089" lon="10.3260346"><ele>281.0</ele><time>2026-04-04T07:48:03.782Z</time></trkpt><trkpt lat="42.7803166" lon="10.3261225"><ele>281.0</ele><time>2026-04-04T07:48:04.782Z</time></trkpt><trkpt lat="42.7803218" lon="10.3262115"><ele>281.0</ele><time>2026-04-04T07:48:05.782Z</time></trkpt><trkpt lat="42.7803127" lon="10.3263339"><ele>281.0</ele><time>2026-04-04T07:48:07.782Z</time></trkpt><trkpt lat="42.7803071" lon="10.3264443"><ele>281.0</ele><time>2026-04-04T07:48:10.781Z</time></trkpt><trkpt lat="42.7803019" lon="10.3265462"><ele>281.0</ele><time>2026-04-04T07:48:23.782Z</time></trkpt><trkpt lat="42.7803512" lon="10.3266447"><ele>281.0</ele><time>2026-04-04T07:48:26.782Z</time></trkpt><trkpt lat="42.7804281" lon="10.326621"><ele>281.0</ele><time>2026-04-04T07:48:28.782Z</time></trkpt><trkpt lat="42.7805005" lon="10.3265213"><ele>281.0</ele><time>2026-04-04T07:48:30.782Z</time></trkpt><trkpt lat="42.7805596" lon="10.3264249"><ele>281.0</ele><time>2026-04-04T07:48:32.782Z</time></trkpt><trkpt lat="42.7806095" lon="10.3263659"><ele>281.0</ele><time>2026-04-04T07:48:33.782Z</time></trkpt><trkpt lat="42.7806827" lon="10.3262125"><ele>281.0</ele><time>2026-04-04T07:48:35.782Z</time></trkpt><trkpt lat="42.7807607" lon="10.3260767"><ele>281.0</ele><time>2026-04-04T07:48:37.782Z</time></trkpt><trkpt lat="42.780797" lon="10.3260033"><ele>281.0</ele><time>2026-04-04T07:48:38.782Z</time></trkpt><trkpt lat="42.7808445" lon="10.3259235"><ele>281.0</ele><time>2026-04-04T07:48:39.781Z</time></trkpt><trkpt lat="42.7808797" lon="10.3258507"><ele>281.0</ele><time>2026-04-04T07:48:40.782Z</time></trkpt><trkpt lat="42.7809805" lon="10.3257295"><ele>277.6</ele><time>2026-04-04T07:48:42.782Z</time></trkpt><trkpt lat="42.7810341" lon="10.3256789"><ele>274.20000000000005</ele><time>2026-04-04T07:48:43.782Z</time></trkpt><trkpt lat="42.7811555" lon="10.3256338"><ele>270.79999999999995</ele><time>2026-04-04T07:48:45.782Z</time></trkpt><trkpt lat="42.7812582" lon="10.32564"><ele>267.4</ele><time>2026-04-04T07:48:46.781Z</time></trkpt><trkpt lat="42.7813555" lon="10.3256598"><ele>264.0</ele><time>2026-04-04T07:48:47.782Z</time></trkpt><trkpt lat="42.7814435" lon="10.325691"><ele>264.0</ele><time>2026-04-04T07:48:48.782Z</time></trkpt><trkpt lat="42.7815169" lon="10.3257136"><ele>264.0</ele><time>2026-04-04T07:48:49.782Z</time></trkpt><trkpt lat="42.7815831" lon="10.3257187"><ele>264.0</ele><time>2026-04-04T07:48:50.782Z</time></trkpt><trkpt lat="42.7816587" lon="10.3257234"><ele>264.0</ele><time>2026-04-04T07:48:51.782Z</time></trkpt><trkpt lat="42.7817791" lon="10.325693"><ele>264.0</ele><time>2026-04-04T07:48:53.782Z</time></trkpt><trkpt lat="42.7818526" lon="10.3256213"><ele>264.0</ele><time>2026-04-04T07:48:54.782Z</time></trkpt><trkpt lat="42.7819288" lon="10.3256127"><ele>261.8333333333333</ele><time>2026-04-04T07:48:55.782Z</time></trkpt><trkpt lat="42.7819995" lon="10.3255832"><ele>259.6666666666667</ele><time>2026-04-04T07:48:56.782Z</time></trkpt><trkpt lat="42.7820641" lon="10.3255648"><ele>257.5</ele><time>2026-04-04T07:48:57.782Z</time></trkpt><trkpt lat="42.7821322" lon="10.3255502"><ele>255.33333333333334</ele><time>2026-04-04T07:48:58.782Z</time></trkpt><trkpt lat="42.7822382" lon="10.3254857"><ele>253.16666666666669</ele><time>2026-04-04T07:49:00.782Z</time></trkpt><trkpt lat="42.7823316" lon="10.3254161"><ele>251.0</ele><time>2026-04-04T07:49:02.781Z</time></trkpt><trkpt lat="42.7824232" lon="10.3253721"><ele>251.0</ele><time>2026-04-04T07:49:04.782Z</time></trkpt><trkpt lat="42.7825249" lon="10.3254239"><ele>251.00000000000003</ele><time>2026-04-04T07:49:06.781Z</time></trkpt><trkpt lat="42.7826081" lon="10.3255416"><ele>251.00000000000003</ele><time>2026-04-04T07:49:08.782Z</time></trkpt><trkpt lat="42.7826601" lon="10.3256702"><ele>251.0</ele><time>2026-04-04T07:49:10.782Z</time></trkpt><trkpt lat="42.7826846" lon="10.3257506"><ele>251.0</ele><time>2026-04-04T07:49:12.782Z</time></trkpt><trkpt lat="42.782696" lon="10.3258613"><ele>248.00000000000003</ele><time>2026-04-04T07:49:49.781Z</time></trkpt><trkpt lat="42.7827372" lon="10.3259574"><ele>245.0</ele><time>2026-04-04T07:49:55.781Z</time></trkpt><trkpt lat="42.7828114" lon="10.3260492"><ele>242.0</ele><time>2026-04-04T07:49:57.782Z</time></trkpt><trkpt lat="42.7828824" lon="10.3260654"><ele>239.0</ele><time>2026-04-04T07:49:59.782Z</time></trkpt><trkpt lat="42.7829128" lon="10.3259399"><ele>236.00000000000003</ele><time>2026-04-04T07:50:02.782Z</time></trkpt><trkpt lat="42.7829074" lon="10.3258502"><ele>233.0</ele><time>2026-04-04T07:50:03.782Z</time></trkpt><trkpt lat="42.7829089" lon="10.3257523"><ele>233.00000000000003</ele><time>2026-04-04T07:50:04.782Z</time></trkpt><trkpt lat="42.782915" lon="10.3256372"><ele>233.0</ele><time>2026-04-04T07:50:05.782Z</time></trkpt><trkpt lat="42.7829265" lon="10.3255245"><ele>233.0</ele><time>2026-04-04T07:50:06.782Z</time></trkpt><trkpt lat="42.7829492" lon="10.3254427"><ele>233.0</ele><time>2026-04-04T07:50:07.782Z</time></trkpt><trkpt lat="42.7829889" lon="10.3253761"><ele>233.00000000000003</ele><time>2026-04-04T07:50:08.782Z</time></trkpt><trkpt lat="42.7830702" lon="10.3253021"><ele>233.0</ele><time>2026-04-04T07:50:10.782Z</time></trkpt><trkpt lat="42.7831799" lon="10.3253161"><ele>232.60000000000002</ele><time>2026-04-04T07:50:12.782Z</time></trkpt><trkpt lat="42.783269" lon="10.3253723"><ele>232.20000000000002</ele><time>2026-04-04T07:50:13.782Z</time></trkpt><trkpt lat="42.7833552" lon="10.325419"><ele>231.8</ele><time>2026-04-04T07:50:14.782Z</time></trkpt><trkpt lat="42.7834496" lon="10.3254684"><ele>231.4</ele><time>2026-04-04T07:50:15.782Z</time></trkpt><trkpt lat="42.7835345" lon="10.3255131"><ele>231.0</ele><time>2026-04-04T07:50:16.782Z</time></trkpt><trkpt lat="42.7836162" lon="10.3255518"><ele>228.83333333333334</ele><time>2026-04-04T07:50:17.782Z</time></trkpt><trkpt lat="42.7837057" lon="10.3255763"><ele>226.66666666666669</ele><time>2026-04-04T07:50:18.782Z</time></trkpt><trkpt lat="42.7837926" lon="10.3256008"><ele>224.5</ele><time>2026-04-04T07:50:19.782Z</time></trkpt><trkpt lat="42.7838662" lon="10.3256328"><ele>222.33333333333334</ele><time>2026-04-04T07:50:20.782Z</time></trkpt><trkpt lat="42.7839324" lon="10.3256543"><ele>220.16666666666669</ele><time>2026-04-04T07:50:21.782Z</time></trkpt><trkpt lat="42.7840038" lon="10.3257307"><ele>218.0</ele><time>2026-04-04T07:50:23.782Z</time></trkpt><trkpt lat="42.7840082" lon="10.3258743"><ele>218.0</ele><time>2026-04-04T07:50:25.782Z</time></trkpt><trkpt lat="42.7839598" lon="10.3260409"><ele>218.0</ele><time>2026-04-04T07:50:27.782Z</time></trkpt><trkpt lat="42.7839407" lon="10.3261382"><ele>218.0</ele><time>2026-04-04T07:50:28.782Z</time></trkpt><trkpt lat="42.7839219" lon="10.3262394"><ele>218.0</ele><time>2026-04-04T07:50:29.782Z</time></trkpt><trkpt lat="42.7839881" lon="10.3263483"><ele>218.0</ele><time>2026-04-04T07:50:31.782Z</time></trkpt><trkpt lat="42.7840742" lon="10.3264572"><ele>218.8</ele><time>2026-04-04T07:50:32.781Z</time></trkpt><trkpt lat="42.7841432" lon="10.326534"><ele>219.60000000000002</ele><time>2026-04-04T07:50:33.782Z</time></trkpt><trkpt lat="42.7842139" lon="10.3266325"><ele>220.39999999999998</ele><time>2026-04-04T07:50:34.782Z</time></trkpt><trkpt lat="42.7842652" lon="10.3267516"><ele>221.2</ele><time>2026-04-04T07:50:35.781Z</time></trkpt><trkpt lat="42.7843277" lon="10.3268455"><ele>222.0</ele><time>2026-04-04T07:50:36.782Z</time></trkpt><trkpt lat="42.7843915" lon="10.3269362"><ele>217.39999999999998</ele><time>2026-04-04T07:50:37.782Z</time></trkpt><trkpt lat="42.7844528" lon="10.3270095"><ele>212.79999999999998</ele><time>2026-04-04T07:50:38.782Z</time></trkpt><trkpt lat="42.784523" lon="10.3271215"><ele>208.2</ele><time>2026-04-04T07:50:40.782Z</time></trkpt><trkpt lat="42.7845759" lon="10.3272071"><ele>203.6</ele><time>2026-04-04T07:50:42.781Z</time></trkpt><trkpt lat="42.7846055" lon="10.3273124"><ele>199.0</ele><time>2026-04-04T07:50:45.782Z</time></trkpt><trkpt lat="42.7846342" lon="10.3274724"><ele>198.39999999999998</ele><time>2026-04-04T07:50:47.782Z</time></trkpt><trkpt lat="42.7846466" lon="10.3276293"><ele>197.8</ele><time>2026-04-04T07:50:49.782Z</time></trkpt><trkpt lat="42.7846275" lon="10.3277715"><ele>197.2</ele><time>2026-04-04T07:50:51.782Z</time></trkpt><trkpt lat="42.7845646" lon="10.327905"><ele>196.60000000000002</ele><time>2026-04-04T07:50:53.781Z</time></trkpt><trkpt lat="42.7844873" lon="10.3279518"><ele>196.0</ele><time>2026-04-04T07:50:54.782Z</time></trkpt><trkpt lat="42.784415" lon="10.3279898"><ele>195.99999999999997</ele><time>2026-04-04T07:50:55.782Z</time></trkpt><trkpt lat="42.7843467" lon="10.3280102"><ele>196.0</ele><time>2026-04-04T07:50:56.782Z</time></trkpt><trkpt lat="42.7842568" lon="10.3280304"><ele>196.0</ele><time>2026-04-04T07:50:58.782Z</time></trkpt><trkpt lat="42.7841819" lon="10.3280507"><ele>196.0</ele><time>2026-04-04T07:51:00.782Z</time></trkpt><trkpt lat="42.7841955" lon="10.3281438"><ele>195.99999999999997</ele><time>2026-04-04T07:51:03.782Z</time></trkpt><trkpt lat="42.7842577" lon="10.3281759"><ele>196.0</ele><time>2026-04-04T07:51:06.782Z</time></trkpt><trkpt lat="42.7843341" lon="10.3281661"><ele>194.66666666666666</ele><time>2026-04-04T07:51:08.782Z</time></trkpt><trkpt lat="42.7843989" lon="10.3281732"><ele>193.33333333333331</ele><time>2026-04-04T07:51:10.782Z</time></trkpt><trkpt lat="42.7844789" lon="10.3281992"><ele>192.0</ele><time>2026-04-04T07:51:12.782Z</time></trkpt><trkpt lat="42.7845652" lon="10.3282187"><ele>190.66666666666666</ele><time>2026-04-04T07:51:14.782Z</time></trkpt><trkpt lat="42.7846354" lon="10.3282266"><ele>189.33333333333331</ele><time>2026-04-04T07:51:15.782Z</time></trkpt><trkpt lat="42.7847023" lon="10.3282408"><ele>188.0</ele><time>2026-04-04T07:51:16.782Z</time></trkpt><trkpt lat="42.7848031" lon="10.3282408"><ele>188.0</ele><time>2026-04-04T07:51:17.781Z</time></trkpt><trkpt lat="42.7849038" lon="10.3281941"><ele>188.0</ele><time>2026-04-04T07:51:18.781Z</time></trkpt><trkpt lat="42.7849802" lon="10.3281497"><ele>188.0</ele><time>2026-04-04T07:51:19.782Z</time></trkpt><trkpt lat="42.785042" lon="10.3280992"><ele>188.0</ele><time>2026-04-04T07:51:20.782Z</time></trkpt><trkpt lat="42.7851203" lon="10.3280808"><ele>188.0</ele><time>2026-04-04T07:51:21.782Z</time></trkpt><trkpt lat="42.7852427" lon="10.328048"><ele>186.16666666666666</ele><time>2026-04-04T07:51:23.782Z</time></trkpt><trkpt lat="42.7853207" lon="10.3280779"><ele>184.33333333333331</ele><time>2026-04-04T07:51:24.782Z</time></trkpt><trkpt lat="42.7854084" lon="10.3281226"><ele>182.5</ele><time>2026-04-04T07:51:25.781Z</time></trkpt><trkpt lat="42.7854761" lon="10.3281778"><ele>180.66666666666666</ele><time>2026-04-04T07:51:26.782Z</time></trkpt><trkpt lat="42.7855592" lon="10.328225"><ele>178.83333333333334</ele><time>2026-04-04T07:51:27.782Z</time></trkpt><trkpt lat="42.7856341" lon="10.3282494"><ele>177.0</ele><time>2026-04-04T07:51:28.782Z</time></trkpt><trkpt lat="42.7856981" lon="10.328278"><ele>177.0</ele><time>2026-04-04T07:51:29.782Z</time></trkpt><trkpt lat="42.7857655" lon="10.3282963"><ele>177.0</ele><time>2026-04-04T07:51:30.782Z</time></trkpt><trkpt lat="42.785831" lon="10.3282827"><ele>177.0</ele><time>2026-04-04T07:51:37.782Z</time></trkpt><trkpt lat="42.7857741" lon="10.3281994"><ele>177.0</ele><time>2026-04-04T07:51:43.782Z</time></trkpt><trkpt lat="42.7857289" lon="10.3281291"><ele>177.0</ele><time>2026-04-04T07:51:44.782Z</time></trkpt><trkpt lat="42.7857008" lon="10.3280523"><ele>177.0</ele><time>2026-04-04T07:51:45.782Z</time></trkpt><trkpt lat="42.7856683" lon="10.3279555"><ele>177.0</ele><time>2026-04-04T07:51:46.782Z</time></trkpt><trkpt lat="42.7856336" lon="10.3278595"><ele>177.0</ele><time>2026-04-04T07:51:47.782Z</time></trkpt><trkpt lat="42.785611" lon="10.3277523"><ele>177.0</ele><time>2026-04-04T07:51:48.782Z</time></trkpt><trkpt lat="42.7855943" lon="10.3276459"><ele>177.0</ele><time>2026-04-04T07:51:49.782Z</time></trkpt><trkpt lat="42.7855924" lon="10.3275456"><ele>177.0</ele><time>2026-04-04T07:51:50.782Z</time></trkpt><trkpt lat="42.7855975" lon="10.3274349"><ele>177.0</ele><time>2026-04-04T07:51:51.782Z</time></trkpt><trkpt lat="42.7856117" lon="10.3273237"><ele>177.0</ele><time>2026-04-04T07:51:52.782Z</time></trkpt><trkpt lat="42.785642" lon="10.3272178"><ele>176.5</ele><time>2026-04-04T07:51:53.782Z</time></trkpt><trkpt lat="42.7856649" lon="10.3271186"><ele>176.0</ele><time>2026-04-04T07:51:54.782Z</time></trkpt><trkpt lat="42.7856759" lon="10.327022"><ele>175.5</ele><time>2026-04-04T07:51:55.782Z</time></trkpt><trkpt lat="42.785676" lon="10.3269081"><ele>175.0</ele><time>2026-04-04T07:51:56.782Z</time></trkpt><trkpt lat="42.785638" lon="10.3267824"><ele>174.5</ele><time>2026-04-04T07:51:57.782Z</time></trkpt><trkpt lat="42.7856097" lon="10.3266786"><ele>174.0</ele><time>2026-04-04T07:51:58.782Z</time></trkpt><trkpt lat="42.7855998" lon="10.3265725"><ele>174.0</ele><time>2026-04-04T07:51:59.782Z</time></trkpt><trkpt lat="42.7855985" lon="10.3264799"><ele>174.0</ele><time>2026-04-04T07:52:00.782Z</time></trkpt><trkpt lat="42.7856045" lon="10.3263836"><ele>174.0</ele><time>2026-04-04T07:52:01.782Z</time></trkpt><trkpt lat="42.785627" lon="10.3262648"><ele>174.0</ele><time>2026-04-04T07:52:02.782Z</time></trkpt><trkpt lat="42.7856586" lon="10.3261624"><ele>174.0</ele><time>2026-04-04T07:52:03.782Z</time></trkpt><trkpt lat="42.7856944" lon="10.3260649"><ele>174.0</ele><time>2026-04-04T07:52:04.782Z</time></trkpt><trkpt lat="42.7857327" lon="10.325965"><ele>174.0</ele><time>2026-04-04T07:52:05.782Z</time></trkpt><trkpt lat="42.7857078" lon="10.3258407"><ele>174.0</ele><time>2026-04-04T07:52:06.782Z</time></trkpt><trkpt lat="42.7856803" lon="10.3257221"><ele>174.0</ele><time>2026-04-04T07:52:07.781Z</time></trkpt><trkpt lat="42.7856696" lon="10.3256113"><ele>174.0</ele><time>2026-04-04T07:52:08.782Z</time></trkpt><trkpt lat="42.7856591" lon="10.325498"><ele>174.0</ele><time>2026-04-04T07:52:09.782Z</time></trkpt><trkpt lat="42.7856385" lon="10.3253922"><ele>174.0</ele><time>2026-04-04T07:52:10.781Z</time></trkpt><trkpt lat="42.7855931" lon="10.3252898"><ele>173.0</ele><time>2026-04-04T07:52:11.782Z</time></trkpt><trkpt lat="42.7855608" lon="10.325165"><ele>172.0</ele><time>2026-04-04T07:52:12.782Z</time></trkpt><trkpt lat="42.7855397" lon="10.3250071"><ele>171.0</ele><time>2026-04-04T07:52:13.782Z</time></trkpt><trkpt lat="42.7855099" lon="10.3248709"><ele>170.0</ele><time>2026-04-04T07:52:14.782Z</time></trkpt><trkpt lat="42.7854727" lon="10.324772"><ele>169.0</ele><time>2026-04-04T07:52:15.782Z</time></trkpt><trkpt lat="42.7854499" lon="10.3246477"><ele>167.16666666666669</ele><time>2026-04-04T07:52:17.782Z</time></trkpt><trkpt lat="42.7854176" lon="10.3245431"><ele>165.33333333333334</ele><time>2026-04-04T07:52:19.782Z</time></trkpt><trkpt lat="42.7853906" lon="10.3244479"><ele>163.5</ele><time>2026-04-04T07:52:21.782Z</time></trkpt><trkpt lat="42.7853427" lon="10.3243654"><ele>161.66666666666666</ele><time>2026-04-04T07:52:23.782Z</time></trkpt><trkpt lat="42.7853331" lon="10.3242515"><ele>159.83333333333331</ele><time>2026-04-04T07:52:25.782Z</time></trkpt><trkpt lat="42.7852436" lon="10.3241285"><ele>158.0</ele><time>2026-04-04T07:52:27.782Z</time></trkpt><trkpt lat="42.7851595" lon="10.3239922"><ele>160.8</ele><time>2026-04-04T07:52:29.782Z</time></trkpt><trkpt lat="42.7851072" lon="10.32383"><ele>163.60000000000002</ele><time>2026-04-04T07:52:31.782Z</time></trkpt><trkpt lat="42.7850856" lon="10.3237413"><ele>166.39999999999998</ele><time>2026-04-04T07:52:32.782Z</time></trkpt><trkpt lat="42.7850696" lon="10.3236524"><ele>169.2</ele><time>2026-04-04T07:52:33.781Z</time></trkpt><trkpt lat="42.7850377" lon="10.3234735"><ele>172.0</ele><time>2026-04-04T07:52:35.782Z</time></trkpt><trkpt lat="42.7850144" lon="10.3233829"><ele>172.0</ele><time>2026-04-04T07:52:36.781Z</time></trkpt><trkpt lat="42.7849792" lon="10.323288"><ele>172.0</ele><time>2026-04-04T07:52:37.782Z</time></trkpt><trkpt lat="42.7849459" lon="10.32321"><ele>172.0</ele><time>2026-04-04T07:52:38.782Z</time></trkpt><trkpt lat="42.7849232" lon="10.3231243"><ele>172.0</ele><time>2026-04-04T07:52:39.782Z</time></trkpt><trkpt lat="42.7849153" lon="10.3230369"><ele>172.0</ele><time>2026-04-04T07:52:40.781Z</time></trkpt><trkpt lat="42.7849036" lon="10.3229518"><ele>172.0</ele><time>2026-04-04T07:52:41.781Z</time></trkpt><trkpt lat="42.7848749" lon="10.3227959"><ele>170.6</ele><time>2026-04-04T07:52:43.782Z</time></trkpt><trkpt lat="42.7848764" lon="10.32264"><ele>169.2</ele><time>2026-04-04T07:52:45.781Z</time></trkpt><trkpt lat="42.7849005" lon="10.3224803"><ele>167.8</ele><time>2026-04-04T07:52:47.782Z</time></trkpt><trkpt lat="42.7849418" lon="10.3223188"><ele>166.4</ele><time>2026-04-04T07:52:49.782Z</time></trkpt><trkpt lat="42.7849294" lon="10.322232"><ele>165.0</ele><time>2026-04-04T07:52:50.782Z</time></trkpt><trkpt lat="42.7849035" lon="10.3221513"><ele>164.6</ele><time>2026-04-04T07:52:51.782Z</time></trkpt><trkpt lat="42.7848629" lon="10.3220751"><ele>164.2</ele><time>2026-04-04T07:52:52.782Z</time></trkpt><trkpt lat="42.7847844" lon="10.3219524"><ele>163.8</ele><time>2026-04-04T07:52:54.782Z</time></trkpt><trkpt lat="42.7847299" lon="10.3218789"><ele>163.4</ele><time>2026-04-04T07:52:56.782Z</time></trkpt><trkpt lat="42.7847592" lon="10.3217544"><ele>163.0</ele><time>2026-04-04T07:52:59.782Z</time></trkpt><trkpt lat="42.7848075" lon="10.3216475"><ele>163.0</ele><time>2026-04-04T07:53:02.782Z</time></trkpt><trkpt lat="42.7848978" lon="10.321547"><ele>163.0</ele><time>2026-04-04T07:53:05.782Z</time></trkpt><trkpt lat="42.7849657" lon="10.3215026"><ele>163.0</ele><time>2026-04-04T07:53:06.782Z</time></trkpt><trkpt lat="42.7850497" lon="10.3214342"><ele>163.0</ele><time>2026-04-04T07:53:07.782Z</time></trkpt><trkpt lat="42.7851168" lon="10.3213594"><ele>163.0</ele><time>2026-04-04T07:53:08.782Z</time></trkpt><trkpt lat="42.7851873" lon="10.3212778"><ele>160.33333333333334</ele><time>2026-04-04T07:53:09.782Z</time></trkpt><trkpt lat="42.7852386" lon="10.3212075"><ele>157.66666666666669</ele><time>2026-04-04T07:53:10.782Z</time></trkpt><trkpt lat="42.7852831" lon="10.3211351"><ele>155.0</ele><time>2026-04-04T07:53:11.781Z</time></trkpt><trkpt lat="42.7853169" lon="10.321031"><ele>152.33333333333334</ele><time>2026-04-04T07:53:12.782Z</time></trkpt><trkpt lat="42.7853006" lon="10.3209263"><ele>149.66666666666666</ele><time>2026-04-04T07:53:13.782Z</time></trkpt><trkpt lat="42.7852715" lon="10.3207463"><ele>147.0</ele><time>2026-04-04T07:53:15.782Z</time></trkpt><trkpt lat="42.7852104" lon="10.3206993"><ele>148.6</ele><time>2026-04-04T07:53:16.781Z</time></trkpt><trkpt lat="42.7851469" lon="10.3206084"><ele>150.2</ele><time>2026-04-04T07:53:18.782Z</time></trkpt><trkpt lat="42.7850874" lon="10.3205404"><ele>151.8</ele><time>2026-04-04T07:53:20.782Z</time></trkpt><trkpt lat="42.785139" lon="10.3204463"><ele>153.4</ele><time>2026-04-04T07:53:37.782Z</time></trkpt><trkpt lat="42.7852152" lon="10.3204026"><ele>155.0</ele><time>2026-04-04T07:53:39.781Z</time></trkpt><trkpt lat="42.785325" lon="10.3203031"><ele>155.0</ele><time>2026-04-04T07:53:41.781Z</time></trkpt><trkpt lat="42.785402" lon="10.3202352"><ele>155.0</ele><time>2026-04-04T07:53:42.782Z</time></trkpt><trkpt lat="42.7854658" lon="10.320163"><ele>155.0</ele><time>2026-04-04T07:53:43.781Z</time></trkpt><trkpt lat="42.785501" lon="10.3200188"><ele>155.0</ele><time>2026-04-04T07:53:44.781Z</time></trkpt><trkpt lat="42.785557" lon="10.3198656"><ele>155.0</ele><time>2026-04-04T07:53:45.782Z</time></trkpt><trkpt lat="42.7855856" lon="10.3197253"><ele>157.8</ele><time>2026-04-04T07:53:46.782Z</time></trkpt><trkpt lat="42.7856272" lon="10.3195992"><ele>160.6</ele><time>2026-04-04T07:53:47.782Z</time></trkpt><trkpt lat="42.7856721" lon="10.3194818"><ele>163.39999999999998</ele><time>2026-04-04T07:53:48.782Z</time></trkpt><trkpt lat="42.7857392" lon="10.3193643"><ele>166.2</ele><time>2026-04-04T07:53:49.782Z</time></trkpt><trkpt lat="42.7857863" lon="10.3192484"><ele>169.0</ele><time>2026-04-04T07:53:50.781Z</time></trkpt><trkpt lat="42.7858402" lon="10.3191218"><ele>169.0</ele><time>2026-04-04T07:53:51.782Z</time></trkpt><trkpt lat="42.7858813" lon="10.3189799"><ele>169.0</ele><time>2026-04-04T07:53:52.781Z</time></trkpt><trkpt lat="42.7859445" lon="10.3188493"><ele>169.0</ele><time>2026-04-04T07:53:53.782Z</time></trkpt><trkpt lat="42.7859998" lon="10.3187395"><ele>169.0</ele><time>2026-04-04T07:53:54.782Z</time></trkpt><trkpt lat="42.7860488" lon="10.3186382"><ele>169.0</ele><time>2026-04-04T07:53:55.782Z</time></trkpt><trkpt lat="42.786078" lon="10.3185429"><ele>169.6</ele><time>2026-04-04T07:53:56.782Z</time></trkpt><trkpt lat="42.786077" lon="10.3184192"><ele>170.2</ele><time>2026-04-04T07:53:57.781Z</time></trkpt><trkpt lat="42.7860259" lon="10.3182703"><ele>170.79999999999998</ele><time>2026-04-04T07:53:58.781Z</time></trkpt><trkpt lat="42.7859647" lon="10.3181272"><ele>171.39999999999998</ele><time>2026-04-04T07:53:59.782Z</time></trkpt><trkpt lat="42.7859071" lon="10.3180158"><ele>172.0</ele><time>2026-04-04T07:54:00.782Z</time></trkpt><trkpt lat="42.7858442" lon="10.3179389"><ele>169.5</ele><time>2026-04-04T07:54:01.782Z</time></trkpt><trkpt lat="42.7857562" lon="10.3178358"><ele>167.0</ele><time>2026-04-04T07:54:03.782Z</time></trkpt><trkpt lat="42.7856916" lon="10.317733"><ele>164.5</ele><time>2026-04-04T07:54:06.782Z</time></trkpt><trkpt lat="42.7856423" lon="10.3176791"><ele>162.0</ele><time>2026-04-04T07:54:08.781Z</time></trkpt><trkpt lat="42.7855921" lon="10.3175798"><ele>159.5</ele><time>2026-04-04T07:54:11.782Z</time></trkpt><trkpt lat="42.7855303" lon="10.3175137"><ele>157.0</ele><time>2026-04-04T07:54:14.782Z</time></trkpt><trkpt lat="42.7854806" lon="10.3174541"><ele>157.0</ele><time>2026-04-04T07:54:16.782Z</time></trkpt><trkpt lat="42.7854238" lon="10.3173938"><ele>157.0</ele><time>2026-04-04T07:54:18.782Z</time></trkpt><trkpt lat="42.7853564" lon="10.3173245"><ele>157.0</ele><time>2026-04-04T07:54:20.782Z</time></trkpt><trkpt lat="42.7852913" lon="10.3172666"><ele>157.0</ele><time>2026-04-04T07:54:22.782Z</time></trkpt><trkpt lat="42.7852062" lon="10.3171507"><ele>157.0</ele><time>2026-04-04T07:54:24.782Z</time></trkpt><trkpt lat="42.7851561" lon="10.3170636"><ele>157.0</ele><time>2026-04-04T07:54:25.782Z</time></trkpt><trkpt lat="42.7850832" lon="10.3169737"><ele>160.2</ele><time>2026-04-04T07:54:26.781Z</time></trkpt><trkpt lat="42.7850273" lon="10.3168738"><ele>163.39999999999998</ele><time>2026-04-04T07:54:27.782Z</time></trkpt><trkpt lat="42.7849591" lon="10.3167641"><ele>166.60000000000002</ele><time>2026-04-04T07:54:28.781Z</time></trkpt><trkpt lat="42.7848852" lon="10.3166751"><ele>169.8</ele><time>2026-04-04T07:54:29.782Z</time></trkpt><trkpt lat="42.7847902" lon="10.3165608"><ele>173.0</ele><time>2026-04-04T07:54:30.782Z</time></trkpt><trkpt lat="42.7847096" lon="10.3164694"><ele>169.0</ele><time>2026-04-04T07:54:31.782Z</time></trkpt><trkpt lat="42.7846415" lon="10.3163389"><ele>165.0</ele><time>2026-04-04T07:54:32.782Z</time></trkpt><trkpt lat="42.78459" lon="10.31622"><ele>161.0</ele><time>2026-04-04T07:54:33.781Z</time></trkpt><trkpt lat="42.7845019" lon="10.3161058"><ele>157.0</ele><time>2026-04-04T07:54:34.782Z</time></trkpt><trkpt lat="42.7844096" lon="10.3160159"><ele>157.5</ele><time>2026-04-04T07:54:35.782Z</time></trkpt><trkpt lat="42.7843079" lon="10.3159165"><ele>158.0</ele><time>2026-04-04T07:54:36.782Z</time></trkpt><trkpt lat="42.7842071" lon="10.3157962"><ele>158.5</ele><time>2026-04-04T07:54:37.782Z</time></trkpt><trkpt lat="42.7841104" lon="10.3156804"><ele>159.0</ele><time>2026-04-04T07:54:38.782Z</time></trkpt><trkpt lat="42.7840042" lon="10.3155378"><ele>159.0</ele><time>2026-04-04T07:54:39.782Z</time></trkpt><trkpt lat="42.7839003" lon="10.3153677"><ele>159.0</ele><time>2026-04-04T07:54:40.782Z</time></trkpt><trkpt lat="42.7838181" lon="10.3152334"><ele>159.0</ele><time>2026-04-04T07:54:41.781Z</time></trkpt><trkpt lat="42.783723" lon="10.3150946"><ele>159.0</ele><time>2026-04-04T07:54:42.782Z</time></trkpt><trkpt lat="42.7836437" lon="10.3149437"><ele>159.0</ele><time>2026-04-04T07:54:43.781Z</time></trkpt><trkpt lat="42.7835691" lon="10.3148055"><ele>159.0</ele><time>2026-04-04T07:54:44.782Z</time></trkpt><trkpt lat="42.7835094" lon="10.314673"><ele>159.0</ele><time>2026-04-04T07:54:45.782Z</time></trkpt><trkpt lat="42.7834459" lon="10.3145397"><ele>159.0</ele><time>2026-04-04T07:54:46.781Z</time></trkpt><trkpt lat="42.783393" lon="10.3144235"><ele>161.5</ele><time>2026-04-04T07:54:47.782Z</time></trkpt><trkpt lat="42.7833658" lon="10.3142975"><ele>164.0</ele><time>2026-04-04T07:54:48.782Z</time></trkpt><trkpt lat="42.7833246" lon="10.3142032"><ele>166.5</ele><time>2026-04-04T07:54:49.782Z</time></trkpt><trkpt lat="42.7832604" lon="10.3140941"><ele>169.0</ele><time>2026-04-04T07:54:50.782Z</time></trkpt><trkpt lat="42.7832141" lon="10.3139949"><ele>171.5</ele><time>2026-04-04T07:54:51.782Z</time></trkpt><trkpt lat="42.7831871" lon="10.3139042"><ele>174.0</ele><time>2026-04-04T07:54:52.782Z</time></trkpt><trkpt lat="42.7831844" lon="10.3137288"><ele>174.33333333333334</ele><time>2026-04-04T07:54:54.781Z</time></trkpt><trkpt lat="42.7831877" lon="10.3136411"><ele>174.66666666666666</ele><time>2026-04-04T07:54:55.782Z</time></trkpt><trkpt lat="42.7831973" lon="10.3134988"><ele>175.0</ele><time>2026-04-04T07:54:57.782Z</time></trkpt><trkpt lat="42.7831998" lon="10.3134005"><ele>175.33333333333331</ele><time>2026-04-04T07:54:59.782Z</time></trkpt><trkpt lat="42.7831531" lon="10.3133059"><ele>175.66666666666666</ele><time>2026-04-04T07:55:01.781Z</time></trkpt><trkpt lat="42.7830581" lon="10.3132082"><ele>176.0</ele><time>2026-04-04T07:55:03.782Z</time></trkpt><trkpt lat="42.7829674" lon="10.313163"><ele>176.0</ele><time>2026-04-04T07:55:04.782Z</time></trkpt><trkpt lat="42.7828502" lon="10.3131145"><ele>176.0</ele><time>2026-04-04T07:55:05.782Z</time></trkpt><trkpt lat="42.7827299" lon="10.3130591"><ele>176.0</ele><time>2026-04-04T07:55:06.782Z</time></trkpt><trkpt lat="42.782601" lon="10.31301"><ele>176.0</ele><time>2026-04-04T07:55:07.782Z</time></trkpt><trkpt lat="42.7824924" lon="10.3129622"><ele>178.8</ele><time>2026-04-04T07:55:08.782Z</time></trkpt><trkpt lat="42.7823842" lon="10.3129177"><ele>181.60000000000002</ele><time>2026-04-04T07:55:09.782Z</time></trkpt><trkpt lat="42.7822896" lon="10.3128542"><ele>184.4</ele><time>2026-04-04T07:55:10.782Z</time></trkpt><trkpt lat="42.7821977" lon="10.3127823"><ele>187.2</ele><time>2026-04-04T07:55:11.782Z</time></trkpt><trkpt lat="42.7821111" lon="10.3126915"><ele>190.0</ele><time>2026-04-04T07:55:12.782Z</time></trkpt><trkpt lat="42.7820177" lon="10.3126012"><ele>190.0</ele><time>2026-04-04T07:55:13.782Z</time></trkpt><trkpt lat="42.781939" lon="10.3125324"><ele>190.0</ele><time>2026-04-04T07:55:14.782Z</time></trkpt><trkpt lat="42.78187" lon="10.3124664"><ele>190.0</ele><time>2026-04-04T07:55:15.782Z</time></trkpt><trkpt lat="42.7818213" lon="10.3124101"><ele>190.0</ele><time>2026-04-04T07:55:16.782Z</time></trkpt><trkpt lat="42.7817676" lon="10.3123509"><ele>190.0</ele><time>2026-04-04T07:55:17.782Z</time></trkpt><trkpt lat="42.7816969" lon="10.3122997"><ele>190.0</ele><time>2026-04-04T07:55:18.782Z</time></trkpt><trkpt lat="42.7816232" lon="10.3122353"><ele>191.6</ele><time>2026-04-04T07:55:20.782Z</time></trkpt><trkpt lat="42.781543" lon="10.3121565"><ele>193.2</ele><time>2026-04-04T07:55:23.782Z</time></trkpt><trkpt lat="42.7815074" lon="10.3120734"><ele>194.8</ele><time>2026-04-04T07:55:25.781Z</time></trkpt><trkpt lat="42.7814772" lon="10.3119495"><ele>196.4</ele><time>2026-04-04T07:55:27.782Z</time></trkpt><trkpt lat="42.7814529" lon="10.3117635"><ele>198.0</ele><time>2026-04-04T07:55:29.782Z</time></trkpt><trkpt lat="42.7814382" lon="10.311664"><ele>198.0</ele><time>2026-04-04T07:55:30.782Z</time></trkpt><trkpt lat="42.7814178" lon="10.3115828"><ele>198.0</ele><time>2026-04-04T07:55:31.782Z</time></trkpt><trkpt lat="42.7814026" lon="10.3114949"><ele>198.0</ele><time>2026-04-04T07:55:32.782Z</time></trkpt><trkpt lat="42.7813837" lon="10.3113971"><ele>198.0</ele><time>2026-04-04T07:55:33.781Z</time></trkpt><trkpt lat="42.7813705" lon="10.3112874"><ele>198.0</ele><time>2026-04-04T07:55:34.782Z</time></trkpt><trkpt lat="42.7813661" lon="10.3111843"><ele>198.0</ele><time>2026-04-04T07:55:35.782Z</time></trkpt><trkpt lat="42.7813521" lon="10.3110666"><ele>198.0</ele><time>2026-04-04T07:55:36.782Z</time></trkpt><trkpt lat="42.7813319" lon="10.3109415"><ele>198.0</ele><time>2026-04-04T07:55:37.782Z</time></trkpt><trkpt lat="42.7813217" lon="10.3108082"><ele>198.0</ele><time>2026-04-04T07:55:38.782Z</time></trkpt><trkpt lat="42.7813152" lon="10.3106769"><ele>198.0</ele><time>2026-04-04T07:55:39.781Z</time></trkpt><trkpt lat="42.7813145" lon="10.3105559"><ele>198.0</ele><time>2026-04-04T07:55:40.781Z</time></trkpt><trkpt lat="42.7813545" lon="10.3104393"><ele>198.0</ele><time>2026-04-04T07:55:41.782Z</time></trkpt><trkpt lat="42.7813775" lon="10.3103338"><ele>198.0</ele><time>2026-04-04T07:55:42.782Z</time></trkpt><trkpt lat="42.7814177" lon="10.310242"><ele>198.0</ele><time>2026-04-04T07:55:43.782Z</time></trkpt><trkpt lat="42.7814444" lon="10.3101523"><ele>198.0</ele><time>2026-04-04T07:55:44.782Z</time></trkpt><trkpt lat="42.7814606" lon="10.3100684"><ele>198.0</ele><time>2026-04-04T07:55:45.782Z</time></trkpt><trkpt lat="42.7814874" lon="10.3099687"><ele>198.0</ele><time>2026-04-04T07:55:46.782Z</time></trkpt><trkpt lat="42.7814978" lon="10.3098642"><ele>198.0</ele><time>2026-04-04T07:55:47.781Z</time></trkpt><trkpt lat="42.7815069" lon="10.3097726"><ele>198.0</ele><time>2026-04-04T07:55:48.782Z</time></trkpt><trkpt lat="42.7815026" lon="10.3096773"><ele>197.83333333333334</ele><time>2026-04-04T07:55:49.781Z</time></trkpt><trkpt lat="42.7814869" lon="10.3095848"><ele>197.66666666666669</ele><time>2026-04-04T07:55:50.782Z</time></trkpt><trkpt lat="42.7814569" lon="10.3094999"><ele>197.5</ele><time>2026-04-04T07:55:51.782Z</time></trkpt><trkpt lat="42.7813902" lon="10.3093548"><ele>197.33333333333334</ele><time>2026-04-04T07:55:53.782Z</time></trkpt><trkpt lat="42.7813521" lon="10.3092681"><ele>197.16666666666669</ele><time>2026-04-04T07:55:54.782Z</time></trkpt><trkpt lat="42.7813079" lon="10.3091901"><ele>197.0</ele><time>2026-04-04T07:55:55.782Z</time></trkpt><trkpt lat="42.7812698" lon="10.3091167"><ele>197.0</ele><time>2026-04-04T07:55:56.782Z</time></trkpt><trkpt lat="42.7811783" lon="10.30896"><ele>197.0</ele><time>2026-04-04T07:55:58.781Z</time></trkpt><trkpt lat="42.781111" lon="10.3088656"><ele>197.0</ele><time>2026-04-04T07:55:59.781Z</time></trkpt><trkpt lat="42.781053" lon="10.3087721"><ele>197.0</ele><time>2026-04-04T07:56:00.782Z</time></trkpt><trkpt lat="42.7810244" lon="10.3086596"><ele>197.0</ele><time>2026-04-04T07:56:01.782Z</time></trkpt><trkpt lat="42.7810099" lon="10.3085338"><ele>195.83333333333334</ele><time>2026-04-04T07:56:02.782Z</time></trkpt><trkpt lat="42.7810177" lon="10.3084192"><ele>194.66666666666669</ele><time>2026-04-04T07:56:03.781Z</time></trkpt><trkpt lat="42.7810411" lon="10.3083026"><ele>193.5</ele><time>2026-04-04T07:56:04.782Z</time></trkpt><trkpt lat="42.781059" lon="10.3081828"><ele>192.33333333333334</ele><time>2026-04-04T07:56:05.782Z</time></trkpt><trkpt lat="42.7810808" lon="10.3080764"><ele>191.16666666666669</ele><time>2026-04-04T07:56:06.782Z</time></trkpt><trkpt lat="42.7810922" lon="10.3079572"><ele>190.0</ele><time>2026-04-04T07:56:07.782Z</time></trkpt><trkpt lat="42.7810872" lon="10.3078386"><ele>190.0</ele><time>2026-04-04T07:56:08.781Z</time></trkpt><trkpt lat="42.7810797" lon="10.3077213"><ele>190.0</ele><time>2026-04-04T07:56:09.782Z</time></trkpt><trkpt lat="42.7810632" lon="10.3076305"><ele>190.0</ele><time>2026-04-04T07:56:10.782Z</time></trkpt><trkpt lat="42.7810696" lon="10.3075345"><ele>190.0</ele><time>2026-04-04T07:56:11.782Z</time></trkpt><trkpt lat="42.7810694" lon="10.3074243"><ele>190.0</ele><time>2026-04-04T07:56:12.782Z</time></trkpt><trkpt lat="42.781086" lon="10.3073117"><ele>190.0</ele><time>2026-04-04T07:56:13.781Z</time></trkpt><trkpt lat="42.781096" lon="10.3071845"><ele>190.33333333333334</ele><time>2026-04-04T07:56:14.781Z</time></trkpt><trkpt lat="42.7811617" lon="10.3070856"><ele>190.66666666666669</ele><time>2026-04-04T07:56:15.782Z</time></trkpt><trkpt lat="42.7811855" lon="10.3069862"><ele>191.0</ele><time>2026-04-04T07:56:16.782Z</time></trkpt><trkpt lat="42.781201" lon="10.3068914"><ele>191.33333333333334</ele><time>2026-04-04T07:56:17.781Z</time></trkpt><trkpt lat="42.7811766" lon="10.3068011"><ele>191.66666666666666</ele><time>2026-04-04T07:56:18.782Z</time></trkpt><trkpt lat="42.7811396" lon="10.3066507"><ele>192.0</ele><time>2026-04-04T07:56:20.782Z</time></trkpt><trkpt lat="42.7810708" lon="10.3065509"><ele>194.39999999999998</ele><time>2026-04-04T07:56:22.782Z</time></trkpt><trkpt lat="42.7810082" lon="10.3065057"><ele>196.79999999999998</ele><time>2026-04-04T07:56:23.782Z</time></trkpt><trkpt lat="42.7808784" lon="10.3064473"><ele>199.2</ele><time>2026-04-04T07:56:25.782Z</time></trkpt><trkpt lat="42.7807556" lon="10.3063933"><ele>201.6</ele><time>2026-04-04T07:56:27.782Z</time></trkpt><trkpt lat="42.780684" lon="10.3063553"><ele>204.0</ele><time>2026-04-04T07:56:28.782Z</time></trkpt><trkpt lat="42.7806208" lon="10.3063269"><ele>204.0</ele><time>2026-04-04T07:56:29.782Z</time></trkpt><trkpt lat="42.7804979" lon="10.3063209"><ele>204.0</ele><time>2026-04-04T07:56:31.782Z</time></trkpt><trkpt lat="42.7804306" lon="10.3063536"><ele>204.0</ele><time>2026-04-04T07:56:32.782Z</time></trkpt><trkpt lat="42.7803552" lon="10.3064003"><ele>204.0</ele><time>2026-04-04T07:56:33.781Z</time></trkpt><trkpt lat="42.7803045" lon="10.3064662"><ele>204.0</ele><time>2026-04-04T07:56:34.782Z</time></trkpt><trkpt lat="42.7802302" lon="10.3065081"><ele>204.0</ele><time>2026-04-04T07:56:35.781Z</time></trkpt><trkpt lat="42.7801654" lon="10.3065274"><ele>208.25</ele><time>2026-04-04T07:56:36.781Z</time></trkpt><trkpt lat="42.7800535" lon="10.306511"><ele>212.5</ele><time>2026-04-04T07:56:38.782Z</time></trkpt><trkpt lat="42.7799306" lon="10.3063773"><ele>216.75</ele><time>2026-04-04T07:56:40.782Z</time></trkpt><trkpt lat="42.7798767" lon="10.3062704"><ele>221.0</ele><time>2026-04-04T07:56:41.782Z</time></trkpt><trkpt lat="42.7798082" lon="10.3061651"><ele>221.0</ele><time>2026-04-04T07:56:42.782Z</time></trkpt><trkpt lat="42.7797599" lon="10.306076"><ele>221.00000000000003</ele><time>2026-04-04T07:56:43.782Z</time></trkpt><trkpt lat="42.7797006" lon="10.3059711"><ele>221.00000000000003</ele><time>2026-04-04T07:56:44.782Z</time></trkpt><trkpt lat="42.7796293" lon="10.3058456"><ele>221.0</ele><time>2026-04-04T07:56:45.782Z</time></trkpt><trkpt lat="42.779583" lon="10.3057418"><ele>221.0</ele><time>2026-04-04T07:56:46.782Z</time></trkpt><trkpt lat="42.7795346" lon="10.3056384"><ele>219.20000000000002</ele><time>2026-04-04T07:56:47.782Z</time></trkpt><trkpt lat="42.779523" lon="10.3055142"><ele>217.40000000000003</ele><time>2026-04-04T07:56:48.782Z</time></trkpt><trkpt lat="42.7795007" lon="10.3053628"><ele>215.6</ele><time>2026-04-04T07:56:49.781Z</time></trkpt><trkpt lat="42.7794871" lon="10.3051977"><ele>213.8</ele><time>2026-04-04T07:56:51.781Z</time></trkpt><trkpt lat="42.7795019" lon="10.3050657"><ele>212.0</ele><time>2026-04-04T07:56:52.782Z</time></trkpt><trkpt lat="42.7795274" lon="10.3049841"><ele>212.00000000000003</ele><time>2026-04-04T07:56:53.782Z</time></trkpt><trkpt lat="42.7795407" lon="10.3048902"><ele>212.0</ele><time>2026-04-04T07:56:54.782Z</time></trkpt><trkpt lat="42.7795076" lon="10.3047579"><ele>212.0</ele><time>2026-04-04T07:56:56.782Z</time></trkpt><trkpt lat="42.7794584" lon="10.3046916"><ele>212.0</ele><time>2026-04-04T07:56:57.782Z</time></trkpt><trkpt lat="42.7794149" lon="10.3046265"><ele>212.00000000000003</ele><time>2026-04-04T07:56:58.782Z</time></trkpt><trkpt lat="42.7793539" lon="10.304554"><ele>212.0</ele><time>2026-04-04T07:56:59.782Z</time></trkpt><trkpt lat="42.7792755" lon="10.3044884"><ele>218.6</ele><time>2026-04-04T07:57:00.782Z</time></trkpt><trkpt lat="42.7792082" lon="10.3044316"><ele>225.2</ele><time>2026-04-04T07:57:01.782Z</time></trkpt><trkpt lat="42.7791414" lon="10.3043716"><ele>231.8</ele><time>2026-04-04T07:57:02.782Z</time></trkpt><trkpt lat="42.7791026" lon="10.304298"><ele>238.4</ele><time>2026-04-04T07:57:03.782Z</time></trkpt><trkpt lat="42.7790643" lon="10.3041582"><ele>245.0</ele><time>2026-04-04T07:57:05.781Z</time></trkpt><trkpt lat="42.7790641" lon="10.3039834"><ele>245.16666666666669</ele><time>2026-04-04T07:57:07.782Z</time></trkpt><trkpt lat="42.7790762" lon="10.3038915"><ele>245.33333333333334</ele><time>2026-04-04T07:57:08.782Z</time></trkpt><trkpt lat="42.7791049" lon="10.303778"><ele>245.5</ele><time>2026-04-04T07:57:09.781Z</time></trkpt><trkpt lat="42.7791192" lon="10.303678"><ele>245.66666666666669</ele><time>2026-04-04T07:57:10.782Z</time></trkpt><trkpt lat="42.7791129" lon="10.3035585"><ele>245.83333333333334</ele><time>2026-04-04T07:57:11.782Z</time></trkpt><trkpt lat="42.7790957" lon="10.3034287"><ele>246.0</ele><time>2026-04-04T07:57:12.782Z</time></trkpt><trkpt lat="42.7791044" lon="10.303318"><ele>246.0</ele><time>2026-04-04T07:57:13.782Z</time></trkpt><trkpt lat="42.7791239" lon="10.3031986"><ele>246.0</ele><time>2026-04-04T07:57:14.782Z</time></trkpt><trkpt lat="42.7791619" lon="10.3030953"><ele>246.0</ele><time>2026-04-04T07:57:15.782Z</time></trkpt><trkpt lat="42.7792041" lon="10.3030011"><ele>246.0</ele><time>2026-04-04T07:57:16.782Z</time></trkpt><trkpt lat="42.7792494" lon="10.3029072"><ele>246.0</ele><time>2026-04-04T07:57:17.782Z</time></trkpt><trkpt lat="42.7793012" lon="10.3028209"><ele>246.0</ele><time>2026-04-04T07:57:18.782Z</time></trkpt><trkpt lat="42.7793413" lon="10.3027236"><ele>244.5</ele><time>2026-04-04T07:57:19.782Z</time></trkpt><trkpt lat="42.7794078" lon="10.3026491"><ele>243.0</ele><time>2026-04-04T07:57:20.782Z</time></trkpt><trkpt lat="42.7794636" lon="10.3025781"><ele>241.5</ele><time>2026-04-04T07:57:21.782Z</time></trkpt><trkpt lat="42.7795244" lon="10.3025294"><ele>240.0</ele><time>2026-04-04T07:57:22.782Z</time></trkpt><trkpt lat="42.7795878" lon="10.302474"><ele>238.5</ele><time>2026-04-04T07:57:23.781Z</time></trkpt><trkpt lat="42.7796437" lon="10.3024154"><ele>237.0</ele><time>2026-04-04T07:57:24.782Z</time></trkpt><trkpt lat="42.7796891" lon="10.3023238"><ele>238.66666666666666</ele><time>2026-04-04T07:57:25.782Z</time></trkpt><trkpt lat="42.7797291" lon="10.3022301"><ele>240.33333333333331</ele><time>2026-04-04T07:57:26.782Z</time></trkpt><trkpt lat="42.7797746" lon="10.3021394"><ele>242.0</ele><time>2026-04-04T07:57:27.782Z</time></trkpt><trkpt lat="42.7798006" lon="10.302035"><ele>243.66666666666666</ele><time>2026-04-04T07:57:28.782Z</time></trkpt><trkpt lat="42.7797831" lon="10.301936"><ele>245.33333333333331</ele><time>2026-04-04T07:57:29.781Z</time></trkpt><trkpt lat="42.7798017" lon="10.3018205"><ele>247.0</ele><time>2026-04-04T07:57:30.782Z</time></trkpt><trkpt lat="42.7798035" lon="10.3016961"><ele>246.99999999999997</ele><time>2026-04-04T07:57:31.782Z</time></trkpt><trkpt lat="42.7798029" lon="10.3015826"><ele>247.0</ele><time>2026-04-04T07:57:32.782Z</time></trkpt><trkpt lat="42.7798323" lon="10.3014805"><ele>247.0</ele><time>2026-04-04T07:57:33.782Z</time></trkpt><trkpt lat="42.7798618" lon="10.3013612"><ele>247.0</ele><time>2026-04-04T07:57:34.782Z</time></trkpt><trkpt lat="42.779878" lon="10.3012525"><ele>246.99999999999997</ele><time>2026-04-04T07:57:35.781Z</time></trkpt><trkpt lat="42.779902" lon="10.3011581"><ele>247.0</ele><time>2026-04-04T07:57:36.781Z</time></trkpt><trkpt lat="42.7799267" lon="10.3010544"><ele>248.33333333333331</ele><time>2026-04-04T07:57:37.782Z</time></trkpt><trkpt lat="42.7799701" lon="10.3009491"><ele>249.66666666666666</ele><time>2026-04-04T07:57:38.782Z</time></trkpt><trkpt lat="42.7799937" lon="10.3008393"><ele>251.0</ele><time>2026-04-04T07:57:39.782Z</time></trkpt><trkpt lat="42.7800203" lon="10.3007286"><ele>252.33333333333331</ele><time>2026-04-04T07:57:40.782Z</time></trkpt><trkpt lat="42.7800128" lon="10.3006117"><ele>253.66666666666666</ele><time>2026-04-04T07:57:41.782Z</time></trkpt><trkpt lat="42.780007" lon="10.3005094"><ele>255.0</ele><time>2026-04-04T07:57:42.782Z</time></trkpt><trkpt lat="42.7800038" lon="10.3003973"><ele>254.83333333333334</ele><time>2026-04-04T07:57:43.782Z</time></trkpt><trkpt lat="42.779994" lon="10.3002873"><ele>254.66666666666669</ele><time>2026-04-04T07:57:44.782Z</time></trkpt><trkpt lat="42.7799923" lon="10.300189"><ele>254.5</ele><time>2026-04-04T07:57:45.782Z</time></trkpt><trkpt lat="42.7799804" lon="10.3000818"><ele>254.33333333333334</ele><time>2026-04-04T07:57:46.782Z</time></trkpt><trkpt lat="42.7799652" lon="10.2999748"><ele>254.16666666666669</ele><time>2026-04-04T07:57:47.781Z</time></trkpt><trkpt lat="42.7799613" lon="10.2998609"><ele>254.0</ele><time>2026-04-04T07:57:48.782Z</time></trkpt><trkpt lat="42.7799334" lon="10.2997451"><ele>254.00000000000003</ele><time>2026-04-04T07:57:49.781Z</time></trkpt><trkpt lat="42.7799103" lon="10.2996328"><ele>254.0</ele><time>2026-04-04T07:57:50.782Z</time></trkpt><trkpt lat="42.7798799" lon="10.2995174"><ele>254.0</ele><time>2026-04-04T07:57:51.782Z</time></trkpt><trkpt lat="42.7798516" lon="10.2994087"><ele>254.0</ele><time>2026-04-04T07:57:52.782Z</time></trkpt><trkpt lat="42.7798065" lon="10.2993065"><ele>254.00000000000003</ele><time>2026-04-04T07:57:53.782Z</time></trkpt><trkpt lat="42.779754" lon="10.2992036"><ele>254.0</ele><time>2026-04-04T07:57:54.782Z</time></trkpt><trkpt lat="42.7796725" lon="10.2990998"><ele>254.0</ele><time>2026-04-04T07:57:55.782Z</time></trkpt><trkpt lat="42.7795913" lon="10.2990051"><ele>253.99999999999997</ele><time>2026-04-04T07:57:56.782Z</time></trkpt><trkpt lat="42.7795235" lon="10.2988936"><ele>253.99999999999997</ele><time>2026-04-04T07:57:57.782Z</time></trkpt><trkpt lat="42.7794648" lon="10.2987724"><ele>254.0</ele><time>2026-04-04T07:57:58.782Z</time></trkpt><trkpt lat="42.7794162" lon="10.2986518"><ele>254.0</ele><time>2026-04-04T07:57:59.782Z</time></trkpt><trkpt lat="42.7793651" lon="10.2985395"><ele>254.66666666666669</ele><time>2026-04-04T07:58:00.782Z</time></trkpt><trkpt lat="42.7793065" lon="10.2984398"><ele>255.33333333333334</ele><time>2026-04-04T07:58:01.782Z</time></trkpt><trkpt lat="42.7792445" lon="10.2983546"><ele>256.0</ele><time>2026-04-04T07:58:02.782Z</time></trkpt><trkpt lat="42.7791758" lon="10.2982659"><ele>256.6666666666667</ele><time>2026-04-04T07:58:03.782Z</time></trkpt><trkpt lat="42.7791529" lon="10.2981587"><ele>257.3333333333333</ele><time>2026-04-04T07:58:04.782Z</time></trkpt><trkpt lat="42.77911" lon="10.2980805"><ele>258.0</ele><time>2026-04-04T07:58:05.782Z</time></trkpt><trkpt lat="42.7790976" lon="10.2979865"><ele>258.0</ele><time>2026-04-04T07:58:06.782Z</time></trkpt><trkpt lat="42.7791053" lon="10.2978775"><ele>258.0</ele><time>2026-04-04T07:58:07.782Z</time></trkpt><trkpt lat="42.7791597" lon="10.2977702"><ele>258.0</ele><time>2026-04-04T07:58:08.782Z</time></trkpt><trkpt lat="42.7791955" lon="10.2976674"><ele>258.0</ele><time>2026-04-04T07:58:09.782Z</time></trkpt><trkpt lat="42.7792393" lon="10.2975471"><ele>258.0</ele><time>2026-04-04T07:58:10.781Z</time></trkpt><trkpt lat="42.7792701" lon="10.2974328"><ele>258.0</ele><time>2026-04-04T07:58:11.782Z</time></trkpt><trkpt lat="42.7792856" lon="10.2973099"><ele>258.2</ele><time>2026-04-04T07:58:12.782Z</time></trkpt><trkpt lat="42.7792634" lon="10.2971649"><ele>258.4</ele><time>2026-04-04T07:58:13.782Z</time></trkpt><trkpt lat="42.7792368" lon="10.2970405"><ele>258.59999999999997</ele><time>2026-04-04T07:58:14.782Z</time></trkpt><trkpt lat="42.7791915" lon="10.2969176"><ele>258.8</ele><time>2026-04-04T07:58:15.782Z</time></trkpt><trkpt lat="42.7791629" lon="10.2968022"><ele>259.0</ele><time>2026-04-04T07:58:16.782Z</time></trkpt><trkpt lat="42.7791395" lon="10.29668"><ele>259.0</ele><time>2026-04-04T07:58:17.782Z</time></trkpt><trkpt lat="42.7791323" lon="10.2965705"><ele>259.0</ele><time>2026-04-04T07:58:18.782Z</time></trkpt><trkpt lat="42.7791434" lon="10.2964225"><ele>259.0</ele><time>2026-04-04T07:58:19.782Z</time></trkpt><trkpt lat="42.7791607" lon="10.2962793"><ele>259.0</ele><time>2026-04-04T07:58:20.782Z</time></trkpt><trkpt lat="42.7791715" lon="10.2961396"><ele>259.0</ele><time>2026-04-04T07:58:21.782Z</time></trkpt><trkpt lat="42.7791854" lon="10.2960067"><ele>259.2</ele><time>2026-04-04T07:58:22.782Z</time></trkpt><trkpt lat="42.7791978" lon="10.2958755"><ele>259.4</ele><time>2026-04-04T07:58:23.782Z</time></trkpt><trkpt lat="42.7792061" lon="10.2957569"><ele>259.6</ele><time>2026-04-04T07:58:24.782Z</time></trkpt><trkpt lat="42.7792059" lon="10.2956214"><ele>259.8</ele><time>2026-04-04T07:58:25.782Z</time></trkpt><trkpt lat="42.7792037" lon="10.2954711"><ele>260.0</ele><time>2026-04-04T07:58:26.782Z</time></trkpt><trkpt lat="42.779193" lon="10.2953292"><ele>260.6</ele><time>2026-04-04T07:58:27.781Z</time></trkpt><trkpt lat="42.7791839" lon="10.295192"><ele>261.2</ele><time>2026-04-04T07:58:28.782Z</time></trkpt><trkpt lat="42.7791859" lon="10.2950477"><ele>261.8</ele><time>2026-04-04T07:58:29.782Z</time></trkpt><trkpt lat="42.7791917" lon="10.2949199"><ele>262.4</ele><time>2026-04-04T07:58:30.782Z</time></trkpt><trkpt lat="42.7792128" lon="10.2947965"><ele>263.0</ele><time>2026-04-04T07:58:31.781Z</time></trkpt><trkpt lat="42.7792247" lon="10.2946515"><ele>263.2</ele><time>2026-04-04T07:58:32.782Z</time></trkpt><trkpt lat="42.7792582" lon="10.2945058"><ele>263.4</ele><time>2026-04-04T07:58:33.782Z</time></trkpt><trkpt lat="42.7792727" lon="10.294362"><ele>263.59999999999997</ele><time>2026-04-04T07:58:34.782Z</time></trkpt><trkpt lat="42.7792983" lon="10.2942259"><ele>263.8</ele><time>2026-04-04T07:58:35.782Z</time></trkpt><trkpt lat="42.7793153" lon="10.2940928"><ele>264.0</ele><time>2026-04-04T07:58:36.782Z</time></trkpt><trkpt lat="42.779338" lon="10.2939623"><ele>264.3333333333333</ele><time>2026-04-04T07:58:37.782Z</time></trkpt><trkpt lat="42.7793558" lon="10.2938289"><ele>264.6666666666667</ele><time>2026-04-04T07:58:38.782Z</time></trkpt><trkpt lat="42.7793704" lon="10.2937127"><ele>265.0</ele><time>2026-04-04T07:58:39.782Z</time></trkpt><trkpt lat="42.7793682" lon="10.293621"><ele>265.33333333333337</ele><time>2026-04-04T07:58:40.782Z</time></trkpt><trkpt lat="42.7793485" lon="10.29347"><ele>265.6666666666667</ele><time>2026-04-04T07:58:42.782Z</time></trkpt><trkpt lat="42.7793312" lon="10.2933639"><ele>266.0</ele><time>2026-04-04T07:58:45.782Z</time></trkpt><trkpt lat="42.7792674" lon="10.2933775"><ele>266.0</ele><time>2026-04-04T07:59:11.782Z</time></trkpt><trkpt lat="42.7792556" lon="10.2935011"><ele>266.0</ele><time>2026-04-04T07:59:14.782Z</time></trkpt><trkpt lat="42.7792335" lon="10.2936282"><ele>266.0</ele><time>2026-04-04T07:59:16.782Z</time></trkpt><trkpt lat="42.7792128" lon="10.2937168"><ele>266.0</ele><time>2026-04-04T07:59:17.782Z</time></trkpt><trkpt lat="42.7791668" lon="10.2938571"><ele>266.0</ele><time>2026-04-04T07:59:19.782Z</time></trkpt><trkpt lat="42.7791348" lon="10.293993"><ele>264.0</ele><time>2026-04-04T07:59:21.782Z</time></trkpt><trkpt lat="42.7790831" lon="10.2941196"><ele>264.0</ele><time>2026-04-04T07:59:23.782Z</time></trkpt><trkpt lat="42.7790366" lon="10.2941923"><ele>264.0</ele><time>2026-04-04T07:59:25.782Z</time></trkpt><trkpt lat="42.7790269" lon="10.2943131"><ele>264.0</ele><time>2026-04-04T07:59:39.781Z</time></trkpt><trkpt lat="42.7789758" lon="10.294259"><ele>264.0</ele><time>2026-04-04T07:59:44.782Z</time></trkpt><trkpt lat="42.7789885" lon="10.2941711"><ele>264.0</ele><time>2026-04-04T07:59:47.782Z</time></trkpt></trkseg><trkseg><trkpt lat="42.779313" lon="10.2929217"><ele>273.0</ele><time>2026-04-04T08:18:57.769Z</time></trkpt><trkpt lat="42.7793479" lon="10.2927931"><ele>273.0</ele><time>2026-04-04T08:18:59.769Z</time></trkpt><trkpt lat="42.7793537" lon="10.2927007"><ele>273.0</ele><time>2026-04-04T08:19:00.769Z</time></trkpt><trkpt lat="42.779352" lon="10.2926022"><ele>273.0</ele><time>2026-04-04T08:19:01.769Z</time></trkpt><trkpt lat="42.7793508" lon="10.2924852"><ele>273.0</ele><time>2026-04-04T08:19:02.769Z</time></trkpt><trkpt lat="42.7793772" lon="10.2923726"><ele>273.0</ele><time>2026-04-04T08:19:03.769Z</time></trkpt><trkpt lat="42.7793819" lon="10.292263"><ele>271.1666666666667</ele><time>2026-04-04T08:19:04.769Z</time></trkpt><trkpt lat="42.7793856" lon="10.2921433"><ele>269.3333333333333</ele><time>2026-04-04T08:19:05.769Z</time></trkpt><trkpt lat="42.7794055" lon="10.292027"><ele>267.5</ele><time>2026-04-04T08:19:06.769Z</time></trkpt><trkpt lat="42.7794362" lon="10.2919282"><ele>265.66666666666663</ele><time>2026-04-04T08:19:07.768Z</time></trkpt><trkpt lat="42.7794737" lon="10.2918237"><ele>263.8333333333333</ele><time>2026-04-04T08:19:08.769Z</time></trkpt><trkpt lat="42.7795082" lon="10.2917196"><ele>262.0</ele><time>2026-04-04T08:19:09.769Z</time></trkpt><trkpt lat="42.7795367" lon="10.2916338"><ele>262.0</ele><time>2026-04-04T08:19:10.768Z</time></trkpt><trkpt lat="42.7795098" lon="10.2914922"><ele>262.0</ele><time>2026-04-04T08:19:12.769Z</time></trkpt><trkpt lat="42.7794373" lon="10.2913488"><ele>262.0</ele><time>2026-04-04T08:19:14.769Z</time></trkpt><trkpt lat="42.7793747" lon="10.2912864"><ele>262.0</ele><time>2026-04-04T08:19:15.769Z</time></trkpt><trkpt lat="42.7792957" lon="10.2912184"><ele>262.0</ele><time>2026-04-04T08:19:16.769Z</time></trkpt><trkpt lat="42.779214" lon="10.2911436"><ele>264.25</ele><time>2026-04-04T08:19:17.769Z</time></trkpt><trkpt lat="42.7791029" lon="10.2910535"><ele>266.5</ele><time>2026-04-04T08:19:18.769Z</time></trkpt><trkpt lat="42.7790052" lon="10.2909598"><ele>268.75</ele><time>2026-04-04T08:19:19.769Z</time></trkpt><trkpt lat="42.7788967" lon="10.2908519"><ele>271.0</ele><time>2026-04-04T08:19:20.769Z</time></trkpt><trkpt lat="42.7787907" lon="10.2907327"><ele>271.0</ele><time>2026-04-04T08:19:21.769Z</time></trkpt><trkpt lat="42.7786897" lon="10.2906127"><ele>271.0</ele><time>2026-04-04T08:19:22.769Z</time></trkpt><trkpt lat="42.7785923" lon="10.2904874"><ele>271.0</ele><time>2026-04-04T08:19:23.769Z</time></trkpt><trkpt lat="42.7785027" lon="10.2903641"><ele>271.0</ele><time>2026-04-04T08:19:24.769Z</time></trkpt><trkpt lat="42.7784189" lon="10.2902478"><ele>271.2</ele><time>2026-04-04T08:19:25.769Z</time></trkpt><trkpt lat="42.7783463" lon="10.2901471"><ele>271.40000000000003</ele><time>2026-04-04T08:19:26.769Z</time></trkpt><trkpt lat="42.7783015" lon="10.2900471"><ele>271.6</ele><time>2026-04-04T08:19:27.769Z</time></trkpt><trkpt lat="42.7782338" lon="10.2899542"><ele>271.8</ele><time>2026-04-04T08:19:28.769Z</time></trkpt><trkpt lat="42.7781667" lon="10.2898578"><ele>272.0</ele><time>2026-04-04T08:19:29.769Z</time></trkpt><trkpt lat="42.7780998" lon="10.2897793"><ele>269.2</ele><time>2026-04-04T08:19:30.769Z</time></trkpt><trkpt lat="42.7780346" lon="10.2897101"><ele>266.4</ele><time>2026-04-04T08:19:31.769Z</time></trkpt><trkpt lat="42.7779704" lon="10.2896331"><ele>263.6</ele><time>2026-04-04T08:19:32.769Z</time></trkpt><trkpt lat="42.7779059" lon="10.2895402"><ele>260.8</ele><time>2026-04-04T08:19:33.768Z</time></trkpt><trkpt lat="42.7778498" lon="10.2894157"><ele>258.0</ele><time>2026-04-04T08:19:34.769Z</time></trkpt><trkpt lat="42.7778048" lon="10.2892781"><ele>258.0</ele><time>2026-04-04T08:19:35.768Z</time></trkpt><trkpt lat="42.7777766" lon="10.2891443"><ele>258.0</ele><time>2026-04-04T08:19:36.768Z</time></trkpt><trkpt lat="42.7777457" lon="10.2890101"><ele>258.0</ele><time>2026-04-04T08:19:37.769Z</time></trkpt><trkpt lat="42.7777084" lon="10.2888661"><ele>258.0</ele><time>2026-04-04T08:19:38.769Z</time></trkpt><trkpt lat="42.7776845" lon="10.2887227"><ele>258.0</ele><time>2026-04-04T08:19:39.769Z</time></trkpt><trkpt lat="42.7776571" lon="10.2885832"><ele>261.0</ele><time>2026-04-04T08:19:40.768Z</time></trkpt><trkpt lat="42.7776252" lon="10.2884486"><ele>264.0</ele><time>2026-04-04T08:19:41.769Z</time></trkpt><trkpt lat="42.777577" lon="10.2883354"><ele>267.0</ele><time>2026-04-04T08:19:42.769Z</time></trkpt><trkpt lat="42.7775397" lon="10.2882238"><ele>270.0</ele><time>2026-04-04T08:19:43.769Z</time></trkpt><trkpt lat="42.7774901" lon="10.2881073"><ele>273.0</ele><time>2026-04-04T08:19:44.769Z</time></trkpt><trkpt lat="42.777441" lon="10.2879995"><ele>273.0</ele><time>2026-04-04T08:19:45.768Z</time></trkpt><trkpt lat="42.7773989" lon="10.2878796"><ele>273.0</ele><time>2026-04-04T08:19:46.768Z</time></trkpt><trkpt lat="42.777369" lon="10.2877587"><ele>273.0</ele><time>2026-04-04T08:19:47.769Z</time></trkpt><trkpt lat="42.7773717" lon="10.2876382"><ele>273.0</ele><time>2026-04-04T08:19:48.769Z</time></trkpt><trkpt lat="42.777389" lon="10.287497"><ele>273.0</ele><time>2026-04-04T08:19:49.769Z</time></trkpt><trkpt lat="42.777414" lon="10.2873746"><ele>273.6</ele><time>2026-04-04T08:19:50.769Z</time></trkpt><trkpt lat="42.7774389" lon="10.2872417"><ele>274.20000000000005</ele><time>2026-04-04T08:19:51.768Z</time></trkpt><trkpt lat="42.7774401" lon="10.2870955"><ele>274.8</ele><time>2026-04-04T08:19:52.769Z</time></trkpt><trkpt lat="42.7774212" lon="10.2869412"><ele>275.40000000000003</ele><time>2026-04-04T08:19:53.769Z</time></trkpt><trkpt lat="42.7774064" lon="10.2867923"><ele>276.0</ele><time>2026-04-04T08:19:54.769Z</time></trkpt><trkpt lat="42.777395" lon="10.2866456"><ele>276.0</ele><time>2026-04-04T08:19:55.768Z</time></trkpt><trkpt lat="42.7774032" lon="10.2864899"><ele>276.0</ele><time>2026-04-04T08:19:56.769Z</time></trkpt><trkpt lat="42.7774225" lon="10.2863481"><ele>276.0</ele><time>2026-04-04T08:19:57.769Z</time></trkpt><trkpt lat="42.7774463" lon="10.2861977"><ele>276.0</ele><time>2026-04-04T08:19:58.769Z</time></trkpt><trkpt lat="42.7774601" lon="10.2860579"><ele>276.0</ele><time>2026-04-04T08:19:59.769Z</time></trkpt><trkpt lat="42.7774644" lon="10.2859265"><ele>276.2</ele><time>2026-04-04T08:20:00.769Z</time></trkpt><trkpt lat="42.7774731" lon="10.2857727"><ele>276.40000000000003</ele><time>2026-04-04T08:20:01.769Z</time></trkpt><trkpt lat="42.77748" lon="10.2856412"><ele>276.6</ele><time>2026-04-04T08:20:02.769Z</time></trkpt><trkpt lat="42.7774498" lon="10.2855093"><ele>276.8</ele><time>2026-04-04T08:20:03.768Z</time></trkpt><trkpt lat="42.7774209" lon="10.2853958"><ele>277.0</ele><time>2026-04-04T08:20:04.769Z</time></trkpt><trkpt lat="42.7773784" lon="10.285265"><ele>275.8</ele><time>2026-04-04T08:20:05.769Z</time></trkpt><trkpt lat="42.7773298" lon="10.285149"><ele>274.6</ele><time>2026-04-04T08:20:06.769Z</time></trkpt><trkpt lat="42.7772901" lon="10.2850085"><ele>273.40000000000003</ele><time>2026-04-04T08:20:07.769Z</time></trkpt><trkpt lat="42.7772581" lon="10.2848842"><ele>272.2</ele><time>2026-04-04T08:20:08.769Z</time></trkpt><trkpt lat="42.7772114" lon="10.2847413"><ele>271.0</ele><time>2026-04-04T08:20:09.769Z</time></trkpt><trkpt lat="42.7771643" lon="10.2846102"><ele>270.0</ele><time>2026-04-04T08:20:10.769Z</time></trkpt><trkpt lat="42.7771203" lon="10.2844899"><ele>269.0</ele><time>2026-04-04T08:20:11.769Z</time></trkpt><trkpt lat="42.7770748" lon="10.2843687"><ele>268.0</ele><time>2026-04-04T08:20:12.768Z</time></trkpt><trkpt lat="42.7770327" lon="10.2842544"><ele>267.0</ele><time>2026-04-04T08:20:13.769Z</time></trkpt><trkpt lat="42.7769882" lon="10.284116"><ele>266.0</ele><time>2026-04-04T08:20:14.768Z</time></trkpt><trkpt lat="42.7769497" lon="10.2839869"><ele>263.0</ele><time>2026-04-04T08:20:15.769Z</time></trkpt><trkpt lat="42.7769038" lon="10.2838569"><ele>260.0</ele><time>2026-04-04T08:20:16.769Z</time></trkpt><trkpt lat="42.7768746" lon="10.283725"><ele>257.0</ele><time>2026-04-04T08:20:17.769Z</time></trkpt><trkpt lat="42.7768461" lon="10.2835433"><ele>254.0</ele><time>2026-04-04T08:20:18.769Z</time></trkpt><trkpt lat="42.7768239" lon="10.2834017"><ele>257.8</ele><time>2026-04-04T08:20:19.769Z</time></trkpt><trkpt lat="42.7767853" lon="10.2832693"><ele>261.59999999999997</ele><time>2026-04-04T08:20:20.769Z</time></trkpt><trkpt lat="42.776762" lon="10.2831399"><ele>265.4</ele><time>2026-04-04T08:20:21.769Z</time></trkpt><trkpt lat="42.7767159" lon="10.2829929"><ele>269.2</ele><time>2026-04-04T08:20:22.769Z</time></trkpt><trkpt lat="42.7766545" lon="10.2828645"><ele>273.0</ele><time>2026-04-04T08:20:23.769Z</time></trkpt><trkpt lat="42.7766167" lon="10.2827603"><ele>273.0</ele><time>2026-04-04T08:20:24.769Z</time></trkpt><trkpt lat="42.7765586" lon="10.2826696"><ele>273.0</ele><time>2026-04-04T08:20:25.769Z</time></trkpt><trkpt lat="42.7765018" lon="10.2825668"><ele>273.0</ele><time>2026-04-04T08:20:26.769Z</time></trkpt><trkpt lat="42.7764477" lon="10.2824597"><ele>273.0</ele><time>2026-04-04T08:20:27.769Z</time></trkpt><trkpt lat="42.7764246" lon="10.282334"><ele>273.0</ele><time>2026-04-04T08:20:28.769Z</time></trkpt><trkpt lat="42.7764548" lon="10.2822127"><ele>272.8</ele><time>2026-04-04T08:20:29.769Z</time></trkpt><trkpt lat="42.7764807" lon="10.2820654"><ele>272.6</ele><time>2026-04-04T08:20:30.769Z</time></trkpt><trkpt lat="42.7765059" lon="10.2819434"><ele>272.4</ele><time>2026-04-04T08:20:31.769Z</time></trkpt><trkpt lat="42.77656" lon="10.2818159"><ele>272.2</ele><time>2026-04-04T08:20:32.769Z</time></trkpt><trkpt lat="42.7766031" lon="10.2816815"><ele>272.0</ele><time>2026-04-04T08:20:33.769Z</time></trkpt><trkpt lat="42.7766423" lon="10.2815635"><ele>272.0</ele><time>2026-04-04T08:20:34.769Z</time></trkpt><trkpt lat="42.7766806" lon="10.2814457"><ele>272.0</ele><time>2026-04-04T08:20:35.769Z</time></trkpt><trkpt lat="42.7766459" lon="10.2812989"><ele>272.0</ele><time>2026-04-04T08:20:36.769Z</time></trkpt><trkpt lat="42.7766317" lon="10.2811842"><ele>272.0</ele><time>2026-04-04T08:20:37.768Z</time></trkpt><trkpt lat="42.7766134" lon="10.2810459"><ele>272.0</ele><time>2026-04-04T08:20:38.768Z</time></trkpt><trkpt lat="42.7765946" lon="10.2809151"><ele>272.5</ele><time>2026-04-04T08:20:39.769Z</time></trkpt><trkpt lat="42.7765643" lon="10.2807759"><ele>273.0</ele><time>2026-04-04T08:20:40.769Z</time></trkpt><trkpt lat="42.7765376" lon="10.2806592"><ele>273.5</ele><time>2026-04-04T08:20:41.768Z</time></trkpt><trkpt lat="42.7765139" lon="10.2805549"><ele>274.0</ele><time>2026-04-04T08:20:42.768Z</time></trkpt><trkpt lat="42.7764999" lon="10.2804423"><ele>274.5</ele><time>2026-04-04T08:20:43.769Z</time></trkpt><trkpt lat="42.7765055" lon="10.2803255"><ele>275.0</ele><time>2026-04-04T08:20:44.769Z</time></trkpt><trkpt lat="42.7765383" lon="10.2802022"><ele>277.6</ele><time>2026-04-04T08:20:45.769Z</time></trkpt><trkpt lat="42.7765625" lon="10.2800834"><ele>280.2</ele><time>2026-04-04T08:20:46.769Z</time></trkpt><trkpt lat="42.7766232" lon="10.280003"><ele>282.8</ele><time>2026-04-04T08:20:47.769Z</time></trkpt><trkpt lat="42.7767328" lon="10.2799567"><ele>285.4</ele><time>2026-04-04T08:20:48.769Z</time></trkpt><trkpt lat="42.7768422" lon="10.2799156"><ele>288.0</ele><time>2026-04-04T08:20:49.769Z</time></trkpt><trkpt lat="42.7768937" lon="10.2798658"><ele>288.2</ele><time>2026-04-04T08:20:50.769Z</time></trkpt><trkpt lat="42.7769972" lon="10.2798354"><ele>288.4</ele><time>2026-04-04T08:20:51.769Z</time></trkpt><trkpt lat="42.7770785" lon="10.2797736"><ele>288.59999999999997</ele><time>2026-04-04T08:20:52.768Z</time></trkpt><trkpt lat="42.7771538" lon="10.2797033"><ele>288.8</ele><time>2026-04-04T08:20:53.768Z</time></trkpt><trkpt lat="42.7772164" lon="10.2795858"><ele>289.0</ele><time>2026-04-04T08:20:54.768Z</time></trkpt><trkpt lat="42.7772701" lon="10.2794756"><ele>289.0</ele><time>2026-04-04T08:20:55.769Z</time></trkpt><trkpt lat="42.777297" lon="10.2793535"><ele>289.0</ele><time>2026-04-04T08:20:56.769Z</time></trkpt><trkpt lat="42.7773341" lon="10.2792694"><ele>289.0</ele><time>2026-04-04T08:20:57.769Z</time></trkpt><trkpt lat="42.7773945" lon="10.2792075"><ele>289.0</ele><time>2026-04-04T08:20:58.768Z</time></trkpt><trkpt lat="42.7774697" lon="10.2791726"><ele>289.0</ele><time>2026-04-04T08:20:59.769Z</time></trkpt><trkpt lat="42.777549" lon="10.2791492"><ele>289.0</ele><time>2026-04-04T08:21:00.769Z</time></trkpt><trkpt lat="42.7776388" lon="10.2791638"><ele>287.0</ele><time>2026-04-04T08:21:01.769Z</time></trkpt><trkpt lat="42.7777455" lon="10.2792003"><ele>285.0</ele><time>2026-04-04T08:21:02.769Z</time></trkpt><trkpt lat="42.7778124" lon="10.2792298"><ele>283.0</ele><time>2026-04-04T08:21:03.769Z</time></trkpt><trkpt lat="42.7778766" lon="10.2792355"><ele>281.0</ele><time>2026-04-04T08:21:04.768Z</time></trkpt><trkpt lat="42.7779713" lon="10.2792263"><ele>279.0</ele><time>2026-04-04T08:21:05.769Z</time></trkpt><trkpt lat="42.7780684" lon="10.2791668"><ele>277.0</ele><time>2026-04-04T08:21:07.769Z</time></trkpt><trkpt lat="42.7781807" lon="10.2790721"><ele>277.0</ele><time>2026-04-04T08:21:09.769Z</time></trkpt><trkpt lat="42.7782398" lon="10.279023"><ele>277.0</ele><time>2026-04-04T08:21:10.769Z</time></trkpt><trkpt lat="42.7783033" lon="10.278968"><ele>277.0</ele><time>2026-04-04T08:21:11.769Z</time></trkpt><trkpt lat="42.7783647" lon="10.2789221"><ele>277.0</ele><time>2026-04-04T08:21:12.769Z</time></trkpt><trkpt lat="42.7784289" lon="10.2788955"><ele>277.0</ele><time>2026-04-04T08:21:13.769Z</time></trkpt><trkpt lat="42.7785341" lon="10.2787756"><ele>277.0</ele><time>2026-04-04T08:21:15.769Z</time></trkpt><trkpt lat="42.7785999" lon="10.2787197"><ele>279.2</ele><time>2026-04-04T08:21:16.769Z</time></trkpt><trkpt lat="42.7786245" lon="10.2786215"><ele>281.4</ele><time>2026-04-04T08:21:17.768Z</time></trkpt><trkpt lat="42.7785878" lon="10.2784527"><ele>283.6</ele><time>2026-04-04T08:21:19.768Z</time></trkpt><trkpt lat="42.7785823" lon="10.2783572"><ele>285.8</ele><time>2026-04-04T08:21:20.768Z</time></trkpt><trkpt lat="42.778528" lon="10.2782237"><ele>288.0</ele><time>2026-04-04T08:21:21.769Z</time></trkpt><trkpt lat="42.7784893" lon="10.2780672"><ele>288.0</ele><time>2026-04-04T08:21:22.769Z</time></trkpt><trkpt lat="42.7784716" lon="10.2779429"><ele>288.0</ele><time>2026-04-04T08:21:23.769Z</time></trkpt><trkpt lat="42.7784428" lon="10.2778036"><ele>288.0</ele><time>2026-04-04T08:21:24.769Z</time></trkpt><trkpt lat="42.7784251" lon="10.2776798"><ele>288.0</ele><time>2026-04-04T08:21:25.769Z</time></trkpt><trkpt lat="42.7783871" lon="10.2775524"><ele>288.0</ele><time>2026-04-04T08:21:26.769Z</time></trkpt><trkpt lat="42.7783531" lon="10.2774288"><ele>288.0</ele><time>2026-04-04T08:21:27.768Z</time></trkpt><trkpt lat="42.7783198" lon="10.277308"><ele>288.0</ele><time>2026-04-04T08:21:28.769Z</time></trkpt><trkpt lat="42.7782842" lon="10.2771642"><ele>288.0</ele><time>2026-04-04T08:21:29.769Z</time></trkpt><trkpt lat="42.778268" lon="10.2770137"><ele>288.0</ele><time>2026-04-04T08:21:30.768Z</time></trkpt><trkpt lat="42.7782748" lon="10.2768815"><ele>288.0</ele><time>2026-04-04T08:21:31.768Z</time></trkpt><trkpt lat="42.7782535" lon="10.2767575"><ele>288.3333333333333</ele><time>2026-04-04T08:21:32.769Z</time></trkpt><trkpt lat="42.778238" lon="10.2766474"><ele>288.6666666666667</ele><time>2026-04-04T08:21:33.769Z</time></trkpt><trkpt lat="42.7782032" lon="10.2765427"><ele>289.0</ele><time>2026-04-04T08:21:34.769Z</time></trkpt><trkpt lat="42.778186" lon="10.2764536"><ele>289.33333333333337</ele><time>2026-04-04T08:21:35.769Z</time></trkpt><trkpt lat="42.7782362" lon="10.2763792"><ele>289.6666666666667</ele><time>2026-04-04T08:21:36.769Z</time></trkpt><trkpt lat="42.778269" lon="10.2763057"><ele>290.0</ele><time>2026-04-04T08:21:37.769Z</time></trkpt><trkpt lat="42.778357" lon="10.2762613"><ele>289.4</ele><time>2026-04-04T08:21:38.768Z</time></trkpt><trkpt lat="42.7784488" lon="10.2761918"><ele>288.8</ele><time>2026-04-04T08:21:39.769Z</time></trkpt><trkpt lat="42.7785115" lon="10.2761296"><ele>288.2</ele><time>2026-04-04T08:21:40.769Z</time></trkpt><trkpt lat="42.7786068" lon="10.2760899"><ele>287.6</ele><time>2026-04-04T08:21:41.769Z</time></trkpt><trkpt lat="42.7786987" lon="10.2760544"><ele>287.0</ele><time>2026-04-04T08:21:42.769Z</time></trkpt><trkpt lat="42.7787939" lon="10.2760403"><ele>287.0</ele><time>2026-04-04T08:21:43.769Z</time></trkpt><trkpt lat="42.7788967" lon="10.2760096"><ele>287.0</ele><time>2026-04-04T08:21:44.769Z</time></trkpt><trkpt lat="42.7789907" lon="10.2759647"><ele>287.0</ele><time>2026-04-04T08:21:45.769Z</time></trkpt><trkpt lat="42.7790834" lon="10.2759091"><ele>287.0</ele><time>2026-04-04T08:21:46.768Z</time></trkpt><trkpt lat="42.7791584" lon="10.2758621"><ele>287.0</ele><time>2026-04-04T08:21:47.769Z</time></trkpt><trkpt lat="42.7792281" lon="10.2758241"><ele>287.0</ele><time>2026-04-04T08:21:48.769Z</time></trkpt><trkpt lat="42.7792926" lon="10.2757983"><ele>287.0</ele><time>2026-04-04T08:21:49.768Z</time></trkpt><trkpt lat="42.7794281" lon="10.2757681"><ele>287.0</ele><time>2026-04-04T08:21:51.769Z</time></trkpt><trkpt lat="42.7795425" lon="10.2757275"><ele>287.0</ele><time>2026-04-04T08:21:53.768Z</time></trkpt><trkpt lat="42.7795927" lon="10.2756721"><ele>287.0</ele><time>2026-04-04T08:21:54.769Z</time></trkpt><trkpt lat="42.7796629" lon="10.275575"><ele>284.5</ele><time>2026-04-04T08:21:56.769Z</time></trkpt><trkpt lat="42.779661" lon="10.2754249"><ele>282.0</ele><time>2026-04-04T08:21:58.769Z</time></trkpt><trkpt lat="42.7796457" lon="10.2753394"><ele>279.5</ele><time>2026-04-04T08:21:59.769Z</time></trkpt><trkpt lat="42.7796275" lon="10.275256"><ele>277.0</ele><time>2026-04-04T08:22:00.769Z</time></trkpt><trkpt lat="42.7796088" lon="10.275173"><ele>274.5</ele><time>2026-04-04T08:22:01.769Z</time></trkpt><trkpt lat="42.7795892" lon="10.2750912"><ele>272.0</ele><time>2026-04-04T08:22:02.769Z</time></trkpt><trkpt lat="42.7795674" lon="10.2749336"><ele>271.99999999999994</ele><time>2026-04-04T08:22:04.769Z</time></trkpt><trkpt lat="42.7795546" lon="10.2748458"><ele>272.0</ele><time>2026-04-04T08:22:05.769Z</time></trkpt><trkpt lat="42.7795459" lon="10.2747522"><ele>272.0</ele><time>2026-04-04T08:22:06.769Z</time></trkpt><trkpt lat="42.7795432" lon="10.2746518"><ele>272.0</ele><time>2026-04-04T08:22:07.769Z</time></trkpt><trkpt lat="42.7795497" lon="10.2745592"><ele>272.0</ele><time>2026-04-04T08:22:08.769Z</time></trkpt><trkpt lat="42.7795784" lon="10.2744618"><ele>271.99999999999994</ele><time>2026-04-04T08:22:09.768Z</time></trkpt><trkpt lat="42.7796158" lon="10.2743732"><ele>272.0</ele><time>2026-04-04T08:22:10.769Z</time></trkpt><trkpt lat="42.7796693" lon="10.2742852"><ele>273.5</ele><time>2026-04-04T08:22:11.769Z</time></trkpt><trkpt lat="42.7797241" lon="10.2742078"><ele>275.0</ele><time>2026-04-04T08:22:12.769Z</time></trkpt><trkpt lat="42.7797921" lon="10.2741311"><ele>276.5</ele><time>2026-04-04T08:22:13.769Z</time></trkpt><trkpt lat="42.7798394" lon="10.2740416"><ele>278.0</ele><time>2026-04-04T08:22:14.769Z</time></trkpt><trkpt lat="42.7798743" lon="10.273967"><ele>279.5</ele><time>2026-04-04T08:22:15.769Z</time></trkpt><trkpt lat="42.779917" lon="10.2738424"><ele>281.0</ele><time>2026-04-04T08:22:17.768Z</time></trkpt><trkpt lat="42.7799427" lon="10.2737618"><ele>282.40000000000003</ele><time>2026-04-04T08:22:18.769Z</time></trkpt><trkpt lat="42.7799987" lon="10.2735981"><ele>283.8</ele><time>2026-04-04T08:22:20.769Z</time></trkpt><trkpt lat="42.7800222" lon="10.2734885"><ele>285.20000000000005</ele><time>2026-04-04T08:22:21.768Z</time></trkpt><trkpt lat="42.7800364" lon="10.2733744"><ele>286.6</ele><time>2026-04-04T08:22:22.769Z</time></trkpt><trkpt lat="42.7800397" lon="10.2732513"><ele>288.0</ele><time>2026-04-04T08:22:23.769Z</time></trkpt><trkpt lat="42.7800324" lon="10.2731256"><ele>288.4</ele><time>2026-04-04T08:22:24.769Z</time></trkpt><trkpt lat="42.7800043" lon="10.2730251"><ele>288.8</ele><time>2026-04-04T08:22:25.769Z</time></trkpt><trkpt lat="42.7799737" lon="10.2729297"><ele>289.2</ele><time>2026-04-04T08:22:26.769Z</time></trkpt><trkpt lat="42.7799518" lon="10.2728285"><ele>289.6</ele><time>2026-04-04T08:22:27.769Z</time></trkpt><trkpt lat="42.7799409" lon="10.2726796"><ele>290.0</ele><time>2026-04-04T08:22:29.769Z</time></trkpt><trkpt lat="42.7798858" lon="10.2725502"><ele>290.0</ele><time>2026-04-04T08:22:31.769Z</time></trkpt><trkpt lat="42.7798431" lon="10.2724593"><ele>290.0</ele><time>2026-04-04T08:22:33.769Z</time></trkpt><trkpt lat="42.7797553" lon="10.2724022"><ele>290.0</ele><time>2026-04-04T08:22:45.769Z</time></trkpt><trkpt lat="42.7796881" lon="10.2723713"><ele>290.0</ele><time>2026-04-04T08:22:46.769Z</time></trkpt><trkpt lat="42.7796135" lon="10.2723688"><ele>290.0</ele><time>2026-04-04T08:22:47.769Z</time></trkpt><trkpt lat="42.7795316" lon="10.272365"><ele>290.0</ele><time>2026-04-04T08:22:48.768Z</time></trkpt><trkpt lat="42.7794461" lon="10.2723826"><ele>290.0</ele><time>2026-04-04T08:22:49.769Z</time></trkpt><trkpt lat="42.7793811" lon="10.2724075"><ele>290.0</ele><time>2026-04-04T08:22:50.769Z</time></trkpt><trkpt lat="42.7793082" lon="10.272412"><ele>290.0</ele><time>2026-04-04T08:22:51.769Z</time></trkpt><trkpt lat="42.7792427" lon="10.2724167"><ele>290.0</ele><time>2026-04-04T08:22:52.769Z</time></trkpt><trkpt lat="42.779174" lon="10.2724176"><ele>290.0</ele><time>2026-04-04T08:22:53.769Z</time></trkpt><trkpt lat="42.7791076" lon="10.272433"><ele>290.0</ele><time>2026-04-04T08:22:54.769Z</time></trkpt><trkpt lat="42.7790331" lon="10.2724665"><ele>290.0</ele><time>2026-04-04T08:22:55.769Z</time></trkpt><trkpt lat="42.7789732" lon="10.2725351"><ele>288.6666666666667</ele><time>2026-04-04T08:22:56.769Z</time></trkpt><trkpt lat="42.7789316" lon="10.2726237"><ele>287.33333333333337</ele><time>2026-04-04T08:22:57.769Z</time></trkpt><trkpt lat="42.7789005" lon="10.2727035"><ele>286.0</ele><time>2026-04-04T08:22:58.769Z</time></trkpt><trkpt lat="42.7788999" lon="10.2728004"><ele>284.6666666666667</ele><time>2026-04-04T08:22:59.769Z</time></trkpt><trkpt lat="42.778827" lon="10.2729408"><ele>283.3333333333333</ele><time>2026-04-04T08:23:01.769Z</time></trkpt><trkpt lat="42.778767" lon="10.2729913"><ele>282.0</ele><time>2026-04-04T08:23:02.769Z</time></trkpt><trkpt lat="42.7787079" lon="10.2730386"><ele>282.0</ele><time>2026-04-04T08:23:03.769Z</time></trkpt><trkpt lat="42.7786524" lon="10.273099"><ele>282.0</ele><time>2026-04-04T08:23:04.769Z</time></trkpt><trkpt lat="42.7785987" lon="10.2731629"><ele>282.0</ele><time>2026-04-04T08:23:05.767Z</time></trkpt><trkpt lat="42.7785467" lon="10.2732445"><ele>282.0</ele><time>2026-04-04T08:23:06.769Z</time></trkpt><trkpt lat="42.7784863" lon="10.2733173"><ele>282.0</ele><time>2026-04-04T08:23:07.769Z</time></trkpt><trkpt lat="42.7784204" lon="10.2733892"><ele>282.0</ele><time>2026-04-04T08:23:08.769Z</time></trkpt><trkpt lat="42.7783498" lon="10.2734461"><ele>280.0</ele><time>2026-04-04T08:23:09.769Z</time></trkpt><trkpt lat="42.7782815" lon="10.2734769"><ele>278.0</ele><time>2026-04-04T08:23:10.769Z</time></trkpt><trkpt lat="42.7782104" lon="10.2735082"><ele>276.0</ele><time>2026-04-04T08:23:11.769Z</time></trkpt><trkpt lat="42.7781065" lon="10.2735098"><ele>274.0</ele><time>2026-04-04T08:23:12.769Z</time></trkpt><trkpt lat="42.7780143" lon="10.2735174"><ele>272.0</ele><time>2026-04-04T08:23:13.769Z</time></trkpt><trkpt lat="42.7779211" lon="10.2735109"><ele>270.0</ele><time>2026-04-04T08:23:14.769Z</time></trkpt><trkpt lat="42.7778287" lon="10.273509"><ele>270.0</ele><time>2026-04-04T08:23:15.768Z</time></trkpt><trkpt lat="42.7777418" lon="10.2735266"><ele>270.0</ele><time>2026-04-04T08:23:16.769Z</time></trkpt><trkpt lat="42.7776623" lon="10.2735436"><ele>270.0</ele><time>2026-04-04T08:23:17.769Z</time></trkpt><trkpt lat="42.7775771" lon="10.2735551"><ele>270.0</ele><time>2026-04-04T08:23:18.769Z</time></trkpt><trkpt lat="42.7775057" lon="10.2735713"><ele>270.0</ele><time>2026-04-04T08:23:19.769Z</time></trkpt><trkpt lat="42.7774286" lon="10.2735698"><ele>270.0</ele><time>2026-04-04T08:23:20.769Z</time></trkpt><trkpt lat="42.7773552" lon="10.2735858"><ele>266.5</ele><time>2026-04-04T08:23:21.769Z</time></trkpt><trkpt lat="42.7772701" lon="10.2736222"><ele>263.0</ele><time>2026-04-04T08:23:22.769Z</time></trkpt><trkpt lat="42.7771795" lon="10.2736721"><ele>259.5</ele><time>2026-04-04T08:23:23.769Z</time></trkpt><trkpt lat="42.7770999" lon="10.2737284"><ele>256.0</ele><time>2026-04-04T08:23:24.769Z</time></trkpt><trkpt lat="42.7770311" lon="10.2737698"><ele>252.5</ele><time>2026-04-04T08:23:25.769Z</time></trkpt><trkpt lat="42.7769667" lon="10.2737961"><ele>249.0</ele><time>2026-04-04T08:23:26.769Z</time></trkpt><trkpt lat="42.776894" lon="10.2738371"><ele>247.85714285714283</ele><time>2026-04-04T08:23:27.769Z</time></trkpt><trkpt lat="42.7768303" lon="10.2738839"><ele>246.7142857142857</ele><time>2026-04-04T08:23:28.768Z</time></trkpt><trkpt lat="42.7767672" lon="10.2739031"><ele>245.57142857142856</ele><time>2026-04-04T08:23:29.769Z</time></trkpt><trkpt lat="42.7766896" lon="10.2738934"><ele>244.42857142857144</ele><time>2026-04-04T08:23:30.769Z</time></trkpt><trkpt lat="42.7766171" lon="10.2738705"><ele>243.2857142857143</ele><time>2026-04-04T08:23:31.769Z</time></trkpt><trkpt lat="42.7765407" lon="10.2738366"><ele>242.14285714285717</ele><time>2026-04-04T08:23:32.769Z</time></trkpt><trkpt lat="42.7764798" lon="10.2738002"><ele>241.0</ele><time>2026-04-04T08:23:33.769Z</time></trkpt><trkpt lat="42.7764145" lon="10.2737484"><ele>241.0</ele><time>2026-04-04T08:23:34.769Z</time></trkpt><trkpt lat="42.7763223" lon="10.2736142"><ele>241.0</ele><time>2026-04-04T08:23:36.769Z</time></trkpt><trkpt lat="42.7762842" lon="10.273516"><ele>241.0</ele><time>2026-04-04T08:23:37.769Z</time></trkpt><trkpt lat="42.7761987" lon="10.2733851"><ele>241.0</ele><time>2026-04-04T08:23:39.769Z</time></trkpt><trkpt lat="42.7761206" lon="10.2732193"><ele>240.99999999999997</ele><time>2026-04-04T08:23:41.768Z</time></trkpt><trkpt lat="42.7760687" lon="10.273145"><ele>241.0</ele><time>2026-04-04T08:23:42.769Z</time></trkpt><trkpt lat="42.7759761" lon="10.2731048"><ele>241.0</ele><time>2026-04-04T08:23:43.769Z</time></trkpt><trkpt lat="42.7758821" lon="10.2730633"><ele>241.0</ele><time>2026-04-04T08:23:44.768Z</time></trkpt><trkpt lat="42.7757892" lon="10.2730207"><ele>240.99999999999997</ele><time>2026-04-04T08:23:45.769Z</time></trkpt><trkpt lat="42.7757165" lon="10.2729883"><ele>241.0</ele><time>2026-04-04T08:23:46.769Z</time></trkpt><trkpt lat="42.7756257" lon="10.2729577"><ele>238.60000000000002</ele><time>2026-04-04T08:23:47.769Z</time></trkpt><trkpt lat="42.7755454" lon="10.2729347"><ele>236.20000000000002</ele><time>2026-04-04T08:23:48.768Z</time></trkpt><trkpt lat="42.7754765" lon="10.2728973"><ele>233.79999999999998</ele><time>2026-04-04T08:23:49.769Z</time></trkpt><trkpt lat="42.7754047" lon="10.2728617"><ele>231.39999999999998</ele><time>2026-04-04T08:23:50.769Z</time></trkpt><trkpt lat="42.7753214" lon="10.2727761"><ele>229.0</ele><time>2026-04-04T08:23:52.768Z</time></trkpt><trkpt lat="42.7752734" lon="10.2726309"><ele>229.0</ele><time>2026-04-04T08:23:54.769Z</time></trkpt><trkpt lat="42.7752292" lon="10.2725225"><ele>229.0</ele><time>2026-04-04T08:23:56.769Z</time></trkpt><trkpt lat="42.7751981" lon="10.2724427"><ele>229.0</ele><time>2026-04-04T08:23:58.769Z</time></trkpt><trkpt lat="42.7751771" lon="10.2723616"><ele>229.0</ele><time>2026-04-04T08:24:24.768Z</time></trkpt><trkpt lat="42.7751041" lon="10.27234"><ele>229.0</ele><time>2026-04-04T08:24:28.769Z</time></trkpt><trkpt lat="42.7750304" lon="10.2723776"><ele>229.0</ele><time>2026-04-04T08:24:31.769Z</time></trkpt><trkpt lat="42.7749695" lon="10.2724092"><ele>229.0</ele><time>2026-04-04T08:24:34.769Z</time></trkpt><trkpt lat="42.7748809" lon="10.2724504"><ele>231.0</ele><time>2026-04-04T08:24:37.769Z</time></trkpt><trkpt lat="42.7748026" lon="10.2724937"><ele>232.99999999999997</ele><time>2026-04-04T08:24:38.769Z</time></trkpt><trkpt lat="42.7747174" lon="10.2725551"><ele>234.99999999999997</ele><time>2026-04-04T08:24:39.769Z</time></trkpt><trkpt lat="42.7746424" lon="10.2726446"><ele>237.0</ele><time>2026-04-04T08:24:40.769Z</time></trkpt><trkpt lat="42.7745756" lon="10.2727549"><ele>239.0</ele><time>2026-04-04T08:24:41.769Z</time></trkpt><trkpt lat="42.7745277" lon="10.2728643"><ele>239.0</ele><time>2026-04-04T08:24:42.769Z</time></trkpt><trkpt lat="42.7744844" lon="10.2729815"><ele>238.99999999999997</ele><time>2026-04-04T08:24:43.769Z</time></trkpt><trkpt lat="42.7744665" lon="10.2730903"><ele>238.99999999999997</ele><time>2026-04-04T08:24:44.769Z</time></trkpt><trkpt lat="42.774473" lon="10.2732251"><ele>239.0</ele><time>2026-04-04T08:24:45.769Z</time></trkpt><trkpt lat="42.7744827" lon="10.2733685"><ele>239.0</ele><time>2026-04-04T08:24:46.769Z</time></trkpt><trkpt lat="42.7744888" lon="10.2735329"><ele>242.6</ele><time>2026-04-04T08:24:47.769Z</time></trkpt><trkpt lat="42.774489" lon="10.27369"><ele>246.2</ele><time>2026-04-04T08:24:48.769Z</time></trkpt><trkpt lat="42.7744701" lon="10.2738171"><ele>249.79999999999998</ele><time>2026-04-04T08:24:49.769Z</time></trkpt><trkpt lat="42.7744491" lon="10.2739348"><ele>253.39999999999998</ele><time>2026-04-04T08:24:50.769Z</time></trkpt><trkpt lat="42.7744442" lon="10.2740258"><ele>257.0</ele><time>2026-04-04T08:24:51.769Z</time></trkpt><trkpt lat="42.7743687" lon="10.2741231"><ele>255.0</ele><time>2026-04-04T08:24:53.769Z</time></trkpt><trkpt lat="42.7743035" lon="10.2741321"><ele>253.0</ele><time>2026-04-04T08:24:54.768Z</time></trkpt><trkpt lat="42.7742164" lon="10.2740932"><ele>251.0</ele><time>2026-04-04T08:24:55.769Z</time></trkpt><trkpt lat="42.7741225" lon="10.2740505"><ele>249.0</ele><time>2026-04-04T08:24:56.768Z</time></trkpt><trkpt lat="42.7740181" lon="10.2740139"><ele>247.0</ele><time>2026-04-04T08:24:57.769Z</time></trkpt><trkpt lat="42.773929" lon="10.273984"><ele>243.0</ele><time>2026-04-04T08:24:58.769Z</time></trkpt><trkpt lat="42.7738427" lon="10.2739277"><ele>239.0</ele><time>2026-04-04T08:24:59.769Z</time></trkpt><trkpt lat="42.7737644" lon="10.2738552"><ele>235.0</ele><time>2026-04-04T08:25:00.769Z</time></trkpt><trkpt lat="42.7736951" lon="10.2737605"><ele>231.0</ele><time>2026-04-04T08:25:01.769Z</time></trkpt><trkpt lat="42.7736118" lon="10.2736431"><ele>227.0</ele><time>2026-04-04T08:25:02.769Z</time></trkpt><trkpt lat="42.7735655" lon="10.2735062"><ele>228.39999999999998</ele><time>2026-04-04T08:25:03.768Z</time></trkpt><trkpt lat="42.7734956" lon="10.2734218"><ele>229.79999999999998</ele><time>2026-04-04T08:25:04.769Z</time></trkpt><trkpt lat="42.7734225" lon="10.2733151"><ele>231.2</ele><time>2026-04-04T08:25:05.769Z</time></trkpt><trkpt lat="42.7733273" lon="10.2732248"><ele>232.6</ele><time>2026-04-04T08:25:06.769Z</time></trkpt><trkpt lat="42.7732358" lon="10.2731351"><ele>234.0</ele><time>2026-04-04T08:25:07.769Z</time></trkpt><trkpt lat="42.7731815" lon="10.2730588"><ele>229.6</ele><time>2026-04-04T08:25:08.769Z</time></trkpt><trkpt lat="42.7731298" lon="10.2729625"><ele>225.2</ele><time>2026-04-04T08:25:09.769Z</time></trkpt><trkpt lat="42.7731001" lon="10.2728381"><ele>220.79999999999998</ele><time>2026-04-04T08:25:10.769Z</time></trkpt><trkpt lat="42.773078" lon="10.2727093"><ele>216.39999999999998</ele><time>2026-04-04T08:25:11.769Z</time></trkpt><trkpt lat="42.7730648" lon="10.27258"><ele>212.0</ele><time>2026-04-04T08:25:12.769Z</time></trkpt><trkpt lat="42.7729945" lon="10.2724484"><ele>212.0</ele><time>2026-04-04T08:25:13.768Z</time></trkpt><trkpt lat="42.7729178" lon="10.2723174"><ele>212.0</ele><time>2026-04-04T08:25:14.769Z</time></trkpt><trkpt lat="42.7728512" lon="10.2721994"><ele>212.0</ele><time>2026-04-04T08:25:15.768Z</time></trkpt><trkpt lat="42.7727868" lon="10.2720795"><ele>212.0</ele><time>2026-04-04T08:25:16.769Z</time></trkpt><trkpt lat="42.7727661" lon="10.2719767"><ele>212.0</ele><time>2026-04-04T08:25:17.769Z</time></trkpt><trkpt lat="42.7727513" lon="10.271856"><ele>210.0</ele><time>2026-04-04T08:25:18.769Z</time></trkpt><trkpt lat="42.7727367" lon="10.2717276"><ele>208.0</ele><time>2026-04-04T08:25:19.769Z</time></trkpt><trkpt lat="42.7726937" lon="10.2715904"><ele>206.0</ele><time>2026-04-04T08:25:20.769Z</time></trkpt><trkpt lat="42.7726427" lon="10.2714603"><ele>204.0</ele><time>2026-04-04T08:25:21.768Z</time></trkpt><trkpt lat="42.7725913" lon="10.2713501"><ele>202.0</ele><time>2026-04-04T08:25:22.769Z</time></trkpt><trkpt lat="42.772509" lon="10.2712551"><ele>202.0</ele><time>2026-04-04T08:25:23.768Z</time></trkpt><trkpt lat="42.7724194" lon="10.2712188"><ele>202.0</ele><time>2026-04-04T08:25:24.768Z</time></trkpt><trkpt lat="42.772324" lon="10.2711803"><ele>202.0</ele><time>2026-04-04T08:25:25.768Z</time></trkpt><trkpt lat="42.7722198" lon="10.2711641"><ele>202.0</ele><time>2026-04-04T08:25:26.769Z</time></trkpt><trkpt lat="42.7721225" lon="10.2711838"><ele>202.0</ele><time>2026-04-04T08:25:27.768Z</time></trkpt><trkpt lat="42.7720129" lon="10.2712441"><ele>202.0</ele><time>2026-04-04T08:25:28.769Z</time></trkpt><trkpt lat="42.7719213" lon="10.2713017"><ele>202.0</ele><time>2026-04-04T08:25:29.769Z</time></trkpt><trkpt lat="42.7718397" lon="10.2713405"><ele>202.0</ele><time>2026-04-04T08:25:30.769Z</time></trkpt><trkpt lat="42.7717377" lon="10.2713039"><ele>202.0</ele><time>2026-04-04T08:25:32.769Z</time></trkpt><trkpt lat="42.7716833" lon="10.2712292"><ele>202.0</ele><time>2026-04-04T08:25:33.769Z</time></trkpt><trkpt lat="42.771639" lon="10.2711106"><ele>205.2</ele><time>2026-04-04T08:25:34.769Z</time></trkpt><trkpt lat="42.7715952" lon="10.27097"><ele>208.39999999999998</ele><time>2026-04-04T08:25:35.768Z</time></trkpt><trkpt lat="42.7715765" lon="10.2708378"><ele>211.60000000000002</ele><time>2026-04-04T08:25:36.769Z</time></trkpt><trkpt lat="42.7715478" lon="10.2707085"><ele>214.8</ele><time>2026-04-04T08:25:37.769Z</time></trkpt><trkpt lat="42.7715183" lon="10.2705921"><ele>218.0</ele><time>2026-04-04T08:25:38.768Z</time></trkpt><trkpt lat="42.7714717" lon="10.2704968"><ele>218.8</ele><time>2026-04-04T08:25:39.769Z</time></trkpt><trkpt lat="42.7714306" lon="10.2703585"><ele>219.60000000000002</ele><time>2026-04-04T08:25:41.769Z</time></trkpt><trkpt lat="42.7714594" lon="10.2702043"><ele>220.39999999999998</ele><time>2026-04-04T08:25:43.769Z</time></trkpt><trkpt lat="42.7715563" lon="10.2701236"><ele>221.2</ele><time>2026-04-04T08:25:45.769Z</time></trkpt><trkpt lat="42.7716418" lon="10.2700882"><ele>222.0</ele><time>2026-04-04T08:25:46.769Z</time></trkpt><trkpt lat="42.7717263" lon="10.2700372"><ele>222.0</ele><time>2026-04-04T08:25:47.769Z</time></trkpt><trkpt lat="42.7718315" lon="10.2698991"><ele>222.0</ele><time>2026-04-04T08:25:49.769Z</time></trkpt><trkpt lat="42.7718918" lon="10.2698086"><ele>222.0</ele><time>2026-04-04T08:25:50.769Z</time></trkpt><trkpt lat="42.7719494" lon="10.2696936"><ele>222.0</ele><time>2026-04-04T08:25:51.768Z</time></trkpt><trkpt lat="42.7720043" lon="10.2695854"><ele>222.0</ele><time>2026-04-04T08:25:52.769Z</time></trkpt><trkpt lat="42.7720453" lon="10.2694752"><ele>216.0</ele><time>2026-04-04T08:25:53.769Z</time></trkpt><trkpt lat="42.7720865" lon="10.2693804"><ele>210.0</ele><time>2026-04-04T08:25:54.769Z</time></trkpt><trkpt lat="42.7721066" lon="10.2692611"><ele>204.0</ele><time>2026-04-04T08:25:55.769Z</time></trkpt><trkpt lat="42.7720913" lon="10.2691683"><ele>198.0</ele><time>2026-04-04T08:25:56.768Z</time></trkpt><trkpt lat="42.77209" lon="10.2690629"><ele>192.0</ele><time>2026-04-04T08:25:57.769Z</time></trkpt><trkpt lat="42.772063" lon="10.268961"><ele>186.0</ele><time>2026-04-04T08:25:58.769Z</time></trkpt><trkpt lat="42.7720221" lon="10.2688643"><ele>184.0</ele><time>2026-04-04T08:25:59.769Z</time></trkpt><trkpt lat="42.7719687" lon="10.2687615"><ele>182.0</ele><time>2026-04-04T08:26:00.769Z</time></trkpt><trkpt lat="42.7719036" lon="10.268667"><ele>180.0</ele><time>2026-04-04T08:26:01.769Z</time></trkpt><trkpt lat="42.7718366" lon="10.2685889"><ele>178.0</ele><time>2026-04-04T08:26:02.769Z</time></trkpt><trkpt lat="42.7717623" lon="10.2685071"><ele>176.0</ele><time>2026-04-04T08:26:03.769Z</time></trkpt><trkpt lat="42.7716965" lon="10.26845"><ele>174.0</ele><time>2026-04-04T08:26:04.769Z</time></trkpt><trkpt lat="42.7716173" lon="10.2683835"><ele>176.83333333333334</ele><time>2026-04-04T08:26:05.769Z</time></trkpt><trkpt lat="42.7715566" lon="10.2683145"><ele>179.66666666666666</ele><time>2026-04-04T08:26:06.769Z</time></trkpt><trkpt lat="42.7715079" lon="10.2682211"><ele>182.5</ele><time>2026-04-04T08:26:07.769Z</time></trkpt><trkpt lat="42.7714636" lon="10.268145"><ele>185.33333333333331</ele><time>2026-04-04T08:26:08.769Z</time></trkpt><trkpt lat="42.771435" lon="10.2680682"><ele>188.16666666666666</ele><time>2026-04-04T08:26:09.769Z</time></trkpt><trkpt lat="42.7713923" lon="10.2680026"><ele>191.0</ele><time>2026-04-04T08:26:10.769Z</time></trkpt><trkpt lat="42.7713327" lon="10.2678894"><ele>191.0</ele><time>2026-04-04T08:26:12.769Z</time></trkpt><trkpt lat="42.7712662" lon="10.2677741"><ele>191.0</ele><time>2026-04-04T08:26:14.769Z</time></trkpt><trkpt lat="42.7712" lon="10.2676755"><ele>191.0</ele><time>2026-04-04T08:26:16.769Z</time></trkpt><trkpt lat="42.7711996" lon="10.2675732"><ele>191.0</ele><time>2026-04-04T08:26:18.769Z</time></trkpt><trkpt lat="42.7712087" lon="10.2674757"><ele>191.0</ele><time>2026-04-04T08:26:21.769Z</time></trkpt><trkpt lat="42.7712328" lon="10.2673769"><ele>191.0</ele><time>2026-04-04T08:26:25.769Z</time></trkpt><trkpt lat="42.7712673" lon="10.267287"><ele>191.83333333333331</ele><time>2026-04-04T08:26:30.769Z</time></trkpt><trkpt lat="42.771308" lon="10.2672027"><ele>192.66666666666666</ele><time>2026-04-04T08:26:37.769Z</time></trkpt><trkpt lat="42.7713637" lon="10.2671426"><ele>193.5</ele><time>2026-04-04T08:26:40.769Z</time></trkpt><trkpt lat="42.7714148" lon="10.267075"><ele>194.33333333333331</ele><time>2026-04-04T08:26:44.769Z</time></trkpt><trkpt lat="42.7714674" lon="10.2669388"><ele>195.16666666666666</ele><time>2026-04-04T08:26:46.769Z</time></trkpt><trkpt lat="42.7715179" lon="10.2668546"><ele>196.0</ele><time>2026-04-04T08:26:47.769Z</time></trkpt><trkpt lat="42.7715678" lon="10.266753"><ele>195.99999999999997</ele><time>2026-04-04T08:26:48.769Z</time></trkpt><trkpt lat="42.7716043" lon="10.2666557"><ele>196.0</ele><time>2026-04-04T08:26:49.769Z</time></trkpt><trkpt lat="42.7716367" lon="10.2665441"><ele>196.0</ele><time>2026-04-04T08:26:50.769Z</time></trkpt><trkpt lat="42.7716681" lon="10.2664348"><ele>196.0</ele><time>2026-04-04T08:26:51.769Z</time></trkpt><trkpt lat="42.771686" lon="10.2663211"><ele>195.99999999999997</ele><time>2026-04-04T08:26:52.769Z</time></trkpt><trkpt lat="42.7716759" lon="10.2662149"><ele>196.0</ele><time>2026-04-04T08:26:53.769Z</time></trkpt><trkpt lat="42.7716539" lon="10.2661315"><ele>194.4</ele><time>2026-04-04T08:26:54.768Z</time></trkpt><trkpt lat="42.7716021" lon="10.2660597"><ele>192.8</ele><time>2026-04-04T08:26:55.769Z</time></trkpt><trkpt lat="42.7715538" lon="10.2660002"><ele>191.20000000000002</ele><time>2026-04-04T08:26:56.769Z</time></trkpt><trkpt lat="42.7714619" lon="10.2659567"><ele>189.60000000000002</ele><time>2026-04-04T08:26:57.769Z</time></trkpt><trkpt lat="42.7713412" lon="10.2658942"><ele>188.0</ele><time>2026-04-04T08:26:58.769Z</time></trkpt><trkpt lat="42.7712532" lon="10.2658703"><ele>188.0</ele><time>2026-04-04T08:26:59.769Z</time></trkpt><trkpt lat="42.7711433" lon="10.2658271"><ele>188.0</ele><time>2026-04-04T08:27:00.769Z</time></trkpt><trkpt lat="42.7710265" lon="10.2657875"><ele>188.0</ele><time>2026-04-04T08:27:01.769Z</time></trkpt><trkpt lat="42.7709119" lon="10.2657405"><ele>188.0</ele><time>2026-04-04T08:27:02.768Z</time></trkpt><trkpt lat="42.7708304" lon="10.2657038"><ele>188.0</ele><time>2026-04-04T08:27:03.769Z</time></trkpt><trkpt lat="42.7707516" lon="10.26566"><ele>186.4</ele><time>2026-04-04T08:27:04.769Z</time></trkpt><trkpt lat="42.7706864" lon="10.2655734"><ele>184.8</ele><time>2026-04-04T08:27:05.769Z</time></trkpt><trkpt lat="42.7706437" lon="10.2654682"><ele>183.2</ele><time>2026-04-04T08:27:06.769Z</time></trkpt><trkpt lat="42.7706089" lon="10.2653625"><ele>181.6</ele><time>2026-04-04T08:27:07.769Z</time></trkpt><trkpt lat="42.7706231" lon="10.2651889"><ele>180.0</ele><time>2026-04-04T08:27:08.769Z</time></trkpt><trkpt lat="42.7706222" lon="10.2650482"><ele>180.0</ele><time>2026-04-04T08:27:09.768Z</time></trkpt><trkpt lat="42.7706086" lon="10.2648931"><ele>180.0</ele><time>2026-04-04T08:27:10.769Z</time></trkpt><trkpt lat="42.7705927" lon="10.2647618"><ele>180.0</ele><time>2026-04-04T08:27:11.769Z</time></trkpt><trkpt lat="42.770573" lon="10.2646525"><ele>180.0</ele><time>2026-04-04T08:27:12.769Z</time></trkpt><trkpt lat="42.7705344" lon="10.2645554"><ele>180.0</ele><time>2026-04-04T08:27:13.769Z</time></trkpt><trkpt lat="42.7704692" lon="10.2644716"><ele>177.2</ele><time>2026-04-04T08:27:14.769Z</time></trkpt><trkpt lat="42.7703981" lon="10.2644086"><ele>174.4</ele><time>2026-04-04T08:27:15.769Z</time></trkpt><trkpt lat="42.7703526" lon="10.2643108"><ele>171.60000000000002</ele><time>2026-04-04T08:27:16.769Z</time></trkpt><trkpt lat="42.7702943" lon="10.2642141"><ele>168.8</ele><time>2026-04-04T08:27:17.769Z</time></trkpt><trkpt lat="42.7702273" lon="10.2641098"><ele>166.0</ele><time>2026-04-04T08:27:18.769Z</time></trkpt><trkpt lat="42.7701473" lon="10.2640004"><ele>169.8</ele><time>2026-04-04T08:27:19.769Z</time></trkpt><trkpt lat="42.770082" lon="10.2638878"><ele>173.60000000000002</ele><time>2026-04-04T08:27:20.769Z</time></trkpt><trkpt lat="42.7700249" lon="10.2637694"><ele>177.4</ele><time>2026-04-04T08:27:21.769Z</time></trkpt><trkpt lat="42.7699919" lon="10.2636561"><ele>181.2</ele><time>2026-04-04T08:27:22.769Z</time></trkpt><trkpt lat="42.7699432" lon="10.2635502"><ele>185.0</ele><time>2026-04-04T08:27:23.769Z</time></trkpt><trkpt lat="42.7698954" lon="10.2634476"><ele>185.0</ele><time>2026-04-04T08:27:24.769Z</time></trkpt><trkpt lat="42.7698397" lon="10.2633556"><ele>185.0</ele><time>2026-04-04T08:27:25.768Z</time></trkpt><trkpt lat="42.7698005" lon="10.263267"><ele>185.0</ele><time>2026-04-04T08:27:26.768Z</time></trkpt><trkpt lat="42.7697766" lon="10.263155"><ele>185.0</ele><time>2026-04-04T08:27:27.769Z</time></trkpt><trkpt lat="42.769767" lon="10.263027"><ele>185.0</ele><time>2026-04-04T08:27:28.769Z</time></trkpt><trkpt lat="42.7697745" lon="10.2629005"><ele>185.0</ele><time>2026-04-04T08:27:29.769Z</time></trkpt><trkpt lat="42.769816" lon="10.2627888"><ele>186.0</ele><time>2026-04-04T08:27:30.769Z</time></trkpt><trkpt lat="42.7698784" lon="10.2626875"><ele>187.0</ele><time>2026-04-04T08:27:31.769Z</time></trkpt><trkpt lat="42.7699516" lon="10.2625686"><ele>188.0</ele><time>2026-04-04T08:27:32.769Z</time></trkpt><trkpt lat="42.7700368" lon="10.2624494"><ele>189.0</ele><time>2026-04-04T08:27:33.769Z</time></trkpt><trkpt lat="42.7701068" lon="10.2623273"><ele>190.0</ele><time>2026-04-04T08:27:34.769Z</time></trkpt><trkpt lat="42.7701919" lon="10.2622193"><ele>183.4</ele><time>2026-04-04T08:27:35.769Z</time></trkpt><trkpt lat="42.7702857" lon="10.2621213"><ele>176.8</ele><time>2026-04-04T08:27:36.769Z</time></trkpt><trkpt lat="42.7703645" lon="10.262022"><ele>170.2</ele><time>2026-04-04T08:27:37.769Z</time></trkpt><trkpt lat="42.7704223" lon="10.261932"><ele>163.6</ele><time>2026-04-04T08:27:38.769Z</time></trkpt><trkpt lat="42.7704622" lon="10.2618373"><ele>157.0</ele><time>2026-04-04T08:27:39.769Z</time></trkpt><trkpt lat="42.7704569" lon="10.2616894"><ele>157.0</ele><time>2026-04-04T08:27:40.769Z</time></trkpt><trkpt lat="42.7704505" lon="10.261524"><ele>157.0</ele><time>2026-04-04T08:27:41.769Z</time></trkpt><trkpt lat="42.7704602" lon="10.2613894"><ele>157.0</ele><time>2026-04-04T08:27:42.769Z</time></trkpt><trkpt lat="42.7704776" lon="10.2612793"><ele>157.0</ele><time>2026-04-04T08:27:43.769Z</time></trkpt><trkpt lat="42.7704795" lon="10.2611703"><ele>157.0</ele><time>2026-04-04T08:27:44.769Z</time></trkpt><trkpt lat="42.7704636" lon="10.261062"><ele>156.79999999999998</ele><time>2026-04-04T08:27:45.769Z</time></trkpt><trkpt lat="42.7704432" lon="10.2609549"><ele>156.6</ele><time>2026-04-04T08:27:46.768Z</time></trkpt><trkpt lat="42.770403" lon="10.2608524"><ele>156.39999999999998</ele><time>2026-04-04T08:27:47.769Z</time></trkpt><trkpt lat="42.7703177" lon="10.2607401"><ele>156.2</ele><time>2026-04-04T08:27:48.769Z</time></trkpt><trkpt lat="42.7702317" lon="10.260621"><ele>156.0</ele><time>2026-04-04T08:27:49.769Z</time></trkpt><trkpt lat="42.77015" lon="10.2605171"><ele>157.75</ele><time>2026-04-04T08:27:50.769Z</time></trkpt><trkpt lat="42.7700305" lon="10.2604209"><ele>159.5</ele><time>2026-04-04T08:27:51.769Z</time></trkpt><trkpt lat="42.7699232" lon="10.2603162"><ele>161.25</ele><time>2026-04-04T08:27:52.769Z</time></trkpt><trkpt lat="42.7698363" lon="10.2601839"><ele>163.0</ele><time>2026-04-04T08:27:53.768Z</time></trkpt><trkpt lat="42.769754" lon="10.2600711"><ele>163.0</ele><time>2026-04-04T08:27:54.769Z</time></trkpt><trkpt lat="42.7696729" lon="10.2599724"><ele>163.0</ele><time>2026-04-04T08:27:55.769Z</time></trkpt><trkpt lat="42.7695648" lon="10.2598878"><ele>163.0</ele><time>2026-04-04T08:27:56.769Z</time></trkpt><trkpt lat="42.7694253" lon="10.2598037"><ele>163.0</ele><time>2026-04-04T08:27:57.767Z</time></trkpt><trkpt lat="42.7693049" lon="10.259727"><ele>163.5</ele><time>2026-04-04T08:27:58.768Z</time></trkpt><trkpt lat="42.7692074" lon="10.2596559"><ele>164.0</ele><time>2026-04-04T08:27:59.769Z</time></trkpt><trkpt lat="42.7691173" lon="10.2595635"><ele>164.5</ele><time>2026-04-04T08:28:00.769Z</time></trkpt><trkpt lat="42.7690336" lon="10.2594243"><ele>165.0</ele><time>2026-04-04T08:28:01.768Z</time></trkpt><trkpt lat="42.7689634" lon="10.2592877"><ele>165.0</ele><time>2026-04-04T08:28:02.769Z</time></trkpt><trkpt lat="42.7689033" lon="10.2591532"><ele>165.0</ele><time>2026-04-04T08:28:03.769Z</time></trkpt><trkpt lat="42.7688444" lon="10.2590196"><ele>165.0</ele><time>2026-04-04T08:28:04.769Z</time></trkpt><trkpt lat="42.7687929" lon="10.2588961"><ele>165.0</ele><time>2026-04-04T08:28:05.769Z</time></trkpt><trkpt lat="42.7688004" lon="10.2587915"><ele>165.0</ele><time>2026-04-04T08:28:06.768Z</time></trkpt><trkpt lat="42.7687697" lon="10.2586814"><ele>163.16666666666666</ele><time>2026-04-04T08:28:07.769Z</time></trkpt><trkpt lat="42.7687432" lon="10.2585751"><ele>161.33333333333334</ele><time>2026-04-04T08:28:08.769Z</time></trkpt><trkpt lat="42.768731" lon="10.2584778"><ele>159.5</ele><time>2026-04-04T08:28:09.769Z</time></trkpt><trkpt lat="42.7687062" lon="10.2583961"><ele>157.66666666666669</ele><time>2026-04-04T08:28:10.769Z</time></trkpt><trkpt lat="42.7686621" lon="10.2582709"><ele>155.83333333333334</ele><time>2026-04-04T08:28:12.768Z</time></trkpt><trkpt lat="42.7686204" lon="10.2581726"><ele>154.0</ele><time>2026-04-04T08:28:14.768Z</time></trkpt><trkpt lat="42.7685639" lon="10.2580774"><ele>155.6</ele><time>2026-04-04T08:28:17.768Z</time></trkpt><trkpt lat="42.7685221" lon="10.2579894"><ele>157.2</ele><time>2026-04-04T08:28:20.769Z</time></trkpt><trkpt lat="42.7684702" lon="10.2579046"><ele>158.79999999999998</ele><time>2026-04-04T08:28:23.769Z</time></trkpt><trkpt lat="42.7684146" lon="10.2578022"><ele>160.4</ele><time>2026-04-04T08:28:29.769Z</time></trkpt><trkpt lat="42.7683508" lon="10.2576459"><ele>162.0</ele><time>2026-04-04T08:28:31.769Z</time></trkpt><trkpt lat="42.7683181" lon="10.25755"><ele>162.0</ele><time>2026-04-04T08:28:32.769Z</time></trkpt><trkpt lat="42.768278" lon="10.2574493"><ele>162.0</ele><time>2026-04-04T08:28:33.769Z</time></trkpt><trkpt lat="42.7682246" lon="10.2573506"><ele>162.0</ele><time>2026-04-04T08:28:34.768Z</time></trkpt><trkpt lat="42.7681457" lon="10.2572532"><ele>162.0</ele><time>2026-04-04T08:28:35.769Z</time></trkpt><trkpt lat="42.7680647" lon="10.2571552"><ele>162.0</ele><time>2026-04-04T08:28:36.769Z</time></trkpt><trkpt lat="42.7679909" lon="10.2570839"><ele>159.33333333333334</ele><time>2026-04-04T08:28:37.769Z</time></trkpt><trkpt lat="42.7679182" lon="10.2570329"><ele>156.66666666666666</ele><time>2026-04-04T08:28:38.769Z</time></trkpt><trkpt lat="42.7678474" lon="10.2569995"><ele>154.0</ele><time>2026-04-04T08:28:39.769Z</time></trkpt><trkpt lat="42.767774" lon="10.2569922"><ele>151.33333333333331</ele><time>2026-04-04T08:28:40.769Z</time></trkpt><trkpt lat="42.7677077" lon="10.2569838"><ele>148.66666666666666</ele><time>2026-04-04T08:28:41.769Z</time></trkpt><trkpt lat="42.7676136" lon="10.2569462"><ele>146.0</ele><time>2026-04-04T08:28:43.769Z</time></trkpt><trkpt lat="42.7675875" lon="10.2568407"><ele>146.0</ele><time>2026-04-04T08:28:45.769Z</time></trkpt><trkpt lat="42.7676389" lon="10.2567691"><ele>146.0</ele><time>2026-04-04T08:28:47.768Z</time></trkpt><trkpt lat="42.7677017" lon="10.2567765"><ele>146.0</ele><time>2026-04-04T08:28:48.769Z</time></trkpt><trkpt lat="42.7678021" lon="10.2568106"><ele>146.0</ele><time>2026-04-04T08:28:49.769Z</time></trkpt><trkpt lat="42.7679026" lon="10.2568599"><ele>146.0</ele><time>2026-04-04T08:28:50.769Z</time></trkpt><trkpt lat="42.7680091" lon="10.2568776"><ele>144.4</ele><time>2026-04-04T08:28:51.769Z</time></trkpt><trkpt lat="42.7681108" lon="10.2568956"><ele>142.8</ele><time>2026-04-04T08:28:52.769Z</time></trkpt><trkpt lat="42.7682052" lon="10.256919"><ele>141.20000000000002</ele><time>2026-04-04T08:28:53.769Z</time></trkpt><trkpt lat="42.7683054" lon="10.2569783"><ele>139.6</ele><time>2026-04-04T08:28:54.768Z</time></trkpt><trkpt lat="42.7683883" lon="10.257058"><ele>138.0</ele><time>2026-04-04T08:28:55.769Z</time></trkpt><trkpt lat="42.7684699" lon="10.2571434"><ele>138.75</ele><time>2026-04-04T08:28:56.769Z</time></trkpt><trkpt lat="42.7685612" lon="10.2572192"><ele>139.5</ele><time>2026-04-04T08:28:57.769Z</time></trkpt><trkpt lat="42.76866" lon="10.2572951"><ele>140.25</ele><time>2026-04-04T08:28:58.769Z</time></trkpt><trkpt lat="42.7687707" lon="10.2573719"><ele>141.0</ele><time>2026-04-04T08:28:59.769Z</time></trkpt><trkpt lat="42.7688742" lon="10.2574429"><ele>141.0</ele><time>2026-04-04T08:29:00.769Z</time></trkpt><trkpt lat="42.7689599" lon="10.2575169"><ele>141.0</ele><time>2026-04-04T08:29:01.769Z</time></trkpt><trkpt lat="42.7690162" lon="10.2575841"><ele>141.0</ele><time>2026-04-04T08:29:02.769Z</time></trkpt><trkpt lat="42.7690606" lon="10.2576451"><ele>141.0</ele><time>2026-04-04T08:29:03.768Z</time></trkpt><trkpt lat="42.7691381" lon="10.2577323"><ele>141.0</ele><time>2026-04-04T08:29:05.768Z</time></trkpt><trkpt lat="42.769227" lon="10.2577168"><ele>141.0</ele><time>2026-04-04T08:29:08.769Z</time></trkpt><trkpt lat="42.7692538" lon="10.257621"><ele>141.0</ele><time>2026-04-04T08:29:11.769Z</time></trkpt><trkpt lat="42.7691974" lon="10.2575315"><ele>141.0</ele><time>2026-04-04T08:29:15.769Z</time></trkpt><trkpt lat="42.7691211" lon="10.2574682"><ele>141.0</ele><time>2026-04-04T08:29:18.769Z</time></trkpt><trkpt lat="42.7690737" lon="10.2574005"><ele>141.0</ele><time>2026-04-04T08:29:20.769Z</time></trkpt><trkpt lat="42.7690212" lon="10.257319"><ele>141.0</ele><time>2026-04-04T08:29:22.769Z</time></trkpt><trkpt lat="42.7689604" lon="10.257238"><ele>141.0</ele><time>2026-04-04T08:29:24.768Z</time></trkpt><trkpt lat="42.7688719" lon="10.2571385"><ele>137.4</ele><time>2026-04-04T08:29:26.769Z</time></trkpt><trkpt lat="42.7688292" lon="10.2570577"><ele>133.8</ele><time>2026-04-04T08:29:27.769Z</time></trkpt><trkpt lat="42.7687652" lon="10.2569444"><ele>130.20000000000002</ele><time>2026-04-04T08:29:28.769Z</time></trkpt><trkpt lat="42.7686885" lon="10.2568325"><ele>126.60000000000001</ele><time>2026-04-04T08:29:29.769Z</time></trkpt><trkpt lat="42.7686242" lon="10.2567369"><ele>123.0</ele><time>2026-04-04T08:29:30.769Z</time></trkpt><trkpt lat="42.7685547" lon="10.2566602"><ele>121.0</ele><time>2026-04-04T08:29:31.769Z</time></trkpt><trkpt lat="42.7684732" lon="10.2565947"><ele>119.00000000000001</ele><time>2026-04-04T08:29:32.769Z</time></trkpt><trkpt lat="42.76837" lon="10.256537"><ele>117.00000000000001</ele><time>2026-04-04T08:29:33.769Z</time></trkpt><trkpt lat="42.768269" lon="10.2564872"><ele>115.0</ele><time>2026-04-04T08:29:34.769Z</time></trkpt><trkpt lat="42.768172" lon="10.2564378"><ele>113.0</ele><time>2026-04-04T08:29:35.769Z</time></trkpt><trkpt lat="42.7680683" lon="10.256376"><ele>113.0</ele><time>2026-04-04T08:29:36.769Z</time></trkpt><trkpt lat="42.767962" lon="10.2562956"><ele>113.00000000000001</ele><time>2026-04-04T08:29:37.769Z</time></trkpt><trkpt lat="42.7678627" lon="10.2562129"><ele>113.00000000000001</ele><time>2026-04-04T08:29:38.769Z</time></trkpt><trkpt lat="42.767802" lon="10.2561349"><ele>113.0</ele><time>2026-04-04T08:29:39.768Z</time></trkpt><trkpt lat="42.7677324" lon="10.2560617"><ele>113.0</ele><time>2026-04-04T08:29:40.768Z</time></trkpt><trkpt lat="42.7676844" lon="10.255971"><ele>112.49999999999999</ele><time>2026-04-04T08:29:41.769Z</time></trkpt><trkpt lat="42.7676468" lon="10.2558499"><ele>112.0</ele><time>2026-04-04T08:29:42.769Z</time></trkpt><trkpt lat="42.7676126" lon="10.2557324"><ele>111.5</ele><time>2026-04-04T08:29:43.769Z</time></trkpt><trkpt lat="42.7675721" lon="10.2556332"><ele>111.0</ele><time>2026-04-04T08:29:44.769Z</time></trkpt><trkpt lat="42.7675143" lon="10.2555592"><ele>110.49999999999999</ele><time>2026-04-04T08:29:45.769Z</time></trkpt><trkpt lat="42.7674361" lon="10.2554901"><ele>110.0</ele><time>2026-04-04T08:29:46.769Z</time></trkpt><trkpt lat="42.7673397" lon="10.25544"><ele>110.0</ele><time>2026-04-04T08:29:47.769Z</time></trkpt><trkpt lat="42.7672381" lon="10.2553956"><ele>110.0</ele><time>2026-04-04T08:29:48.769Z</time></trkpt><trkpt lat="42.7671291" lon="10.2553635"><ele>110.0</ele><time>2026-04-04T08:29:49.769Z</time></trkpt><trkpt lat="42.7670234" lon="10.2553472"><ele>110.0</ele><time>2026-04-04T08:29:50.769Z</time></trkpt><trkpt lat="42.7669571" lon="10.2553609"><ele>110.0</ele><time>2026-04-04T08:29:51.769Z</time></trkpt><trkpt lat="42.766886" lon="10.2553125"><ele>109.99999999999999</ele><time>2026-04-04T08:29:53.769Z</time></trkpt><trkpt lat="42.7669028" lon="10.2551827"><ele>110.0</ele><time>2026-04-04T08:29:55.769Z</time></trkpt><trkpt lat="42.7669337" lon="10.255091"><ele>110.0</ele><time>2026-04-04T08:29:57.769Z</time></trkpt><trkpt lat="42.7670063" lon="10.2550628"><ele>110.0</ele><time>2026-04-04T08:30:40.768Z</time></trkpt><trkpt lat="42.7670725" lon="10.2551068"><ele>109.99999999999999</ele><time>2026-04-04T08:30:41.769Z</time></trkpt><trkpt lat="42.7671393" lon="10.2551639"><ele>110.0</ele><time>2026-04-04T08:30:42.769Z</time></trkpt><trkpt lat="42.7672258" lon="10.2552214"><ele>110.0</ele><time>2026-04-04T08:30:43.769Z</time></trkpt><trkpt lat="42.7673243" lon="10.2552615"><ele>110.0</ele><time>2026-04-04T08:30:44.768Z</time></trkpt><trkpt lat="42.7674272" lon="10.2552878"><ele>110.0</ele><time>2026-04-04T08:30:45.769Z</time></trkpt><trkpt lat="42.7675183" lon="10.255305"><ele>110.0</ele><time>2026-04-04T08:30:46.769Z</time></trkpt><trkpt lat="42.7676088" lon="10.2553308"><ele>110.0</ele><time>2026-04-04T08:30:47.769Z</time></trkpt><trkpt lat="42.7677082" lon="10.255383"><ele>110.6</ele><time>2026-04-04T08:30:48.769Z</time></trkpt><trkpt lat="42.7678009" lon="10.2554569"><ele>111.2</ele><time>2026-04-04T08:30:49.769Z</time></trkpt><trkpt lat="42.7678886" lon="10.2555543"><ele>111.80000000000001</ele><time>2026-04-04T08:30:50.769Z</time></trkpt><trkpt lat="42.7679675" lon="10.2556529"><ele>112.4</ele><time>2026-04-04T08:30:51.768Z</time></trkpt><trkpt lat="42.7680541" lon="10.2557368"><ele>113.0</ele><time>2026-04-04T08:30:52.769Z</time></trkpt><trkpt lat="42.768149" lon="10.2558064"><ele>113.0</ele><time>2026-04-04T08:30:53.768Z</time></trkpt><trkpt lat="42.7682547" lon="10.2558502"><ele>113.00000000000001</ele><time>2026-04-04T08:30:54.769Z</time></trkpt><trkpt lat="42.76836" lon="10.2558748"><ele>113.00000000000001</ele><time>2026-04-04T08:30:55.769Z</time></trkpt><trkpt lat="42.768458" lon="10.2558927"><ele>113.0</ele><time>2026-04-04T08:30:56.768Z</time></trkpt><trkpt lat="42.76855" lon="10.2559108"><ele>113.0</ele><time>2026-04-04T08:30:57.769Z</time></trkpt><trkpt lat="42.7686549" lon="10.2559075"><ele>111.60000000000001</ele><time>2026-04-04T08:30:58.769Z</time></trkpt><trkpt lat="42.7687528" lon="10.2558787"><ele>110.20000000000002</ele><time>2026-04-04T08:30:59.769Z</time></trkpt><trkpt lat="42.7688571" lon="10.2558343"><ele>108.8</ele><time>2026-04-04T08:31:00.769Z</time></trkpt><trkpt lat="42.7689575" lon="10.2557927"><ele>107.4</ele><time>2026-04-04T08:31:01.769Z</time></trkpt><trkpt lat="42.7690684" lon="10.2557524"><ele>106.0</ele><time>2026-04-04T08:31:02.769Z</time></trkpt><trkpt lat="42.7691699" lon="10.2557225"><ele>106.0</ele><time>2026-04-04T08:31:03.769Z</time></trkpt><trkpt lat="42.7692758" lon="10.255693"><ele>106.0</ele><time>2026-04-04T08:31:04.769Z</time></trkpt><trkpt lat="42.7693855" lon="10.2556907"><ele>106.0</ele><time>2026-04-04T08:31:05.769Z</time></trkpt><trkpt lat="42.7694709" lon="10.2555533"><ele>106.0</ele><time>2026-04-04T08:31:07.769Z</time></trkpt><trkpt lat="42.7694987" lon="10.2554321"><ele>106.0</ele><time>2026-04-04T08:31:08.769Z</time></trkpt><trkpt lat="42.7695193" lon="10.2552849"><ele>105.25</ele><time>2026-04-04T08:31:09.769Z</time></trkpt><trkpt lat="42.7695309" lon="10.2551387"><ele>104.5</ele><time>2026-04-04T08:31:10.769Z</time></trkpt><trkpt lat="42.7695646" lon="10.2549996"><ele>103.75</ele><time>2026-04-04T08:31:11.769Z</time></trkpt><trkpt lat="42.7696386" lon="10.2548791"><ele>103.0</ele><time>2026-04-04T08:31:12.768Z</time></trkpt><trkpt lat="42.7697313" lon="10.2547365"><ele>100.75</ele><time>2026-04-04T08:31:13.769Z</time></trkpt><trkpt lat="42.7698254" lon="10.2546089"><ele>98.5</ele><time>2026-04-04T08:31:14.769Z</time></trkpt><trkpt lat="42.7699289" lon="10.2544859"><ele>96.25</ele><time>2026-04-04T08:31:15.768Z</time></trkpt><trkpt lat="42.7700416" lon="10.2543745"><ele>94.0</ele><time>2026-04-04T08:31:16.769Z</time></trkpt><trkpt lat="42.7701746" lon="10.2542756"><ele>95.0</ele><time>2026-04-04T08:31:17.769Z</time></trkpt><trkpt lat="42.770302" lon="10.2541751"><ele>96.0</ele><time>2026-04-04T08:31:18.769Z</time></trkpt><trkpt lat="42.7704208" lon="10.2540799"><ele>97.0</ele><time>2026-04-04T08:31:19.768Z</time></trkpt><trkpt lat="42.7705308" lon="10.2539805"><ele>98.0</ele><time>2026-04-04T08:31:20.769Z</time></trkpt><trkpt lat="42.7706283" lon="10.2538724"><ele>98.0</ele><time>2026-04-04T08:31:21.769Z</time></trkpt><trkpt lat="42.7707177" lon="10.2537626"><ele>98.0</ele><time>2026-04-04T08:31:22.769Z</time></trkpt><trkpt lat="42.7707949" lon="10.2536517"><ele>98.0</ele><time>2026-04-04T08:31:23.769Z</time></trkpt><trkpt lat="42.7708552" lon="10.2535297"><ele>98.0</ele><time>2026-04-04T08:31:24.769Z</time></trkpt><trkpt lat="42.7709029" lon="10.2533896"><ele>98.0</ele><time>2026-04-04T08:31:25.769Z</time></trkpt><trkpt lat="42.7709454" lon="10.2532392"><ele>98.0</ele><time>2026-04-04T08:31:26.769Z</time></trkpt><trkpt lat="42.7709765" lon="10.2530833"><ele>98.0</ele><time>2026-04-04T08:31:27.769Z</time></trkpt><trkpt lat="42.7710049" lon="10.2529455"><ele>98.0</ele><time>2026-04-04T08:31:28.769Z</time></trkpt><trkpt lat="42.7710434" lon="10.2528097"><ele>98.0</ele><time>2026-04-04T08:31:29.769Z</time></trkpt><trkpt lat="42.7711007" lon="10.2526818"><ele>98.80000000000001</ele><time>2026-04-04T08:31:30.768Z</time></trkpt><trkpt lat="42.7711562" lon="10.2525578"><ele>99.6</ele><time>2026-04-04T08:31:31.768Z</time></trkpt><trkpt lat="42.7712002" lon="10.2524395"><ele>100.4</ele><time>2026-04-04T08:31:32.768Z</time></trkpt><trkpt lat="42.7712515" lon="10.2523267"><ele>101.19999999999999</ele><time>2026-04-04T08:31:33.769Z</time></trkpt><trkpt lat="42.7713045" lon="10.2522441"><ele>102.0</ele><time>2026-04-04T08:31:34.769Z</time></trkpt><trkpt lat="42.7713605" lon="10.2521853"><ele>100.0</ele><time>2026-04-04T08:31:35.769Z</time></trkpt><trkpt lat="42.7714097" lon="10.2521274"><ele>98.0</ele><time>2026-04-04T08:31:36.769Z</time></trkpt><trkpt lat="42.7714532" lon="10.2520536"><ele>96.0</ele><time>2026-04-04T08:31:37.769Z</time></trkpt><trkpt lat="42.7714791" lon="10.2519514"><ele>94.0</ele><time>2026-04-04T08:31:38.769Z</time></trkpt><trkpt lat="42.7714935" lon="10.2518431"><ele>92.0</ele><time>2026-04-04T08:31:39.769Z</time></trkpt><trkpt lat="42.7714911" lon="10.2517362"><ele>90.0</ele><time>2026-04-04T08:31:40.769Z</time></trkpt><trkpt lat="42.7714691" lon="10.2516296"><ele>90.0</ele><time>2026-04-04T08:31:41.769Z</time></trkpt><trkpt lat="42.7714426" lon="10.2515127"><ele>90.0</ele><time>2026-04-04T08:31:42.769Z</time></trkpt><trkpt lat="42.7714019" lon="10.2513912"><ele>90.0</ele><time>2026-04-04T08:31:43.769Z</time></trkpt><trkpt lat="42.77137" lon="10.2512474"><ele>90.0</ele><time>2026-04-04T08:31:44.769Z</time></trkpt><trkpt lat="42.7713433" lon="10.2511081"><ele>90.0</ele><time>2026-04-04T08:31:45.768Z</time></trkpt><trkpt lat="42.7713246" lon="10.2509819"><ele>88.83333333333333</ele><time>2026-04-04T08:31:46.769Z</time></trkpt><trkpt lat="42.7713273" lon="10.2508738"><ele>87.66666666666667</ele><time>2026-04-04T08:31:47.769Z</time></trkpt><trkpt lat="42.7713341" lon="10.25077"><ele>86.5</ele><time>2026-04-04T08:31:48.769Z</time></trkpt><trkpt lat="42.7713448" lon="10.2506581"><ele>85.33333333333334</ele><time>2026-04-04T08:31:49.769Z</time></trkpt><trkpt lat="42.771376" lon="10.2505417"><ele>84.16666666666667</ele><time>2026-04-04T08:31:50.769Z</time></trkpt><trkpt lat="42.7714211" lon="10.2504365"><ele>83.0</ele><time>2026-04-04T08:31:51.769Z</time></trkpt><trkpt lat="42.7714613" lon="10.2503393"><ele>81.42857142857143</ele><time>2026-04-04T08:31:52.769Z</time></trkpt><trkpt lat="42.7714968" lon="10.2502254"><ele>79.85714285714286</ele><time>2026-04-04T08:31:53.769Z</time></trkpt><trkpt lat="42.7715222" lon="10.2501284"><ele>78.28571428571429</ele><time>2026-04-04T08:31:54.769Z</time></trkpt><trkpt lat="42.7715205" lon="10.2500286"><ele>76.71428571428572</ele><time>2026-04-04T08:31:55.768Z</time></trkpt><trkpt lat="42.7715021" lon="10.2499426"><ele>75.14285714285714</ele><time>2026-04-04T08:31:56.769Z</time></trkpt><trkpt lat="42.7714697" lon="10.2498606"><ele>73.57142857142858</ele><time>2026-04-04T08:31:57.769Z</time></trkpt><trkpt lat="42.7714303" lon="10.2497933"><ele>72.0</ele><time>2026-04-04T08:31:58.769Z</time></trkpt><trkpt lat="42.7712975" lon="10.2497891"><ele>72.0</ele><time>2026-04-04T08:32:00.769Z</time></trkpt><trkpt lat="42.7712138" lon="10.2498416"><ele>72.0</ele><time>2026-04-04T08:32:01.768Z</time></trkpt><trkpt lat="42.7711352" lon="10.2499003"><ele>72.0</ele><time>2026-04-04T08:32:02.769Z</time></trkpt><trkpt lat="42.7710654" lon="10.2499545"><ele>72.0</ele><time>2026-04-04T08:32:03.769Z</time></trkpt><trkpt lat="42.7710087" lon="10.250038"><ele>72.0</ele><time>2026-04-04T08:32:04.769Z</time></trkpt><trkpt lat="42.7709611" lon="10.2501338"><ele>72.0</ele><time>2026-04-04T08:32:05.769Z</time></trkpt><trkpt lat="42.7709279" lon="10.2502414"><ele>72.0</ele><time>2026-04-04T08:32:06.769Z</time></trkpt><trkpt lat="42.7709086" lon="10.2503605"><ele>72.0</ele><time>2026-04-04T08:32:07.769Z</time></trkpt><trkpt lat="42.7709053" lon="10.2504807"><ele>72.0</ele><time>2026-04-04T08:32:08.768Z</time></trkpt><trkpt lat="42.770908" lon="10.2505812"><ele>72.0</ele><time>2026-04-04T08:32:09.769Z</time></trkpt><trkpt lat="42.7709231" lon="10.250677"><ele>72.0</ele><time>2026-04-04T08:32:10.768Z</time></trkpt><trkpt lat="42.7709384" lon="10.250766"><ele>72.0</ele><time>2026-04-04T08:32:11.769Z</time></trkpt><trkpt lat="42.7709148" lon="10.250872"><ele>72.0</ele><time>2026-04-04T08:32:13.769Z</time></trkpt><trkpt lat="42.7708998" lon="10.25097"><ele>72.0</ele><time>2026-04-04T08:32:16.769Z</time></trkpt><trkpt lat="42.7708238" lon="10.2509091"><ele>72.0</ele><time>2026-04-04T08:32:35.769Z</time></trkpt><trkpt lat="42.7707686" lon="10.250754"><ele>72.0</ele><time>2026-04-04T08:32:37.769Z</time></trkpt><trkpt lat="42.770746" lon="10.2506444"><ele>72.0</ele><time>2026-04-04T08:32:38.769Z</time></trkpt><trkpt lat="42.7707262" lon="10.2505238"><ele>70.16666666666667</ele><time>2026-04-04T08:32:39.769Z</time></trkpt><trkpt lat="42.7707127" lon="10.2504156"><ele>68.33333333333333</ele><time>2026-04-04T08:32:40.769Z</time></trkpt><trkpt lat="42.7707009" lon="10.2502991"><ele>66.5</ele><time>2026-04-04T08:32:41.769Z</time></trkpt><trkpt lat="42.7706891" lon="10.2501772"><ele>64.66666666666666</ele><time>2026-04-04T08:32:42.768Z</time></trkpt><trkpt lat="42.7706971" lon="10.2500691"><ele>62.83333333333333</ele><time>2026-04-04T08:32:43.769Z</time></trkpt><trkpt lat="42.7707212" lon="10.2499765"><ele>61.0</ele><time>2026-04-04T08:32:44.769Z</time></trkpt><trkpt lat="42.7707585" lon="10.2498702"><ele>60.599999999999994</ele><time>2026-04-04T08:32:45.769Z</time></trkpt><trkpt lat="42.770812" lon="10.2497559"><ele>60.199999999999996</ele><time>2026-04-04T08:32:46.769Z</time></trkpt><trkpt lat="42.7708724" lon="10.2496425"><ele>59.800000000000004</ele><time>2026-04-04T08:32:47.768Z</time></trkpt><trkpt lat="42.7709432" lon="10.2495554"><ele>59.400000000000006</ele><time>2026-04-04T08:32:48.769Z</time></trkpt><trkpt lat="42.7710086" lon="10.2494665"><ele>59.0</ele><time>2026-04-04T08:32:49.768Z</time></trkpt><trkpt lat="42.7710565" lon="10.2493752"><ele>59.00000000000001</ele><time>2026-04-04T08:32:50.769Z</time></trkpt><trkpt lat="42.7711108" lon="10.2492845"><ele>59.0</ele><time>2026-04-04T08:32:51.769Z</time></trkpt><trkpt lat="42.77117" lon="10.2491936"><ele>59.0</ele><time>2026-04-04T08:32:52.769Z</time></trkpt><trkpt lat="42.771228" lon="10.2490988"><ele>59.0</ele><time>2026-04-04T08:32:53.769Z</time></trkpt><trkpt lat="42.7712898" lon="10.2490142"><ele>59.00000000000001</ele><time>2026-04-04T08:32:54.768Z</time></trkpt><trkpt lat="42.7713486" lon="10.248945"><ele>59.0</ele><time>2026-04-04T08:32:55.768Z</time></trkpt><trkpt lat="42.7714064" lon="10.2488802"><ele>56.800000000000004</ele><time>2026-04-04T08:32:56.769Z</time></trkpt><trkpt lat="42.7714597" lon="10.2488222"><ele>54.60000000000001</ele><time>2026-04-04T08:32:57.769Z</time></trkpt><trkpt lat="42.7715252" lon="10.2487615"><ele>52.4</ele><time>2026-04-04T08:32:58.768Z</time></trkpt><trkpt lat="42.7715999" lon="10.2486791"><ele>50.2</ele><time>2026-04-04T08:32:59.768Z</time></trkpt><trkpt lat="42.7716708" lon="10.2485634"><ele>48.0</ele><time>2026-04-04T08:33:00.769Z</time></trkpt><trkpt lat="42.7717345" lon="10.2484396"><ele>48.0</ele><time>2026-04-04T08:33:01.769Z</time></trkpt><trkpt lat="42.7718014" lon="10.248314"><ele>48.0</ele><time>2026-04-04T08:33:02.768Z</time></trkpt><trkpt lat="42.7718621" lon="10.2481972"><ele>48.0</ele><time>2026-04-04T08:33:03.769Z</time></trkpt><trkpt lat="42.7719155" lon="10.2480827"><ele>48.0</ele><time>2026-04-04T08:33:04.769Z</time></trkpt><trkpt lat="42.7719746" lon="10.2479696"><ele>48.0</ele><time>2026-04-04T08:33:05.769Z</time></trkpt><trkpt lat="42.7720339" lon="10.2478477"><ele>47.4</ele><time>2026-04-04T08:33:06.768Z</time></trkpt><trkpt lat="42.7721031" lon="10.2477477"><ele>46.8</ele><time>2026-04-04T08:33:07.769Z</time></trkpt><trkpt lat="42.772173" lon="10.2476513"><ele>46.2</ele><time>2026-04-04T08:33:08.769Z</time></trkpt><trkpt lat="42.7722337" lon="10.2475699"><ele>45.6</ele><time>2026-04-04T08:33:09.769Z</time></trkpt><trkpt lat="42.7723071" lon="10.2474974"><ele>45.0</ele><time>2026-04-04T08:33:10.769Z</time></trkpt><trkpt lat="42.7723835" lon="10.2474177"><ele>45.0</ele><time>2026-04-04T08:33:11.769Z</time></trkpt><trkpt lat="42.7724579" lon="10.2473517"><ele>45.0</ele><time>2026-04-04T08:33:12.769Z</time></trkpt><trkpt lat="42.772533" lon="10.247295"><ele>45.0</ele><time>2026-04-04T08:33:13.769Z</time></trkpt><trkpt lat="42.7726177" lon="10.2472415"><ele>45.0</ele><time>2026-04-04T08:33:14.769Z</time></trkpt><trkpt lat="42.7727066" lon="10.2471917"><ele>45.0</ele><time>2026-04-04T08:33:15.769Z</time></trkpt><trkpt lat="42.7728086" lon="10.2471772"><ele>43.5</ele><time>2026-04-04T08:33:16.768Z</time></trkpt><trkpt lat="42.7729042" lon="10.2471737"><ele>42.0</ele><time>2026-04-04T08:33:17.769Z</time></trkpt><trkpt lat="42.772995" lon="10.2471797"><ele>40.5</ele><time>2026-04-04T08:33:18.769Z</time></trkpt><trkpt lat="42.7730794" lon="10.2471843"><ele>39.0</ele><time>2026-04-04T08:33:19.769Z</time></trkpt><trkpt lat="42.773165" lon="10.2472181"><ele>37.5</ele><time>2026-04-04T08:33:20.769Z</time></trkpt><trkpt lat="42.7732349" lon="10.2472644"><ele>36.0</ele><time>2026-04-04T08:33:21.769Z</time></trkpt><trkpt lat="42.7733007" lon="10.2473183"><ele>36.00000000000001</ele><time>2026-04-04T08:33:22.769Z</time></trkpt><trkpt lat="42.773358" lon="10.2473815"><ele>36.0</ele><time>2026-04-04T08:33:23.769Z</time></trkpt><trkpt lat="42.7733924" lon="10.2474616"><ele>36.0</ele><time>2026-04-04T08:33:24.768Z</time></trkpt><trkpt lat="42.7734231" lon="10.2475581"><ele>36.0</ele><time>2026-04-04T08:33:25.768Z</time></trkpt><trkpt lat="42.7734541" lon="10.2476558"><ele>36.0</ele><time>2026-04-04T08:33:26.769Z</time></trkpt><trkpt lat="42.7734846" lon="10.2477439"><ele>36.00000000000001</ele><time>2026-04-04T08:33:27.769Z</time></trkpt><trkpt lat="42.7735169" lon="10.2478393"><ele>36.0</ele><time>2026-04-04T08:33:28.769Z</time></trkpt><trkpt lat="42.7735469" lon="10.2479171"><ele>34.4</ele><time>2026-04-04T08:33:29.769Z</time></trkpt><trkpt lat="42.7735993" lon="10.2479711"><ele>32.8</ele><time>2026-04-04T08:33:30.769Z</time></trkpt><trkpt lat="42.7737129" lon="10.2480213"><ele>31.199999999999996</ele><time>2026-04-04T08:33:32.768Z</time></trkpt><trkpt lat="42.7738092" lon="10.2479279"><ele>29.599999999999998</ele><time>2026-04-04T08:33:34.769Z</time></trkpt><trkpt lat="42.773865" lon="10.247858"><ele>28.0</ele><time>2026-04-04T08:33:35.769Z</time></trkpt><trkpt lat="42.773933" lon="10.2477873"><ele>28.0</ele><time>2026-04-04T08:33:36.769Z</time></trkpt><trkpt lat="42.7739966" lon="10.2477203"><ele>27.999999999999996</ele><time>2026-04-04T08:33:37.769Z</time></trkpt><trkpt lat="42.774054" lon="10.2476636"><ele>27.999999999999996</ele><time>2026-04-04T08:33:38.769Z</time></trkpt><trkpt lat="42.7741414" lon="10.2475339"><ele>28.0</ele><time>2026-04-04T08:33:40.769Z</time></trkpt><trkpt lat="42.7741796" lon="10.2474307"><ele>28.0</ele><time>2026-04-04T08:33:41.768Z</time></trkpt><trkpt lat="42.774204" lon="10.2473085"><ele>27.833333333333336</ele><time>2026-04-04T08:33:42.769Z</time></trkpt><trkpt lat="42.7742192" lon="10.247192"><ele>27.666666666666668</ele><time>2026-04-04T08:33:43.769Z</time></trkpt><trkpt lat="42.7742321" lon="10.2470878"><ele>27.5</ele><time>2026-04-04T08:33:44.769Z</time></trkpt><trkpt lat="42.7742389" lon="10.2469887"><ele>27.333333333333336</ele><time>2026-04-04T08:33:45.769Z</time></trkpt><trkpt lat="42.7742449" lon="10.2468959"><ele>27.166666666666668</ele><time>2026-04-04T08:33:46.769Z</time></trkpt><trkpt lat="42.7742489" lon="10.2467992"><ele>27.0</ele><time>2026-04-04T08:33:47.769Z</time></trkpt><trkpt lat="42.7742589" lon="10.2466943"><ele>27.0</ele><time>2026-04-04T08:33:48.769Z</time></trkpt><trkpt lat="42.7742644" lon="10.2465747"><ele>27.000000000000004</ele><time>2026-04-04T08:33:49.769Z</time></trkpt><trkpt lat="42.7742654" lon="10.2464446"><ele>27.000000000000004</ele><time>2026-04-04T08:33:50.769Z</time></trkpt><trkpt lat="42.7742603" lon="10.2463069"><ele>27.0</ele><time>2026-04-04T08:33:51.769Z</time></trkpt><trkpt lat="42.7742619" lon="10.2461761"><ele>27.0</ele><time>2026-04-04T08:33:52.769Z</time></trkpt><trkpt lat="42.7742461" lon="10.246061"><ele>27.0</ele><time>2026-04-04T08:33:53.769Z</time></trkpt><trkpt lat="42.7742243" lon="10.2459643"><ele>27.0</ele><time>2026-04-04T08:33:54.769Z</time></trkpt><trkpt lat="42.774178" lon="10.2458093"><ele>27.0</ele><time>2026-04-04T08:33:56.769Z</time></trkpt><trkpt lat="42.7741565" lon="10.2457222"><ele>27.0</ele><time>2026-04-04T08:33:57.768Z</time></trkpt><trkpt lat="42.7741521" lon="10.2456286"><ele>27.0</ele><time>2026-04-04T08:33:58.769Z</time></trkpt><trkpt lat="42.774164" lon="10.2455353"><ele>27.0</ele><time>2026-04-04T08:33:59.769Z</time></trkpt><trkpt lat="42.7742021" lon="10.2454454"><ele>27.166666666666668</ele><time>2026-04-04T08:34:00.769Z</time></trkpt><trkpt lat="42.774248" lon="10.2453712"><ele>27.333333333333336</ele><time>2026-04-04T08:34:01.769Z</time></trkpt><trkpt lat="42.7743204" lon="10.2453123"><ele>27.5</ele><time>2026-04-04T08:34:02.769Z</time></trkpt><trkpt lat="42.7744022" lon="10.245265"><ele>27.666666666666668</ele><time>2026-04-04T08:34:03.769Z</time></trkpt><trkpt lat="42.7744816" lon="10.2452569"><ele>27.833333333333336</ele><time>2026-04-04T08:34:04.768Z</time></trkpt><trkpt lat="42.7745498" lon="10.2452594"><ele>28.0</ele><time>2026-04-04T08:34:05.769Z</time></trkpt><trkpt lat="42.7746178" lon="10.2452591"><ele>28.000000000000004</ele><time>2026-04-04T08:34:06.769Z</time></trkpt><trkpt lat="42.7746884" lon="10.2452339"><ele>28.0</ele><time>2026-04-04T08:34:07.769Z</time></trkpt><trkpt lat="42.7747723" lon="10.2451801"><ele>28.0</ele><time>2026-04-04T08:34:08.769Z</time></trkpt><trkpt lat="42.7748401" lon="10.2451059"><ele>28.0</ele><time>2026-04-04T08:34:09.769Z</time></trkpt><trkpt lat="42.7748999" lon="10.2450342"><ele>28.000000000000004</ele><time>2026-04-04T08:34:10.768Z</time></trkpt><trkpt lat="42.7749536" lon="10.2449705"><ele>28.0</ele><time>2026-04-04T08:34:11.769Z</time></trkpt><trkpt lat="42.7750008" lon="10.2449085"><ele>28.000000000000004</ele><time>2026-04-04T08:34:12.769Z</time></trkpt><trkpt lat="42.7750618" lon="10.2448156"><ele>28.0</ele><time>2026-04-04T08:34:14.769Z</time></trkpt><trkpt lat="42.775112" lon="10.2447455"><ele>28.0</ele><time>2026-04-04T08:34:16.769Z</time></trkpt><trkpt lat="42.7750624" lon="10.2448442"><ele>28.0</ele><time>2026-04-04T08:34:41.769Z</time></trkpt><trkpt lat="42.7750538" lon="10.2449737"><ele>28.000000000000004</ele><time>2026-04-04T08:34:45.769Z</time></trkpt><trkpt lat="42.7750525" lon="10.2448724"><ele>28.0</ele><time>2026-04-04T08:36:00.769Z</time></trkpt><trkpt lat="42.7750947" lon="10.2447758"><ele>28.000000000000004</ele><time>2026-04-04T08:36:02.769Z</time></trkpt><trkpt lat="42.7751529" lon="10.2446667"><ele>28.0</ele><time>2026-04-04T08:36:04.769Z</time></trkpt><trkpt lat="42.7752125" lon="10.2445692"><ele>28.0</ele><time>2026-04-04T08:36:06.769Z</time></trkpt><trkpt lat="42.7752685" lon="10.2444675"><ele>28.0</ele><time>2026-04-04T08:36:08.768Z</time></trkpt><trkpt lat="42.7753163" lon="10.2443946"><ele>28.000000000000004</ele><time>2026-04-04T08:36:10.769Z</time></trkpt><trkpt lat="42.775362" lon="10.2443337"><ele>28.0</ele><time>2026-04-04T08:36:12.769Z</time></trkpt><trkpt lat="42.7754155" lon="10.244231"><ele>28.0</ele><time>2026-04-04T08:36:40.769Z</time></trkpt><trkpt lat="42.7753474" lon="10.2441257"><ele>27.999999999999996</ele><time>2026-04-04T08:36:42.769Z</time></trkpt><trkpt lat="42.7752758" lon="10.2440691"><ele>27.999999999999996</ele><time>2026-04-04T08:36:43.769Z</time></trkpt><trkpt lat="42.775187" lon="10.2439924"><ele>28.0</ele><time>2026-04-04T08:36:44.769Z</time></trkpt><trkpt lat="42.775085" lon="10.2439088"><ele>28.0</ele><time>2026-04-04T08:36:45.769Z</time></trkpt><trkpt lat="42.7749796" lon="10.243819"><ele>28.25</ele><time>2026-04-04T08:36:46.768Z</time></trkpt><trkpt lat="42.7748634" lon="10.2437247"><ele>28.5</ele><time>2026-04-04T08:36:47.769Z</time></trkpt><trkpt lat="42.7747416" lon="10.2436257"><ele>28.75</ele><time>2026-04-04T08:36:48.769Z</time></trkpt><trkpt lat="42.7746147" lon="10.2435127"><ele>29.0</ele><time>2026-04-04T08:36:49.769Z</time></trkpt><trkpt lat="42.7744907" lon="10.2433964"><ele>29.0</ele><time>2026-04-04T08:36:50.769Z</time></trkpt><trkpt lat="42.7743664" lon="10.2432709"><ele>29.0</ele><time>2026-04-04T08:36:51.768Z</time></trkpt><trkpt lat="42.7742435" lon="10.243143"><ele>29.0</ele><time>2026-04-04T08:36:52.768Z</time></trkpt><trkpt lat="42.7741294" lon="10.243015"><ele>27.25</ele><time>2026-04-04T08:36:53.769Z</time></trkpt><trkpt lat="42.7740176" lon="10.2428941"><ele>25.5</ele><time>2026-04-04T08:36:54.769Z</time></trkpt><trkpt lat="42.7739177" lon="10.2427809"><ele>23.75</ele><time>2026-04-04T08:36:55.769Z</time></trkpt><trkpt lat="42.7738249" lon="10.2426658"><ele>22.0</ele><time>2026-04-04T08:36:56.769Z</time></trkpt><trkpt lat="42.773726" lon="10.2425446"><ele>22.0</ele><time>2026-04-04T08:36:57.769Z</time></trkpt><trkpt lat="42.7736327" lon="10.2424023"><ele>22.0</ele><time>2026-04-04T08:36:58.769Z</time></trkpt><trkpt lat="42.7735506" lon="10.242233"><ele>22.0</ele><time>2026-04-04T08:36:59.768Z</time></trkpt><trkpt lat="42.7734779" lon="10.2420451"><ele>22.0</ele><time>2026-04-04T08:37:00.769Z</time></trkpt><trkpt lat="42.7734199" lon="10.2418572"><ele>21.25</ele><time>2026-04-04T08:37:01.769Z</time></trkpt><trkpt lat="42.7733747" lon="10.2416598"><ele>20.5</ele><time>2026-04-04T08:37:02.769Z</time></trkpt><trkpt lat="42.7733252" lon="10.2414685"><ele>19.75</ele><time>2026-04-04T08:37:03.769Z</time></trkpt><trkpt lat="42.7732794" lon="10.241284"><ele>19.0</ele><time>2026-04-04T08:37:04.768Z</time></trkpt><trkpt lat="42.7732281" lon="10.2411001"><ele>19.0</ele><time>2026-04-04T08:37:05.769Z</time></trkpt><trkpt lat="42.7731663" lon="10.2409237"><ele>19.0</ele><time>2026-04-04T08:37:06.769Z</time></trkpt><trkpt lat="42.7730944" lon="10.2407605"><ele>19.0</ele><time>2026-04-04T08:37:07.769Z</time></trkpt><trkpt lat="42.7730237" lon="10.2406218"><ele>19.0</ele><time>2026-04-04T08:37:08.768Z</time></trkpt><trkpt lat="42.7729561" lon="10.2404958"><ele>19.0</ele><time>2026-04-04T08:37:09.769Z</time></trkpt><trkpt lat="42.7728963" lon="10.2403905"><ele>19.0</ele><time>2026-04-04T08:37:10.769Z</time></trkpt><trkpt lat="42.7728407" lon="10.240293"><ele>19.0</ele><time>2026-04-04T08:37:11.768Z</time></trkpt><trkpt lat="42.772799" lon="10.2401937"><ele>19.0</ele><time>2026-04-04T08:37:12.769Z</time></trkpt><trkpt lat="42.7727431" lon="10.2400952"><ele>19.0</ele><time>2026-04-04T08:37:13.769Z</time></trkpt><trkpt lat="42.7726846" lon="10.2400034"><ele>19.0</ele><time>2026-04-04T08:37:14.769Z</time></trkpt><trkpt lat="42.7726345" lon="10.2399106"><ele>19.0</ele><time>2026-04-04T08:37:15.769Z</time></trkpt><trkpt lat="42.7725822" lon="10.2398225"><ele>19.0</ele><time>2026-04-04T08:37:16.769Z</time></trkpt><trkpt lat="42.7725318" lon="10.2397393"><ele>19.0</ele><time>2026-04-04T08:37:17.769Z</time></trkpt><trkpt lat="42.7724841" lon="10.2396605"><ele>19.0</ele><time>2026-04-04T08:37:18.769Z</time></trkpt><trkpt lat="42.7724393" lon="10.2395832"><ele>19.0</ele><time>2026-04-04T08:37:19.769Z</time></trkpt><trkpt lat="42.7723938" lon="10.2394986"><ele>19.0</ele><time>2026-04-04T08:37:20.769Z</time></trkpt><trkpt lat="42.7723441" lon="10.2394237"><ele>19.0</ele><time>2026-04-04T08:37:21.769Z</time></trkpt><trkpt lat="42.7722925" lon="10.2393437"><ele>19.0</ele><time>2026-04-04T08:37:22.769Z</time></trkpt><trkpt lat="42.7722415" lon="10.2392676"><ele>19.0</ele><time>2026-04-04T08:37:23.769Z</time></trkpt><trkpt lat="42.7721941" lon="10.239198"><ele>19.0</ele><time>2026-04-04T08:37:24.769Z</time></trkpt><trkpt lat="42.7721461" lon="10.2391402"><ele>19.0</ele><time>2026-04-04T08:37:25.769Z</time></trkpt><trkpt lat="42.7720932" lon="10.2390784"><ele>19.0</ele><time>2026-04-04T08:37:26.769Z</time></trkpt><trkpt lat="42.7720439" lon="10.2390103"><ele>19.333333333333332</ele><time>2026-04-04T08:37:27.769Z</time></trkpt><trkpt lat="42.7719839" lon="10.2389494"><ele>19.666666666666664</ele><time>2026-04-04T08:37:28.768Z</time></trkpt><trkpt lat="42.7719122" lon="10.2388867"><ele>20.0</ele><time>2026-04-04T08:37:29.769Z</time></trkpt><trkpt lat="42.7718427" lon="10.2388256"><ele>20.333333333333332</ele><time>2026-04-04T08:37:30.768Z</time></trkpt><trkpt lat="42.771778" lon="10.2387638"><ele>20.666666666666668</ele><time>2026-04-04T08:37:31.769Z</time></trkpt><trkpt lat="42.7717185" lon="10.2387055"><ele>21.0</ele><time>2026-04-04T08:37:32.768Z</time></trkpt><trkpt lat="42.771657" lon="10.2386536"><ele>20.333333333333332</ele><time>2026-04-04T08:37:33.769Z</time></trkpt><trkpt lat="42.7715914" lon="10.2386064"><ele>19.666666666666668</ele><time>2026-04-04T08:37:34.769Z</time></trkpt><trkpt lat="42.7715212" lon="10.2385606"><ele>19.0</ele><time>2026-04-04T08:37:35.769Z</time></trkpt><trkpt lat="42.7714457" lon="10.2385152"><ele>18.333333333333336</ele><time>2026-04-04T08:37:36.769Z</time></trkpt><trkpt lat="42.7713573" lon="10.2384879"><ele>17.666666666666668</ele><time>2026-04-04T08:37:37.769Z</time></trkpt><trkpt lat="42.7712694" lon="10.2384629"><ele>17.0</ele><time>2026-04-04T08:37:38.768Z</time></trkpt><trkpt lat="42.7711956" lon="10.2384573"><ele>17.0</ele><time>2026-04-04T08:37:39.769Z</time></trkpt><trkpt lat="42.7711047" lon="10.2384348"><ele>17.0</ele><time>2026-04-04T08:37:41.769Z</time></trkpt><trkpt lat="42.7710323" lon="10.2384213"><ele>17.0</ele><time>2026-04-04T08:37:43.769Z</time></trkpt><trkpt lat="42.7709887" lon="10.238348"><ele>17.0</ele><time>2026-04-04T08:37:45.769Z</time></trkpt><trkpt lat="42.7709586" lon="10.2382138"><ele>17.0</ele><time>2026-04-04T08:37:47.769Z</time></trkpt><trkpt lat="42.7709411" lon="10.2380643"><ele>17.0</ele><time>2026-04-04T08:37:49.769Z</time></trkpt><trkpt lat="42.7709108" lon="10.237954"><ele>16.8</ele><time>2026-04-04T08:37:50.769Z</time></trkpt><trkpt lat="42.7708814" lon="10.237851"><ele>16.6</ele><time>2026-04-04T08:37:51.769Z</time></trkpt><trkpt lat="42.7708638" lon="10.237755"><ele>16.400000000000002</ele><time>2026-04-04T08:37:52.769Z</time></trkpt><trkpt lat="42.7708124" lon="10.2376318"><ele>16.2</ele><time>2026-04-04T08:37:54.769Z</time></trkpt><trkpt lat="42.7707256" lon="10.2374873"><ele>16.0</ele><time>2026-04-04T08:37:56.768Z</time></trkpt><trkpt lat="42.7706661" lon="10.2373937"><ele>15.999999999999998</ele><time>2026-04-04T08:37:57.769Z</time></trkpt><trkpt lat="42.7706044" lon="10.2373132"><ele>16.0</ele><time>2026-04-04T08:37:58.769Z</time></trkpt><trkpt lat="42.7705546" lon="10.2372291"><ele>16.0</ele><time>2026-04-04T08:37:59.769Z</time></trkpt><trkpt lat="42.7705094" lon="10.2371307"><ele>16.0</ele><time>2026-04-04T08:38:00.768Z</time></trkpt><trkpt lat="42.7704553" lon="10.2370156"><ele>15.999999999999998</ele><time>2026-04-04T08:38:01.769Z</time></trkpt><trkpt lat="42.7704096" lon="10.2369089"><ele>16.0</ele><time>2026-04-04T08:38:02.769Z</time></trkpt><trkpt lat="42.7703729" lon="10.2368025"><ele>16.5</ele><time>2026-04-04T08:38:03.769Z</time></trkpt><trkpt lat="42.7703376" lon="10.2366908"><ele>17.0</ele><time>2026-04-04T08:38:04.769Z</time></trkpt><trkpt lat="42.7702974" lon="10.2365893"><ele>17.5</ele><time>2026-04-04T08:38:05.769Z</time></trkpt><trkpt lat="42.7702537" lon="10.2364845"><ele>18.0</ele><time>2026-04-04T08:38:06.769Z</time></trkpt><trkpt lat="42.770215" lon="10.2363852"><ele>18.5</ele><time>2026-04-04T08:38:07.769Z</time></trkpt><trkpt lat="42.7701801" lon="10.2362854"><ele>19.0</ele><time>2026-04-04T08:38:08.769Z</time></trkpt><trkpt lat="42.7701476" lon="10.2361917"><ele>19.0</ele><time>2026-04-04T08:38:09.769Z</time></trkpt><trkpt lat="42.7700996" lon="10.2360728"><ele>19.0</ele><time>2026-04-04T08:38:11.769Z</time></trkpt><trkpt lat="42.7700904" lon="10.2359815"><ele>19.0</ele><time>2026-04-04T08:38:14.769Z</time></trkpt><trkpt lat="42.7701843" lon="10.2359196"><ele>19.0</ele><time>2026-04-04T08:38:16.768Z</time></trkpt><trkpt lat="42.7702371" lon="10.2358701"><ele>19.0</ele><time>2026-04-04T08:38:17.769Z</time></trkpt><trkpt lat="42.7702918" lon="10.2358136"><ele>19.0</ele><time>2026-04-04T08:38:18.769Z</time></trkpt><trkpt lat="42.7703938" lon="10.235703"><ele>20.4</ele><time>2026-04-04T08:38:20.769Z</time></trkpt><trkpt lat="42.7704892" lon="10.23558"><ele>21.799999999999997</ele><time>2026-04-04T08:38:22.769Z</time></trkpt><trkpt lat="42.7705606" lon="10.2355076"><ele>23.200000000000003</ele><time>2026-04-04T08:38:23.769Z</time></trkpt><trkpt lat="42.7706272" lon="10.2354251"><ele>24.6</ele><time>2026-04-04T08:38:24.769Z</time></trkpt><trkpt lat="42.7706995" lon="10.2353497"><ele>26.0</ele><time>2026-04-04T08:38:25.769Z</time></trkpt><trkpt lat="42.7707658" lon="10.2352859"><ele>26.0</ele><time>2026-04-04T08:38:26.768Z</time></trkpt><trkpt lat="42.7708232" lon="10.2352273"><ele>26.0</ele><time>2026-04-04T08:38:27.769Z</time></trkpt><trkpt lat="42.7708802" lon="10.2351739"><ele>26.0</ele><time>2026-04-04T08:38:28.769Z</time></trkpt><trkpt lat="42.7709427" lon="10.235119"><ele>26.0</ele><time>2026-04-04T08:38:29.769Z</time></trkpt><trkpt lat="42.7710036" lon="10.235053"><ele>26.0</ele><time>2026-04-04T08:38:30.769Z</time></trkpt><trkpt lat="42.7710512" lon="10.2349892"><ele>26.0</ele><time>2026-04-04T08:38:31.769Z</time></trkpt><trkpt lat="42.7711039" lon="10.2349383"><ele>26.0</ele><time>2026-04-04T08:38:32.769Z</time></trkpt><trkpt lat="42.7712141" lon="10.2348292"><ele>27.166666666666664</ele><time>2026-04-04T08:38:34.769Z</time></trkpt><trkpt lat="42.7712833" lon="10.2347833"><ele>28.333333333333332</ele><time>2026-04-04T08:38:35.769Z</time></trkpt><trkpt lat="42.771346" lon="10.2347047"><ele>29.5</ele><time>2026-04-04T08:38:36.769Z</time></trkpt><trkpt lat="42.7714135" lon="10.234624"><ele>30.666666666666664</ele><time>2026-04-04T08:38:37.769Z</time></trkpt><trkpt lat="42.7714693" lon="10.2345397"><ele>31.833333333333332</ele><time>2026-04-04T08:38:38.769Z</time></trkpt><trkpt lat="42.7715106" lon="10.2344684"><ele>33.0</ele><time>2026-04-04T08:38:39.769Z</time></trkpt><trkpt lat="42.7715871" lon="10.2343331"><ele>33.0</ele><time>2026-04-04T08:38:41.769Z</time></trkpt><trkpt lat="42.7716371" lon="10.2342703"><ele>33.0</ele><time>2026-04-04T08:38:42.769Z</time></trkpt><trkpt lat="42.7717006" lon="10.2342047"><ele>33.0</ele><time>2026-04-04T08:38:43.769Z</time></trkpt><trkpt lat="42.7717649" lon="10.2341355"><ele>33.0</ele><time>2026-04-04T08:38:44.769Z</time></trkpt><trkpt lat="42.771835" lon="10.2340574"><ele>33.0</ele><time>2026-04-04T08:38:45.769Z</time></trkpt><trkpt lat="42.7719072" lon="10.2339788"><ele>33.0</ele><time>2026-04-04T08:38:46.769Z</time></trkpt><trkpt lat="42.7719694" lon="10.233914"><ele>34.333333333333336</ele><time>2026-04-04T08:38:47.769Z</time></trkpt><trkpt lat="42.7720234" lon="10.2338441"><ele>35.666666666666664</ele><time>2026-04-04T08:38:48.768Z</time></trkpt><trkpt lat="42.7720828" lon="10.2337831"><ele>37.0</ele><time>2026-04-04T08:38:49.769Z</time></trkpt><trkpt lat="42.772144" lon="10.2337209"><ele>38.33333333333333</ele><time>2026-04-04T08:38:50.769Z</time></trkpt><trkpt lat="42.772213" lon="10.2336713"><ele>39.666666666666664</ele><time>2026-04-04T08:38:51.769Z</time></trkpt><trkpt lat="42.7722876" lon="10.2336342"><ele>41.0</ele><time>2026-04-04T08:38:52.769Z</time></trkpt><trkpt lat="42.7723594" lon="10.2336019"><ele>40.99999999999999</ele><time>2026-04-04T08:38:53.768Z</time></trkpt><trkpt lat="42.7724261" lon="10.2335571"><ele>41.0</ele><time>2026-04-04T08:38:54.769Z</time></trkpt><trkpt lat="42.7724967" lon="10.2335195"><ele>41.0</ele><time>2026-04-04T08:38:55.769Z</time></trkpt><trkpt lat="42.772563" lon="10.2334753"><ele>41.0</ele><time>2026-04-04T08:38:56.769Z</time></trkpt><trkpt lat="42.772631" lon="10.2334346"><ele>41.0</ele><time>2026-04-04T08:38:57.769Z</time></trkpt><trkpt lat="42.7726967" lon="10.23339"><ele>40.99999999999999</ele><time>2026-04-04T08:38:58.769Z</time></trkpt><trkpt lat="42.7727549" lon="10.233332"><ele>41.0</ele><time>2026-04-04T08:38:59.769Z</time></trkpt><trkpt lat="42.7728053" lon="10.2332561"><ele>43.0</ele><time>2026-04-04T08:39:00.769Z</time></trkpt><trkpt lat="42.7728389" lon="10.2331736"><ele>45.0</ele><time>2026-04-04T08:39:01.768Z</time></trkpt><trkpt lat="42.7728748" lon="10.2330794"><ele>47.0</ele><time>2026-04-04T08:39:02.769Z</time></trkpt><trkpt lat="42.7729159" lon="10.2329904"><ele>49.0</ele><time>2026-04-04T08:39:03.769Z</time></trkpt><trkpt lat="42.772955" lon="10.2329079"><ele>51.00000000000001</ele><time>2026-04-04T08:39:04.769Z</time></trkpt><trkpt lat="42.7729903" lon="10.2328134"><ele>53.0</ele><time>2026-04-04T08:39:05.768Z</time></trkpt><trkpt lat="42.7730294" lon="10.2327243"><ele>53.333333333333336</ele><time>2026-04-04T08:39:06.769Z</time></trkpt><trkpt lat="42.7730712" lon="10.2326222"><ele>53.66666666666667</ele><time>2026-04-04T08:39:07.769Z</time></trkpt><trkpt lat="42.7731154" lon="10.2325222"><ele>54.0</ele><time>2026-04-04T08:39:08.768Z</time></trkpt><trkpt lat="42.7731656" lon="10.232421"><ele>54.33333333333333</ele><time>2026-04-04T08:39:09.769Z</time></trkpt><trkpt lat="42.7732262" lon="10.2323253"><ele>54.666666666666664</ele><time>2026-04-04T08:39:10.769Z</time></trkpt><trkpt lat="42.773285" lon="10.2322243"><ele>55.0</ele><time>2026-04-04T08:39:11.769Z</time></trkpt><trkpt lat="42.7733417" lon="10.2321362"><ele>54.99999999999999</ele><time>2026-04-04T08:39:12.769Z</time></trkpt><trkpt lat="42.7733881" lon="10.2320628"><ele>55.0</ele><time>2026-04-04T08:39:13.769Z</time></trkpt><trkpt lat="42.7734597" lon="10.2319682"><ele>55.0</ele><time>2026-04-04T08:39:15.768Z</time></trkpt><trkpt lat="42.7735322" lon="10.2319097"><ele>55.0</ele><time>2026-04-04T08:39:17.769Z</time></trkpt><trkpt lat="42.7736103" lon="10.2319426"><ele>54.99999999999999</ele><time>2026-04-04T08:39:20.769Z</time></trkpt><trkpt lat="42.7735668" lon="10.2320431"><ele>55.0</ele><time>2026-04-04T08:39:22.769Z</time></trkpt><trkpt lat="42.7735487" lon="10.2321282"><ele>57.99999999999999</ele><time>2026-04-04T08:39:23.769Z</time></trkpt><trkpt lat="42.7735327" lon="10.2322858"><ele>61.0</ele><time>2026-04-04T08:39:25.768Z</time></trkpt><trkpt lat="42.7735557" lon="10.2324391"><ele>64.0</ele><time>2026-04-04T08:39:27.769Z</time></trkpt><trkpt lat="42.7735916" lon="10.232528"><ele>67.0</ele><time>2026-04-04T08:39:28.769Z</time></trkpt><trkpt lat="42.7736348" lon="10.2325932"><ele>70.0</ele><time>2026-04-04T08:39:29.769Z</time></trkpt><trkpt lat="42.7736804" lon="10.2326576"><ele>73.0</ele><time>2026-04-04T08:39:30.769Z</time></trkpt><trkpt lat="42.773761" lon="10.2327856"><ele>73.0</ele><time>2026-04-04T08:39:32.768Z</time></trkpt><trkpt lat="42.7738109" lon="10.2328494"><ele>73.0</ele><time>2026-04-04T08:39:33.768Z</time></trkpt><trkpt lat="42.7738688" lon="10.2329131"><ele>73.0</ele><time>2026-04-04T08:39:34.769Z</time></trkpt><trkpt lat="42.7739184" lon="10.2329698"><ele>73.0</ele><time>2026-04-04T08:39:35.769Z</time></trkpt><trkpt lat="42.7740017" lon="10.2330704"><ele>73.0</ele><time>2026-04-04T08:39:37.768Z</time></trkpt><trkpt lat="42.7740703" lon="10.2331614"><ele>73.0</ele><time>2026-04-04T08:39:39.768Z</time></trkpt><trkpt lat="42.7741238" lon="10.2332384"><ele>73.0</ele><time>2026-04-04T08:39:41.769Z</time></trkpt><trkpt lat="42.7742047" lon="10.2333626"><ele>73.0</ele><time>2026-04-04T08:39:43.769Z</time></trkpt><trkpt lat="42.7742603" lon="10.2334396"><ele>73.0</ele><time>2026-04-04T08:39:44.769Z</time></trkpt><trkpt lat="42.7743474" lon="10.2335267"><ele>73.0</ele><time>2026-04-04T08:39:45.769Z</time></trkpt><trkpt lat="42.774456" lon="10.2336271"><ele>73.0</ele><time>2026-04-04T08:39:46.769Z</time></trkpt><trkpt lat="42.7745565" lon="10.2337116"><ele>75.0</ele><time>2026-04-04T08:39:47.769Z</time></trkpt><trkpt lat="42.7746546" lon="10.2338044"><ele>77.0</ele><time>2026-04-04T08:39:48.769Z</time></trkpt><trkpt lat="42.7747524" lon="10.2338914"><ele>79.0</ele><time>2026-04-04T08:39:49.768Z</time></trkpt><trkpt lat="42.7748498" lon="10.2339809"><ele>81.0</ele><time>2026-04-04T08:39:50.768Z</time></trkpt><trkpt lat="42.7749616" lon="10.2340602"><ele>81.0</ele><time>2026-04-04T08:39:51.769Z</time></trkpt><trkpt lat="42.7750541" lon="10.2341378"><ele>81.0</ele><time>2026-04-04T08:39:52.769Z</time></trkpt><trkpt lat="42.7751431" lon="10.2342062"><ele>81.0</ele><time>2026-04-04T08:39:53.769Z</time></trkpt><trkpt lat="42.7752241" lon="10.2342584"><ele>81.0</ele><time>2026-04-04T08:39:54.768Z</time></trkpt><trkpt lat="42.775295" lon="10.234299"><ele>81.0</ele><time>2026-04-04T08:39:55.768Z</time></trkpt><trkpt lat="42.7753752" lon="10.2343952"><ele>80.33333333333333</ele><time>2026-04-04T08:39:57.768Z</time></trkpt><trkpt lat="42.7753889" lon="10.2344794"><ele>79.66666666666667</ele><time>2026-04-04T08:39:58.768Z</time></trkpt><trkpt lat="42.775371" lon="10.2345805"><ele>79.0</ele><time>2026-04-04T08:39:59.769Z</time></trkpt><trkpt lat="42.7753298" lon="10.2346794"><ele>78.33333333333334</ele><time>2026-04-04T08:40:00.769Z</time></trkpt><trkpt lat="42.7752637" lon="10.2347749"><ele>77.66666666666667</ele><time>2026-04-04T08:40:01.769Z</time></trkpt><trkpt lat="42.7752088" lon="10.2348532"><ele>77.0</ele><time>2026-04-04T08:40:02.769Z</time></trkpt><trkpt lat="42.7751753" lon="10.2349354"><ele>80.4</ele><time>2026-04-04T08:40:03.769Z</time></trkpt><trkpt lat="42.7751996" lon="10.2350798"><ele>83.80000000000001</ele><time>2026-04-04T08:40:05.768Z</time></trkpt><trkpt lat="42.7753127" lon="10.2350522"><ele>87.2</ele><time>2026-04-04T08:40:07.769Z</time></trkpt><trkpt lat="42.7753957" lon="10.235023"><ele>90.60000000000001</ele><time>2026-04-04T08:40:08.769Z</time></trkpt><trkpt lat="42.7754843" lon="10.2350071"><ele>94.0</ele><time>2026-04-04T08:40:09.768Z</time></trkpt><trkpt lat="42.7755767" lon="10.2349922"><ele>94.0</ele><time>2026-04-04T08:40:10.769Z</time></trkpt><trkpt lat="42.7756672" lon="10.2349711"><ele>94.0</ele><time>2026-04-04T08:40:11.768Z</time></trkpt><trkpt lat="42.7757501" lon="10.2349239"><ele>94.0</ele><time>2026-04-04T08:40:12.769Z</time></trkpt><trkpt lat="42.7758164" lon="10.2348678"><ele>94.0</ele><time>2026-04-04T08:40:13.769Z</time></trkpt><trkpt lat="42.7758726" lon="10.234813"><ele>94.0</ele><time>2026-04-04T08:40:14.769Z</time></trkpt><trkpt lat="42.7759839" lon="10.2348232"><ele>94.0</ele><time>2026-04-04T08:40:16.769Z</time></trkpt><trkpt lat="42.7760832" lon="10.2349521"><ele>96.66666666666666</ele><time>2026-04-04T08:40:18.768Z</time></trkpt><trkpt lat="42.7761546" lon="10.2350111"><ele>99.33333333333333</ele><time>2026-04-04T08:40:19.769Z</time></trkpt><trkpt lat="42.7762382" lon="10.2350663"><ele>102.0</ele><time>2026-04-04T08:40:20.769Z</time></trkpt><trkpt lat="42.776326" lon="10.2351196"><ele>104.66666666666666</ele><time>2026-04-04T08:40:21.769Z</time></trkpt><trkpt lat="42.7763977" lon="10.2351575"><ele>107.33333333333333</ele><time>2026-04-04T08:40:22.769Z</time></trkpt><trkpt lat="42.7764681" lon="10.2351836"><ele>110.0</ele><time>2026-04-04T08:40:23.769Z</time></trkpt><trkpt lat="42.7765619" lon="10.2351249"><ele>110.0</ele><time>2026-04-04T08:40:25.768Z</time></trkpt><trkpt lat="42.7765412" lon="10.2349519"><ele>110.0</ele><time>2026-04-04T08:40:27.768Z</time></trkpt><trkpt lat="42.7765397" lon="10.234856"><ele>110.0</ele><time>2026-04-04T08:40:28.769Z</time></trkpt><trkpt lat="42.7765489" lon="10.2347458"><ele>110.0</ele><time>2026-04-04T08:40:29.769Z</time></trkpt><trkpt lat="42.7765862" lon="10.2346415"><ele>110.0</ele><time>2026-04-04T08:40:30.769Z</time></trkpt><trkpt lat="42.7766357" lon="10.2345402"><ele>111.49999999999999</ele><time>2026-04-04T08:40:31.769Z</time></trkpt><trkpt lat="42.776688" lon="10.2344443"><ele>113.0</ele><time>2026-04-04T08:40:32.769Z</time></trkpt><trkpt lat="42.7767365" lon="10.2343424"><ele>114.5</ele><time>2026-04-04T08:40:33.769Z</time></trkpt><trkpt lat="42.7767803" lon="10.2342434"><ele>116.0</ele><time>2026-04-04T08:40:34.768Z</time></trkpt><trkpt lat="42.7768249" lon="10.2341471"><ele>117.49999999999999</ele><time>2026-04-04T08:40:35.769Z</time></trkpt><trkpt lat="42.7768612" lon="10.2340597"><ele>119.0</ele><time>2026-04-04T08:40:36.769Z</time></trkpt><trkpt lat="42.7768927" lon="10.2339721"><ele>120.57142857142857</ele><time>2026-04-04T08:40:37.769Z</time></trkpt><trkpt lat="42.7769184" lon="10.2338809"><ele>122.14285714285714</ele><time>2026-04-04T08:40:38.769Z</time></trkpt><trkpt lat="42.7769388" lon="10.2337906"><ele>123.71428571428572</ele><time>2026-04-04T08:40:39.769Z</time></trkpt><trkpt lat="42.7769515" lon="10.2336959"><ele>125.28571428571429</ele><time>2026-04-04T08:40:40.769Z</time></trkpt><trkpt lat="42.7769398" lon="10.2336072"><ele>126.85714285714286</ele><time>2026-04-04T08:40:41.769Z</time></trkpt><trkpt lat="42.7769021" lon="10.2335199"><ele>128.42857142857144</ele><time>2026-04-04T08:40:42.769Z</time></trkpt><trkpt lat="42.7768578" lon="10.233442"><ele>130.0</ele><time>2026-04-04T08:40:43.769Z</time></trkpt><trkpt lat="42.7768199" lon="10.2333583"><ele>130.0</ele><time>2026-04-04T08:40:44.769Z</time></trkpt><trkpt lat="42.7767659" lon="10.2332827"><ele>130.0</ele><time>2026-04-04T08:40:45.769Z</time></trkpt><trkpt lat="42.7767184" lon="10.2332135"><ele>130.0</ele><time>2026-04-04T08:40:46.769Z</time></trkpt><trkpt lat="42.7766604" lon="10.2331644"><ele>130.0</ele><time>2026-04-04T08:40:47.769Z</time></trkpt><trkpt lat="42.7765732" lon="10.2331201"><ele>130.0</ele><time>2026-04-04T08:40:48.769Z</time></trkpt><trkpt lat="42.7764946" lon="10.233076"><ele>130.0</ele><time>2026-04-04T08:40:49.769Z</time></trkpt><trkpt lat="42.7764173" lon="10.2330476"><ele>132.33333333333334</ele><time>2026-04-04T08:40:50.768Z</time></trkpt><trkpt lat="42.7763469" lon="10.2330124"><ele>134.66666666666669</ele><time>2026-04-04T08:40:51.769Z</time></trkpt><trkpt lat="42.7762807" lon="10.2329749"><ele>137.0</ele><time>2026-04-04T08:40:52.769Z</time></trkpt><trkpt lat="42.7762165" lon="10.2329169"><ele>139.33333333333334</ele><time>2026-04-04T08:40:53.769Z</time></trkpt><trkpt lat="42.7761645" lon="10.2328524"><ele>141.66666666666666</ele><time>2026-04-04T08:40:54.769Z</time></trkpt><trkpt lat="42.776119" lon="10.2327893"><ele>144.0</ele><time>2026-04-04T08:40:55.769Z</time></trkpt><trkpt lat="42.7760593" lon="10.23267"><ele>144.0</ele><time>2026-04-04T08:40:57.769Z</time></trkpt><trkpt lat="42.7760567" lon="10.2325293"><ele>144.0</ele><time>2026-04-04T08:40:59.769Z</time></trkpt><trkpt lat="42.776079" lon="10.2324359"><ele>144.0</ele><time>2026-04-04T08:41:00.769Z</time></trkpt><trkpt lat="42.7761176" lon="10.2323196"><ele>144.0</ele><time>2026-04-04T08:41:01.769Z</time></trkpt><trkpt lat="42.7761708" lon="10.2321921"><ele>144.0</ele><time>2026-04-04T08:41:02.769Z</time></trkpt><trkpt lat="42.7762106" lon="10.2320698"><ele>146.0</ele><time>2026-04-04T08:41:03.769Z</time></trkpt><trkpt lat="42.7762504" lon="10.2319451"><ele>148.0</ele><time>2026-04-04T08:41:04.769Z</time></trkpt><trkpt lat="42.7762854" lon="10.2318183"><ele>150.0</ele><time>2026-04-04T08:41:05.768Z</time></trkpt><trkpt lat="42.7763066" lon="10.2317002"><ele>152.0</ele><time>2026-04-04T08:41:06.769Z</time></trkpt><trkpt lat="42.7763171" lon="10.2315682"><ele>154.0</ele><time>2026-04-04T08:41:07.769Z</time></trkpt><trkpt lat="42.7763058" lon="10.2314375"><ele>154.6</ele><time>2026-04-04T08:41:08.769Z</time></trkpt><trkpt lat="42.7763027" lon="10.231294"><ele>155.2</ele><time>2026-04-04T08:41:09.769Z</time></trkpt><trkpt lat="42.7763105" lon="10.2311628"><ele>155.79999999999998</ele><time>2026-04-04T08:41:10.769Z</time></trkpt><trkpt lat="42.7763117" lon="10.231028"><ele>156.4</ele><time>2026-04-04T08:41:11.769Z</time></trkpt><trkpt lat="42.7763189" lon="10.2308602"><ele>157.0</ele><time>2026-04-04T08:41:12.769Z</time></trkpt><trkpt lat="42.7763249" lon="10.2307126"><ele>156.79999999999998</ele><time>2026-04-04T08:41:13.769Z</time></trkpt><trkpt lat="42.776334" lon="10.2305661"><ele>156.6</ele><time>2026-04-04T08:41:14.769Z</time></trkpt><trkpt lat="42.7763398" lon="10.2304283"><ele>156.39999999999998</ele><time>2026-04-04T08:41:15.769Z</time></trkpt><trkpt lat="42.7763531" lon="10.2302934"><ele>156.2</ele><time>2026-04-04T08:41:16.769Z</time></trkpt><trkpt lat="42.7763582" lon="10.2301736"><ele>156.0</ele><time>2026-04-04T08:41:17.769Z</time></trkpt><trkpt lat="42.7763605" lon="10.2300681"><ele>156.0</ele><time>2026-04-04T08:41:18.769Z</time></trkpt><trkpt lat="42.77636" lon="10.229946"><ele>156.0</ele><time>2026-04-04T08:41:19.769Z</time></trkpt><trkpt lat="42.7763442" lon="10.2298309"><ele>156.0</ele><time>2026-04-04T08:41:20.768Z</time></trkpt><trkpt lat="42.7763433" lon="10.2297226"><ele>156.0</ele><time>2026-04-04T08:41:21.769Z</time></trkpt><trkpt lat="42.7763812" lon="10.2296068"><ele>156.0</ele><time>2026-04-04T08:41:22.768Z</time></trkpt><trkpt lat="42.776444" lon="10.2295002"><ele>156.0</ele><time>2026-04-04T08:41:23.769Z</time></trkpt><trkpt lat="42.7765263" lon="10.2294005"><ele>152.5</ele><time>2026-04-04T08:41:24.769Z</time></trkpt><trkpt lat="42.7766129" lon="10.2293097"><ele>149.0</ele><time>2026-04-04T08:41:25.769Z</time></trkpt><trkpt lat="42.7767159" lon="10.2292169"><ele>145.5</ele><time>2026-04-04T08:41:26.769Z</time></trkpt><trkpt lat="42.7768063" lon="10.2291122"><ele>142.0</ele><time>2026-04-04T08:41:27.769Z</time></trkpt><trkpt lat="42.7768949" lon="10.2290103"><ele>146.25</ele><time>2026-04-04T08:41:28.769Z</time></trkpt><trkpt lat="42.7769762" lon="10.2288956"><ele>150.5</ele><time>2026-04-04T08:41:29.768Z</time></trkpt><trkpt lat="42.7770628" lon="10.2287825"><ele>154.75</ele><time>2026-04-04T08:41:30.769Z</time></trkpt><trkpt lat="42.7771571" lon="10.2286553"><ele>159.0</ele><time>2026-04-04T08:41:31.769Z</time></trkpt><trkpt lat="42.7772357" lon="10.2285511"><ele>159.0</ele><time>2026-04-04T08:41:32.769Z</time></trkpt><trkpt lat="42.7773099" lon="10.2284623"><ele>159.0</ele><time>2026-04-04T08:41:33.769Z</time></trkpt><trkpt lat="42.7773831" lon="10.2283929"><ele>159.0</ele><time>2026-04-04T08:41:34.769Z</time></trkpt><trkpt lat="42.77745" lon="10.2283437"><ele>159.0</ele><time>2026-04-04T08:41:35.769Z</time></trkpt><trkpt lat="42.7775353" lon="10.2282492"><ele>159.0</ele><time>2026-04-04T08:41:37.769Z</time></trkpt><trkpt lat="42.7775477" lon="10.2281435"><ele>158.8</ele><time>2026-04-04T08:41:39.769Z</time></trkpt><trkpt lat="42.7775149" lon="10.2279652"><ele>158.60000000000002</ele><time>2026-04-04T08:41:41.769Z</time></trkpt><trkpt lat="42.7774936" lon="10.2278663"><ele>158.4</ele><time>2026-04-04T08:41:42.769Z</time></trkpt><trkpt lat="42.7774726" lon="10.2277572"><ele>158.20000000000002</ele><time>2026-04-04T08:41:43.768Z</time></trkpt><trkpt lat="42.777459" lon="10.2276331"><ele>158.0</ele><time>2026-04-04T08:41:44.769Z</time></trkpt><trkpt lat="42.7774647" lon="10.2274865"><ele>158.0</ele><time>2026-04-04T08:41:45.769Z</time></trkpt><trkpt lat="42.7774764" lon="10.2273654"><ele>158.0</ele><time>2026-04-04T08:41:46.769Z</time></trkpt><trkpt lat="42.7774916" lon="10.2272397"><ele>158.0</ele><time>2026-04-04T08:41:47.769Z</time></trkpt><trkpt lat="42.7775182" lon="10.2271328"><ele>158.0</ele><time>2026-04-04T08:41:48.769Z</time></trkpt><trkpt lat="42.7775537" lon="10.2270348"><ele>158.0</ele><time>2026-04-04T08:41:49.769Z</time></trkpt><trkpt lat="42.7775906" lon="10.2269397"><ele>158.0</ele><time>2026-04-04T08:41:50.768Z</time></trkpt><trkpt lat="42.7776334" lon="10.2268636"><ele>161.2</ele><time>2026-04-04T08:41:51.769Z</time></trkpt><trkpt lat="42.77769" lon="10.226796"><ele>164.4</ele><time>2026-04-04T08:41:52.768Z</time></trkpt><trkpt lat="42.7777738" lon="10.2267228"><ele>167.6</ele><time>2026-04-04T08:41:53.769Z</time></trkpt><trkpt lat="42.777862" lon="10.2266562"><ele>170.79999999999998</ele><time>2026-04-04T08:41:54.768Z</time></trkpt><trkpt lat="42.7779503" lon="10.2265771"><ele>174.0</ele><time>2026-04-04T08:41:55.768Z</time></trkpt><trkpt lat="42.7780452" lon="10.2265114"><ele>172.83333333333334</ele><time>2026-04-04T08:41:56.769Z</time></trkpt><trkpt lat="42.7781232" lon="10.2264703"><ele>171.66666666666666</ele><time>2026-04-04T08:41:57.769Z</time></trkpt><trkpt lat="42.7781929" lon="10.2264301"><ele>170.5</ele><time>2026-04-04T08:41:58.769Z</time></trkpt><trkpt lat="42.7782542" lon="10.2263856"><ele>169.33333333333331</ele><time>2026-04-04T08:41:59.769Z</time></trkpt><trkpt lat="42.7783114" lon="10.2263123"><ele>168.16666666666666</ele><time>2026-04-04T08:42:00.769Z</time></trkpt><trkpt lat="42.7783542" lon="10.2262464"><ele>167.0</ele><time>2026-04-04T08:42:01.769Z</time></trkpt><trkpt lat="42.7783844" lon="10.2261147"><ele>167.0</ele><time>2026-04-04T08:42:02.769Z</time></trkpt><trkpt lat="42.778394" lon="10.2260013"><ele>167.0</ele><time>2026-04-04T08:42:03.769Z</time></trkpt><trkpt lat="42.7784108" lon="10.2258712"><ele>167.0</ele><time>2026-04-04T08:42:04.769Z</time></trkpt><trkpt lat="42.7784242" lon="10.2257551"><ele>167.0</ele><time>2026-04-04T08:42:05.769Z</time></trkpt><trkpt lat="42.778454" lon="10.2256537"><ele>167.0</ele><time>2026-04-04T08:42:06.769Z</time></trkpt><trkpt lat="42.7784883" lon="10.2255468"><ele>167.0</ele><time>2026-04-04T08:42:07.769Z</time></trkpt><trkpt lat="42.7785377" lon="10.2254368"><ele>169.66666666666666</ele><time>2026-04-04T08:42:08.769Z</time></trkpt><trkpt lat="42.7785813" lon="10.2253217"><ele>172.33333333333331</ele><time>2026-04-04T08:42:09.769Z</time></trkpt><trkpt lat="42.7786056" lon="10.22521"><ele>175.0</ele><time>2026-04-04T08:42:10.769Z</time></trkpt><trkpt lat="42.7786071" lon="10.2250841"><ele>177.66666666666666</ele><time>2026-04-04T08:42:11.769Z</time></trkpt><trkpt lat="42.7786086" lon="10.2249757"><ele>180.33333333333334</ele><time>2026-04-04T08:42:12.769Z</time></trkpt><trkpt lat="42.778611" lon="10.224875"><ele>183.0</ele><time>2026-04-04T08:42:13.769Z</time></trkpt><trkpt lat="42.7786238" lon="10.2247752"><ele>183.0</ele><time>2026-04-04T08:42:14.769Z</time></trkpt><trkpt lat="42.7786472" lon="10.2246782"><ele>183.0</ele><time>2026-04-04T08:42:15.768Z</time></trkpt><trkpt lat="42.7786734" lon="10.2245838"><ele>183.0</ele><time>2026-04-04T08:42:16.768Z</time></trkpt><trkpt lat="42.7787057" lon="10.2244801"><ele>183.0</ele><time>2026-04-04T08:42:17.769Z</time></trkpt><trkpt lat="42.7787376" lon="10.2243795"><ele>183.0</ele><time>2026-04-04T08:42:18.769Z</time></trkpt><trkpt lat="42.7787773" lon="10.22428"><ele>183.0</ele><time>2026-04-04T08:42:19.769Z</time></trkpt><trkpt lat="42.7788091" lon="10.2241813"><ele>183.0</ele><time>2026-04-04T08:42:20.769Z</time></trkpt><trkpt lat="42.7788262" lon="10.2240847"><ele>183.0</ele><time>2026-04-04T08:42:21.768Z</time></trkpt><trkpt lat="42.7788566" lon="10.2239977"><ele>183.0</ele><time>2026-04-04T08:42:22.769Z</time></trkpt><trkpt lat="42.7789134" lon="10.2239262"><ele>183.0</ele><time>2026-04-04T08:42:23.768Z</time></trkpt><trkpt lat="42.7789935" lon="10.2238619"><ele>183.0</ele><time>2026-04-04T08:42:24.769Z</time></trkpt><trkpt lat="42.7790657" lon="10.2237985"><ele>183.0</ele><time>2026-04-04T08:42:25.768Z</time></trkpt><trkpt lat="42.7791185" lon="10.2237365"><ele>181.57142857142858</ele><time>2026-04-04T08:42:26.769Z</time></trkpt><trkpt lat="42.7791749" lon="10.2236788"><ele>180.14285714285717</ele><time>2026-04-04T08:42:27.769Z</time></trkpt><trkpt lat="42.7792259" lon="10.2236064"><ele>178.71428571428572</ele><time>2026-04-04T08:42:28.769Z</time></trkpt><trkpt lat="42.7792546" lon="10.2235281"><ele>177.28571428571428</ele><time>2026-04-04T08:42:29.769Z</time></trkpt><trkpt lat="42.7792711" lon="10.2234411"><ele>175.85714285714286</ele><time>2026-04-04T08:42:30.769Z</time></trkpt><trkpt lat="42.7792698" lon="10.2233506"><ele>174.42857142857142</ele><time>2026-04-04T08:42:31.769Z</time></trkpt><trkpt lat="42.7792799" lon="10.2232615"><ele>173.0</ele><time>2026-04-04T08:42:32.769Z</time></trkpt><trkpt lat="42.7792893" lon="10.2231131"><ele>172.2</ele><time>2026-04-04T08:42:34.769Z</time></trkpt><trkpt lat="42.7793253" lon="10.2229934"><ele>171.4</ele><time>2026-04-04T08:42:36.769Z</time></trkpt><trkpt lat="42.7793518" lon="10.2228839"><ele>170.6</ele><time>2026-04-04T08:42:38.769Z</time></trkpt><trkpt lat="42.779363" lon="10.2227677"><ele>169.79999999999998</ele><time>2026-04-04T08:42:40.769Z</time></trkpt><trkpt lat="42.7793692" lon="10.2226109"><ele>169.0</ele><time>2026-04-04T08:42:42.769Z</time></trkpt><trkpt lat="42.7793662" lon="10.2225004"><ele>169.33333333333334</ele><time>2026-04-04T08:42:43.769Z</time></trkpt><trkpt lat="42.7793633" lon="10.2223958"><ele>169.66666666666669</ele><time>2026-04-04T08:42:44.769Z</time></trkpt><trkpt lat="42.7793551" lon="10.222278"><ele>170.0</ele><time>2026-04-04T08:42:45.769Z</time></trkpt><trkpt lat="42.7793429" lon="10.2221692"><ele>170.33333333333334</ele><time>2026-04-04T08:42:46.768Z</time></trkpt><trkpt lat="42.7793402" lon="10.2220661"><ele>170.66666666666666</ele><time>2026-04-04T08:42:47.769Z</time></trkpt><trkpt lat="42.7793374" lon="10.2219662"><ele>171.0</ele><time>2026-04-04T08:42:48.769Z</time></trkpt><trkpt lat="42.7793368" lon="10.2218631"><ele>171.0</ele><time>2026-04-04T08:42:49.768Z</time></trkpt><trkpt lat="42.7793312" lon="10.2217552"><ele>171.0</ele><time>2026-04-04T08:42:50.768Z</time></trkpt><trkpt lat="42.7793393" lon="10.2216532"><ele>171.0</ele><time>2026-04-04T08:42:51.769Z</time></trkpt><trkpt lat="42.7793532" lon="10.2215545"><ele>171.0</ele><time>2026-04-04T08:42:52.769Z</time></trkpt><trkpt lat="42.7793552" lon="10.2214184"><ele>171.0</ele><time>2026-04-04T08:42:54.769Z</time></trkpt><trkpt lat="42.7793213" lon="10.2213122"><ele>171.0</ele><time>2026-04-04T08:42:57.769Z</time></trkpt><trkpt lat="42.7792914" lon="10.2212251"><ele>171.7142857142857</ele><time>2026-04-04T08:44:10.769Z</time></trkpt><trkpt lat="42.7792706" lon="10.2211145"><ele>172.42857142857142</ele><time>2026-04-04T08:44:13.769Z</time></trkpt><trkpt lat="42.7792879" lon="10.2209902"><ele>173.14285714285714</ele><time>2026-04-04T08:44:16.769Z</time></trkpt><trkpt lat="42.7792987" lon="10.2209037"><ele>173.85714285714283</ele><time>2026-04-04T08:44:17.769Z</time></trkpt><trkpt lat="42.7793161" lon="10.220807"><ele>174.57142857142856</ele><time>2026-04-04T08:44:18.769Z</time></trkpt><trkpt lat="42.7793196" lon="10.2207197"><ele>175.28571428571428</ele><time>2026-04-04T08:44:19.769Z</time></trkpt><trkpt lat="42.7793118" lon="10.2206321"><ele>176.0</ele><time>2026-04-04T08:44:20.769Z</time></trkpt><trkpt lat="42.7792784" lon="10.2205411"><ele>178.60000000000002</ele><time>2026-04-04T08:44:21.769Z</time></trkpt><trkpt lat="42.7792236" lon="10.2204713"><ele>181.2</ele><time>2026-04-04T08:44:22.768Z</time></trkpt><trkpt lat="42.7791099" lon="10.2203367"><ele>183.8</ele><time>2026-04-04T08:44:23.769Z</time></trkpt><trkpt lat="42.7790326" lon="10.2202388"><ele>186.39999999999998</ele><time>2026-04-04T08:44:24.769Z</time></trkpt><trkpt lat="42.7789557" lon="10.2201319"><ele>189.0</ele><time>2026-04-04T08:44:25.769Z</time></trkpt><trkpt lat="42.7788701" lon="10.2200259"><ele>189.0</ele><time>2026-04-04T08:44:26.769Z</time></trkpt><trkpt lat="42.7788037" lon="10.2199696"><ele>189.0</ele><time>2026-04-04T08:44:27.769Z</time></trkpt><trkpt lat="42.7787381" lon="10.2199533"><ele>189.0</ele><time>2026-04-04T08:44:28.768Z</time></trkpt><trkpt lat="42.7786683" lon="10.2199572"><ele>189.0</ele><time>2026-04-04T08:44:29.768Z</time></trkpt><trkpt lat="42.7786052" lon="10.2199975"><ele>189.0</ele><time>2026-04-04T08:44:30.769Z</time></trkpt><trkpt lat="42.7785373" lon="10.2200524"><ele>189.0</ele><time>2026-04-04T08:44:31.769Z</time></trkpt><trkpt lat="42.7784531" lon="10.2201113"><ele>191.16666666666666</ele><time>2026-04-04T08:44:32.769Z</time></trkpt><trkpt lat="42.7783783" lon="10.2201699"><ele>193.33333333333331</ele><time>2026-04-04T08:44:33.769Z</time></trkpt><trkpt lat="42.7782961" lon="10.220222"><ele>195.5</ele><time>2026-04-04T08:44:34.769Z</time></trkpt><trkpt lat="42.7782197" lon="10.2202453"><ele>197.66666666666666</ele><time>2026-04-04T08:44:35.769Z</time></trkpt><trkpt lat="42.7781379" lon="10.2202611"><ele>199.83333333333331</ele><time>2026-04-04T08:44:36.769Z</time></trkpt><trkpt lat="42.7780406" lon="10.2202741"><ele>202.0</ele><time>2026-04-04T08:44:37.769Z</time></trkpt><trkpt lat="42.7779692" lon="10.2202819"><ele>201.99999999999997</ele><time>2026-04-04T08:44:38.769Z</time></trkpt><trkpt lat="42.7778743" lon="10.2202645"><ele>202.0</ele><time>2026-04-04T08:44:40.769Z</time></trkpt><trkpt lat="42.7778182" lon="10.2201542"><ele>202.0</ele><time>2026-04-04T08:44:43.769Z</time></trkpt><trkpt lat="42.7777891" lon="10.2200645"><ele>202.0</ele><time>2026-04-04T08:44:45.768Z</time></trkpt><trkpt lat="42.7777879" lon="10.2199636"><ele>201.99999999999997</ele><time>2026-04-04T08:44:47.768Z</time></trkpt><trkpt lat="42.7777932" lon="10.2198377"><ele>202.0</ele><time>2026-04-04T08:44:50.769Z</time></trkpt><trkpt lat="42.7777943" lon="10.2197361"><ele>203.99999999999997</ele><time>2026-04-04T08:44:52.769Z</time></trkpt><trkpt lat="42.7777881" lon="10.2196272"><ele>206.0</ele><time>2026-04-04T08:44:54.769Z</time></trkpt><trkpt lat="42.7777488" lon="10.2195116"><ele>208.0</ele><time>2026-04-04T08:44:56.768Z</time></trkpt><trkpt lat="42.7776972" lon="10.2193706"><ele>210.0</ele><time>2026-04-04T08:44:58.769Z</time></trkpt><trkpt lat="42.7776709" lon="10.2192854"><ele>211.99999999999997</ele><time>2026-04-04T08:44:59.769Z</time></trkpt><trkpt lat="42.7776374" lon="10.2191996"><ele>214.0</ele><time>2026-04-04T08:45:00.769Z</time></trkpt><trkpt lat="42.7776094" lon="10.219112"><ele>213.99999999999997</ele><time>2026-04-04T08:45:01.768Z</time></trkpt><trkpt lat="42.7775677" lon="10.2190241"><ele>214.0</ele><time>2026-04-04T08:45:02.769Z</time></trkpt><trkpt lat="42.7775171" lon="10.218962"><ele>214.0</ele><time>2026-04-04T08:45:03.768Z</time></trkpt><trkpt lat="42.7774374" lon="10.2188788"><ele>214.0</ele><time>2026-04-04T08:45:05.769Z</time></trkpt><trkpt lat="42.7773709" lon="10.2188114"><ele>213.99999999999997</ele><time>2026-04-04T08:45:07.769Z</time></trkpt><trkpt lat="42.7772765" lon="10.2187922"><ele>214.0</ele><time>2026-04-04T08:45:10.769Z</time></trkpt><trkpt lat="42.7772047" lon="10.2188077"><ele>217.0</ele><time>2026-04-04T08:45:12.769Z</time></trkpt><trkpt lat="42.7771073" lon="10.2188324"><ele>219.99999999999997</ele><time>2026-04-04T08:45:14.769Z</time></trkpt><trkpt lat="42.7770154" lon="10.2188632"><ele>222.99999999999997</ele><time>2026-04-04T08:45:16.769Z</time></trkpt><trkpt lat="42.7769214" lon="10.218874"><ele>226.0</ele><time>2026-04-04T08:45:18.769Z</time></trkpt><trkpt lat="42.7768227" lon="10.2188876"><ele>229.0</ele><time>2026-04-04T08:45:20.769Z</time></trkpt><trkpt lat="42.7766913" lon="10.2188959"><ele>228.99999999999997</ele><time>2026-04-04T08:45:22.769Z</time></trkpt><trkpt lat="42.7766228" lon="10.2188697"><ele>229.0</ele><time>2026-04-04T08:45:23.769Z</time></trkpt><trkpt lat="42.776544" lon="10.2188191"><ele>229.0</ele><time>2026-04-04T08:45:24.769Z</time></trkpt><trkpt lat="42.7764756" lon="10.2187449"><ele>229.0</ele><time>2026-04-04T08:45:25.769Z</time></trkpt><trkpt lat="42.776432" lon="10.2186578"><ele>228.99999999999997</ele><time>2026-04-04T08:45:26.769Z</time></trkpt><trkpt lat="42.7763838" lon="10.2185875"><ele>229.0</ele><time>2026-04-04T08:45:27.769Z</time></trkpt><trkpt lat="42.7762674" lon="10.2185195"><ele>228.99999999999997</ele><time>2026-04-04T08:45:29.769Z</time></trkpt><trkpt lat="42.7761795" lon="10.218512"><ele>229.0</ele><time>2026-04-04T08:45:30.769Z</time></trkpt><trkpt lat="42.7760966" lon="10.2184725"><ele>229.0</ele><time>2026-04-04T08:45:31.769Z</time></trkpt><trkpt lat="42.7760379" lon="10.2184226"><ele>229.0</ele><time>2026-04-04T08:45:32.768Z</time></trkpt><trkpt lat="42.775974" lon="10.2183666"><ele>228.99999999999997</ele><time>2026-04-04T08:45:33.769Z</time></trkpt><trkpt lat="42.7759046" lon="10.218332"><ele>229.0</ele><time>2026-04-04T08:45:34.769Z</time></trkpt><trkpt lat="42.7758276" lon="10.2183426"><ele>227.16666666666666</ele><time>2026-04-04T08:45:35.768Z</time></trkpt><trkpt lat="42.7757216" lon="10.2183894"><ele>225.33333333333331</ele><time>2026-04-04T08:45:36.769Z</time></trkpt><trkpt lat="42.7756387" lon="10.2184184"><ele>223.5</ele><time>2026-04-04T08:45:37.769Z</time></trkpt><trkpt lat="42.7755673" lon="10.2184231"><ele>221.66666666666669</ele><time>2026-04-04T08:45:38.769Z</time></trkpt><trkpt lat="42.7754967" lon="10.218396"><ele>219.83333333333334</ele><time>2026-04-04T08:45:39.769Z</time></trkpt><trkpt lat="42.7754375" lon="10.2183363"><ele>218.0</ele><time>2026-04-04T08:45:40.768Z</time></trkpt><trkpt lat="42.7753791" lon="10.2182341"><ele>221.2</ele><time>2026-04-04T08:45:41.768Z</time></trkpt><trkpt lat="42.7753427" lon="10.218112"><ele>224.4</ele><time>2026-04-04T08:45:42.769Z</time></trkpt><trkpt lat="42.7753238" lon="10.2179559"><ele>227.59999999999997</ele><time>2026-04-04T08:45:43.769Z</time></trkpt><trkpt lat="42.7753111" lon="10.2178073"><ele>230.79999999999998</ele><time>2026-04-04T08:45:44.769Z</time></trkpt><trkpt lat="42.7752938" lon="10.2176925"><ele>234.0</ele><time>2026-04-04T08:45:45.769Z</time></trkpt><trkpt lat="42.7752605" lon="10.2176183"><ele>231.0</ele><time>2026-04-04T08:45:46.769Z</time></trkpt><trkpt lat="42.7751562" lon="10.2175468"><ele>227.99999999999997</ele><time>2026-04-04T08:45:48.769Z</time></trkpt><trkpt lat="42.775086" lon="10.217561"><ele>224.99999999999997</ele><time>2026-04-04T08:45:49.769Z</time></trkpt><trkpt lat="42.7749955" lon="10.2176213"><ele>222.0</ele><time>2026-04-04T08:45:50.769Z</time></trkpt><trkpt lat="42.7749033" lon="10.2176715"><ele>219.0</ele><time>2026-04-04T08:45:51.769Z</time></trkpt><trkpt lat="42.7748243" lon="10.2177052"><ele>219.0</ele><time>2026-04-04T08:45:52.769Z</time></trkpt><trkpt lat="42.7747523" lon="10.2177287"><ele>219.0</ele><time>2026-04-04T08:45:53.769Z</time></trkpt><trkpt lat="42.7746807" lon="10.2177299"><ele>219.0</ele><time>2026-04-04T08:45:54.768Z</time></trkpt><trkpt lat="42.7746008" lon="10.2176845"><ele>219.0</ele><time>2026-04-04T08:45:55.769Z</time></trkpt><trkpt lat="42.7745228" lon="10.2176134"><ele>219.0</ele><time>2026-04-04T08:45:56.769Z</time></trkpt><trkpt lat="42.7744477" lon="10.2175348"><ele>219.0</ele><time>2026-04-04T08:45:57.769Z</time></trkpt><trkpt lat="42.7743549" lon="10.2174569"><ele>218.0</ele><time>2026-04-04T08:45:58.769Z</time></trkpt><trkpt lat="42.7742557" lon="10.2173914"><ele>216.99999999999997</ele><time>2026-04-04T08:45:59.769Z</time></trkpt><trkpt lat="42.7741659" lon="10.2173394"><ele>215.99999999999997</ele><time>2026-04-04T08:46:00.769Z</time></trkpt><trkpt lat="42.7740854" lon="10.2172751"><ele>215.0</ele><time>2026-04-04T08:46:01.769Z</time></trkpt><trkpt lat="42.7740095" lon="10.2171884"><ele>214.0</ele><time>2026-04-04T08:46:02.769Z</time></trkpt><trkpt lat="42.7739525" lon="10.217074"><ele>216.33333333333331</ele><time>2026-04-04T08:46:03.768Z</time></trkpt><trkpt lat="42.7739098" lon="10.2169852"><ele>218.66666666666666</ele><time>2026-04-04T08:46:04.769Z</time></trkpt><trkpt lat="42.7738655" lon="10.2169005"><ele>221.0</ele><time>2026-04-04T08:46:05.768Z</time></trkpt><trkpt lat="42.7738253" lon="10.2168285"><ele>223.33333333333331</ele><time>2026-04-04T08:46:06.769Z</time></trkpt><trkpt lat="42.7737143" lon="10.2167827"><ele>225.66666666666666</ele><time>2026-04-04T08:46:08.768Z</time></trkpt><trkpt lat="42.7736431" lon="10.2168118"><ele>228.0</ele><time>2026-04-04T08:46:09.769Z</time></trkpt><trkpt lat="42.7735883" lon="10.2168705"><ele>228.0</ele><time>2026-04-04T08:46:10.769Z</time></trkpt><trkpt lat="42.7735492" lon="10.2169499"><ele>228.0</ele><time>2026-04-04T08:46:11.769Z</time></trkpt><trkpt lat="42.7735253" lon="10.2170582"><ele>228.0</ele><time>2026-04-04T08:46:12.769Z</time></trkpt><trkpt lat="42.7734983" lon="10.2171687"><ele>228.0</ele><time>2026-04-04T08:46:13.769Z</time></trkpt><trkpt lat="42.7734571" lon="10.217259"><ele>228.0</ele><time>2026-04-04T08:46:14.769Z</time></trkpt><trkpt lat="42.773404" lon="10.2173423"><ele>228.0</ele><time>2026-04-04T08:46:15.768Z</time></trkpt><trkpt lat="42.7733083" lon="10.2174186"><ele>227.8</ele><time>2026-04-04T08:46:16.769Z</time></trkpt><trkpt lat="42.7732157" lon="10.2174501"><ele>227.60000000000002</ele><time>2026-04-04T08:46:17.769Z</time></trkpt><trkpt lat="42.7731222" lon="10.2174568"><ele>227.39999999999998</ele><time>2026-04-04T08:46:18.769Z</time></trkpt><trkpt lat="42.7730365" lon="10.2174313"><ele>227.2</ele><time>2026-04-04T08:46:19.769Z</time></trkpt><trkpt lat="42.7729499" lon="10.2173719"><ele>227.0</ele><time>2026-04-04T08:46:20.769Z</time></trkpt><trkpt lat="42.7728653" lon="10.2172768"><ele>227.0</ele><time>2026-04-04T08:46:21.769Z</time></trkpt><trkpt lat="42.7727992" lon="10.2171831"><ele>227.0</ele><time>2026-04-04T08:46:22.769Z</time></trkpt><trkpt lat="42.7727366" lon="10.2171074"><ele>227.0</ele><time>2026-04-04T08:46:23.769Z</time></trkpt><trkpt lat="42.7726631" lon="10.2170118"><ele>227.0</ele><time>2026-04-04T08:46:25.769Z</time></trkpt><trkpt lat="42.7725877" lon="10.2169319"><ele>227.0</ele><time>2026-04-04T08:46:27.769Z</time></trkpt><trkpt lat="42.7725088" lon="10.2168547"><ele>226.00000000000003</ele><time>2026-04-04T08:46:29.769Z</time></trkpt><trkpt lat="42.7724523" lon="10.2167805"><ele>225.0</ele><time>2026-04-04T08:46:30.769Z</time></trkpt><trkpt lat="42.7723912" lon="10.2166864"><ele>224.0</ele><time>2026-04-04T08:46:31.769Z</time></trkpt><trkpt lat="42.7723494" lon="10.2165872"><ele>223.0</ele><time>2026-04-04T08:46:32.768Z</time></trkpt><trkpt lat="42.772319" lon="10.2164746"><ele>222.00000000000003</ele><time>2026-04-04T08:46:33.769Z</time></trkpt><trkpt lat="42.7722864" lon="10.2163502"><ele>221.0</ele><time>2026-04-04T08:46:34.769Z</time></trkpt><trkpt lat="42.7722557" lon="10.2162237"><ele>220.8</ele><time>2026-04-04T08:46:35.769Z</time></trkpt><trkpt lat="42.7722386" lon="10.2160865"><ele>220.60000000000002</ele><time>2026-04-04T08:46:36.769Z</time></trkpt><trkpt lat="42.7722378" lon="10.2159547"><ele>220.4</ele><time>2026-04-04T08:46:37.769Z</time></trkpt><trkpt lat="42.7722602" lon="10.2158332"><ele>220.2</ele><time>2026-04-04T08:46:38.769Z</time></trkpt><trkpt lat="42.7723014" lon="10.2157239"><ele>220.0</ele><time>2026-04-04T08:46:39.769Z</time></trkpt><trkpt lat="42.772354" lon="10.2156249"><ele>220.0</ele><time>2026-04-04T08:46:40.768Z</time></trkpt><trkpt lat="42.7724179" lon="10.2155525"><ele>220.0</ele><time>2026-04-04T08:46:41.769Z</time></trkpt><trkpt lat="42.7724801" lon="10.2154819"><ele>220.0</ele><time>2026-04-04T08:46:42.769Z</time></trkpt><trkpt lat="42.7725219" lon="10.2154062"><ele>220.0</ele><time>2026-04-04T08:46:43.769Z</time></trkpt><trkpt lat="42.7725301" lon="10.2152475"><ele>220.0</ele><time>2026-04-04T08:46:45.769Z</time></trkpt><trkpt lat="42.7724512" lon="10.2150896"><ele>220.0</ele><time>2026-04-04T08:46:47.769Z</time></trkpt><trkpt lat="42.7723857" lon="10.2149418"><ele>220.0</ele><time>2026-04-04T08:46:49.769Z</time></trkpt><trkpt lat="42.7724195" lon="10.2148361"><ele>220.0</ele><time>2026-04-04T08:46:50.769Z</time></trkpt><trkpt lat="42.7724621" lon="10.2146976"><ele>220.0</ele><time>2026-04-04T08:46:52.769Z</time></trkpt><trkpt lat="42.7724647" lon="10.2145964"><ele>220.0</ele><time>2026-04-04T08:46:54.768Z</time></trkpt><trkpt lat="42.7724396" lon="10.2144915"><ele>221.4</ele><time>2026-04-04T08:46:56.769Z</time></trkpt><trkpt lat="42.7723274" lon="10.2143821"><ele>222.8</ele><time>2026-04-04T08:46:58.769Z</time></trkpt><trkpt lat="42.7722625" lon="10.2143191"><ele>224.2</ele><time>2026-04-04T08:46:59.769Z</time></trkpt><trkpt lat="42.7721983" lon="10.2142721"><ele>225.6</ele><time>2026-04-04T08:47:00.769Z</time></trkpt><trkpt lat="42.7720948" lon="10.2142465"><ele>227.0</ele><time>2026-04-04T08:47:02.769Z</time></trkpt><trkpt lat="42.7720078" lon="10.2142768"><ele>227.00000000000003</ele><time>2026-04-04T08:47:03.769Z</time></trkpt><trkpt lat="42.7719385" lon="10.2143002"><ele>227.0</ele><time>2026-04-04T08:47:04.769Z</time></trkpt><trkpt lat="42.771859" lon="10.2142914"><ele>227.0</ele><time>2026-04-04T08:47:05.769Z</time></trkpt><trkpt lat="42.7717815" lon="10.2142651"><ele>227.0</ele><time>2026-04-04T08:47:06.769Z</time></trkpt><trkpt lat="42.7717091" lon="10.2142293"><ele>227.00000000000003</ele><time>2026-04-04T08:47:07.769Z</time></trkpt><trkpt lat="42.7716416" lon="10.214216"><ele>227.0</ele><time>2026-04-04T08:47:08.769Z</time></trkpt><trkpt lat="42.7715569" lon="10.2142418"><ele>225.83333333333334</ele><time>2026-04-04T08:47:09.769Z</time></trkpt><trkpt lat="42.7714601" lon="10.214306"><ele>224.66666666666669</ele><time>2026-04-04T08:47:10.768Z</time></trkpt><trkpt lat="42.7713827" lon="10.2143857"><ele>223.5</ele><time>2026-04-04T08:47:11.769Z</time></trkpt><trkpt lat="42.7713095" lon="10.2144376"><ele>222.33333333333331</ele><time>2026-04-04T08:47:12.769Z</time></trkpt><trkpt lat="42.7712369" lon="10.2144604"><ele>221.16666666666666</ele><time>2026-04-04T08:47:13.769Z</time></trkpt><trkpt lat="42.7711636" lon="10.21445"><ele>220.0</ele><time>2026-04-04T08:47:14.769Z</time></trkpt><trkpt lat="42.771088" lon="10.2143966"><ele>218.6</ele><time>2026-04-04T08:47:15.769Z</time></trkpt><trkpt lat="42.7710107" lon="10.2143189"><ele>217.2</ele><time>2026-04-04T08:47:16.769Z</time></trkpt><trkpt lat="42.7709529" lon="10.2142408"><ele>215.8</ele><time>2026-04-04T08:47:17.769Z</time></trkpt><trkpt lat="42.7708979" lon="10.2141567"><ele>214.4</ele><time>2026-04-04T08:47:18.769Z</time></trkpt><trkpt lat="42.7708417" lon="10.2140946"><ele>213.0</ele><time>2026-04-04T08:47:19.769Z</time></trkpt><trkpt lat="42.770717" lon="10.2140611"><ele>213.0</ele><time>2026-04-04T08:47:21.769Z</time></trkpt><trkpt lat="42.7706411" lon="10.2140874"><ele>213.0</ele><time>2026-04-04T08:47:22.769Z</time></trkpt><trkpt lat="42.770571" lon="10.2140978"><ele>213.0</ele><time>2026-04-04T08:47:23.768Z</time></trkpt><trkpt lat="42.7704437" lon="10.2140955"><ele>213.0</ele><time>2026-04-04T08:47:25.769Z</time></trkpt><trkpt lat="42.7703341" lon="10.2141229"><ele>213.0</ele><time>2026-04-04T08:47:27.769Z</time></trkpt><trkpt lat="42.7702402" lon="10.2141651"><ele>213.0</ele><time>2026-04-04T08:47:29.769Z</time></trkpt><trkpt lat="42.7701547" lon="10.2141625"><ele>213.0</ele><time>2026-04-04T08:47:31.769Z</time></trkpt><trkpt lat="42.770072" lon="10.2141232"><ele>213.0</ele><time>2026-04-04T08:47:33.769Z</time></trkpt><trkpt lat="42.7699923" lon="10.2140794"><ele>213.0</ele><time>2026-04-04T08:47:35.769Z</time></trkpt><trkpt lat="42.7699207" lon="10.2140215"><ele>213.0</ele><time>2026-04-04T08:47:37.769Z</time></trkpt><trkpt lat="42.7698436" lon="10.2139451"><ele>213.0</ele><time>2026-04-04T08:47:39.769Z</time></trkpt><trkpt lat="42.7697558" lon="10.2138136"><ele>213.0</ele><time>2026-04-04T08:47:41.769Z</time></trkpt><trkpt lat="42.7697241" lon="10.2136904"><ele>213.0</ele><time>2026-04-04T08:47:42.769Z</time></trkpt><trkpt lat="42.7697317" lon="10.21354"><ele>213.0</ele><time>2026-04-04T08:47:43.769Z</time></trkpt><trkpt lat="42.7697329" lon="10.2134087"><ele>213.0</ele><time>2026-04-04T08:47:44.769Z</time></trkpt><trkpt lat="42.7697291" lon="10.213317"><ele>213.0</ele><time>2026-04-04T08:47:45.769Z</time></trkpt><trkpt lat="42.7696868" lon="10.2132084"><ele>213.0</ele><time>2026-04-04T08:47:47.769Z</time></trkpt><trkpt lat="42.7695722" lon="10.2132339"><ele>213.0</ele><time>2026-04-04T08:47:49.769Z</time></trkpt><trkpt lat="42.7694623" lon="10.2132866"><ele>213.0</ele><time>2026-04-04T08:47:50.768Z</time></trkpt><trkpt lat="42.7693634" lon="10.213333"><ele>213.0</ele><time>2026-04-04T08:47:51.769Z</time></trkpt><trkpt lat="42.7692924" lon="10.2133476"><ele>213.0</ele><time>2026-04-04T08:47:52.769Z</time></trkpt><trkpt lat="42.7692208" lon="10.2133298"><ele>214.0</ele><time>2026-04-04T08:47:53.769Z</time></trkpt><trkpt lat="42.7691452" lon="10.2132813"><ele>215.0</ele><time>2026-04-04T08:47:54.769Z</time></trkpt><trkpt lat="42.7690523" lon="10.2131692"><ele>216.0</ele><time>2026-04-04T08:47:55.769Z</time></trkpt><trkpt lat="42.7689773" lon="10.2130798"><ele>217.0</ele><time>2026-04-04T08:47:56.769Z</time></trkpt><trkpt lat="42.768913" lon="10.2130205"><ele>218.0</ele><time>2026-04-04T08:47:57.769Z</time></trkpt><trkpt lat="42.7688255" lon="10.2129982"><ele>218.0</ele><time>2026-04-04T08:47:58.769Z</time></trkpt><trkpt lat="42.7687124" lon="10.213019"><ele>218.0</ele><time>2026-04-04T08:47:59.769Z</time></trkpt><trkpt lat="42.768594" lon="10.2130861"><ele>218.0</ele><time>2026-04-04T08:48:00.769Z</time></trkpt><trkpt lat="42.7684605" lon="10.2131456"><ele>218.0</ele><time>2026-04-04T08:48:01.769Z</time></trkpt><trkpt lat="42.7683123" lon="10.2132253"><ele>213.5</ele><time>2026-04-04T08:48:02.768Z</time></trkpt><trkpt lat="42.7681799" lon="10.2132974"><ele>209.0</ele><time>2026-04-04T08:48:03.768Z</time></trkpt><trkpt lat="42.768058" lon="10.2133756"><ele>204.5</ele><time>2026-04-04T08:48:04.769Z</time></trkpt><trkpt lat="42.7679659" lon="10.2134288"><ele>200.0</ele><time>2026-04-04T08:48:05.769Z</time></trkpt><trkpt lat="42.7678783" lon="10.213456"><ele>200.00000000000003</ele><time>2026-04-04T08:48:06.769Z</time></trkpt><trkpt lat="42.7678004" lon="10.2134528"><ele>200.0</ele><time>2026-04-04T08:48:07.768Z</time></trkpt><trkpt lat="42.7677132" lon="10.2134067"><ele>200.0</ele><time>2026-04-04T08:48:08.769Z</time></trkpt><trkpt lat="42.7676466" lon="10.2133358"><ele>200.0</ele><time>2026-04-04T08:48:09.769Z</time></trkpt><trkpt lat="42.7675948" lon="10.2132349"><ele>200.00000000000003</ele><time>2026-04-04T08:48:10.769Z</time></trkpt><trkpt lat="42.7675451" lon="10.2131188"><ele>200.0</ele><time>2026-04-04T08:48:11.769Z</time></trkpt><trkpt lat="42.7674914" lon="10.2130001"><ele>202.0</ele><time>2026-04-04T08:48:12.769Z</time></trkpt><trkpt lat="42.7674343" lon="10.2128833"><ele>204.0</ele><time>2026-04-04T08:48:13.769Z</time></trkpt><trkpt lat="42.767376" lon="10.2127628"><ele>206.0</ele><time>2026-04-04T08:48:14.769Z</time></trkpt><trkpt lat="42.7673177" lon="10.2126488"><ele>208.0</ele><time>2026-04-04T08:48:15.769Z</time></trkpt><trkpt lat="42.7672603" lon="10.21254"><ele>210.0</ele><time>2026-04-04T08:48:16.769Z</time></trkpt><trkpt lat="42.7671968" lon="10.2124364"><ele>210.0</ele><time>2026-04-04T08:48:17.769Z</time></trkpt><trkpt lat="42.7671316" lon="10.2123316"><ele>210.0</ele><time>2026-04-04T08:48:18.769Z</time></trkpt><trkpt lat="42.7670661" lon="10.2122291"><ele>210.0</ele><time>2026-04-04T08:48:19.769Z</time></trkpt><trkpt lat="42.7670051" lon="10.2121286"><ele>210.0</ele><time>2026-04-04T08:48:20.769Z</time></trkpt><trkpt lat="42.766953" lon="10.2120424"><ele>210.0</ele><time>2026-04-04T08:48:21.769Z</time></trkpt><trkpt lat="42.7668956" lon="10.2119788"><ele>210.16666666666666</ele><time>2026-04-04T08:48:22.768Z</time></trkpt><trkpt lat="42.766821" lon="10.2119423"><ele>210.33333333333331</ele><time>2026-04-04T08:48:23.769Z</time></trkpt><trkpt lat="42.7667428" lon="10.2119351"><ele>210.5</ele><time>2026-04-04T08:48:24.769Z</time></trkpt><trkpt lat="42.7666672" lon="10.2119456"><ele>210.66666666666666</ele><time>2026-04-04T08:48:25.769Z</time></trkpt><trkpt lat="42.7666042" lon="10.2119563"><ele>210.83333333333331</ele><time>2026-04-04T08:48:26.769Z</time></trkpt><trkpt lat="42.7665053" lon="10.2120458"><ele>211.0</ele><time>2026-04-04T08:48:28.769Z</time></trkpt><trkpt lat="42.7664348" lon="10.2120899"><ele>210.99999999999997</ele><time>2026-04-04T08:48:29.769Z</time></trkpt><trkpt lat="42.7663576" lon="10.2121296"><ele>211.0</ele><time>2026-04-04T08:48:30.769Z</time></trkpt><trkpt lat="42.766275" lon="10.2121663"><ele>211.0</ele><time>2026-04-04T08:48:31.769Z</time></trkpt><trkpt lat="42.7661887" lon="10.2122095"><ele>211.0</ele><time>2026-04-04T08:48:32.769Z</time></trkpt><trkpt lat="42.7660961" lon="10.2122478"><ele>210.99999999999997</ele><time>2026-04-04T08:48:33.769Z</time></trkpt><trkpt lat="42.7660254" lon="10.2123144"><ele>211.0</ele><time>2026-04-04T08:48:34.769Z</time></trkpt><trkpt lat="42.7659572" lon="10.2123924"><ele>209.49999999999997</ele><time>2026-04-04T08:48:35.769Z</time></trkpt><trkpt lat="42.7658964" lon="10.2124572"><ele>208.0</ele><time>2026-04-04T08:48:36.769Z</time></trkpt><trkpt lat="42.7658343" lon="10.2125041"><ele>206.5</ele><time>2026-04-04T08:48:37.769Z</time></trkpt><trkpt lat="42.7657655" lon="10.2125376"><ele>205.0</ele><time>2026-04-04T08:48:38.768Z</time></trkpt><trkpt lat="42.7656882" lon="10.2125776"><ele>203.49999999999997</ele><time>2026-04-04T08:48:39.769Z</time></trkpt><trkpt lat="42.7656241" lon="10.2126176"><ele>202.0</ele><time>2026-04-04T08:48:40.769Z</time></trkpt><trkpt lat="42.7655596" lon="10.2126742"><ele>202.0</ele><time>2026-04-04T08:48:41.769Z</time></trkpt><trkpt lat="42.7654965" lon="10.2127428"><ele>202.0</ele><time>2026-04-04T08:48:42.769Z</time></trkpt><trkpt lat="42.7654201" lon="10.2128159"><ele>202.0</ele><time>2026-04-04T08:48:43.769Z</time></trkpt><trkpt lat="42.765346" lon="10.212896"><ele>202.0</ele><time>2026-04-04T08:48:44.768Z</time></trkpt><trkpt lat="42.7652688" lon="10.2129694"><ele>202.0</ele><time>2026-04-04T08:48:45.769Z</time></trkpt><trkpt lat="42.7651839" lon="10.2130403"><ele>202.2</ele><time>2026-04-04T08:48:46.769Z</time></trkpt><trkpt lat="42.7651108" lon="10.2131125"><ele>202.39999999999998</ele><time>2026-04-04T08:48:47.769Z</time></trkpt><trkpt lat="42.7650405" lon="10.213183"><ele>202.60000000000002</ele><time>2026-04-04T08:48:48.768Z</time></trkpt><trkpt lat="42.7649664" lon="10.2132497"><ele>202.8</ele><time>2026-04-04T08:48:49.769Z</time></trkpt><trkpt lat="42.7648972" lon="10.2133266"><ele>203.0</ele><time>2026-04-04T08:48:50.769Z</time></trkpt><trkpt lat="42.7648197" lon="10.2134037"><ele>202.00000000000003</ele><time>2026-04-04T08:48:51.769Z</time></trkpt><trkpt lat="42.7647512" lon="10.2134703"><ele>201.0</ele><time>2026-04-04T08:48:52.768Z</time></trkpt><trkpt lat="42.7646838" lon="10.2135292"><ele>200.0</ele><time>2026-04-04T08:48:53.769Z</time></trkpt><trkpt lat="42.7646247" lon="10.2135815"><ele>199.0</ele><time>2026-04-04T08:48:54.769Z</time></trkpt><trkpt lat="42.7645183" lon="10.2136655"><ele>198.00000000000003</ele><time>2026-04-04T08:48:56.769Z</time></trkpt><trkpt lat="42.7645319" lon="10.213574"><ele>197.0</ele><time>2026-04-04T08:49:04.769Z</time></trkpt><trkpt lat="42.7645252" lon="10.2136724"><ele>197.0</ele><time>2026-04-04T08:49:25.769Z</time></trkpt><trkpt lat="42.7644684" lon="10.213732"><ele>197.0</ele><time>2026-04-04T08:49:28.768Z</time></trkpt><trkpt lat="42.7644057" lon="10.2137204"><ele>197.0</ele><time>2026-04-04T08:49:32.769Z</time></trkpt><trkpt lat="42.7643476" lon="10.2137757"><ele>198.0</ele><time>2026-04-04T08:49:55.768Z</time></trkpt></trkseg><trkseg><trkpt lat="42.7643969" lon="10.2138184"><ele>197.2</ele><time>2026-04-04T09:33:32.757Z</time></trkpt><trkpt lat="42.7642905" lon="10.2137204"><ele>197.39999999999998</ele><time>2026-04-04T09:37:40.757Z</time></trkpt><trkpt lat="42.7642196" lon="10.213699"><ele>197.60000000000002</ele><time>2026-04-04T09:37:41.757Z</time></trkpt><trkpt lat="42.7641134" lon="10.2136726"><ele>197.8</ele><time>2026-04-04T09:37:43.757Z</time></trkpt><trkpt lat="42.7639957" lon="10.2136278"><ele>198.0</ele><time>2026-04-04T09:37:45.757Z</time></trkpt><trkpt lat="42.7639397" lon="10.2135875"><ele>198.0</ele><time>2026-04-04T09:37:46.757Z</time></trkpt><trkpt lat="42.7638817" lon="10.2135427"><ele>198.0</ele><time>2026-04-04T09:37:49.757Z</time></trkpt><trkpt lat="42.7638268" lon="10.2134777"><ele>198.0</ele><time>2026-04-04T09:37:52.757Z</time></trkpt><trkpt lat="42.7638007" lon="10.2133978"><ele>198.0</ele><time>2026-04-04T09:37:53.757Z</time></trkpt><trkpt lat="42.7637758" lon="10.2133052"><ele>198.0</ele><time>2026-04-04T09:37:54.757Z</time></trkpt><trkpt lat="42.7637503" lon="10.2132138"><ele>198.0</ele><time>2026-04-04T09:37:55.757Z</time></trkpt><trkpt lat="42.7637236" lon="10.2131263"><ele>198.0</ele><time>2026-04-04T09:37:56.757Z</time></trkpt><trkpt lat="42.7636943" lon="10.2130426"><ele>198.16666666666666</ele><time>2026-04-04T09:37:57.757Z</time></trkpt><trkpt lat="42.7636652" lon="10.2129542"><ele>198.33333333333331</ele><time>2026-04-04T09:37:58.756Z</time></trkpt><trkpt lat="42.7636362" lon="10.2128641"><ele>198.5</ele><time>2026-04-04T09:37:59.757Z</time></trkpt><trkpt lat="42.7636115" lon="10.2127681"><ele>198.66666666666666</ele><time>2026-04-04T09:38:00.757Z</time></trkpt><trkpt lat="42.7635957" lon="10.2126612"><ele>198.83333333333331</ele><time>2026-04-04T09:38:01.756Z</time></trkpt><trkpt lat="42.7635879" lon="10.2125458"><ele>199.0</ele><time>2026-04-04T09:38:02.757Z</time></trkpt><trkpt lat="42.7635834" lon="10.212423"><ele>199.66666666666666</ele><time>2026-04-04T09:38:03.756Z</time></trkpt><trkpt lat="42.7635823" lon="10.2123058"><ele>200.33333333333331</ele><time>2026-04-04T09:38:04.757Z</time></trkpt><trkpt lat="42.7635764" lon="10.2121971"><ele>201.0</ele><time>2026-04-04T09:38:05.757Z</time></trkpt><trkpt lat="42.7635735" lon="10.2120813"><ele>201.66666666666669</ele><time>2026-04-04T09:38:06.757Z</time></trkpt><trkpt lat="42.7635771" lon="10.2119512"><ele>202.33333333333334</ele><time>2026-04-04T09:38:07.757Z</time></trkpt><trkpt lat="42.763583" lon="10.2118164"><ele>203.0</ele><time>2026-04-04T09:38:08.757Z</time></trkpt><trkpt lat="42.7635877" lon="10.2116851"><ele>203.00000000000003</ele><time>2026-04-04T09:38:09.757Z</time></trkpt><trkpt lat="42.7635942" lon="10.2115707"><ele>203.0</ele><time>2026-04-04T09:38:10.757Z</time></trkpt><trkpt lat="42.7635984" lon="10.2114754"><ele>203.0</ele><time>2026-04-04T09:38:11.757Z</time></trkpt><trkpt lat="42.7635937" lon="10.2113158"><ele>203.0</ele><time>2026-04-04T09:38:13.757Z</time></trkpt><trkpt lat="42.7635925" lon="10.2112262"><ele>203.00000000000003</ele><time>2026-04-04T09:38:14.757Z</time></trkpt><trkpt lat="42.7635944" lon="10.2111242"><ele>203.0</ele><time>2026-04-04T09:38:15.757Z</time></trkpt><trkpt lat="42.7635847" lon="10.2110097"><ele>203.8</ele><time>2026-04-04T09:38:16.757Z</time></trkpt><trkpt lat="42.7635529" lon="10.2108834"><ele>204.60000000000002</ele><time>2026-04-04T09:38:17.757Z</time></trkpt><trkpt lat="42.7635099" lon="10.210755"><ele>205.39999999999998</ele><time>2026-04-04T09:38:18.757Z</time></trkpt><trkpt lat="42.7634665" lon="10.2106178"><ele>206.2</ele><time>2026-04-04T09:38:19.757Z</time></trkpt><trkpt lat="42.763444" lon="10.2104865"><ele>207.0</ele><time>2026-04-04T09:38:20.757Z</time></trkpt><trkpt lat="42.7634423" lon="10.2103667"><ele>206.8</ele><time>2026-04-04T09:38:21.757Z</time></trkpt><trkpt lat="42.7634591" lon="10.2102417"><ele>206.6</ele><time>2026-04-04T09:38:22.757Z</time></trkpt><trkpt lat="42.7634959" lon="10.2101127"><ele>206.4</ele><time>2026-04-04T09:38:23.757Z</time></trkpt><trkpt lat="42.7635628" lon="10.2099769"><ele>206.20000000000002</ele><time>2026-04-04T09:38:24.756Z</time></trkpt><trkpt lat="42.7636405" lon="10.2098286"><ele>206.0</ele><time>2026-04-04T09:38:25.757Z</time></trkpt><trkpt lat="42.7637092" lon="10.2096721"><ele>204.5</ele><time>2026-04-04T09:38:26.757Z</time></trkpt><trkpt lat="42.763772" lon="10.209517"><ele>203.0</ele><time>2026-04-04T09:38:27.757Z</time></trkpt><trkpt lat="42.7638429" lon="10.2093781"><ele>201.5</ele><time>2026-04-04T09:38:28.757Z</time></trkpt><trkpt lat="42.7639133" lon="10.2092558"><ele>200.0</ele><time>2026-04-04T09:38:29.757Z</time></trkpt><trkpt lat="42.7639697" lon="10.209147"><ele>200.00000000000003</ele><time>2026-04-04T09:38:30.757Z</time></trkpt><trkpt lat="42.7639916" lon="10.2090551"><ele>200.0</ele><time>2026-04-04T09:38:31.757Z</time></trkpt><trkpt lat="42.7639748" lon="10.2089517"><ele>200.0</ele><time>2026-04-04T09:38:32.757Z</time></trkpt><trkpt lat="42.7639428" lon="10.2088466"><ele>200.0</ele><time>2026-04-04T09:38:33.757Z</time></trkpt><trkpt lat="42.7638537" lon="10.2087689"><ele>200.00000000000003</ele><time>2026-04-04T09:38:34.756Z</time></trkpt><trkpt lat="42.7637736" lon="10.2087144"><ele>200.0</ele><time>2026-04-04T09:38:35.757Z</time></trkpt><trkpt lat="42.7636898" lon="10.208705"><ele>200.25</ele><time>2026-04-04T09:38:36.757Z</time></trkpt><trkpt lat="42.7635983" lon="10.2087581"><ele>200.5</ele><time>2026-04-04T09:38:37.757Z</time></trkpt><trkpt lat="42.7634959" lon="10.2088417"><ele>200.75</ele><time>2026-04-04T09:38:38.757Z</time></trkpt><trkpt lat="42.763385" lon="10.2089212"><ele>201.0</ele><time>2026-04-04T09:38:39.756Z</time></trkpt><trkpt lat="42.7632631" lon="10.2089846"><ele>198.75</ele><time>2026-04-04T09:38:40.757Z</time></trkpt><trkpt lat="42.7631437" lon="10.2090508"><ele>196.5</ele><time>2026-04-04T09:38:41.757Z</time></trkpt><trkpt lat="42.7630422" lon="10.2091379"><ele>194.25</ele><time>2026-04-04T09:38:42.757Z</time></trkpt><trkpt lat="42.7629542" lon="10.2092449"><ele>192.0</ele><time>2026-04-04T09:38:43.757Z</time></trkpt><trkpt lat="42.7628526" lon="10.2093343"><ele>192.0</ele><time>2026-04-04T09:38:44.757Z</time></trkpt><trkpt lat="42.7627309" lon="10.2093986"><ele>192.0</ele><time>2026-04-04T09:38:45.757Z</time></trkpt><trkpt lat="42.7626069" lon="10.2094589"><ele>192.0</ele><time>2026-04-04T09:38:46.756Z</time></trkpt><trkpt lat="42.7624912" lon="10.2095246"><ele>192.0</ele><time>2026-04-04T09:38:47.756Z</time></trkpt><trkpt lat="42.7623934" lon="10.2095932"><ele>191.6</ele><time>2026-04-04T09:38:48.757Z</time></trkpt><trkpt lat="42.762306" lon="10.2096634"><ele>191.2</ele><time>2026-04-04T09:38:49.757Z</time></trkpt><trkpt lat="42.7622212" lon="10.2097286"><ele>190.8</ele><time>2026-04-04T09:38:50.756Z</time></trkpt><trkpt lat="42.7621376" lon="10.2097948"><ele>190.4</ele><time>2026-04-04T09:38:51.756Z</time></trkpt><trkpt lat="42.762062" lon="10.2098638"><ele>190.0</ele><time>2026-04-04T09:38:52.757Z</time></trkpt><trkpt lat="42.7620036" lon="10.2099512"><ele>190.0</ele><time>2026-04-04T09:38:53.756Z</time></trkpt><trkpt lat="42.7619613" lon="10.2100603"><ele>190.0</ele><time>2026-04-04T09:38:54.757Z</time></trkpt><trkpt lat="42.7619314" lon="10.2101729"><ele>190.0</ele><time>2026-04-04T09:38:55.757Z</time></trkpt><trkpt lat="42.761905" lon="10.2102787"><ele>190.0</ele><time>2026-04-04T09:38:56.757Z</time></trkpt><trkpt lat="42.7618688" lon="10.2103726"><ele>190.0</ele><time>2026-04-04T09:38:57.757Z</time></trkpt><trkpt lat="42.7618174" lon="10.2104544"><ele>190.0</ele><time>2026-04-04T09:38:58.757Z</time></trkpt><trkpt lat="42.7617296" lon="10.2105063"><ele>191.0</ele><time>2026-04-04T09:38:59.757Z</time></trkpt><trkpt lat="42.7616386" lon="10.2105625"><ele>192.0</ele><time>2026-04-04T09:39:00.757Z</time></trkpt><trkpt lat="42.7615452" lon="10.2106306"><ele>193.0</ele><time>2026-04-04T09:39:01.756Z</time></trkpt><trkpt lat="42.7614542" lon="10.210707"><ele>194.0</ele><time>2026-04-04T09:39:02.757Z</time></trkpt><trkpt lat="42.7613675" lon="10.2107802"><ele>195.0</ele><time>2026-04-04T09:39:03.756Z</time></trkpt><trkpt lat="42.7612726" lon="10.2108429"><ele>195.0</ele><time>2026-04-04T09:39:04.757Z</time></trkpt><trkpt lat="42.7611646" lon="10.2108846"><ele>195.0</ele><time>2026-04-04T09:39:05.757Z</time></trkpt><trkpt lat="42.7610557" lon="10.2109111"><ele>195.0</ele><time>2026-04-04T09:39:06.757Z</time></trkpt><trkpt lat="42.7609485" lon="10.2109362"><ele>195.0</ele><time>2026-04-04T09:39:07.757Z</time></trkpt><trkpt lat="42.7608445" lon="10.2109783"><ele>195.0</ele><time>2026-04-04T09:39:08.757Z</time></trkpt><trkpt lat="42.760753" lon="10.2110428"><ele>196.66666666666666</ele><time>2026-04-04T09:39:09.757Z</time></trkpt><trkpt lat="42.7606808" lon="10.2111188"><ele>198.33333333333331</ele><time>2026-04-04T09:39:10.757Z</time></trkpt><trkpt lat="42.7606261" lon="10.2111955"><ele>200.0</ele><time>2026-04-04T09:39:11.757Z</time></trkpt><trkpt lat="42.760577" lon="10.2112713"><ele>201.66666666666666</ele><time>2026-04-04T09:39:12.756Z</time></trkpt><trkpt lat="42.7605255" lon="10.2113502"><ele>203.33333333333331</ele><time>2026-04-04T09:39:13.756Z</time></trkpt><trkpt lat="42.7604566" lon="10.2114163"><ele>205.0</ele><time>2026-04-04T09:39:14.757Z</time></trkpt><trkpt lat="42.7603671" lon="10.211459"><ele>204.33333333333331</ele><time>2026-04-04T09:39:15.756Z</time></trkpt><trkpt lat="42.7602732" lon="10.2114924"><ele>203.66666666666666</ele><time>2026-04-04T09:39:16.757Z</time></trkpt><trkpt lat="42.7601918" lon="10.2115298"><ele>203.0</ele><time>2026-04-04T09:39:17.757Z</time></trkpt><trkpt lat="42.7601289" lon="10.2115621"><ele>202.33333333333331</ele><time>2026-04-04T09:39:18.757Z</time></trkpt><trkpt lat="42.7600249" lon="10.2115326"><ele>201.66666666666666</ele><time>2026-04-04T09:39:20.757Z</time></trkpt><trkpt lat="42.7599907" lon="10.2114483"><ele>201.0</ele><time>2026-04-04T09:39:21.757Z</time></trkpt><trkpt lat="42.7599803" lon="10.2113462"><ele>202.8</ele><time>2026-04-04T09:39:22.756Z</time></trkpt><trkpt lat="42.7599912" lon="10.2112383"><ele>204.60000000000002</ele><time>2026-04-04T09:39:23.757Z</time></trkpt><trkpt lat="42.7600185" lon="10.2111272"><ele>206.4</ele><time>2026-04-04T09:39:24.757Z</time></trkpt><trkpt lat="42.7600656" lon="10.2110131"><ele>208.2</ele><time>2026-04-04T09:39:25.757Z</time></trkpt><trkpt lat="42.7601283" lon="10.2109048"><ele>210.0</ele><time>2026-04-04T09:39:26.757Z</time></trkpt><trkpt lat="42.7601941" lon="10.2108043"><ele>209.16666666666666</ele><time>2026-04-04T09:39:27.757Z</time></trkpt><trkpt lat="42.7602558" lon="10.2107032"><ele>208.33333333333331</ele><time>2026-04-04T09:39:28.757Z</time></trkpt><trkpt lat="42.7603169" lon="10.2106065"><ele>207.5</ele><time>2026-04-04T09:39:29.757Z</time></trkpt><trkpt lat="42.7603703" lon="10.2105258"><ele>206.66666666666666</ele><time>2026-04-04T09:39:30.757Z</time></trkpt><trkpt lat="42.7604208" lon="10.210461"><ele>205.83333333333331</ele><time>2026-04-04T09:39:31.756Z</time></trkpt><trkpt lat="42.7604781" lon="10.2103922"><ele>205.0</ele><time>2026-04-04T09:39:32.757Z</time></trkpt><trkpt lat="42.7605382" lon="10.2103059"><ele>207.16666666666666</ele><time>2026-04-04T09:39:33.756Z</time></trkpt><trkpt lat="42.7605851" lon="10.210204"><ele>209.33333333333331</ele><time>2026-04-04T09:39:34.757Z</time></trkpt><trkpt lat="42.7606126" lon="10.2100811"><ele>211.5</ele><time>2026-04-04T09:39:35.757Z</time></trkpt><trkpt lat="42.7606232" lon="10.2099556"><ele>213.66666666666669</ele><time>2026-04-04T09:39:36.757Z</time></trkpt><trkpt lat="42.7606307" lon="10.2098376"><ele>215.83333333333334</ele><time>2026-04-04T09:39:37.757Z</time></trkpt><trkpt lat="42.760634" lon="10.2097444"><ele>218.0</ele><time>2026-04-04T09:39:38.756Z</time></trkpt><trkpt lat="42.7607182" lon="10.2096289"><ele>219.83333333333334</ele><time>2026-04-04T09:39:40.757Z</time></trkpt><trkpt lat="42.760784" lon="10.2096233"><ele>221.66666666666669</ele><time>2026-04-04T09:39:41.757Z</time></trkpt><trkpt lat="42.7608497" lon="10.2096274"><ele>223.5</ele><time>2026-04-04T09:39:42.757Z</time></trkpt><trkpt lat="42.760914" lon="10.2095777"><ele>225.33333333333331</ele><time>2026-04-04T09:39:43.757Z</time></trkpt><trkpt lat="42.7609565" lon="10.2094867"><ele>227.16666666666666</ele><time>2026-04-04T09:39:44.757Z</time></trkpt><trkpt lat="42.7609744" lon="10.2093678"><ele>229.0</ele><time>2026-04-04T09:39:45.757Z</time></trkpt><trkpt lat="42.7609917" lon="10.2092296"><ele>229.0</ele><time>2026-04-04T09:39:46.757Z</time></trkpt><trkpt lat="42.7610158" lon="10.2090907"><ele>228.99999999999997</ele><time>2026-04-04T09:39:47.757Z</time></trkpt><trkpt lat="42.7610572" lon="10.2089571"><ele>228.99999999999997</ele><time>2026-04-04T09:39:48.757Z</time></trkpt><trkpt lat="42.7611046" lon="10.2088249"><ele>229.0</ele><time>2026-04-04T09:39:49.757Z</time></trkpt><trkpt lat="42.7611832" lon="10.2086958"><ele>229.0</ele><time>2026-04-04T09:39:50.757Z</time></trkpt><trkpt lat="42.7612509" lon="10.2085498"><ele>231.0</ele><time>2026-04-04T09:39:51.756Z</time></trkpt><trkpt lat="42.7613238" lon="10.2084131"><ele>233.0</ele><time>2026-04-04T09:39:52.757Z</time></trkpt><trkpt lat="42.7614007" lon="10.2082731"><ele>235.0</ele><time>2026-04-04T09:39:53.757Z</time></trkpt><trkpt lat="42.7614691" lon="10.2081323"><ele>237.0</ele><time>2026-04-04T09:39:54.756Z</time></trkpt><trkpt lat="42.7615407" lon="10.2079922"><ele>239.25</ele><time>2026-04-04T09:39:55.757Z</time></trkpt><trkpt lat="42.7616126" lon="10.2078506"><ele>241.5</ele><time>2026-04-04T09:39:56.757Z</time></trkpt><trkpt lat="42.761688" lon="10.2077125"><ele>243.75</ele><time>2026-04-04T09:39:57.757Z</time></trkpt><trkpt lat="42.7617542" lon="10.2075741"><ele>246.0</ele><time>2026-04-04T09:39:58.757Z</time></trkpt><trkpt lat="42.7618003" lon="10.2074301"><ele>246.25</ele><time>2026-04-04T09:39:59.757Z</time></trkpt><trkpt lat="42.7618456" lon="10.2072816"><ele>246.5</ele><time>2026-04-04T09:40:00.756Z</time></trkpt><trkpt lat="42.76185" lon="10.2071083"><ele>246.75</ele><time>2026-04-04T09:40:01.756Z</time></trkpt><trkpt lat="42.7618765" lon="10.2069458"><ele>247.0</ele><time>2026-04-04T09:40:02.757Z</time></trkpt><trkpt lat="42.7618984" lon="10.2067812"><ele>247.0</ele><time>2026-04-04T09:40:03.757Z</time></trkpt><trkpt lat="42.7619174" lon="10.2066239"><ele>247.0</ele><time>2026-04-04T09:40:04.757Z</time></trkpt><trkpt lat="42.7619425" lon="10.2064788"><ele>247.0</ele><time>2026-04-04T09:40:05.757Z</time></trkpt><trkpt lat="42.761983" lon="10.2063674"><ele>247.0</ele><time>2026-04-04T09:40:06.757Z</time></trkpt><trkpt lat="42.7620424" lon="10.2062913"><ele>247.0</ele><time>2026-04-04T09:40:07.757Z</time></trkpt><trkpt lat="42.7621128" lon="10.2062377"><ele>249.33333333333331</ele><time>2026-04-04T09:40:08.757Z</time></trkpt><trkpt lat="42.762205" lon="10.2062042"><ele>251.66666666666666</ele><time>2026-04-04T09:40:09.757Z</time></trkpt><trkpt lat="42.7622955" lon="10.2061684"><ele>254.0</ele><time>2026-04-04T09:40:10.757Z</time></trkpt><trkpt lat="42.7623782" lon="10.2061256"><ele>256.3333333333333</ele><time>2026-04-04T09:40:11.756Z</time></trkpt><trkpt lat="42.7624348" lon="10.2060592"><ele>258.6666666666667</ele><time>2026-04-04T09:40:12.757Z</time></trkpt><trkpt lat="42.7624788" lon="10.2059911"><ele>261.0</ele><time>2026-04-04T09:40:13.757Z</time></trkpt><trkpt lat="42.7624542" lon="10.2058799"><ele>261.0</ele><time>2026-04-04T09:40:14.757Z</time></trkpt><trkpt lat="42.7624155" lon="10.205794"><ele>261.0</ele><time>2026-04-04T09:40:15.757Z</time></trkpt><trkpt lat="42.7623494" lon="10.205709"><ele>261.0</ele><time>2026-04-04T09:40:16.756Z</time></trkpt><trkpt lat="42.7622989" lon="10.2056025"><ele>261.0</ele><time>2026-04-04T09:40:17.757Z</time></trkpt><trkpt lat="42.7622647" lon="10.2054671"><ele>261.0</ele><time>2026-04-04T09:40:18.757Z</time></trkpt><trkpt lat="42.7622487" lon="10.2053189"><ele>263.0</ele><time>2026-04-04T09:40:19.757Z</time></trkpt><trkpt lat="42.7622366" lon="10.2051744"><ele>265.0</ele><time>2026-04-04T09:40:20.757Z</time></trkpt><trkpt lat="42.7622283" lon="10.2050326"><ele>267.0</ele><time>2026-04-04T09:40:21.757Z</time></trkpt><trkpt lat="42.7622228" lon="10.2048991"><ele>269.0</ele><time>2026-04-04T09:40:22.757Z</time></trkpt><trkpt lat="42.7622342" lon="10.2047748"><ele>271.0</ele><time>2026-04-04T09:40:23.757Z</time></trkpt><trkpt lat="42.7622721" lon="10.2046689"><ele>272.8333333333333</ele><time>2026-04-04T09:40:24.757Z</time></trkpt><trkpt lat="42.7623216" lon="10.2045857"><ele>274.66666666666663</ele><time>2026-04-04T09:40:25.757Z</time></trkpt><trkpt lat="42.76237" lon="10.2044919"><ele>276.5</ele><time>2026-04-04T09:40:26.757Z</time></trkpt><trkpt lat="42.7623879" lon="10.2043848"><ele>278.3333333333333</ele><time>2026-04-04T09:40:27.757Z</time></trkpt><trkpt lat="42.7623768" lon="10.2042702"><ele>280.1666666666667</ele><time>2026-04-04T09:40:28.756Z</time></trkpt><trkpt lat="42.7623442" lon="10.2041585"><ele>282.0</ele><time>2026-04-04T09:40:29.757Z</time></trkpt><trkpt lat="42.7622781" lon="10.204055"><ele>284.4</ele><time>2026-04-04T09:40:30.757Z</time></trkpt><trkpt lat="42.7622013" lon="10.2039621"><ele>286.79999999999995</ele><time>2026-04-04T09:40:31.757Z</time></trkpt><trkpt lat="42.7621165" lon="10.2038692"><ele>289.2</ele><time>2026-04-04T09:40:32.757Z</time></trkpt><trkpt lat="42.7620285" lon="10.2037782"><ele>291.59999999999997</ele><time>2026-04-04T09:40:33.757Z</time></trkpt><trkpt lat="42.7619396" lon="10.2037025"><ele>294.0</ele><time>2026-04-04T09:40:34.757Z</time></trkpt><trkpt lat="42.761854" lon="10.2036483"><ele>294.0</ele><time>2026-04-04T09:40:35.757Z</time></trkpt><trkpt lat="42.7617615" lon="10.2036079"><ele>294.0</ele><time>2026-04-04T09:40:36.757Z</time></trkpt><trkpt lat="42.7616724" lon="10.2035623"><ele>294.0</ele><time>2026-04-04T09:40:37.757Z</time></trkpt><trkpt lat="42.7615839" lon="10.2035027"><ele>294.0</ele><time>2026-04-04T09:40:38.757Z</time></trkpt><trkpt lat="42.7615013" lon="10.2034128"><ele>294.0</ele><time>2026-04-04T09:40:39.757Z</time></trkpt><trkpt lat="42.761418" lon="10.2033178"><ele>294.0</ele><time>2026-04-04T09:40:40.757Z</time></trkpt><trkpt lat="42.7613843" lon="10.2031725"><ele>294.0</ele><time>2026-04-04T09:40:41.757Z</time></trkpt><trkpt lat="42.7613369" lon="10.2030395"><ele>294.0</ele><time>2026-04-04T09:40:42.757Z</time></trkpt><trkpt lat="42.7612901" lon="10.2029117"><ele>294.0</ele><time>2026-04-04T09:40:43.757Z</time></trkpt><trkpt lat="42.7612541" lon="10.2027814"><ele>294.0</ele><time>2026-04-04T09:40:44.757Z</time></trkpt><trkpt lat="42.7612317" lon="10.2026571"><ele>296.1666666666667</ele><time>2026-04-04T09:40:45.757Z</time></trkpt><trkpt lat="42.7612236" lon="10.2025426"><ele>298.3333333333333</ele><time>2026-04-04T09:40:46.757Z</time></trkpt><trkpt lat="42.7612386" lon="10.2024334"><ele>300.5</ele><time>2026-04-04T09:40:47.757Z</time></trkpt><trkpt lat="42.7612818" lon="10.2023364"><ele>302.66666666666663</ele><time>2026-04-04T09:40:48.757Z</time></trkpt><trkpt lat="42.7613272" lon="10.2022465"><ele>304.8333333333333</ele><time>2026-04-04T09:40:49.757Z</time></trkpt><trkpt lat="42.7613486" lon="10.2021589"><ele>307.0</ele><time>2026-04-04T09:40:50.756Z</time></trkpt><trkpt lat="42.7613573" lon="10.2020244"><ele>307.0</ele><time>2026-04-04T09:40:52.756Z</time></trkpt><trkpt lat="42.7614392" lon="10.2019744"><ele>307.0</ele><time>2026-04-04T09:40:54.756Z</time></trkpt><trkpt lat="42.7614861" lon="10.2020993"><ele>307.0</ele><time>2026-04-04T09:40:56.757Z</time></trkpt><trkpt lat="42.7614922" lon="10.2021966"><ele>307.0</ele><time>2026-04-04T09:40:57.757Z</time></trkpt><trkpt lat="42.7615205" lon="10.2022779"><ele>307.0</ele><time>2026-04-04T09:40:58.757Z</time></trkpt><trkpt lat="42.7615673" lon="10.2023385"><ele>307.0</ele><time>2026-04-04T09:40:59.757Z</time></trkpt><trkpt lat="42.7616749" lon="10.2023647"><ele>309.8</ele><time>2026-04-04T09:41:01.756Z</time></trkpt><trkpt lat="42.7617648" lon="10.2022988"><ele>312.6</ele><time>2026-04-04T09:41:02.757Z</time></trkpt><trkpt lat="42.7618395" lon="10.2022501"><ele>315.40000000000003</ele><time>2026-04-04T09:41:03.757Z</time></trkpt><trkpt lat="42.7619137" lon="10.2021861"><ele>318.2</ele><time>2026-04-04T09:41:04.757Z</time></trkpt><trkpt lat="42.7619705" lon="10.2021284"><ele>321.0</ele><time>2026-04-04T09:41:05.757Z</time></trkpt><trkpt lat="42.7619948" lon="10.2019802"><ele>321.0</ele><time>2026-04-04T09:41:07.757Z</time></trkpt><trkpt lat="42.7619034" lon="10.2019046"><ele>321.0</ele><time>2026-04-04T09:41:09.757Z</time></trkpt><trkpt lat="42.7618187" lon="10.2019218"><ele>321.0</ele><time>2026-04-04T09:41:11.757Z</time></trkpt><trkpt lat="42.7617517" lon="10.2018394"><ele>321.0</ele><time>2026-04-04T09:41:13.756Z</time></trkpt><trkpt lat="42.7617935" lon="10.2016848"><ele>321.0</ele><time>2026-04-04T09:41:15.757Z</time></trkpt><trkpt lat="42.7618233" lon="10.2015992"><ele>321.0</ele><time>2026-04-04T09:41:16.756Z</time></trkpt><trkpt lat="42.7618534" lon="10.2015189"><ele>321.0</ele><time>2026-04-04T09:41:17.756Z</time></trkpt><trkpt lat="42.7618761" lon="10.2014152"><ele>321.0</ele><time>2026-04-04T09:41:18.757Z</time></trkpt><trkpt lat="42.7618688" lon="10.2013173"><ele>321.0</ele><time>2026-04-04T09:41:19.757Z</time></trkpt><trkpt lat="42.7618393" lon="10.2012183"><ele>321.0</ele><time>2026-04-04T09:41:20.757Z</time></trkpt><trkpt lat="42.7617873" lon="10.2011312"><ele>321.0</ele><time>2026-04-04T09:41:21.757Z</time></trkpt><trkpt lat="42.761718" lon="10.2010592"><ele>326.20000000000005</ele><time>2026-04-04T09:41:22.757Z</time></trkpt><trkpt lat="42.7616267" lon="10.2010148"><ele>331.40000000000003</ele><time>2026-04-04T09:41:23.756Z</time></trkpt><trkpt lat="42.7615265" lon="10.2009842"><ele>336.6</ele><time>2026-04-04T09:41:24.757Z</time></trkpt><trkpt lat="42.7614226" lon="10.2009561"><ele>341.8</ele><time>2026-04-04T09:41:25.757Z</time></trkpt><trkpt lat="42.7613119" lon="10.2009297"><ele>347.0</ele><time>2026-04-04T09:41:26.757Z</time></trkpt><trkpt lat="42.7612037" lon="10.2009063"><ele>347.0</ele><time>2026-04-04T09:41:27.757Z</time></trkpt><trkpt lat="42.7610783" lon="10.2008968"><ele>347.0</ele><time>2026-04-04T09:41:28.757Z</time></trkpt><trkpt lat="42.760951" lon="10.2008729"><ele>347.0</ele><time>2026-04-04T09:41:29.757Z</time></trkpt><trkpt lat="42.7608309" lon="10.2008579"><ele>347.0</ele><time>2026-04-04T09:41:30.757Z</time></trkpt><trkpt lat="42.7607233" lon="10.2008496"><ele>346.1666666666667</ele><time>2026-04-04T09:41:31.757Z</time></trkpt><trkpt lat="42.7606295" lon="10.2008387"><ele>345.33333333333337</ele><time>2026-04-04T09:41:32.757Z</time></trkpt><trkpt lat="42.7605508" lon="10.2008157"><ele>344.5</ele><time>2026-04-04T09:41:33.757Z</time></trkpt><trkpt lat="42.7604705" lon="10.2007725"><ele>343.6666666666667</ele><time>2026-04-04T09:41:34.757Z</time></trkpt><trkpt lat="42.7604044" lon="10.2007039"><ele>342.8333333333333</ele><time>2026-04-04T09:41:35.756Z</time></trkpt><trkpt lat="42.7603549" lon="10.20065"><ele>342.0</ele><time>2026-04-04T09:41:36.757Z</time></trkpt><trkpt lat="42.7603436" lon="10.2005113"><ele>347.0</ele><time>2026-04-04T09:41:38.757Z</time></trkpt><trkpt lat="42.7604551" lon="10.2004545"><ele>352.0</ele><time>2026-04-04T09:41:40.756Z</time></trkpt><trkpt lat="42.7605384" lon="10.2004612"><ele>357.0</ele><time>2026-04-04T09:41:41.757Z</time></trkpt><trkpt lat="42.7606261" lon="10.2004754"><ele>362.0</ele><time>2026-04-04T09:41:42.757Z</time></trkpt><trkpt lat="42.7607081" lon="10.2004732"><ele>367.0</ele><time>2026-04-04T09:41:43.756Z</time></trkpt><trkpt lat="42.7607899" lon="10.2004488"><ele>367.0</ele><time>2026-04-04T09:41:44.756Z</time></trkpt><trkpt lat="42.7608816" lon="10.2004197"><ele>367.0</ele><time>2026-04-04T09:41:45.757Z</time></trkpt><trkpt lat="42.7609725" lon="10.20039"><ele>367.0</ele><time>2026-04-04T09:41:46.757Z</time></trkpt><trkpt lat="42.7610641" lon="10.2003531"><ele>367.0</ele><time>2026-04-04T09:41:47.757Z</time></trkpt><trkpt lat="42.7611573" lon="10.2003169"><ele>367.0</ele><time>2026-04-04T09:41:48.757Z</time></trkpt><trkpt lat="42.7612501" lon="10.2002782"><ele>368.5</ele><time>2026-04-04T09:41:49.756Z</time></trkpt><trkpt lat="42.7613423" lon="10.2002574"><ele>370.0</ele><time>2026-04-04T09:41:50.757Z</time></trkpt><trkpt lat="42.7614314" lon="10.2002532"><ele>371.5</ele><time>2026-04-04T09:41:51.757Z</time></trkpt><trkpt lat="42.7615114" lon="10.2002597"><ele>373.0</ele><time>2026-04-04T09:41:52.756Z</time></trkpt><trkpt lat="42.7615868" lon="10.2002666"><ele>374.5</ele><time>2026-04-04T09:41:53.757Z</time></trkpt><trkpt lat="42.7616586" lon="10.2002738"><ele>376.0</ele><time>2026-04-04T09:41:54.756Z</time></trkpt><trkpt lat="42.7617294" lon="10.2002836"><ele>376.0</ele><time>2026-04-04T09:41:55.757Z</time></trkpt><trkpt lat="42.7617997" lon="10.2002938"><ele>376.0</ele><time>2026-04-04T09:41:56.756Z</time></trkpt><trkpt lat="42.7618697" lon="10.2003006"><ele>376.0</ele><time>2026-04-04T09:41:57.757Z</time></trkpt><trkpt lat="42.7619561" lon="10.2003054"><ele>376.0</ele><time>2026-04-04T09:41:59.757Z</time></trkpt><trkpt lat="42.7620372" lon="10.2002657"><ele>376.0</ele><time>2026-04-04T09:42:03.757Z</time></trkpt><trkpt lat="42.7621019" lon="10.2002605"><ele>376.0</ele><time>2026-04-04T09:42:08.757Z</time></trkpt><trkpt lat="42.762159" lon="10.2002163"><ele>376.0</ele><time>2026-04-04T09:42:59.757Z</time></trkpt><trkpt lat="42.7622533" lon="10.2001222"><ele>375.3333333333333</ele><time>2026-04-04T09:43:23.757Z</time></trkpt><trkpt lat="42.7623302" lon="10.2000512"><ele>374.66666666666663</ele><time>2026-04-04T09:43:25.757Z</time></trkpt><trkpt lat="42.7623901" lon="10.199988"><ele>374.0</ele><time>2026-04-04T09:58:56.757Z</time></trkpt><trkpt lat="42.7624147" lon="10.1998858"><ele>373.3333333333333</ele><time>2026-04-04T09:58:58.757Z</time></trkpt><trkpt lat="42.7624543" lon="10.1997703"><ele>372.6666666666667</ele><time>2026-04-04T09:59:00.756Z</time></trkpt><trkpt lat="42.7625248" lon="10.1996694"><ele>372.0</ele><time>2026-04-04T09:59:02.757Z</time></trkpt><trkpt lat="42.7626094" lon="10.1995814"><ele>373.40000000000003</ele><time>2026-04-04T09:59:04.757Z</time></trkpt><trkpt lat="42.7626943" lon="10.1994794"><ele>374.8</ele><time>2026-04-04T09:59:06.757Z</time></trkpt><trkpt lat="42.7627407" lon="10.1994177"><ele>376.2</ele><time>2026-04-04T09:59:07.757Z</time></trkpt><trkpt lat="42.7627955" lon="10.1993551"><ele>377.6</ele><time>2026-04-04T09:59:08.757Z</time></trkpt><trkpt lat="42.7628474" lon="10.1992963"><ele>379.0</ele><time>2026-04-04T09:59:09.757Z</time></trkpt><trkpt lat="42.7629617" lon="10.199204"><ele>379.00000000000006</ele><time>2026-04-04T09:59:11.757Z</time></trkpt><trkpt lat="42.7630135" lon="10.1991472"><ele>379.0</ele><time>2026-04-04T09:59:12.757Z</time></trkpt><trkpt lat="42.7630624" lon="10.199076"><ele>379.0</ele><time>2026-04-04T09:59:13.757Z</time></trkpt><trkpt lat="42.7630984" lon="10.1989874"><ele>379.0</ele><time>2026-04-04T09:59:14.757Z</time></trkpt><trkpt lat="42.7631347" lon="10.1988971"><ele>379.0</ele><time>2026-04-04T09:59:15.757Z</time></trkpt><trkpt lat="42.763168" lon="10.1988024"><ele>379.00000000000006</ele><time>2026-04-04T09:59:16.757Z</time></trkpt><trkpt lat="42.7631967" lon="10.1987032"><ele>379.0</ele><time>2026-04-04T09:59:17.757Z</time></trkpt><trkpt lat="42.7632346" lon="10.1986059"><ele>383.3333333333333</ele><time>2026-04-04T09:59:18.757Z</time></trkpt><trkpt lat="42.7632756" lon="10.1985014"><ele>387.66666666666663</ele><time>2026-04-04T09:59:19.757Z</time></trkpt><trkpt lat="42.7633247" lon="10.1984085"><ele>392.0</ele><time>2026-04-04T09:59:20.757Z</time></trkpt><trkpt lat="42.7633791" lon="10.198331"><ele>396.3333333333333</ele><time>2026-04-04T09:59:21.756Z</time></trkpt><trkpt lat="42.7634453" lon="10.1982512"><ele>400.6666666666667</ele><time>2026-04-04T09:59:22.757Z</time></trkpt><trkpt lat="42.7635022" lon="10.1981767"><ele>405.0</ele><time>2026-04-04T09:59:23.756Z</time></trkpt><trkpt lat="42.7635733" lon="10.1980658"><ele>405.8333333333333</ele><time>2026-04-04T09:59:25.756Z</time></trkpt><trkpt lat="42.7635703" lon="10.1979439"><ele>406.66666666666663</ele><time>2026-04-04T09:59:27.757Z</time></trkpt><trkpt lat="42.7635184" lon="10.1978942"><ele>407.5</ele><time>2026-04-04T09:59:28.757Z</time></trkpt><trkpt lat="42.7634503" lon="10.1979483"><ele>408.3333333333333</ele><time>2026-04-04T09:59:29.757Z</time></trkpt><trkpt lat="42.7633878" lon="10.1980017"><ele>409.16666666666663</ele><time>2026-04-04T09:59:30.756Z</time></trkpt><trkpt lat="42.763305" lon="10.1980668"><ele>410.0</ele><time>2026-04-04T09:59:31.757Z</time></trkpt><trkpt lat="42.7632149" lon="10.1981426"><ele>409.0</ele><time>2026-04-04T09:59:32.757Z</time></trkpt><trkpt lat="42.7631289" lon="10.198214"><ele>408.0</ele><time>2026-04-04T09:59:33.756Z</time></trkpt><trkpt lat="42.763047" lon="10.198284"><ele>407.0</ele><time>2026-04-04T09:59:34.757Z</time></trkpt><trkpt lat="42.762967" lon="10.1983527"><ele>406.0</ele><time>2026-04-04T09:59:35.757Z</time></trkpt><trkpt lat="42.7628844" lon="10.1984136"><ele>405.0</ele><time>2026-04-04T09:59:36.757Z</time></trkpt><trkpt lat="42.7627973" lon="10.1984573"><ele>405.0</ele><time>2026-04-04T09:59:37.757Z</time></trkpt><trkpt lat="42.7627097" lon="10.1984891"><ele>405.0</ele><time>2026-04-04T09:59:38.757Z</time></trkpt><trkpt lat="42.7626137" lon="10.1985211"><ele>405.0</ele><time>2026-04-04T09:59:39.757Z</time></trkpt><trkpt lat="42.7625158" lon="10.1985348"><ele>405.0</ele><time>2026-04-04T09:59:40.757Z</time></trkpt><trkpt lat="42.7624176" lon="10.1985461"><ele>405.0</ele><time>2026-04-04T09:59:41.757Z</time></trkpt><trkpt lat="42.7623244" lon="10.1985568"><ele>408.6</ele><time>2026-04-04T09:59:42.757Z</time></trkpt><trkpt lat="42.7622272" lon="10.1985643"><ele>412.2</ele><time>2026-04-04T09:59:43.757Z</time></trkpt><trkpt lat="42.7621301" lon="10.1985791"><ele>415.79999999999995</ele><time>2026-04-04T09:59:44.757Z</time></trkpt><trkpt lat="42.7620415" lon="10.1985742"><ele>419.4</ele><time>2026-04-04T09:59:45.757Z</time></trkpt><trkpt lat="42.7619589" lon="10.1985807"><ele>423.0</ele><time>2026-04-04T09:59:46.756Z</time></trkpt><trkpt lat="42.7618748" lon="10.1985749"><ele>423.0</ele><time>2026-04-04T09:59:47.757Z</time></trkpt><trkpt lat="42.76179" lon="10.1985611"><ele>423.0</ele><time>2026-04-04T09:59:48.757Z</time></trkpt><trkpt lat="42.7616931" lon="10.1985313"><ele>423.0</ele><time>2026-04-04T09:59:50.756Z</time></trkpt><trkpt lat="42.7616289" lon="10.1985218"><ele>423.0</ele><time>2026-04-04T09:59:52.757Z</time></trkpt><trkpt lat="42.7615699" lon="10.1984706"><ele>423.0</ele><time>2026-04-04T09:59:54.757Z</time></trkpt><trkpt lat="42.7615009" lon="10.1984478"><ele>423.0</ele><time>2026-04-04T09:59:56.757Z</time></trkpt><trkpt lat="42.7614391" lon="10.1983732"><ele>423.0</ele><time>2026-04-04T09:59:58.757Z</time></trkpt><trkpt lat="42.7613646" lon="10.1982938"><ele>423.0</ele><time>2026-04-04T10:00:00.757Z</time></trkpt><trkpt lat="42.7612916" lon="10.1982716"><ele>423.0</ele><time>2026-04-04T10:00:02.757Z</time></trkpt><trkpt lat="42.7612104" lon="10.1982457"><ele>423.0</ele><time>2026-04-04T10:00:04.757Z</time></trkpt><trkpt lat="42.7611352" lon="10.1981977"><ele>423.0</ele><time>2026-04-04T10:00:07.756Z</time></trkpt><trkpt lat="42.7610804" lon="10.1981144"><ele>423.0</ele><time>2026-04-04T10:00:10.757Z</time></trkpt><trkpt lat="42.7610307" lon="10.1980174"><ele>423.0</ele><time>2026-04-04T10:02:26.757Z</time></trkpt><trkpt lat="42.7609925" lon="10.1979482"><ele>423.0</ele><time>2026-04-04T10:02:30.757Z</time></trkpt><trkpt lat="42.7610568" lon="10.1979924"><ele>423.0</ele><time>2026-04-04T10:02:50.757Z</time></trkpt><trkpt lat="42.7610978" lon="10.1980808"><ele>423.0</ele><time>2026-04-04T10:05:52.757Z</time></trkpt><trkpt lat="42.7611585" lon="10.1981634"><ele>423.0</ele><time>2026-04-04T10:05:54.757Z</time></trkpt><trkpt lat="42.7612241" lon="10.1982136"><ele>423.0</ele><time>2026-04-04T10:05:56.756Z</time></trkpt><trkpt lat="42.7613244" lon="10.1982254"><ele>423.0</ele><time>2026-04-04T10:05:58.757Z</time></trkpt><trkpt lat="42.7613893" lon="10.1982511"><ele>423.0</ele><time>2026-04-04T10:06:00.757Z</time></trkpt><trkpt lat="42.7614365" lon="10.1983183"><ele>423.0</ele><time>2026-04-04T10:06:07.757Z</time></trkpt><trkpt lat="42.7614849" lon="10.1983918"><ele>423.0</ele><time>2026-04-04T10:06:09.757Z</time></trkpt><trkpt lat="42.7615626" lon="10.1984373"><ele>423.0</ele><time>2026-04-04T10:06:25.757Z</time></trkpt><trkpt lat="42.7615209" lon="10.1983363"><ele>423.0</ele><time>2026-04-04T10:06:34.757Z</time></trkpt><trkpt lat="42.7614597" lon="10.1982347"><ele>426.59999999999997</ele><time>2026-04-04T10:06:37.757Z</time></trkpt><trkpt lat="42.7613844" lon="10.198126"><ele>430.2</ele><time>2026-04-04T10:06:39.757Z</time></trkpt><trkpt lat="42.7613262" lon="10.1980442"><ele>433.8</ele><time>2026-04-04T10:06:41.756Z</time></trkpt><trkpt lat="42.7612786" lon="10.197956"><ele>437.4</ele><time>2026-04-04T10:06:43.757Z</time></trkpt><trkpt lat="42.7613251" lon="10.1978631"><ele>441.0</ele><time>2026-04-04T10:06:45.757Z</time></trkpt><trkpt lat="42.761437" lon="10.1979202"><ele>441.0</ele><time>2026-04-04T10:06:47.757Z</time></trkpt><trkpt lat="42.7615117" lon="10.197962"><ele>441.0</ele><time>2026-04-04T10:06:48.757Z</time></trkpt><trkpt lat="42.7615828" lon="10.198003"><ele>441.0</ele><time>2026-04-04T10:06:49.757Z</time></trkpt><trkpt lat="42.7616496" lon="10.1980486"><ele>441.0</ele><time>2026-04-04T10:06:50.757Z</time></trkpt><trkpt lat="42.7617101" lon="10.198092"><ele>441.0</ele><time>2026-04-04T10:06:51.756Z</time></trkpt><trkpt lat="42.7618236" lon="10.1981434"><ele>441.0</ele><time>2026-04-04T10:06:53.757Z</time></trkpt><trkpt lat="42.7619193" lon="10.1980692"><ele>441.0</ele><time>2026-04-04T10:06:55.757Z</time></trkpt><trkpt lat="42.761907" lon="10.1979102"><ele>441.0</ele><time>2026-04-04T10:06:57.757Z</time></trkpt><trkpt lat="42.7618589" lon="10.1978407"><ele>441.0</ele><time>2026-04-04T10:06:58.757Z</time></trkpt><trkpt lat="42.761803" lon="10.197776"><ele>441.0</ele><time>2026-04-04T10:06:59.757Z</time></trkpt><trkpt lat="42.7617411" lon="10.1977143"><ele>441.0</ele><time>2026-04-04T10:07:00.757Z</time></trkpt><trkpt lat="42.7616809" lon="10.1976484"><ele>441.0</ele><time>2026-04-04T10:07:01.757Z</time></trkpt><trkpt lat="42.7616119" lon="10.1975659"><ele>441.0</ele><time>2026-04-04T10:07:03.757Z</time></trkpt><trkpt lat="42.7616128" lon="10.1974527"><ele>441.0</ele><time>2026-04-04T10:07:05.757Z</time></trkpt><trkpt lat="42.761719" lon="10.197457"><ele>441.0</ele><time>2026-04-04T10:07:07.757Z</time></trkpt><trkpt lat="42.7617762" lon="10.1975025"><ele>441.0</ele><time>2026-04-04T10:07:08.757Z</time></trkpt><trkpt lat="42.7618364" lon="10.1975571"><ele>441.0</ele><time>2026-04-04T10:07:09.756Z</time></trkpt><trkpt lat="42.7619062" lon="10.1976028"><ele>441.0</ele><time>2026-04-04T10:07:10.757Z</time></trkpt><trkpt lat="42.7619817" lon="10.197639"><ele>442.8</ele><time>2026-04-04T10:07:11.756Z</time></trkpt><trkpt lat="42.7620638" lon="10.1976539"><ele>444.6</ele><time>2026-04-04T10:07:12.757Z</time></trkpt><trkpt lat="42.7621706" lon="10.1976478"><ele>446.4</ele><time>2026-04-04T10:07:13.757Z</time></trkpt><trkpt lat="42.7622793" lon="10.1976399"><ele>448.2</ele><time>2026-04-04T10:07:14.756Z</time></trkpt><trkpt lat="42.7623773" lon="10.1976281"><ele>450.0</ele><time>2026-04-04T10:07:15.757Z</time></trkpt><trkpt lat="42.76246" lon="10.1975891"><ele>450.0</ele><time>2026-04-04T10:07:16.757Z</time></trkpt><trkpt lat="42.7625267" lon="10.1975188"><ele>450.0</ele><time>2026-04-04T10:07:17.757Z</time></trkpt><trkpt lat="42.7625842" lon="10.1974386"><ele>450.0</ele><time>2026-04-04T10:07:18.757Z</time></trkpt><trkpt lat="42.7626296" lon="10.1973232"><ele>450.0</ele><time>2026-04-04T10:07:19.757Z</time></trkpt><trkpt lat="42.7626719" lon="10.1972178"><ele>450.0</ele><time>2026-04-04T10:07:20.757Z</time></trkpt><trkpt lat="42.7627132" lon="10.197114"><ele>450.0</ele><time>2026-04-04T10:07:21.757Z</time></trkpt><trkpt lat="42.7627463" lon="10.1970203"><ele>450.8333333333333</ele><time>2026-04-04T10:07:22.757Z</time></trkpt><trkpt lat="42.7627727" lon="10.1969096"><ele>451.66666666666663</ele><time>2026-04-04T10:07:23.757Z</time></trkpt><trkpt lat="42.7627988" lon="10.1968083"><ele>452.5</ele><time>2026-04-04T10:07:24.757Z</time></trkpt><trkpt lat="42.7628281" lon="10.1967012"><ele>453.3333333333333</ele><time>2026-04-04T10:07:25.757Z</time></trkpt><trkpt lat="42.7628585" lon="10.196608"><ele>454.16666666666663</ele><time>2026-04-04T10:07:26.757Z</time></trkpt><trkpt lat="42.762884" lon="10.196494"><ele>455.0</ele><time>2026-04-04T10:07:27.757Z</time></trkpt><trkpt lat="42.7629086" lon="10.1963743"><ele>461.4</ele><time>2026-04-04T10:07:28.757Z</time></trkpt><trkpt lat="42.7629429" lon="10.1962713"><ele>467.8</ele><time>2026-04-04T10:07:29.757Z</time></trkpt><trkpt lat="42.7630075" lon="10.196176"><ele>474.20000000000005</ele><time>2026-04-04T10:07:30.756Z</time></trkpt><trkpt lat="42.7630799" lon="10.1960918"><ele>480.6</ele><time>2026-04-04T10:07:31.756Z</time></trkpt><trkpt lat="42.7631668" lon="10.1960277"><ele>487.0</ele><time>2026-04-04T10:07:32.757Z</time></trkpt><trkpt lat="42.7632687" lon="10.1959883"><ele>487.0</ele><time>2026-04-04T10:07:33.757Z</time></trkpt><trkpt lat="42.7633834" lon="10.1959451"><ele>487.0</ele><time>2026-04-04T10:07:34.757Z</time></trkpt><trkpt lat="42.7634772" lon="10.195889"><ele>487.0</ele><time>2026-04-04T10:07:35.757Z</time></trkpt><trkpt lat="42.7635806" lon="10.1958436"><ele>487.0</ele><time>2026-04-04T10:07:36.756Z</time></trkpt><trkpt lat="42.7636962" lon="10.1957622"><ele>483.6</ele><time>2026-04-04T10:07:37.757Z</time></trkpt><trkpt lat="42.7637949" lon="10.1956905"><ele>480.20000000000005</ele><time>2026-04-04T10:07:38.757Z</time></trkpt><trkpt lat="42.7638904" lon="10.1956284"><ele>476.8</ele><time>2026-04-04T10:07:39.757Z</time></trkpt><trkpt lat="42.7639662" lon="10.1955596"><ele>473.4</ele><time>2026-04-04T10:07:40.757Z</time></trkpt><trkpt lat="42.7640406" lon="10.1954903"><ele>470.0</ele><time>2026-04-04T10:07:41.757Z</time></trkpt><trkpt lat="42.7640991" lon="10.1954038"><ele>471.4</ele><time>2026-04-04T10:07:42.757Z</time></trkpt><trkpt lat="42.7641438" lon="10.1953195"><ele>472.8</ele><time>2026-04-04T10:07:43.756Z</time></trkpt><trkpt lat="42.764173" lon="10.1952191"><ele>474.20000000000005</ele><time>2026-04-04T10:07:44.757Z</time></trkpt><trkpt lat="42.764228" lon="10.1951162"><ele>475.6</ele><time>2026-04-04T10:07:45.757Z</time></trkpt><trkpt lat="42.764294" lon="10.1950179"><ele>477.0</ele><time>2026-04-04T10:07:46.757Z</time></trkpt><trkpt lat="42.7643707" lon="10.1949187"><ele>485.0</ele><time>2026-04-04T10:07:47.757Z</time></trkpt><trkpt lat="42.7644425" lon="10.1948076"><ele>493.0</ele><time>2026-04-04T10:07:48.756Z</time></trkpt><trkpt lat="42.7645289" lon="10.194679"><ele>501.0</ele><time>2026-04-04T10:07:49.757Z</time></trkpt><trkpt lat="42.7646134" lon="10.1945722"><ele>509.0</ele><time>2026-04-04T10:07:50.757Z</time></trkpt><trkpt lat="42.7646993" lon="10.1944609"><ele>509.0</ele><time>2026-04-04T10:07:51.756Z</time></trkpt><trkpt lat="42.7648051" lon="10.1943703"><ele>509.0</ele><time>2026-04-04T10:07:52.757Z</time></trkpt><trkpt lat="42.7649021" lon="10.1942729"><ele>509.0</ele><time>2026-04-04T10:07:53.756Z</time></trkpt><trkpt lat="42.7649782" lon="10.1941919"><ele>509.0</ele><time>2026-04-04T10:07:54.757Z</time></trkpt><trkpt lat="42.7650182" lon="10.1940749"><ele>509.0</ele><time>2026-04-04T10:07:55.757Z</time></trkpt><trkpt lat="42.7650863" lon="10.1939359"><ele>503.25</ele><time>2026-04-04T10:07:56.756Z</time></trkpt><trkpt lat="42.7651523" lon="10.1938143"><ele>497.5</ele><time>2026-04-04T10:07:57.757Z</time></trkpt><trkpt lat="42.7652076" lon="10.193691"><ele>491.75</ele><time>2026-04-04T10:07:58.757Z</time></trkpt><trkpt lat="42.7652451" lon="10.1935293"><ele>486.0</ele><time>2026-04-04T10:07:59.757Z</time></trkpt><trkpt lat="42.7652778" lon="10.1933743"><ele>486.0</ele><time>2026-04-04T10:08:00.756Z</time></trkpt><trkpt lat="42.7653075" lon="10.1932247"><ele>486.0</ele><time>2026-04-04T10:08:01.757Z</time></trkpt><trkpt lat="42.7653372" lon="10.1930603"><ele>486.0</ele><time>2026-04-04T10:08:02.757Z</time></trkpt><trkpt lat="42.7653471" lon="10.1928929"><ele>486.0</ele><time>2026-04-04T10:08:03.757Z</time></trkpt><trkpt lat="42.765352" lon="10.192737"><ele>488.25</ele><time>2026-04-04T10:08:04.756Z</time></trkpt><trkpt lat="42.7653385" lon="10.1925579"><ele>490.5</ele><time>2026-04-04T10:08:05.757Z</time></trkpt><trkpt lat="42.7653266" lon="10.1923825"><ele>492.75</ele><time>2026-04-04T10:08:06.757Z</time></trkpt><trkpt lat="42.7653446" lon="10.1922092"><ele>495.0</ele><time>2026-04-04T10:08:07.757Z</time></trkpt><trkpt lat="42.7653637" lon="10.1920614"><ele>495.25</ele><time>2026-04-04T10:08:08.757Z</time></trkpt><trkpt lat="42.7654023" lon="10.1919058"><ele>495.5</ele><time>2026-04-04T10:08:09.757Z</time></trkpt><trkpt lat="42.7654203" lon="10.1917531"><ele>495.75</ele><time>2026-04-04T10:08:10.757Z</time></trkpt><trkpt lat="42.7653566" lon="10.1916147"><ele>496.0</ele><time>2026-04-04T10:08:11.756Z</time></trkpt><trkpt lat="42.7653303" lon="10.1914875"><ele>496.0</ele><time>2026-04-04T10:08:12.757Z</time></trkpt><trkpt lat="42.765313" lon="10.1913477"><ele>496.0</ele><time>2026-04-04T10:08:13.756Z</time></trkpt><trkpt lat="42.7653022" lon="10.1912375"><ele>496.0</ele><time>2026-04-04T10:08:14.757Z</time></trkpt><trkpt lat="42.7652979" lon="10.191115"><ele>496.0</ele><time>2026-04-04T10:08:15.757Z</time></trkpt><trkpt lat="42.7652732" lon="10.1909957"><ele>496.0</ele><time>2026-04-04T10:08:16.757Z</time></trkpt><trkpt lat="42.7652065" lon="10.1908901"><ele>507.8</ele><time>2026-04-04T10:08:17.756Z</time></trkpt><trkpt lat="42.765168" lon="10.1907855"><ele>519.6</ele><time>2026-04-04T10:08:18.757Z</time></trkpt><trkpt lat="42.7651413" lon="10.1906644"><ele>531.4</ele><time>2026-04-04T10:08:19.756Z</time></trkpt><trkpt lat="42.7651376" lon="10.1905294"><ele>543.2</ele><time>2026-04-04T10:08:20.757Z</time></trkpt><trkpt lat="42.7651687" lon="10.1903973"><ele>555.0</ele><time>2026-04-04T10:08:21.757Z</time></trkpt><trkpt lat="42.7651956" lon="10.1902758"><ele>557.1666666666666</ele><time>2026-04-04T10:08:22.756Z</time></trkpt><trkpt lat="42.7652245" lon="10.1901622"><ele>559.3333333333334</ele><time>2026-04-04T10:08:23.757Z</time></trkpt><trkpt lat="42.7652276" lon="10.1900091"><ele>561.5</ele><time>2026-04-04T10:08:25.757Z</time></trkpt><trkpt lat="42.7652072" lon="10.1899013"><ele>563.6666666666667</ele><time>2026-04-04T10:08:27.757Z</time></trkpt><trkpt lat="42.7651814" lon="10.1898033"><ele>565.8333333333334</ele><time>2026-04-04T10:08:37.757Z</time></trkpt><trkpt lat="42.765163" lon="10.1897002"><ele>568.0</ele><time>2026-04-04T10:08:44.757Z</time></trkpt><trkpt lat="42.7651474" lon="10.1896164"><ele>568.0</ele><time>2026-04-04T10:08:46.757Z</time></trkpt><trkpt lat="42.7651413" lon="10.1894787"><ele>568.0</ele><time>2026-04-04T10:08:48.757Z</time></trkpt><trkpt lat="42.7651373" lon="10.1893128"><ele>568.0</ele><time>2026-04-04T10:08:50.757Z</time></trkpt><trkpt lat="42.7651379" lon="10.1892125"><ele>568.0</ele><time>2026-04-04T10:08:51.757Z</time></trkpt><trkpt lat="42.765156" lon="10.1890996"><ele>568.0</ele><time>2026-04-04T10:08:52.757Z</time></trkpt><trkpt lat="42.7651679" lon="10.1889786"><ele>562.1999999999999</ele><time>2026-04-04T10:08:53.757Z</time></trkpt><trkpt lat="42.7652043" lon="10.1888528"><ele>556.4</ele><time>2026-04-04T10:08:54.757Z</time></trkpt><trkpt lat="42.7652305" lon="10.1887218"><ele>550.5999999999999</ele><time>2026-04-04T10:08:55.757Z</time></trkpt><trkpt lat="42.7652583" lon="10.188602"><ele>544.8</ele><time>2026-04-04T10:08:56.757Z</time></trkpt><trkpt lat="42.7652797" lon="10.1884835"><ele>539.0</ele><time>2026-04-04T10:08:57.757Z</time></trkpt><trkpt lat="42.765291" lon="10.188354"><ele>539.0</ele><time>2026-04-04T10:08:58.757Z</time></trkpt><trkpt lat="42.7653057" lon="10.1882216"><ele>539.0</ele><time>2026-04-04T10:08:59.757Z</time></trkpt><trkpt lat="42.7653499" lon="10.1880892"><ele>539.0</ele><time>2026-04-04T10:09:00.756Z</time></trkpt><trkpt lat="42.7653994" lon="10.1879623"><ele>539.0</ele><time>2026-04-04T10:09:01.756Z</time></trkpt><trkpt lat="42.7654336" lon="10.1878258"><ele>539.0</ele><time>2026-04-04T10:09:02.757Z</time></trkpt><trkpt lat="42.7654714" lon="10.1876797"><ele>542.2</ele><time>2026-04-04T10:09:03.757Z</time></trkpt><trkpt lat="42.7655068" lon="10.1875391"><ele>545.4</ele><time>2026-04-04T10:09:04.756Z</time></trkpt><trkpt lat="42.7655295" lon="10.1874124"><ele>548.6</ele><time>2026-04-04T10:09:05.757Z</time></trkpt><trkpt lat="42.7655393" lon="10.1872851"><ele>551.8</ele><time>2026-04-04T10:09:06.757Z</time></trkpt><trkpt lat="42.7655458" lon="10.1871718"><ele>555.0</ele><time>2026-04-04T10:09:07.757Z</time></trkpt><trkpt lat="42.7655654" lon="10.1870573"><ele>560.4</ele><time>2026-04-04T10:09:08.757Z</time></trkpt><trkpt lat="42.7656052" lon="10.186968"><ele>565.8</ele><time>2026-04-04T10:09:09.757Z</time></trkpt><trkpt lat="42.7656543" lon="10.1868695"><ele>571.2</ele><time>2026-04-04T10:09:10.757Z</time></trkpt><trkpt lat="42.7656964" lon="10.186757"><ele>576.6</ele><time>2026-04-04T10:09:11.756Z</time></trkpt><trkpt lat="42.7657521" lon="10.1866307"><ele>582.0</ele><time>2026-04-04T10:09:12.757Z</time></trkpt><trkpt lat="42.765797" lon="10.1865156"><ele>585.1666666666666</ele><time>2026-04-04T10:09:13.756Z</time></trkpt><trkpt lat="42.7658472" lon="10.1864056"><ele>588.3333333333334</ele><time>2026-04-04T10:09:14.757Z</time></trkpt><trkpt lat="42.7658926" lon="10.1862833"><ele>591.5</ele><time>2026-04-04T10:09:15.756Z</time></trkpt><trkpt lat="42.7659308" lon="10.1861794"><ele>594.6666666666667</ele><time>2026-04-04T10:09:16.757Z</time></trkpt><trkpt lat="42.7659668" lon="10.1860806"><ele>597.8333333333334</ele><time>2026-04-04T10:09:17.756Z</time></trkpt><trkpt lat="42.7660056" lon="10.1860095"><ele>601.0</ele><time>2026-04-04T10:09:18.757Z</time></trkpt><trkpt lat="42.7660703" lon="10.1858796"><ele>603.8</ele><time>2026-04-04T10:09:20.757Z</time></trkpt><trkpt lat="42.766184" lon="10.1859108"><ele>606.6</ele><time>2026-04-04T10:09:22.756Z</time></trkpt><trkpt lat="42.7662624" lon="10.1860551"><ele>609.4</ele><time>2026-04-04T10:09:24.756Z</time></trkpt><trkpt lat="42.7662926" lon="10.1861729"><ele>612.2</ele><time>2026-04-04T10:09:25.757Z</time></trkpt><trkpt lat="42.7663296" lon="10.1863031"><ele>615.0</ele><time>2026-04-04T10:09:26.757Z</time></trkpt><trkpt lat="42.7663724" lon="10.1864404"><ele>610.75</ele><time>2026-04-04T10:09:27.757Z</time></trkpt><trkpt lat="42.7664417" lon="10.1865687"><ele>606.5</ele><time>2026-04-04T10:09:28.757Z</time></trkpt><trkpt lat="42.7664885" lon="10.1867033"><ele>602.25</ele><time>2026-04-04T10:09:29.757Z</time></trkpt><trkpt lat="42.7665171" lon="10.1868616"><ele>598.0</ele><time>2026-04-04T10:09:30.757Z</time></trkpt><trkpt lat="42.7665822" lon="10.1869779"><ele>598.0</ele><time>2026-04-04T10:09:31.757Z</time></trkpt><trkpt lat="42.7666458" lon="10.1870868"><ele>598.0</ele><time>2026-04-04T10:09:32.756Z</time></trkpt><trkpt lat="42.7667166" lon="10.1871966"><ele>598.0</ele><time>2026-04-04T10:09:33.757Z</time></trkpt><trkpt lat="42.7667941" lon="10.1873018"><ele>598.0</ele><time>2026-04-04T10:09:34.757Z</time></trkpt><trkpt lat="42.7668545" lon="10.1874181"><ele>598.0</ele><time>2026-04-04T10:09:35.757Z</time></trkpt><trkpt lat="42.7669324" lon="10.1875373"><ele>602.5</ele><time>2026-04-04T10:09:36.757Z</time></trkpt><trkpt lat="42.7670243" lon="10.187655"><ele>607.0</ele><time>2026-04-04T10:09:37.756Z</time></trkpt><trkpt lat="42.7671135" lon="10.1877536"><ele>611.5</ele><time>2026-04-04T10:09:38.757Z</time></trkpt><trkpt lat="42.7671951" lon="10.1878631"><ele>616.0</ele><time>2026-04-04T10:09:39.757Z</time></trkpt><trkpt lat="42.7672867" lon="10.187946"><ele>616.0</ele><time>2026-04-04T10:09:40.756Z</time></trkpt><trkpt lat="42.7673923" lon="10.1880023"><ele>616.0</ele><time>2026-04-04T10:09:41.757Z</time></trkpt><trkpt lat="42.767487" lon="10.188062"><ele>616.0</ele><time>2026-04-04T10:09:42.757Z</time></trkpt><trkpt lat="42.7675738" lon="10.1881446"><ele>616.0</ele><time>2026-04-04T10:09:43.757Z</time></trkpt><trkpt lat="42.7676798" lon="10.1882104"><ele>616.0</ele><time>2026-04-04T10:09:44.757Z</time></trkpt><trkpt lat="42.7677771" lon="10.1882294"><ele>611.2</ele><time>2026-04-04T10:09:45.757Z</time></trkpt><trkpt lat="42.7678847" lon="10.1882368"><ele>606.4000000000001</ele><time>2026-04-04T10:09:46.757Z</time></trkpt><trkpt lat="42.7679931" lon="10.1882448"><ele>601.6</ele><time>2026-04-04T10:09:47.756Z</time></trkpt><trkpt lat="42.7680945" lon="10.18825"><ele>596.8000000000001</ele><time>2026-04-04T10:09:48.757Z</time></trkpt><trkpt lat="42.7682046" lon="10.1882485"><ele>592.0</ele><time>2026-04-04T10:09:49.757Z</time></trkpt><trkpt lat="42.7683193" lon="10.1882375"><ele>592.0</ele><time>2026-04-04T10:09:50.756Z</time></trkpt><trkpt lat="42.7684213" lon="10.1882229"><ele>592.0</ele><time>2026-04-04T10:09:51.757Z</time></trkpt><trkpt lat="42.7685322" lon="10.1881798"><ele>592.0</ele><time>2026-04-04T10:09:52.757Z</time></trkpt><trkpt lat="42.7686168" lon="10.1881039"><ele>592.0</ele><time>2026-04-04T10:09:53.756Z</time></trkpt><trkpt lat="42.7687066" lon="10.1880253"><ele>592.0</ele><time>2026-04-04T10:09:54.757Z</time></trkpt><trkpt lat="42.768792" lon="10.1879489"><ele>600.0</ele><time>2026-04-04T10:09:55.757Z</time></trkpt><trkpt lat="42.7688767" lon="10.1878681"><ele>608.0</ele><time>2026-04-04T10:09:56.757Z</time></trkpt><trkpt lat="42.76897" lon="10.1878053"><ele>616.0</ele><time>2026-04-04T10:09:57.756Z</time></trkpt><trkpt lat="42.7690681" lon="10.1877699"><ele>624.0</ele><time>2026-04-04T10:09:58.757Z</time></trkpt><trkpt lat="42.7691536" lon="10.1877526"><ele>632.0</ele><time>2026-04-04T10:09:59.757Z</time></trkpt><trkpt lat="42.7692379" lon="10.1877601"><ele>632.0</ele><time>2026-04-04T10:10:00.757Z</time></trkpt><trkpt lat="42.7693155" lon="10.187782"><ele>632.0</ele><time>2026-04-04T10:10:01.757Z</time></trkpt><trkpt lat="42.7694052" lon="10.1878273"><ele>632.0</ele><time>2026-04-04T10:10:02.757Z</time></trkpt><trkpt lat="42.7694978" lon="10.1878522"><ele>632.0</ele><time>2026-04-04T10:10:03.757Z</time></trkpt><trkpt lat="42.7695873" lon="10.1878873"><ele>632.0</ele><time>2026-04-04T10:10:04.756Z</time></trkpt><trkpt lat="42.7696608" lon="10.1879111"><ele>632.0</ele><time>2026-04-04T10:10:05.756Z</time></trkpt><trkpt lat="42.7697313" lon="10.1879539"><ele>633.6666666666666</ele><time>2026-04-04T10:10:06.757Z</time></trkpt><trkpt lat="42.7697867" lon="10.1880078"><ele>635.3333333333333</ele><time>2026-04-04T10:10:07.757Z</time></trkpt><trkpt lat="42.7698668" lon="10.1880674"><ele>637.0</ele><time>2026-04-04T10:10:08.757Z</time></trkpt><trkpt lat="42.769972" lon="10.1881728"><ele>638.6666666666666</ele><time>2026-04-04T10:10:10.757Z</time></trkpt><trkpt lat="42.7700229" lon="10.188232"><ele>640.3333333333334</ele><time>2026-04-04T10:10:11.757Z</time></trkpt><trkpt lat="42.7700875" lon="10.1882748"><ele>642.0</ele><time>2026-04-04T10:10:12.757Z</time></trkpt><trkpt lat="42.7701687" lon="10.1882678"><ele>640.4</ele><time>2026-04-04T10:10:13.757Z</time></trkpt><trkpt lat="42.7702532" lon="10.1882283"><ele>638.8000000000001</ele><time>2026-04-04T10:10:14.756Z</time></trkpt><trkpt lat="42.77032" lon="10.1881639"><ele>637.2</ele><time>2026-04-04T10:10:15.757Z</time></trkpt><trkpt lat="42.7703367" lon="10.1880086"><ele>635.6</ele><time>2026-04-04T10:10:16.757Z</time></trkpt><trkpt lat="42.7703947" lon="10.187864"><ele>634.0</ele><time>2026-04-04T10:10:17.757Z</time></trkpt><trkpt lat="42.7704474" lon="10.18773"><ele>634.0</ele><time>2026-04-04T10:10:18.757Z</time></trkpt><trkpt lat="42.7704897" lon="10.1876181"><ele>634.0</ele><time>2026-04-04T10:10:19.757Z</time></trkpt><trkpt lat="42.7705282" lon="10.1875231"><ele>634.0</ele><time>2026-04-04T10:10:20.757Z</time></trkpt><trkpt lat="42.7705689" lon="10.1874368"><ele>634.0</ele><time>2026-04-04T10:10:21.757Z</time></trkpt><trkpt lat="42.7706164" lon="10.1873692"><ele>634.0</ele><time>2026-04-04T10:10:22.756Z</time></trkpt><trkpt lat="42.7707101" lon="10.1873673"><ele>634.0</ele><time>2026-04-04T10:10:24.757Z</time></trkpt><trkpt lat="42.7707613" lon="10.1874298"><ele>634.0</ele><time>2026-04-04T10:10:25.757Z</time></trkpt><trkpt lat="42.7708311" lon="10.1875156"><ele>634.0</ele><time>2026-04-04T10:10:26.757Z</time></trkpt><trkpt lat="42.7708763" lon="10.1875998"><ele>634.0</ele><time>2026-04-04T10:10:27.756Z</time></trkpt><trkpt lat="42.7709213" lon="10.187669"><ele>634.0</ele><time>2026-04-04T10:10:28.757Z</time></trkpt><trkpt lat="42.7709717" lon="10.1877414"><ele>634.0</ele><time>2026-04-04T10:10:29.756Z</time></trkpt><trkpt lat="42.7710091" lon="10.187834"><ele>634.0</ele><time>2026-04-04T10:10:30.757Z</time></trkpt><trkpt lat="42.7710785" lon="10.1879263"><ele>637.4</ele><time>2026-04-04T10:10:31.757Z</time></trkpt><trkpt lat="42.771166" lon="10.1880059"><ele>640.8</ele><time>2026-04-04T10:10:32.757Z</time></trkpt><trkpt lat="42.771248" lon="10.1880786"><ele>644.1999999999999</ele><time>2026-04-04T10:10:33.757Z</time></trkpt><trkpt lat="42.7712822" lon="10.1881681"><ele>647.5999999999999</ele><time>2026-04-04T10:10:34.756Z</time></trkpt><trkpt lat="42.7713231" lon="10.1882762"><ele>651.0</ele><time>2026-04-04T10:10:35.757Z</time></trkpt><trkpt lat="42.7713692" lon="10.1884135"><ele>651.0</ele><time>2026-04-04T10:10:36.757Z</time></trkpt><trkpt lat="42.7713983" lon="10.1885523"><ele>651.0</ele><time>2026-04-04T10:10:37.757Z</time></trkpt><trkpt lat="42.7714449" lon="10.1887001"><ele>651.0</ele><time>2026-04-04T10:10:38.757Z</time></trkpt><trkpt lat="42.7714646" lon="10.188853"><ele>651.0</ele><time>2026-04-04T10:10:39.757Z</time></trkpt><trkpt lat="42.7714724" lon="10.1890031"><ele>651.0</ele><time>2026-04-04T10:10:40.757Z</time></trkpt><trkpt lat="42.7714785" lon="10.1891412"><ele>647.8</ele><time>2026-04-04T10:10:41.757Z</time></trkpt><trkpt lat="42.771479" lon="10.189258"><ele>644.5999999999999</ele><time>2026-04-04T10:10:42.757Z</time></trkpt><trkpt lat="42.7714802" lon="10.1893704"><ele>641.4</ele><time>2026-04-04T10:10:43.757Z</time></trkpt><trkpt lat="42.7714816" lon="10.1894919"><ele>638.2</ele><time>2026-04-04T10:10:44.757Z</time></trkpt><trkpt lat="42.771525" lon="10.1896719"><ele>635.0</ele><time>2026-04-04T10:10:46.756Z</time></trkpt><trkpt lat="42.7715965" lon="10.1897599"><ele>632.5</ele><time>2026-04-04T10:10:47.757Z</time></trkpt><trkpt lat="42.7716671" lon="10.1899103"><ele>630.0</ele><time>2026-04-04T10:10:48.756Z</time></trkpt><trkpt lat="42.771746" lon="10.1900327"><ele>627.5</ele><time>2026-04-04T10:10:49.757Z</time></trkpt><trkpt lat="42.7718027" lon="10.1901572"><ele>625.0</ele><time>2026-04-04T10:10:50.757Z</time></trkpt><trkpt lat="42.7718612" lon="10.1902816"><ele>626.5</ele><time>2026-04-04T10:10:51.756Z</time></trkpt><trkpt lat="42.7719256" lon="10.1904072"><ele>628.0</ele><time>2026-04-04T10:10:52.757Z</time></trkpt><trkpt lat="42.7720149" lon="10.1904749"><ele>629.5</ele><time>2026-04-04T10:10:53.757Z</time></trkpt><trkpt lat="42.7720646" lon="10.1905702"><ele>631.0</ele><time>2026-04-04T10:10:54.757Z</time></trkpt><trkpt lat="42.77212" lon="10.1906225"><ele>632.5</ele><time>2026-04-04T10:10:55.756Z</time></trkpt><trkpt lat="42.7721813" lon="10.190677"><ele>634.0</ele><time>2026-04-04T10:10:56.757Z</time></trkpt><trkpt lat="42.772293" lon="10.1906886"><ele>634.0</ele><time>2026-04-04T10:10:57.757Z</time></trkpt><trkpt lat="42.7724149" lon="10.1907169"><ele>634.0</ele><time>2026-04-04T10:10:58.757Z</time></trkpt><trkpt lat="42.7724913" lon="10.1907675"><ele>634.0</ele><time>2026-04-04T10:10:59.757Z</time></trkpt><trkpt lat="42.7725741" lon="10.1908076"><ele>634.0</ele><time>2026-04-04T10:11:00.757Z</time></trkpt><trkpt lat="42.7726599" lon="10.1908442"><ele>634.0</ele><time>2026-04-04T10:11:01.757Z</time></trkpt><trkpt lat="42.7727177" lon="10.1909154"><ele>639.8</ele><time>2026-04-04T10:11:02.757Z</time></trkpt><trkpt lat="42.77278" lon="10.1909999"><ele>645.5999999999999</ele><time>2026-04-04T10:11:03.756Z</time></trkpt><trkpt lat="42.7728254" lon="10.1911026"><ele>651.4</ele><time>2026-04-04T10:11:04.757Z</time></trkpt><trkpt lat="42.7728542" lon="10.1912109"><ele>657.1999999999999</ele><time>2026-04-04T10:11:05.756Z</time></trkpt><trkpt lat="42.7728753" lon="10.1913475"><ele>663.0</ele><time>2026-04-04T10:11:06.757Z</time></trkpt><trkpt lat="42.7728897" lon="10.1914785"><ele>660.0</ele><time>2026-04-04T10:11:07.757Z</time></trkpt><trkpt lat="42.7729343" lon="10.1916122"><ele>657.0</ele><time>2026-04-04T10:11:08.757Z</time></trkpt><trkpt lat="42.7729724" lon="10.1917412"><ele>654.0</ele><time>2026-04-04T10:11:09.757Z</time></trkpt><trkpt lat="42.7730367" lon="10.191845"><ele>651.0</ele><time>2026-04-04T10:11:10.757Z</time></trkpt><trkpt lat="42.7730943" lon="10.1919616"><ele>648.0</ele><time>2026-04-04T10:11:11.756Z</time></trkpt><trkpt lat="42.7731398" lon="10.1920748"><ele>648.0</ele><time>2026-04-04T10:11:12.756Z</time></trkpt><trkpt lat="42.7731708" lon="10.1921885"><ele>648.0</ele><time>2026-04-04T10:11:13.756Z</time></trkpt><trkpt lat="42.7731999" lon="10.1922949"><ele>648.0</ele><time>2026-04-04T10:11:14.757Z</time></trkpt><trkpt lat="42.7732013" lon="10.1923955"><ele>648.0</ele><time>2026-04-04T10:11:15.756Z</time></trkpt><trkpt lat="42.7732075" lon="10.1924923"><ele>648.0</ele><time>2026-04-04T10:11:16.757Z</time></trkpt><trkpt lat="42.7732111" lon="10.192599"><ele>648.0</ele><time>2026-04-04T10:11:17.757Z</time></trkpt><trkpt lat="42.7732145" lon="10.1927155"><ele>645.6</ele><time>2026-04-04T10:11:18.757Z</time></trkpt><trkpt lat="42.773267" lon="10.1927881"><ele>643.1999999999999</ele><time>2026-04-04T10:11:19.757Z</time></trkpt><trkpt lat="42.7732881" lon="10.192929"><ele>640.8</ele><time>2026-04-04T10:11:20.756Z</time></trkpt><trkpt lat="42.7733238" lon="10.1930932"><ele>638.4</ele><time>2026-04-04T10:11:21.756Z</time></trkpt><trkpt lat="42.7733617" lon="10.1932326"><ele>636.0</ele><time>2026-04-04T10:11:22.756Z</time></trkpt><trkpt lat="42.7734022" lon="10.1933746"><ele>633.4</ele><time>2026-04-04T10:11:23.757Z</time></trkpt><trkpt lat="42.7734411" lon="10.1935034"><ele>630.8</ele><time>2026-04-04T10:11:24.757Z</time></trkpt><trkpt lat="42.7734922" lon="10.1936244"><ele>628.1999999999999</ele><time>2026-04-04T10:11:25.757Z</time></trkpt><trkpt lat="42.7735475" lon="10.1937368"><ele>625.6</ele><time>2026-04-04T10:11:26.757Z</time></trkpt><trkpt lat="42.7736088" lon="10.1938502"><ele>623.0</ele><time>2026-04-04T10:11:27.756Z</time></trkpt><trkpt lat="42.7737199" lon="10.1939192"><ele>624.5</ele><time>2026-04-04T10:11:28.757Z</time></trkpt><trkpt lat="42.773808" lon="10.1939759"><ele>626.0</ele><time>2026-04-04T10:11:29.756Z</time></trkpt><trkpt lat="42.7739025" lon="10.1939858"><ele>627.5</ele><time>2026-04-04T10:11:30.756Z</time></trkpt><trkpt lat="42.7739825" lon="10.1940269"><ele>629.0</ele><time>2026-04-04T10:11:31.757Z</time></trkpt><trkpt lat="42.7740535" lon="10.1940734"><ele>630.5</ele><time>2026-04-04T10:11:32.756Z</time></trkpt><trkpt lat="42.7741052" lon="10.1941579"><ele>632.0</ele><time>2026-04-04T10:11:33.757Z</time></trkpt><trkpt lat="42.7741255" lon="10.1942777"><ele>632.0</ele><time>2026-04-04T10:11:34.757Z</time></trkpt><trkpt lat="42.774162" lon="10.1944074"><ele>632.0</ele><time>2026-04-04T10:11:35.757Z</time></trkpt><trkpt lat="42.7741906" lon="10.1945272"><ele>632.0</ele><time>2026-04-04T10:11:36.757Z</time></trkpt><trkpt lat="42.7742287" lon="10.1946407"><ele>632.0</ele><time>2026-04-04T10:11:37.757Z</time></trkpt><trkpt lat="42.7743272" lon="10.19471"><ele>632.0</ele><time>2026-04-04T10:11:38.757Z</time></trkpt><trkpt lat="42.7743819" lon="10.194781"><ele>635.8</ele><time>2026-04-04T10:11:39.757Z</time></trkpt><trkpt lat="42.7744832" lon="10.1947866"><ele>639.6</ele><time>2026-04-04T10:11:40.757Z</time></trkpt><trkpt lat="42.7745662" lon="10.1947517"><ele>643.4</ele><time>2026-04-04T10:11:41.756Z</time></trkpt><trkpt lat="42.7746368" lon="10.1947138"><ele>647.1999999999999</ele><time>2026-04-04T10:11:42.757Z</time></trkpt><trkpt lat="42.7747272" lon="10.1946807"><ele>651.0</ele><time>2026-04-04T10:11:43.757Z</time></trkpt><trkpt lat="42.7748228" lon="10.1946826"><ele>651.0</ele><time>2026-04-04T10:11:44.757Z</time></trkpt><trkpt lat="42.7749125" lon="10.1947337"><ele>651.0</ele><time>2026-04-04T10:11:45.757Z</time></trkpt><trkpt lat="42.7749923" lon="10.1948535"><ele>651.0</ele><time>2026-04-04T10:11:46.757Z</time></trkpt><trkpt lat="42.775055" lon="10.1950053"><ele>651.0</ele><time>2026-04-04T10:11:47.757Z</time></trkpt><trkpt lat="42.7751093" lon="10.1951629"><ele>650.0</ele><time>2026-04-04T10:11:48.756Z</time></trkpt><trkpt lat="42.7751559" lon="10.1953188"><ele>649.0</ele><time>2026-04-04T10:11:49.757Z</time></trkpt><trkpt lat="42.7751927" lon="10.1954704"><ele>648.0</ele><time>2026-04-04T10:11:50.757Z</time></trkpt><trkpt lat="42.7752034" lon="10.1956292"><ele>647.0</ele><time>2026-04-04T10:11:51.756Z</time></trkpt><trkpt lat="42.7752091" lon="10.1957935"><ele>646.0</ele><time>2026-04-04T10:11:52.757Z</time></trkpt><trkpt lat="42.7752143" lon="10.1959671"><ele>645.0</ele><time>2026-04-04T10:11:53.757Z</time></trkpt><trkpt lat="42.7752312" lon="10.1961259"><ele>644.0</ele><time>2026-04-04T10:11:54.757Z</time></trkpt><trkpt lat="42.7752485" lon="10.1962961"><ele>643.0</ele><time>2026-04-04T10:11:55.756Z</time></trkpt><trkpt lat="42.7752821" lon="10.1964649"><ele>642.5</ele><time>2026-04-04T10:11:56.757Z</time></trkpt><trkpt lat="42.7753208" lon="10.1966169"><ele>642.0</ele><time>2026-04-04T10:11:57.757Z</time></trkpt><trkpt lat="42.7753613" lon="10.1967769"><ele>641.5</ele><time>2026-04-04T10:11:58.757Z</time></trkpt><trkpt lat="42.7754067" lon="10.1969341"><ele>641.0</ele><time>2026-04-04T10:11:59.757Z</time></trkpt><trkpt lat="42.7754542" lon="10.1970912"><ele>641.0</ele><time>2026-04-04T10:12:00.757Z</time></trkpt><trkpt lat="42.7755112" lon="10.1972273"><ele>641.0</ele><time>2026-04-04T10:12:01.757Z</time></trkpt><trkpt lat="42.7755636" lon="10.1973761"><ele>641.0</ele><time>2026-04-04T10:12:02.757Z</time></trkpt><trkpt lat="42.7756254" lon="10.1975285"><ele>641.0</ele><time>2026-04-04T10:12:03.757Z</time></trkpt><trkpt lat="42.7756905" lon="10.1976895"><ele>638.5</ele><time>2026-04-04T10:12:04.757Z</time></trkpt><trkpt lat="42.7757577" lon="10.197818"><ele>636.0</ele><time>2026-04-04T10:12:05.757Z</time></trkpt><trkpt lat="42.7758501" lon="10.1979463"><ele>633.5</ele><time>2026-04-04T10:12:06.756Z</time></trkpt><trkpt lat="42.7759306" lon="10.1980789"><ele>631.0</ele><time>2026-04-04T10:12:07.757Z</time></trkpt><trkpt lat="42.7759866" lon="10.1982254"><ele>631.5</ele><time>2026-04-04T10:12:08.757Z</time></trkpt><trkpt lat="42.7760512" lon="10.1983723"><ele>632.0</ele><time>2026-04-04T10:12:09.757Z</time></trkpt><trkpt lat="42.7761014" lon="10.1985093"><ele>632.5</ele><time>2026-04-04T10:12:10.757Z</time></trkpt><trkpt lat="42.7761428" lon="10.1986476"><ele>633.0</ele><time>2026-04-04T10:12:11.757Z</time></trkpt><trkpt lat="42.776195" lon="10.1987858"><ele>633.0</ele><time>2026-04-04T10:12:12.757Z</time></trkpt><trkpt lat="42.776262" lon="10.1989094"><ele>633.0</ele><time>2026-04-04T10:12:13.757Z</time></trkpt><trkpt lat="42.7763001" lon="10.1990473"><ele>633.0</ele><time>2026-04-04T10:12:14.757Z</time></trkpt><trkpt lat="42.7763779" lon="10.1991465"><ele>633.0</ele><time>2026-04-04T10:12:15.757Z</time></trkpt><trkpt lat="42.7764595" lon="10.199242"><ele>633.0</ele><time>2026-04-04T10:12:16.757Z</time></trkpt><trkpt lat="42.7765354" lon="10.1993282"><ele>631.0</ele><time>2026-04-04T10:12:17.757Z</time></trkpt><trkpt lat="42.776622" lon="10.1994065"><ele>629.0</ele><time>2026-04-04T10:12:18.757Z</time></trkpt><trkpt lat="42.7767011" lon="10.1994642"><ele>627.0</ele><time>2026-04-04T10:12:19.757Z</time></trkpt><trkpt lat="42.7767821" lon="10.1995301"><ele>625.0</ele><time>2026-04-04T10:12:20.757Z</time></trkpt><trkpt lat="42.776856" lon="10.199578"><ele>623.0</ele><time>2026-04-04T10:12:21.757Z</time></trkpt><trkpt lat="42.7769332" lon="10.1996384"><ele>623.0</ele><time>2026-04-04T10:12:22.756Z</time></trkpt><trkpt lat="42.7769926" lon="10.1996915"><ele>623.0</ele><time>2026-04-04T10:12:23.757Z</time></trkpt><trkpt lat="42.7770559" lon="10.1997413"><ele>623.0</ele><time>2026-04-04T10:12:24.757Z</time></trkpt><trkpt lat="42.7771203" lon="10.1998037"><ele>623.0</ele><time>2026-04-04T10:12:25.757Z</time></trkpt><trkpt lat="42.7772062" lon="10.199877"><ele>623.0</ele><time>2026-04-04T10:12:27.757Z</time></trkpt><trkpt lat="42.7772389" lon="10.1999513"><ele>623.0</ele><time>2026-04-04T10:12:29.756Z</time></trkpt><trkpt lat="42.7772736" lon="10.2000398"><ele>623.0</ele><time>2026-04-04T10:12:31.757Z</time></trkpt><trkpt lat="42.7772749" lon="10.2001403"><ele>623.0</ele><time>2026-04-04T10:12:34.756Z</time></trkpt><trkpt lat="42.7772315" lon="10.2000607"><ele>623.0</ele><time>2026-04-04T10:13:32.757Z</time></trkpt><trkpt lat="42.7771861" lon="10.1999535"><ele>623.0</ele><time>2026-04-04T10:13:34.757Z</time></trkpt><trkpt lat="42.777143" lon="10.1998859"><ele>623.0</ele><time>2026-04-04T10:13:35.757Z</time></trkpt><trkpt lat="42.7770803" lon="10.1998246"><ele>623.0</ele><time>2026-04-04T10:13:36.757Z</time></trkpt><trkpt lat="42.7770006" lon="10.1997528"><ele>623.0</ele><time>2026-04-04T10:13:37.757Z</time></trkpt><trkpt lat="42.776904" lon="10.1996782"><ele>623.0</ele><time>2026-04-04T10:13:38.757Z</time></trkpt><trkpt lat="42.7768255" lon="10.1995933"><ele>623.0</ele><time>2026-04-04T10:13:39.757Z</time></trkpt><trkpt lat="42.7767287" lon="10.1995055"><ele>623.0</ele><time>2026-04-04T10:13:40.757Z</time></trkpt><trkpt lat="42.7766337" lon="10.1994139"><ele>623.0</ele><time>2026-04-04T10:13:41.757Z</time></trkpt><trkpt lat="42.7765439" lon="10.1993086"><ele>622.5</ele><time>2026-04-04T10:13:42.757Z</time></trkpt><trkpt lat="42.7764513" lon="10.1991968"><ele>622.0</ele><time>2026-04-04T10:13:43.757Z</time></trkpt><trkpt lat="42.7763645" lon="10.1990873"><ele>621.5</ele><time>2026-04-04T10:13:44.757Z</time></trkpt><trkpt lat="42.7762856" lon="10.1989645"><ele>621.0</ele><time>2026-04-04T10:13:45.757Z</time></trkpt><trkpt lat="42.7762087" lon="10.1988371"><ele>619.0</ele><time>2026-04-04T10:13:46.757Z</time></trkpt><trkpt lat="42.7761525" lon="10.198689"><ele>617.0</ele><time>2026-04-04T10:13:47.757Z</time></trkpt><trkpt lat="42.776092" lon="10.1985344"><ele>615.0</ele><time>2026-04-04T10:13:48.757Z</time></trkpt><trkpt lat="42.7760244" lon="10.1983642"><ele>613.0</ele><time>2026-04-04T10:13:49.757Z</time></trkpt><trkpt lat="42.775952" lon="10.1981845"><ele>617.5</ele><time>2026-04-04T10:13:50.756Z</time></trkpt><trkpt lat="42.7758675" lon="10.1979971"><ele>622.0</ele><time>2026-04-04T10:13:51.757Z</time></trkpt><trkpt lat="42.7757886" lon="10.1978298"><ele>626.5</ele><time>2026-04-04T10:13:52.757Z</time></trkpt><trkpt lat="42.775712" lon="10.1976737"><ele>631.0</ele><time>2026-04-04T10:13:53.757Z</time></trkpt><trkpt lat="42.7756462" lon="10.1975169"><ele>631.0</ele><time>2026-04-04T10:13:54.756Z</time></trkpt><trkpt lat="42.7755825" lon="10.197341"><ele>631.0</ele><time>2026-04-04T10:13:55.757Z</time></trkpt><trkpt lat="42.7755093" lon="10.1971744"><ele>631.0</ele><time>2026-04-04T10:13:56.757Z</time></trkpt><trkpt lat="42.7754397" lon="10.1969979"><ele>631.0</ele><time>2026-04-04T10:13:57.757Z</time></trkpt><trkpt lat="42.7753824" lon="10.1968213"><ele>633.5</ele><time>2026-04-04T10:13:58.757Z</time></trkpt><trkpt lat="42.7753447" lon="10.1966408"><ele>636.0</ele><time>2026-04-04T10:13:59.757Z</time></trkpt><trkpt lat="42.7753048" lon="10.1964777"><ele>638.5</ele><time>2026-04-04T10:14:00.756Z</time></trkpt><trkpt lat="42.7752766" lon="10.1962928"><ele>641.0</ele><time>2026-04-04T10:14:01.757Z</time></trkpt><trkpt lat="42.7752565" lon="10.1961049"><ele>641.5</ele><time>2026-04-04T10:14:02.756Z</time></trkpt><trkpt lat="42.7752427" lon="10.1959111"><ele>642.0</ele><time>2026-04-04T10:14:03.756Z</time></trkpt><trkpt lat="42.7752303" lon="10.1957112"><ele>642.5</ele><time>2026-04-04T10:14:04.757Z</time></trkpt><trkpt lat="42.7752181" lon="10.1955118"><ele>643.0</ele><time>2026-04-04T10:14:05.757Z</time></trkpt><trkpt lat="42.7751839" lon="10.1953405"><ele>645.0</ele><time>2026-04-04T10:14:06.757Z</time></trkpt><trkpt lat="42.7751375" lon="10.195158"><ele>647.0</ele><time>2026-04-04T10:14:07.756Z</time></trkpt><trkpt lat="42.7750754" lon="10.1949957"><ele>649.0</ele><time>2026-04-04T10:14:08.757Z</time></trkpt><trkpt lat="42.7750297" lon="10.1948675"><ele>651.0</ele><time>2026-04-04T10:14:09.756Z</time></trkpt><trkpt lat="42.7749606" lon="10.1947508"><ele>651.0</ele><time>2026-04-04T10:14:10.757Z</time></trkpt><trkpt lat="42.77486" lon="10.1946874"><ele>651.0</ele><time>2026-04-04T10:14:11.757Z</time></trkpt><trkpt lat="42.7747539" lon="10.1946738"><ele>651.0</ele><time>2026-04-04T10:14:12.756Z</time></trkpt><trkpt lat="42.7746616" lon="10.1947147"><ele>651.0</ele><time>2026-04-04T10:14:13.757Z</time></trkpt><trkpt lat="42.7745778" lon="10.1947598"><ele>651.0</ele><time>2026-04-04T10:14:14.756Z</time></trkpt><trkpt lat="42.7744899" lon="10.1947777"><ele>651.0</ele><time>2026-04-04T10:14:15.757Z</time></trkpt><trkpt lat="42.774406" lon="10.1947554"><ele>651.0</ele><time>2026-04-04T10:14:16.757Z</time></trkpt><trkpt lat="42.7743221" lon="10.1947134"><ele>651.0</ele><time>2026-04-04T10:14:17.757Z</time></trkpt><trkpt lat="42.7742464" lon="10.1946591"><ele>651.0</ele><time>2026-04-04T10:14:18.757Z</time></trkpt><trkpt lat="42.7741639" lon="10.1945716"><ele>651.0</ele><time>2026-04-04T10:14:19.757Z</time></trkpt><trkpt lat="42.7741124" lon="10.1944602"><ele>647.1999999999999</ele><time>2026-04-04T10:14:20.757Z</time></trkpt><trkpt lat="42.7741057" lon="10.1943095"><ele>643.4</ele><time>2026-04-04T10:14:21.757Z</time></trkpt><trkpt lat="42.7740967" lon="10.1941557"><ele>639.6</ele><time>2026-04-04T10:14:22.756Z</time></trkpt><trkpt lat="42.7740289" lon="10.1940943"><ele>635.8</ele><time>2026-04-04T10:14:23.757Z</time></trkpt><trkpt lat="42.7739592" lon="10.1940373"><ele>632.0</ele><time>2026-04-04T10:14:24.757Z</time></trkpt><trkpt lat="42.7738661" lon="10.194021"><ele>630.2</ele><time>2026-04-04T10:14:25.757Z</time></trkpt><trkpt lat="42.7737787" lon="10.1939989"><ele>628.4000000000001</ele><time>2026-04-04T10:14:26.757Z</time></trkpt><trkpt lat="42.7736778" lon="10.1939864"><ele>626.5999999999999</ele><time>2026-04-04T10:14:27.757Z</time></trkpt><trkpt lat="42.7736056" lon="10.1939295"><ele>624.8</ele><time>2026-04-04T10:14:28.757Z</time></trkpt><trkpt lat="42.7735351" lon="10.1938225"><ele>623.0</ele><time>2026-04-04T10:14:29.757Z</time></trkpt><trkpt lat="42.7734649" lon="10.1937139"><ele>623.0</ele><time>2026-04-04T10:14:30.756Z</time></trkpt><trkpt lat="42.773408" lon="10.1935791"><ele>623.0</ele><time>2026-04-04T10:14:31.757Z</time></trkpt><trkpt lat="42.7733557" lon="10.1934357"><ele>623.0</ele><time>2026-04-04T10:14:32.757Z</time></trkpt><trkpt lat="42.7733148" lon="10.1932865"><ele>623.0</ele><time>2026-04-04T10:14:33.757Z</time></trkpt><trkpt lat="42.7732805" lon="10.1931237"><ele>626.25</ele><time>2026-04-04T10:14:34.757Z</time></trkpt><trkpt lat="42.7732519" lon="10.1929586"><ele>629.5</ele><time>2026-04-04T10:14:35.757Z</time></trkpt><trkpt lat="42.7732463" lon="10.1928028"><ele>632.75</ele><time>2026-04-04T10:14:36.757Z</time></trkpt><trkpt lat="42.7732471" lon="10.1926432"><ele>636.0</ele><time>2026-04-04T10:14:37.757Z</time></trkpt><trkpt lat="42.7732508" lon="10.1924797"><ele>639.0</ele><time>2026-04-04T10:14:38.757Z</time></trkpt><trkpt lat="42.7732454" lon="10.1923295"><ele>642.0</ele><time>2026-04-04T10:14:39.757Z</time></trkpt><trkpt lat="42.7732045" lon="10.1921804"><ele>645.0</ele><time>2026-04-04T10:14:40.757Z</time></trkpt><trkpt lat="42.7731452" lon="10.1920297"><ele>648.0</ele><time>2026-04-04T10:14:41.757Z</time></trkpt><trkpt lat="42.7730771" lon="10.1918868"><ele>648.0</ele><time>2026-04-04T10:14:42.757Z</time></trkpt><trkpt lat="42.7730073" lon="10.191728"><ele>648.0</ele><time>2026-04-04T10:14:43.757Z</time></trkpt><trkpt lat="42.7729359" lon="10.1915766"><ele>648.0</ele><time>2026-04-04T10:14:44.757Z</time></trkpt><trkpt lat="42.7729071" lon="10.1914064"><ele>648.0</ele><time>2026-04-04T10:14:45.757Z</time></trkpt><trkpt lat="42.7728756" lon="10.1912645"><ele>645.1999999999999</ele><time>2026-04-04T10:14:46.756Z</time></trkpt><trkpt lat="42.7728698" lon="10.1911337"><ele>642.4</ele><time>2026-04-04T10:14:47.756Z</time></trkpt><trkpt lat="42.7727905" lon="10.1910456"><ele>639.5999999999999</ele><time>2026-04-04T10:14:48.757Z</time></trkpt><trkpt lat="42.7727245" lon="10.1909524"><ele>636.8</ele><time>2026-04-04T10:14:49.757Z</time></trkpt><trkpt lat="42.7726375" lon="10.1908783"><ele>634.0</ele><time>2026-04-04T10:14:50.757Z</time></trkpt><trkpt lat="42.7725356" lon="10.1908232"><ele>634.0</ele><time>2026-04-04T10:14:51.757Z</time></trkpt><trkpt lat="42.7724233" lon="10.1907822"><ele>634.0</ele><time>2026-04-04T10:14:52.757Z</time></trkpt><trkpt lat="42.7723078" lon="10.1907479"><ele>634.0</ele><time>2026-04-04T10:14:53.757Z</time></trkpt><trkpt lat="42.7722129" lon="10.1907315"><ele>634.0</ele><time>2026-04-04T10:14:54.757Z</time></trkpt><trkpt lat="42.7721248" lon="10.1907063"><ele>634.0</ele><time>2026-04-04T10:14:55.757Z</time></trkpt><trkpt lat="42.7720572" lon="10.1906157"><ele>632.2</ele><time>2026-04-04T10:14:56.757Z</time></trkpt><trkpt lat="42.7719846" lon="10.1905251"><ele>630.4</ele><time>2026-04-04T10:14:57.756Z</time></trkpt><trkpt lat="42.7719208" lon="10.1904256"><ele>628.6</ele><time>2026-04-04T10:14:58.757Z</time></trkpt><trkpt lat="42.7718545" lon="10.1902894"><ele>626.8</ele><time>2026-04-04T10:14:59.757Z</time></trkpt><trkpt lat="42.7717981" lon="10.1901375"><ele>625.0</ele><time>2026-04-04T10:15:00.757Z</time></trkpt><trkpt lat="42.771734" lon="10.1899955"><ele>625.0</ele><time>2026-04-04T10:15:01.757Z</time></trkpt><trkpt lat="42.7716889" lon="10.1898661"><ele>625.0</ele><time>2026-04-04T10:15:02.757Z</time></trkpt><trkpt lat="42.771629" lon="10.1897589"><ele>625.0</ele><time>2026-04-04T10:15:03.757Z</time></trkpt><trkpt lat="42.7715592" lon="10.1896772"><ele>625.0</ele><time>2026-04-04T10:15:04.757Z</time></trkpt><trkpt lat="42.7715437" lon="10.1895531"><ele>625.0</ele><time>2026-04-04T10:15:05.757Z</time></trkpt><trkpt lat="42.7715368" lon="10.1894214"><ele>627.5</ele><time>2026-04-04T10:15:06.756Z</time></trkpt><trkpt lat="42.7715325" lon="10.1892794"><ele>630.0</ele><time>2026-04-04T10:15:07.757Z</time></trkpt><trkpt lat="42.7715384" lon="10.1891194"><ele>632.5</ele><time>2026-04-04T10:15:08.757Z</time></trkpt><trkpt lat="42.7715295" lon="10.1889559"><ele>635.0</ele><time>2026-04-04T10:15:09.757Z</time></trkpt><trkpt lat="42.7715041" lon="10.1888044"><ele>637.6666666666666</ele><time>2026-04-04T10:15:10.757Z</time></trkpt><trkpt lat="42.7714739" lon="10.188658"><ele>640.3333333333333</ele><time>2026-04-04T10:15:11.757Z</time></trkpt><trkpt lat="42.7714494" lon="10.1885364"><ele>643.0</ele><time>2026-04-04T10:15:12.756Z</time></trkpt><trkpt lat="42.77143" lon="10.1884387"><ele>645.6666666666666</ele><time>2026-04-04T10:15:13.756Z</time></trkpt><trkpt lat="42.7714178" lon="10.1883288"><ele>648.3333333333334</ele><time>2026-04-04T10:15:15.757Z</time></trkpt><trkpt lat="42.7713758" lon="10.1882526"><ele>651.0</ele><time>2026-04-04T10:15:17.757Z</time></trkpt><trkpt lat="42.7712833" lon="10.1880967"><ele>647.5999999999999</ele><time>2026-04-04T10:15:19.757Z</time></trkpt><trkpt lat="42.7712147" lon="10.1879942"><ele>644.1999999999999</ele><time>2026-04-04T10:15:20.757Z</time></trkpt><trkpt lat="42.7711482" lon="10.1878719"><ele>640.8</ele><time>2026-04-04T10:15:21.757Z</time></trkpt><trkpt lat="42.7710713" lon="10.1877657"><ele>637.4</ele><time>2026-04-04T10:15:22.757Z</time></trkpt><trkpt lat="42.7710125" lon="10.1876558"><ele>634.0</ele><time>2026-04-04T10:15:23.757Z</time></trkpt><trkpt lat="42.7709696" lon="10.1875799"><ele>634.0</ele><time>2026-04-04T10:15:24.757Z</time></trkpt><trkpt lat="42.7709217" lon="10.1875235"><ele>634.0</ele><time>2026-04-04T10:15:25.756Z</time></trkpt><trkpt lat="42.7708276" lon="10.187448"><ele>634.0</ele><time>2026-04-04T10:15:53.757Z</time></trkpt><trkpt lat="42.7707604" lon="10.1873742"><ele>634.0</ele><time>2026-04-04T10:15:55.757Z</time></trkpt><trkpt lat="42.7707049" lon="10.1873322"><ele>634.0</ele><time>2026-04-04T10:15:57.756Z</time></trkpt><trkpt lat="42.7707745" lon="10.187368"><ele>634.0</ele><time>2026-04-04T10:16:05.757Z</time></trkpt><trkpt lat="42.7708011" lon="10.1874637"><ele>634.0</ele><time>2026-04-04T10:16:06.757Z</time></trkpt><trkpt lat="42.7708232" lon="10.1875503"><ele>634.0</ele><time>2026-04-04T10:16:08.757Z</time></trkpt><trkpt lat="42.7708674" lon="10.1876223"><ele>634.0</ele><time>2026-04-04T10:16:10.756Z</time></trkpt><trkpt lat="42.7709339" lon="10.1877125"><ele>634.0</ele><time>2026-04-04T10:16:12.757Z</time></trkpt><trkpt lat="42.770986" lon="10.1877836"><ele>634.0</ele><time>2026-04-04T10:16:14.757Z</time></trkpt><trkpt lat="42.7710326" lon="10.1878472"><ele>634.0</ele><time>2026-04-04T10:16:16.757Z</time></trkpt><trkpt lat="42.7710882" lon="10.1879094"><ele>634.0</ele><time>2026-04-04T10:16:18.757Z</time></trkpt><trkpt lat="42.7711412" lon="10.1879589"><ele>636.4285714285714</ele><time>2026-04-04T10:16:20.757Z</time></trkpt><trkpt lat="42.7711947" lon="10.1880214"><ele>638.8571428571429</ele><time>2026-04-04T10:16:22.757Z</time></trkpt><trkpt lat="42.7712473" lon="10.1880977"><ele>641.2857142857142</ele><time>2026-04-04T10:16:25.757Z</time></trkpt><trkpt lat="42.7712886" lon="10.1881685"><ele>643.7142857142858</ele><time>2026-04-04T10:16:35.757Z</time></trkpt><trkpt lat="42.7713105" lon="10.1882553"><ele>646.1428571428571</ele><time>2026-04-04T10:16:43.757Z</time></trkpt><trkpt lat="42.7713521" lon="10.1883534"><ele>648.5714285714286</ele><time>2026-04-04T10:16:58.757Z</time></trkpt><trkpt lat="42.7713616" lon="10.18844"><ele>651.0</ele><time>2026-04-04T10:17:01.757Z</time></trkpt><trkpt lat="42.7713789" lon="10.1885341"><ele>651.0</ele><time>2026-04-04T10:17:07.757Z</time></trkpt><trkpt lat="42.7714195" lon="10.1886212"><ele>651.0</ele><time>2026-04-04T10:17:16.757Z</time></trkpt><trkpt lat="42.7714359" lon="10.1887282"><ele>651.0</ele><time>2026-04-04T10:17:25.757Z</time></trkpt><trkpt lat="42.7714201" lon="10.1888151"><ele>651.0</ele><time>2026-04-04T10:17:31.756Z</time></trkpt><trkpt lat="42.7714422" lon="10.1889089"><ele>651.0</ele><time>2026-04-04T10:17:35.756Z</time></trkpt><trkpt lat="42.7714263" lon="10.1889968"><ele>651.0</ele><time>2026-04-04T10:17:40.757Z</time></trkpt><trkpt lat="42.7714319" lon="10.1890903"><ele>651.0</ele><time>2026-04-04T10:17:45.757Z</time></trkpt><trkpt lat="42.7714296" lon="10.1892023"><ele>648.7142857142857</ele><time>2026-04-04T10:17:50.757Z</time></trkpt><trkpt lat="42.7714311" lon="10.1893163"><ele>646.4285714285714</ele><time>2026-04-04T10:17:53.757Z</time></trkpt><trkpt lat="42.7714498" lon="10.1894174"><ele>644.1428571428571</ele><time>2026-04-04T10:17:56.757Z</time></trkpt><trkpt lat="42.771458" lon="10.1895028"><ele>641.8571428571429</ele><time>2026-04-04T10:17:59.757Z</time></trkpt><trkpt lat="42.7714776" lon="10.1895891"><ele>639.5714285714286</ele><time>2026-04-04T10:18:02.757Z</time></trkpt><trkpt lat="42.7715266" lon="10.1896655"><ele>637.2857142857142</ele><time>2026-04-04T10:18:05.757Z</time></trkpt><trkpt lat="42.7715766" lon="10.1897201"><ele>635.0</ele><time>2026-04-04T10:18:08.757Z</time></trkpt><trkpt lat="42.7716242" lon="10.1897958"><ele>634.9999999999999</ele><time>2026-04-04T10:18:11.757Z</time></trkpt><trkpt lat="42.7716622" lon="10.1898801"><ele>635.0</ele><time>2026-04-04T10:18:14.757Z</time></trkpt><trkpt lat="42.7717078" lon="10.1899439"><ele>635.0</ele><time>2026-04-04T10:18:17.756Z</time></trkpt><trkpt lat="42.7716381" lon="10.1898734"><ele>635.0</ele><time>2026-04-04T10:18:32.757Z</time></trkpt><trkpt lat="42.7716108" lon="10.1897951"><ele>635.0</ele><time>2026-04-04T10:18:35.757Z</time></trkpt><trkpt lat="42.7715799" lon="10.1896956"><ele>634.9999999999999</ele><time>2026-04-04T10:18:38.757Z</time></trkpt><trkpt lat="42.7715347" lon="10.189631"><ele>635.0</ele><time>2026-04-04T10:18:41.757Z</time></trkpt><trkpt lat="42.7715109" lon="10.1895498"><ele>635.0</ele><time>2026-04-04T10:18:44.757Z</time></trkpt><trkpt lat="42.7715294" lon="10.1894395"><ele>635.0</ele><time>2026-04-04T10:18:47.757Z</time></trkpt><trkpt lat="42.7715548" lon="10.1893286"><ele>635.0</ele><time>2026-04-04T10:18:50.756Z</time></trkpt><trkpt lat="42.7715706" lon="10.1892326"><ele>635.0</ele><time>2026-04-04T10:18:56.757Z</time></trkpt><trkpt lat="42.7715616" lon="10.1891115"><ele>635.0</ele><time>2026-04-04T10:18:59.757Z</time></trkpt><trkpt lat="42.7715527" lon="10.1889999"><ele>635.0</ele><time>2026-04-04T10:19:02.757Z</time></trkpt><trkpt lat="42.7715379" lon="10.1888903"><ele>637.6666666666666</ele><time>2026-04-04T10:19:05.757Z</time></trkpt><trkpt lat="42.7715123" lon="10.1887861"><ele>640.3333333333333</ele><time>2026-04-04T10:19:08.757Z</time></trkpt><trkpt lat="42.7714644" lon="10.1886931"><ele>643.0</ele><time>2026-04-04T10:19:11.756Z</time></trkpt><trkpt lat="42.7714215" lon="10.1885882"><ele>645.6666666666666</ele><time>2026-04-04T10:19:14.757Z</time></trkpt><trkpt lat="42.7713926" lon="10.1884921"><ele>648.3333333333334</ele><time>2026-04-04T10:19:17.757Z</time></trkpt><trkpt lat="42.7713718" lon="10.18837"><ele>651.0</ele><time>2026-04-04T10:19:20.756Z</time></trkpt><trkpt lat="42.7713415" lon="10.1882764"><ele>651.0</ele><time>2026-04-04T10:19:23.757Z</time></trkpt><trkpt lat="42.7713004" lon="10.1881834"><ele>651.0</ele><time>2026-04-04T10:19:28.757Z</time></trkpt><trkpt lat="42.7712411" lon="10.1881286"><ele>651.0</ele><time>2026-04-04T10:19:32.757Z</time></trkpt><trkpt lat="42.7711817" lon="10.1880657"><ele>651.0</ele><time>2026-04-04T10:19:36.757Z</time></trkpt><trkpt lat="42.7711316" lon="10.1879935"><ele>651.0</ele><time>2026-04-04T10:19:49.756Z</time></trkpt><trkpt lat="42.771069" lon="10.1879149"><ele>651.0</ele><time>2026-04-04T10:19:53.757Z</time></trkpt><trkpt lat="42.7710206" lon="10.1878412"><ele>648.1666666666666</ele><time>2026-04-04T10:19:57.757Z</time></trkpt><trkpt lat="42.7709542" lon="10.1877517"><ele>645.3333333333334</ele><time>2026-04-04T10:20:01.757Z</time></trkpt><trkpt lat="42.7709025" lon="10.1876765"><ele>642.5</ele><time>2026-04-04T10:20:04.757Z</time></trkpt><trkpt lat="42.7708563" lon="10.1876079"><ele>639.6666666666667</ele><time>2026-04-04T10:20:09.757Z</time></trkpt><trkpt lat="42.7708176" lon="10.1875313"><ele>636.8333333333334</ele><time>2026-04-04T10:20:14.757Z</time></trkpt><trkpt lat="42.7707736" lon="10.187433"><ele>634.0</ele><time>2026-04-04T10:21:11.757Z</time></trkpt><trkpt lat="42.7707214" lon="10.1873573"><ele>634.0</ele><time>2026-04-04T10:21:15.756Z</time></trkpt><trkpt lat="42.7707883" lon="10.187423"><ele>634.0</ele><time>2026-04-04T10:21:28.757Z</time></trkpt><trkpt lat="42.7708248" lon="10.1874996"><ele>634.0</ele><time>2026-04-04T10:21:31.757Z</time></trkpt><trkpt lat="42.7709057" lon="10.1876069"><ele>634.0</ele><time>2026-04-04T10:22:14.757Z</time></trkpt><trkpt lat="42.7709646" lon="10.1876997"><ele>634.0</ele><time>2026-04-04T10:22:15.757Z</time></trkpt><trkpt lat="42.7710465" lon="10.1878877"><ele>637.4</ele><time>2026-04-04T10:22:17.757Z</time></trkpt><trkpt lat="42.7711244" lon="10.1880176"><ele>640.8</ele><time>2026-04-04T10:22:18.756Z</time></trkpt><trkpt lat="42.7711965" lon="10.1881121"><ele>644.1999999999999</ele><time>2026-04-04T10:22:19.757Z</time></trkpt><trkpt lat="42.7712687" lon="10.1881942"><ele>647.5999999999999</ele><time>2026-04-04T10:22:20.757Z</time></trkpt><trkpt lat="42.7713194" lon="10.1882877"><ele>651.0</ele><time>2026-04-04T10:22:21.757Z</time></trkpt><trkpt lat="42.7713418" lon="10.1883955"><ele>651.0</ele><time>2026-04-04T10:22:22.757Z</time></trkpt><trkpt lat="42.7713639" lon="10.1884846"><ele>651.0</ele><time>2026-04-04T10:22:23.757Z</time></trkpt><trkpt lat="42.7713933" lon="10.1885777"><ele>651.0</ele><time>2026-04-04T10:22:24.757Z</time></trkpt><trkpt lat="42.771426" lon="10.1886796"><ele>651.0</ele><time>2026-04-04T10:22:25.757Z</time></trkpt><trkpt lat="42.7714556" lon="10.1888061"><ele>651.0</ele><time>2026-04-04T10:22:26.757Z</time></trkpt><trkpt lat="42.7714764" lon="10.1889367"><ele>651.0</ele><time>2026-04-04T10:22:27.756Z</time></trkpt><trkpt lat="42.771488" lon="10.189074"><ele>647.8</ele><time>2026-04-04T10:22:28.757Z</time></trkpt><trkpt lat="42.7714828" lon="10.189213"><ele>644.5999999999999</ele><time>2026-04-04T10:22:29.757Z</time></trkpt><trkpt lat="42.7714822" lon="10.1893384"><ele>641.4</ele><time>2026-04-04T10:22:30.757Z</time></trkpt><trkpt lat="42.7714791" lon="10.1894656"><ele>638.2</ele><time>2026-04-04T10:22:31.757Z</time></trkpt><trkpt lat="42.7714995" lon="10.1895872"><ele>635.0</ele><time>2026-04-04T10:22:32.757Z</time></trkpt><trkpt lat="42.7715168" lon="10.1896815"><ele>635.0</ele><time>2026-04-04T10:22:33.757Z</time></trkpt><trkpt lat="42.7715694" lon="10.1897669"><ele>635.0</ele><time>2026-04-04T10:22:34.757Z</time></trkpt><trkpt lat="42.7716464" lon="10.1898501"><ele>635.0</ele><time>2026-04-04T10:22:35.757Z</time></trkpt><trkpt lat="42.7717381" lon="10.1900085"><ele>635.0</ele><time>2026-04-04T10:22:36.757Z</time></trkpt><trkpt lat="42.771791" lon="10.1901368"><ele>635.0</ele><time>2026-04-04T10:22:37.756Z</time></trkpt><trkpt lat="42.7718571" lon="10.1902599"><ele>634.8333333333333</ele><time>2026-04-04T10:22:38.757Z</time></trkpt><trkpt lat="42.7719021" lon="10.1903812"><ele>634.6666666666666</ele><time>2026-04-04T10:22:39.757Z</time></trkpt><trkpt lat="42.7719524" lon="10.1904779"><ele>634.5</ele><time>2026-04-04T10:22:40.757Z</time></trkpt><trkpt lat="42.7720428" lon="10.1905463"><ele>634.3333333333334</ele><time>2026-04-04T10:22:41.757Z</time></trkpt><trkpt lat="42.7720978" lon="10.1906196"><ele>634.1666666666667</ele><time>2026-04-04T10:22:42.757Z</time></trkpt><trkpt lat="42.7721582" lon="10.1906499"><ele>634.0</ele><time>2026-04-04T10:22:43.756Z</time></trkpt><trkpt lat="42.7722556" lon="10.1907185"><ele>634.0</ele><time>2026-04-04T10:22:44.756Z</time></trkpt><trkpt lat="42.77234" lon="10.1907466"><ele>634.0</ele><time>2026-04-04T10:22:45.757Z</time></trkpt><trkpt lat="42.7724524" lon="10.1907551"><ele>634.0</ele><time>2026-04-04T10:22:46.757Z</time></trkpt><trkpt lat="42.7725643" lon="10.190801"><ele>634.0</ele><time>2026-04-04T10:22:47.757Z</time></trkpt><trkpt lat="42.7726626" lon="10.1908458"><ele>634.0</ele><time>2026-04-04T10:22:48.757Z</time></trkpt><trkpt lat="42.7727563" lon="10.1908963"><ele>636.3333333333334</ele><time>2026-04-04T10:22:49.757Z</time></trkpt><trkpt lat="42.7727942" lon="10.1909904"><ele>638.6666666666667</ele><time>2026-04-04T10:22:50.757Z</time></trkpt><trkpt lat="42.7728703" lon="10.1910808"><ele>641.0</ele><time>2026-04-04T10:22:51.757Z</time></trkpt><trkpt lat="42.7729115" lon="10.1911597"><ele>643.3333333333334</ele><time>2026-04-04T10:22:52.757Z</time></trkpt><trkpt lat="42.7729218" lon="10.1912901"><ele>645.6666666666666</ele><time>2026-04-04T10:22:53.757Z</time></trkpt><trkpt lat="42.7729452" lon="10.191423"><ele>648.0</ele><time>2026-04-04T10:22:54.757Z</time></trkpt><trkpt lat="42.773002" lon="10.1915609"><ele>648.0</ele><time>2026-04-04T10:22:55.757Z</time></trkpt><trkpt lat="42.7730587" lon="10.191705"><ele>648.0</ele><time>2026-04-04T10:22:56.757Z</time></trkpt><trkpt lat="42.7731029" lon="10.1918357"><ele>648.0</ele><time>2026-04-04T10:22:57.757Z</time></trkpt><trkpt lat="42.7731581" lon="10.1919519"><ele>648.0</ele><time>2026-04-04T10:22:58.757Z</time></trkpt><trkpt lat="42.7732102" lon="10.1920922"><ele>648.0</ele><time>2026-04-04T10:22:59.757Z</time></trkpt><trkpt lat="42.7732479" lon="10.1922364"><ele>645.0</ele><time>2026-04-04T10:23:00.757Z</time></trkpt><trkpt lat="42.7732652" lon="10.1923809"><ele>642.0</ele><time>2026-04-04T10:23:01.756Z</time></trkpt><trkpt lat="42.7732492" lon="10.1925501"><ele>639.0</ele><time>2026-04-04T10:23:02.757Z</time></trkpt><trkpt lat="42.7732659" lon="10.1926987"><ele>636.0</ele><time>2026-04-04T10:23:03.757Z</time></trkpt><trkpt lat="42.7732764" lon="10.1928566"><ele>636.0</ele><time>2026-04-04T10:23:04.757Z</time></trkpt><trkpt lat="42.7733002" lon="10.1929989"><ele>636.0</ele><time>2026-04-04T10:23:05.757Z</time></trkpt><trkpt lat="42.7733203" lon="10.1931634"><ele>636.0</ele><time>2026-04-04T10:23:06.757Z</time></trkpt><trkpt lat="42.7733512" lon="10.1933294"><ele>636.0</ele><time>2026-04-04T10:23:07.757Z</time></trkpt><trkpt lat="42.7734069" lon="10.193477"><ele>633.4</ele><time>2026-04-04T10:23:08.757Z</time></trkpt><trkpt lat="42.7734482" lon="10.1936227"><ele>630.8</ele><time>2026-04-04T10:23:09.757Z</time></trkpt><trkpt lat="42.7735229" lon="10.1937289"><ele>628.1999999999999</ele><time>2026-04-04T10:23:10.756Z</time></trkpt><trkpt lat="42.7736017" lon="10.1938453"><ele>625.6</ele><time>2026-04-04T10:23:11.757Z</time></trkpt><trkpt lat="42.7736682" lon="10.1939385"><ele>623.0</ele><time>2026-04-04T10:23:12.757Z</time></trkpt><trkpt lat="42.7737462" lon="10.1940004"><ele>624.5</ele><time>2026-04-04T10:23:13.757Z</time></trkpt><trkpt lat="42.7738566" lon="10.1940216"><ele>626.0</ele><time>2026-04-04T10:23:14.757Z</time></trkpt><trkpt lat="42.7739361" lon="10.1940295"><ele>627.5</ele><time>2026-04-04T10:23:15.757Z</time></trkpt><trkpt lat="42.7740044" lon="10.1940535"><ele>629.0</ele><time>2026-04-04T10:23:16.757Z</time></trkpt><trkpt lat="42.7740421" lon="10.1941384"><ele>630.5</ele><time>2026-04-04T10:23:17.756Z</time></trkpt><trkpt lat="42.7740994" lon="10.1941954"><ele>632.0</ele><time>2026-04-04T10:23:18.757Z</time></trkpt><trkpt lat="42.774142" lon="10.1942807"><ele>632.0</ele><time>2026-04-04T10:23:19.757Z</time></trkpt><trkpt lat="42.7741707" lon="10.1944052"><ele>632.0</ele><time>2026-04-04T10:23:20.757Z</time></trkpt><trkpt lat="42.7742137" lon="10.1945018"><ele>632.0</ele><time>2026-04-04T10:23:21.757Z</time></trkpt><trkpt lat="42.7742141" lon="10.1945921"><ele>632.0</ele><time>2026-04-04T10:23:22.756Z</time></trkpt><trkpt lat="42.7742622" lon="10.1946767"><ele>632.0</ele><time>2026-04-04T10:23:23.757Z</time></trkpt><trkpt lat="42.7743267" lon="10.19469"><ele>632.0</ele><time>2026-04-04T10:23:24.757Z</time></trkpt><trkpt lat="42.7744043" lon="10.1947379"><ele>635.1666666666666</ele><time>2026-04-04T10:23:25.757Z</time></trkpt><trkpt lat="42.7744933" lon="10.1947489"><ele>638.3333333333333</ele><time>2026-04-04T10:23:26.757Z</time></trkpt><trkpt lat="42.774569" lon="10.1947182"><ele>641.5</ele><time>2026-04-04T10:23:27.757Z</time></trkpt><trkpt lat="42.7746392" lon="10.1946921"><ele>644.6666666666666</ele><time>2026-04-04T10:23:28.756Z</time></trkpt><trkpt lat="42.7747138" lon="10.1946694"><ele>647.8333333333334</ele><time>2026-04-04T10:23:29.757Z</time></trkpt><trkpt lat="42.7747914" lon="10.1946657"><ele>651.0</ele><time>2026-04-04T10:23:30.757Z</time></trkpt><trkpt lat="42.774865" lon="10.1946725"><ele>651.0</ele><time>2026-04-04T10:23:31.757Z</time></trkpt><trkpt lat="42.7749298" lon="10.1947309"><ele>651.0</ele><time>2026-04-04T10:23:32.757Z</time></trkpt><trkpt lat="42.7749898" lon="10.1948105"><ele>651.0</ele><time>2026-04-04T10:23:33.757Z</time></trkpt><trkpt lat="42.7750245" lon="10.1948954"><ele>651.0</ele><time>2026-04-04T10:23:34.757Z</time></trkpt><trkpt lat="42.775051" lon="10.19499"><ele>651.0</ele><time>2026-04-04T10:23:36.757Z</time></trkpt><trkpt lat="42.7750896" lon="10.1951035"><ele>651.0</ele><time>2026-04-04T10:24:06.757Z</time></trkpt><trkpt lat="42.7751244" lon="10.1951916"><ele>650.3333333333334</ele><time>2026-04-04T10:24:07.757Z</time></trkpt><trkpt lat="42.7751529" lon="10.1952857"><ele>649.6666666666666</ele><time>2026-04-04T10:24:08.757Z</time></trkpt><trkpt lat="42.7751758" lon="10.1953862"><ele>649.0</ele><time>2026-04-04T10:24:09.757Z</time></trkpt><trkpt lat="42.7751986" lon="10.1955075"><ele>648.3333333333333</ele><time>2026-04-04T10:24:10.757Z</time></trkpt><trkpt lat="42.7752217" lon="10.1956444"><ele>647.6666666666666</ele><time>2026-04-04T10:24:11.757Z</time></trkpt><trkpt lat="42.7752158" lon="10.1957808"><ele>647.0</ele><time>2026-04-04T10:24:12.756Z</time></trkpt><trkpt lat="42.7752215" lon="10.1959078"><ele>646.2</ele><time>2026-04-04T10:24:13.757Z</time></trkpt><trkpt lat="42.7752262" lon="10.196042"><ele>645.4000000000001</ele><time>2026-04-04T10:24:14.757Z</time></trkpt><trkpt lat="42.7752384" lon="10.1961673"><ele>644.5999999999999</ele><time>2026-04-04T10:24:15.756Z</time></trkpt><trkpt lat="42.7752562" lon="10.1963001"><ele>643.8</ele><time>2026-04-04T10:24:16.757Z</time></trkpt><trkpt lat="42.7752885" lon="10.1964378"><ele>643.0</ele><time>2026-04-04T10:24:17.757Z</time></trkpt><trkpt lat="42.7753249" lon="10.1965672"><ele>642.5999999999999</ele><time>2026-04-04T10:24:18.757Z</time></trkpt><trkpt lat="42.7753484" lon="10.196699"><ele>642.1999999999999</ele><time>2026-04-04T10:24:19.757Z</time></trkpt><trkpt lat="42.7753851" lon="10.1968339"><ele>641.8</ele><time>2026-04-04T10:24:20.757Z</time></trkpt><trkpt lat="42.7754169" lon="10.1969536"><ele>641.4</ele><time>2026-04-04T10:24:21.756Z</time></trkpt><trkpt lat="42.7754673" lon="10.1970752"><ele>641.0</ele><time>2026-04-04T10:24:22.757Z</time></trkpt><trkpt lat="42.7755015" lon="10.1972186"><ele>639.0</ele><time>2026-04-04T10:24:23.757Z</time></trkpt><trkpt lat="42.7755459" lon="10.1973491"><ele>637.0</ele><time>2026-04-04T10:24:24.757Z</time></trkpt><trkpt lat="42.7756109" lon="10.1974788"><ele>635.0</ele><time>2026-04-04T10:24:25.757Z</time></trkpt><trkpt lat="42.7756645" lon="10.1976174"><ele>633.0</ele><time>2026-04-04T10:24:26.757Z</time></trkpt><trkpt lat="42.7757096" lon="10.1977359"><ele>631.0</ele><time>2026-04-04T10:24:27.756Z</time></trkpt><trkpt lat="42.7757731" lon="10.1978624"><ele>631.0</ele><time>2026-04-04T10:24:28.757Z</time></trkpt><trkpt lat="42.775842" lon="10.1979729"><ele>631.0</ele><time>2026-04-04T10:24:29.757Z</time></trkpt><trkpt lat="42.7759344" lon="10.1980435"><ele>631.0</ele><time>2026-04-04T10:24:30.757Z</time></trkpt><trkpt lat="42.7759885" lon="10.1981545"><ele>631.0</ele><time>2026-04-04T10:24:31.757Z</time></trkpt><trkpt lat="42.7760367" lon="10.1982804"><ele>631.0</ele><time>2026-04-04T10:24:32.757Z</time></trkpt><trkpt lat="42.776096" lon="10.1983893"><ele>631.4</ele><time>2026-04-04T10:24:33.757Z</time></trkpt><trkpt lat="42.7761121" lon="10.198535"><ele>631.8</ele><time>2026-04-04T10:24:34.757Z</time></trkpt><trkpt lat="42.7761549" lon="10.198654"><ele>632.1999999999999</ele><time>2026-04-04T10:24:35.757Z</time></trkpt><trkpt lat="42.7761981" lon="10.1987802"><ele>632.6</ele><time>2026-04-04T10:24:36.757Z</time></trkpt><trkpt lat="42.776255" lon="10.1989074"><ele>633.0</ele><time>2026-04-04T10:24:37.756Z</time></trkpt><trkpt lat="42.7763326" lon="10.1990225"><ele>630.6</ele><time>2026-04-04T10:24:38.757Z</time></trkpt><trkpt lat="42.7764037" lon="10.1991321"><ele>628.1999999999999</ele><time>2026-04-04T10:24:39.757Z</time></trkpt><trkpt lat="42.7765009" lon="10.1992185"><ele>625.8</ele><time>2026-04-04T10:24:40.757Z</time></trkpt><trkpt lat="42.7765833" lon="10.1993222"><ele>623.4</ele><time>2026-04-04T10:24:41.757Z</time></trkpt><trkpt lat="42.7766714" lon="10.1994198"><ele>621.0</ele><time>2026-04-04T10:24:42.757Z</time></trkpt><trkpt lat="42.7767569" lon="10.199486"><ele>621.0</ele><time>2026-04-04T10:24:43.757Z</time></trkpt><trkpt lat="42.7768326" lon="10.1995619"><ele>621.0</ele><time>2026-04-04T10:24:44.757Z</time></trkpt><trkpt lat="42.776908" lon="10.1996384"><ele>621.0</ele><time>2026-04-04T10:24:45.756Z</time></trkpt><trkpt lat="42.7769868" lon="10.1996607"><ele>621.0</ele><time>2026-04-04T10:24:46.757Z</time></trkpt><trkpt lat="42.7770537" lon="10.1997142"><ele>621.0</ele><time>2026-04-04T10:24:47.757Z</time></trkpt><trkpt lat="42.7771136" lon="10.1997638"><ele>621.0</ele><time>2026-04-04T10:24:48.757Z</time></trkpt><trkpt lat="42.777179" lon="10.1998243"><ele>621.1666666666666</ele><time>2026-04-04T10:24:49.757Z</time></trkpt><trkpt lat="42.7772411" lon="10.199911"><ele>621.3333333333334</ele><time>2026-04-04T10:24:51.756Z</time></trkpt><trkpt lat="42.7772911" lon="10.2000582"><ele>621.5</ele><time>2026-04-04T10:24:53.757Z</time></trkpt><trkpt lat="42.7773132" lon="10.2001731"><ele>621.6666666666667</ele><time>2026-04-04T10:24:55.757Z</time></trkpt><trkpt lat="42.7773572" lon="10.200256"><ele>621.8333333333334</ele><time>2026-04-04T10:25:01.757Z</time></trkpt><trkpt lat="42.7772822" lon="10.2002577"><ele>622.0</ele><time>2026-04-04T10:29:21.757Z</time></trkpt><trkpt lat="42.7772718" lon="10.2001633"><ele>622.0</ele><time>2026-04-04T10:29:23.757Z</time></trkpt><trkpt lat="42.7772614" lon="10.2000483"><ele>622.0</ele><time>2026-04-04T10:29:26.756Z</time></trkpt><trkpt lat="42.7772509" lon="10.1999342"><ele>622.0</ele><time>2026-04-04T10:29:29.756Z</time></trkpt><trkpt lat="42.7772151" lon="10.1998516"><ele>622.0</ele><time>2026-04-04T10:29:33.756Z</time></trkpt><trkpt lat="42.7771329" lon="10.1998236"><ele>622.0</ele><time>2026-04-04T10:29:45.757Z</time></trkpt><trkpt lat="42.777023" lon="10.199728"><ele>622.2</ele><time>2026-04-04T10:29:47.757Z</time></trkpt><trkpt lat="42.7769543" lon="10.1996653"><ele>622.4000000000001</ele><time>2026-04-04T10:29:48.757Z</time></trkpt><trkpt lat="42.7768756" lon="10.199607"><ele>622.5999999999999</ele><time>2026-04-04T10:29:49.757Z</time></trkpt><trkpt lat="42.7768019" lon="10.1995468"><ele>622.8</ele><time>2026-04-04T10:29:50.756Z</time></trkpt><trkpt lat="42.7767174" lon="10.1994644"><ele>623.0</ele><time>2026-04-04T10:29:51.757Z</time></trkpt><trkpt lat="42.776634" lon="10.1993832"><ele>622.6666666666666</ele><time>2026-04-04T10:29:52.757Z</time></trkpt><trkpt lat="42.776562" lon="10.1992893"><ele>622.3333333333333</ele><time>2026-04-04T10:29:53.757Z</time></trkpt><trkpt lat="42.776489" lon="10.1992131"><ele>622.0</ele><time>2026-04-04T10:29:54.757Z</time></trkpt><trkpt lat="42.7764276" lon="10.1991263"><ele>621.6666666666666</ele><time>2026-04-04T10:29:55.757Z</time></trkpt><trkpt lat="42.7763645" lon="10.1990429"><ele>621.3333333333334</ele><time>2026-04-04T10:29:56.756Z</time></trkpt><trkpt lat="42.7763141" lon="10.1989717"><ele>621.0</ele><time>2026-04-04T10:29:57.757Z</time></trkpt><trkpt lat="42.7762606" lon="10.1989014"><ele>623.0</ele><time>2026-04-04T10:29:58.757Z</time></trkpt><trkpt lat="42.7762262" lon="10.1988199"><ele>625.0</ele><time>2026-04-04T10:29:59.757Z</time></trkpt><trkpt lat="42.7761934" lon="10.1987462"><ele>627.0</ele><time>2026-04-04T10:30:00.757Z</time></trkpt><trkpt lat="42.7761325" lon="10.1985939"><ele>629.0</ele><time>2026-04-04T10:30:02.757Z</time></trkpt><trkpt lat="42.7761018" lon="10.1985026"><ele>631.0</ele><time>2026-04-04T10:30:03.757Z</time></trkpt><trkpt lat="42.7760635" lon="10.1984065"><ele>633.0</ele><time>2026-04-04T10:30:04.756Z</time></trkpt><trkpt lat="42.7760282" lon="10.1983238"><ele>632.6666666666666</ele><time>2026-04-04T10:30:05.757Z</time></trkpt><trkpt lat="42.7759942" lon="10.1982433"><ele>632.3333333333334</ele><time>2026-04-04T10:30:06.757Z</time></trkpt><trkpt lat="42.7759628" lon="10.1981649"><ele>632.0</ele><time>2026-04-04T10:30:07.756Z</time></trkpt><trkpt lat="42.7759242" lon="10.1980808"><ele>631.6666666666667</ele><time>2026-04-04T10:30:08.756Z</time></trkpt><trkpt lat="42.7758787" lon="10.1979787"><ele>631.3333333333334</ele><time>2026-04-04T10:30:09.757Z</time></trkpt><trkpt lat="42.7758383" lon="10.1978774"><ele>631.0</ele><time>2026-04-04T10:30:10.757Z</time></trkpt><trkpt lat="42.7757954" lon="10.1977726"><ele>631.0</ele><time>2026-04-04T10:30:11.757Z</time></trkpt><trkpt lat="42.7757592" lon="10.1976548"><ele>631.0</ele><time>2026-04-04T10:30:12.757Z</time></trkpt><trkpt lat="42.775706" lon="10.1975553"><ele>631.0</ele><time>2026-04-04T10:30:13.757Z</time></trkpt><trkpt lat="42.7756671" lon="10.1974516"><ele>631.0</ele><time>2026-04-04T10:30:14.757Z</time></trkpt><trkpt lat="42.775619" lon="10.1973302"><ele>631.0</ele><time>2026-04-04T10:30:15.757Z</time></trkpt><trkpt lat="42.7755704" lon="10.1971995"><ele>633.5</ele><time>2026-04-04T10:30:16.757Z</time></trkpt><trkpt lat="42.7755192" lon="10.1970682"><ele>636.0</ele><time>2026-04-04T10:30:17.756Z</time></trkpt><trkpt lat="42.775467" lon="10.1969247"><ele>638.5</ele><time>2026-04-04T10:30:18.757Z</time></trkpt><trkpt lat="42.7754126" lon="10.1967889"><ele>641.0</ele><time>2026-04-04T10:30:19.757Z</time></trkpt><trkpt lat="42.775364" lon="10.1966512"><ele>641.0</ele><time>2026-04-04T10:30:20.757Z</time></trkpt><trkpt lat="42.775321" lon="10.1965167"><ele>641.0</ele><time>2026-04-04T10:30:21.757Z</time></trkpt><trkpt lat="42.7752992" lon="10.19637"><ele>641.0</ele><time>2026-04-04T10:30:22.757Z</time></trkpt><trkpt lat="42.7752705" lon="10.1962389"><ele>641.0</ele><time>2026-04-04T10:30:23.757Z</time></trkpt><trkpt lat="42.7752579" lon="10.1960951"><ele>641.0</ele><time>2026-04-04T10:30:24.757Z</time></trkpt><trkpt lat="42.7752474" lon="10.1959517"><ele>641.4</ele><time>2026-04-04T10:30:25.757Z</time></trkpt><trkpt lat="42.7752405" lon="10.1958071"><ele>641.8</ele><time>2026-04-04T10:30:26.757Z</time></trkpt><trkpt lat="42.7752275" lon="10.1956579"><ele>642.1999999999999</ele><time>2026-04-04T10:30:27.757Z</time></trkpt><trkpt lat="42.7752172" lon="10.1955228"><ele>642.5999999999999</ele><time>2026-04-04T10:30:28.757Z</time></trkpt><trkpt lat="42.7751976" lon="10.1953841"><ele>643.0</ele><time>2026-04-04T10:30:29.757Z</time></trkpt><trkpt lat="42.7751629" lon="10.1952551"><ele>644.5999999999999</ele><time>2026-04-04T10:30:30.757Z</time></trkpt><trkpt lat="42.7751306" lon="10.1951289"><ele>646.1999999999999</ele><time>2026-04-04T10:30:31.757Z</time></trkpt><trkpt lat="42.77509" lon="10.1949965"><ele>647.8</ele><time>2026-04-04T10:30:32.756Z</time></trkpt><trkpt lat="42.7750465" lon="10.1948804"><ele>649.4</ele><time>2026-04-04T10:30:33.757Z</time></trkpt><trkpt lat="42.7749712" lon="10.1947878"><ele>651.0</ele><time>2026-04-04T10:30:34.757Z</time></trkpt><trkpt lat="42.7748778" lon="10.1947352"><ele>651.0</ele><time>2026-04-04T10:30:35.756Z</time></trkpt><trkpt lat="42.7747745" lon="10.1947263"><ele>651.0</ele><time>2026-04-04T10:30:36.757Z</time></trkpt><trkpt lat="42.7746825" lon="10.1947515"><ele>651.0</ele><time>2026-04-04T10:30:37.757Z</time></trkpt><trkpt lat="42.7746" lon="10.1948"><ele>651.0</ele><time>2026-04-04T10:30:38.757Z</time></trkpt><trkpt lat="42.7745109" lon="10.194827"><ele>651.0</ele><time>2026-04-04T10:30:39.757Z</time></trkpt><trkpt lat="42.7744221" lon="10.1948152"><ele>647.8333333333334</ele><time>2026-04-04T10:30:40.757Z</time></trkpt><trkpt lat="42.7743397" lon="10.1947695"><ele>644.6666666666666</ele><time>2026-04-04T10:30:41.757Z</time></trkpt><trkpt lat="42.7742724" lon="10.1947078"><ele>641.5</ele><time>2026-04-04T10:30:42.757Z</time></trkpt><trkpt lat="42.7742035" lon="10.1946109"><ele>638.3333333333333</ele><time>2026-04-04T10:30:43.757Z</time></trkpt><trkpt lat="42.774159" lon="10.1945096"><ele>635.1666666666666</ele><time>2026-04-04T10:30:44.757Z</time></trkpt><trkpt lat="42.7741193" lon="10.1944037"><ele>632.0</ele><time>2026-04-04T10:30:45.756Z</time></trkpt><trkpt lat="42.7740998" lon="10.1942995"><ele>632.0</ele><time>2026-04-04T10:30:46.757Z</time></trkpt><trkpt lat="42.7740684" lon="10.1942212"><ele>632.0</ele><time>2026-04-04T10:30:47.757Z</time></trkpt><trkpt lat="42.7739869" lon="10.1940947"><ele>632.0</ele><time>2026-04-04T10:30:49.757Z</time></trkpt><trkpt lat="42.7739138" lon="10.1940465"><ele>632.0</ele><time>2026-04-04T10:30:50.757Z</time></trkpt><trkpt lat="42.7738315" lon="10.1940188"><ele>632.0</ele><time>2026-04-04T10:30:51.757Z</time></trkpt><trkpt lat="42.773743" lon="10.193999"><ele>632.0</ele><time>2026-04-04T10:30:52.757Z</time></trkpt><trkpt lat="42.7736633" lon="10.1939601"><ele>630.2</ele><time>2026-04-04T10:30:53.756Z</time></trkpt><trkpt lat="42.7735924" lon="10.193879"><ele>628.4000000000001</ele><time>2026-04-04T10:30:54.757Z</time></trkpt><trkpt lat="42.773534" lon="10.1937764"><ele>626.5999999999999</ele><time>2026-04-04T10:30:55.757Z</time></trkpt><trkpt lat="42.7734657" lon="10.1937041"><ele>624.8</ele><time>2026-04-04T10:30:56.757Z</time></trkpt><trkpt lat="42.7734198" lon="10.1935797"><ele>623.0</ele><time>2026-04-04T10:30:57.757Z</time></trkpt><trkpt lat="42.7733712" lon="10.1934471"><ele>623.0</ele><time>2026-04-04T10:30:58.757Z</time></trkpt><trkpt lat="42.7733309" lon="10.1933111"><ele>623.0</ele><time>2026-04-04T10:30:59.757Z</time></trkpt><trkpt lat="42.7732977" lon="10.1931706"><ele>623.0</ele><time>2026-04-04T10:31:00.757Z</time></trkpt><trkpt lat="42.7732666" lon="10.1930189"><ele>623.0</ele><time>2026-04-04T10:31:01.757Z</time></trkpt><trkpt lat="42.7732404" lon="10.1928845"><ele>623.0</ele><time>2026-04-04T10:31:02.757Z</time></trkpt><trkpt lat="42.7732303" lon="10.1927296"><ele>625.6</ele><time>2026-04-04T10:31:03.757Z</time></trkpt><trkpt lat="42.7732283" lon="10.192584"><ele>628.1999999999999</ele><time>2026-04-04T10:31:04.757Z</time></trkpt><trkpt lat="42.7732322" lon="10.1924313"><ele>630.8</ele><time>2026-04-04T10:31:05.757Z</time></trkpt><trkpt lat="42.7732151" lon="10.1923037"><ele>633.4</ele><time>2026-04-04T10:31:06.757Z</time></trkpt><trkpt lat="42.7731904" lon="10.192188"><ele>636.0</ele><time>2026-04-04T10:31:07.757Z</time></trkpt><trkpt lat="42.773153" lon="10.1920723"><ele>638.4</ele><time>2026-04-04T10:31:08.757Z</time></trkpt><trkpt lat="42.7731046" lon="10.1919515"><ele>640.8</ele><time>2026-04-04T10:31:09.757Z</time></trkpt><trkpt lat="42.7730498" lon="10.1918166"><ele>643.1999999999999</ele><time>2026-04-04T10:31:10.757Z</time></trkpt><trkpt lat="42.7729935" lon="10.1916812"><ele>645.6</ele><time>2026-04-04T10:31:11.756Z</time></trkpt><trkpt lat="42.7729445" lon="10.1915439"><ele>648.0</ele><time>2026-04-04T10:31:12.757Z</time></trkpt><trkpt lat="42.7729094" lon="10.1914089"><ele>645.1999999999999</ele><time>2026-04-04T10:31:13.757Z</time></trkpt><trkpt lat="42.7729013" lon="10.1912758"><ele>642.4</ele><time>2026-04-04T10:31:14.756Z</time></trkpt><trkpt lat="42.7728782" lon="10.1911589"><ele>639.5999999999999</ele><time>2026-04-04T10:31:15.757Z</time></trkpt><trkpt lat="42.7728252" lon="10.1910604"><ele>636.8</ele><time>2026-04-04T10:31:16.757Z</time></trkpt><trkpt lat="42.7727607" lon="10.1909697"><ele>634.0</ele><time>2026-04-04T10:31:17.757Z</time></trkpt><trkpt lat="42.7726817" lon="10.1908989"><ele>634.0</ele><time>2026-04-04T10:31:18.757Z</time></trkpt><trkpt lat="42.7725964" lon="10.1908367"><ele>634.0</ele><time>2026-04-04T10:31:19.757Z</time></trkpt><trkpt lat="42.7725032" lon="10.190799"><ele>634.0</ele><time>2026-04-04T10:31:20.757Z</time></trkpt><trkpt lat="42.7723969" lon="10.1907623"><ele>634.0</ele><time>2026-04-04T10:31:21.757Z</time></trkpt><trkpt lat="42.772297" lon="10.1907304"><ele>634.0</ele><time>2026-04-04T10:31:22.757Z</time></trkpt><trkpt lat="42.7721964" lon="10.1907045"><ele>634.0</ele><time>2026-04-04T10:31:23.757Z</time></trkpt><trkpt lat="42.7721161" lon="10.1906773"><ele>634.0</ele><time>2026-04-04T10:31:24.757Z</time></trkpt><trkpt lat="42.7720372" lon="10.1906301"><ele>634.0</ele><time>2026-04-04T10:31:25.757Z</time></trkpt><trkpt lat="42.7719824" lon="10.1905587"><ele>634.0</ele><time>2026-04-04T10:31:26.757Z</time></trkpt><trkpt lat="42.7719284" lon="10.1904718"><ele>634.0</ele><time>2026-04-04T10:31:27.757Z</time></trkpt><trkpt lat="42.7718718" lon="10.1903665"><ele>634.0</ele><time>2026-04-04T10:31:28.757Z</time></trkpt><trkpt lat="42.7718267" lon="10.1902528"><ele>634.2</ele><time>2026-04-04T10:31:29.757Z</time></trkpt><trkpt lat="42.7717737" lon="10.190138"><ele>634.4</ele><time>2026-04-04T10:31:30.757Z</time></trkpt><trkpt lat="42.7717308" lon="10.1900274"><ele>634.6</ele><time>2026-04-04T10:31:31.757Z</time></trkpt><trkpt lat="42.7716739" lon="10.1898896"><ele>634.8</ele><time>2026-04-04T10:31:32.757Z</time></trkpt><trkpt lat="42.7716243" lon="10.1897855"><ele>635.0</ele><time>2026-04-04T10:31:33.757Z</time></trkpt><trkpt lat="42.7715521" lon="10.1896991"><ele>635.0</ele><time>2026-04-04T10:31:34.757Z</time></trkpt><trkpt lat="42.7714904" lon="10.189606"><ele>635.0</ele><time>2026-04-04T10:31:35.757Z</time></trkpt><trkpt lat="42.7714736" lon="10.1895071"><ele>635.0</ele><time>2026-04-04T10:31:36.757Z</time></trkpt><trkpt lat="42.7714835" lon="10.1893788"><ele>635.0</ele><time>2026-04-04T10:31:37.757Z</time></trkpt><trkpt lat="42.7714918" lon="10.1892725"><ele>635.0</ele><time>2026-04-04T10:31:38.757Z</time></trkpt><trkpt lat="42.7714843" lon="10.189164"><ele>635.0</ele><time>2026-04-04T10:31:39.757Z</time></trkpt><trkpt lat="42.7714934" lon="10.189032"><ele>638.2</ele><time>2026-04-04T10:31:40.757Z</time></trkpt><trkpt lat="42.7714832" lon="10.1889043"><ele>641.4</ele><time>2026-04-04T10:31:41.757Z</time></trkpt><trkpt lat="42.7714696" lon="10.1887706"><ele>644.5999999999999</ele><time>2026-04-04T10:31:42.757Z</time></trkpt><trkpt lat="42.7714297" lon="10.1886382"><ele>647.8</ele><time>2026-04-04T10:31:43.757Z</time></trkpt><trkpt lat="42.7713921" lon="10.1884933"><ele>651.0</ele><time>2026-04-04T10:31:44.756Z</time></trkpt><trkpt lat="42.7713604" lon="10.1883618"><ele>651.0</ele><time>2026-04-04T10:31:45.757Z</time></trkpt><trkpt lat="42.7713062" lon="10.18825"><ele>651.0</ele><time>2026-04-04T10:31:46.756Z</time></trkpt><trkpt lat="42.7712352" lon="10.1881541"><ele>651.0</ele><time>2026-04-04T10:31:47.757Z</time></trkpt><trkpt lat="42.7711669" lon="10.188055"><ele>651.0</ele><time>2026-04-04T10:31:48.757Z</time></trkpt><trkpt lat="42.7710865" lon="10.1879381"><ele>651.0</ele><time>2026-04-04T10:31:49.756Z</time></trkpt><trkpt lat="42.7710074" lon="10.1878237"><ele>647.5999999999999</ele><time>2026-04-04T10:31:50.756Z</time></trkpt><trkpt lat="42.7709373" lon="10.187737"><ele>644.1999999999999</ele><time>2026-04-04T10:31:51.757Z</time></trkpt><trkpt lat="42.7708763" lon="10.1876357"><ele>640.8</ele><time>2026-04-04T10:31:52.757Z</time></trkpt><trkpt lat="42.7708219" lon="10.1875474"><ele>637.4</ele><time>2026-04-04T10:31:53.757Z</time></trkpt><trkpt lat="42.7707812" lon="10.1874684"><ele>634.0</ele><time>2026-04-04T10:31:54.757Z</time></trkpt><trkpt lat="42.7706705" lon="10.1874304"><ele>634.0</ele><time>2026-04-04T10:31:56.757Z</time></trkpt><trkpt lat="42.7706077" lon="10.1874521"><ele>634.0</ele><time>2026-04-04T10:31:57.757Z</time></trkpt><trkpt lat="42.7705221" lon="10.1876253"><ele>634.0</ele><time>2026-04-04T10:31:59.756Z</time></trkpt><trkpt lat="42.7704758" lon="10.187736"><ele>634.0</ele><time>2026-04-04T10:32:00.757Z</time></trkpt><trkpt lat="42.7704236" lon="10.1878553"><ele>634.0</ele><time>2026-04-04T10:32:01.757Z</time></trkpt><trkpt lat="42.7703714" lon="10.187972"><ele>634.0</ele><time>2026-04-04T10:32:02.756Z</time></trkpt><trkpt lat="42.7703194" lon="10.1880817"><ele>634.0</ele><time>2026-04-04T10:32:03.757Z</time></trkpt><trkpt lat="42.7702535" lon="10.1881735"><ele>634.0</ele><time>2026-04-04T10:32:04.757Z</time></trkpt><trkpt lat="42.7701784" lon="10.1882304"><ele>634.0</ele><time>2026-04-04T10:32:05.757Z</time></trkpt><trkpt lat="42.7700979" lon="10.1882793"><ele>634.0</ele><time>2026-04-04T10:32:06.757Z</time></trkpt><trkpt lat="42.7700144" lon="10.1882415"><ele>636.0</ele><time>2026-04-04T10:32:07.757Z</time></trkpt><trkpt lat="42.7699321" lon="10.1881677"><ele>638.0</ele><time>2026-04-04T10:32:08.757Z</time></trkpt><trkpt lat="42.7698373" lon="10.1880813"><ele>640.0</ele><time>2026-04-04T10:32:09.757Z</time></trkpt><trkpt lat="42.7697296" lon="10.1879938"><ele>642.0</ele><time>2026-04-04T10:32:10.757Z</time></trkpt><trkpt lat="42.7696195" lon="10.187926"><ele>642.0</ele><time>2026-04-04T10:32:11.757Z</time></trkpt><trkpt lat="42.7694981" lon="10.1878607"><ele>642.0</ele><time>2026-04-04T10:32:12.757Z</time></trkpt><trkpt lat="42.7693819" lon="10.1878164"><ele>642.0</ele><time>2026-04-04T10:32:13.757Z</time></trkpt><trkpt lat="42.7692706" lon="10.1877999"><ele>642.0</ele><time>2026-04-04T10:32:14.757Z</time></trkpt><trkpt lat="42.7691503" lon="10.1878142"><ele>640.0</ele><time>2026-04-04T10:32:15.757Z</time></trkpt><trkpt lat="42.7690387" lon="10.1878517"><ele>638.0</ele><time>2026-04-04T10:32:16.757Z</time></trkpt><trkpt lat="42.7689352" lon="10.1878972"><ele>636.0</ele><time>2026-04-04T10:32:17.757Z</time></trkpt><trkpt lat="42.7688448" lon="10.1879719"><ele>634.0</ele><time>2026-04-04T10:32:18.757Z</time></trkpt><trkpt lat="42.7687508" lon="10.1880701"><ele>632.0</ele><time>2026-04-04T10:32:19.756Z</time></trkpt><trkpt lat="42.7686582" lon="10.1881581"><ele>622.0</ele><time>2026-04-04T10:32:20.757Z</time></trkpt><trkpt lat="42.7685616" lon="10.188233"><ele>612.0</ele><time>2026-04-04T10:32:21.757Z</time></trkpt><trkpt lat="42.768447" lon="10.1882729"><ele>602.0</ele><time>2026-04-04T10:32:22.757Z</time></trkpt><trkpt lat="42.7683215" lon="10.188306"><ele>592.0</ele><time>2026-04-04T10:32:23.757Z</time></trkpt><trkpt lat="42.7681996" lon="10.1882999"><ele>592.0</ele><time>2026-04-04T10:32:24.757Z</time></trkpt><trkpt lat="42.7680748" lon="10.1882938"><ele>592.0</ele><time>2026-04-04T10:32:25.757Z</time></trkpt><trkpt lat="42.7679418" lon="10.1882794"><ele>592.0</ele><time>2026-04-04T10:32:26.757Z</time></trkpt><trkpt lat="42.7678338" lon="10.1882828"><ele>592.0</ele><time>2026-04-04T10:32:27.757Z</time></trkpt><trkpt lat="42.7677226" lon="10.1882595"><ele>590.4</ele><time>2026-04-04T10:32:28.757Z</time></trkpt><trkpt lat="42.7676254" lon="10.1882137"><ele>588.8000000000001</ele><time>2026-04-04T10:32:29.757Z</time></trkpt><trkpt lat="42.7675293" lon="10.1881543"><ele>587.2</ele><time>2026-04-04T10:32:30.757Z</time></trkpt><trkpt lat="42.7674314" lon="10.1880737"><ele>585.6</ele><time>2026-04-04T10:32:31.757Z</time></trkpt><trkpt lat="42.7673357" lon="10.1879865"><ele>584.0</ele><time>2026-04-04T10:32:32.757Z</time></trkpt><trkpt lat="42.7672466" lon="10.1879121"><ele>590.4</ele><time>2026-04-04T10:32:33.757Z</time></trkpt><trkpt lat="42.7671589" lon="10.1878457"><ele>596.8</ele><time>2026-04-04T10:32:34.757Z</time></trkpt><trkpt lat="42.7670767" lon="10.1877669"><ele>603.2</ele><time>2026-04-04T10:32:35.756Z</time></trkpt><trkpt lat="42.7669894" lon="10.1876491"><ele>609.6</ele><time>2026-04-04T10:32:36.757Z</time></trkpt><trkpt lat="42.7669379" lon="10.1875167"><ele>616.0</ele><time>2026-04-04T10:32:37.757Z</time></trkpt><trkpt lat="42.7668771" lon="10.187406"><ele>612.4</ele><time>2026-04-04T10:32:38.757Z</time></trkpt><trkpt lat="42.7668081" lon="10.1872998"><ele>608.8</ele><time>2026-04-04T10:32:39.756Z</time></trkpt><trkpt lat="42.766734" lon="10.1872086"><ele>605.1999999999999</ele><time>2026-04-04T10:32:40.756Z</time></trkpt><trkpt lat="42.7666605" lon="10.1871075"><ele>601.6</ele><time>2026-04-04T10:32:41.757Z</time></trkpt><trkpt lat="42.7666048" lon="10.1869979"><ele>598.0</ele><time>2026-04-04T10:32:42.757Z</time></trkpt><trkpt lat="42.7665452" lon="10.1868722"><ele>598.0</ele><time>2026-04-04T10:32:43.757Z</time></trkpt><trkpt lat="42.7665047" lon="10.186721"><ele>598.0</ele><time>2026-04-04T10:32:44.757Z</time></trkpt><trkpt lat="42.7664406" lon="10.186592"><ele>598.0</ele><time>2026-04-04T10:32:45.756Z</time></trkpt><trkpt lat="42.7663754" lon="10.1864708"><ele>598.0</ele><time>2026-04-04T10:32:46.757Z</time></trkpt><trkpt lat="42.7663252" lon="10.186337"><ele>598.5</ele><time>2026-04-04T10:32:47.756Z</time></trkpt><trkpt lat="42.7662816" lon="10.1862019"><ele>599.0</ele><time>2026-04-04T10:32:48.756Z</time></trkpt><trkpt lat="42.7662583" lon="10.1860876"><ele>599.5</ele><time>2026-04-04T10:32:49.757Z</time></trkpt><trkpt lat="42.7662397" lon="10.1859942"><ele>600.0</ele><time>2026-04-04T10:32:50.757Z</time></trkpt><trkpt lat="42.766198" lon="10.1859285"><ele>600.5</ele><time>2026-04-04T10:32:51.757Z</time></trkpt><trkpt lat="42.7660962" lon="10.1859528"><ele>601.0</ele><time>2026-04-04T10:32:53.757Z</time></trkpt><trkpt lat="42.7660043" lon="10.1860816"><ele>601.0</ele><time>2026-04-04T10:32:55.757Z</time></trkpt><trkpt lat="42.7659594" lon="10.1861721"><ele>601.0</ele><time>2026-04-04T10:32:56.756Z</time></trkpt><trkpt lat="42.7659127" lon="10.1863213"><ele>601.0</ele><time>2026-04-04T10:32:58.757Z</time></trkpt><trkpt lat="42.7658596" lon="10.1864682"><ele>601.0</ele><time>2026-04-04T10:33:00.757Z</time></trkpt><trkpt lat="42.7658043" lon="10.1866124"><ele>601.0</ele><time>2026-04-04T10:33:02.757Z</time></trkpt><trkpt lat="42.7657693" lon="10.1867677"><ele>597.2</ele><time>2026-04-04T10:33:04.757Z</time></trkpt><trkpt lat="42.7657395" lon="10.1868505"><ele>593.4000000000001</ele><time>2026-04-04T10:33:05.757Z</time></trkpt><trkpt lat="42.7656752" lon="10.1869765"><ele>589.6</ele><time>2026-04-04T10:33:07.756Z</time></trkpt><trkpt lat="42.7656374" lon="10.1870475"><ele>585.8000000000001</ele><time>2026-04-04T10:33:08.757Z</time></trkpt><trkpt lat="42.7656107" lon="10.1872006"><ele>582.0</ele><time>2026-04-04T10:33:10.757Z</time></trkpt><trkpt lat="42.7656155" lon="10.1873653"><ele>577.5</ele><time>2026-04-04T10:33:12.757Z</time></trkpt><trkpt lat="42.7655802" lon="10.1875187"><ele>573.0</ele><time>2026-04-04T10:33:14.757Z</time></trkpt><trkpt lat="42.7655644" lon="10.1876022"><ele>568.5</ele><time>2026-04-04T10:33:15.757Z</time></trkpt><trkpt lat="42.7655458" lon="10.1876851"><ele>564.0</ele><time>2026-04-04T10:33:16.757Z</time></trkpt><trkpt lat="42.7655084" lon="10.1878462"><ele>559.5</ele><time>2026-04-04T10:33:18.757Z</time></trkpt><trkpt lat="42.765487" lon="10.1879284"><ele>555.0</ele><time>2026-04-04T10:33:19.756Z</time></trkpt><trkpt lat="42.7654582" lon="10.188005"><ele>555.0</ele><time>2026-04-04T10:33:20.757Z</time></trkpt><trkpt lat="42.7654079" lon="10.1881612"><ele>555.0</ele><time>2026-04-04T10:33:22.757Z</time></trkpt><trkpt lat="42.7653867" lon="10.1883129"><ele>555.0</ele><time>2026-04-04T10:33:24.757Z</time></trkpt><trkpt lat="42.7653741" lon="10.188499"><ele>555.0</ele><time>2026-04-04T10:33:26.757Z</time></trkpt><trkpt lat="42.7653479" lon="10.1886156"><ele>551.8</ele><time>2026-04-04T10:33:27.757Z</time></trkpt><trkpt lat="42.765311" lon="10.188736"><ele>548.6</ele><time>2026-04-04T10:33:28.757Z</time></trkpt><trkpt lat="42.7652809" lon="10.188869"><ele>545.4</ele><time>2026-04-04T10:33:29.757Z</time></trkpt><trkpt lat="42.7652531" lon="10.1890019"><ele>542.2</ele><time>2026-04-04T10:33:30.757Z</time></trkpt><trkpt lat="42.7652318" lon="10.1891459"><ele>539.0</ele><time>2026-04-04T10:33:31.756Z</time></trkpt><trkpt lat="42.7652225" lon="10.1892856"><ele>535.0</ele><time>2026-04-04T10:33:32.756Z</time></trkpt><trkpt lat="42.7652122" lon="10.189428"><ele>531.0</ele><time>2026-04-04T10:33:33.757Z</time></trkpt><trkpt lat="42.7652133" lon="10.1895706"><ele>527.0</ele><time>2026-04-04T10:33:34.757Z</time></trkpt><trkpt lat="42.7652232" lon="10.1897171"><ele>523.0</ele><time>2026-04-04T10:33:35.756Z</time></trkpt><trkpt lat="42.7652395" lon="10.1898674"><ele>519.0</ele><time>2026-04-04T10:33:36.757Z</time></trkpt><trkpt lat="42.7652533" lon="10.1900162"><ele>515.6</ele><time>2026-04-04T10:33:37.757Z</time></trkpt><trkpt lat="42.7652623" lon="10.1901442"><ele>512.2</ele><time>2026-04-04T10:33:38.757Z</time></trkpt><trkpt lat="42.7652557" lon="10.1902784"><ele>508.80000000000007</ele><time>2026-04-04T10:33:39.757Z</time></trkpt><trkpt lat="42.7652361" lon="10.1904149"><ele>505.40000000000003</ele><time>2026-04-04T10:33:40.757Z</time></trkpt><trkpt lat="42.7652112" lon="10.1905556"><ele>502.0</ele><time>2026-04-04T10:33:41.757Z</time></trkpt><trkpt lat="42.7652141" lon="10.1906953"><ele>500.8</ele><time>2026-04-04T10:33:42.757Z</time></trkpt><trkpt lat="42.7652547" lon="10.1908332"><ele>499.6</ele><time>2026-04-04T10:33:43.757Z</time></trkpt><trkpt lat="42.7652962" lon="10.1909554"><ele>498.40000000000003</ele><time>2026-04-04T10:33:44.757Z</time></trkpt><trkpt lat="42.7653301" lon="10.1910947"><ele>497.20000000000005</ele><time>2026-04-04T10:33:45.757Z</time></trkpt><trkpt lat="42.7653562" lon="10.1912441"><ele>496.0</ele><time>2026-04-04T10:33:46.757Z</time></trkpt><trkpt lat="42.7653883" lon="10.1913932"><ele>496.8</ele><time>2026-04-04T10:33:47.757Z</time></trkpt><trkpt lat="42.7654272" lon="10.1915332"><ele>497.6</ele><time>2026-04-04T10:33:48.756Z</time></trkpt><trkpt lat="42.7654532" lon="10.1916653"><ele>498.4</ele><time>2026-04-04T10:33:49.757Z</time></trkpt><trkpt lat="42.7654712" lon="10.1917995"><ele>499.2</ele><time>2026-04-04T10:33:50.756Z</time></trkpt><trkpt lat="42.7654643" lon="10.1919408"><ele>500.0</ele><time>2026-04-04T10:33:51.756Z</time></trkpt><trkpt lat="42.765446" lon="10.1920954"><ele>500.0</ele><time>2026-04-04T10:33:52.757Z</time></trkpt><trkpt lat="42.7654303" lon="10.1922543"><ele>500.0</ele><time>2026-04-04T10:33:53.756Z</time></trkpt><trkpt lat="42.7654274" lon="10.1924285"><ele>500.0</ele><time>2026-04-04T10:33:54.757Z</time></trkpt><trkpt lat="42.7654325" lon="10.1926036"><ele>500.0</ele><time>2026-04-04T10:33:55.757Z</time></trkpt><trkpt lat="42.7654361" lon="10.1927678"><ele>498.75</ele><time>2026-04-04T10:33:56.756Z</time></trkpt><trkpt lat="42.7654435" lon="10.1929336"><ele>497.5</ele><time>2026-04-04T10:33:57.757Z</time></trkpt><trkpt lat="42.7653874" lon="10.1930911"><ele>496.25</ele><time>2026-04-04T10:33:58.757Z</time></trkpt><trkpt lat="42.7653502" lon="10.1932541"><ele>495.0</ele><time>2026-04-04T10:33:59.757Z</time></trkpt><trkpt lat="42.7653248" lon="10.1934122"><ele>493.2</ele><time>2026-04-04T10:34:00.757Z</time></trkpt><trkpt lat="42.7653087" lon="10.1935584"><ele>491.4</ele><time>2026-04-04T10:34:01.757Z</time></trkpt><trkpt lat="42.7652726" lon="10.1936994"><ele>489.6</ele><time>2026-04-04T10:34:02.757Z</time></trkpt><trkpt lat="42.7652323" lon="10.1938463"><ele>487.8</ele><time>2026-04-04T10:34:03.757Z</time></trkpt><trkpt lat="42.7651787" lon="10.1939858"><ele>486.0</ele><time>2026-04-04T10:34:04.757Z</time></trkpt><trkpt lat="42.76512" lon="10.1941113"><ele>491.75</ele><time>2026-04-04T10:34:05.757Z</time></trkpt><trkpt lat="42.765044" lon="10.1942138"><ele>497.5</ele><time>2026-04-04T10:34:06.757Z</time></trkpt><trkpt lat="42.7649545" lon="10.1943099"><ele>503.25</ele><time>2026-04-04T10:34:07.756Z</time></trkpt><trkpt lat="42.7648519" lon="10.194404"><ele>509.0</ele><time>2026-04-04T10:34:08.757Z</time></trkpt><trkpt lat="42.7647551" lon="10.1944937"><ele>509.0</ele><time>2026-04-04T10:34:09.757Z</time></trkpt><trkpt lat="42.7646599" lon="10.1945814"><ele>509.0</ele><time>2026-04-04T10:34:10.757Z</time></trkpt><trkpt lat="42.7645787" lon="10.1946808"><ele>509.0</ele><time>2026-04-04T10:34:11.757Z</time></trkpt><trkpt lat="42.7645013" lon="10.1947812"><ele>509.0</ele><time>2026-04-04T10:34:12.757Z</time></trkpt><trkpt lat="42.7644228" lon="10.1948848"><ele>509.0</ele><time>2026-04-04T10:34:13.757Z</time></trkpt><trkpt lat="42.7643478" lon="10.1949829"><ele>508.6</ele><time>2026-04-04T10:34:14.757Z</time></trkpt><trkpt lat="42.7642777" lon="10.1950858"><ele>508.2</ele><time>2026-04-04T10:34:15.757Z</time></trkpt><trkpt lat="42.7642074" lon="10.1951934"><ele>507.80000000000007</ele><time>2026-04-04T10:34:16.757Z</time></trkpt><trkpt lat="42.7641546" lon="10.1953111"><ele>507.40000000000003</ele><time>2026-04-04T10:34:17.757Z</time></trkpt><trkpt lat="42.7641061" lon="10.1954164"><ele>507.0</ele><time>2026-04-04T10:34:18.756Z</time></trkpt><trkpt lat="42.7640375" lon="10.1955171"><ele>507.0</ele><time>2026-04-04T10:34:19.757Z</time></trkpt><trkpt lat="42.7639609" lon="10.1955892"><ele>507.00000000000006</ele><time>2026-04-04T10:34:20.757Z</time></trkpt><trkpt lat="42.7638741" lon="10.1956598"><ele>507.00000000000006</ele><time>2026-04-04T10:34:21.757Z</time></trkpt><trkpt lat="42.7637838" lon="10.1957317"><ele>507.0</ele><time>2026-04-04T10:34:22.757Z</time></trkpt><trkpt lat="42.7637081" lon="10.1957865"><ele>507.0</ele><time>2026-04-04T10:34:23.757Z</time></trkpt><trkpt lat="42.7636331" lon="10.1958374"><ele>503.6666666666667</ele><time>2026-04-04T10:34:24.757Z</time></trkpt><trkpt lat="42.7635657" lon="10.1958897"><ele>500.33333333333337</ele><time>2026-04-04T10:34:25.757Z</time></trkpt><trkpt lat="42.7634899" lon="10.1959418"><ele>497.0</ele><time>2026-04-04T10:34:26.757Z</time></trkpt><trkpt lat="42.763415" lon="10.1959736"><ele>493.6666666666667</ele><time>2026-04-04T10:34:27.757Z</time></trkpt><trkpt lat="42.7633419" lon="10.1959859"><ele>490.33333333333337</ele><time>2026-04-04T10:34:28.757Z</time></trkpt><trkpt lat="42.7632615" lon="10.1960044"><ele>487.0</ele><time>2026-04-04T10:34:29.756Z</time></trkpt><trkpt lat="42.7631787" lon="10.1960424"><ele>487.00000000000006</ele><time>2026-04-04T10:34:30.757Z</time></trkpt><trkpt lat="42.7631029" lon="10.1960845"><ele>487.0</ele><time>2026-04-04T10:34:31.757Z</time></trkpt><trkpt lat="42.7630353" lon="10.1961629"><ele>487.0</ele><time>2026-04-04T10:34:32.757Z</time></trkpt><trkpt lat="42.7629794" lon="10.196239"><ele>487.0</ele><time>2026-04-04T10:34:33.757Z</time></trkpt><trkpt lat="42.7629421" lon="10.1963301"><ele>487.00000000000006</ele><time>2026-04-04T10:34:34.757Z</time></trkpt><trkpt lat="42.7629152" lon="10.1964264"><ele>487.0</ele><time>2026-04-04T10:34:35.756Z</time></trkpt><trkpt lat="42.7628947" lon="10.1965377"><ele>481.6666666666667</ele><time>2026-04-04T10:34:36.757Z</time></trkpt><trkpt lat="42.7628753" lon="10.1966461"><ele>476.33333333333337</ele><time>2026-04-04T10:34:37.757Z</time></trkpt><trkpt lat="42.7628424" lon="10.1967561"><ele>471.0</ele><time>2026-04-04T10:34:38.757Z</time></trkpt><trkpt lat="42.762815" lon="10.196863"><ele>465.66666666666663</ele><time>2026-04-04T10:34:39.757Z</time></trkpt><trkpt lat="42.7627811" lon="10.1969834"><ele>460.3333333333333</ele><time>2026-04-04T10:34:40.757Z</time></trkpt><trkpt lat="42.7627416" lon="10.1971106"><ele>455.0</ele><time>2026-04-04T10:34:41.757Z</time></trkpt><trkpt lat="42.7627043" lon="10.197235"><ele>454.0</ele><time>2026-04-04T10:34:42.757Z</time></trkpt><trkpt lat="42.7626661" lon="10.1973551"><ele>453.0</ele><time>2026-04-04T10:34:43.757Z</time></trkpt><trkpt lat="42.7626113" lon="10.1974619"><ele>452.0</ele><time>2026-04-04T10:34:44.757Z</time></trkpt><trkpt lat="42.7625431" lon="10.1975526"><ele>451.0</ele><time>2026-04-04T10:34:45.757Z</time></trkpt><trkpt lat="42.7624583" lon="10.197622"><ele>450.0</ele><time>2026-04-04T10:34:46.757Z</time></trkpt><trkpt lat="42.7623561" lon="10.1976608"><ele>450.0</ele><time>2026-04-04T10:34:47.757Z</time></trkpt><trkpt lat="42.7622462" lon="10.1976808"><ele>450.0</ele><time>2026-04-04T10:34:48.756Z</time></trkpt><trkpt lat="42.7621359" lon="10.1976804"><ele>450.0</ele><time>2026-04-04T10:34:49.757Z</time></trkpt><trkpt lat="42.7620305" lon="10.1976768"><ele>450.0</ele><time>2026-04-04T10:34:50.757Z</time></trkpt><trkpt lat="42.7619428" lon="10.197641"><ele>450.0</ele><time>2026-04-04T10:34:51.757Z</time></trkpt><trkpt lat="42.7618743" lon="10.1976104"><ele>448.5</ele><time>2026-04-04T10:34:52.757Z</time></trkpt><trkpt lat="42.761812" lon="10.1975493"><ele>447.0</ele><time>2026-04-04T10:34:53.757Z</time></trkpt><trkpt lat="42.7617571" lon="10.1974783"><ele>445.5</ele><time>2026-04-04T10:34:55.757Z</time></trkpt><trkpt lat="42.7616816" lon="10.197435"><ele>444.0</ele><time>2026-04-04T10:34:57.757Z</time></trkpt><trkpt lat="42.7616169" lon="10.1974757"><ele>442.5</ele><time>2026-04-04T10:34:59.757Z</time></trkpt><trkpt lat="42.7616338" lon="10.197602"><ele>441.0</ele><time>2026-04-04T10:35:01.757Z</time></trkpt><trkpt lat="42.7616742" lon="10.1976719"><ele>441.0</ele><time>2026-04-04T10:35:02.757Z</time></trkpt><trkpt lat="42.761738" lon="10.1977252"><ele>441.0</ele><time>2026-04-04T10:35:03.757Z</time></trkpt><trkpt lat="42.7618177" lon="10.1977951"><ele>441.0</ele><time>2026-04-04T10:35:04.757Z</time></trkpt><trkpt lat="42.7618815" lon="10.1978597"><ele>441.0</ele><time>2026-04-04T10:35:05.757Z</time></trkpt><trkpt lat="42.7619303" lon="10.1979223"><ele>441.0</ele><time>2026-04-04T10:35:06.757Z</time></trkpt><trkpt lat="42.7619215" lon="10.198063"><ele>441.0</ele><time>2026-04-04T10:35:08.757Z</time></trkpt><trkpt lat="42.7618082" lon="10.1981132"><ele>441.0</ele><time>2026-04-04T10:35:10.757Z</time></trkpt><trkpt lat="42.7617398" lon="10.1980924"><ele>441.0</ele><time>2026-04-04T10:35:11.756Z</time></trkpt><trkpt lat="42.7616691" lon="10.1980445"><ele>441.0</ele><time>2026-04-04T10:35:12.757Z</time></trkpt><trkpt lat="42.7615916" lon="10.1979888"><ele>441.0</ele><time>2026-04-04T10:35:13.756Z</time></trkpt><trkpt lat="42.7615199" lon="10.1979409"><ele>441.0</ele><time>2026-04-04T10:35:14.757Z</time></trkpt><trkpt lat="42.7614516" lon="10.1978918"><ele>441.0</ele><time>2026-04-04T10:35:15.756Z</time></trkpt><trkpt lat="42.7613962" lon="10.1978464"><ele>441.0</ele><time>2026-04-04T10:35:16.756Z</time></trkpt><trkpt lat="42.7612985" lon="10.1978603"><ele>441.0</ele><time>2026-04-04T10:35:18.757Z</time></trkpt><trkpt lat="42.7613013" lon="10.1979892"><ele>441.0</ele><time>2026-04-04T10:35:20.757Z</time></trkpt><trkpt lat="42.7613808" lon="10.1981205"><ele>441.0</ele><time>2026-04-04T10:35:22.757Z</time></trkpt><trkpt lat="42.7614571" lon="10.1982501"><ele>441.0</ele><time>2026-04-04T10:35:24.757Z</time></trkpt><trkpt lat="42.7615641" lon="10.198361"><ele>438.0</ele><time>2026-04-04T10:35:26.757Z</time></trkpt><trkpt lat="42.761622" lon="10.1984219"><ele>435.0</ele><time>2026-04-04T10:35:27.757Z</time></trkpt><trkpt lat="42.7616924" lon="10.1984714"><ele>432.0</ele><time>2026-04-04T10:35:28.757Z</time></trkpt><trkpt lat="42.7617659" lon="10.1985279"><ele>429.0</ele><time>2026-04-04T10:35:29.757Z</time></trkpt><trkpt lat="42.7618523" lon="10.198573"><ele>426.0</ele><time>2026-04-04T10:35:30.757Z</time></trkpt><trkpt lat="42.761935" lon="10.1985677"><ele>423.0</ele><time>2026-04-04T10:35:31.757Z</time></trkpt><trkpt lat="42.7620095" lon="10.1985613"><ele>423.0</ele><time>2026-04-04T10:35:32.757Z</time></trkpt><trkpt lat="42.7621011" lon="10.1985674"><ele>423.0</ele><time>2026-04-04T10:35:33.757Z</time></trkpt><trkpt lat="42.7622026" lon="10.198571"><ele>423.0</ele><time>2026-04-04T10:35:34.757Z</time></trkpt><trkpt lat="42.7623039" lon="10.1985653"><ele>423.0</ele><time>2026-04-04T10:35:35.757Z</time></trkpt><trkpt lat="42.7624166" lon="10.1985638"><ele>423.0</ele><time>2026-04-04T10:35:36.757Z</time></trkpt><trkpt lat="42.7625241" lon="10.1985541"><ele>423.0</ele><time>2026-04-04T10:35:37.757Z</time></trkpt><trkpt lat="42.7626413" lon="10.1985292"><ele>423.0</ele><time>2026-04-04T10:35:38.757Z</time></trkpt><trkpt lat="42.7627361" lon="10.1985085"><ele>423.0</ele><time>2026-04-04T10:35:39.757Z</time></trkpt><trkpt lat="42.7628265" lon="10.1984777"><ele>423.0</ele><time>2026-04-04T10:35:40.757Z</time></trkpt><trkpt lat="42.7629082" lon="10.1984307"><ele>423.0</ele><time>2026-04-04T10:35:41.757Z</time></trkpt><trkpt lat="42.7629906" lon="10.1983703"><ele>424.79999999999995</ele><time>2026-04-04T10:35:42.756Z</time></trkpt><trkpt lat="42.7630622" lon="10.1982957"><ele>426.6</ele><time>2026-04-04T10:35:43.757Z</time></trkpt><trkpt lat="42.7631425" lon="10.1982294"><ele>428.40000000000003</ele><time>2026-04-04T10:35:44.757Z</time></trkpt><trkpt lat="42.763225" lon="10.1981602"><ele>430.20000000000005</ele><time>2026-04-04T10:35:45.757Z</time></trkpt><trkpt lat="42.7633104" lon="10.198096"><ele>432.0</ele><time>2026-04-04T10:35:46.757Z</time></trkpt><trkpt lat="42.7633813" lon="10.1980323"><ele>432.0</ele><time>2026-04-04T10:35:47.757Z</time></trkpt><trkpt lat="42.7634331" lon="10.1979759"><ele>432.0</ele><time>2026-04-04T10:35:48.757Z</time></trkpt><trkpt lat="42.7635417" lon="10.1979564"><ele>432.0</ele><time>2026-04-04T10:35:50.757Z</time></trkpt><trkpt lat="42.7635649" lon="10.1980756"><ele>432.0</ele><time>2026-04-04T10:35:52.757Z</time></trkpt><trkpt lat="42.7635194" lon="10.1981449"><ele>432.0</ele><time>2026-04-04T10:35:53.756Z</time></trkpt><trkpt lat="42.7634488" lon="10.198225"><ele>432.0</ele><time>2026-04-04T10:35:54.757Z</time></trkpt><trkpt lat="42.7633766" lon="10.1983249"><ele>425.25</ele><time>2026-04-04T10:35:55.757Z</time></trkpt><trkpt lat="42.7633079" lon="10.1984402"><ele>418.5</ele><time>2026-04-04T10:35:56.757Z</time></trkpt><trkpt lat="42.763246" lon="10.1985721"><ele>411.75</ele><time>2026-04-04T10:35:57.757Z</time></trkpt><trkpt lat="42.7631953" lon="10.1987184"><ele>405.0</ele><time>2026-04-04T10:35:58.757Z</time></trkpt><trkpt lat="42.7631534" lon="10.1988605"><ele>405.0</ele><time>2026-04-04T10:35:59.757Z</time></trkpt><trkpt lat="42.7631112" lon="10.1989816"><ele>405.0</ele><time>2026-04-04T10:36:00.757Z</time></trkpt><trkpt lat="42.7630692" lon="10.1990821"><ele>405.0</ele><time>2026-04-04T10:36:01.757Z</time></trkpt><trkpt lat="42.7630071" lon="10.199166"><ele>405.0</ele><time>2026-04-04T10:36:02.757Z</time></trkpt><trkpt lat="42.7629361" lon="10.1992389"><ele>405.0</ele><time>2026-04-04T10:36:03.757Z</time></trkpt><trkpt lat="42.762853" lon="10.1993205"><ele>402.5</ele><time>2026-04-04T10:36:04.757Z</time></trkpt><trkpt lat="42.7627658" lon="10.1994126"><ele>400.0</ele><time>2026-04-04T10:36:05.757Z</time></trkpt><trkpt lat="42.7626701" lon="10.199514"><ele>397.5</ele><time>2026-04-04T10:36:06.757Z</time></trkpt><trkpt lat="42.7625806" lon="10.1996162"><ele>395.0</ele><time>2026-04-04T10:36:07.757Z</time></trkpt><trkpt lat="42.7625083" lon="10.1997188"><ele>389.25</ele><time>2026-04-04T10:36:08.757Z</time></trkpt><trkpt lat="42.7624393" lon="10.1998384"><ele>383.5</ele><time>2026-04-04T10:36:09.757Z</time></trkpt><trkpt lat="42.7623675" lon="10.1999697"><ele>377.75</ele><time>2026-04-04T10:36:10.757Z</time></trkpt><trkpt lat="42.7622916" lon="10.2000823"><ele>372.0</ele><time>2026-04-04T10:36:11.757Z</time></trkpt><trkpt lat="42.7621982" lon="10.2001631"><ele>372.0</ele><time>2026-04-04T10:36:12.757Z</time></trkpt><trkpt lat="42.7620989" lon="10.2002297"><ele>372.0</ele><time>2026-04-04T10:36:13.756Z</time></trkpt><trkpt lat="42.7619961" lon="10.2002789"><ele>372.0</ele><time>2026-04-04T10:36:14.757Z</time></trkpt><trkpt lat="42.7618968" lon="10.2002953"><ele>372.0</ele><time>2026-04-04T10:36:15.757Z</time></trkpt><trkpt lat="42.7618092" lon="10.2002699"><ele>372.0</ele><time>2026-04-04T10:36:16.757Z</time></trkpt><trkpt lat="42.7617153" lon="10.2002563"><ele>372.6666666666667</ele><time>2026-04-04T10:36:17.756Z</time></trkpt><trkpt lat="42.7616288" lon="10.2002387"><ele>373.3333333333333</ele><time>2026-04-04T10:36:18.757Z</time></trkpt><trkpt lat="42.7615421" lon="10.2002273"><ele>374.0</ele><time>2026-04-04T10:36:19.756Z</time></trkpt><trkpt lat="42.7614547" lon="10.2002313"><ele>374.66666666666663</ele><time>2026-04-04T10:36:20.757Z</time></trkpt><trkpt lat="42.7613691" lon="10.2002488"><ele>375.3333333333333</ele><time>2026-04-04T10:36:21.757Z</time></trkpt><trkpt lat="42.761281" lon="10.2002701"><ele>376.0</ele><time>2026-04-04T10:36:22.757Z</time></trkpt><trkpt lat="42.7611895" lon="10.2003016"><ele>376.0</ele><time>2026-04-04T10:36:23.756Z</time></trkpt><trkpt lat="42.7610985" lon="10.2003399"><ele>376.0</ele><time>2026-04-04T10:36:24.757Z</time></trkpt><trkpt lat="42.7610071" lon="10.2003688"><ele>376.0</ele><time>2026-04-04T10:36:25.756Z</time></trkpt><trkpt lat="42.7609163" lon="10.2004003"><ele>376.0</ele><time>2026-04-04T10:36:26.757Z</time></trkpt><trkpt lat="42.7608241" lon="10.2004211"><ele>376.0</ele><time>2026-04-04T10:36:27.756Z</time></trkpt><trkpt lat="42.7607269" lon="10.200442"><ele>374.5</ele><time>2026-04-04T10:36:28.756Z</time></trkpt><trkpt lat="42.7606297" lon="10.2004448"><ele>373.0</ele><time>2026-04-04T10:36:29.756Z</time></trkpt><trkpt lat="42.7605337" lon="10.2004387"><ele>371.5</ele><time>2026-04-04T10:36:30.757Z</time></trkpt><trkpt lat="42.7604552" lon="10.200433"><ele>370.0</ele><time>2026-04-04T10:36:31.757Z</time></trkpt><trkpt lat="42.7603853" lon="10.2004427"><ele>368.5</ele><time>2026-04-04T10:36:32.757Z</time></trkpt><trkpt lat="42.7603387" lon="10.2005677"><ele>367.0</ele><time>2026-04-04T10:36:34.757Z</time></trkpt><trkpt lat="42.7603986" lon="10.2006782"><ele>362.0</ele><time>2026-04-04T10:36:36.757Z</time></trkpt><trkpt lat="42.7604561" lon="10.200739"><ele>357.0</ele><time>2026-04-04T10:36:37.757Z</time></trkpt><trkpt lat="42.7605383" lon="10.2007963"><ele>352.0</ele><time>2026-04-04T10:36:38.757Z</time></trkpt><trkpt lat="42.7606306" lon="10.2008278"><ele>347.0</ele><time>2026-04-04T10:36:39.757Z</time></trkpt><trkpt lat="42.7607257" lon="10.2008435"><ele>342.0</ele><time>2026-04-04T10:36:40.757Z</time></trkpt><trkpt lat="42.7608222" lon="10.2008465"><ele>342.0</ele><time>2026-04-04T10:36:41.757Z</time></trkpt><trkpt lat="42.7609166" lon="10.2008567"><ele>342.0</ele><time>2026-04-04T10:36:42.757Z</time></trkpt><trkpt lat="42.7610071" lon="10.2008745"><ele>342.0</ele><time>2026-04-04T10:36:43.757Z</time></trkpt><trkpt lat="42.7611105" lon="10.2008858"><ele>342.0</ele><time>2026-04-04T10:36:44.757Z</time></trkpt><trkpt lat="42.7612071" lon="10.2008914"><ele>342.0</ele><time>2026-04-04T10:36:45.757Z</time></trkpt><trkpt lat="42.7613024" lon="10.2009192"><ele>343.25</ele><time>2026-04-04T10:36:46.757Z</time></trkpt><trkpt lat="42.7613997" lon="10.2009427"><ele>344.5</ele><time>2026-04-04T10:36:47.757Z</time></trkpt><trkpt lat="42.7615295" lon="10.2009986"><ele>345.75</ele><time>2026-04-04T10:36:48.757Z</time></trkpt><trkpt lat="42.7616433" lon="10.2010379"><ele>347.0</ele><time>2026-04-04T10:36:49.757Z</time></trkpt><trkpt lat="42.7617367" lon="10.2010807"><ele>347.0</ele><time>2026-04-04T10:36:50.756Z</time></trkpt><trkpt lat="42.7617981" lon="10.2011403"><ele>347.0</ele><time>2026-04-04T10:36:51.756Z</time></trkpt><trkpt lat="42.7618551" lon="10.2012177"><ele>347.0</ele><time>2026-04-04T10:36:52.757Z</time></trkpt><trkpt lat="42.7618752" lon="10.2013079"><ele>347.0</ele><time>2026-04-04T10:36:53.757Z</time></trkpt><trkpt lat="42.7618745" lon="10.2014116"><ele>347.0</ele><time>2026-04-04T10:36:54.757Z</time></trkpt><trkpt lat="42.7618471" lon="10.2015146"><ele>347.0</ele><time>2026-04-04T10:36:55.757Z</time></trkpt><trkpt lat="42.761812" lon="10.2016238"><ele>344.1666666666667</ele><time>2026-04-04T10:36:56.757Z</time></trkpt><trkpt lat="42.7617737" lon="10.2017304"><ele>341.33333333333337</ele><time>2026-04-04T10:36:57.757Z</time></trkpt><trkpt lat="42.761755" lon="10.2018126"><ele>338.5</ele><time>2026-04-04T10:36:58.757Z</time></trkpt><trkpt lat="42.7618188" lon="10.2018979"><ele>335.6666666666667</ele><time>2026-04-04T10:37:00.757Z</time></trkpt><trkpt lat="42.7618867" lon="10.2018815"><ele>332.8333333333333</ele><time>2026-04-04T10:37:01.757Z</time></trkpt><trkpt lat="42.7619529" lon="10.201881"><ele>330.0</ele><time>2026-04-04T10:37:02.757Z</time></trkpt><trkpt lat="42.7620215" lon="10.2019915"><ele>330.0</ele><time>2026-04-04T10:37:04.757Z</time></trkpt><trkpt lat="42.7619444" lon="10.2021164"><ele>330.0</ele><time>2026-04-04T10:37:06.757Z</time></trkpt><trkpt lat="42.7618608" lon="10.2021898"><ele>330.0</ele><time>2026-04-04T10:37:07.757Z</time></trkpt><trkpt lat="42.7617814" lon="10.2022555"><ele>330.0</ele><time>2026-04-04T10:37:08.756Z</time></trkpt><trkpt lat="42.7617068" lon="10.202298"><ele>330.0</ele><time>2026-04-04T10:37:09.757Z</time></trkpt><trkpt lat="42.7616426" lon="10.2023337"><ele>328.5</ele><time>2026-04-04T10:37:10.757Z</time></trkpt><trkpt lat="42.7615751" lon="10.2022919"><ele>327.0</ele><time>2026-04-04T10:37:11.756Z</time></trkpt><trkpt lat="42.7615278" lon="10.202224"><ele>325.5</ele><time>2026-04-04T10:37:12.757Z</time></trkpt><trkpt lat="42.761517" lon="10.2021294"><ele>324.0</ele><time>2026-04-04T10:37:13.757Z</time></trkpt><trkpt lat="42.7615075" lon="10.2020336"><ele>322.5</ele><time>2026-04-04T10:37:14.757Z</time></trkpt><trkpt lat="42.7614523" lon="10.2019306"><ele>321.0</ele><time>2026-04-04T10:37:16.757Z</time></trkpt><trkpt lat="42.7613795" lon="10.2020386"><ele>321.0</ele><time>2026-04-04T10:37:18.757Z</time></trkpt><trkpt lat="42.7613662" lon="10.2021229"><ele>321.0</ele><time>2026-04-04T10:37:19.757Z</time></trkpt><trkpt lat="42.7613322" lon="10.202226"><ele>321.0</ele><time>2026-04-04T10:37:20.757Z</time></trkpt><trkpt lat="42.7612833" lon="10.202318"><ele>321.0</ele><time>2026-04-04T10:37:21.757Z</time></trkpt><trkpt lat="42.7612445" lon="10.2024279"><ele>321.0</ele><time>2026-04-04T10:37:22.757Z</time></trkpt><trkpt lat="42.761247" lon="10.2025629"><ele>321.0</ele><time>2026-04-04T10:37:23.757Z</time></trkpt><trkpt lat="42.7612666" lon="10.2026804"><ele>318.2</ele><time>2026-04-04T10:37:24.757Z</time></trkpt><trkpt lat="42.7612968" lon="10.2028076"><ele>315.40000000000003</ele><time>2026-04-04T10:37:25.757Z</time></trkpt><trkpt lat="42.7613398" lon="10.2029367"><ele>312.6</ele><time>2026-04-04T10:37:26.757Z</time></trkpt><trkpt lat="42.7613882" lon="10.2030573"><ele>309.8</ele><time>2026-04-04T10:37:27.757Z</time></trkpt><trkpt lat="42.7614344" lon="10.2031852"><ele>307.0</ele><time>2026-04-04T10:37:28.756Z</time></trkpt><trkpt lat="42.7614754" lon="10.2032861"><ele>305.16666666666663</ele><time>2026-04-04T10:37:29.757Z</time></trkpt><trkpt lat="42.7615234" lon="10.203403"><ele>303.3333333333333</ele><time>2026-04-04T10:37:30.757Z</time></trkpt><trkpt lat="42.7615852" lon="10.2034634"><ele>301.5</ele><time>2026-04-04T10:37:31.757Z</time></trkpt><trkpt lat="42.761645" lon="10.2035087"><ele>299.6666666666667</ele><time>2026-04-04T10:37:32.757Z</time></trkpt><trkpt lat="42.7617029" lon="10.2035487"><ele>297.83333333333337</ele><time>2026-04-04T10:37:33.757Z</time></trkpt><trkpt lat="42.7618156" lon="10.2035905"><ele>296.0</ele><time>2026-04-04T10:37:35.757Z</time></trkpt><trkpt lat="42.7619132" lon="10.2036546"><ele>296.0</ele><time>2026-04-04T10:37:37.756Z</time></trkpt><trkpt lat="42.7620119" lon="10.2037343"><ele>296.0</ele><time>2026-04-04T10:37:39.757Z</time></trkpt><trkpt lat="42.7620633" lon="10.2037881"><ele>296.0</ele><time>2026-04-04T10:37:40.757Z</time></trkpt><trkpt lat="42.7621169" lon="10.2038481"><ele>296.0</ele><time>2026-04-04T10:37:41.757Z</time></trkpt><trkpt lat="42.7621737" lon="10.2039096"><ele>296.0</ele><time>2026-04-04T10:37:42.757Z</time></trkpt><trkpt lat="42.7622248" lon="10.2039619"><ele>296.0</ele><time>2026-04-04T10:37:43.757Z</time></trkpt><trkpt lat="42.7623039" lon="10.20406"><ele>293.2</ele><time>2026-04-04T10:37:45.757Z</time></trkpt><trkpt lat="42.762369" lon="10.2041841"><ele>290.40000000000003</ele><time>2026-04-04T10:37:47.756Z</time></trkpt><trkpt lat="42.7623933" lon="10.2043201"><ele>287.6</ele><time>2026-04-04T10:37:49.757Z</time></trkpt><trkpt lat="42.7623902" lon="10.2044079"><ele>284.8</ele><time>2026-04-04T10:37:50.757Z</time></trkpt><trkpt lat="42.7623146" lon="10.2045324"><ele>282.0</ele><time>2026-04-04T10:37:52.757Z</time></trkpt><trkpt lat="42.762244" lon="10.204664"><ele>282.0</ele><time>2026-04-04T10:37:54.757Z</time></trkpt><trkpt lat="42.7622194" lon="10.2048046"><ele>282.0</ele><time>2026-04-04T10:37:56.757Z</time></trkpt><trkpt lat="42.7622258" lon="10.2049279"><ele>282.0</ele><time>2026-04-04T10:37:58.756Z</time></trkpt><trkpt lat="42.7622368" lon="10.2050585"><ele>282.0</ele><time>2026-04-04T10:38:00.757Z</time></trkpt><trkpt lat="42.7622353" lon="10.2051985"><ele>282.0</ele><time>2026-04-04T10:38:02.757Z</time></trkpt><trkpt lat="42.7622428" lon="10.2053395"><ele>280.1666666666667</ele><time>2026-04-04T10:38:04.757Z</time></trkpt><trkpt lat="42.7622677" lon="10.2054934"><ele>278.3333333333333</ele><time>2026-04-04T10:38:06.757Z</time></trkpt><trkpt lat="42.7623032" lon="10.2055838"><ele>276.5</ele><time>2026-04-04T10:38:07.757Z</time></trkpt><trkpt lat="42.7623575" lon="10.2056731"><ele>274.66666666666663</ele><time>2026-04-04T10:38:08.757Z</time></trkpt><trkpt lat="42.7624025" lon="10.2057567"><ele>272.8333333333333</ele><time>2026-04-04T10:38:09.757Z</time></trkpt><trkpt lat="42.7624433" lon="10.2058306"><ele>271.0</ele><time>2026-04-04T10:38:10.756Z</time></trkpt><trkpt lat="42.762439" lon="10.2059965"><ele>269.0</ele><time>2026-04-04T10:38:12.756Z</time></trkpt><trkpt lat="42.7623267" lon="10.2060978"><ele>267.0</ele><time>2026-04-04T10:38:14.757Z</time></trkpt><trkpt lat="42.7622466" lon="10.2061359"><ele>265.0</ele><time>2026-04-04T10:38:15.757Z</time></trkpt><trkpt lat="42.7621611" lon="10.2061785"><ele>263.0</ele><time>2026-04-04T10:38:16.757Z</time></trkpt><trkpt lat="42.7620871" lon="10.2062013"><ele>261.0</ele><time>2026-04-04T10:38:17.757Z</time></trkpt><trkpt lat="42.7620207" lon="10.2062487"><ele>261.0</ele><time>2026-04-04T10:38:18.757Z</time></trkpt><trkpt lat="42.7619677" lon="10.2063166"><ele>261.0</ele><time>2026-04-04T10:38:19.757Z</time></trkpt><trkpt lat="42.7619346" lon="10.2064322"><ele>261.0</ele><time>2026-04-04T10:38:20.757Z</time></trkpt><trkpt lat="42.761913" lon="10.2065667"><ele>261.0</ele><time>2026-04-04T10:38:21.756Z</time></trkpt><trkpt lat="42.7618901" lon="10.2067269"><ele>261.0</ele><time>2026-04-04T10:38:22.757Z</time></trkpt><trkpt lat="42.7618581" lon="10.2068818"><ele>259.5</ele><time>2026-04-04T10:38:23.757Z</time></trkpt><trkpt lat="42.7618389" lon="10.2070491"><ele>258.0</ele><time>2026-04-04T10:38:24.757Z</time></trkpt><trkpt lat="42.7618169" lon="10.2072091"><ele>256.5</ele><time>2026-04-04T10:38:25.757Z</time></trkpt><trkpt lat="42.7617937" lon="10.2073609"><ele>255.0</ele><time>2026-04-04T10:38:26.757Z</time></trkpt><trkpt lat="42.7617555" lon="10.2074946"><ele>252.75</ele><time>2026-04-04T10:38:27.757Z</time></trkpt><trkpt lat="42.7616996" lon="10.2076288"><ele>250.5</ele><time>2026-04-04T10:38:28.757Z</time></trkpt><trkpt lat="42.7616336" lon="10.2077685"><ele>248.25</ele><time>2026-04-04T10:38:29.757Z</time></trkpt><trkpt lat="42.7615628" lon="10.207911"><ele>246.0</ele><time>2026-04-04T10:38:30.757Z</time></trkpt><trkpt lat="42.7614844" lon="10.2080559"><ele>243.75</ele><time>2026-04-04T10:38:31.757Z</time></trkpt><trkpt lat="42.7614078" lon="10.2082036"><ele>241.5</ele><time>2026-04-04T10:38:32.756Z</time></trkpt><trkpt lat="42.7613326" lon="10.2083556"><ele>239.25</ele><time>2026-04-04T10:38:33.757Z</time></trkpt><trkpt lat="42.7612659" lon="10.2085006"><ele>237.0</ele><time>2026-04-04T10:38:34.757Z</time></trkpt><trkpt lat="42.7611995" lon="10.208639"><ele>237.0</ele><time>2026-04-04T10:38:35.757Z</time></trkpt><trkpt lat="42.7611281" lon="10.2087689"><ele>237.0</ele><time>2026-04-04T10:38:36.757Z</time></trkpt><trkpt lat="42.7610732" lon="10.2088945"><ele>237.0</ele><time>2026-04-04T10:38:37.757Z</time></trkpt><trkpt lat="42.7610342" lon="10.2090264"><ele>237.0</ele><time>2026-04-04T10:38:38.757Z</time></trkpt><trkpt lat="42.7610025" lon="10.2091693"><ele>237.0</ele><time>2026-04-04T10:38:39.757Z</time></trkpt><trkpt lat="42.7609807" lon="10.2092896"><ele>235.66666666666666</ele><time>2026-04-04T10:38:40.757Z</time></trkpt><trkpt lat="42.760965" lon="10.2093958"><ele>234.33333333333331</ele><time>2026-04-04T10:38:41.757Z</time></trkpt><trkpt lat="42.7609101" lon="10.2095495"><ele>233.0</ele><time>2026-04-04T10:38:43.757Z</time></trkpt><trkpt lat="42.7608507" lon="10.2095838"><ele>231.66666666666666</ele><time>2026-04-04T10:38:44.757Z</time></trkpt><trkpt lat="42.7607751" lon="10.2095829"><ele>230.33333333333331</ele><time>2026-04-04T10:38:45.757Z</time></trkpt><trkpt lat="42.7607084" lon="10.2095988"><ele>229.0</ele><time>2026-04-04T10:38:46.757Z</time></trkpt><trkpt lat="42.7606539" lon="10.2097689"><ele>226.79999999999998</ele><time>2026-04-04T10:38:48.757Z</time></trkpt><trkpt lat="42.7606444" lon="10.20991"><ele>224.59999999999997</ele><time>2026-04-04T10:38:49.757Z</time></trkpt><trkpt lat="42.7606355" lon="10.2100398"><ele>222.4</ele><time>2026-04-04T10:38:50.757Z</time></trkpt><trkpt lat="42.7606015" lon="10.2101617"><ele>220.2</ele><time>2026-04-04T10:38:51.757Z</time></trkpt><trkpt lat="42.7605424" lon="10.21027"><ele>218.0</ele><time>2026-04-04T10:38:52.757Z</time></trkpt><trkpt lat="42.7604717" lon="10.2103665"><ele>218.0</ele><time>2026-04-04T10:38:53.757Z</time></trkpt><trkpt lat="42.7603921" lon="10.2104671"><ele>218.0</ele><time>2026-04-04T10:38:54.757Z</time></trkpt><trkpt lat="42.7603148" lon="10.2105867"><ele>218.0</ele><time>2026-04-04T10:38:55.757Z</time></trkpt><trkpt lat="42.7602341" lon="10.2107162"><ele>218.0</ele><time>2026-04-04T10:38:56.757Z</time></trkpt><trkpt lat="42.76016" lon="10.2108366"><ele>216.4</ele><time>2026-04-04T10:38:57.757Z</time></trkpt><trkpt lat="42.7600912" lon="10.2109626"><ele>214.8</ele><time>2026-04-04T10:38:58.757Z</time></trkpt><trkpt lat="42.7600406" lon="10.2110838"><ele>213.2</ele><time>2026-04-04T10:38:59.757Z</time></trkpt><trkpt lat="42.7600109" lon="10.2111949"><ele>211.6</ele><time>2026-04-04T10:39:00.757Z</time></trkpt><trkpt lat="42.7599882" lon="10.2112924"><ele>210.0</ele><time>2026-04-04T10:39:01.757Z</time></trkpt><trkpt lat="42.7599813" lon="10.2114247"><ele>209.16666666666666</ele><time>2026-04-04T10:39:03.757Z</time></trkpt><trkpt lat="42.7600016" lon="10.2115191"><ele>208.33333333333331</ele><time>2026-04-04T10:39:05.757Z</time></trkpt><trkpt lat="42.7600696" lon="10.211544"><ele>207.5</ele><time>2026-04-04T10:39:13.757Z</time></trkpt><trkpt lat="42.7601614" lon="10.2115166"><ele>206.66666666666666</ele><time>2026-04-04T10:39:15.757Z</time></trkpt><trkpt lat="42.7602331" lon="10.2114797"><ele>205.83333333333331</ele><time>2026-04-04T10:39:17.757Z</time></trkpt><trkpt lat="42.760299" lon="10.2114473"><ele>205.0</ele><time>2026-04-04T10:39:19.756Z</time></trkpt><trkpt lat="42.7603702" lon="10.2114277"><ele>205.0</ele><time>2026-04-04T10:39:22.757Z</time></trkpt><trkpt lat="42.7604695" lon="10.2113562"><ele>205.0</ele><time>2026-04-04T10:39:24.757Z</time></trkpt><trkpt lat="42.7605309" lon="10.2112911"><ele>205.0</ele><time>2026-04-04T10:39:25.757Z</time></trkpt><trkpt lat="42.7605934" lon="10.211202"><ele>205.0</ele><time>2026-04-04T10:39:26.757Z</time></trkpt><trkpt lat="42.7606556" lon="10.2111144"><ele>205.0</ele><time>2026-04-04T10:39:27.757Z</time></trkpt><trkpt lat="42.760736" lon="10.2110397"><ele>205.0</ele><time>2026-04-04T10:39:28.757Z</time></trkpt><trkpt lat="42.7608313" lon="10.210974"><ele>205.0</ele><time>2026-04-04T10:39:29.757Z</time></trkpt><trkpt lat="42.7609465" lon="10.2109295"><ele>205.0</ele><time>2026-04-04T10:39:30.757Z</time></trkpt><trkpt lat="42.7610759" lon="10.2108949"><ele>205.0</ele><time>2026-04-04T10:39:31.757Z</time></trkpt><trkpt lat="42.7612112" lon="10.2108425"><ele>206.0</ele><time>2026-04-04T10:39:32.757Z</time></trkpt><trkpt lat="42.7613487" lon="10.2107652"><ele>207.0</ele><time>2026-04-04T10:39:33.757Z</time></trkpt><trkpt lat="42.7614856" lon="10.2106688"><ele>208.0</ele><time>2026-04-04T10:39:34.757Z</time></trkpt><trkpt lat="42.7616183" lon="10.2105712"><ele>208.0</ele><time>2026-04-04T10:39:35.757Z</time></trkpt><trkpt lat="42.7617355" lon="10.2104856"><ele>208.0</ele><time>2026-04-04T10:39:36.757Z</time></trkpt><trkpt lat="42.7618341" lon="10.2103944"><ele>208.0</ele><time>2026-04-04T10:39:37.757Z</time></trkpt><trkpt lat="42.7619136" lon="10.2102888"><ele>208.0</ele><time>2026-04-04T10:39:38.756Z</time></trkpt><trkpt lat="42.7619347" lon="10.2101162"><ele>208.0</ele><time>2026-04-04T10:39:39.757Z</time></trkpt><trkpt lat="42.7619744" lon="10.2099763"><ele>208.0</ele><time>2026-04-04T10:39:40.757Z</time></trkpt><trkpt lat="42.7620437" lon="10.2098616"><ele>208.0</ele><time>2026-04-04T10:39:41.757Z</time></trkpt><trkpt lat="42.7621392" lon="10.2097581"><ele>208.0</ele><time>2026-04-04T10:39:42.756Z</time></trkpt><trkpt lat="42.7622486" lon="10.2096557"><ele>208.0</ele><time>2026-04-04T10:39:43.757Z</time></trkpt><trkpt lat="42.762363" lon="10.2095693"><ele>208.0</ele><time>2026-04-04T10:39:44.757Z</time></trkpt><trkpt lat="42.762493" lon="10.2094895"><ele>208.0</ele><time>2026-04-04T10:39:45.757Z</time></trkpt><trkpt lat="42.7626238" lon="10.2094147"><ele>208.0</ele><time>2026-04-04T10:39:46.757Z</time></trkpt><trkpt lat="42.7627574" lon="10.2093382"><ele>208.0</ele><time>2026-04-04T10:39:47.757Z</time></trkpt><trkpt lat="42.7628831" lon="10.2092434"><ele>208.0</ele><time>2026-04-04T10:39:48.757Z</time></trkpt><trkpt lat="42.7629993" lon="10.2091408"><ele>208.0</ele><time>2026-04-04T10:39:49.757Z</time></trkpt><trkpt lat="42.7631232" lon="10.2090574"><ele>208.0</ele><time>2026-04-04T10:39:50.757Z</time></trkpt><trkpt lat="42.7632455" lon="10.2089721"><ele>208.0</ele><time>2026-04-04T10:39:51.757Z</time></trkpt><trkpt lat="42.7633752" lon="10.2089097"><ele>208.0</ele><time>2026-04-04T10:39:52.757Z</time></trkpt><trkpt lat="42.7634947" lon="10.2088357"><ele>208.0</ele><time>2026-04-04T10:39:53.757Z</time></trkpt><trkpt lat="42.7635907" lon="10.2087654"><ele>208.0</ele><time>2026-04-04T10:39:54.756Z</time></trkpt><trkpt lat="42.7636784" lon="10.2087181"><ele>206.83333333333331</ele><time>2026-04-04T10:39:55.757Z</time></trkpt><trkpt lat="42.7637567" lon="10.2087189"><ele>205.66666666666666</ele><time>2026-04-04T10:39:56.756Z</time></trkpt><trkpt lat="42.7638358" lon="10.2087602"><ele>204.5</ele><time>2026-04-04T10:39:57.756Z</time></trkpt><trkpt lat="42.7639142" lon="10.2088421"><ele>203.33333333333331</ele><time>2026-04-04T10:39:58.757Z</time></trkpt><trkpt lat="42.7639663" lon="10.2089239"><ele>202.16666666666666</ele><time>2026-04-04T10:39:59.757Z</time></trkpt><trkpt lat="42.7639621" lon="10.2090214"><ele>201.0</ele><time>2026-04-04T10:40:00.757Z</time></trkpt><trkpt lat="42.7639241" lon="10.2091488"><ele>200.75</ele><time>2026-04-04T10:40:01.757Z</time></trkpt><trkpt lat="42.7638528" lon="10.2092823"><ele>200.5</ele><time>2026-04-04T10:40:02.757Z</time></trkpt><trkpt lat="42.763777" lon="10.2094336"><ele>200.25</ele><time>2026-04-04T10:40:03.757Z</time></trkpt><trkpt lat="42.7637062" lon="10.2095981"><ele>200.0</ele><time>2026-04-04T10:40:04.757Z</time></trkpt><trkpt lat="42.7636356" lon="10.2097513"><ele>201.5</ele><time>2026-04-04T10:40:05.756Z</time></trkpt><trkpt lat="42.7635665" lon="10.2098904"><ele>203.0</ele><time>2026-04-04T10:40:06.757Z</time></trkpt><trkpt lat="42.7634999" lon="10.2100158"><ele>204.5</ele><time>2026-04-04T10:40:07.757Z</time></trkpt><trkpt lat="42.763446" lon="10.2101472"><ele>206.0</ele><time>2026-04-04T10:40:08.757Z</time></trkpt><trkpt lat="42.7634201" lon="10.2103114"><ele>206.25</ele><time>2026-04-04T10:40:09.756Z</time></trkpt><trkpt lat="42.7634256" lon="10.2104807"><ele>206.5</ele><time>2026-04-04T10:40:10.756Z</time></trkpt><trkpt lat="42.7634602" lon="10.2106514"><ele>206.75</ele><time>2026-04-04T10:40:11.757Z</time></trkpt><trkpt lat="42.7635124" lon="10.21082"><ele>207.0</ele><time>2026-04-04T10:40:12.757Z</time></trkpt><trkpt lat="42.7635564" lon="10.2109798"><ele>207.0</ele><time>2026-04-04T10:40:13.757Z</time></trkpt><trkpt lat="42.763581" lon="10.2111617"><ele>207.0</ele><time>2026-04-04T10:40:14.757Z</time></trkpt><trkpt lat="42.7635814" lon="10.2113532"><ele>207.0</ele><time>2026-04-04T10:40:15.756Z</time></trkpt><trkpt lat="42.7635823" lon="10.2115364"><ele>207.0</ele><time>2026-04-04T10:40:16.757Z</time></trkpt><trkpt lat="42.7635758" lon="10.2117171"><ele>206.2</ele><time>2026-04-04T10:40:17.757Z</time></trkpt><trkpt lat="42.7635714" lon="10.2118817"><ele>205.39999999999998</ele><time>2026-04-04T10:40:18.757Z</time></trkpt><trkpt lat="42.763568" lon="10.2120308"><ele>204.60000000000002</ele><time>2026-04-04T10:40:19.757Z</time></trkpt><trkpt lat="42.7635683" lon="10.212163"><ele>203.8</ele><time>2026-04-04T10:40:20.757Z</time></trkpt><trkpt lat="42.7635647" lon="10.2122889"><ele>203.0</ele><time>2026-04-04T10:40:21.757Z</time></trkpt><trkpt lat="42.7635616" lon="10.2124052"><ele>202.33333333333334</ele><time>2026-04-04T10:40:22.757Z</time></trkpt><trkpt lat="42.763561" lon="10.2125249"><ele>201.66666666666669</ele><time>2026-04-04T10:40:23.757Z</time></trkpt><trkpt lat="42.7635754" lon="10.2126493"><ele>201.0</ele><time>2026-04-04T10:40:24.757Z</time></trkpt><trkpt lat="42.763589" lon="10.2127608"><ele>200.33333333333331</ele><time>2026-04-04T10:40:25.757Z</time></trkpt><trkpt lat="42.7636091" lon="10.21287"><ele>199.66666666666666</ele><time>2026-04-04T10:40:26.757Z</time></trkpt><trkpt lat="42.7636346" lon="10.2129737"><ele>199.0</ele><time>2026-04-04T10:40:27.757Z</time></trkpt><trkpt lat="42.76367" lon="10.2130769"><ele>198.83333333333331</ele><time>2026-04-04T10:40:28.756Z</time></trkpt><trkpt lat="42.7637021" lon="10.2131694"><ele>198.66666666666666</ele><time>2026-04-04T10:40:29.756Z</time></trkpt><trkpt lat="42.7637279" lon="10.2132482"><ele>198.5</ele><time>2026-04-04T10:40:30.757Z</time></trkpt><trkpt lat="42.7637655" lon="10.2133847"><ele>198.33333333333331</ele><time>2026-04-04T10:40:32.757Z</time></trkpt><trkpt lat="42.7637927" lon="10.2134689"><ele>198.16666666666666</ele><time>2026-04-04T10:40:34.757Z</time></trkpt><trkpt lat="42.7638375" lon="10.2135512"><ele>198.0</ele><time>2026-04-04T10:40:36.757Z</time></trkpt><trkpt lat="42.7639298" lon="10.2136143"><ele>198.0</ele><time>2026-04-04T10:40:38.756Z</time></trkpt><trkpt lat="42.7639939" lon="10.2136509"><ele>198.0</ele><time>2026-04-04T10:40:39.757Z</time></trkpt><trkpt lat="42.7640588" lon="10.2136815"><ele>198.0</ele><time>2026-04-04T10:40:40.757Z</time></trkpt><trkpt lat="42.764124" lon="10.2137196"><ele>198.0</ele><time>2026-04-04T10:40:41.757Z</time></trkpt><trkpt lat="42.7641891" lon="10.2137515"><ele>198.0</ele><time>2026-04-04T10:40:42.757Z</time></trkpt><trkpt lat="42.7642655" lon="10.213788"><ele>198.0</ele><time>2026-04-04T10:40:43.757Z</time></trkpt><trkpt lat="42.7643868" lon="10.2137862"><ele>197.8</ele><time>2026-04-04T10:40:45.757Z</time></trkpt><trkpt lat="42.7645047" lon="10.2137281"><ele>197.60000000000002</ele><time>2026-04-04T10:40:47.757Z</time></trkpt><trkpt lat="42.764572" lon="10.2136753"><ele>197.39999999999998</ele><time>2026-04-04T10:40:48.757Z</time></trkpt><trkpt lat="42.764634" lon="10.2136204"><ele>197.2</ele><time>2026-04-04T10:40:49.757Z</time></trkpt><trkpt lat="42.7647152" lon="10.2135468"><ele>197.0</ele><time>2026-04-04T10:40:50.757Z</time></trkpt><trkpt lat="42.7647879" lon="10.2134758"><ele>197.0</ele><time>2026-04-04T10:40:51.757Z</time></trkpt><trkpt lat="42.7648712" lon="10.2133958"><ele>197.0</ele><time>2026-04-04T10:40:52.757Z</time></trkpt><trkpt lat="42.7649518" lon="10.2133069"><ele>197.0</ele><time>2026-04-04T10:40:53.757Z</time></trkpt><trkpt lat="42.7650261" lon="10.2132225"><ele>197.0</ele><time>2026-04-04T10:40:54.757Z</time></trkpt><trkpt lat="42.7651087" lon="10.2131439"><ele>197.0</ele><time>2026-04-04T10:40:55.757Z</time></trkpt><trkpt lat="42.7652013" lon="10.213064"><ele>198.0</ele><time>2026-04-04T10:40:56.757Z</time></trkpt><trkpt lat="42.765286" lon="10.2129777"><ele>199.0</ele><time>2026-04-04T10:40:57.757Z</time></trkpt><trkpt lat="42.7653673" lon="10.2128935"><ele>200.0</ele><time>2026-04-04T10:40:58.756Z</time></trkpt><trkpt lat="42.7654495" lon="10.2128123"><ele>201.0</ele><time>2026-04-04T10:40:59.757Z</time></trkpt><trkpt lat="42.7655244" lon="10.2127272"><ele>202.0</ele><time>2026-04-04T10:41:00.756Z</time></trkpt><trkpt lat="42.7656015" lon="10.212669"><ele>201.99999999999997</ele><time>2026-04-04T10:41:01.757Z</time></trkpt><trkpt lat="42.765683" lon="10.2126228"><ele>202.0</ele><time>2026-04-04T10:41:02.757Z</time></trkpt><trkpt lat="42.7657623" lon="10.2125864"><ele>202.0</ele><time>2026-04-04T10:41:03.756Z</time></trkpt><trkpt lat="42.7658238" lon="10.2125472"><ele>202.0</ele><time>2026-04-04T10:41:04.757Z</time></trkpt><trkpt lat="42.7658829" lon="10.2125042"><ele>201.99999999999997</ele><time>2026-04-04T10:41:05.757Z</time></trkpt><trkpt lat="42.7659792" lon="10.2123873"><ele>202.0</ele><time>2026-04-04T10:41:07.757Z</time></trkpt><trkpt lat="42.7660523" lon="10.2123156"><ele>203.8</ele><time>2026-04-04T10:41:08.757Z</time></trkpt><trkpt lat="42.7661467" lon="10.2122497"><ele>205.6</ele><time>2026-04-04T10:41:09.757Z</time></trkpt><trkpt lat="42.7662483" lon="10.2122002"><ele>207.4</ele><time>2026-04-04T10:41:10.757Z</time></trkpt><trkpt lat="42.7663537" lon="10.2121527"><ele>209.20000000000002</ele><time>2026-04-04T10:41:11.757Z</time></trkpt><trkpt lat="42.7664345" lon="10.2121091"><ele>211.0</ele><time>2026-04-04T10:41:12.757Z</time></trkpt><trkpt lat="42.7664955" lon="10.212052"><ele>210.99999999999997</ele><time>2026-04-04T10:41:13.757Z</time></trkpt><trkpt lat="42.7665559" lon="10.2120072"><ele>211.0</ele><time>2026-04-04T10:41:14.757Z</time></trkpt><trkpt lat="42.7666202" lon="10.2119764"><ele>211.0</ele><time>2026-04-04T10:41:15.756Z</time></trkpt><trkpt lat="42.7666977" lon="10.2119601"><ele>211.0</ele><time>2026-04-04T10:41:16.757Z</time></trkpt><trkpt lat="42.7667859" lon="10.2119647"><ele>210.99999999999997</ele><time>2026-04-04T10:41:17.757Z</time></trkpt><trkpt lat="42.76686" lon="10.2119914"><ele>211.0</ele><time>2026-04-04T10:41:18.757Z</time></trkpt><trkpt lat="42.7669647" lon="10.21209"><ele>210.8</ele><time>2026-04-04T10:41:20.757Z</time></trkpt><trkpt lat="42.7670118" lon="10.2121727"><ele>210.60000000000002</ele><time>2026-04-04T10:41:21.757Z</time></trkpt><trkpt lat="42.7670692" lon="10.2122628"><ele>210.4</ele><time>2026-04-04T10:41:22.757Z</time></trkpt><trkpt lat="42.7671349" lon="10.2123632"><ele>210.2</ele><time>2026-04-04T10:41:23.756Z</time></trkpt><trkpt lat="42.7671925" lon="10.2124622"><ele>210.0</ele><time>2026-04-04T10:41:24.757Z</time></trkpt><trkpt lat="42.7672504" lon="10.2125775"><ele>210.0</ele><time>2026-04-04T10:41:25.757Z</time></trkpt><trkpt lat="42.7673118" lon="10.2126966"><ele>210.0</ele><time>2026-04-04T10:41:26.757Z</time></trkpt><trkpt lat="42.7673688" lon="10.2128221"><ele>210.0</ele><time>2026-04-04T10:41:27.757Z</time></trkpt><trkpt lat="42.7674217" lon="10.2129281"><ele>210.0</ele><time>2026-04-04T10:41:28.757Z</time></trkpt><trkpt lat="42.7674687" lon="10.2130287"><ele>210.0</ele><time>2026-04-04T10:41:29.757Z</time></trkpt><trkpt lat="42.7675128" lon="10.2131242"><ele>208.33333333333334</ele><time>2026-04-04T10:41:30.757Z</time></trkpt><trkpt lat="42.7675507" lon="10.2132176"><ele>206.66666666666669</ele><time>2026-04-04T10:41:31.757Z</time></trkpt><trkpt lat="42.7675936" lon="10.2133139"><ele>205.0</ele><time>2026-04-04T10:41:32.757Z</time></trkpt><trkpt lat="42.7676444" lon="10.213422"><ele>203.33333333333334</ele><time>2026-04-04T10:41:33.757Z</time></trkpt><trkpt lat="42.7677007" lon="10.2134916"><ele>201.66666666666669</ele><time>2026-04-04T10:41:34.757Z</time></trkpt><trkpt lat="42.767777" lon="10.2135251"><ele>200.0</ele><time>2026-04-04T10:41:35.757Z</time></trkpt><trkpt lat="42.7678532" lon="10.2135297"><ele>200.00000000000003</ele><time>2026-04-04T10:41:36.756Z</time></trkpt><trkpt lat="42.7679282" lon="10.2135069"><ele>200.0</ele><time>2026-04-04T10:41:37.757Z</time></trkpt><trkpt lat="42.7680004" lon="10.2134619"><ele>200.0</ele><time>2026-04-04T10:41:38.757Z</time></trkpt><trkpt lat="42.7680649" lon="10.2134214"><ele>200.0</ele><time>2026-04-04T10:41:39.757Z</time></trkpt><trkpt lat="42.7681647" lon="10.213353"><ele>200.00000000000003</ele><time>2026-04-04T10:41:41.757Z</time></trkpt><trkpt lat="42.7682313" lon="10.2133126"><ele>200.0</ele><time>2026-04-04T10:41:43.757Z</time></trkpt><trkpt lat="42.7683211" lon="10.2132565"><ele>200.00000000000003</ele><time>2026-04-04T10:41:53.757Z</time></trkpt><trkpt lat="42.7683915" lon="10.2132328"><ele>200.0</ele><time>2026-04-04T10:41:54.757Z</time></trkpt><trkpt lat="42.7684693" lon="10.2131912"><ele>200.0</ele><time>2026-04-04T10:41:55.757Z</time></trkpt><trkpt lat="42.7685423" lon="10.2131589"><ele>200.0</ele><time>2026-04-04T10:41:56.757Z</time></trkpt><trkpt lat="42.7686302" lon="10.2131154"><ele>200.00000000000003</ele><time>2026-04-04T10:41:57.757Z</time></trkpt><trkpt lat="42.768719" lon="10.21307"><ele>200.0</ele><time>2026-04-04T10:41:58.757Z</time></trkpt><trkpt lat="42.7688107" lon="10.2130495"><ele>200.8</ele><time>2026-04-04T10:41:59.757Z</time></trkpt><trkpt lat="42.7688994" lon="10.2130543"><ele>201.6</ele><time>2026-04-04T10:42:00.757Z</time></trkpt><trkpt lat="42.7689795" lon="10.2131056"><ele>202.39999999999998</ele><time>2026-04-04T10:42:01.757Z</time></trkpt><trkpt lat="42.7690664" lon="10.213198"><ele>203.2</ele><time>2026-04-04T10:42:02.757Z</time></trkpt><trkpt lat="42.7691366" lon="10.2132906"><ele>204.0</ele><time>2026-04-04T10:42:03.757Z</time></trkpt><trkpt lat="42.769207" lon="10.2133444"><ele>204.0</ele><time>2026-04-04T10:42:04.757Z</time></trkpt><trkpt lat="42.7692883" lon="10.2133831"><ele>204.0</ele><time>2026-04-04T10:42:05.757Z</time></trkpt><trkpt lat="42.7693659" lon="10.2133683"><ele>204.0</ele><time>2026-04-04T10:42:06.757Z</time></trkpt><trkpt lat="42.7694636" lon="10.2133199"><ele>204.0</ele><time>2026-04-04T10:42:07.757Z</time></trkpt><trkpt lat="42.7695571" lon="10.2132639"><ele>204.0</ele><time>2026-04-04T10:42:08.757Z</time></trkpt><trkpt lat="42.7696327" lon="10.2132321"><ele>205.79999999999998</ele><time>2026-04-04T10:42:09.757Z</time></trkpt><trkpt lat="42.7697299" lon="10.2132743"><ele>207.6</ele><time>2026-04-04T10:42:11.756Z</time></trkpt><trkpt lat="42.7697417" lon="10.2134401"><ele>209.4</ele><time>2026-04-04T10:42:13.757Z</time></trkpt><trkpt lat="42.7697242" lon="10.2135708"><ele>211.2</ele><time>2026-04-04T10:42:14.756Z</time></trkpt><trkpt lat="42.7697287" lon="10.2136861"><ele>213.0</ele><time>2026-04-04T10:42:15.757Z</time></trkpt><trkpt lat="42.7697463" lon="10.2137943"><ele>213.0</ele><time>2026-04-04T10:42:16.756Z</time></trkpt><trkpt lat="42.7697681" lon="10.2139026"><ele>213.0</ele><time>2026-04-04T10:42:17.756Z</time></trkpt><trkpt lat="42.7698627" lon="10.2139911"><ele>213.0</ele><time>2026-04-04T10:42:18.757Z</time></trkpt><trkpt lat="42.7699584" lon="10.2140789"><ele>213.0</ele><time>2026-04-04T10:42:19.757Z</time></trkpt><trkpt lat="42.7700566" lon="10.2141615"><ele>213.0</ele><time>2026-04-04T10:42:20.756Z</time></trkpt><trkpt lat="42.7701593" lon="10.2142032"><ele>213.0</ele><time>2026-04-04T10:42:21.757Z</time></trkpt><trkpt lat="42.7702772" lon="10.2142098"><ele>213.0</ele><time>2026-04-04T10:42:22.757Z</time></trkpt><trkpt lat="42.7703975" lon="10.2141816"><ele>213.0</ele><time>2026-04-04T10:42:23.757Z</time></trkpt><trkpt lat="42.7705032" lon="10.2141575"><ele>213.0</ele><time>2026-04-04T10:42:24.757Z</time></trkpt><trkpt lat="42.770613" lon="10.2141281"><ele>213.0</ele><time>2026-04-04T10:42:25.757Z</time></trkpt><trkpt lat="42.770715" lon="10.2140972"><ele>213.0</ele><time>2026-04-04T10:42:26.757Z</time></trkpt><trkpt lat="42.7707818" lon="10.2140882"><ele>213.0</ele><time>2026-04-04T10:42:27.757Z</time></trkpt><trkpt lat="42.7708914" lon="10.2141673"><ele>213.0</ele><time>2026-04-04T10:42:29.757Z</time></trkpt><trkpt lat="42.770945" lon="10.2142675"><ele>213.0</ele><time>2026-04-04T10:42:30.756Z</time></trkpt><trkpt lat="42.7710112" lon="10.2143669"><ele>214.16666666666666</ele><time>2026-04-04T10:42:31.757Z</time></trkpt><trkpt lat="42.7710931" lon="10.2144342"><ele>215.33333333333331</ele><time>2026-04-04T10:42:32.757Z</time></trkpt><trkpt lat="42.7711824" lon="10.214473"><ele>216.5</ele><time>2026-04-04T10:42:33.757Z</time></trkpt><trkpt lat="42.7712583" lon="10.2144711"><ele>217.66666666666666</ele><time>2026-04-04T10:42:34.757Z</time></trkpt><trkpt lat="42.7713284" lon="10.2144224"><ele>218.83333333333331</ele><time>2026-04-04T10:42:35.756Z</time></trkpt><trkpt lat="42.7714084" lon="10.2143503"><ele>220.0</ele><time>2026-04-04T10:42:36.757Z</time></trkpt><trkpt lat="42.7714836" lon="10.2142831"><ele>219.99999999999997</ele><time>2026-04-04T10:42:37.756Z</time></trkpt><trkpt lat="42.7715583" lon="10.2142279"><ele>220.0</ele><time>2026-04-04T10:42:38.756Z</time></trkpt><trkpt lat="42.77165" lon="10.2142566"><ele>220.0</ele><time>2026-04-04T10:42:39.757Z</time></trkpt><trkpt lat="42.7717341" lon="10.2142942"><ele>220.0</ele><time>2026-04-04T10:42:40.757Z</time></trkpt><trkpt lat="42.7718204" lon="10.2143295"><ele>219.99999999999997</ele><time>2026-04-04T10:42:41.757Z</time></trkpt><trkpt lat="42.7719088" lon="10.2143306"><ele>220.0</ele><time>2026-04-04T10:42:42.757Z</time></trkpt><trkpt lat="42.7720075" lon="10.2142862"><ele>221.16666666666666</ele><time>2026-04-04T10:42:43.757Z</time></trkpt><trkpt lat="42.7720981" lon="10.214266"><ele>222.33333333333331</ele><time>2026-04-04T10:42:44.757Z</time></trkpt><trkpt lat="42.7721702" lon="10.2142688"><ele>223.5</ele><time>2026-04-04T10:42:45.757Z</time></trkpt><trkpt lat="42.7722466" lon="10.2143117"><ele>224.66666666666669</ele><time>2026-04-04T10:42:46.757Z</time></trkpt><trkpt lat="42.772316" lon="10.21438"><ele>225.83333333333334</ele><time>2026-04-04T10:42:47.757Z</time></trkpt><trkpt lat="42.7723841" lon="10.2144676"><ele>227.0</ele><time>2026-04-04T10:42:48.757Z</time></trkpt><trkpt lat="42.7724519" lon="10.2145722"><ele>227.00000000000003</ele><time>2026-04-04T10:42:50.757Z</time></trkpt><trkpt lat="42.7724651" lon="10.2146629"><ele>227.0</ele><time>2026-04-04T10:42:52.757Z</time></trkpt><trkpt lat="42.7724162" lon="10.2148589"><ele>227.0</ele><time>2026-04-04T10:42:54.756Z</time></trkpt><trkpt lat="42.7724077" lon="10.2149617"><ele>227.0</ele><time>2026-04-04T10:42:55.756Z</time></trkpt><trkpt lat="42.7724131" lon="10.2150507"><ele>227.00000000000003</ele><time>2026-04-04T10:42:56.756Z</time></trkpt><trkpt lat="42.7724323" lon="10.2151413"><ele>227.0</ele><time>2026-04-04T10:42:57.757Z</time></trkpt><trkpt lat="42.7724815" lon="10.2152344"><ele>225.6</ele><time>2026-04-04T10:42:58.757Z</time></trkpt><trkpt lat="42.7725021" lon="10.2153711"><ele>224.2</ele><time>2026-04-04T10:43:00.757Z</time></trkpt><trkpt lat="42.7724447" lon="10.2155114"><ele>222.8</ele><time>2026-04-04T10:43:02.757Z</time></trkpt><trkpt lat="42.7723844" lon="10.2155723"><ele>221.4</ele><time>2026-04-04T10:43:03.757Z</time></trkpt><trkpt lat="42.7723169" lon="10.2156634"><ele>220.0</ele><time>2026-04-04T10:43:04.757Z</time></trkpt><trkpt lat="42.7722664" lon="10.2157863"><ele>220.0</ele><time>2026-04-04T10:43:05.757Z</time></trkpt><trkpt lat="42.7722356" lon="10.215912"><ele>220.0</ele><time>2026-04-04T10:43:06.757Z</time></trkpt><trkpt lat="42.7722295" lon="10.2160581"><ele>220.0</ele><time>2026-04-04T10:43:07.757Z</time></trkpt><trkpt lat="42.7722474" lon="10.2162138"><ele>220.0</ele><time>2026-04-04T10:43:08.757Z</time></trkpt><trkpt lat="42.7722825" lon="10.216338"><ele>220.0</ele><time>2026-04-04T10:43:09.757Z</time></trkpt><trkpt lat="42.7723024" lon="10.2164593"><ele>220.2</ele><time>2026-04-04T10:43:10.757Z</time></trkpt><trkpt lat="42.772331" lon="10.2165628"><ele>220.4</ele><time>2026-04-04T10:43:11.757Z</time></trkpt><trkpt lat="42.7723556" lon="10.2166589"><ele>220.60000000000002</ele><time>2026-04-04T10:43:12.756Z</time></trkpt><trkpt lat="42.7723884" lon="10.2168263"><ele>220.8</ele><time>2026-04-04T10:43:14.756Z</time></trkpt><trkpt lat="42.7724566" lon="10.2169457"><ele>221.0</ele><time>2026-04-04T10:43:16.757Z</time></trkpt><trkpt lat="42.7725214" lon="10.2169841"><ele>221.00000000000003</ele><time>2026-04-04T10:43:17.757Z</time></trkpt><trkpt lat="42.7725918" lon="10.2170318"><ele>221.0</ele><time>2026-04-04T10:43:18.756Z</time></trkpt><trkpt lat="42.7726543" lon="10.2170725"><ele>221.0</ele><time>2026-04-04T10:43:19.756Z</time></trkpt><trkpt lat="42.7727078" lon="10.2171296"><ele>221.0</ele><time>2026-04-04T10:43:20.757Z</time></trkpt><trkpt lat="42.7727629" lon="10.217194"><ele>221.00000000000003</ele><time>2026-04-04T10:43:21.757Z</time></trkpt><trkpt lat="42.7728196" lon="10.2172685"><ele>221.0</ele><time>2026-04-04T10:43:22.757Z</time></trkpt><trkpt lat="42.7728889" lon="10.2173651"><ele>219.8</ele><time>2026-04-04T10:43:23.757Z</time></trkpt><trkpt lat="42.7729559" lon="10.2174301"><ele>218.60000000000002</ele><time>2026-04-04T10:43:24.757Z</time></trkpt><trkpt lat="42.7730309" lon="10.2174826"><ele>217.4</ele><time>2026-04-04T10:43:25.757Z</time></trkpt><trkpt lat="42.7731174" lon="10.2175009"><ele>216.2</ele><time>2026-04-04T10:43:26.757Z</time></trkpt><trkpt lat="42.7732219" lon="10.2174742"><ele>215.0</ele><time>2026-04-04T10:43:27.757Z</time></trkpt><trkpt lat="42.77331" lon="10.2174314"><ele>215.00000000000003</ele><time>2026-04-04T10:43:28.756Z</time></trkpt><trkpt lat="42.7733899" lon="10.2173561"><ele>215.0</ele><time>2026-04-04T10:43:29.757Z</time></trkpt><trkpt lat="42.773449" lon="10.2172652"><ele>215.0</ele><time>2026-04-04T10:43:30.757Z</time></trkpt><trkpt lat="42.7734956" lon="10.2171769"><ele>215.0</ele><time>2026-04-04T10:43:31.756Z</time></trkpt><trkpt lat="42.7735203" lon="10.2170574"><ele>215.00000000000003</ele><time>2026-04-04T10:43:32.757Z</time></trkpt><trkpt lat="42.7735441" lon="10.2169536"><ele>215.0</ele><time>2026-04-04T10:43:33.757Z</time></trkpt><trkpt lat="42.7736391" lon="10.2168313"><ele>217.6</ele><time>2026-04-04T10:43:35.757Z</time></trkpt><trkpt lat="42.7737429" lon="10.2168224"><ele>220.2</ele><time>2026-04-04T10:43:37.757Z</time></trkpt><trkpt lat="42.773833" lon="10.2169164"><ele>222.8</ele><time>2026-04-04T10:43:39.757Z</time></trkpt><trkpt lat="42.7738845" lon="10.2170195"><ele>225.4</ele><time>2026-04-04T10:43:40.757Z</time></trkpt><trkpt lat="42.7739397" lon="10.2171334"><ele>228.0</ele><time>2026-04-04T10:43:41.757Z</time></trkpt><trkpt lat="42.7739967" lon="10.2172326"><ele>226.2</ele><time>2026-04-04T10:43:42.757Z</time></trkpt><trkpt lat="42.7740685" lon="10.2173241"><ele>224.4</ele><time>2026-04-04T10:43:43.757Z</time></trkpt><trkpt lat="42.7741621" lon="10.2174031"><ele>222.59999999999997</ele><time>2026-04-04T10:43:44.757Z</time></trkpt><trkpt lat="42.7742616" lon="10.2174766"><ele>220.79999999999998</ele><time>2026-04-04T10:43:45.757Z</time></trkpt><trkpt lat="42.7743641" lon="10.2175523"><ele>219.0</ele><time>2026-04-04T10:43:46.757Z</time></trkpt><trkpt lat="42.7744396" lon="10.2176317"><ele>219.0</ele><time>2026-04-04T10:43:47.757Z</time></trkpt><trkpt lat="42.7745034" lon="10.2177079"><ele>219.0</ele><time>2026-04-04T10:43:48.757Z</time></trkpt><trkpt lat="42.7745943" lon="10.2177564"><ele>219.0</ele><time>2026-04-04T10:43:49.757Z</time></trkpt><trkpt lat="42.7746724" lon="10.2177649"><ele>219.0</ele><time>2026-04-04T10:43:50.757Z</time></trkpt><trkpt lat="42.7747412" lon="10.2177693"><ele>219.0</ele><time>2026-04-04T10:43:51.757Z</time></trkpt><trkpt lat="42.7748424" lon="10.2177493"><ele>219.0</ele><time>2026-04-04T10:43:52.756Z</time></trkpt><trkpt lat="42.774943" lon="10.2177091"><ele>219.0</ele><time>2026-04-04T10:43:53.757Z</time></trkpt><trkpt lat="42.7750146" lon="10.2176527"><ele>219.0</ele><time>2026-04-04T10:43:54.757Z</time></trkpt><trkpt lat="42.7750821" lon="10.2176211"><ele>219.0</ele><time>2026-04-04T10:43:55.757Z</time></trkpt><trkpt lat="42.775146" lon="10.2176049"><ele>219.0</ele><time>2026-04-04T10:43:56.757Z</time></trkpt><trkpt lat="42.775255" lon="10.2176825"><ele>219.0</ele><time>2026-04-04T10:43:58.756Z</time></trkpt><trkpt lat="42.775286" lon="10.217774"><ele>219.0</ele><time>2026-04-04T10:43:59.757Z</time></trkpt><trkpt lat="42.7753041" lon="10.2179193"><ele>218.79999999999998</ele><time>2026-04-04T10:44:00.757Z</time></trkpt><trkpt lat="42.7753153" lon="10.2180581"><ele>218.59999999999997</ele><time>2026-04-04T10:44:01.757Z</time></trkpt><trkpt lat="42.7753421" lon="10.2181986"><ele>218.4</ele><time>2026-04-04T10:44:02.757Z</time></trkpt><trkpt lat="42.7753741" lon="10.2183109"><ele>218.2</ele><time>2026-04-04T10:44:03.756Z</time></trkpt><trkpt lat="42.7754239" lon="10.2184009"><ele>218.0</ele><time>2026-04-04T10:44:04.757Z</time></trkpt><trkpt lat="42.7754997" lon="10.2184536"><ele>218.00000000000003</ele><time>2026-04-04T10:44:05.757Z</time></trkpt><trkpt lat="42.7755785" lon="10.2184817"><ele>218.0</ele><time>2026-04-04T10:44:06.757Z</time></trkpt><trkpt lat="42.775674" lon="10.2184523"><ele>218.0</ele><time>2026-04-04T10:44:07.757Z</time></trkpt><trkpt lat="42.7757606" lon="10.2184211"><ele>218.0</ele><time>2026-04-04T10:44:08.757Z</time></trkpt><trkpt lat="42.7758405" lon="10.2183981"><ele>218.00000000000003</ele><time>2026-04-04T10:44:09.757Z</time></trkpt><trkpt lat="42.7759103" lon="10.2184116"><ele>218.0</ele><time>2026-04-04T10:44:10.757Z</time></trkpt><trkpt lat="42.7759994" lon="10.2184758"><ele>219.83333333333334</ele><time>2026-04-04T10:44:11.757Z</time></trkpt><trkpt lat="42.7760905" lon="10.2185351"><ele>221.66666666666669</ele><time>2026-04-04T10:44:12.756Z</time></trkpt><trkpt lat="42.7761786" lon="10.2185634"><ele>223.5</ele><time>2026-04-04T10:44:13.756Z</time></trkpt><trkpt lat="42.776267" lon="10.2185809"><ele>225.33333333333331</ele><time>2026-04-04T10:44:14.757Z</time></trkpt><trkpt lat="42.7763521" lon="10.2186174"><ele>227.16666666666666</ele><time>2026-04-04T10:44:15.757Z</time></trkpt><trkpt lat="42.7764062" lon="10.2186817"><ele>229.0</ele><time>2026-04-04T10:44:16.757Z</time></trkpt><trkpt lat="42.7764676" lon="10.2187882"><ele>229.0</ele><time>2026-04-04T10:44:17.757Z</time></trkpt><trkpt lat="42.7765227" lon="10.2188691"><ele>228.99999999999997</ele><time>2026-04-04T10:44:18.757Z</time></trkpt><trkpt lat="42.7765868" lon="10.2189244"><ele>228.99999999999997</ele><time>2026-04-04T10:44:19.757Z</time></trkpt><trkpt lat="42.7766676" lon="10.2189532"><ele>229.0</ele><time>2026-04-04T10:44:20.756Z</time></trkpt><trkpt lat="42.7767673" lon="10.2189587"><ele>229.0</ele><time>2026-04-04T10:44:21.757Z</time></trkpt><trkpt lat="42.7768786" lon="10.218945"><ele>230.39999999999998</ele><time>2026-04-04T10:44:22.757Z</time></trkpt><trkpt lat="42.7769938" lon="10.2189164"><ele>231.79999999999998</ele><time>2026-04-04T10:44:23.757Z</time></trkpt><trkpt lat="42.7771019" lon="10.2188837"><ele>233.20000000000002</ele><time>2026-04-04T10:44:24.757Z</time></trkpt><trkpt lat="42.7771886" lon="10.2188542"><ele>234.60000000000002</ele><time>2026-04-04T10:44:25.757Z</time></trkpt><trkpt lat="42.7772639" lon="10.2188383"><ele>236.0</ele><time>2026-04-04T10:44:26.756Z</time></trkpt><trkpt lat="42.777341" lon="10.2188496"><ele>236.0</ele><time>2026-04-04T10:44:27.757Z</time></trkpt><trkpt lat="42.7774252" lon="10.2188902"><ele>236.00000000000003</ele><time>2026-04-04T10:44:28.757Z</time></trkpt><trkpt lat="42.7775001" lon="10.218937"><ele>236.00000000000003</ele><time>2026-04-04T10:44:29.757Z</time></trkpt><trkpt lat="42.7775538" lon="10.2190418"><ele>236.0</ele><time>2026-04-04T10:44:30.757Z</time></trkpt><trkpt lat="42.7776112" lon="10.2191521"><ele>236.0</ele><time>2026-04-04T10:44:31.757Z</time></trkpt><trkpt lat="42.7776529" lon="10.2192647"><ele>233.85714285714286</ele><time>2026-04-04T10:44:32.757Z</time></trkpt><trkpt lat="42.7776929" lon="10.2193721"><ele>231.71428571428572</ele><time>2026-04-04T10:44:33.757Z</time></trkpt><trkpt lat="42.7777271" lon="10.219471"><ele>229.57142857142858</ele><time>2026-04-04T10:44:34.757Z</time></trkpt><trkpt lat="42.777748" lon="10.2195631"><ele>227.42857142857144</ele><time>2026-04-04T10:44:35.757Z</time></trkpt><trkpt lat="42.7777657" lon="10.2196561"><ele>225.28571428571428</ele><time>2026-04-04T10:44:36.757Z</time></trkpt><trkpt lat="42.77778" lon="10.2197482"><ele>223.14285714285717</ele><time>2026-04-04T10:44:37.756Z</time></trkpt><trkpt lat="42.7777885" lon="10.2198419"><ele>221.0</ele><time>2026-04-04T10:44:38.757Z</time></trkpt><trkpt lat="42.7777793" lon="10.2199387"><ele>217.20000000000002</ele><time>2026-04-04T10:44:39.757Z</time></trkpt><trkpt lat="42.7777762" lon="10.2200404"><ele>213.40000000000003</ele><time>2026-04-04T10:44:40.757Z</time></trkpt><trkpt lat="42.7777859" lon="10.220129"><ele>209.6</ele><time>2026-04-04T10:44:41.757Z</time></trkpt><trkpt lat="42.7778278" lon="10.2202582"><ele>205.8</ele><time>2026-04-04T10:44:43.757Z</time></trkpt><trkpt lat="42.7779514" lon="10.2203252"><ele>202.0</ele><time>2026-04-04T10:44:45.757Z</time></trkpt><trkpt lat="42.7780355" lon="10.2203213"><ele>202.0</ele><time>2026-04-04T10:44:46.756Z</time></trkpt><trkpt lat="42.7781092" lon="10.2202967"><ele>202.0</ele><time>2026-04-04T10:44:47.756Z</time></trkpt><trkpt lat="42.7781879" lon="10.2202692"><ele>202.0</ele><time>2026-04-04T10:44:48.757Z</time></trkpt><trkpt lat="42.7782535" lon="10.2202579"><ele>202.0</ele><time>2026-04-04T10:44:49.757Z</time></trkpt><trkpt lat="42.7783161" lon="10.2202331"><ele>202.0</ele><time>2026-04-04T10:44:50.757Z</time></trkpt><trkpt lat="42.7783984" lon="10.2201901"><ele>202.0</ele><time>2026-04-04T10:44:51.757Z</time></trkpt><trkpt lat="42.7784594" lon="10.2201406"><ele>202.0</ele><time>2026-04-04T10:44:52.756Z</time></trkpt><trkpt lat="42.7785449" lon="10.2200755"><ele>199.39999999999998</ele><time>2026-04-04T10:44:54.757Z</time></trkpt><trkpt lat="42.7786227" lon="10.2200014"><ele>196.79999999999998</ele><time>2026-04-04T10:44:56.757Z</time></trkpt><trkpt lat="42.7787116" lon="10.2199621"><ele>194.2</ele><time>2026-04-04T10:44:59.757Z</time></trkpt><trkpt lat="42.7787976" lon="10.2200128"><ele>191.6</ele><time>2026-04-04T10:45:01.757Z</time></trkpt><trkpt lat="42.7788571" lon="10.2200737"><ele>189.0</ele><time>2026-04-04T10:45:02.756Z</time></trkpt><trkpt lat="42.7789505" lon="10.2201846"><ele>189.0</ele><time>2026-04-04T10:45:04.757Z</time></trkpt><trkpt lat="42.7789969" lon="10.2202559"><ele>189.0</ele><time>2026-04-04T10:45:05.757Z</time></trkpt><trkpt lat="42.7790893" lon="10.2203731"><ele>189.0</ele><time>2026-04-04T10:45:07.756Z</time></trkpt><trkpt lat="42.7791435" lon="10.2204435"><ele>189.0</ele><time>2026-04-04T10:45:08.756Z</time></trkpt><trkpt lat="42.7791978" lon="10.2205182"><ele>189.0</ele><time>2026-04-04T10:45:09.757Z</time></trkpt><trkpt lat="42.7792806" lon="10.2206287"><ele>186.83333333333334</ele><time>2026-04-04T10:45:11.756Z</time></trkpt><trkpt lat="42.7793131" lon="10.2207449"><ele>184.66666666666666</ele><time>2026-04-04T10:45:13.757Z</time></trkpt><trkpt lat="42.7793067" lon="10.220832"><ele>182.5</ele><time>2026-04-04T10:45:14.757Z</time></trkpt><trkpt lat="42.7792877" lon="10.2209919"><ele>180.33333333333331</ele><time>2026-04-04T10:45:16.757Z</time></trkpt><trkpt lat="42.7792753" lon="10.2211153"><ele>178.16666666666666</ele><time>2026-04-04T10:45:18.757Z</time></trkpt><trkpt lat="42.7792641" lon="10.2212041"><ele>176.0</ele><time>2026-04-04T10:45:20.757Z</time></trkpt><trkpt lat="42.7792922" lon="10.2212831"><ele>176.0</ele><time>2026-04-04T10:46:36.756Z</time></trkpt><trkpt lat="42.7793335" lon="10.2213877"><ele>176.0</ele><time>2026-04-04T10:46:38.757Z</time></trkpt><trkpt lat="42.7793266" lon="10.2215718"><ele>176.0</ele><time>2026-04-04T10:46:40.757Z</time></trkpt><trkpt lat="42.7793202" lon="10.2216924"><ele>176.0</ele><time>2026-04-04T10:46:41.757Z</time></trkpt><trkpt lat="42.7793203" lon="10.2218275"><ele>176.0</ele><time>2026-04-04T10:46:42.757Z</time></trkpt><trkpt lat="42.7793209" lon="10.2219552"><ele>175.16666666666666</ele><time>2026-04-04T10:46:43.757Z</time></trkpt><trkpt lat="42.7793238" lon="10.2220788"><ele>174.33333333333331</ele><time>2026-04-04T10:46:44.757Z</time></trkpt><trkpt lat="42.7793249" lon="10.2221992"><ele>173.5</ele><time>2026-04-04T10:46:45.757Z</time></trkpt><trkpt lat="42.7793392" lon="10.2223139"><ele>172.66666666666666</ele><time>2026-04-04T10:46:46.756Z</time></trkpt><trkpt lat="42.7793475" lon="10.2224352"><ele>171.83333333333334</ele><time>2026-04-04T10:46:47.756Z</time></trkpt><trkpt lat="42.7793441" lon="10.2225647"><ele>171.0</ele><time>2026-04-04T10:46:48.756Z</time></trkpt><trkpt lat="42.7793424" lon="10.2226816"><ele>170.60000000000002</ele><time>2026-04-04T10:46:49.757Z</time></trkpt><trkpt lat="42.7793304" lon="10.222816"><ele>170.2</ele><time>2026-04-04T10:46:50.757Z</time></trkpt><trkpt lat="42.7793031" lon="10.2229584"><ele>169.8</ele><time>2026-04-04T10:46:51.757Z</time></trkpt><trkpt lat="42.7792765" lon="10.2231123"><ele>169.39999999999998</ele><time>2026-04-04T10:46:52.757Z</time></trkpt><trkpt lat="42.7792529" lon="10.2232474"><ele>169.0</ele><time>2026-04-04T10:46:53.757Z</time></trkpt><trkpt lat="42.7792374" lon="10.2233718"><ele>169.66666666666669</ele><time>2026-04-04T10:46:54.757Z</time></trkpt><trkpt lat="42.7792246" lon="10.223486"><ele>170.33333333333334</ele><time>2026-04-04T10:46:55.757Z</time></trkpt><trkpt lat="42.7791908" lon="10.2235893"><ele>171.0</ele><time>2026-04-04T10:46:56.757Z</time></trkpt><trkpt lat="42.7791471" lon="10.2236768"><ele>171.66666666666666</ele><time>2026-04-04T10:46:57.757Z</time></trkpt><trkpt lat="42.7790995" lon="10.2237578"><ele>172.33333333333331</ele><time>2026-04-04T10:46:58.757Z</time></trkpt><trkpt lat="42.7790367" lon="10.2238175"><ele>173.0</ele><time>2026-04-04T10:46:59.757Z</time></trkpt><trkpt lat="42.7789514" lon="10.2238899"><ele>173.0</ele><time>2026-04-04T10:47:00.756Z</time></trkpt><trkpt lat="42.7788798" lon="10.2239524"><ele>173.0</ele><time>2026-04-04T10:47:01.757Z</time></trkpt><trkpt lat="42.7788205" lon="10.2240094"><ele>173.0</ele><time>2026-04-04T10:47:02.757Z</time></trkpt><trkpt lat="42.778796" lon="10.2240969"><ele>173.0</ele><time>2026-04-04T10:47:03.757Z</time></trkpt><trkpt lat="42.7787695" lon="10.2242145"><ele>173.0</ele><time>2026-04-04T10:47:04.757Z</time></trkpt><trkpt lat="42.7787372" lon="10.2243354"><ele>173.0</ele><time>2026-04-04T10:47:05.757Z</time></trkpt><trkpt lat="42.7786968" lon="10.2244652"><ele>175.0</ele><time>2026-04-04T10:47:06.757Z</time></trkpt><trkpt lat="42.7786575" lon="10.2245804"><ele>177.0</ele><time>2026-04-04T10:47:07.757Z</time></trkpt><trkpt lat="42.7786241" lon="10.2247041"><ele>179.0</ele><time>2026-04-04T10:47:08.757Z</time></trkpt><trkpt lat="42.7785955" lon="10.2248351"><ele>181.0</ele><time>2026-04-04T10:47:09.757Z</time></trkpt><trkpt lat="42.7785747" lon="10.2249762"><ele>183.0</ele><time>2026-04-04T10:47:10.757Z</time></trkpt><trkpt lat="42.7785679" lon="10.2251049"><ele>184.0</ele><time>2026-04-04T10:47:11.756Z</time></trkpt><trkpt lat="42.7785662" lon="10.2252276"><ele>185.0</ele><time>2026-04-04T10:47:12.757Z</time></trkpt><trkpt lat="42.7785433" lon="10.2253362"><ele>186.0</ele><time>2026-04-04T10:47:13.757Z</time></trkpt><trkpt lat="42.778504" lon="10.2254446"><ele>187.0</ele><time>2026-04-04T10:47:14.757Z</time></trkpt><trkpt lat="42.7784614" lon="10.2255481"><ele>188.0</ele><time>2026-04-04T10:47:15.757Z</time></trkpt><trkpt lat="42.7784309" lon="10.2256644"><ele>189.0</ele><time>2026-04-04T10:47:16.757Z</time></trkpt><trkpt lat="42.7784042" lon="10.2257903"><ele>185.33333333333334</ele><time>2026-04-04T10:47:17.757Z</time></trkpt><trkpt lat="42.7783719" lon="10.2259003"><ele>181.66666666666666</ele><time>2026-04-04T10:47:18.757Z</time></trkpt><trkpt lat="42.7783537" lon="10.2260177"><ele>178.0</ele><time>2026-04-04T10:47:19.757Z</time></trkpt><trkpt lat="42.7783345" lon="10.2261342"><ele>174.33333333333331</ele><time>2026-04-04T10:47:20.756Z</time></trkpt><trkpt lat="42.778312" lon="10.2262391"><ele>170.66666666666666</ele><time>2026-04-04T10:47:21.757Z</time></trkpt><trkpt lat="42.7782861" lon="10.2263249"><ele>167.0</ele><time>2026-04-04T10:47:22.756Z</time></trkpt><trkpt lat="42.7782479" lon="10.2263965"><ele>167.0</ele><time>2026-04-04T10:47:23.757Z</time></trkpt><trkpt lat="42.7781734" lon="10.2264633"><ele>167.0</ele><time>2026-04-04T10:47:24.757Z</time></trkpt><trkpt lat="42.7780925" lon="10.2265163"><ele>167.0</ele><time>2026-04-04T10:47:25.757Z</time></trkpt><trkpt lat="42.7780206" lon="10.2265612"><ele>167.0</ele><time>2026-04-04T10:47:26.757Z</time></trkpt><trkpt lat="42.7779404" lon="10.2266102"><ele>167.0</ele><time>2026-04-04T10:47:27.757Z</time></trkpt><trkpt lat="42.7778609" lon="10.22668"><ele>167.0</ele><time>2026-04-04T10:47:28.757Z</time></trkpt><trkpt lat="42.7777896" lon="10.2267345"><ele>168.16666666666666</ele><time>2026-04-04T10:47:29.756Z</time></trkpt><trkpt lat="42.7777216" lon="10.2267841"><ele>169.33333333333331</ele><time>2026-04-04T10:47:30.756Z</time></trkpt><trkpt lat="42.7776622" lon="10.2268348"><ele>170.5</ele><time>2026-04-04T10:47:31.757Z</time></trkpt><trkpt lat="42.7776073" lon="10.22691"><ele>171.66666666666666</ele><time>2026-04-04T10:47:32.757Z</time></trkpt><trkpt lat="42.7775653" lon="10.2270046"><ele>172.83333333333334</ele><time>2026-04-04T10:47:33.757Z</time></trkpt><trkpt lat="42.7775314" lon="10.2270919"><ele>174.0</ele><time>2026-04-04T10:47:34.756Z</time></trkpt><trkpt lat="42.7775013" lon="10.2271817"><ele>171.33333333333334</ele><time>2026-04-04T10:47:35.757Z</time></trkpt><trkpt lat="42.7774697" lon="10.2272768"><ele>168.66666666666666</ele><time>2026-04-04T10:47:36.757Z</time></trkpt><trkpt lat="42.7774506" lon="10.227377"><ele>166.0</ele><time>2026-04-04T10:47:37.757Z</time></trkpt><trkpt lat="42.7774429" lon="10.2274935"><ele>163.33333333333331</ele><time>2026-04-04T10:47:38.757Z</time></trkpt><trkpt lat="42.7774341" lon="10.227613"><ele>160.66666666666666</ele><time>2026-04-04T10:47:39.757Z</time></trkpt><trkpt lat="42.7774377" lon="10.2277128"><ele>158.0</ele><time>2026-04-04T10:47:40.757Z</time></trkpt><trkpt lat="42.7774516" lon="10.2278824"><ele>158.0</ele><time>2026-04-04T10:47:42.757Z</time></trkpt><trkpt lat="42.7774685" lon="10.2279885"><ele>158.0</ele><time>2026-04-04T10:47:43.757Z</time></trkpt><trkpt lat="42.7774867" lon="10.228152"><ele>158.0</ele><time>2026-04-04T10:47:45.757Z</time></trkpt><trkpt lat="42.7774539" lon="10.2283017"><ele>158.0</ele><time>2026-04-04T10:47:47.757Z</time></trkpt><trkpt lat="42.7773471" lon="10.2284137"><ele>158.16666666666666</ele><time>2026-04-04T10:47:49.757Z</time></trkpt><trkpt lat="42.7772887" lon="10.2284642"><ele>158.33333333333331</ele><time>2026-04-04T10:47:50.757Z</time></trkpt><trkpt lat="42.7772408" lon="10.2285227"><ele>158.5</ele><time>2026-04-04T10:47:51.757Z</time></trkpt><trkpt lat="42.777195" lon="10.2285904"><ele>158.66666666666666</ele><time>2026-04-04T10:47:52.757Z</time></trkpt><trkpt lat="42.7771416" lon="10.2286704"><ele>158.83333333333334</ele><time>2026-04-04T10:47:53.757Z</time></trkpt><trkpt lat="42.7770746" lon="10.2287552"><ele>159.0</ele><time>2026-04-04T10:47:54.757Z</time></trkpt><trkpt lat="42.7770146" lon="10.2288435"><ele>159.0</ele><time>2026-04-04T10:47:55.757Z</time></trkpt><trkpt lat="42.7769513" lon="10.2289298"><ele>159.0</ele><time>2026-04-04T10:47:56.757Z</time></trkpt><trkpt lat="42.7768883" lon="10.2290177"><ele>159.0</ele><time>2026-04-04T10:47:57.757Z</time></trkpt><trkpt lat="42.776822" lon="10.2291021"><ele>159.0</ele><time>2026-04-04T10:47:58.756Z</time></trkpt><trkpt lat="42.7767509" lon="10.2291826"><ele>159.0</ele><time>2026-04-04T10:47:59.757Z</time></trkpt><trkpt lat="42.7766774" lon="10.2292581"><ele>156.16666666666666</ele><time>2026-04-04T10:48:00.757Z</time></trkpt><trkpt lat="42.7765969" lon="10.2293386"><ele>153.33333333333334</ele><time>2026-04-04T10:48:01.757Z</time></trkpt><trkpt lat="42.7765138" lon="10.2294156"><ele>150.5</ele><time>2026-04-04T10:48:02.756Z</time></trkpt><trkpt lat="42.7764479" lon="10.2294915"><ele>147.66666666666669</ele><time>2026-04-04T10:48:03.756Z</time></trkpt><trkpt lat="42.7763959" lon="10.2295692"><ele>144.83333333333334</ele><time>2026-04-04T10:48:04.757Z</time></trkpt><trkpt lat="42.7763598" lon="10.2296555"><ele>142.0</ele><time>2026-04-04T10:48:05.757Z</time></trkpt><trkpt lat="42.7763435" lon="10.22974"><ele>144.0</ele><time>2026-04-04T10:48:06.757Z</time></trkpt><trkpt lat="42.7763334" lon="10.2298301"><ele>146.0</ele><time>2026-04-04T10:48:07.757Z</time></trkpt><trkpt lat="42.7763273" lon="10.2299255"><ele>148.0</ele><time>2026-04-04T10:48:08.756Z</time></trkpt><trkpt lat="42.7763268" lon="10.2300339"><ele>150.0</ele><time>2026-04-04T10:48:09.757Z</time></trkpt><trkpt lat="42.7763264" lon="10.2301271"><ele>152.0</ele><time>2026-04-04T10:48:10.757Z</time></trkpt><trkpt lat="42.7763224" lon="10.2302282"><ele>154.0</ele><time>2026-04-04T10:48:11.757Z</time></trkpt><trkpt lat="42.7763171" lon="10.2303295"><ele>156.0</ele><time>2026-04-04T10:48:12.757Z</time></trkpt><trkpt lat="42.7763091" lon="10.2304393"><ele>156.0</ele><time>2026-04-04T10:48:13.757Z</time></trkpt><trkpt lat="42.7763019" lon="10.2305601"><ele>156.0</ele><time>2026-04-04T10:48:14.757Z</time></trkpt><trkpt lat="42.7762879" lon="10.230693"><ele>156.0</ele><time>2026-04-04T10:48:15.757Z</time></trkpt><trkpt lat="42.7762843" lon="10.2308166"><ele>156.0</ele><time>2026-04-04T10:48:16.757Z</time></trkpt><trkpt lat="42.7762818" lon="10.2309193"><ele>156.0</ele><time>2026-04-04T10:48:17.757Z</time></trkpt><trkpt lat="42.7762733" lon="10.2310261"><ele>156.0</ele><time>2026-04-04T10:48:18.757Z</time></trkpt><trkpt lat="42.77627" lon="10.2311537"><ele>156.2</ele><time>2026-04-04T10:48:19.757Z</time></trkpt><trkpt lat="42.7762665" lon="10.2312753"><ele>156.39999999999998</ele><time>2026-04-04T10:48:20.757Z</time></trkpt><trkpt lat="42.7762673" lon="10.231409"><ele>156.6</ele><time>2026-04-04T10:48:21.757Z</time></trkpt><trkpt lat="42.776283" lon="10.2315437"><ele>156.79999999999998</ele><time>2026-04-04T10:48:22.757Z</time></trkpt><trkpt lat="42.7762673" lon="10.2316699"><ele>157.0</ele><time>2026-04-04T10:48:23.756Z</time></trkpt><trkpt lat="42.7762398" lon="10.2318189"><ele>156.4</ele><time>2026-04-04T10:48:24.757Z</time></trkpt><trkpt lat="42.7762011" lon="10.2319585"><ele>155.79999999999998</ele><time>2026-04-04T10:48:25.757Z</time></trkpt><trkpt lat="42.7761659" lon="10.2320938"><ele>155.2</ele><time>2026-04-04T10:48:26.757Z</time></trkpt><trkpt lat="42.7761167" lon="10.2322175"><ele>154.6</ele><time>2026-04-04T10:48:27.757Z</time></trkpt><trkpt lat="42.7760729" lon="10.2323242"><ele>154.0</ele><time>2026-04-04T10:48:28.757Z</time></trkpt><trkpt lat="42.7760388" lon="10.2324375"><ele>152.33333333333334</ele><time>2026-04-04T10:48:29.757Z</time></trkpt><trkpt lat="42.7760173" lon="10.2325329"><ele>150.66666666666669</ele><time>2026-04-04T10:48:30.757Z</time></trkpt><trkpt lat="42.7760169" lon="10.2326289"><ele>149.0</ele><time>2026-04-04T10:48:31.757Z</time></trkpt><trkpt lat="42.7760486" lon="10.2327224"><ele>147.33333333333334</ele><time>2026-04-04T10:48:32.757Z</time></trkpt><trkpt lat="42.7761047" lon="10.2328372"><ele>145.66666666666666</ele><time>2026-04-04T10:48:33.757Z</time></trkpt><trkpt lat="42.7761665" lon="10.2329303"><ele>144.0</ele><time>2026-04-04T10:48:34.757Z</time></trkpt><trkpt lat="42.7762315" lon="10.2329984"><ele>144.0</ele><time>2026-04-04T10:48:35.757Z</time></trkpt><trkpt lat="42.7763112" lon="10.2330458"><ele>144.0</ele><time>2026-04-04T10:48:36.757Z</time></trkpt><trkpt lat="42.7763998" lon="10.2330886"><ele>144.0</ele><time>2026-04-04T10:48:37.757Z</time></trkpt><trkpt lat="42.7764806" lon="10.2331421"><ele>144.0</ele><time>2026-04-04T10:48:38.757Z</time></trkpt><trkpt lat="42.7765632" lon="10.2331953"><ele>144.0</ele><time>2026-04-04T10:48:39.757Z</time></trkpt><trkpt lat="42.7766389" lon="10.2332395"><ele>144.0</ele><time>2026-04-04T10:48:40.757Z</time></trkpt><trkpt lat="42.776694" lon="10.2332981"><ele>143.33333333333334</ele><time>2026-04-04T10:48:41.757Z</time></trkpt><trkpt lat="42.7767446" lon="10.2333645"><ele>142.66666666666666</ele><time>2026-04-04T10:48:42.757Z</time></trkpt><trkpt lat="42.7767845" lon="10.2334414"><ele>142.0</ele><time>2026-04-04T10:48:43.757Z</time></trkpt><trkpt lat="42.776852" lon="10.2335898"><ele>141.33333333333331</ele><time>2026-04-04T10:48:45.757Z</time></trkpt><trkpt lat="42.7768789" lon="10.2336726"><ele>140.66666666666666</ele><time>2026-04-04T10:48:46.757Z</time></trkpt><trkpt lat="42.776883" lon="10.2337582"><ele>140.0</ele><time>2026-04-04T10:48:47.757Z</time></trkpt><trkpt lat="42.7768716" lon="10.233855"><ele>138.33333333333331</ele><time>2026-04-04T10:48:48.757Z</time></trkpt><trkpt lat="42.7768422" lon="10.2339583"><ele>136.66666666666666</ele><time>2026-04-04T10:48:49.757Z</time></trkpt><trkpt lat="42.7768148" lon="10.2340604"><ele>135.0</ele><time>2026-04-04T10:48:50.757Z</time></trkpt><trkpt lat="42.7767724" lon="10.2341609"><ele>133.33333333333334</ele><time>2026-04-04T10:48:51.756Z</time></trkpt><trkpt lat="42.7767346" lon="10.2342583"><ele>131.66666666666669</ele><time>2026-04-04T10:48:52.757Z</time></trkpt><trkpt lat="42.7766895" lon="10.234361"><ele>130.0</ele><time>2026-04-04T10:48:53.757Z</time></trkpt><trkpt lat="42.7766481" lon="10.2344554"><ele>128.16666666666669</ele><time>2026-04-04T10:48:54.756Z</time></trkpt><trkpt lat="42.7766043" lon="10.2345498"><ele>126.33333333333334</ele><time>2026-04-04T10:48:55.757Z</time></trkpt><trkpt lat="42.7765567" lon="10.2346484"><ele>124.5</ele><time>2026-04-04T10:48:56.757Z</time></trkpt><trkpt lat="42.7765282" lon="10.2347521"><ele>122.66666666666666</ele><time>2026-04-04T10:48:57.757Z</time></trkpt><trkpt lat="42.7765154" lon="10.2348689"><ele>120.83333333333333</ele><time>2026-04-04T10:48:58.757Z</time></trkpt><trkpt lat="42.7765223" lon="10.2349751"><ele>119.0</ele><time>2026-04-04T10:48:59.757Z</time></trkpt><trkpt lat="42.7765351" lon="10.2350604"><ele>117.2</ele><time>2026-04-04T10:49:00.757Z</time></trkpt><trkpt lat="42.7765053" lon="10.2351972"><ele>115.4</ele><time>2026-04-04T10:49:02.756Z</time></trkpt><trkpt lat="42.7763807" lon="10.235205"><ele>113.6</ele><time>2026-04-04T10:49:04.756Z</time></trkpt><trkpt lat="42.7763041" lon="10.2351672"><ele>111.8</ele><time>2026-04-04T10:49:05.757Z</time></trkpt><trkpt lat="42.7762261" lon="10.2351276"><ele>110.0</ele><time>2026-04-04T10:49:06.757Z</time></trkpt><trkpt lat="42.7761483" lon="10.2350867"><ele>109.99999999999999</ele><time>2026-04-04T10:49:07.757Z</time></trkpt><trkpt lat="42.776074" lon="10.2350349"><ele>110.0</ele><time>2026-04-04T10:49:08.757Z</time></trkpt><trkpt lat="42.7760166" lon="10.2349676"><ele>110.0</ele><time>2026-04-04T10:49:09.757Z</time></trkpt><trkpt lat="42.775968" lon="10.2349009"><ele>110.0</ele><time>2026-04-04T10:49:10.757Z</time></trkpt><trkpt lat="42.7759166" lon="10.2348431"><ele>109.99999999999999</ele><time>2026-04-04T10:49:11.757Z</time></trkpt><trkpt lat="42.7758089" lon="10.234849"><ele>110.0</ele><time>2026-04-04T10:49:13.757Z</time></trkpt><trkpt lat="42.7757409" lon="10.2349068"><ele>107.33333333333333</ele><time>2026-04-04T10:49:14.757Z</time></trkpt><trkpt lat="42.7756702" lon="10.2349616"><ele>104.66666666666666</ele><time>2026-04-04T10:49:15.757Z</time></trkpt><trkpt lat="42.775596" lon="10.2349945"><ele>102.0</ele><time>2026-04-04T10:49:16.757Z</time></trkpt><trkpt lat="42.7755212" lon="10.2350181"><ele>99.33333333333333</ele><time>2026-04-04T10:49:17.757Z</time></trkpt><trkpt lat="42.775449" lon="10.2350303"><ele>96.66666666666666</ele><time>2026-04-04T10:49:18.757Z</time></trkpt><trkpt lat="42.7753838" lon="10.2350413"><ele>94.0</ele><time>2026-04-04T10:49:19.757Z</time></trkpt><trkpt lat="42.775274" lon="10.2350765"><ele>94.0</ele><time>2026-04-04T10:49:21.757Z</time></trkpt><trkpt lat="42.7751833" lon="10.2350938"><ele>94.0</ele><time>2026-04-04T10:49:23.757Z</time></trkpt><trkpt lat="42.7751381" lon="10.2350195"><ele>94.0</ele><time>2026-04-04T10:49:25.756Z</time></trkpt><trkpt lat="42.7751722" lon="10.2349007"><ele>94.0</ele><time>2026-04-04T10:49:27.757Z</time></trkpt><trkpt lat="42.7752152" lon="10.2348243"><ele>94.0</ele><time>2026-04-04T10:49:28.757Z</time></trkpt><trkpt lat="42.7752658" lon="10.2347521"><ele>94.0</ele><time>2026-04-04T10:49:29.757Z</time></trkpt><trkpt lat="42.7753132" lon="10.2346721"><ele>95.6</ele><time>2026-04-04T10:49:30.757Z</time></trkpt><trkpt lat="42.7753475" lon="10.2345915"><ele>97.2</ele><time>2026-04-04T10:49:31.757Z</time></trkpt><trkpt lat="42.7753587" lon="10.234438"><ele>98.8</ele><time>2026-04-04T10:49:33.757Z</time></trkpt><trkpt lat="42.7752785" lon="10.2343224"><ele>100.39999999999999</ele><time>2026-04-04T10:49:35.757Z</time></trkpt><trkpt lat="42.7752046" lon="10.2342765"><ele>102.0</ele><time>2026-04-04T10:49:36.757Z</time></trkpt><trkpt lat="42.7751326" lon="10.2342238"><ele>100.83333333333333</ele><time>2026-04-04T10:49:37.757Z</time></trkpt><trkpt lat="42.7750605" lon="10.2341592"><ele>99.66666666666667</ele><time>2026-04-04T10:49:38.756Z</time></trkpt><trkpt lat="42.7749915" lon="10.2341043"><ele>98.5</ele><time>2026-04-04T10:49:39.757Z</time></trkpt><trkpt lat="42.7749244" lon="10.2340581"><ele>97.33333333333334</ele><time>2026-04-04T10:49:40.757Z</time></trkpt><trkpt lat="42.7748617" lon="10.2340186"><ele>96.16666666666667</ele><time>2026-04-04T10:49:41.757Z</time></trkpt><trkpt lat="42.7747907" lon="10.2339595"><ele>95.0</ele><time>2026-04-04T10:49:42.757Z</time></trkpt><trkpt lat="42.7747141" lon="10.2339039"><ele>95.0</ele><time>2026-04-04T10:49:43.757Z</time></trkpt><trkpt lat="42.7746267" lon="10.2338057"><ele>95.0</ele><time>2026-04-04T10:49:44.757Z</time></trkpt><trkpt lat="42.7745374" lon="10.2337252"><ele>95.0</ele><time>2026-04-04T10:49:45.757Z</time></trkpt><trkpt lat="42.7744508" lon="10.2336462"><ele>95.0</ele><time>2026-04-04T10:49:46.757Z</time></trkpt><trkpt lat="42.7743652" lon="10.2335759"><ele>95.0</ele><time>2026-04-04T10:49:47.757Z</time></trkpt><trkpt lat="42.774288" lon="10.2334869"><ele>91.6</ele><time>2026-04-04T10:49:48.757Z</time></trkpt><trkpt lat="42.7742117" lon="10.233386"><ele>88.2</ele><time>2026-04-04T10:49:49.757Z</time></trkpt><trkpt lat="42.7741403" lon="10.2332811"><ele>84.8</ele><time>2026-04-04T10:49:50.757Z</time></trkpt><trkpt lat="42.7740635" lon="10.2331688"><ele>81.4</ele><time>2026-04-04T10:49:51.757Z</time></trkpt><trkpt lat="42.7739767" lon="10.2330752"><ele>78.0</ele><time>2026-04-04T10:49:52.757Z</time></trkpt><trkpt lat="42.7738941" lon="10.2329849"><ele>78.0</ele><time>2026-04-04T10:49:53.756Z</time></trkpt><trkpt lat="42.7738159" lon="10.2328944"><ele>78.0</ele><time>2026-04-04T10:49:54.757Z</time></trkpt><trkpt lat="42.7737504" lon="10.2328047"><ele>78.0</ele><time>2026-04-04T10:49:55.757Z</time></trkpt><trkpt lat="42.7736869" lon="10.2327147"><ele>78.0</ele><time>2026-04-04T10:49:56.757Z</time></trkpt><trkpt lat="42.7736244" lon="10.2326278"><ele>78.0</ele><time>2026-04-04T10:49:57.757Z</time></trkpt><trkpt lat="42.7735694" lon="10.2325286"><ele>78.0</ele><time>2026-04-04T10:49:58.757Z</time></trkpt><trkpt lat="42.7735316" lon="10.2324352"><ele>78.0</ele><time>2026-04-04T10:49:59.757Z</time></trkpt><trkpt lat="42.7735155" lon="10.2323465"><ele>78.0</ele><time>2026-04-04T10:50:00.757Z</time></trkpt><trkpt lat="42.7735057" lon="10.2322511"><ele>78.0</ele><time>2026-04-04T10:50:01.757Z</time></trkpt><trkpt lat="42.7735176" lon="10.2320976"><ele>78.0</ele><time>2026-04-04T10:50:03.757Z</time></trkpt><trkpt lat="42.773566" lon="10.2319728"><ele>78.0</ele><time>2026-04-04T10:50:05.757Z</time></trkpt><trkpt lat="42.7735248" lon="10.2318939"><ele>73.4</ele><time>2026-04-04T10:50:08.757Z</time></trkpt><trkpt lat="42.7734391" lon="10.2319498"><ele>68.8</ele><time>2026-04-04T10:50:11.756Z</time></trkpt><trkpt lat="42.773356" lon="10.2320404"><ele>64.2</ele><time>2026-04-04T10:50:13.757Z</time></trkpt><trkpt lat="42.7733072" lon="10.2320984"><ele>59.6</ele><time>2026-04-04T10:50:14.757Z</time></trkpt><trkpt lat="42.7732657" lon="10.2321642"><ele>55.0</ele><time>2026-04-04T10:50:15.757Z</time></trkpt><trkpt lat="42.773182" lon="10.2322851"><ele>55.75</ele><time>2026-04-04T10:50:17.757Z</time></trkpt><trkpt lat="42.7731056" lon="10.2324082"><ele>56.5</ele><time>2026-04-04T10:50:19.757Z</time></trkpt><trkpt lat="42.7730374" lon="10.2325353"><ele>57.25</ele><time>2026-04-04T10:50:21.757Z</time></trkpt><trkpt lat="42.7729862" lon="10.2326782"><ele>58.0</ele><time>2026-04-04T10:50:23.756Z</time></trkpt><trkpt lat="42.7729286" lon="10.2328209"><ele>58.00000000000001</ele><time>2026-04-04T10:50:25.757Z</time></trkpt><trkpt lat="42.772886" lon="10.2329024"><ele>58.0</ele><time>2026-04-04T10:50:26.757Z</time></trkpt><trkpt lat="42.7728436" lon="10.2329834"><ele>58.00000000000001</ele><time>2026-04-04T10:50:27.757Z</time></trkpt><trkpt lat="42.7728278" lon="10.2330744"><ele>58.00000000000001</ele><time>2026-04-04T10:50:28.757Z</time></trkpt><trkpt lat="42.7727967" lon="10.2331689"><ele>58.0</ele><time>2026-04-04T10:50:29.757Z</time></trkpt><trkpt lat="42.7727681" lon="10.2332534"><ele>58.00000000000001</ele><time>2026-04-04T10:50:30.756Z</time></trkpt><trkpt lat="42.7727277" lon="10.2333198"><ele>58.00000000000001</ele><time>2026-04-04T10:50:31.757Z</time></trkpt><trkpt lat="42.7726673" lon="10.2333627"><ele>54.599999999999994</ele><time>2026-04-04T10:50:32.757Z</time></trkpt><trkpt lat="42.7725671" lon="10.2334657"><ele>51.199999999999996</ele><time>2026-04-04T10:50:34.757Z</time></trkpt><trkpt lat="42.7724974" lon="10.2335103"><ele>47.8</ele><time>2026-04-04T10:50:35.757Z</time></trkpt><trkpt lat="42.7724168" lon="10.233567"><ele>44.4</ele><time>2026-04-04T10:50:36.757Z</time></trkpt><trkpt lat="42.7723288" lon="10.2336184"><ele>41.0</ele><time>2026-04-04T10:50:37.757Z</time></trkpt><trkpt lat="42.7722406" lon="10.2336756"><ele>41.0</ele><time>2026-04-04T10:50:38.757Z</time></trkpt><trkpt lat="42.7721471" lon="10.2337281"><ele>41.0</ele><time>2026-04-04T10:50:39.757Z</time></trkpt><trkpt lat="42.7720612" lon="10.2337999"><ele>41.0</ele><time>2026-04-04T10:50:40.756Z</time></trkpt><trkpt lat="42.7719839" lon="10.2338799"><ele>41.0</ele><time>2026-04-04T10:50:41.757Z</time></trkpt><trkpt lat="42.7719159" lon="10.2339545"><ele>41.0</ele><time>2026-04-04T10:50:42.757Z</time></trkpt><trkpt lat="42.771844" lon="10.2340353"><ele>39.666666666666664</ele><time>2026-04-04T10:50:43.757Z</time></trkpt><trkpt lat="42.7717788" lon="10.2341073"><ele>38.33333333333333</ele><time>2026-04-04T10:50:44.757Z</time></trkpt><trkpt lat="42.771709" lon="10.2341685"><ele>37.0</ele><time>2026-04-04T10:50:45.756Z</time></trkpt><trkpt lat="42.7716564" lon="10.2342316"><ele>35.666666666666664</ele><time>2026-04-04T10:50:46.757Z</time></trkpt><trkpt lat="42.7715962" lon="10.2342935"><ele>34.333333333333336</ele><time>2026-04-04T10:50:47.757Z</time></trkpt><trkpt lat="42.7715472" lon="10.2343569"><ele>33.0</ele><time>2026-04-04T10:50:48.757Z</time></trkpt><trkpt lat="42.7715032" lon="10.2344319"><ele>33.0</ele><time>2026-04-04T10:50:49.757Z</time></trkpt><trkpt lat="42.7714585" lon="10.2345089"><ele>33.0</ele><time>2026-04-04T10:50:50.757Z</time></trkpt><trkpt lat="42.7714051" lon="10.2345846"><ele>33.0</ele><time>2026-04-04T10:50:51.757Z</time></trkpt><trkpt lat="42.7713378" lon="10.2346737"><ele>33.0</ele><time>2026-04-04T10:50:52.757Z</time></trkpt><trkpt lat="42.7712719" lon="10.234763"><ele>33.0</ele><time>2026-04-04T10:50:53.757Z</time></trkpt><trkpt lat="42.7712024" lon="10.2348618"><ele>33.0</ele><time>2026-04-04T10:50:54.757Z</time></trkpt><trkpt lat="42.7711241" lon="10.2349454"><ele>31.75</ele><time>2026-04-04T10:50:55.757Z</time></trkpt><trkpt lat="42.7710354" lon="10.2350406"><ele>30.5</ele><time>2026-04-04T10:50:56.757Z</time></trkpt><trkpt lat="42.7709359" lon="10.2351478"><ele>29.25</ele><time>2026-04-04T10:50:57.757Z</time></trkpt><trkpt lat="42.7708301" lon="10.2352662"><ele>28.0</ele><time>2026-04-04T10:50:58.756Z</time></trkpt><trkpt lat="42.7707154" lon="10.2353837"><ele>27.5</ele><time>2026-04-04T10:50:59.757Z</time></trkpt><trkpt lat="42.7706063" lon="10.2355062"><ele>27.0</ele><time>2026-04-04T10:51:00.757Z</time></trkpt><trkpt lat="42.7705034" lon="10.2356269"><ele>26.5</ele><time>2026-04-04T10:51:01.757Z</time></trkpt><trkpt lat="42.7704092" lon="10.2357332"><ele>26.0</ele><time>2026-04-04T10:51:02.757Z</time></trkpt><trkpt lat="42.7703304" lon="10.2358211"><ele>25.333333333333332</ele><time>2026-04-04T10:51:03.757Z</time></trkpt><trkpt lat="42.7702666" lon="10.2358906"><ele>24.666666666666664</ele><time>2026-04-04T10:51:04.757Z</time></trkpt><trkpt lat="42.7701903" lon="10.2359335"><ele>24.0</ele><time>2026-04-04T10:51:05.757Z</time></trkpt><trkpt lat="42.7701139" lon="10.2359511"><ele>23.333333333333332</ele><time>2026-04-04T10:51:06.757Z</time></trkpt><trkpt lat="42.7700302" lon="10.2359564"><ele>22.666666666666664</ele><time>2026-04-04T10:51:07.757Z</time></trkpt><trkpt lat="42.7699675" lon="10.2359462"><ele>22.0</ele><time>2026-04-04T10:51:08.757Z</time></trkpt><trkpt lat="42.7698921" lon="10.2359525"><ele>21.5</ele><time>2026-04-04T10:51:09.757Z</time></trkpt><trkpt lat="42.7698103" lon="10.2359848"><ele>21.0</ele><time>2026-04-04T10:51:11.756Z</time></trkpt><trkpt lat="42.7697413" lon="10.236003"><ele>20.5</ele><time>2026-04-04T10:51:47.757Z</time></trkpt><trkpt lat="42.7696542" lon="10.2361125"><ele>20.0</ele><time>2026-04-04T10:51:50.757Z</time></trkpt><trkpt lat="42.7695986" lon="10.2361752"><ele>19.5</ele><time>2026-04-04T10:51:51.757Z</time></trkpt><trkpt lat="42.7695214" lon="10.2362306"><ele>19.0</ele><time>2026-04-04T10:51:52.757Z</time></trkpt><trkpt lat="42.7694184" lon="10.2362756"><ele>18.0</ele><time>2026-04-04T10:51:53.757Z</time></trkpt><trkpt lat="42.7693078" lon="10.2363113"><ele>17.0</ele><time>2026-04-04T10:51:54.757Z</time></trkpt><trkpt lat="42.7691859" lon="10.2363669"><ele>16.0</ele><time>2026-04-04T10:51:55.757Z</time></trkpt><trkpt lat="42.7690612" lon="10.2364302"><ele>15.0</ele><time>2026-04-04T10:51:56.757Z</time></trkpt><trkpt lat="42.7689386" lon="10.2364871"><ele>15.0</ele><time>2026-04-04T10:51:57.756Z</time></trkpt><trkpt lat="42.7688294" lon="10.2365438"><ele>15.0</ele><time>2026-04-04T10:51:58.757Z</time></trkpt><trkpt lat="42.7687271" lon="10.2365926"><ele>15.0</ele><time>2026-04-04T10:51:59.757Z</time></trkpt><trkpt lat="42.7686352" lon="10.2366543"><ele>15.0</ele><time>2026-04-04T10:52:00.757Z</time></trkpt><trkpt lat="42.7685489" lon="10.2367401"><ele>15.0</ele><time>2026-04-04T10:52:01.757Z</time></trkpt><trkpt lat="42.7684817" lon="10.2368319"><ele>14.4</ele><time>2026-04-04T10:52:02.757Z</time></trkpt><trkpt lat="42.7684188" lon="10.2369458"><ele>13.8</ele><time>2026-04-04T10:52:03.757Z</time></trkpt><trkpt lat="42.7683663" lon="10.23707"><ele>13.2</ele><time>2026-04-04T10:52:04.757Z</time></trkpt><trkpt lat="42.7683244" lon="10.2371822"><ele>12.6</ele><time>2026-04-04T10:52:05.757Z</time></trkpt><trkpt lat="42.7682824" lon="10.2373003"><ele>12.0</ele><time>2026-04-04T10:52:06.757Z</time></trkpt><trkpt lat="42.7682573" lon="10.2374008"><ele>11.833333333333334</ele><time>2026-04-04T10:52:07.756Z</time></trkpt><trkpt lat="42.768236" lon="10.2374836"><ele>11.666666666666666</ele><time>2026-04-04T10:52:08.757Z</time></trkpt><trkpt lat="42.7681988" lon="10.237576"><ele>11.5</ele><time>2026-04-04T10:52:11.757Z</time></trkpt><trkpt lat="42.7681403" lon="10.2376493"><ele>11.333333333333332</ele><time>2026-04-04T10:52:14.757Z</time></trkpt><trkpt lat="42.7680351" lon="10.2376262"><ele>11.166666666666666</ele><time>2026-04-04T10:52:16.756Z</time></trkpt><trkpt lat="42.7679654" lon="10.2375926"><ele>11.0</ele><time>2026-04-04T10:52:17.757Z</time></trkpt><trkpt lat="42.7678764" lon="10.2375575"><ele>11.0</ele><time>2026-04-04T10:52:18.757Z</time></trkpt><trkpt lat="42.7677879" lon="10.2375189"><ele>11.0</ele><time>2026-04-04T10:52:19.757Z</time></trkpt><trkpt lat="42.7677002" lon="10.2374844"><ele>11.0</ele><time>2026-04-04T10:52:20.757Z</time></trkpt><trkpt lat="42.7676132" lon="10.2374412"><ele>11.0</ele><time>2026-04-04T10:52:21.757Z</time></trkpt><trkpt lat="42.7675285" lon="10.2373946"><ele>11.0</ele><time>2026-04-04T10:52:22.757Z</time></trkpt><trkpt lat="42.767446" lon="10.237347"><ele>11.0</ele><time>2026-04-04T10:52:23.757Z</time></trkpt><trkpt lat="42.7673687" lon="10.2373052"><ele>11.0</ele><time>2026-04-04T10:52:24.757Z</time></trkpt><trkpt lat="42.7672995" lon="10.2372675"><ele>11.0</ele><time>2026-04-04T10:52:25.757Z</time></trkpt><trkpt lat="42.7672353" lon="10.2372434"><ele>11.0</ele><time>2026-04-04T10:52:26.757Z</time></trkpt><trkpt lat="42.7671748" lon="10.2372151"><ele>11.0</ele><time>2026-04-04T10:52:27.757Z</time></trkpt><trkpt lat="42.767114" lon="10.237177"><ele>11.0</ele><time>2026-04-04T10:52:28.756Z</time></trkpt><trkpt lat="42.7670522" lon="10.2371444"><ele>11.0</ele><time>2026-04-04T10:52:29.757Z</time></trkpt><trkpt lat="42.7669831" lon="10.2371125"><ele>11.0</ele><time>2026-04-04T10:52:30.757Z</time></trkpt><trkpt lat="42.7669068" lon="10.2370786"><ele>11.0</ele><time>2026-04-04T10:52:31.757Z</time></trkpt><trkpt lat="42.7668273" lon="10.2370351"><ele>11.0</ele><time>2026-04-04T10:52:32.756Z</time></trkpt><trkpt lat="42.7667403" lon="10.2369948"><ele>11.0</ele><time>2026-04-04T10:52:33.757Z</time></trkpt><trkpt lat="42.7666618" lon="10.2369615"><ele>11.0</ele><time>2026-04-04T10:52:34.756Z</time></trkpt><trkpt lat="42.7665922" lon="10.2369263"><ele>11.0</ele><time>2026-04-04T10:52:35.757Z</time></trkpt><trkpt lat="42.7665281" lon="10.2368964"><ele>11.0</ele><time>2026-04-04T10:52:36.757Z</time></trkpt><trkpt lat="42.766467" lon="10.2368672"><ele>11.0</ele><time>2026-04-04T10:52:37.757Z</time></trkpt><trkpt lat="42.7663692" lon="10.2367947"><ele>11.0</ele><time>2026-04-04T10:52:39.757Z</time></trkpt><trkpt lat="42.7663033" lon="10.2367003"><ele>11.0</ele><time>2026-04-04T10:52:41.757Z</time></trkpt><trkpt lat="42.7662485" lon="10.2366208"><ele>11.0</ele><time>2026-04-04T10:52:44.757Z</time></trkpt><trkpt lat="42.7661915" lon="10.2365827"><ele>11.0</ele><time>2026-04-04T10:54:17.757Z</time></trkpt><trkpt lat="42.7661267" lon="10.2365517"><ele>11.0</ele><time>2026-04-04T10:54:23.756Z</time></trkpt><trkpt lat="42.7660498" lon="10.2365251"><ele>11.0</ele><time>2026-04-04T10:56:42.757Z</time></trkpt><trkpt lat="42.7659718" lon="10.2365264"><ele>11.0</ele><time>2026-04-04T10:56:45.757Z</time></trkpt><trkpt lat="42.7658791" lon="10.2365699"><ele>11.0</ele><time>2026-04-04T10:56:52.757Z</time></trkpt><trkpt lat="42.7657616" lon="10.2365214"><ele>11.0</ele><time>2026-04-04T10:56:54.757Z</time></trkpt><trkpt lat="42.7656807" lon="10.2364809"><ele>11.0</ele><time>2026-04-04T10:56:55.757Z</time></trkpt><trkpt lat="42.7655899" lon="10.23644"><ele>11.0</ele><time>2026-04-04T10:56:56.757Z</time></trkpt><trkpt lat="42.7654917" lon="10.236398"><ele>11.0</ele><time>2026-04-04T10:56:57.757Z</time></trkpt><trkpt lat="42.7653904" lon="10.2363503"><ele>11.0</ele><time>2026-04-04T10:56:58.756Z</time></trkpt><trkpt lat="42.7652873" lon="10.2362997"><ele>11.0</ele><time>2026-04-04T10:56:59.756Z</time></trkpt><trkpt lat="42.7651823" lon="10.2362518"><ele>10.8</ele><time>2026-04-04T10:57:00.756Z</time></trkpt><trkpt lat="42.7650806" lon="10.2362049"><ele>10.600000000000001</ele><time>2026-04-04T10:57:01.757Z</time></trkpt><trkpt lat="42.7649814" lon="10.2361581"><ele>10.4</ele><time>2026-04-04T10:57:02.757Z</time></trkpt><trkpt lat="42.7648784" lon="10.2360987"><ele>10.2</ele><time>2026-04-04T10:57:03.757Z</time></trkpt><trkpt lat="42.7647766" lon="10.2360384"><ele>10.0</ele><time>2026-04-04T10:57:04.757Z</time></trkpt><trkpt lat="42.7646795" lon="10.2359734"><ele>10.0</ele><time>2026-04-04T10:57:05.757Z</time></trkpt><trkpt lat="42.7645834" lon="10.235902"><ele>10.0</ele><time>2026-04-04T10:57:06.757Z</time></trkpt><trkpt lat="42.7644967" lon="10.2358216"><ele>10.0</ele><time>2026-04-04T10:57:07.757Z</time></trkpt><trkpt lat="42.7644254" lon="10.2357348"><ele>10.0</ele><time>2026-04-04T10:57:08.757Z</time></trkpt><trkpt lat="42.7643591" lon="10.2356517"><ele>10.0</ele><time>2026-04-04T10:57:09.757Z</time></trkpt><trkpt lat="42.7643096" lon="10.2355572"><ele>10.166666666666668</ele><time>2026-04-04T10:57:10.756Z</time></trkpt><trkpt lat="42.7642633" lon="10.235477"><ele>10.333333333333334</ele><time>2026-04-04T10:57:11.757Z</time></trkpt><trkpt lat="42.7642107" lon="10.2354243"><ele>10.5</ele><time>2026-04-04T10:57:12.757Z</time></trkpt><trkpt lat="42.764087" lon="10.2354293"><ele>10.666666666666666</ele><time>2026-04-04T10:57:14.757Z</time></trkpt><trkpt lat="42.7640318" lon="10.2354876"><ele>10.833333333333332</ele><time>2026-04-04T10:57:15.757Z</time></trkpt><trkpt lat="42.7639807" lon="10.2355699"><ele>11.0</ele><time>2026-04-04T10:57:16.757Z</time></trkpt><trkpt lat="42.7639143" lon="10.2356582"><ele>10.5</ele><time>2026-04-04T10:57:17.757Z</time></trkpt><trkpt lat="42.7638284" lon="10.2357437"><ele>10.0</ele><time>2026-04-04T10:57:18.757Z</time></trkpt><trkpt lat="42.7637362" lon="10.2358297"><ele>9.5</ele><time>2026-04-04T10:57:19.757Z</time></trkpt><trkpt lat="42.7636318" lon="10.2359152"><ele>9.0</ele><time>2026-04-04T10:57:20.757Z</time></trkpt><trkpt lat="42.7635247" lon="10.2360054"><ele>9.0</ele><time>2026-04-04T10:57:21.757Z</time></trkpt><trkpt lat="42.7634206" lon="10.236094"><ele>9.0</ele><time>2026-04-04T10:57:22.757Z</time></trkpt><trkpt lat="42.7633113" lon="10.2361904"><ele>9.0</ele><time>2026-04-04T10:57:23.757Z</time></trkpt><trkpt lat="42.7632032" lon="10.236293"><ele>9.0</ele><time>2026-04-04T10:57:24.757Z</time></trkpt><trkpt lat="42.7630928" lon="10.2363962"><ele>8.75</ele><time>2026-04-04T10:57:25.757Z</time></trkpt><trkpt lat="42.7629777" lon="10.2364897"><ele>8.5</ele><time>2026-04-04T10:57:26.757Z</time></trkpt><trkpt lat="42.7628628" lon="10.2365936"><ele>8.25</ele><time>2026-04-04T10:57:27.757Z</time></trkpt><trkpt lat="42.7627403" lon="10.2367045"><ele>8.0</ele><time>2026-04-04T10:57:28.756Z</time></trkpt><trkpt lat="42.76262" lon="10.236813"><ele>8.5</ele><time>2026-04-04T10:57:29.757Z</time></trkpt><trkpt lat="42.7624984" lon="10.2369318"><ele>9.0</ele><time>2026-04-04T10:57:30.756Z</time></trkpt><trkpt lat="42.7623713" lon="10.237037"><ele>9.5</ele><time>2026-04-04T10:57:31.757Z</time></trkpt><trkpt lat="42.7622468" lon="10.2371445"><ele>10.0</ele><time>2026-04-04T10:57:32.757Z</time></trkpt><trkpt lat="42.7621282" lon="10.2372497"><ele>9.5</ele><time>2026-04-04T10:57:33.757Z</time></trkpt><trkpt lat="42.762005" lon="10.2373528"><ele>9.0</ele><time>2026-04-04T10:57:34.757Z</time></trkpt><trkpt lat="42.7618875" lon="10.2374664"><ele>8.5</ele><time>2026-04-04T10:57:35.757Z</time></trkpt><trkpt lat="42.7617552" lon="10.2375636"><ele>8.0</ele><time>2026-04-04T10:57:36.757Z</time></trkpt><trkpt lat="42.7616326" lon="10.2376652"><ele>7.5</ele><time>2026-04-04T10:57:37.757Z</time></trkpt><trkpt lat="42.7615086" lon="10.2377591"><ele>7.0</ele><time>2026-04-04T10:57:38.757Z</time></trkpt><trkpt lat="42.7613931" lon="10.2378431"><ele>6.5</ele><time>2026-04-04T10:57:39.757Z</time></trkpt><trkpt lat="42.7612763" lon="10.2379258"><ele>6.0</ele><time>2026-04-04T10:57:40.757Z</time></trkpt><trkpt lat="42.7611666" lon="10.2379995"><ele>6.0</ele><time>2026-04-04T10:57:41.757Z</time></trkpt><trkpt lat="42.7610566" lon="10.2380567"><ele>6.0</ele><time>2026-04-04T10:57:42.757Z</time></trkpt><trkpt lat="42.7609431" lon="10.2380847"><ele>6.0</ele><time>2026-04-04T10:57:43.757Z</time></trkpt><trkpt lat="42.7608228" lon="10.2380867"><ele>6.0</ele><time>2026-04-04T10:57:44.757Z</time></trkpt><trkpt lat="42.760695" lon="10.2380685"><ele>6.25</ele><time>2026-04-04T10:57:45.756Z</time></trkpt><trkpt lat="42.7605651" lon="10.2380328"><ele>6.5</ele><time>2026-04-04T10:57:46.757Z</time></trkpt><trkpt lat="42.7604276" lon="10.2380095"><ele>6.75</ele><time>2026-04-04T10:57:47.757Z</time></trkpt><trkpt lat="42.7602911" lon="10.2379856"><ele>7.0</ele><time>2026-04-04T10:57:48.757Z</time></trkpt><trkpt lat="42.7601625" lon="10.2379842"><ele>6.5</ele><time>2026-04-04T10:57:49.757Z</time></trkpt><trkpt lat="42.7600431" lon="10.2380164"><ele>6.0</ele><time>2026-04-04T10:57:50.757Z</time></trkpt><trkpt lat="42.7599262" lon="10.2380706"><ele>5.5</ele><time>2026-04-04T10:57:51.757Z</time></trkpt><trkpt lat="42.7597976" lon="10.2381463"><ele>5.0</ele><time>2026-04-04T10:57:52.757Z</time></trkpt><trkpt lat="42.7596689" lon="10.2382218"><ele>5.0</ele><time>2026-04-04T10:57:53.757Z</time></trkpt><trkpt lat="42.7595342" lon="10.2382959"><ele>5.0</ele><time>2026-04-04T10:57:54.756Z</time></trkpt><trkpt lat="42.7594039" lon="10.2383736"><ele>5.0</ele><time>2026-04-04T10:57:55.757Z</time></trkpt><trkpt lat="42.759268" lon="10.2384551"><ele>5.0</ele><time>2026-04-04T10:57:56.757Z</time></trkpt><trkpt lat="42.7591256" lon="10.2385375"><ele>5.0</ele><time>2026-04-04T10:57:57.757Z</time></trkpt><trkpt lat="42.7589841" lon="10.2386281"><ele>5.0</ele><time>2026-04-04T10:57:58.757Z</time></trkpt><trkpt lat="42.7588459" lon="10.2387115"><ele>5.0</ele><time>2026-04-04T10:57:59.757Z</time></trkpt><trkpt lat="42.7587065" lon="10.2388273"><ele>5.0</ele><time>2026-04-04T10:58:00.757Z</time></trkpt><trkpt lat="42.7585725" lon="10.238968"><ele>5.0</ele><time>2026-04-04T10:58:01.757Z</time></trkpt><trkpt lat="42.7584467" lon="10.2391171"><ele>5.0</ele><time>2026-04-04T10:58:02.756Z</time></trkpt><trkpt lat="42.758318" lon="10.2392665"><ele>5.0</ele><time>2026-04-04T10:58:03.757Z</time></trkpt><trkpt lat="42.7581922" lon="10.2394193"><ele>5.0</ele><time>2026-04-04T10:58:04.757Z</time></trkpt><trkpt lat="42.7580649" lon="10.239564"><ele>5.0</ele><time>2026-04-04T10:58:05.757Z</time></trkpt><trkpt lat="42.7579273" lon="10.2396944"><ele>4.333333333333334</ele><time>2026-04-04T10:58:06.757Z</time></trkpt><trkpt lat="42.757788" lon="10.2398174"><ele>3.666666666666667</ele><time>2026-04-04T10:58:07.757Z</time></trkpt><trkpt lat="42.757647" lon="10.2399352"><ele>3.0</ele><time>2026-04-04T10:58:08.757Z</time></trkpt><trkpt lat="42.7575072" lon="10.2400554"><ele>3.0</ele><time>2026-04-04T10:58:09.757Z</time></trkpt><trkpt lat="42.7573656" lon="10.2401641"><ele>3.0</ele><time>2026-04-04T10:58:10.757Z</time></trkpt><trkpt lat="42.7572233" lon="10.2402778"><ele>3.0</ele><time>2026-04-04T10:58:11.757Z</time></trkpt><trkpt lat="42.7570867" lon="10.2403883"><ele>3.0</ele><time>2026-04-04T10:58:12.756Z</time></trkpt><trkpt lat="42.7569597" lon="10.2404902"><ele>3.0</ele><time>2026-04-04T10:58:13.757Z</time></trkpt><trkpt lat="42.7568564" lon="10.2405766"><ele>3.0</ele><time>2026-04-04T10:58:14.757Z</time></trkpt><trkpt lat="42.7567751" lon="10.2406492"><ele>3.0</ele><time>2026-04-04T10:58:15.757Z</time></trkpt><trkpt lat="42.7566927" lon="10.2406988"><ele>2.6</ele><time>2026-04-04T10:58:16.756Z</time></trkpt><trkpt lat="42.7566059" lon="10.2407137"><ele>2.1999999999999997</ele><time>2026-04-04T10:58:17.757Z</time></trkpt><trkpt lat="42.756523" lon="10.2406865"><ele>1.8</ele><time>2026-04-04T10:58:18.757Z</time></trkpt><trkpt lat="42.7564392" lon="10.2406088"><ele>1.4</ele><time>2026-04-04T10:58:19.757Z</time></trkpt><trkpt lat="42.756363" lon="10.2404833"><ele>1.0</ele><time>2026-04-04T10:58:20.757Z</time></trkpt><trkpt lat="42.7562937" lon="10.2403223"><ele>1.0</ele><time>2026-04-04T10:58:21.757Z</time></trkpt><trkpt lat="42.7562189" lon="10.2401679"><ele>1.0</ele><time>2026-04-04T10:58:22.757Z</time></trkpt><trkpt lat="42.7561321" lon="10.2400294"><ele>1.0</ele><time>2026-04-04T10:58:23.757Z</time></trkpt><trkpt lat="42.7560313" lon="10.239907"><ele>1.0</ele><time>2026-04-04T10:58:24.757Z</time></trkpt><trkpt lat="42.7559246" lon="10.2397979"><ele>0.5</ele><time>2026-04-04T10:58:25.757Z</time></trkpt><trkpt lat="42.7558185" lon="10.239682"><ele>0.0</ele><time>2026-04-04T10:58:26.757Z</time></trkpt><trkpt lat="42.7557185" lon="10.2395538"><ele>-0.5</ele><time>2026-04-04T10:58:27.757Z</time></trkpt><trkpt lat="42.7556281" lon="10.2394281"><ele>-1.0</ele><time>2026-04-04T10:58:28.757Z</time></trkpt><trkpt lat="42.7555412" lon="10.2393203"><ele>-1.0</ele><time>2026-04-04T10:58:29.757Z</time></trkpt><trkpt lat="42.755462" lon="10.2392145"><ele>-1.0</ele><time>2026-04-04T10:58:30.757Z</time></trkpt><trkpt lat="42.7553909" lon="10.2391181"><ele>-1.0</ele><time>2026-04-04T10:58:31.757Z</time></trkpt><trkpt lat="42.7553212" lon="10.2390363"><ele>-1.0</ele><time>2026-04-04T10:58:32.757Z</time></trkpt><trkpt lat="42.755261" lon="10.2389491"><ele>-1.0</ele><time>2026-04-04T10:58:33.757Z</time></trkpt><trkpt lat="42.7552191" lon="10.2388622"><ele>-0.20000000000000007</ele><time>2026-04-04T10:58:34.757Z</time></trkpt><trkpt lat="42.7551509" lon="10.2387487"><ele>0.5999999999999999</ele><time>2026-04-04T10:58:36.757Z</time></trkpt><trkpt lat="42.7550896" lon="10.2386324"><ele>1.4</ele><time>2026-04-04T10:58:38.757Z</time></trkpt><trkpt lat="42.7550588" lon="10.2384783"><ele>2.1999999999999997</ele><time>2026-04-04T10:58:40.756Z</time></trkpt><trkpt lat="42.7550389" lon="10.2383769"><ele>3.0</ele><time>2026-04-04T10:58:41.757Z</time></trkpt><trkpt lat="42.7550089" lon="10.238279"><ele>3.0</ele><time>2026-04-04T10:58:42.757Z</time></trkpt><trkpt lat="42.7549637" lon="10.2381821"><ele>3.0</ele><time>2026-04-04T10:58:43.757Z</time></trkpt><trkpt lat="42.7549169" lon="10.2380929"><ele>3.0</ele><time>2026-04-04T10:58:44.756Z</time></trkpt><trkpt lat="42.7548761" lon="10.2379949"><ele>3.0</ele><time>2026-04-04T10:58:45.757Z</time></trkpt><trkpt lat="42.7548474" lon="10.2379003"><ele>3.0</ele><time>2026-04-04T10:58:46.757Z</time></trkpt><trkpt lat="42.7548154" lon="10.2377908"><ele>3.0</ele><time>2026-04-04T10:58:47.757Z</time></trkpt><trkpt lat="42.7547836" lon="10.2376844"><ele>3.3333333333333335</ele><time>2026-04-04T10:58:48.757Z</time></trkpt><trkpt lat="42.7547607" lon="10.2375694"><ele>3.666666666666667</ele><time>2026-04-04T10:58:49.757Z</time></trkpt><trkpt lat="42.7547387" lon="10.2374673"><ele>4.0</ele><time>2026-04-04T10:58:50.757Z</time></trkpt><trkpt lat="42.7547038" lon="10.237371"><ele>4.333333333333334</ele><time>2026-04-04T10:58:51.757Z</time></trkpt><trkpt lat="42.7546652" lon="10.2372627"><ele>4.666666666666667</ele><time>2026-04-04T10:58:52.757Z</time></trkpt><trkpt lat="42.7546297" lon="10.2371591"><ele>5.0</ele><time>2026-04-04T10:58:53.757Z</time></trkpt><trkpt lat="42.7545886" lon="10.2370432"><ele>5.0</ele><time>2026-04-04T10:58:54.757Z</time></trkpt><trkpt lat="42.7545509" lon="10.2369293"><ele>5.0</ele><time>2026-04-04T10:58:55.757Z</time></trkpt><trkpt lat="42.7545138" lon="10.2368115"><ele>5.0</ele><time>2026-04-04T10:58:56.756Z</time></trkpt><trkpt lat="42.7544771" lon="10.2366888"><ele>5.0</ele><time>2026-04-04T10:58:57.757Z</time></trkpt><trkpt lat="42.7544388" lon="10.2365746"><ele>5.0</ele><time>2026-04-04T10:58:58.757Z</time></trkpt><trkpt lat="42.7544022" lon="10.2364546"><ele>4.4</ele><time>2026-04-04T10:58:59.756Z</time></trkpt><trkpt lat="42.754365" lon="10.2363434"><ele>3.8</ele><time>2026-04-04T10:59:00.757Z</time></trkpt><trkpt lat="42.7543201" lon="10.2362183"><ele>3.2</ele><time>2026-04-04T10:59:01.756Z</time></trkpt><trkpt lat="42.75428" lon="10.236088"><ele>2.6</ele><time>2026-04-04T10:59:02.757Z</time></trkpt><trkpt lat="42.7542254" lon="10.2359412"><ele>2.0</ele><time>2026-04-04T10:59:03.757Z</time></trkpt><trkpt lat="42.75417" lon="10.2357943"><ele>2.0</ele><time>2026-04-04T10:59:04.757Z</time></trkpt><trkpt lat="42.7541172" lon="10.2356506"><ele>2.0</ele><time>2026-04-04T10:59:05.757Z</time></trkpt><trkpt lat="42.7540539" lon="10.2355124"><ele>2.0</ele><time>2026-04-04T10:59:06.757Z</time></trkpt><trkpt lat="42.7539833" lon="10.2353834"><ele>2.0</ele><time>2026-04-04T10:59:07.756Z</time></trkpt><trkpt lat="42.7539151" lon="10.2352853"><ele>2.0</ele><time>2026-04-04T10:59:08.757Z</time></trkpt><trkpt lat="42.753842" lon="10.2352037"><ele>2.0</ele><time>2026-04-04T10:59:09.757Z</time></trkpt><trkpt lat="42.7537743" lon="10.2351281"><ele>2.0</ele><time>2026-04-04T10:59:10.757Z</time></trkpt><trkpt lat="42.7536959" lon="10.2350635"><ele>2.0</ele><time>2026-04-04T10:59:11.757Z</time></trkpt><trkpt lat="42.7536177" lon="10.2349944"><ele>2.0</ele><time>2026-04-04T10:59:12.756Z</time></trkpt><trkpt lat="42.7535225" lon="10.2349356"><ele>2.0</ele><time>2026-04-04T10:59:13.757Z</time></trkpt><trkpt lat="42.7534281" lon="10.2348799"><ele>2.0</ele><time>2026-04-04T10:59:14.756Z</time></trkpt><trkpt lat="42.753325" lon="10.2348399"><ele>2.0</ele><time>2026-04-04T10:59:15.756Z</time></trkpt><trkpt lat="42.7532148" lon="10.2348091"><ele>2.0</ele><time>2026-04-04T10:59:16.757Z</time></trkpt><trkpt lat="42.753107" lon="10.2347906"><ele>2.0</ele><time>2026-04-04T10:59:17.756Z</time></trkpt><trkpt lat="42.7530011" lon="10.2347729"><ele>2.2</ele><time>2026-04-04T10:59:18.756Z</time></trkpt><trkpt lat="42.7529119" lon="10.2347621"><ele>2.4000000000000004</ele><time>2026-04-04T10:59:19.757Z</time></trkpt><trkpt lat="42.7528261" lon="10.2347453"><ele>2.5999999999999996</ele><time>2026-04-04T10:59:20.757Z</time></trkpt><trkpt lat="42.7527374" lon="10.2347331"><ele>2.8</ele><time>2026-04-04T10:59:21.756Z</time></trkpt><trkpt lat="42.7526421" lon="10.234717"><ele>3.0</ele><time>2026-04-04T10:59:22.757Z</time></trkpt><trkpt lat="42.7525415" lon="10.2346981"><ele>3.2</ele><time>2026-04-04T10:59:23.757Z</time></trkpt><trkpt lat="42.7524368" lon="10.2346848"><ele>3.4</ele><time>2026-04-04T10:59:24.757Z</time></trkpt><trkpt lat="42.7523318" lon="10.2346655"><ele>3.6000000000000005</ele><time>2026-04-04T10:59:25.757Z</time></trkpt><trkpt lat="42.7522209" lon="10.2346532"><ele>3.8000000000000003</ele><time>2026-04-04T10:59:26.757Z</time></trkpt><trkpt lat="42.752107" lon="10.2346371"><ele>4.0</ele><time>2026-04-04T10:59:27.757Z</time></trkpt><trkpt lat="42.7520003" lon="10.2346262"><ele>4.0</ele><time>2026-04-04T10:59:28.757Z</time></trkpt><trkpt lat="42.7518976" lon="10.2346128"><ele>4.0</ele><time>2026-04-04T10:59:29.756Z</time></trkpt><trkpt lat="42.7517997" lon="10.2345965"><ele>4.0</ele><time>2026-04-04T10:59:30.757Z</time></trkpt><trkpt lat="42.7517056" lon="10.2345819"><ele>4.0</ele><time>2026-04-04T10:59:31.757Z</time></trkpt><trkpt lat="42.7516126" lon="10.2345733"><ele>4.0</ele><time>2026-04-04T10:59:32.756Z</time></trkpt><trkpt lat="42.7515154" lon="10.2345593"><ele>3.8000000000000003</ele><time>2026-04-04T10:59:33.756Z</time></trkpt><trkpt lat="42.7514205" lon="10.2345476"><ele>3.6000000000000005</ele><time>2026-04-04T10:59:34.757Z</time></trkpt><trkpt lat="42.7513197" lon="10.2345339"><ele>3.4</ele><time>2026-04-04T10:59:35.757Z</time></trkpt><trkpt lat="42.7512277" lon="10.2345137"><ele>3.2</ele><time>2026-04-04T10:59:36.757Z</time></trkpt><trkpt lat="42.751124" lon="10.2344984"><ele>3.0</ele><time>2026-04-04T10:59:37.756Z</time></trkpt><trkpt lat="42.7510168" lon="10.2344831"><ele>3.4</ele><time>2026-04-04T10:59:38.757Z</time></trkpt><trkpt lat="42.7509081" lon="10.2344555"><ele>3.8</ele><time>2026-04-04T10:59:39.757Z</time></trkpt><trkpt lat="42.7508105" lon="10.2344448"><ele>4.2</ele><time>2026-04-04T10:59:40.757Z</time></trkpt><trkpt lat="42.750718" lon="10.2344528"><ele>4.6</ele><time>2026-04-04T10:59:41.757Z</time></trkpt><trkpt lat="42.750634" lon="10.2344576"><ele>5.0</ele><time>2026-04-04T10:59:42.757Z</time></trkpt><trkpt lat="42.7505536" lon="10.2344722"><ele>5.0</ele><time>2026-04-04T10:59:43.757Z</time></trkpt><trkpt lat="42.7504708" lon="10.2344897"><ele>5.0</ele><time>2026-04-04T10:59:44.757Z</time></trkpt><trkpt lat="42.7503901" lon="10.2345126"><ele>5.0</ele><time>2026-04-04T10:59:45.757Z</time></trkpt><trkpt lat="42.7503111" lon="10.2345319"><ele>5.0</ele><time>2026-04-04T10:59:46.757Z</time></trkpt><trkpt lat="42.7502239" lon="10.234552"><ele>5.0</ele><time>2026-04-04T10:59:47.757Z</time></trkpt><trkpt lat="42.7501259" lon="10.2345744"><ele>5.0</ele><time>2026-04-04T10:59:48.757Z</time></trkpt><trkpt lat="42.7500243" lon="10.2345988"><ele>5.8</ele><time>2026-04-04T10:59:49.757Z</time></trkpt><trkpt lat="42.7499204" lon="10.2346234"><ele>6.6</ele><time>2026-04-04T10:59:50.757Z</time></trkpt><trkpt lat="42.7498105" lon="10.2346568"><ele>7.4</ele><time>2026-04-04T10:59:51.756Z</time></trkpt><trkpt lat="42.749703" lon="10.2346849"><ele>8.2</ele><time>2026-04-04T10:59:52.757Z</time></trkpt><trkpt lat="42.7496024" lon="10.2347109"><ele>9.0</ele><time>2026-04-04T10:59:53.757Z</time></trkpt><trkpt lat="42.7495037" lon="10.2347315"><ele>9.0</ele><time>2026-04-04T10:59:54.757Z</time></trkpt><trkpt lat="42.7494053" lon="10.2347598"><ele>9.0</ele><time>2026-04-04T10:59:55.756Z</time></trkpt><trkpt lat="42.7493123" lon="10.2347852"><ele>9.0</ele><time>2026-04-04T10:59:56.756Z</time></trkpt><trkpt lat="42.7492141" lon="10.2348051"><ele>9.0</ele><time>2026-04-04T10:59:57.757Z</time></trkpt><trkpt lat="42.7491183" lon="10.2348314"><ele>9.0</ele><time>2026-04-04T10:59:58.757Z</time></trkpt><trkpt lat="42.7490101" lon="10.2348541"><ele>8.0</ele><time>2026-04-04T10:59:59.757Z</time></trkpt><trkpt lat="42.748905" lon="10.2348799"><ele>7.0</ele><time>2026-04-04T11:00:00.756Z</time></trkpt><trkpt lat="42.7487984" lon="10.2349104"><ele>6.0</ele><time>2026-04-04T11:00:01.757Z</time></trkpt><trkpt lat="42.7486933" lon="10.2349353"><ele>5.0</ele><time>2026-04-04T11:00:02.757Z</time></trkpt><trkpt lat="42.7485891" lon="10.2349552"><ele>4.0</ele><time>2026-04-04T11:00:03.756Z</time></trkpt><trkpt lat="42.748486" lon="10.2349585"><ele>4.0</ele><time>2026-04-04T11:00:04.757Z</time></trkpt><trkpt lat="42.7483793" lon="10.2349583"><ele>4.0</ele><time>2026-04-04T11:00:05.757Z</time></trkpt><trkpt lat="42.7482806" lon="10.2349319"><ele>4.0</ele><time>2026-04-04T11:00:06.757Z</time></trkpt><trkpt lat="42.7481932" lon="10.2348817"><ele>4.0</ele><time>2026-04-04T11:00:07.757Z</time></trkpt><trkpt lat="42.7480965" lon="10.2348325"><ele>4.0</ele><time>2026-04-04T11:00:08.756Z</time></trkpt><trkpt lat="42.7480047" lon="10.234788"><ele>4.2</ele><time>2026-04-04T11:00:09.757Z</time></trkpt><trkpt lat="42.7479127" lon="10.2347386"><ele>4.4</ele><time>2026-04-04T11:00:10.757Z</time></trkpt><trkpt lat="42.7478271" lon="10.2346828"><ele>4.6</ele><time>2026-04-04T11:00:11.757Z</time></trkpt><trkpt lat="42.747739" lon="10.2346368"><ele>4.8</ele><time>2026-04-04T11:00:12.757Z</time></trkpt><trkpt lat="42.7476537" lon="10.234594"><ele>5.0</ele><time>2026-04-04T11:00:13.757Z</time></trkpt><trkpt lat="42.7475843" lon="10.2345367"><ele>4.666666666666667</ele><time>2026-04-04T11:00:14.757Z</time></trkpt><trkpt lat="42.7475036" lon="10.234502"><ele>4.333333333333334</ele><time>2026-04-04T11:00:15.757Z</time></trkpt><trkpt lat="42.7474384" lon="10.2344645"><ele>4.0</ele><time>2026-04-04T11:00:16.757Z</time></trkpt><trkpt lat="42.7473272" lon="10.2344143"><ele>3.666666666666667</ele><time>2026-04-04T11:00:18.756Z</time></trkpt><trkpt lat="42.7472623" lon="10.2343852"><ele>3.3333333333333335</ele><time>2026-04-04T11:00:19.757Z</time></trkpt><trkpt lat="42.7471915" lon="10.2343552"><ele>3.0</ele><time>2026-04-04T11:00:20.756Z</time></trkpt><trkpt lat="42.7471205" lon="10.2343191"><ele>3.0</ele><time>2026-04-04T11:00:21.757Z</time></trkpt><trkpt lat="42.7470545" lon="10.2342821"><ele>3.0</ele><time>2026-04-04T11:00:22.757Z</time></trkpt><trkpt lat="42.7469841" lon="10.2342495"><ele>3.0</ele><time>2026-04-04T11:00:23.757Z</time></trkpt><trkpt lat="42.7469157" lon="10.2342146"><ele>3.0</ele><time>2026-04-04T11:00:24.756Z</time></trkpt><trkpt lat="42.7468572" lon="10.2341817"><ele>3.0</ele><time>2026-04-04T11:00:25.756Z</time></trkpt><trkpt lat="42.7467495" lon="10.2341303"><ele>3.0</ele><time>2026-04-04T11:00:27.757Z</time></trkpt><trkpt lat="42.7466453" lon="10.2340673"><ele>3.0</ele><time>2026-04-04T11:00:29.757Z</time></trkpt><trkpt lat="42.7465689" lon="10.233965"><ele>3.0</ele><time>2026-04-04T11:00:31.757Z</time></trkpt><trkpt lat="42.7465488" lon="10.2338613"><ele>3.0</ele><time>2026-04-04T11:00:33.757Z</time></trkpt><trkpt lat="42.746592" lon="10.2337655"><ele>3.0</ele><time>2026-04-04T11:00:35.756Z</time></trkpt><trkpt lat="42.746641" lon="10.2336834"><ele>3.0</ele><time>2026-04-04T11:00:37.757Z</time></trkpt><trkpt lat="42.7466818" lon="10.2336121"><ele>3.0</ele><time>2026-04-04T11:00:40.757Z</time></trkpt><trkpt lat="42.746742" lon="10.233581"><ele>3.0</ele><time>2026-04-04T11:00:43.757Z</time></trkpt><trkpt lat="42.7466985" lon="10.2335145"><ele>3.0</ele><time>2026-04-04T11:01:35.757Z</time></trkpt><trkpt lat="42.746711" lon="10.2333995"><ele>3.0</ele><time>2026-04-04T11:01:37.757Z</time></trkpt><trkpt lat="42.7467192" lon="10.2332264"><ele>3.0</ele><time>2026-04-04T11:01:39.757Z</time></trkpt><trkpt lat="42.7467209" lon="10.2331196"><ele>3.0</ele><time>2026-04-04T11:01:40.757Z</time></trkpt><trkpt lat="42.746719" lon="10.233008"><ele>3.0</ele><time>2026-04-04T11:01:41.757Z</time></trkpt><trkpt lat="42.7467038" lon="10.2328985"><ele>2.8571428571428568</ele><time>2026-04-04T11:01:42.756Z</time></trkpt><trkpt lat="42.7466719" lon="10.2327941"><ele>2.7142857142857144</ele><time>2026-04-04T11:01:43.757Z</time></trkpt><trkpt lat="42.746634" lon="10.2327006"><ele>2.571428571428571</ele><time>2026-04-04T11:01:44.757Z</time></trkpt><trkpt lat="42.7465966" lon="10.2326289"><ele>2.4285714285714284</ele><time>2026-04-04T11:01:45.757Z</time></trkpt><trkpt lat="42.7465516" lon="10.2325493"><ele>2.2857142857142856</ele><time>2026-04-04T11:01:46.757Z</time></trkpt><trkpt lat="42.7465146" lon="10.2324688"><ele>2.142857142857143</ele><time>2026-04-04T11:01:47.757Z</time></trkpt><trkpt lat="42.7464705" lon="10.2323904"><ele>2.0</ele><time>2026-04-04T11:01:48.756Z</time></trkpt><trkpt lat="42.7464303" lon="10.2323171"><ele>2.0</ele><time>2026-04-04T11:01:49.757Z</time></trkpt><trkpt lat="42.7463853" lon="10.2322467"><ele>2.0</ele><time>2026-04-04T11:01:50.757Z</time></trkpt><trkpt lat="42.746291" lon="10.2321376"><ele>2.0</ele><time>2026-04-04T11:01:52.757Z</time></trkpt><trkpt lat="42.7461828" lon="10.2321151"><ele>2.0</ele><time>2026-04-04T11:01:54.757Z</time></trkpt><trkpt lat="42.7460916" lon="10.2321156"><ele>2.0</ele><time>2026-04-04T11:01:56.757Z</time></trkpt><trkpt lat="42.7460149" lon="10.2321275"><ele>1.9999999999999998</ele><time>2026-04-04T11:01:58.757Z</time></trkpt><trkpt lat="42.7459358" lon="10.2321257"><ele>2.0</ele><time>2026-04-04T11:02:00.757Z</time></trkpt><trkpt lat="42.745851" lon="10.2321329"><ele>2.0</ele><time>2026-04-04T11:02:02.757Z</time></trkpt><trkpt lat="42.745812" lon="10.2322085"><ele>2.0</ele><time>2026-04-04T11:02:04.757Z</time></trkpt><trkpt lat="42.7458196" lon="10.2323353"><ele>1.9999999999999998</ele><time>2026-04-04T11:02:06.757Z</time></trkpt><trkpt lat="42.7458376" lon="10.2324669"><ele>2.0</ele><time>2026-04-04T11:02:08.757Z</time></trkpt><trkpt lat="42.7458371" lon="10.2326094"><ele>1.9999999999999998</ele><time>2026-04-04T11:02:10.757Z</time></trkpt><trkpt lat="42.745843" lon="10.2327411"><ele>2.0</ele><time>2026-04-04T11:02:12.757Z</time></trkpt><trkpt lat="42.7458481" lon="10.2328576"><ele>2.0</ele><time>2026-04-04T11:02:14.757Z</time></trkpt><trkpt lat="42.7458543" lon="10.2329644"><ele>2.0</ele><time>2026-04-04T11:02:16.757Z</time></trkpt><trkpt lat="42.7458754" lon="10.2330819"><ele>1.9999999999999998</ele><time>2026-04-04T11:02:19.757Z</time></trkpt><trkpt lat="42.7458956" lon="10.2331729"><ele>2.0</ele><time>2026-04-04T11:02:21.757Z</time></trkpt><trkpt lat="42.7459756" lon="10.2332118"><ele>2.0</ele><time>2026-04-04T11:02:24.757Z</time></trkpt><trkpt lat="42.746036" lon="10.2331789"><ele>1.9999999999999998</ele><time>2026-04-04T11:02:26.756Z</time></trkpt><trkpt lat="42.7461251" lon="10.2331545"><ele>2.0</ele><time>2026-04-04T11:02:29.756Z</time></trkpt><trkpt lat="42.7461942" lon="10.2331446"><ele>2.0</ele><time>2026-04-04T11:02:31.757Z</time></trkpt><trkpt lat="42.746266" lon="10.2331383"><ele>1.9999999999999998</ele><time>2026-04-04T11:02:33.757Z</time></trkpt><trkpt lat="42.7463394" lon="10.2331395"><ele>2.0</ele><time>2026-04-04T11:02:35.757Z</time></trkpt><trkpt lat="42.7464104" lon="10.2331089"><ele>2.0</ele><time>2026-04-04T11:02:37.757Z</time></trkpt><trkpt lat="42.7464199" lon="10.2329734"><ele>2.0</ele><time>2026-04-04T11:02:39.757Z</time></trkpt><trkpt lat="42.7464165" lon="10.2328756"><ele>1.9999999999999998</ele><time>2026-04-04T11:02:41.757Z</time></trkpt><trkpt lat="42.746356" lon="10.2328253"><ele>2.0</ele><time>2026-04-04T11:02:43.756Z</time></trkpt><trkpt lat="42.7462829" lon="10.2328203"><ele>2.0</ele><time>2026-04-04T11:02:45.756Z</time></trkpt><trkpt lat="42.7462076" lon="10.2328236"><ele>1.9999999999999998</ele><time>2026-04-04T11:02:47.757Z</time></trkpt><trkpt lat="42.7461287" lon="10.2328232"><ele>2.0</ele><time>2026-04-04T11:02:49.757Z</time></trkpt><trkpt lat="42.7460627" lon="10.2328203"><ele>2.0</ele><time>2026-04-04T11:02:51.756Z</time></trkpt><trkpt lat="42.7459992" lon="10.2328648"><ele>2.0</ele><time>2026-04-04T11:02:55.756Z</time></trkpt></trkseg><trkseg><trkpt lat="42.7459423" lon="10.2330287"><ele>1.9999999999999998</ele><time>2026-04-04T11:56:59.758Z</time></trkpt><trkpt lat="42.7459305" lon="10.2331256"><ele>2.0</ele><time>2026-04-04T11:57:01.758Z</time></trkpt><trkpt lat="42.7458811" lon="10.2332571"><ele>2.0</ele><time>2026-04-04T11:57:15.743Z</time></trkpt><trkpt lat="42.7458731" lon="10.2333849"><ele>2.0</ele><time>2026-04-04T11:57:16.744Z</time></trkpt><trkpt lat="42.7458684" lon="10.2334893"><ele>1.9999999999999998</ele><time>2026-04-04T11:57:17.744Z</time></trkpt><trkpt lat="42.745873" lon="10.2335787"><ele>2.0</ele><time>2026-04-04T11:57:18.744Z</time></trkpt><trkpt lat="42.7458714" lon="10.233712"><ele>2.2</ele><time>2026-04-04T11:57:20.743Z</time></trkpt><trkpt lat="42.7458709" lon="10.233828"><ele>2.4000000000000004</ele><time>2026-04-04T11:57:22.744Z</time></trkpt><trkpt lat="42.7459039" lon="10.2339244"><ele>2.5999999999999996</ele><time>2026-04-04T11:57:24.744Z</time></trkpt><trkpt lat="42.7459918" lon="10.23396"><ele>2.8</ele><time>2026-04-04T11:57:26.744Z</time></trkpt><trkpt lat="42.7461212" lon="10.2339498"><ele>3.0</ele><time>2026-04-04T11:57:28.743Z</time></trkpt><trkpt lat="42.7461895" lon="10.2339611"><ele>3.0</ele><time>2026-04-04T11:57:29.744Z</time></trkpt><trkpt lat="42.7462662" lon="10.2339707"><ele>3.0</ele><time>2026-04-04T11:57:30.743Z</time></trkpt><trkpt lat="42.7463524" lon="10.2339912"><ele>3.0</ele><time>2026-04-04T11:57:31.744Z</time></trkpt><trkpt lat="42.7464464" lon="10.2340217"><ele>3.0</ele><time>2026-04-04T11:57:32.743Z</time></trkpt><trkpt lat="42.7465434" lon="10.2340582"><ele>3.0</ele><time>2026-04-04T11:57:33.744Z</time></trkpt><trkpt lat="42.746635" lon="10.2341064"><ele>3.0</ele><time>2026-04-04T11:57:34.744Z</time></trkpt><trkpt lat="42.7467147" lon="10.2341419"><ele>3.0</ele><time>2026-04-04T11:57:35.744Z</time></trkpt><trkpt lat="42.7467849" lon="10.23418"><ele>3.0</ele><time>2026-04-04T11:57:36.744Z</time></trkpt><trkpt lat="42.7468541" lon="10.2342155"><ele>3.0</ele><time>2026-04-04T11:57:37.744Z</time></trkpt><trkpt lat="42.7469253" lon="10.2342528"><ele>3.0</ele><time>2026-04-04T11:57:38.744Z</time></trkpt><trkpt lat="42.746997" lon="10.234287"><ele>3.0</ele><time>2026-04-04T11:57:39.744Z</time></trkpt><trkpt lat="42.7470669" lon="10.234323"><ele>3.0</ele><time>2026-04-04T11:57:40.744Z</time></trkpt><trkpt lat="42.7471294" lon="10.2343556"><ele>3.0</ele><time>2026-04-04T11:57:41.744Z</time></trkpt><trkpt lat="42.7471906" lon="10.2343839"><ele>3.0</ele><time>2026-04-04T11:57:42.744Z</time></trkpt><trkpt lat="42.7472567" lon="10.2344141"><ele>3.0</ele><time>2026-04-04T11:57:43.743Z</time></trkpt><trkpt lat="42.7473335" lon="10.2344485"><ele>3.0</ele><time>2026-04-04T11:57:44.743Z</time></trkpt><trkpt lat="42.7474246" lon="10.2344985"><ele>3.0</ele><time>2026-04-04T11:57:45.744Z</time></trkpt><trkpt lat="42.7475274" lon="10.2345515"><ele>3.0</ele><time>2026-04-04T11:57:46.743Z</time></trkpt><trkpt lat="42.74764" lon="10.2346105"><ele>3.0</ele><time>2026-04-04T11:57:47.744Z</time></trkpt><trkpt lat="42.7477452" lon="10.2346651"><ele>3.0</ele><time>2026-04-04T11:57:48.744Z</time></trkpt><trkpt lat="42.7478357" lon="10.2347164"><ele>3.0</ele><time>2026-04-04T11:57:49.744Z</time></trkpt><trkpt lat="42.7479209" lon="10.2347677"><ele>3.0</ele><time>2026-04-04T11:57:50.744Z</time></trkpt><trkpt lat="42.7480057" lon="10.2348194"><ele>3.1666666666666665</ele><time>2026-04-04T11:57:51.744Z</time></trkpt><trkpt lat="42.7480902" lon="10.2348678"><ele>3.333333333333333</ele><time>2026-04-04T11:57:52.744Z</time></trkpt><trkpt lat="42.7481727" lon="10.234911"><ele>3.5</ele><time>2026-04-04T11:57:53.744Z</time></trkpt><trkpt lat="42.7482466" lon="10.2349504"><ele>3.6666666666666665</ele><time>2026-04-04T11:57:54.743Z</time></trkpt><trkpt lat="42.7483217" lon="10.2349863"><ele>3.833333333333333</ele><time>2026-04-04T11:57:55.743Z</time></trkpt><trkpt lat="42.7483991" lon="10.2350185"><ele>4.0</ele><time>2026-04-04T11:57:56.744Z</time></trkpt><trkpt lat="42.7484743" lon="10.2350566"><ele>3.9999999999999996</ele><time>2026-04-04T11:57:57.744Z</time></trkpt><trkpt lat="42.7485482" lon="10.2351035"><ele>4.0</ele><time>2026-04-04T11:57:58.744Z</time></trkpt><trkpt lat="42.7486229" lon="10.2351531"><ele>4.0</ele><time>2026-04-04T11:57:59.744Z</time></trkpt><trkpt lat="42.7486995" lon="10.2352097"><ele>4.0</ele><time>2026-04-04T11:58:00.744Z</time></trkpt><trkpt lat="42.7487728" lon="10.2352614"><ele>3.9999999999999996</ele><time>2026-04-04T11:58:01.744Z</time></trkpt><trkpt lat="42.7488379" lon="10.2353245"><ele>4.0</ele><time>2026-04-04T11:58:02.744Z</time></trkpt><trkpt lat="42.7489009" lon="10.2354048"><ele>3.9999999999999996</ele><time>2026-04-04T11:58:03.744Z</time></trkpt><trkpt lat="42.7489641" lon="10.2354867"><ele>4.0</ele><time>2026-04-04T11:58:04.744Z</time></trkpt><trkpt lat="42.7490262" lon="10.2355699"><ele>4.0</ele><time>2026-04-04T11:58:05.744Z</time></trkpt><trkpt lat="42.7490808" lon="10.2356462"><ele>4.0</ele><time>2026-04-04T11:58:06.744Z</time></trkpt><trkpt lat="42.7491329" lon="10.2357154"><ele>3.9999999999999996</ele><time>2026-04-04T11:58:07.743Z</time></trkpt><trkpt lat="42.7491815" lon="10.2357882"><ele>4.0</ele><time>2026-04-04T11:58:08.744Z</time></trkpt><trkpt lat="42.7492313" lon="10.2358627"><ele>3.9999999999999996</ele><time>2026-04-04T11:58:09.744Z</time></trkpt><trkpt lat="42.7492888" lon="10.2359409"><ele>4.0</ele><time>2026-04-04T11:58:10.744Z</time></trkpt><trkpt lat="42.7493475" lon="10.2360217"><ele>4.0</ele><time>2026-04-04T11:58:11.744Z</time></trkpt><trkpt lat="42.7494083" lon="10.2361096"><ele>4.0</ele><time>2026-04-04T11:58:12.744Z</time></trkpt><trkpt lat="42.7494625" lon="10.2361901"><ele>3.9999999999999996</ele><time>2026-04-04T11:58:13.744Z</time></trkpt><trkpt lat="42.7495117" lon="10.2362574"><ele>4.0</ele><time>2026-04-04T11:58:14.743Z</time></trkpt><trkpt lat="42.7495561" lon="10.2363338"><ele>3.9999999999999996</ele><time>2026-04-04T11:58:15.743Z</time></trkpt><trkpt lat="42.7495965" lon="10.2364054"><ele>4.0</ele><time>2026-04-04T11:58:16.744Z</time></trkpt><trkpt lat="42.7496453" lon="10.236475"><ele>4.0</ele><time>2026-04-04T11:58:17.744Z</time></trkpt><trkpt lat="42.7496954" lon="10.2365399"><ele>4.0</ele><time>2026-04-04T11:58:18.744Z</time></trkpt><trkpt lat="42.7497418" lon="10.2366141"><ele>3.9999999999999996</ele><time>2026-04-04T11:58:19.744Z</time></trkpt><trkpt lat="42.7498189" lon="10.2367278"><ele>4.0</ele><time>2026-04-04T11:58:21.743Z</time></trkpt><trkpt lat="42.7498859" lon="10.2368275"><ele>4.0</ele><time>2026-04-04T11:58:23.743Z</time></trkpt><trkpt lat="42.7499513" lon="10.236924"><ele>4.0</ele><time>2026-04-04T11:58:25.744Z</time></trkpt><trkpt lat="42.7500173" lon="10.2370377"><ele>4.0</ele><time>2026-04-04T11:58:27.744Z</time></trkpt><trkpt lat="42.7501012" lon="10.2371418"><ele>4.0</ele><time>2026-04-04T11:58:29.744Z</time></trkpt><trkpt lat="42.7501559" lon="10.2372417"><ele>4.0</ele><time>2026-04-04T11:58:31.744Z</time></trkpt><trkpt lat="42.7502178" lon="10.2373332"><ele>4.0</ele><time>2026-04-04T11:58:33.744Z</time></trkpt><trkpt lat="42.7502826" lon="10.2374322"><ele>4.0</ele><time>2026-04-04T11:58:35.744Z</time></trkpt><trkpt lat="42.750354" lon="10.2375556"><ele>4.0</ele><time>2026-04-04T11:58:37.743Z</time></trkpt><trkpt lat="42.7504468" lon="10.2376755"><ele>4.0</ele><time>2026-04-04T11:58:39.744Z</time></trkpt><trkpt lat="42.7505285" lon="10.2378075"><ele>3.9999999999999996</ele><time>2026-04-04T11:58:41.744Z</time></trkpt><trkpt lat="42.7505724" lon="10.2378798"><ele>4.0</ele><time>2026-04-04T11:58:42.743Z</time></trkpt><trkpt lat="42.7506144" lon="10.2379439"><ele>4.0</ele><time>2026-04-04T11:58:43.744Z</time></trkpt><trkpt lat="42.750654" lon="10.2380169"><ele>4.0</ele><time>2026-04-04T11:58:44.744Z</time></trkpt><trkpt lat="42.7507323" lon="10.2381395"><ele>3.9999999999999996</ele><time>2026-04-04T11:58:46.743Z</time></trkpt><trkpt lat="42.7507932" lon="10.2382444"><ele>4.0</ele><time>2026-04-04T11:58:48.744Z</time></trkpt><trkpt lat="42.7508574" lon="10.238362"><ele>3.8571428571428568</ele><time>2026-04-04T11:58:50.744Z</time></trkpt><trkpt lat="42.750901" lon="10.2384298"><ele>3.714285714285714</ele><time>2026-04-04T11:58:51.744Z</time></trkpt><trkpt lat="42.7509454" lon="10.2384952"><ele>3.571428571428571</ele><time>2026-04-04T11:58:52.744Z</time></trkpt><trkpt lat="42.7509929" lon="10.2385609"><ele>3.4285714285714284</ele><time>2026-04-04T11:58:53.744Z</time></trkpt><trkpt lat="42.7510419" lon="10.2386381"><ele>3.2857142857142856</ele><time>2026-04-04T11:58:54.744Z</time></trkpt><trkpt lat="42.7510923" lon="10.2387129"><ele>3.1428571428571423</ele><time>2026-04-04T11:58:55.743Z</time></trkpt><trkpt lat="42.7511442" lon="10.238791"><ele>3.0</ele><time>2026-04-04T11:58:56.744Z</time></trkpt><trkpt lat="42.7511907" lon="10.2388647"><ele>3.0</ele><time>2026-04-04T11:58:57.744Z</time></trkpt><trkpt lat="42.751241" lon="10.2389449"><ele>3.0</ele><time>2026-04-04T11:58:58.743Z</time></trkpt><trkpt lat="42.7512876" lon="10.239013"><ele>3.0</ele><time>2026-04-04T11:58:59.744Z</time></trkpt><trkpt lat="42.7513228" lon="10.2390951"><ele>3.0</ele><time>2026-04-04T11:59:00.744Z</time></trkpt><trkpt lat="42.751367" lon="10.2391769"><ele>3.0</ele><time>2026-04-04T11:59:01.744Z</time></trkpt><trkpt lat="42.7514086" lon="10.2392689"><ele>3.0</ele><time>2026-04-04T11:59:02.744Z</time></trkpt><trkpt lat="42.7514438" lon="10.2393766"><ele>3.1666666666666665</ele><time>2026-04-04T11:59:03.744Z</time></trkpt><trkpt lat="42.7514793" lon="10.2394866"><ele>3.333333333333333</ele><time>2026-04-04T11:59:04.744Z</time></trkpt><trkpt lat="42.7515106" lon="10.2396008"><ele>3.5</ele><time>2026-04-04T11:59:05.744Z</time></trkpt><trkpt lat="42.7515468" lon="10.2397101"><ele>3.6666666666666665</ele><time>2026-04-04T11:59:06.744Z</time></trkpt><trkpt lat="42.7515814" lon="10.2398204"><ele>3.833333333333333</ele><time>2026-04-04T11:59:07.744Z</time></trkpt><trkpt lat="42.7516092" lon="10.2399236"><ele>4.0</ele><time>2026-04-04T11:59:08.744Z</time></trkpt><trkpt lat="42.7516405" lon="10.2400235"><ele>3.9999999999999996</ele><time>2026-04-04T11:59:09.743Z</time></trkpt><trkpt lat="42.751672" lon="10.2401353"><ele>4.0</ele><time>2026-04-04T11:59:10.744Z</time></trkpt><trkpt lat="42.7517007" lon="10.2402341"><ele>4.0</ele><time>2026-04-04T11:59:11.744Z</time></trkpt><trkpt lat="42.7517293" lon="10.2403286"><ele>4.0</ele><time>2026-04-04T11:59:12.743Z</time></trkpt><trkpt lat="42.7517659" lon="10.2404188"><ele>3.9999999999999996</ele><time>2026-04-04T11:59:13.744Z</time></trkpt><trkpt lat="42.751796" lon="10.2405221"><ele>4.0</ele><time>2026-04-04T11:59:14.744Z</time></trkpt><trkpt lat="42.7518089" lon="10.240632"><ele>4.2</ele><time>2026-04-04T11:59:15.744Z</time></trkpt><trkpt lat="42.7518239" lon="10.240744"><ele>4.4</ele><time>2026-04-04T11:59:16.744Z</time></trkpt><trkpt lat="42.7518324" lon="10.2408642"><ele>4.6</ele><time>2026-04-04T11:59:17.744Z</time></trkpt><trkpt lat="42.751846" lon="10.2409879"><ele>4.8</ele><time>2026-04-04T11:59:18.744Z</time></trkpt><trkpt lat="42.7518593" lon="10.2411148"><ele>5.0</ele><time>2026-04-04T11:59:19.744Z</time></trkpt><trkpt lat="42.7518741" lon="10.2412412"><ele>4.4</ele><time>2026-04-04T11:59:20.743Z</time></trkpt><trkpt lat="42.7518828" lon="10.2413684"><ele>3.8</ele><time>2026-04-04T11:59:21.744Z</time></trkpt><trkpt lat="42.7518875" lon="10.2414991"><ele>3.2</ele><time>2026-04-04T11:59:22.743Z</time></trkpt><trkpt lat="42.7518969" lon="10.2416288"><ele>2.6</ele><time>2026-04-04T11:59:23.744Z</time></trkpt><trkpt lat="42.7519036" lon="10.2417555"><ele>2.0</ele><time>2026-04-04T11:59:24.743Z</time></trkpt><trkpt lat="42.7519148" lon="10.2418803"><ele>1.9999999999999998</ele><time>2026-04-04T11:59:25.743Z</time></trkpt><trkpt lat="42.7519207" lon="10.2419988"><ele>2.0</ele><time>2026-04-04T11:59:26.743Z</time></trkpt><trkpt lat="42.7519296" lon="10.2421246"><ele>2.0</ele><time>2026-04-04T11:59:27.743Z</time></trkpt><trkpt lat="42.7519325" lon="10.2422425"><ele>2.0</ele><time>2026-04-04T11:59:28.744Z</time></trkpt><trkpt lat="42.7519477" lon="10.2423403"><ele>1.9999999999999998</ele><time>2026-04-04T11:59:29.744Z</time></trkpt><trkpt lat="42.7519502" lon="10.2424611"><ele>2.0</ele><time>2026-04-04T11:59:30.744Z</time></trkpt><trkpt lat="42.7519548" lon="10.2425806"><ele>1.8333333333333333</ele><time>2026-04-04T11:59:31.744Z</time></trkpt><trkpt lat="42.7519625" lon="10.2426861"><ele>1.6666666666666665</ele><time>2026-04-04T11:59:32.744Z</time></trkpt><trkpt lat="42.7519682" lon="10.2427876"><ele>1.5</ele><time>2026-04-04T11:59:33.744Z</time></trkpt><trkpt lat="42.7519843" lon="10.2428941"><ele>1.3333333333333333</ele><time>2026-04-04T11:59:34.744Z</time></trkpt><trkpt lat="42.7519881" lon="10.2429975"><ele>1.1666666666666665</ele><time>2026-04-04T11:59:35.744Z</time></trkpt><trkpt lat="42.751997" lon="10.2431088"><ele>1.0</ele><time>2026-04-04T11:59:36.744Z</time></trkpt><trkpt lat="42.7520019" lon="10.2432191"><ele>0.9999999999999999</ele><time>2026-04-04T11:59:37.744Z</time></trkpt><trkpt lat="42.7520144" lon="10.2433326"><ele>1.0</ele><time>2026-04-04T11:59:38.744Z</time></trkpt><trkpt lat="42.7520413" lon="10.2434239"><ele>1.0</ele><time>2026-04-04T11:59:39.744Z</time></trkpt><trkpt lat="42.7521088" lon="10.2435358"><ele>1.0</ele><time>2026-04-04T11:59:41.744Z</time></trkpt><trkpt lat="42.7521832" lon="10.2435931"><ele>0.9999999999999999</ele><time>2026-04-04T11:59:43.744Z</time></trkpt><trkpt lat="42.7522445" lon="10.2436266"><ele>1.0</ele><time>2026-04-04T11:59:45.744Z</time></trkpt><trkpt lat="42.7523074" lon="10.2436748"><ele>0.9999999999999999</ele><time>2026-04-04T11:59:47.744Z</time></trkpt><trkpt lat="42.7523826" lon="10.2438039"><ele>1.0</ele><time>2026-04-04T11:59:49.744Z</time></trkpt><trkpt lat="42.7524169" lon="10.24388"><ele>1.0</ele><time>2026-04-04T11:59:50.744Z</time></trkpt><trkpt lat="42.7524481" lon="10.2439659"><ele>1.0</ele><time>2026-04-04T11:59:51.744Z</time></trkpt><trkpt lat="42.7524844" lon="10.2440473"><ele>0.9999999999999999</ele><time>2026-04-04T11:59:52.743Z</time></trkpt><trkpt lat="42.7525213" lon="10.2441349"><ele>1.0</ele><time>2026-04-04T11:59:53.744Z</time></trkpt><trkpt lat="42.7525625" lon="10.244233"><ele>1.0</ele><time>2026-04-04T11:59:54.744Z</time></trkpt><trkpt lat="42.7526057" lon="10.244334"><ele>1.0</ele><time>2026-04-04T11:59:55.744Z</time></trkpt><trkpt lat="42.7526483" lon="10.24444"><ele>1.0</ele><time>2026-04-04T11:59:56.744Z</time></trkpt><trkpt lat="42.752697" lon="10.2445525"><ele>1.0</ele><time>2026-04-04T11:59:57.744Z</time></trkpt><trkpt lat="42.7527543" lon="10.244668"><ele>1.0</ele><time>2026-04-04T11:59:58.744Z</time></trkpt><trkpt lat="42.7528128" lon="10.2447701"><ele>1.0</ele><time>2026-04-04T11:59:59.744Z</time></trkpt><trkpt lat="42.7528736" lon="10.2448676"><ele>1.0</ele><time>2026-04-04T12:00:00.744Z</time></trkpt><trkpt lat="42.7529379" lon="10.2449791"><ele>1.0</ele><time>2026-04-04T12:00:01.744Z</time></trkpt><trkpt lat="42.7530133" lon="10.2450977"><ele>1.0</ele><time>2026-04-04T12:00:02.744Z</time></trkpt><trkpt lat="42.7530952" lon="10.245219"><ele>1.0</ele><time>2026-04-04T12:00:03.744Z</time></trkpt><trkpt lat="42.7531841" lon="10.2453559"><ele>1.0</ele><time>2026-04-04T12:00:04.744Z</time></trkpt><trkpt lat="42.7532739" lon="10.2454911"><ele>1.0</ele><time>2026-04-04T12:00:05.744Z</time></trkpt><trkpt lat="42.7533719" lon="10.2456408"><ele>1.0</ele><time>2026-04-04T12:00:06.744Z</time></trkpt><trkpt lat="42.7534661" lon="10.2457932"><ele>1.0</ele><time>2026-04-04T12:00:07.744Z</time></trkpt><trkpt lat="42.7535655" lon="10.2459469"><ele>1.0</ele><time>2026-04-04T12:00:08.743Z</time></trkpt><trkpt lat="42.7536613" lon="10.2460981"><ele>1.0</ele><time>2026-04-04T12:00:09.744Z</time></trkpt><trkpt lat="42.7537562" lon="10.2462422"><ele>1.0</ele><time>2026-04-04T12:00:10.744Z</time></trkpt><trkpt lat="42.7538451" lon="10.2463803"><ele>1.0</ele><time>2026-04-04T12:00:11.743Z</time></trkpt><trkpt lat="42.7539242" lon="10.2465191"><ele>1.2000000000000002</ele><time>2026-04-04T12:00:12.744Z</time></trkpt><trkpt lat="42.7540045" lon="10.2466444"><ele>1.4000000000000001</ele><time>2026-04-04T12:00:13.744Z</time></trkpt><trkpt lat="42.7540772" lon="10.2467697"><ele>1.6</ele><time>2026-04-04T12:00:14.744Z</time></trkpt><trkpt lat="42.7541481" lon="10.2468741"><ele>1.8</ele><time>2026-04-04T12:00:15.744Z</time></trkpt><trkpt lat="42.7542042" lon="10.2469702"><ele>2.0</ele><time>2026-04-04T12:00:16.744Z</time></trkpt><trkpt lat="42.7542426" lon="10.2470564"><ele>2.0</ele><time>2026-04-04T12:00:17.744Z</time></trkpt><trkpt lat="42.7542206" lon="10.2471973"><ele>2.0</ele><time>2026-04-04T12:00:19.743Z</time></trkpt><trkpt lat="42.7541587" lon="10.2472736"><ele>2.0</ele><time>2026-04-04T12:00:20.744Z</time></trkpt><trkpt lat="42.7540716" lon="10.2473608"><ele>2.0</ele><time>2026-04-04T12:00:21.744Z</time></trkpt><trkpt lat="42.7539826" lon="10.2474559"><ele>2.0</ele><time>2026-04-04T12:00:22.744Z</time></trkpt><trkpt lat="42.7538915" lon="10.2475684"><ele>2.75</ele><time>2026-04-04T12:00:23.744Z</time></trkpt><trkpt lat="42.7537966" lon="10.2476802"><ele>3.5</ele><time>2026-04-04T12:00:24.744Z</time></trkpt><trkpt lat="42.7536975" lon="10.2477951"><ele>4.25</ele><time>2026-04-04T12:00:25.744Z</time></trkpt><trkpt lat="42.7536143" lon="10.247911"><ele>5.0</ele><time>2026-04-04T12:00:26.744Z</time></trkpt><trkpt lat="42.7535413" lon="10.2480133"><ele>4.8</ele><time>2026-04-04T12:00:27.743Z</time></trkpt><trkpt lat="42.7534666" lon="10.2481201"><ele>4.6</ele><time>2026-04-04T12:00:28.744Z</time></trkpt><trkpt lat="42.753397" lon="10.2482248"><ele>4.4</ele><time>2026-04-04T12:00:29.744Z</time></trkpt><trkpt lat="42.7533286" lon="10.2483201"><ele>4.2</ele><time>2026-04-04T12:00:30.744Z</time></trkpt><trkpt lat="42.7532723" lon="10.2484106"><ele>4.0</ele><time>2026-04-04T12:00:31.744Z</time></trkpt><trkpt lat="42.7532235" lon="10.2484894"><ele>4.5</ele><time>2026-04-04T12:00:32.743Z</time></trkpt><trkpt lat="42.7531862" lon="10.2485606"><ele>5.0</ele><time>2026-04-04T12:00:33.744Z</time></trkpt><trkpt lat="42.7531071" lon="10.2486501"><ele>5.5</ele><time>2026-04-04T12:00:35.744Z</time></trkpt><trkpt lat="42.7530431" lon="10.2486788"><ele>6.0</ele><time>2026-04-04T12:00:36.744Z</time></trkpt><trkpt lat="42.7529704" lon="10.2486789"><ele>6.500000000000001</ele><time>2026-04-04T12:00:37.744Z</time></trkpt><trkpt lat="42.7528946" lon="10.2486619"><ele>7.0</ele><time>2026-04-04T12:00:38.744Z</time></trkpt><trkpt lat="42.7528205" lon="10.2486389"><ele>7.000000000000001</ele><time>2026-04-04T12:00:39.744Z</time></trkpt><trkpt lat="42.7527463" lon="10.2486089"><ele>7.0</ele><time>2026-04-04T12:00:40.744Z</time></trkpt><trkpt lat="42.7526673" lon="10.2485588"><ele>7.0</ele><time>2026-04-04T12:00:41.744Z</time></trkpt><trkpt lat="42.7525813" lon="10.2485004"><ele>7.0</ele><time>2026-04-04T12:00:42.744Z</time></trkpt><trkpt lat="42.7525099" lon="10.2484476"><ele>7.000000000000001</ele><time>2026-04-04T12:00:43.743Z</time></trkpt><trkpt lat="42.7524455" lon="10.2484185"><ele>7.0</ele><time>2026-04-04T12:00:44.744Z</time></trkpt><trkpt lat="42.7523815" lon="10.2483976"><ele>6.199999999999999</ele><time>2026-04-04T12:00:45.744Z</time></trkpt><trkpt lat="42.7523149" lon="10.2483892"><ele>5.3999999999999995</ele><time>2026-04-04T12:00:46.744Z</time></trkpt><trkpt lat="42.7522484" lon="10.2483926"><ele>4.6</ele><time>2026-04-04T12:00:47.744Z</time></trkpt><trkpt lat="42.7521441" lon="10.2484289"><ele>3.8</ele><time>2026-04-04T12:00:49.744Z</time></trkpt><trkpt lat="42.7520709" lon="10.2485852"><ele>3.0</ele><time>2026-04-04T12:00:51.744Z</time></trkpt><trkpt lat="42.7520454" lon="10.2486984"><ele>3.0</ele><time>2026-04-04T12:00:52.744Z</time></trkpt><trkpt lat="42.7520157" lon="10.2488171"><ele>3.0</ele><time>2026-04-04T12:00:53.744Z</time></trkpt><trkpt lat="42.7519945" lon="10.2489169"><ele>3.0</ele><time>2026-04-04T12:00:54.743Z</time></trkpt><trkpt lat="42.7519802" lon="10.2490071"><ele>3.0</ele><time>2026-04-04T12:00:55.744Z</time></trkpt><trkpt lat="42.7519161" lon="10.2491107"><ele>3.0</ele><time>2026-04-04T12:00:57.743Z</time></trkpt><trkpt lat="42.7517983" lon="10.2490936"><ele>3.5999999999999996</ele><time>2026-04-04T12:00:59.744Z</time></trkpt><trkpt lat="42.7517189" lon="10.2490686"><ele>4.199999999999999</ele><time>2026-04-04T12:01:00.744Z</time></trkpt><trkpt lat="42.7516465" lon="10.249051"><ele>4.8</ele><time>2026-04-04T12:01:01.744Z</time></trkpt><trkpt lat="42.7515243" lon="10.2490729"><ele>5.3999999999999995</ele><time>2026-04-04T12:01:03.743Z</time></trkpt><trkpt lat="42.7514235" lon="10.2491763"><ele>6.0</ele><time>2026-04-04T12:01:05.744Z</time></trkpt><trkpt lat="42.7513659" lon="10.2492376"><ele>6.0</ele><time>2026-04-04T12:01:06.744Z</time></trkpt><trkpt lat="42.7512827" lon="10.2493211"><ele>6.0</ele><time>2026-04-04T12:01:07.744Z</time></trkpt><trkpt lat="42.7511982" lon="10.2494037"><ele>6.0</ele><time>2026-04-04T12:01:08.744Z</time></trkpt><trkpt lat="42.751108" lon="10.2494794"><ele>6.0</ele><time>2026-04-04T12:01:09.744Z</time></trkpt><trkpt lat="42.7510166" lon="10.2495545"><ele>6.0</ele><time>2026-04-04T12:01:10.744Z</time></trkpt><trkpt lat="42.7509407" lon="10.249614"><ele>7.166666666666666</ele><time>2026-04-04T12:01:11.744Z</time></trkpt><trkpt lat="42.7508724" lon="10.2496478"><ele>8.333333333333332</ele><time>2026-04-04T12:01:12.744Z</time></trkpt><trkpt lat="42.7508091" lon="10.2496784"><ele>9.5</ele><time>2026-04-04T12:01:13.744Z</time></trkpt><trkpt lat="42.7507721" lon="10.24981"><ele>10.666666666666666</ele><time>2026-04-04T12:01:15.744Z</time></trkpt><trkpt lat="42.7507944" lon="10.2499021"><ele>11.833333333333332</ele><time>2026-04-04T12:01:16.744Z</time></trkpt><trkpt lat="42.7508288" lon="10.2500132"><ele>13.0</ele><time>2026-04-04T12:01:17.744Z</time></trkpt><trkpt lat="42.750849" lon="10.2501415"><ele>16.0</ele><time>2026-04-04T12:01:18.744Z</time></trkpt><trkpt lat="42.7508465" lon="10.2502726"><ele>19.0</ele><time>2026-04-04T12:01:19.743Z</time></trkpt><trkpt lat="42.7508514" lon="10.2503834"><ele>21.999999999999996</ele><time>2026-04-04T12:01:20.744Z</time></trkpt><trkpt lat="42.7508559" lon="10.2505252"><ele>25.0</ele><time>2026-04-04T12:01:22.744Z</time></trkpt><trkpt lat="42.7508473" lon="10.2506778"><ele>28.0</ele><time>2026-04-04T12:01:29.744Z</time></trkpt><trkpt lat="42.750793" lon="10.2508043"><ele>28.0</ele><time>2026-04-04T12:01:31.744Z</time></trkpt><trkpt lat="42.7507226" lon="10.2507867"><ele>27.999999999999996</ele><time>2026-04-04T12:01:33.744Z</time></trkpt><trkpt lat="42.7506563" lon="10.2506258"><ele>27.999999999999996</ele><time>2026-04-04T12:01:35.744Z</time></trkpt><trkpt lat="42.7505725" lon="10.2505438"><ele>28.0</ele><time>2026-04-04T12:01:37.744Z</time></trkpt><trkpt lat="42.7504613" lon="10.2506079"><ele>28.0</ele><time>2026-04-04T12:01:39.744Z</time></trkpt><trkpt lat="42.7504144" lon="10.250694"><ele>29.599999999999998</ele><time>2026-04-04T12:01:40.743Z</time></trkpt><trkpt lat="42.7503785" lon="10.2507972"><ele>31.199999999999996</ele><time>2026-04-04T12:01:41.744Z</time></trkpt><trkpt lat="42.750331" lon="10.2509037"><ele>32.8</ele><time>2026-04-04T12:01:42.744Z</time></trkpt><trkpt lat="42.7502774" lon="10.2510012"><ele>34.4</ele><time>2026-04-04T12:01:43.744Z</time></trkpt><trkpt lat="42.750241" lon="10.2510836"><ele>36.0</ele><time>2026-04-04T12:01:44.743Z</time></trkpt><trkpt lat="42.7502385" lon="10.2512651"><ele>36.0</ele><time>2026-04-04T12:01:46.744Z</time></trkpt><trkpt lat="42.7502754" lon="10.251351"><ele>36.0</ele><time>2026-04-04T12:01:47.744Z</time></trkpt><trkpt lat="42.7503115" lon="10.2514581"><ele>36.0</ele><time>2026-04-04T12:01:48.744Z</time></trkpt><trkpt lat="42.7503315" lon="10.2515601"><ele>36.0</ele><time>2026-04-04T12:01:49.744Z</time></trkpt><trkpt lat="42.7503026" lon="10.2517066"><ele>36.0</ele><time>2026-04-04T12:01:51.744Z</time></trkpt><trkpt lat="42.7502361" lon="10.2516951"><ele>36.0</ele><time>2026-04-04T12:01:53.744Z</time></trkpt><trkpt lat="42.750165" lon="10.2515762"><ele>40.333333333333336</ele><time>2026-04-04T12:01:55.743Z</time></trkpt><trkpt lat="42.7500766" lon="10.2515679"><ele>44.66666666666667</ele><time>2026-04-04T12:01:57.744Z</time></trkpt><trkpt lat="42.7501022" lon="10.2516791"><ele>49.0</ele><time>2026-04-04T12:02:23.744Z</time></trkpt><trkpt lat="42.7501127" lon="10.2517786"><ele>53.333333333333336</ele><time>2026-04-04T12:02:31.744Z</time></trkpt><trkpt lat="42.7501176" lon="10.2518703"><ele>57.66666666666667</ele><time>2026-04-04T12:02:35.744Z</time></trkpt><trkpt lat="42.75015" lon="10.2520173"><ele>62.0</ele><time>2026-04-04T12:02:37.744Z</time></trkpt><trkpt lat="42.7501639" lon="10.2521884"><ele>62.00000000000001</ele><time>2026-04-04T12:02:39.744Z</time></trkpt><trkpt lat="42.7501664" lon="10.2522877"><ele>62.0</ele><time>2026-04-04T12:02:40.744Z</time></trkpt><trkpt lat="42.7501643" lon="10.2524047"><ele>62.0</ele><time>2026-04-04T12:02:41.744Z</time></trkpt><trkpt lat="42.7501522" lon="10.2524975"><ele>62.0</ele><time>2026-04-04T12:02:42.744Z</time></trkpt><trkpt lat="42.7501348" lon="10.2525827"><ele>62.00000000000001</ele><time>2026-04-04T12:02:43.743Z</time></trkpt><trkpt lat="42.7500679" lon="10.2527218"><ele>62.0</ele><time>2026-04-04T12:02:45.744Z</time></trkpt><trkpt lat="42.7499727" lon="10.2528243"><ele>63.400000000000006</ele><time>2026-04-04T12:02:47.743Z</time></trkpt><trkpt lat="42.7498734" lon="10.252922"><ele>64.80000000000001</ele><time>2026-04-04T12:02:49.743Z</time></trkpt><trkpt lat="42.7498241" lon="10.2529944"><ele>66.2</ele><time>2026-04-04T12:02:50.744Z</time></trkpt><trkpt lat="42.749775" lon="10.2530746"><ele>67.60000000000001</ele><time>2026-04-04T12:02:51.744Z</time></trkpt><trkpt lat="42.7497243" lon="10.2531682"><ele>69.0</ele><time>2026-04-04T12:02:52.744Z</time></trkpt><trkpt lat="42.7496669" lon="10.25327"><ele>69.0</ele><time>2026-04-04T12:02:53.744Z</time></trkpt><trkpt lat="42.7496034" lon="10.2533808"><ele>69.0</ele><time>2026-04-04T12:02:54.744Z</time></trkpt><trkpt lat="42.7495373" lon="10.2534773"><ele>69.0</ele><time>2026-04-04T12:02:55.744Z</time></trkpt><trkpt lat="42.7494598" lon="10.2535626"><ele>69.0</ele><time>2026-04-04T12:02:56.744Z</time></trkpt><trkpt lat="42.7493753" lon="10.2536262"><ele>69.0</ele><time>2026-04-04T12:02:57.744Z</time></trkpt><trkpt lat="42.7492974" lon="10.2536808"><ele>75.2</ele><time>2026-04-04T12:02:58.744Z</time></trkpt><trkpt lat="42.7492451" lon="10.2537446"><ele>81.4</ele><time>2026-04-04T12:02:59.744Z</time></trkpt><trkpt lat="42.74921" lon="10.253822"><ele>87.6</ele><time>2026-04-04T12:03:00.744Z</time></trkpt><trkpt lat="42.7491786" lon="10.2539325"><ele>93.8</ele><time>2026-04-04T12:03:01.744Z</time></trkpt><trkpt lat="42.7491621" lon="10.2540766"><ele>100.0</ele><time>2026-04-04T12:03:02.744Z</time></trkpt><trkpt lat="42.7491524" lon="10.2542424"><ele>100.0</ele><time>2026-04-04T12:03:03.744Z</time></trkpt><trkpt lat="42.7491479" lon="10.2543575"><ele>100.0</ele><time>2026-04-04T12:03:04.744Z</time></trkpt><trkpt lat="42.7491668" lon="10.2544939"><ele>100.0</ele><time>2026-04-04T12:03:05.744Z</time></trkpt><trkpt lat="42.749183" lon="10.2546372"><ele>100.0</ele><time>2026-04-04T12:03:06.744Z</time></trkpt><trkpt lat="42.7491948" lon="10.2547796"><ele>100.0</ele><time>2026-04-04T12:03:07.744Z</time></trkpt><trkpt lat="42.7491921" lon="10.2549072"><ele>100.50000000000001</ele><time>2026-04-04T12:03:08.744Z</time></trkpt><trkpt lat="42.7491838" lon="10.2550149"><ele>101.0</ele><time>2026-04-04T12:03:09.743Z</time></trkpt><trkpt lat="42.7491596" lon="10.2550966"><ele>101.5</ele><time>2026-04-04T12:03:10.743Z</time></trkpt><trkpt lat="42.7490658" lon="10.2551975"><ele>102.0</ele><time>2026-04-04T12:03:12.744Z</time></trkpt><trkpt lat="42.7490025" lon="10.255244"><ele>102.50000000000001</ele><time>2026-04-04T12:03:13.744Z</time></trkpt><trkpt lat="42.7489379" lon="10.2553012"><ele>103.0</ele><time>2026-04-04T12:03:15.744Z</time></trkpt><trkpt lat="42.7489174" lon="10.2554122"><ele>103.0</ele><time>2026-04-04T12:03:42.744Z</time></trkpt><trkpt lat="42.7489168" lon="10.2555617"><ele>103.0</ele><time>2026-04-04T12:03:45.744Z</time></trkpt><trkpt lat="42.7489155" lon="10.255734"><ele>103.0</ele><time>2026-04-04T12:03:47.743Z</time></trkpt><trkpt lat="42.7489202" lon="10.2558639"><ele>103.0</ele><time>2026-04-04T12:03:48.744Z</time></trkpt><trkpt lat="42.7489056" lon="10.25598"><ele>103.0</ele><time>2026-04-04T12:03:49.744Z</time></trkpt><trkpt lat="42.7488954" lon="10.2561028"><ele>104.0</ele><time>2026-04-04T12:03:50.744Z</time></trkpt><trkpt lat="42.7488943" lon="10.2562358"><ele>105.0</ele><time>2026-04-04T12:03:51.744Z</time></trkpt><trkpt lat="42.7488966" lon="10.2563759"><ele>106.00000000000001</ele><time>2026-04-04T12:03:52.744Z</time></trkpt><trkpt lat="42.7489048" lon="10.2565222"><ele>107.0</ele><time>2026-04-04T12:03:53.744Z</time></trkpt><trkpt lat="42.7489155" lon="10.2566666"><ele>108.0</ele><time>2026-04-04T12:03:54.744Z</time></trkpt><trkpt lat="42.7489272" lon="10.2568006"><ele>108.33333333333333</ele><time>2026-04-04T12:03:55.744Z</time></trkpt><trkpt lat="42.7489363" lon="10.2569242"><ele>108.66666666666666</ele><time>2026-04-04T12:03:56.744Z</time></trkpt><trkpt lat="42.7489437" lon="10.2570373"><ele>109.0</ele><time>2026-04-04T12:03:57.744Z</time></trkpt><trkpt lat="42.74893" lon="10.2571489"><ele>109.33333333333333</ele><time>2026-04-04T12:03:58.744Z</time></trkpt><trkpt lat="42.7489005" lon="10.257252"><ele>109.66666666666666</ele><time>2026-04-04T12:03:59.744Z</time></trkpt><trkpt lat="42.7488603" lon="10.2573484"><ele>110.0</ele><time>2026-04-04T12:04:00.744Z</time></trkpt><trkpt lat="42.7488161" lon="10.2574214"><ele>111.4</ele><time>2026-04-04T12:04:01.744Z</time></trkpt><trkpt lat="42.7487544" lon="10.2574763"><ele>112.8</ele><time>2026-04-04T12:04:02.744Z</time></trkpt><trkpt lat="42.7486711" lon="10.2575092"><ele>114.19999999999999</ele><time>2026-04-04T12:04:03.743Z</time></trkpt><trkpt lat="42.7485688" lon="10.2575346"><ele>115.6</ele><time>2026-04-04T12:04:04.743Z</time></trkpt><trkpt lat="42.7484629" lon="10.2575606"><ele>117.0</ele><time>2026-04-04T12:04:05.744Z</time></trkpt><trkpt lat="42.7483609" lon="10.2575629"><ele>113.39999999999999</ele><time>2026-04-04T12:04:06.744Z</time></trkpt><trkpt lat="42.7482699" lon="10.2575567"><ele>109.79999999999998</ele><time>2026-04-04T12:04:07.744Z</time></trkpt><trkpt lat="42.7481891" lon="10.2575599"><ele>106.2</ele><time>2026-04-04T12:04:08.744Z</time></trkpt><trkpt lat="42.7481059" lon="10.2575922"><ele>102.6</ele><time>2026-04-04T12:04:09.743Z</time></trkpt><trkpt lat="42.74801" lon="10.257658"><ele>99.0</ele><time>2026-04-04T12:04:10.744Z</time></trkpt><trkpt lat="42.7479097" lon="10.2577377"><ele>99.0</ele><time>2026-04-04T12:04:11.744Z</time></trkpt><trkpt lat="42.7478155" lon="10.2578281"><ele>99.0</ele><time>2026-04-04T12:04:12.744Z</time></trkpt><trkpt lat="42.7477319" lon="10.2579009"><ele>99.0</ele><time>2026-04-04T12:04:13.744Z</time></trkpt><trkpt lat="42.7476517" lon="10.257958"><ele>99.0</ele><time>2026-04-04T12:04:14.744Z</time></trkpt><trkpt lat="42.7475791" lon="10.2579866"><ele>99.0</ele><time>2026-04-04T12:04:15.744Z</time></trkpt><trkpt lat="42.7475068" lon="10.2580223"><ele>99.33333333333333</ele><time>2026-04-04T12:04:16.743Z</time></trkpt><trkpt lat="42.7474526" lon="10.25808"><ele>99.66666666666666</ele><time>2026-04-04T12:04:17.743Z</time></trkpt><trkpt lat="42.7474102" lon="10.2581561"><ele>100.0</ele><time>2026-04-04T12:04:18.744Z</time></trkpt><trkpt lat="42.7473887" lon="10.2582469"><ele>100.33333333333333</ele><time>2026-04-04T12:04:19.744Z</time></trkpt><trkpt lat="42.7473896" lon="10.2583801"><ele>100.66666666666666</ele><time>2026-04-04T12:04:20.744Z</time></trkpt><trkpt lat="42.7473991" lon="10.2585332"><ele>101.0</ele><time>2026-04-04T12:04:21.744Z</time></trkpt><trkpt lat="42.747406" lon="10.2586739"><ele>101.0</ele><time>2026-04-04T12:04:22.744Z</time></trkpt><trkpt lat="42.7474146" lon="10.2587998"><ele>101.0</ele><time>2026-04-04T12:04:23.744Z</time></trkpt><trkpt lat="42.7474045" lon="10.2589123"><ele>101.0</ele><time>2026-04-04T12:04:24.744Z</time></trkpt><trkpt lat="42.7473711" lon="10.2590343"><ele>101.0</ele><time>2026-04-04T12:04:25.744Z</time></trkpt><trkpt lat="42.7473209" lon="10.2591518"><ele>101.0</ele><time>2026-04-04T12:04:26.744Z</time></trkpt><trkpt lat="42.7472812" lon="10.2592805"><ele>101.0</ele><time>2026-04-04T12:04:27.744Z</time></trkpt><trkpt lat="42.747247" lon="10.2594266"><ele>101.0</ele><time>2026-04-04T12:04:28.744Z</time></trkpt><trkpt lat="42.7472303" lon="10.2595679"><ele>101.0</ele><time>2026-04-04T12:04:29.744Z</time></trkpt><trkpt lat="42.7472063" lon="10.2597038"><ele>101.0</ele><time>2026-04-04T12:04:30.744Z</time></trkpt><trkpt lat="42.7471927" lon="10.2598289"><ele>101.0</ele><time>2026-04-04T12:04:31.744Z</time></trkpt><trkpt lat="42.7471741" lon="10.2599382"><ele>100.99999999999999</ele><time>2026-04-04T12:04:32.744Z</time></trkpt><trkpt lat="42.7471494" lon="10.2600434"><ele>101.0</ele><time>2026-04-04T12:04:33.744Z</time></trkpt><trkpt lat="42.7470987" lon="10.2601584"><ele>101.0</ele><time>2026-04-04T12:04:34.743Z</time></trkpt><trkpt lat="42.7470453" lon="10.2602596"><ele>101.0</ele><time>2026-04-04T12:04:35.744Z</time></trkpt><trkpt lat="42.7469922" lon="10.2603379"><ele>100.99999999999999</ele><time>2026-04-04T12:04:36.744Z</time></trkpt><trkpt lat="42.7469297" lon="10.2604147"><ele>101.0</ele><time>2026-04-04T12:04:37.744Z</time></trkpt><trkpt lat="42.7468607" lon="10.2604854"><ele>98.83333333333333</ele><time>2026-04-04T12:04:38.744Z</time></trkpt><trkpt lat="42.7467849" lon="10.2605366"><ele>96.66666666666666</ele><time>2026-04-04T12:04:39.744Z</time></trkpt><trkpt lat="42.746715" lon="10.2605763"><ele>94.5</ele><time>2026-04-04T12:04:40.744Z</time></trkpt><trkpt lat="42.7466436" lon="10.2606159"><ele>92.33333333333333</ele><time>2026-04-04T12:04:41.744Z</time></trkpt><trkpt lat="42.7465788" lon="10.2606555"><ele>90.16666666666666</ele><time>2026-04-04T12:04:42.744Z</time></trkpt><trkpt lat="42.7465184" lon="10.2606821"><ele>88.0</ele><time>2026-04-04T12:04:43.744Z</time></trkpt><trkpt lat="42.7464337" lon="10.2607518"><ele>86.4</ele><time>2026-04-04T12:04:45.744Z</time></trkpt><trkpt lat="42.7464492" lon="10.2608445"><ele>84.80000000000001</ele><time>2026-04-04T12:04:48.744Z</time></trkpt><trkpt lat="42.7465594" lon="10.2608672"><ele>83.2</ele><time>2026-04-04T12:04:50.744Z</time></trkpt><trkpt lat="42.7466498" lon="10.260855"><ele>81.6</ele><time>2026-04-04T12:04:51.744Z</time></trkpt><trkpt lat="42.7467464" lon="10.2608553"><ele>80.0</ele><time>2026-04-04T12:04:52.744Z</time></trkpt><trkpt lat="42.746846" lon="10.2608587"><ele>80.6</ele><time>2026-04-04T12:04:53.744Z</time></trkpt><trkpt lat="42.7469417" lon="10.2608617"><ele>81.2</ele><time>2026-04-04T12:04:54.744Z</time></trkpt><trkpt lat="42.7470328" lon="10.2608686"><ele>81.80000000000001</ele><time>2026-04-04T12:04:55.744Z</time></trkpt><trkpt lat="42.7471255" lon="10.260889"><ele>82.4</ele><time>2026-04-04T12:04:56.744Z</time></trkpt><trkpt lat="42.7472196" lon="10.2609113"><ele>83.0</ele><time>2026-04-04T12:04:57.744Z</time></trkpt><trkpt lat="42.7473148" lon="10.260938"><ele>83.0</ele><time>2026-04-04T12:04:58.743Z</time></trkpt><trkpt lat="42.7474026" lon="10.2609442"><ele>83.0</ele><time>2026-04-04T12:04:59.744Z</time></trkpt><trkpt lat="42.7474823" lon="10.2609404"><ele>83.0</ele><time>2026-04-04T12:05:00.744Z</time></trkpt><trkpt lat="42.7475545" lon="10.260948"><ele>83.0</ele><time>2026-04-04T12:05:01.744Z</time></trkpt><trkpt lat="42.7476228" lon="10.2609896"><ele>83.0</ele><time>2026-04-04T12:05:02.744Z</time></trkpt><trkpt lat="42.74771" lon="10.2610565"><ele>83.0</ele><time>2026-04-04T12:05:03.743Z</time></trkpt><trkpt lat="42.7477984" lon="10.2611152"><ele>85.33333333333334</ele><time>2026-04-04T12:05:04.744Z</time></trkpt><trkpt lat="42.7478709" lon="10.261165"><ele>87.66666666666667</ele><time>2026-04-04T12:05:05.744Z</time></trkpt><trkpt lat="42.7479485" lon="10.2612738"><ele>90.0</ele><time>2026-04-04T12:05:07.744Z</time></trkpt><trkpt lat="42.7479719" lon="10.2613697"><ele>92.33333333333334</ele><time>2026-04-04T12:05:09.744Z</time></trkpt><trkpt lat="42.7479169" lon="10.2614459"><ele>94.66666666666667</ele><time>2026-04-04T12:05:24.744Z</time></trkpt><trkpt lat="42.7478741" lon="10.2615247"><ele>97.0</ele><time>2026-04-04T12:05:53.744Z</time></trkpt><trkpt lat="42.7478074" lon="10.2616222"><ele>97.00000000000001</ele><time>2026-04-04T12:05:55.744Z</time></trkpt><trkpt lat="42.7477468" lon="10.2617113"><ele>97.0</ele><time>2026-04-04T12:05:57.743Z</time></trkpt><trkpt lat="42.7476788" lon="10.2617631"><ele>97.0</ele><time>2026-04-04T12:06:00.744Z</time></trkpt><trkpt lat="42.7476154" lon="10.2618071"><ele>97.0</ele><time>2026-04-04T12:06:03.744Z</time></trkpt><trkpt lat="42.7475516" lon="10.2618413"><ele>97.00000000000001</ele><time>2026-04-04T12:06:05.743Z</time></trkpt><trkpt lat="42.7474742" lon="10.2618928"><ele>97.0</ele><time>2026-04-04T12:06:07.744Z</time></trkpt><trkpt lat="42.747412" lon="10.2619788"><ele>93.16666666666667</ele><time>2026-04-04T12:06:09.743Z</time></trkpt><trkpt lat="42.7473483" lon="10.2621105"><ele>89.33333333333334</ele><time>2026-04-04T12:06:11.744Z</time></trkpt><trkpt lat="42.7473227" lon="10.2621896"><ele>85.5</ele><time>2026-04-04T12:06:12.744Z</time></trkpt><trkpt lat="42.7472999" lon="10.2622764"><ele>81.66666666666667</ele><time>2026-04-04T12:06:13.744Z</time></trkpt><trkpt lat="42.747277" lon="10.2624031"><ele>77.83333333333334</ele><time>2026-04-04T12:06:14.744Z</time></trkpt><trkpt lat="42.7472481" lon="10.262524"><ele>74.0</ele><time>2026-04-04T12:06:15.744Z</time></trkpt><trkpt lat="42.7472425" lon="10.2626268"><ele>74.0</ele><time>2026-04-04T12:06:16.744Z</time></trkpt><trkpt lat="42.7472312" lon="10.2627385"><ele>74.0</ele><time>2026-04-04T12:06:17.744Z</time></trkpt><trkpt lat="42.7472243" lon="10.2628498"><ele>74.0</ele><time>2026-04-04T12:06:18.744Z</time></trkpt><trkpt lat="42.7472229" lon="10.2629615"><ele>74.0</ele><time>2026-04-04T12:06:19.744Z</time></trkpt><trkpt lat="42.7472274" lon="10.2630496"><ele>74.0</ele><time>2026-04-04T12:06:20.744Z</time></trkpt><trkpt lat="42.7472478" lon="10.2631973"><ele>74.0</ele><time>2026-04-04T12:06:22.743Z</time></trkpt><trkpt lat="42.7473142" lon="10.2633181"><ele>73.2</ele><time>2026-04-04T12:06:24.744Z</time></trkpt><trkpt lat="42.7473962" lon="10.263395"><ele>72.4</ele><time>2026-04-04T12:06:26.744Z</time></trkpt><trkpt lat="42.7474998" lon="10.2634641"><ele>71.6</ele><time>2026-04-04T12:06:28.744Z</time></trkpt><trkpt lat="42.747618" lon="10.2635082"><ele>70.8</ele><time>2026-04-04T12:06:30.744Z</time></trkpt><trkpt lat="42.747707" lon="10.2635749"><ele>70.0</ele><time>2026-04-04T12:06:32.744Z</time></trkpt><trkpt lat="42.7477431" lon="10.2636456"><ele>67.8</ele><time>2026-04-04T12:06:33.744Z</time></trkpt><trkpt lat="42.7477679" lon="10.2637971"><ele>65.6</ele><time>2026-04-04T12:06:35.744Z</time></trkpt><trkpt lat="42.7477397" lon="10.26394"><ele>63.400000000000006</ele><time>2026-04-04T12:06:37.744Z</time></trkpt><trkpt lat="42.747705" lon="10.2640768"><ele>61.2</ele><time>2026-04-04T12:06:39.744Z</time></trkpt><trkpt lat="42.7476582" lon="10.2641863"><ele>59.0</ele><time>2026-04-04T12:06:41.744Z</time></trkpt><trkpt lat="42.7476035" lon="10.2642612"><ele>59.0</ele><time>2026-04-04T12:06:43.744Z</time></trkpt><trkpt lat="42.7475414" lon="10.264331"><ele>59.00000000000001</ele><time>2026-04-04T12:06:45.744Z</time></trkpt><trkpt lat="42.747492" lon="10.2644243"><ele>59.00000000000001</ele><time>2026-04-04T12:06:47.744Z</time></trkpt><trkpt lat="42.7474622" lon="10.2645471"><ele>59.0</ele><time>2026-04-04T12:06:49.744Z</time></trkpt><trkpt lat="42.7474736" lon="10.2646744"><ele>59.0</ele><time>2026-04-04T12:06:51.744Z</time></trkpt><trkpt lat="42.7475098" lon="10.2648028"><ele>56.6</ele><time>2026-04-04T12:06:53.744Z</time></trkpt><trkpt lat="42.7475485" lon="10.2649465"><ele>54.2</ele><time>2026-04-04T12:06:55.744Z</time></trkpt><trkpt lat="42.7475832" lon="10.265092"><ele>51.800000000000004</ele><time>2026-04-04T12:06:57.744Z</time></trkpt><trkpt lat="42.7476401" lon="10.265219"><ele>49.400000000000006</ele><time>2026-04-04T12:06:59.744Z</time></trkpt><trkpt lat="42.7476875" lon="10.2653377"><ele>47.0</ele><time>2026-04-04T12:07:01.744Z</time></trkpt><trkpt lat="42.7477379" lon="10.2654637"><ele>47.0</ele><time>2026-04-04T12:07:03.744Z</time></trkpt><trkpt lat="42.7477222" lon="10.2655534"><ele>47.0</ele><time>2026-04-04T12:07:05.744Z</time></trkpt><trkpt lat="42.7476502" lon="10.2655483"><ele>47.0</ele><time>2026-04-04T12:07:07.743Z</time></trkpt><trkpt lat="42.7475737" lon="10.2655163"><ele>47.0</ele><time>2026-04-04T12:07:09.744Z</time></trkpt><trkpt lat="42.747497" lon="10.265476"><ele>47.0</ele><time>2026-04-04T12:07:11.744Z</time></trkpt><trkpt lat="42.7474296" lon="10.2654341"><ele>47.0</ele><time>2026-04-04T12:07:13.744Z</time></trkpt><trkpt lat="42.7473333" lon="10.2653869"><ele>47.0</ele><time>2026-04-04T12:07:15.744Z</time></trkpt><trkpt lat="42.7472318" lon="10.2653422"><ele>47.0</ele><time>2026-04-04T12:07:17.744Z</time></trkpt><trkpt lat="42.7471339" lon="10.2653028"><ele>47.0</ele><time>2026-04-04T12:07:19.744Z</time></trkpt><trkpt lat="42.7470737" lon="10.2652744"><ele>47.0</ele><time>2026-04-04T12:07:20.743Z</time></trkpt><trkpt lat="42.7469613" lon="10.2652289"><ele>47.0</ele><time>2026-04-04T12:07:22.744Z</time></trkpt><trkpt lat="42.7468686" lon="10.2651703"><ele>44.83333333333333</ele><time>2026-04-04T12:07:24.743Z</time></trkpt><trkpt lat="42.7468095" lon="10.265051"><ele>42.666666666666664</ele><time>2026-04-04T12:07:26.744Z</time></trkpt><trkpt lat="42.7467835" lon="10.264916"><ele>40.5</ele><time>2026-04-04T12:07:28.744Z</time></trkpt><trkpt lat="42.7467514" lon="10.2648303"><ele>38.333333333333336</ele><time>2026-04-04T12:07:30.744Z</time></trkpt><trkpt lat="42.7466659" lon="10.2647907"><ele>36.16666666666667</ele><time>2026-04-04T12:07:33.744Z</time></trkpt><trkpt lat="42.7465907" lon="10.2647675"><ele>34.0</ele><time>2026-04-04T12:07:35.743Z</time></trkpt><trkpt lat="42.7465044" lon="10.2647341"><ele>34.0</ele><time>2026-04-04T12:07:37.744Z</time></trkpt><trkpt lat="42.7464205" lon="10.2646882"><ele>34.0</ele><time>2026-04-04T12:07:39.743Z</time></trkpt><trkpt lat="42.7463575" lon="10.2646657"><ele>34.0</ele><time>2026-04-04T12:07:40.744Z</time></trkpt><trkpt lat="42.7462498" lon="10.2646433"><ele>34.0</ele><time>2026-04-04T12:07:42.744Z</time></trkpt><trkpt lat="42.7461468" lon="10.2646126"><ele>34.0</ele><time>2026-04-04T12:07:44.744Z</time></trkpt><trkpt lat="42.7460453" lon="10.2645766"><ele>30.666666666666668</ele><time>2026-04-04T12:07:46.744Z</time></trkpt><trkpt lat="42.745955" lon="10.2645429"><ele>27.333333333333336</ele><time>2026-04-04T12:07:48.744Z</time></trkpt><trkpt lat="42.7458801" lon="10.2645258"><ele>24.0</ele><time>2026-04-04T12:07:51.744Z</time></trkpt><trkpt lat="42.7458122" lon="10.2645318"><ele>20.666666666666668</ele><time>2026-04-04T12:07:53.744Z</time></trkpt><trkpt lat="42.7457264" lon="10.2645418"><ele>17.333333333333336</ele><time>2026-04-04T12:07:55.743Z</time></trkpt><trkpt lat="42.7456431" lon="10.2645439"><ele>14.0</ele><time>2026-04-04T12:07:57.744Z</time></trkpt><trkpt lat="42.7455775" lon="10.2645909"><ele>14.0</ele><time>2026-04-04T12:08:01.744Z</time></trkpt><trkpt lat="42.7455107" lon="10.2645886"><ele>14.0</ele><time>2026-04-04T12:10:02.744Z</time></trkpt><trkpt lat="42.7454388" lon="10.2645069"><ele>14.0</ele><time>2026-04-04T12:10:48.758Z</time></trkpt><trkpt lat="42.745386" lon="10.264454"><ele>14.0</ele><time>2026-04-04T12:10:56.782Z</time></trkpt><trkpt lat="42.7453209" lon="10.264444"><ele>14.0</ele><time>2026-04-04T12:11:20.083Z</time></trkpt><trkpt lat="42.7452548" lon="10.2644587"><ele>14.0</ele><time>2026-04-04T12:11:39.744Z</time></trkpt></trkseg><trkseg><trkpt lat="42.7455507" lon="10.2645167"><ele>14.000000000000002</ele><time>2026-04-04T13:42:03.753Z</time></trkpt><trkpt lat="42.745625" lon="10.2645317"><ele>14.0</ele><time>2026-04-04T13:42:04.733Z</time></trkpt><trkpt lat="42.7456944" lon="10.2645459"><ele>14.0</ele><time>2026-04-04T13:42:05.734Z</time></trkpt><trkpt lat="42.7457638" lon="10.2645528"><ele>14.0</ele><time>2026-04-04T13:42:06.734Z</time></trkpt><trkpt lat="42.7458314" lon="10.2645591"><ele>14.000000000000002</ele><time>2026-04-04T13:42:07.734Z</time></trkpt><trkpt lat="42.7459482" lon="10.2645797"><ele>14.0</ele><time>2026-04-04T13:42:09.734Z</time></trkpt><trkpt lat="42.7460117" lon="10.2645985"><ele>15.428571428571429</ele><time>2026-04-04T13:42:10.733Z</time></trkpt><trkpt lat="42.7460678" lon="10.2646421"><ele>16.857142857142858</ele><time>2026-04-04T13:42:11.733Z</time></trkpt><trkpt lat="42.7461289" lon="10.2646688"><ele>18.285714285714285</ele><time>2026-04-04T13:42:12.734Z</time></trkpt><trkpt lat="42.7461974" lon="10.2646784"><ele>19.714285714285715</ele><time>2026-04-04T13:42:13.733Z</time></trkpt><trkpt lat="42.746269" lon="10.264707"><ele>21.142857142857142</ele><time>2026-04-04T13:42:14.734Z</time></trkpt><trkpt lat="42.7463489" lon="10.2647388"><ele>22.57142857142857</ele><time>2026-04-04T13:42:15.734Z</time></trkpt><trkpt lat="42.7464325" lon="10.2647848"><ele>24.0</ele><time>2026-04-04T13:42:16.734Z</time></trkpt><trkpt lat="42.7465106" lon="10.2648383"><ele>24.0</ele><time>2026-04-04T13:42:17.734Z</time></trkpt><trkpt lat="42.7465926" lon="10.2648814"><ele>24.0</ele><time>2026-04-04T13:42:18.734Z</time></trkpt><trkpt lat="42.7466753" lon="10.2648645"><ele>24.0</ele><time>2026-04-04T13:42:20.734Z</time></trkpt><trkpt lat="42.7467292" lon="10.2649137"><ele>24.0</ele><time>2026-04-04T13:42:22.734Z</time></trkpt><trkpt lat="42.746743" lon="10.265069"><ele>24.0</ele><time>2026-04-04T13:42:24.734Z</time></trkpt><trkpt lat="42.7467709" lon="10.265147"><ele>24.0</ele><time>2026-04-04T13:42:25.734Z</time></trkpt><trkpt lat="42.7468225" lon="10.2652071"><ele>27.833333333333332</ele><time>2026-04-04T13:42:26.733Z</time></trkpt><trkpt lat="42.7468892" lon="10.2652429"><ele>31.666666666666664</ele><time>2026-04-04T13:42:27.734Z</time></trkpt><trkpt lat="42.7469624" lon="10.2652755"><ele>35.5</ele><time>2026-04-04T13:42:28.734Z</time></trkpt><trkpt lat="42.7470484" lon="10.2653175"><ele>39.33333333333333</ele><time>2026-04-04T13:42:29.734Z</time></trkpt><trkpt lat="42.7471425" lon="10.265363"><ele>43.166666666666664</ele><time>2026-04-04T13:42:30.734Z</time></trkpt><trkpt lat="42.7472379" lon="10.2653986"><ele>47.0</ele><time>2026-04-04T13:42:31.734Z</time></trkpt><trkpt lat="42.7473213" lon="10.2654277"><ele>47.0</ele><time>2026-04-04T13:42:32.734Z</time></trkpt><trkpt lat="42.7473983" lon="10.2654592"><ele>47.0</ele><time>2026-04-04T13:42:33.734Z</time></trkpt><trkpt lat="42.7474768" lon="10.2654865"><ele>47.0</ele><time>2026-04-04T13:42:34.734Z</time></trkpt><trkpt lat="42.7475426" lon="10.2655219"><ele>47.0</ele><time>2026-04-04T13:42:35.733Z</time></trkpt><trkpt lat="42.7476065" lon="10.2655615"><ele>47.0</ele><time>2026-04-04T13:42:36.734Z</time></trkpt><trkpt lat="42.7476787" lon="10.2655944"><ele>47.0</ele><time>2026-04-04T13:42:38.734Z</time></trkpt><trkpt lat="42.7476292" lon="10.2654506"><ele>47.0</ele><time>2026-04-04T13:42:49.734Z</time></trkpt><trkpt lat="42.747594" lon="10.2653692"><ele>47.0</ele><time>2026-04-04T13:42:50.734Z</time></trkpt><trkpt lat="42.7475631" lon="10.2652807"><ele>47.0</ele><time>2026-04-04T13:42:51.734Z</time></trkpt><trkpt lat="42.7475265" lon="10.2652031"><ele>47.0</ele><time>2026-04-04T13:42:52.733Z</time></trkpt><trkpt lat="42.7474916" lon="10.2651124"><ele>47.0</ele><time>2026-04-04T13:42:53.734Z</time></trkpt><trkpt lat="42.7474567" lon="10.2650238"><ele>47.0</ele><time>2026-04-04T13:42:54.734Z</time></trkpt><trkpt lat="42.7474276" lon="10.2649312"><ele>47.0</ele><time>2026-04-04T13:42:55.734Z</time></trkpt><trkpt lat="42.7474016" lon="10.2648286"><ele>49.400000000000006</ele><time>2026-04-04T13:42:56.734Z</time></trkpt><trkpt lat="42.7473806" lon="10.2647314"><ele>51.800000000000004</ele><time>2026-04-04T13:42:57.734Z</time></trkpt><trkpt lat="42.7473742" lon="10.2645843"><ele>54.2</ele><time>2026-04-04T13:42:59.734Z</time></trkpt><trkpt lat="42.747392" lon="10.2644539"><ele>56.6</ele><time>2026-04-04T13:43:01.734Z</time></trkpt><trkpt lat="42.7474701" lon="10.2643003"><ele>59.0</ele><time>2026-04-04T13:43:03.734Z</time></trkpt><trkpt lat="42.7475225" lon="10.2642245"><ele>59.00000000000001</ele><time>2026-04-04T13:43:04.733Z</time></trkpt><trkpt lat="42.7475625" lon="10.2641559"><ele>59.0</ele><time>2026-04-04T13:43:05.734Z</time></trkpt><trkpt lat="42.7475968" lon="10.2640635"><ele>59.0</ele><time>2026-04-04T13:43:06.734Z</time></trkpt><trkpt lat="42.7476219" lon="10.2639827"><ele>59.0</ele><time>2026-04-04T13:43:07.734Z</time></trkpt><trkpt lat="42.7476614" lon="10.2638289"><ele>59.00000000000001</ele><time>2026-04-04T13:43:09.734Z</time></trkpt><trkpt lat="42.7476733" lon="10.2637413"><ele>59.0</ele><time>2026-04-04T13:43:10.734Z</time></trkpt><trkpt lat="42.7476416" lon="10.2635791"><ele>60.833333333333336</ele><time>2026-04-04T13:43:12.734Z</time></trkpt><trkpt lat="42.7475407" lon="10.2634713"><ele>62.66666666666667</ele><time>2026-04-04T13:43:14.734Z</time></trkpt><trkpt lat="42.747459" lon="10.2634554"><ele>64.5</ele><time>2026-04-04T13:43:15.734Z</time></trkpt><trkpt lat="42.7473836" lon="10.2634228"><ele>66.33333333333333</ele><time>2026-04-04T13:43:16.734Z</time></trkpt><trkpt lat="42.7473089" lon="10.2633879"><ele>68.16666666666666</ele><time>2026-04-04T13:43:17.733Z</time></trkpt><trkpt lat="42.7472474" lon="10.2633526"><ele>70.0</ele><time>2026-04-04T13:43:18.734Z</time></trkpt><trkpt lat="42.7471671" lon="10.2632632"><ele>70.0</ele><time>2026-04-04T13:43:20.733Z</time></trkpt><trkpt lat="42.7471248" lon="10.2631377"><ele>70.0</ele><time>2026-04-04T13:43:22.734Z</time></trkpt><trkpt lat="42.7471219" lon="10.2629884"><ele>70.0</ele><time>2026-04-04T13:43:24.734Z</time></trkpt><trkpt lat="42.7471249" lon="10.2628425"><ele>70.0</ele><time>2026-04-04T13:43:26.734Z</time></trkpt><trkpt lat="42.7471516" lon="10.2626855"><ele>70.0</ele><time>2026-04-04T13:43:28.734Z</time></trkpt><trkpt lat="42.7471633" lon="10.2625245"><ele>70.66666666666666</ele><time>2026-04-04T13:43:30.734Z</time></trkpt><trkpt lat="42.7471761" lon="10.2624374"><ele>71.33333333333333</ele><time>2026-04-04T13:43:31.734Z</time></trkpt><trkpt lat="42.7471943" lon="10.2623503"><ele>72.0</ele><time>2026-04-04T13:43:32.734Z</time></trkpt><trkpt lat="42.7472228" lon="10.2622606"><ele>72.66666666666667</ele><time>2026-04-04T13:43:33.734Z</time></trkpt><trkpt lat="42.7472808" lon="10.2621271"><ele>73.33333333333334</ele><time>2026-04-04T13:43:35.733Z</time></trkpt><trkpt lat="42.7473423" lon="10.2619998"><ele>74.0</ele><time>2026-04-04T13:43:37.734Z</time></trkpt><trkpt lat="42.7474341" lon="10.2619085"><ele>72.85714285714286</ele><time>2026-04-04T13:43:39.734Z</time></trkpt><trkpt lat="42.7474876" lon="10.2618625"><ele>71.71428571428571</ele><time>2026-04-04T13:43:40.734Z</time></trkpt><trkpt lat="42.7475462" lon="10.261807"><ele>70.57142857142857</ele><time>2026-04-04T13:43:41.733Z</time></trkpt><trkpt lat="42.7476007" lon="10.2617611"><ele>69.42857142857143</ele><time>2026-04-04T13:43:42.734Z</time></trkpt><trkpt lat="42.7476539" lon="10.2617152"><ele>68.28571428571429</ele><time>2026-04-04T13:43:43.734Z</time></trkpt><trkpt lat="42.7477042" lon="10.2616562"><ele>67.14285714285714</ele><time>2026-04-04T13:43:44.734Z</time></trkpt><trkpt lat="42.7477614" lon="10.2615785"><ele>66.0</ele><time>2026-04-04T13:43:45.734Z</time></trkpt><trkpt lat="42.7478151" lon="10.2615153"><ele>69.4</ele><time>2026-04-04T13:43:46.734Z</time></trkpt><trkpt lat="42.7478804" lon="10.2614275"><ele>72.8</ele><time>2026-04-04T13:43:48.734Z</time></trkpt><trkpt lat="42.7478694" lon="10.261289"><ele>76.2</ele><time>2026-04-04T13:43:50.734Z</time></trkpt><trkpt lat="42.7478168" lon="10.2612216"><ele>79.60000000000001</ele><time>2026-04-04T13:43:51.733Z</time></trkpt><trkpt lat="42.7477362" lon="10.2611664"><ele>83.0</ele><time>2026-04-04T13:43:52.733Z</time></trkpt><trkpt lat="42.7476472" lon="10.2611102"><ele>83.0</ele><time>2026-04-04T13:43:53.734Z</time></trkpt><trkpt lat="42.7475832" lon="10.2610344"><ele>83.0</ele><time>2026-04-04T13:43:54.734Z</time></trkpt><trkpt lat="42.7475206" lon="10.2609714"><ele>83.0</ele><time>2026-04-04T13:43:55.734Z</time></trkpt><trkpt lat="42.7474586" lon="10.2609491"><ele>83.0</ele><time>2026-04-04T13:43:56.734Z</time></trkpt><trkpt lat="42.7473851" lon="10.2609509"><ele>83.0</ele><time>2026-04-04T13:43:57.734Z</time></trkpt><trkpt lat="42.747301" lon="10.260956"><ele>83.0</ele><time>2026-04-04T13:43:59.734Z</time></trkpt><trkpt lat="42.7472103" lon="10.2609354"><ele>83.0</ele><time>2026-04-04T13:44:01.734Z</time></trkpt><trkpt lat="42.7471208" lon="10.2609211"><ele>83.0</ele><time>2026-04-04T13:44:03.734Z</time></trkpt><trkpt lat="42.7470483" lon="10.2608915"><ele>83.0</ele><time>2026-04-04T13:44:05.734Z</time></trkpt><trkpt lat="42.7469714" lon="10.2608576"><ele>83.0</ele><time>2026-04-04T13:44:07.734Z</time></trkpt><trkpt lat="42.7468647" lon="10.2608647"><ele>83.0</ele><time>2026-04-04T13:44:09.734Z</time></trkpt><trkpt lat="42.7467326" lon="10.2608391"><ele>82.5</ele><time>2026-04-04T13:44:11.734Z</time></trkpt><trkpt lat="42.7466508" lon="10.2608287"><ele>82.0</ele><time>2026-04-04T13:44:12.734Z</time></trkpt><trkpt lat="42.7465601" lon="10.2608327"><ele>81.5</ele><time>2026-04-04T13:44:13.734Z</time></trkpt><trkpt lat="42.7464702" lon="10.2608378"><ele>81.0</ele><time>2026-04-04T13:44:14.734Z</time></trkpt><trkpt lat="42.7463964" lon="10.2608382"><ele>80.5</ele><time>2026-04-04T13:44:15.734Z</time></trkpt><trkpt lat="42.7462981" lon="10.2608454"><ele>80.0</ele><time>2026-04-04T13:44:17.734Z</time></trkpt><trkpt lat="42.7462929" lon="10.2607561"><ele>80.0</ele><time>2026-04-04T13:44:28.734Z</time></trkpt><trkpt lat="42.7464052" lon="10.2606676"><ele>80.0</ele><time>2026-04-04T13:44:30.734Z</time></trkpt><trkpt lat="42.7464844" lon="10.2606318"><ele>80.0</ele><time>2026-04-04T13:44:31.734Z</time></trkpt><trkpt lat="42.7465693" lon="10.2605917"><ele>80.0</ele><time>2026-04-04T13:44:32.734Z</time></trkpt><trkpt lat="42.7466583" lon="10.2605388"><ele>80.0</ele><time>2026-04-04T13:44:33.734Z</time></trkpt><trkpt lat="42.7467536" lon="10.2604795"><ele>81.33333333333334</ele><time>2026-04-04T13:44:34.734Z</time></trkpt><trkpt lat="42.7468286" lon="10.2604139"><ele>82.66666666666667</ele><time>2026-04-04T13:44:35.734Z</time></trkpt><trkpt lat="42.7468901" lon="10.2603297"><ele>84.0</ele><time>2026-04-04T13:44:36.734Z</time></trkpt><trkpt lat="42.7469442" lon="10.2602215"><ele>85.33333333333333</ele><time>2026-04-04T13:44:37.734Z</time></trkpt><trkpt lat="42.7469938" lon="10.2601153"><ele>86.66666666666666</ele><time>2026-04-04T13:44:38.734Z</time></trkpt><trkpt lat="42.7470412" lon="10.2600244"><ele>88.0</ele><time>2026-04-04T13:44:39.734Z</time></trkpt><trkpt lat="42.7470748" lon="10.2599126"><ele>91.2</ele><time>2026-04-04T13:44:40.734Z</time></trkpt><trkpt lat="42.7471014" lon="10.2597692"><ele>94.4</ele><time>2026-04-04T13:44:41.734Z</time></trkpt><trkpt lat="42.7471236" lon="10.2596089"><ele>97.60000000000001</ele><time>2026-04-04T13:44:42.733Z</time></trkpt><trkpt lat="42.7471561" lon="10.2594648"><ele>100.80000000000001</ele><time>2026-04-04T13:44:43.733Z</time></trkpt><trkpt lat="42.7471909" lon="10.2593248"><ele>104.0</ele><time>2026-04-04T13:44:44.734Z</time></trkpt><trkpt lat="42.747226" lon="10.2591933"><ele>104.0</ele><time>2026-04-04T13:44:45.733Z</time></trkpt><trkpt lat="42.7472646" lon="10.2590666"><ele>104.0</ele><time>2026-04-04T13:44:46.734Z</time></trkpt><trkpt lat="42.7473003" lon="10.2589394"><ele>104.0</ele><time>2026-04-04T13:44:47.734Z</time></trkpt><trkpt lat="42.747319" lon="10.2588077"><ele>104.0</ele><time>2026-04-04T13:44:48.734Z</time></trkpt><trkpt lat="42.7473088" lon="10.2586588"><ele>104.0</ele><time>2026-04-04T13:44:49.734Z</time></trkpt><trkpt lat="42.7473018" lon="10.2585051"><ele>103.49999999999999</ele><time>2026-04-04T13:44:50.734Z</time></trkpt><trkpt lat="42.7472997" lon="10.2583784"><ele>103.0</ele><time>2026-04-04T13:44:51.734Z</time></trkpt><trkpt lat="42.7473068" lon="10.2582827"><ele>102.5</ele><time>2026-04-04T13:44:52.733Z</time></trkpt><trkpt lat="42.747345" lon="10.2581191"><ele>102.0</ele><time>2026-04-04T13:44:54.734Z</time></trkpt><trkpt lat="42.7473842" lon="10.2580336"><ele>101.49999999999999</ele><time>2026-04-04T13:44:55.734Z</time></trkpt><trkpt lat="42.7474459" lon="10.2579824"><ele>101.0</ele><time>2026-04-04T13:44:56.734Z</time></trkpt><trkpt lat="42.7475709" lon="10.2579527"><ele>100.6</ele><time>2026-04-04T13:44:57.734Z</time></trkpt><trkpt lat="42.7476634" lon="10.2579147"><ele>100.19999999999999</ele><time>2026-04-04T13:44:58.734Z</time></trkpt><trkpt lat="42.747728" lon="10.257862"><ele>99.80000000000001</ele><time>2026-04-04T13:44:59.733Z</time></trkpt><trkpt lat="42.7478174" lon="10.2577837"><ele>99.4</ele><time>2026-04-04T13:45:01.733Z</time></trkpt><trkpt lat="42.7478925" lon="10.2577162"><ele>99.0</ele><time>2026-04-04T13:45:03.734Z</time></trkpt><trkpt lat="42.7479914" lon="10.2576588"><ele>99.0</ele><time>2026-04-04T13:45:05.734Z</time></trkpt><trkpt lat="42.7481045" lon="10.2576034"><ele>99.0</ele><time>2026-04-04T13:45:07.734Z</time></trkpt><trkpt lat="42.7481808" lon="10.2576024"><ele>99.0</ele><time>2026-04-04T13:45:08.734Z</time></trkpt><trkpt lat="42.7482775" lon="10.2576033"><ele>99.0</ele><time>2026-04-04T13:45:09.734Z</time></trkpt><trkpt lat="42.7483809" lon="10.2575937"><ele>99.0</ele><time>2026-04-04T13:45:10.734Z</time></trkpt><trkpt lat="42.7484825" lon="10.2575629"><ele>100.83333333333333</ele><time>2026-04-04T13:45:11.734Z</time></trkpt><trkpt lat="42.7485706" lon="10.2575356"><ele>102.66666666666666</ele><time>2026-04-04T13:45:12.734Z</time></trkpt><trkpt lat="42.7486596" lon="10.2575235"><ele>104.5</ele><time>2026-04-04T13:45:13.733Z</time></trkpt><trkpt lat="42.7487385" lon="10.2575106"><ele>106.33333333333333</ele><time>2026-04-04T13:45:14.733Z</time></trkpt><trkpt lat="42.7487946" lon="10.2574419"><ele>108.16666666666666</ele><time>2026-04-04T13:45:15.734Z</time></trkpt><trkpt lat="42.7488445" lon="10.2573226"><ele>110.0</ele><time>2026-04-04T13:45:16.734Z</time></trkpt><trkpt lat="42.7488839" lon="10.2571855"><ele>110.0</ele><time>2026-04-04T13:45:17.733Z</time></trkpt><trkpt lat="42.7488941" lon="10.2570284"><ele>110.0</ele><time>2026-04-04T13:45:18.734Z</time></trkpt><trkpt lat="42.7488852" lon="10.2568439"><ele>110.0</ele><time>2026-04-04T13:45:19.734Z</time></trkpt><trkpt lat="42.7488757" lon="10.2566819"><ele>110.0</ele><time>2026-04-04T13:45:20.734Z</time></trkpt><trkpt lat="42.7488701" lon="10.2565306"><ele>109.6</ele><time>2026-04-04T13:45:21.734Z</time></trkpt><trkpt lat="42.748866" lon="10.2563847"><ele>109.2</ele><time>2026-04-04T13:45:22.734Z</time></trkpt><trkpt lat="42.7488573" lon="10.2562338"><ele>108.80000000000001</ele><time>2026-04-04T13:45:23.734Z</time></trkpt><trkpt lat="42.7488606" lon="10.2560857"><ele>108.4</ele><time>2026-04-04T13:45:24.734Z</time></trkpt><trkpt lat="42.7488654" lon="10.2559448"><ele>108.0</ele><time>2026-04-04T13:45:25.734Z</time></trkpt><trkpt lat="42.7488798" lon="10.2558059"><ele>108.0</ele><time>2026-04-04T13:45:26.734Z</time></trkpt><trkpt lat="42.7488881" lon="10.2556664"><ele>108.00000000000001</ele><time>2026-04-04T13:45:27.734Z</time></trkpt><trkpt lat="42.7488941" lon="10.2555254"><ele>108.00000000000001</ele><time>2026-04-04T13:45:28.734Z</time></trkpt><trkpt lat="42.7489049" lon="10.255413"><ele>108.0</ele><time>2026-04-04T13:45:29.734Z</time></trkpt><trkpt lat="42.7489359" lon="10.2552869"><ele>108.0</ele><time>2026-04-04T13:45:31.734Z</time></trkpt><trkpt lat="42.7489972" lon="10.2552152"><ele>107.0</ele><time>2026-04-04T13:45:33.734Z</time></trkpt><trkpt lat="42.749093" lon="10.2551561"><ele>106.00000000000001</ele><time>2026-04-04T13:45:35.734Z</time></trkpt><trkpt lat="42.7491593" lon="10.2550388"><ele>105.0</ele><time>2026-04-04T13:45:37.734Z</time></trkpt><trkpt lat="42.7491673" lon="10.2549448"><ele>104.0</ele><time>2026-04-04T13:45:38.734Z</time></trkpt><trkpt lat="42.7491695" lon="10.2548323"><ele>103.0</ele><time>2026-04-04T13:45:39.734Z</time></trkpt><trkpt lat="42.7491699" lon="10.254713"><ele>102.50000000000001</ele><time>2026-04-04T13:45:40.734Z</time></trkpt><trkpt lat="42.7491607" lon="10.2545945"><ele>102.0</ele><time>2026-04-04T13:45:41.734Z</time></trkpt><trkpt lat="42.7491472" lon="10.2544817"><ele>101.5</ele><time>2026-04-04T13:45:42.734Z</time></trkpt><trkpt lat="42.7491403" lon="10.2543668"><ele>101.0</ele><time>2026-04-04T13:45:43.734Z</time></trkpt><trkpt lat="42.7491442" lon="10.2542405"><ele>100.50000000000001</ele><time>2026-04-04T13:45:44.734Z</time></trkpt><trkpt lat="42.7491507" lon="10.2541185"><ele>100.0</ele><time>2026-04-04T13:45:45.734Z</time></trkpt><trkpt lat="42.7491627" lon="10.2540065"><ele>100.66666666666667</ele><time>2026-04-04T13:45:46.734Z</time></trkpt><trkpt lat="42.7491745" lon="10.2539092"><ele>101.33333333333334</ele><time>2026-04-04T13:45:47.734Z</time></trkpt><trkpt lat="42.7491863" lon="10.2538247"><ele>102.0</ele><time>2026-04-04T13:45:48.734Z</time></trkpt><trkpt lat="42.7492557" lon="10.253705"><ele>102.66666666666666</ele><time>2026-04-04T13:45:50.734Z</time></trkpt><trkpt lat="42.74932" lon="10.2536552"><ele>103.33333333333333</ele><time>2026-04-04T13:45:51.734Z</time></trkpt><trkpt lat="42.7493908" lon="10.2536094"><ele>104.0</ele><time>2026-04-04T13:45:52.734Z</time></trkpt><trkpt lat="42.749456" lon="10.2535564"><ele>98.83333333333333</ele><time>2026-04-04T13:45:53.734Z</time></trkpt><trkpt lat="42.749519" lon="10.2534822"><ele>93.66666666666666</ele><time>2026-04-04T13:45:54.733Z</time></trkpt><trkpt lat="42.7495747" lon="10.2534"><ele>88.5</ele><time>2026-04-04T13:45:55.734Z</time></trkpt><trkpt lat="42.7496259" lon="10.2533068"><ele>83.33333333333333</ele><time>2026-04-04T13:45:56.734Z</time></trkpt><trkpt lat="42.7496815" lon="10.2532017"><ele>78.16666666666666</ele><time>2026-04-04T13:45:57.734Z</time></trkpt><trkpt lat="42.7497386" lon="10.2530974"><ele>73.0</ele><time>2026-04-04T13:45:58.734Z</time></trkpt><trkpt lat="42.74979" lon="10.2530063"><ele>73.0</ele><time>2026-04-04T13:45:59.734Z</time></trkpt><trkpt lat="42.7498442" lon="10.2529204"><ele>73.0</ele><time>2026-04-04T13:46:00.734Z</time></trkpt><trkpt lat="42.7499041" lon="10.2528482"><ele>73.0</ele><time>2026-04-04T13:46:01.734Z</time></trkpt><trkpt lat="42.7499677" lon="10.2527862"><ele>73.0</ele><time>2026-04-04T13:46:02.734Z</time></trkpt><trkpt lat="42.7500264" lon="10.2527222"><ele>73.0</ele><time>2026-04-04T13:46:03.734Z</time></trkpt><trkpt lat="42.7500783" lon="10.2526541"><ele>73.0</ele><time>2026-04-04T13:46:04.734Z</time></trkpt><trkpt lat="42.7501175" lon="10.2525754"><ele>73.0</ele><time>2026-04-04T13:46:05.733Z</time></trkpt><trkpt lat="42.750144" lon="10.2524928"><ele>73.0</ele><time>2026-04-04T13:46:06.734Z</time></trkpt><trkpt lat="42.7501625" lon="10.2523974"><ele>73.0</ele><time>2026-04-04T13:46:07.734Z</time></trkpt><trkpt lat="42.7501694" lon="10.2522889"><ele>73.0</ele><time>2026-04-04T13:46:08.734Z</time></trkpt><trkpt lat="42.7501699" lon="10.2521766"><ele>73.0</ele><time>2026-04-04T13:46:09.734Z</time></trkpt><trkpt lat="42.750163" lon="10.2520713"><ele>73.0</ele><time>2026-04-04T13:46:10.734Z</time></trkpt><trkpt lat="42.7501545" lon="10.2519718"><ele>71.16666666666666</ele><time>2026-04-04T13:46:11.734Z</time></trkpt><trkpt lat="42.7501375" lon="10.2518848"><ele>69.33333333333333</ele><time>2026-04-04T13:46:12.734Z</time></trkpt><trkpt lat="42.7501121" lon="10.2517947"><ele>67.5</ele><time>2026-04-04T13:46:13.734Z</time></trkpt><trkpt lat="42.7500831" lon="10.2517166"><ele>65.66666666666667</ele><time>2026-04-04T13:46:14.734Z</time></trkpt><trkpt lat="42.7500439" lon="10.2515853"><ele>63.833333333333336</ele><time>2026-04-04T13:46:16.734Z</time></trkpt><trkpt lat="42.750109" lon="10.2515054"><ele>62.0</ele><time>2026-04-04T13:46:19.733Z</time></trkpt><trkpt lat="42.7501596" lon="10.2515766"><ele>62.00000000000001</ele><time>2026-04-04T13:46:21.734Z</time></trkpt><trkpt lat="42.7501993" lon="10.2516893"><ele>62.0</ele><time>2026-04-04T13:46:23.733Z</time></trkpt><trkpt lat="42.7502708" lon="10.2516827"><ele>62.0</ele><time>2026-04-04T13:46:25.734Z</time></trkpt><trkpt lat="42.7503066" lon="10.2515555"><ele>62.0</ele><time>2026-04-04T13:46:27.734Z</time></trkpt><trkpt lat="42.7502859" lon="10.2514544"><ele>62.00000000000001</ele><time>2026-04-04T13:46:28.734Z</time></trkpt><trkpt lat="42.7502467" lon="10.2513592"><ele>62.0</ele><time>2026-04-04T13:46:29.734Z</time></trkpt><trkpt lat="42.7502032" lon="10.2512931"><ele>59.333333333333336</ele><time>2026-04-04T13:46:30.734Z</time></trkpt><trkpt lat="42.7501773" lon="10.2511752"><ele>56.66666666666667</ele><time>2026-04-04T13:46:32.734Z</time></trkpt><trkpt lat="42.7502255" lon="10.2510139"><ele>54.0</ele><time>2026-04-04T13:46:34.734Z</time></trkpt><trkpt lat="42.750268" lon="10.2509261"><ele>51.333333333333336</ele><time>2026-04-04T13:46:35.734Z</time></trkpt><trkpt lat="42.7503063" lon="10.2508548"><ele>48.66666666666667</ele><time>2026-04-04T13:46:36.734Z</time></trkpt><trkpt lat="42.750335" lon="10.2507701"><ele>46.0</ele><time>2026-04-04T13:46:37.734Z</time></trkpt><trkpt lat="42.7503717" lon="10.2506893"><ele>43.5</ele><time>2026-04-04T13:46:38.733Z</time></trkpt><trkpt lat="42.7504473" lon="10.2505723"><ele>41.0</ele><time>2026-04-04T13:46:40.734Z</time></trkpt><trkpt lat="42.7505563" lon="10.2505596"><ele>38.5</ele><time>2026-04-04T13:46:42.734Z</time></trkpt><trkpt lat="42.7506463" lon="10.2506675"><ele>36.0</ele><time>2026-04-04T13:46:44.734Z</time></trkpt><trkpt lat="42.7506918" lon="10.2508025"><ele>36.0</ele><time>2026-04-04T13:46:46.733Z</time></trkpt><trkpt lat="42.7507783" lon="10.2507669"><ele>36.0</ele><time>2026-04-04T13:46:49.734Z</time></trkpt><trkpt lat="42.7508037" lon="10.2506873"><ele>36.0</ele><time>2026-04-04T13:46:50.734Z</time></trkpt><trkpt lat="42.7508156" lon="10.2505604"><ele>36.0</ele><time>2026-04-04T13:46:51.734Z</time></trkpt><trkpt lat="42.7508211" lon="10.2504252"><ele>36.0</ele><time>2026-04-04T13:46:52.734Z</time></trkpt><trkpt lat="42.7508239" lon="10.2503095"><ele>36.0</ele><time>2026-04-04T13:46:53.734Z</time></trkpt><trkpt lat="42.7508252" lon="10.2502005"><ele>34.4</ele><time>2026-04-04T13:46:54.734Z</time></trkpt><trkpt lat="42.7508248" lon="10.2500903"><ele>32.8</ele><time>2026-04-04T13:46:55.734Z</time></trkpt><trkpt lat="42.7508067" lon="10.249981"><ele>31.199999999999996</ele><time>2026-04-04T13:46:56.733Z</time></trkpt><trkpt lat="42.7507764" lon="10.2498872"><ele>29.599999999999998</ele><time>2026-04-04T13:46:57.734Z</time></trkpt><trkpt lat="42.7507675" lon="10.2497518"><ele>28.0</ele><time>2026-04-04T13:46:59.734Z</time></trkpt><trkpt lat="42.7508833" lon="10.2496497"><ele>25.0</ele><time>2026-04-04T13:47:01.734Z</time></trkpt><trkpt lat="42.750976" lon="10.2495937"><ele>21.999999999999996</ele><time>2026-04-04T13:47:02.733Z</time></trkpt><trkpt lat="42.7510682" lon="10.2495253"><ele>19.0</ele><time>2026-04-04T13:47:03.734Z</time></trkpt><trkpt lat="42.7511497" lon="10.2494499"><ele>16.0</ele><time>2026-04-04T13:47:04.734Z</time></trkpt><trkpt lat="42.7512249" lon="10.2493672"><ele>13.0</ele><time>2026-04-04T13:47:05.734Z</time></trkpt><trkpt lat="42.7512955" lon="10.249287"><ele>11.833333333333332</ele><time>2026-04-04T13:47:06.734Z</time></trkpt><trkpt lat="42.7513624" lon="10.2492128"><ele>10.666666666666666</ele><time>2026-04-04T13:47:07.734Z</time></trkpt><trkpt lat="42.7514332" lon="10.2491471"><ele>9.5</ele><time>2026-04-04T13:47:08.734Z</time></trkpt><trkpt lat="42.7515122" lon="10.2491069"><ele>8.333333333333332</ele><time>2026-04-04T13:47:09.734Z</time></trkpt><trkpt lat="42.751589" lon="10.249095"><ele>7.166666666666666</ele><time>2026-04-04T13:47:10.734Z</time></trkpt><trkpt lat="42.7516672" lon="10.2490962"><ele>6.0</ele><time>2026-04-04T13:47:11.734Z</time></trkpt><trkpt lat="42.7517479" lon="10.2491276"><ele>6.0</ele><time>2026-04-04T13:47:12.734Z</time></trkpt><trkpt lat="42.75181" lon="10.2491534"><ele>6.0</ele><time>2026-04-04T13:47:13.734Z</time></trkpt><trkpt lat="42.7519038" lon="10.2490744"><ele>6.0</ele><time>2026-04-04T13:47:15.733Z</time></trkpt><trkpt lat="42.7519299" lon="10.2489715"><ele>6.0</ele><time>2026-04-04T13:47:16.734Z</time></trkpt><trkpt lat="42.7519577" lon="10.2488321"><ele>6.0</ele><time>2026-04-04T13:47:17.734Z</time></trkpt><trkpt lat="42.7519905" lon="10.2486935"><ele>5.5</ele><time>2026-04-04T13:47:18.733Z</time></trkpt><trkpt lat="42.7520273" lon="10.248571"><ele>5.0</ele><time>2026-04-04T13:47:19.734Z</time></trkpt><trkpt lat="42.7520731" lon="10.2484895"><ele>4.5</ele><time>2026-04-04T13:47:20.734Z</time></trkpt><trkpt lat="42.7521357" lon="10.2484428"><ele>4.0</ele><time>2026-04-04T13:47:21.733Z</time></trkpt><trkpt lat="42.7522191" lon="10.2484147"><ele>3.5</ele><time>2026-04-04T13:47:22.734Z</time></trkpt><trkpt lat="42.7523129" lon="10.2484238"><ele>3.0</ele><time>2026-04-04T13:47:23.734Z</time></trkpt><trkpt lat="42.7524187" lon="10.2484505"><ele>3.0</ele><time>2026-04-04T13:47:24.734Z</time></trkpt><trkpt lat="42.7525235" lon="10.2485003"><ele>3.0</ele><time>2026-04-04T13:47:25.734Z</time></trkpt><trkpt lat="42.7526055" lon="10.2485583"><ele>3.0</ele><time>2026-04-04T13:47:26.734Z</time></trkpt><trkpt lat="42.7526848" lon="10.2486025"><ele>3.0</ele><time>2026-04-04T13:47:27.734Z</time></trkpt><trkpt lat="42.7527621" lon="10.2486298"><ele>3.0</ele><time>2026-04-04T13:47:28.734Z</time></trkpt><trkpt lat="42.7528351" lon="10.2486566"><ele>3.0</ele><time>2026-04-04T13:47:30.734Z</time></trkpt><trkpt lat="42.7527936" lon="10.2487519"><ele>3.3333333333333335</ele><time>2026-04-04T13:47:34.734Z</time></trkpt><trkpt lat="42.7527453" lon="10.2488311"><ele>3.666666666666667</ele><time>2026-04-04T13:47:36.734Z</time></trkpt><trkpt lat="42.7527269" lon="10.2489195"><ele>4.0</ele><time>2026-04-04T13:47:38.734Z</time></trkpt><trkpt lat="42.7527017" lon="10.249002"><ele>4.333333333333334</ele><time>2026-04-04T13:47:40.734Z</time></trkpt><trkpt lat="42.7526578" lon="10.2491194"><ele>4.666666666666667</ele><time>2026-04-04T13:47:42.734Z</time></trkpt><trkpt lat="42.7526167" lon="10.2492261"><ele>5.0</ele><time>2026-04-04T13:47:44.734Z</time></trkpt><trkpt lat="42.7525345" lon="10.2492658"><ele>5.0</ele><time>2026-04-04T13:47:47.734Z</time></trkpt><trkpt lat="42.7525125" lon="10.2491577"><ele>5.0</ele><time>2026-04-04T13:47:49.734Z</time></trkpt><trkpt lat="42.7525414" lon="10.2490313"><ele>5.0</ele><time>2026-04-04T13:47:51.734Z</time></trkpt><trkpt lat="42.7525696" lon="10.248946"><ele>5.0</ele><time>2026-04-04T13:47:53.734Z</time></trkpt><trkpt lat="42.7526651" lon="10.2488675"><ele>5.0</ele><time>2026-04-04T13:47:55.734Z</time></trkpt><trkpt lat="42.7527608" lon="10.2487764"><ele>5.4</ele><time>2026-04-04T13:47:57.734Z</time></trkpt><trkpt lat="42.7528057" lon="10.2487033"><ele>5.8</ele><time>2026-04-04T13:47:59.734Z</time></trkpt><trkpt lat="42.752914" lon="10.2486914"><ele>6.199999999999999</ele><time>2026-04-04T13:48:01.734Z</time></trkpt><trkpt lat="42.7530279" lon="10.2486684"><ele>6.6</ele><time>2026-04-04T13:48:03.734Z</time></trkpt><trkpt lat="42.7531168" lon="10.2486128"><ele>7.0</ele><time>2026-04-04T13:48:05.734Z</time></trkpt><trkpt lat="42.7531654" lon="10.2485185"><ele>7.000000000000001</ele><time>2026-04-04T13:48:07.734Z</time></trkpt><trkpt lat="42.7532154" lon="10.2484265"><ele>7.0</ele><time>2026-04-04T13:48:26.734Z</time></trkpt><trkpt lat="42.7532776" lon="10.2483609"><ele>7.0</ele><time>2026-04-04T13:48:28.734Z</time></trkpt><trkpt lat="42.7532854" lon="10.2482704"><ele>7.0</ele><time>2026-04-04T13:48:32.734Z</time></trkpt><trkpt lat="42.7532289" lon="10.2483876"><ele>7.000000000000001</ele><time>2026-04-04T13:48:38.734Z</time></trkpt><trkpt lat="42.7531962" lon="10.2484621"><ele>7.0</ele><time>2026-04-04T13:48:39.734Z</time></trkpt><trkpt lat="42.7531558" lon="10.2485345"><ele>7.000000000000001</ele><time>2026-04-04T13:48:40.734Z</time></trkpt><trkpt lat="42.7530998" lon="10.2486022"><ele>7.0</ele><time>2026-04-04T13:48:41.733Z</time></trkpt><trkpt lat="42.7530473" lon="10.2486545"><ele>7.0</ele><time>2026-04-04T13:48:42.734Z</time></trkpt><trkpt lat="42.7529743" lon="10.2486742"><ele>7.0</ele><time>2026-04-04T13:48:43.734Z</time></trkpt><trkpt lat="42.7529085" lon="10.2486716"><ele>7.000000000000001</ele><time>2026-04-04T13:48:44.733Z</time></trkpt><trkpt lat="42.7528132" lon="10.2487318"><ele>7.0</ele><time>2026-04-04T13:48:46.734Z</time></trkpt><trkpt lat="42.7527752" lon="10.2488277"><ele>7.000000000000001</ele><time>2026-04-04T13:48:47.734Z</time></trkpt><trkpt lat="42.7527408" lon="10.2489434"><ele>7.0</ele><time>2026-04-04T13:48:48.733Z</time></trkpt><trkpt lat="42.7526964" lon="10.249058"><ele>7.0</ele><time>2026-04-04T13:48:49.734Z</time></trkpt><trkpt lat="42.7526604" lon="10.2491545"><ele>7.0</ele><time>2026-04-04T13:48:50.734Z</time></trkpt><trkpt lat="42.7526226" lon="10.2492481"><ele>7.000000000000001</ele><time>2026-04-04T13:48:51.734Z</time></trkpt><trkpt lat="42.7525891" lon="10.2493757"><ele>7.0</ele><time>2026-04-04T13:48:53.734Z</time></trkpt><trkpt lat="42.7526313" lon="10.2495164"><ele>6.6</ele><time>2026-04-04T13:48:56.734Z</time></trkpt><trkpt lat="42.7527006" lon="10.2496365"><ele>6.199999999999999</ele><time>2026-04-04T13:48:58.734Z</time></trkpt><trkpt lat="42.7527741" lon="10.2496559"><ele>5.8</ele><time>2026-04-04T13:49:00.734Z</time></trkpt><trkpt lat="42.752803" lon="10.2495237"><ele>5.4</ele><time>2026-04-04T13:49:02.734Z</time></trkpt><trkpt lat="42.7528289" lon="10.249413"><ele>5.0</ele><time>2026-04-04T13:49:03.734Z</time></trkpt><trkpt lat="42.7528577" lon="10.2493015"><ele>5.333333333333334</ele><time>2026-04-04T13:49:04.734Z</time></trkpt><trkpt lat="42.7528795" lon="10.2491953"><ele>5.666666666666667</ele><time>2026-04-04T13:49:05.734Z</time></trkpt><trkpt lat="42.7528966" lon="10.2491121"><ele>6.0</ele><time>2026-04-04T13:49:06.734Z</time></trkpt><trkpt lat="42.7529525" lon="10.2489754"><ele>6.333333333333334</ele><time>2026-04-04T13:49:08.734Z</time></trkpt><trkpt lat="42.7530177" lon="10.2488743"><ele>6.666666666666667</ele><time>2026-04-04T13:49:10.734Z</time></trkpt><trkpt lat="42.7530103" lon="10.2487632"><ele>7.0</ele><time>2026-04-04T13:49:13.734Z</time></trkpt><trkpt lat="42.753054" lon="10.2486896"><ele>7.000000000000001</ele><time>2026-04-04T13:49:21.734Z</time></trkpt><trkpt lat="42.7531129" lon="10.2486319"><ele>7.0</ele><time>2026-04-04T13:49:22.733Z</time></trkpt><trkpt lat="42.7531622" lon="10.2485679"><ele>7.0</ele><time>2026-04-04T13:49:23.734Z</time></trkpt><trkpt lat="42.7532263" lon="10.2484878"><ele>7.0</ele><time>2026-04-04T13:49:25.734Z</time></trkpt><trkpt lat="42.7532566" lon="10.2483777"><ele>7.000000000000001</ele><time>2026-04-04T13:50:17.734Z</time></trkpt><trkpt lat="42.7533038" lon="10.2483093"><ele>7.0</ele><time>2026-04-04T13:50:18.734Z</time></trkpt><trkpt lat="42.7533585" lon="10.2482269"><ele>7.0</ele><time>2026-04-04T13:50:19.734Z</time></trkpt><trkpt lat="42.7534186" lon="10.2481319"><ele>6.999999999999999</ele><time>2026-04-04T13:50:20.734Z</time></trkpt><trkpt lat="42.753488" lon="10.2480338"><ele>6.999999999999999</ele><time>2026-04-04T13:50:21.733Z</time></trkpt><trkpt lat="42.7535683" lon="10.2479345"><ele>7.0</ele><time>2026-04-04T13:50:22.734Z</time></trkpt><trkpt lat="42.7536478" lon="10.2478434"><ele>7.0</ele><time>2026-04-04T13:50:23.734Z</time></trkpt><trkpt lat="42.7537133" lon="10.2477584"><ele>6.666666666666667</ele><time>2026-04-04T13:50:24.734Z</time></trkpt><trkpt lat="42.753775" lon="10.2476792"><ele>6.333333333333334</ele><time>2026-04-04T13:50:25.734Z</time></trkpt><trkpt lat="42.7538333" lon="10.2475999"><ele>6.0</ele><time>2026-04-04T13:50:26.734Z</time></trkpt><trkpt lat="42.7538894" lon="10.2475269"><ele>5.666666666666667</ele><time>2026-04-04T13:50:27.734Z</time></trkpt><trkpt lat="42.7539401" lon="10.247464"><ele>5.333333333333334</ele><time>2026-04-04T13:50:28.734Z</time></trkpt><trkpt lat="42.7540443" lon="10.2473732"><ele>5.0</ele><time>2026-04-04T13:50:30.734Z</time></trkpt><trkpt lat="42.7541058" lon="10.2473394"><ele>4.5</ele><time>2026-04-04T13:50:31.733Z</time></trkpt><trkpt lat="42.7541944" lon="10.2472815"><ele>4.0</ele><time>2026-04-04T13:50:33.734Z</time></trkpt><trkpt lat="42.7542232" lon="10.2471448"><ele>3.5</ele><time>2026-04-04T13:50:40.734Z</time></trkpt><trkpt lat="42.7541912" lon="10.247058"><ele>3.0</ele><time>2026-04-04T13:50:41.734Z</time></trkpt><trkpt lat="42.7541377" lon="10.2469785"><ele>2.5</ele><time>2026-04-04T13:50:42.734Z</time></trkpt><trkpt lat="42.7540779" lon="10.2468824"><ele>2.0</ele><time>2026-04-04T13:50:43.734Z</time></trkpt><trkpt lat="42.7540118" lon="10.2467694"><ele>2.0</ele><time>2026-04-04T13:50:44.733Z</time></trkpt><trkpt lat="42.7539394" lon="10.2466465"><ele>2.0</ele><time>2026-04-04T13:50:45.733Z</time></trkpt><trkpt lat="42.7538649" lon="10.2465182"><ele>2.0</ele><time>2026-04-04T13:50:46.734Z</time></trkpt><trkpt lat="42.7537838" lon="10.2463809"><ele>2.0</ele><time>2026-04-04T13:50:47.734Z</time></trkpt><trkpt lat="42.7537003" lon="10.2462405"><ele>1.75</ele><time>2026-04-04T13:50:48.734Z</time></trkpt><trkpt lat="42.7536156" lon="10.2460977"><ele>1.5</ele><time>2026-04-04T13:50:49.734Z</time></trkpt><trkpt lat="42.7535298" lon="10.2459641"><ele>1.25</ele><time>2026-04-04T13:50:50.734Z</time></trkpt><trkpt lat="42.7534437" lon="10.245825"><ele>1.0</ele><time>2026-04-04T13:50:51.734Z</time></trkpt><trkpt lat="42.7533515" lon="10.2456884"><ele>1.0</ele><time>2026-04-04T13:50:52.734Z</time></trkpt><trkpt lat="42.753261" lon="10.2455465"><ele>1.0</ele><time>2026-04-04T13:50:53.734Z</time></trkpt><trkpt lat="42.753167" lon="10.2454069"><ele>1.0</ele><time>2026-04-04T13:50:54.734Z</time></trkpt><trkpt lat="42.7530764" lon="10.2452615"><ele>1.0</ele><time>2026-04-04T13:50:55.734Z</time></trkpt><trkpt lat="42.7529903" lon="10.2451255"><ele>1.0</ele><time>2026-04-04T13:50:56.734Z</time></trkpt><trkpt lat="42.7529173" lon="10.2449919"><ele>1.0</ele><time>2026-04-04T13:50:57.734Z</time></trkpt><trkpt lat="42.7528356" lon="10.2448655"><ele>1.0</ele><time>2026-04-04T13:50:58.734Z</time></trkpt><trkpt lat="42.7527781" lon="10.2447587"><ele>1.0</ele><time>2026-04-04T13:50:59.734Z</time></trkpt><trkpt lat="42.7527282" lon="10.2446571"><ele>1.0</ele><time>2026-04-04T13:51:00.734Z</time></trkpt><trkpt lat="42.7526793" lon="10.2445553"><ele>0.9999999999999999</ele><time>2026-04-04T13:51:01.733Z</time></trkpt><trkpt lat="42.7526368" lon="10.2444673"><ele>1.0</ele><time>2026-04-04T13:51:02.734Z</time></trkpt><trkpt lat="42.7525866" lon="10.2443963"><ele>1.0</ele><time>2026-04-04T13:51:03.734Z</time></trkpt><trkpt lat="42.7525184" lon="10.2443584"><ele>1.0</ele><time>2026-04-04T13:51:04.734Z</time></trkpt><trkpt lat="42.752446" lon="10.2443498"><ele>0.9999999999999999</ele><time>2026-04-04T13:51:05.734Z</time></trkpt><trkpt lat="42.7523602" lon="10.2443657"><ele>1.0</ele><time>2026-04-04T13:51:06.734Z</time></trkpt><trkpt lat="42.7522657" lon="10.2444057"><ele>1.0</ele><time>2026-04-04T13:51:07.734Z</time></trkpt><trkpt lat="42.7521764" lon="10.2444662"><ele>1.0</ele><time>2026-04-04T13:51:08.733Z</time></trkpt><trkpt lat="42.7520889" lon="10.2445523"><ele>1.0</ele><time>2026-04-04T13:51:09.733Z</time></trkpt><trkpt lat="42.7520162" lon="10.244637"><ele>1.0</ele><time>2026-04-04T13:51:10.733Z</time></trkpt><trkpt lat="42.7519424" lon="10.2447205"><ele>1.0</ele><time>2026-04-04T13:51:11.734Z</time></trkpt><trkpt lat="42.7518633" lon="10.2447972"><ele>1.0</ele><time>2026-04-04T13:51:12.734Z</time></trkpt><trkpt lat="42.751793" lon="10.2448758"><ele>1.0</ele><time>2026-04-04T13:51:13.734Z</time></trkpt><trkpt lat="42.7517061" lon="10.2449502"><ele>1.0</ele><time>2026-04-04T13:51:14.734Z</time></trkpt><trkpt lat="42.751613" lon="10.2450164"><ele>1.0</ele><time>2026-04-04T13:51:15.734Z</time></trkpt><trkpt lat="42.7515198" lon="10.2450754"><ele>1.0</ele><time>2026-04-04T13:51:16.734Z</time></trkpt><trkpt lat="42.7514292" lon="10.2451076"><ele>0.9999999999999999</ele><time>2026-04-04T13:51:17.734Z</time></trkpt><trkpt lat="42.7513396" lon="10.2451374"><ele>1.0</ele><time>2026-04-04T13:51:18.734Z</time></trkpt><trkpt lat="42.7512551" lon="10.2451556"><ele>1.0</ele><time>2026-04-04T13:51:19.734Z</time></trkpt><trkpt lat="42.7511624" lon="10.2451646"><ele>1.0</ele><time>2026-04-04T13:51:20.734Z</time></trkpt><trkpt lat="42.7510893" lon="10.2451786"><ele>0.9999999999999999</ele><time>2026-04-04T13:51:21.734Z</time></trkpt><trkpt lat="42.751004" lon="10.2451894"><ele>1.0</ele><time>2026-04-04T13:51:22.734Z</time></trkpt><trkpt lat="42.7509196" lon="10.2452017"><ele>1.1666666666666665</ele><time>2026-04-04T13:51:23.734Z</time></trkpt><trkpt lat="42.7508404" lon="10.2452108"><ele>1.3333333333333333</ele><time>2026-04-04T13:51:24.734Z</time></trkpt><trkpt lat="42.7507577" lon="10.2452196"><ele>1.5</ele><time>2026-04-04T13:51:25.734Z</time></trkpt><trkpt lat="42.7506806" lon="10.2452216"><ele>1.6666666666666665</ele><time>2026-04-04T13:51:26.733Z</time></trkpt><trkpt lat="42.7505998" lon="10.2452283"><ele>1.8333333333333333</ele><time>2026-04-04T13:51:27.734Z</time></trkpt><trkpt lat="42.7505331" lon="10.2452295"><ele>2.0</ele><time>2026-04-04T13:51:28.734Z</time></trkpt><trkpt lat="42.7504694" lon="10.2452309"><ele>1.9999999999999998</ele><time>2026-04-04T13:51:29.734Z</time></trkpt><trkpt lat="42.7503852" lon="10.2452377"><ele>2.0</ele><time>2026-04-04T13:51:31.733Z</time></trkpt><trkpt lat="42.7503032" lon="10.2452579"><ele>2.0</ele><time>2026-04-04T13:51:47.734Z</time></trkpt><trkpt lat="42.7502315" lon="10.2452705"><ele>2.0</ele><time>2026-04-04T13:51:50.734Z</time></trkpt><trkpt lat="42.7501635" lon="10.2452909"><ele>1.9999999999999998</ele><time>2026-04-04T13:51:53.733Z</time></trkpt><trkpt lat="42.7501002" lon="10.245295"><ele>2.0</ele><time>2026-04-04T13:51:57.734Z</time></trkpt><trkpt lat="42.7500069" lon="10.2453062"><ele>1.857142857142857</ele><time>2026-04-04T13:52:18.734Z</time></trkpt><trkpt lat="42.749937" lon="10.2453209"><ele>1.714285714285714</ele><time>2026-04-04T13:52:19.734Z</time></trkpt><trkpt lat="42.7498557" lon="10.2453404"><ele>1.5714285714285714</ele><time>2026-04-04T13:52:20.734Z</time></trkpt><trkpt lat="42.7497873" lon="10.2453561"><ele>1.4285714285714284</ele><time>2026-04-04T13:52:21.734Z</time></trkpt><trkpt lat="42.7497202" lon="10.2453634"><ele>1.2857142857142856</ele><time>2026-04-04T13:52:22.734Z</time></trkpt><trkpt lat="42.7496572" lon="10.2453696"><ele>1.1428571428571428</ele><time>2026-04-04T13:52:23.734Z</time></trkpt><trkpt lat="42.7495866" lon="10.2453869"><ele>1.0</ele><time>2026-04-04T13:52:25.734Z</time></trkpt><trkpt lat="42.7495493" lon="10.2454706"><ele>1.0</ele><time>2026-04-04T13:52:28.734Z</time></trkpt><trkpt lat="42.7496002" lon="10.2455232"><ele>1.0</ele><time>2026-04-04T13:52:31.734Z</time></trkpt><trkpt lat="42.749579" lon="10.2454424"><ele>1.0</ele><time>2026-04-04T13:53:46.734Z</time></trkpt></trkseg><trkseg><trkpt lat="42.7496262" lon="10.2453762"><ele>0.9999999999999999</ele><time>2026-04-04T14:28:54.723Z</time></trkpt><trkpt lat="42.749692" lon="10.2453477"><ele>1.0</ele><time>2026-04-04T14:28:57.723Z</time></trkpt><trkpt lat="42.749783" lon="10.2453394"><ele>1.0</ele><time>2026-04-04T14:28:59.723Z</time></trkpt><trkpt lat="42.7498687" lon="10.2453272"><ele>1.0</ele><time>2026-04-04T14:29:01.723Z</time></trkpt><trkpt lat="42.74995" lon="10.2453201"><ele>0.9999999999999999</ele><time>2026-04-04T14:29:03.722Z</time></trkpt><trkpt lat="42.750029" lon="10.2453096"><ele>1.0</ele><time>2026-04-04T14:29:06.723Z</time></trkpt><trkpt lat="42.7501142" lon="10.2453081"><ele>0.9999999999999999</ele><time>2026-04-04T14:29:10.723Z</time></trkpt><trkpt lat="42.7501946" lon="10.2453065"><ele>1.0</ele><time>2026-04-04T14:29:44.723Z</time></trkpt><trkpt lat="42.7503051" lon="10.2452842"><ele>1.0</ele><time>2026-04-04T14:29:46.723Z</time></trkpt><trkpt lat="42.7503703" lon="10.2452784"><ele>1.0</ele><time>2026-04-04T14:29:47.723Z</time></trkpt><trkpt lat="42.7504451" lon="10.2452649"><ele>0.9999999999999999</ele><time>2026-04-04T14:29:48.723Z</time></trkpt><trkpt lat="42.7505274" lon="10.2452556"><ele>1.0</ele><time>2026-04-04T14:29:49.723Z</time></trkpt><trkpt lat="42.7506062" lon="10.2452454"><ele>1.0</ele><time>2026-04-04T14:29:50.722Z</time></trkpt><trkpt lat="42.7506762" lon="10.2452366"><ele>0.9999999999999999</ele><time>2026-04-04T14:29:51.722Z</time></trkpt><trkpt lat="42.7507425" lon="10.2452316"><ele>1.0</ele><time>2026-04-04T14:29:52.723Z</time></trkpt><trkpt lat="42.7508173" lon="10.2452199"><ele>1.0</ele><time>2026-04-04T14:29:53.723Z</time></trkpt><trkpt lat="42.7508918" lon="10.2452129"><ele>0.9999999999999999</ele><time>2026-04-04T14:29:54.723Z</time></trkpt><trkpt lat="42.750957" lon="10.2452045"><ele>1.0</ele><time>2026-04-04T14:29:55.723Z</time></trkpt><trkpt lat="42.7510206" lon="10.2452004"><ele>1.0</ele><time>2026-04-04T14:29:56.723Z</time></trkpt><trkpt lat="42.7510893" lon="10.2451864"><ele>0.9999999999999999</ele><time>2026-04-04T14:29:57.722Z</time></trkpt><trkpt lat="42.7511615" lon="10.2451741"><ele>1.0</ele><time>2026-04-04T14:29:58.723Z</time></trkpt><trkpt lat="42.75124" lon="10.2451658"><ele>1.0</ele><time>2026-04-04T14:29:59.723Z</time></trkpt><trkpt lat="42.7513295" lon="10.2451496"><ele>1.0</ele><time>2026-04-04T14:30:00.723Z</time></trkpt><trkpt lat="42.7514205" lon="10.2451376"><ele>0.9999999999999999</ele><time>2026-04-04T14:30:01.723Z</time></trkpt><trkpt lat="42.7515291" lon="10.2451111"><ele>1.0</ele><time>2026-04-04T14:30:02.723Z</time></trkpt><trkpt lat="42.7516422" lon="10.2450511"><ele>1.0</ele><time>2026-04-04T14:30:03.723Z</time></trkpt><trkpt lat="42.7517493" lon="10.2449577"><ele>1.0</ele><time>2026-04-04T14:30:04.723Z</time></trkpt><trkpt lat="42.7518478" lon="10.2448689"><ele>1.0</ele><time>2026-04-04T14:30:05.723Z</time></trkpt><trkpt lat="42.7519351" lon="10.2447768"><ele>1.0</ele><time>2026-04-04T14:30:06.723Z</time></trkpt><trkpt lat="42.7520171" lon="10.2446874"><ele>0.9999999999999999</ele><time>2026-04-04T14:30:07.723Z</time></trkpt><trkpt lat="42.7520912" lon="10.2446078"><ele>1.0</ele><time>2026-04-04T14:30:08.723Z</time></trkpt><trkpt lat="42.7521628" lon="10.2445402"><ele>1.0</ele><time>2026-04-04T14:30:09.723Z</time></trkpt><trkpt lat="42.7522254" lon="10.2444892"><ele>1.0</ele><time>2026-04-04T14:30:10.723Z</time></trkpt><trkpt lat="42.752285" lon="10.2444529"><ele>0.9999999999999999</ele><time>2026-04-04T14:30:11.723Z</time></trkpt><trkpt lat="42.7523479" lon="10.2444314"><ele>1.0</ele><time>2026-04-04T14:30:12.723Z</time></trkpt><trkpt lat="42.7524595" lon="10.2444128"><ele>0.9999999999999999</ele><time>2026-04-04T14:30:14.723Z</time></trkpt><trkpt lat="42.7525412" lon="10.2444092"><ele>1.0</ele><time>2026-04-04T14:30:16.723Z</time></trkpt><trkpt lat="42.7526183" lon="10.2444541"><ele>1.0</ele><time>2026-04-04T14:30:18.723Z</time></trkpt><trkpt lat="42.7526759" lon="10.2445281"><ele>1.0</ele><time>2026-04-04T14:30:19.723Z</time></trkpt><trkpt lat="42.7527371" lon="10.244627"><ele>0.9999999999999999</ele><time>2026-04-04T14:30:20.722Z</time></trkpt><trkpt lat="42.7528007" lon="10.2447293"><ele>1.0</ele><time>2026-04-04T14:30:21.723Z</time></trkpt><trkpt lat="42.7528625" lon="10.2448323"><ele>1.0</ele><time>2026-04-04T14:30:22.723Z</time></trkpt><trkpt lat="42.7529271" lon="10.2449323"><ele>1.0</ele><time>2026-04-04T14:30:23.722Z</time></trkpt><trkpt lat="42.7529947" lon="10.2450404"><ele>1.0</ele><time>2026-04-04T14:30:24.723Z</time></trkpt><trkpt lat="42.7530725" lon="10.2451603"><ele>1.0</ele><time>2026-04-04T14:30:25.723Z</time></trkpt><trkpt lat="42.7531506" lon="10.2452831"><ele>1.0</ele><time>2026-04-04T14:30:26.723Z</time></trkpt><trkpt lat="42.7532332" lon="10.2454202"><ele>1.0</ele><time>2026-04-04T14:30:27.723Z</time></trkpt><trkpt lat="42.7533195" lon="10.2455484"><ele>1.0</ele><time>2026-04-04T14:30:28.723Z</time></trkpt><trkpt lat="42.7534009" lon="10.2456794"><ele>1.0</ele><time>2026-04-04T14:30:29.723Z</time></trkpt><trkpt lat="42.7534849" lon="10.2458135"><ele>1.0</ele><time>2026-04-04T14:30:30.722Z</time></trkpt><trkpt lat="42.7535716" lon="10.2459504"><ele>1.0</ele><time>2026-04-04T14:30:31.723Z</time></trkpt><trkpt lat="42.7536618" lon="10.2460842"><ele>1.0</ele><time>2026-04-04T14:30:32.723Z</time></trkpt><trkpt lat="42.7537528" lon="10.246228"><ele>1.0</ele><time>2026-04-04T14:30:33.723Z</time></trkpt><trkpt lat="42.7538431" lon="10.2463695"><ele>1.0</ele><time>2026-04-04T14:30:34.723Z</time></trkpt><trkpt lat="42.7539287" lon="10.246509"><ele>1.2000000000000002</ele><time>2026-04-04T14:30:35.723Z</time></trkpt><trkpt lat="42.7540079" lon="10.2466366"><ele>1.4000000000000001</ele><time>2026-04-04T14:30:36.723Z</time></trkpt><trkpt lat="42.7540816" lon="10.2467507"><ele>1.6</ele><time>2026-04-04T14:30:37.723Z</time></trkpt><trkpt lat="42.7541485" lon="10.2468529"><ele>1.8</ele><time>2026-04-04T14:30:38.723Z</time></trkpt><trkpt lat="42.7542093" lon="10.2469458"><ele>2.0</ele><time>2026-04-04T14:30:39.723Z</time></trkpt><trkpt lat="42.7542662" lon="10.2470367"><ele>1.9999999999999998</ele><time>2026-04-04T14:30:40.722Z</time></trkpt><trkpt lat="42.7543308" lon="10.2471056"><ele>2.0</ele><time>2026-04-04T14:30:41.723Z</time></trkpt><trkpt lat="42.7544063" lon="10.2471238"><ele>2.0</ele><time>2026-04-04T14:30:42.723Z</time></trkpt><trkpt lat="42.7544846" lon="10.2471051"><ele>2.0</ele><time>2026-04-04T14:30:43.722Z</time></trkpt><trkpt lat="42.7545695" lon="10.2470495"><ele>1.9999999999999998</ele><time>2026-04-04T14:30:44.723Z</time></trkpt><trkpt lat="42.7546499" lon="10.2469605"><ele>2.0</ele><time>2026-04-04T14:30:45.723Z</time></trkpt><trkpt lat="42.7547341" lon="10.2468604"><ele>2.0</ele><time>2026-04-04T14:30:46.723Z</time></trkpt><trkpt lat="42.7548094" lon="10.2467528"><ele>2.0</ele><time>2026-04-04T14:30:47.723Z</time></trkpt><trkpt lat="42.7548778" lon="10.2466436"><ele>2.0</ele><time>2026-04-04T14:30:48.723Z</time></trkpt><trkpt lat="42.7549484" lon="10.2465316"><ele>2.0</ele><time>2026-04-04T14:30:49.723Z</time></trkpt><trkpt lat="42.7550141" lon="10.246428"><ele>2.0</ele><time>2026-04-04T14:30:50.723Z</time></trkpt><trkpt lat="42.7550824" lon="10.2463217"><ele>1.8</ele><time>2026-04-04T14:30:51.723Z</time></trkpt><trkpt lat="42.7551545" lon="10.2462122"><ele>1.6</ele><time>2026-04-04T14:30:52.723Z</time></trkpt><trkpt lat="42.7552265" lon="10.2461156"><ele>1.4000000000000001</ele><time>2026-04-04T14:30:53.723Z</time></trkpt><trkpt lat="42.7553052" lon="10.2460319"><ele>1.2000000000000002</ele><time>2026-04-04T14:30:54.723Z</time></trkpt><trkpt lat="42.7553911" lon="10.2459674"><ele>1.0</ele><time>2026-04-04T14:30:55.723Z</time></trkpt><trkpt lat="42.7554846" lon="10.2459159"><ele>1.5</ele><time>2026-04-04T14:30:56.723Z</time></trkpt><trkpt lat="42.7555997" lon="10.2458684"><ele>2.0</ele><time>2026-04-04T14:30:57.723Z</time></trkpt><trkpt lat="42.7557242" lon="10.2458267"><ele>2.5</ele><time>2026-04-04T14:30:58.723Z</time></trkpt><trkpt lat="42.7558559" lon="10.2457852"><ele>3.0</ele><time>2026-04-04T14:30:59.722Z</time></trkpt><trkpt lat="42.7559896" lon="10.2457411"><ele>3.25</ele><time>2026-04-04T14:31:00.723Z</time></trkpt><trkpt lat="42.7561244" lon="10.2456969"><ele>3.5</ele><time>2026-04-04T14:31:01.722Z</time></trkpt><trkpt lat="42.7562534" lon="10.2456634"><ele>3.75</ele><time>2026-04-04T14:31:02.723Z</time></trkpt><trkpt lat="42.7563826" lon="10.2456275"><ele>4.0</ele><time>2026-04-04T14:31:03.723Z</time></trkpt><trkpt lat="42.7565114" lon="10.2455848"><ele>3.5</ele><time>2026-04-04T14:31:04.723Z</time></trkpt><trkpt lat="42.7566417" lon="10.245548"><ele>3.0</ele><time>2026-04-04T14:31:05.723Z</time></trkpt><trkpt lat="42.7567734" lon="10.2455126"><ele>2.5</ele><time>2026-04-04T14:31:06.723Z</time></trkpt><trkpt lat="42.7569057" lon="10.2454842"><ele>2.0</ele><time>2026-04-04T14:31:07.723Z</time></trkpt><trkpt lat="42.7570377" lon="10.2454518"><ele>2.0</ele><time>2026-04-04T14:31:08.723Z</time></trkpt><trkpt lat="42.7571716" lon="10.2454126"><ele>2.0</ele><time>2026-04-04T14:31:09.723Z</time></trkpt><trkpt lat="42.7572989" lon="10.2453738"><ele>2.0</ele><time>2026-04-04T14:31:10.723Z</time></trkpt><trkpt lat="42.7574262" lon="10.245334"><ele>2.0</ele><time>2026-04-04T14:31:11.723Z</time></trkpt><trkpt lat="42.7575523" lon="10.2452922"><ele>2.0</ele><time>2026-04-04T14:31:12.723Z</time></trkpt><trkpt lat="42.7576764" lon="10.2452497"><ele>2.0</ele><time>2026-04-04T14:31:13.723Z</time></trkpt><trkpt lat="42.7577962" lon="10.2452158"><ele>2.0</ele><time>2026-04-04T14:31:14.723Z</time></trkpt><trkpt lat="42.7579068" lon="10.2451865"><ele>2.0</ele><time>2026-04-04T14:31:15.723Z</time></trkpt><trkpt lat="42.7580029" lon="10.2451699"><ele>2.833333333333333</ele><time>2026-04-04T14:31:16.723Z</time></trkpt><trkpt lat="42.7580862" lon="10.2451554"><ele>3.666666666666667</ele><time>2026-04-04T14:31:17.723Z</time></trkpt><trkpt lat="42.7581657" lon="10.2451472"><ele>4.5</ele><time>2026-04-04T14:31:18.723Z</time></trkpt><trkpt lat="42.7582644" lon="10.2451399"><ele>5.333333333333334</ele><time>2026-04-04T14:31:20.722Z</time></trkpt><trkpt lat="42.7583421" lon="10.2451252"><ele>6.166666666666667</ele><time>2026-04-04T14:31:22.723Z</time></trkpt><trkpt lat="42.758403" lon="10.2450611"><ele>7.0</ele><time>2026-04-04T14:31:24.723Z</time></trkpt><trkpt lat="42.7584614" lon="10.2450047"><ele>7.000000000000001</ele><time>2026-04-04T14:31:25.723Z</time></trkpt><trkpt lat="42.7585291" lon="10.244935"><ele>7.0</ele><time>2026-04-04T14:31:26.723Z</time></trkpt><trkpt lat="42.7585959" lon="10.2448589"><ele>7.0</ele><time>2026-04-04T14:31:27.723Z</time></trkpt><trkpt lat="42.7586613" lon="10.244801"><ele>7.0</ele><time>2026-04-04T14:31:28.723Z</time></trkpt><trkpt lat="42.7587195" lon="10.2447594"><ele>7.000000000000001</ele><time>2026-04-04T14:31:29.723Z</time></trkpt><trkpt lat="42.7587795" lon="10.2447228"><ele>7.0</ele><time>2026-04-04T14:31:30.723Z</time></trkpt><trkpt lat="42.7588925" lon="10.2446656"><ele>6.833333333333334</ele><time>2026-04-04T14:31:32.723Z</time></trkpt><trkpt lat="42.7589085" lon="10.2445799"><ele>6.666666666666667</ele><time>2026-04-04T14:31:34.723Z</time></trkpt><trkpt lat="42.7589219" lon="10.2444819"><ele>6.5</ele><time>2026-04-04T14:31:37.723Z</time></trkpt><trkpt lat="42.7590357" lon="10.2444181"><ele>6.333333333333334</ele><time>2026-04-04T14:31:39.723Z</time></trkpt><trkpt lat="42.7591015" lon="10.2443707"><ele>6.166666666666667</ele><time>2026-04-04T14:31:40.723Z</time></trkpt><trkpt lat="42.7591678" lon="10.2443006"><ele>6.0</ele><time>2026-04-04T14:31:41.722Z</time></trkpt><trkpt lat="42.7592268" lon="10.2442243"><ele>5.999999999999999</ele><time>2026-04-04T14:31:42.723Z</time></trkpt><trkpt lat="42.7592795" lon="10.2441546"><ele>6.0</ele><time>2026-04-04T14:31:43.723Z</time></trkpt><trkpt lat="42.7593274" lon="10.2440858"><ele>6.0</ele><time>2026-04-04T14:31:44.723Z</time></trkpt><trkpt lat="42.7593732" lon="10.2440202"><ele>6.0</ele><time>2026-04-04T14:31:45.722Z</time></trkpt><trkpt lat="42.7594166" lon="10.243954"><ele>6.0</ele><time>2026-04-04T14:31:46.723Z</time></trkpt><trkpt lat="42.7594709" lon="10.2438842"><ele>5.999999999999999</ele><time>2026-04-04T14:31:47.722Z</time></trkpt><trkpt lat="42.759533" lon="10.2438007"><ele>6.0</ele><time>2026-04-04T14:31:48.722Z</time></trkpt><trkpt lat="42.7596063" lon="10.2437144"><ele>6.4</ele><time>2026-04-04T14:31:49.722Z</time></trkpt><trkpt lat="42.7596889" lon="10.243632"><ele>6.8</ele><time>2026-04-04T14:31:50.723Z</time></trkpt><trkpt lat="42.759781" lon="10.243549"><ele>7.200000000000001</ele><time>2026-04-04T14:31:51.723Z</time></trkpt><trkpt lat="42.7598748" lon="10.2434644"><ele>7.6000000000000005</ele><time>2026-04-04T14:31:52.723Z</time></trkpt><trkpt lat="42.7599623" lon="10.2433765"><ele>8.0</ele><time>2026-04-04T14:31:53.723Z</time></trkpt><trkpt lat="42.7600469" lon="10.2432899"><ele>8.0</ele><time>2026-04-04T14:31:54.723Z</time></trkpt><trkpt lat="42.7601272" lon="10.2432077"><ele>8.0</ele><time>2026-04-04T14:31:55.723Z</time></trkpt><trkpt lat="42.7602112" lon="10.2431352"><ele>8.0</ele><time>2026-04-04T14:31:56.723Z</time></trkpt><trkpt lat="42.7603021" lon="10.2430693"><ele>8.0</ele><time>2026-04-04T14:31:57.723Z</time></trkpt><trkpt lat="42.7603908" lon="10.2430076"><ele>8.0</ele><time>2026-04-04T14:31:58.722Z</time></trkpt><trkpt lat="42.7604679" lon="10.2429534"><ele>7.4</ele><time>2026-04-04T14:31:59.723Z</time></trkpt><trkpt lat="42.7605444" lon="10.242898"><ele>6.800000000000001</ele><time>2026-04-04T14:32:00.723Z</time></trkpt><trkpt lat="42.7606239" lon="10.2428395"><ele>6.2</ele><time>2026-04-04T14:32:01.722Z</time></trkpt><trkpt lat="42.7607156" lon="10.2427807"><ele>5.6</ele><time>2026-04-04T14:32:02.723Z</time></trkpt><trkpt lat="42.760804" lon="10.2427393"><ele>5.0</ele><time>2026-04-04T14:32:03.723Z</time></trkpt><trkpt lat="42.7608886" lon="10.2427009"><ele>5.0</ele><time>2026-04-04T14:32:04.723Z</time></trkpt><trkpt lat="42.7609748" lon="10.2426729"><ele>5.0</ele><time>2026-04-04T14:32:05.723Z</time></trkpt><trkpt lat="42.7610528" lon="10.2426528"><ele>5.0</ele><time>2026-04-04T14:32:06.723Z</time></trkpt><trkpt lat="42.7611315" lon="10.2426549"><ele>5.0</ele><time>2026-04-04T14:32:07.723Z</time></trkpt><trkpt lat="42.761214" lon="10.2426513"><ele>5.0</ele><time>2026-04-04T14:32:08.723Z</time></trkpt><trkpt lat="42.7613038" lon="10.2426546"><ele>5.0</ele><time>2026-04-04T14:32:09.722Z</time></trkpt><trkpt lat="42.7613895" lon="10.2426583"><ele>5.166666666666667</ele><time>2026-04-04T14:32:10.723Z</time></trkpt><trkpt lat="42.761476" lon="10.242663"><ele>5.333333333333334</ele><time>2026-04-04T14:32:11.723Z</time></trkpt><trkpt lat="42.7615616" lon="10.242664"><ele>5.5</ele><time>2026-04-04T14:32:12.723Z</time></trkpt><trkpt lat="42.7616412" lon="10.2426608"><ele>5.666666666666667</ele><time>2026-04-04T14:32:13.723Z</time></trkpt><trkpt lat="42.7617166" lon="10.2426467"><ele>5.833333333333333</ele><time>2026-04-04T14:32:14.723Z</time></trkpt><trkpt lat="42.7617912" lon="10.2426346"><ele>6.0</ele><time>2026-04-04T14:32:15.723Z</time></trkpt><trkpt lat="42.7618643" lon="10.2426222"><ele>5.833333333333333</ele><time>2026-04-04T14:32:16.722Z</time></trkpt><trkpt lat="42.7619293" lon="10.2426112"><ele>5.666666666666667</ele><time>2026-04-04T14:32:17.723Z</time></trkpt><trkpt lat="42.7620492" lon="10.2425365"><ele>5.5</ele><time>2026-04-04T14:32:19.723Z</time></trkpt><trkpt lat="42.7620904" lon="10.24246"><ele>5.333333333333334</ele><time>2026-04-04T14:32:20.722Z</time></trkpt><trkpt lat="42.7621079" lon="10.242352"><ele>5.166666666666667</ele><time>2026-04-04T14:32:21.723Z</time></trkpt><trkpt lat="42.7621031" lon="10.2422316"><ele>5.0</ele><time>2026-04-04T14:32:22.723Z</time></trkpt><trkpt lat="42.7620841" lon="10.2421025"><ele>4.833333333333334</ele><time>2026-04-04T14:32:23.723Z</time></trkpt><trkpt lat="42.7620671" lon="10.2419791"><ele>4.666666666666667</ele><time>2026-04-04T14:32:24.723Z</time></trkpt><trkpt lat="42.7620478" lon="10.2418598"><ele>4.5</ele><time>2026-04-04T14:32:25.723Z</time></trkpt><trkpt lat="42.7620289" lon="10.2417523"><ele>4.333333333333333</ele><time>2026-04-04T14:32:26.723Z</time></trkpt><trkpt lat="42.762029" lon="10.2416612"><ele>4.166666666666666</ele><time>2026-04-04T14:32:27.723Z</time></trkpt><trkpt lat="42.7620429" lon="10.2415739"><ele>4.0</ele><time>2026-04-04T14:32:28.723Z</time></trkpt><trkpt lat="42.7620765" lon="10.2414867"><ele>4.166666666666666</ele><time>2026-04-04T14:32:29.723Z</time></trkpt><trkpt lat="42.7621415" lon="10.2414144"><ele>4.333333333333333</ele><time>2026-04-04T14:32:30.717Z</time></trkpt><trkpt lat="42.7622179" lon="10.2413494"><ele>4.5</ele><time>2026-04-04T14:32:31.723Z</time></trkpt><trkpt lat="42.7622803" lon="10.2412801"><ele>4.666666666666667</ele><time>2026-04-04T14:32:32.723Z</time></trkpt><trkpt lat="42.7623419" lon="10.2411927"><ele>4.833333333333334</ele><time>2026-04-04T14:32:33.722Z</time></trkpt><trkpt lat="42.7624051" lon="10.2410884"><ele>5.0</ele><time>2026-04-04T14:32:34.722Z</time></trkpt><trkpt lat="42.762466" lon="10.2409675"><ele>5.0</ele><time>2026-04-04T14:32:35.723Z</time></trkpt><trkpt lat="42.7625233" lon="10.2408437"><ele>5.0</ele><time>2026-04-04T14:32:36.722Z</time></trkpt><trkpt lat="42.7625791" lon="10.2407152"><ele>5.0</ele><time>2026-04-04T14:32:37.723Z</time></trkpt><trkpt lat="42.7626379" lon="10.2405875"><ele>5.0</ele><time>2026-04-04T14:32:38.722Z</time></trkpt><trkpt lat="42.7627024" lon="10.2404654"><ele>5.0</ele><time>2026-04-04T14:32:39.723Z</time></trkpt><trkpt lat="42.7627653" lon="10.2403386"><ele>5.0</ele><time>2026-04-04T14:32:40.723Z</time></trkpt><trkpt lat="42.7628266" lon="10.2402171"><ele>5.0</ele><time>2026-04-04T14:32:41.723Z</time></trkpt><trkpt lat="42.762884" lon="10.2401075"><ele>5.0</ele><time>2026-04-04T14:32:42.723Z</time></trkpt><trkpt lat="42.7629285" lon="10.2400111"><ele>5.0</ele><time>2026-04-04T14:32:43.723Z</time></trkpt><trkpt lat="42.7629568" lon="10.2399222"><ele>5.0</ele><time>2026-04-04T14:32:44.722Z</time></trkpt><trkpt lat="42.7629724" lon="10.2397753"><ele>5.0</ele><time>2026-04-04T14:32:46.723Z</time></trkpt><trkpt lat="42.7629928" lon="10.2396441"><ele>5.0</ele><time>2026-04-04T14:32:48.723Z</time></trkpt><trkpt lat="42.7631266" lon="10.2395698"><ele>5.0</ele><time>2026-04-04T14:32:50.723Z</time></trkpt><trkpt lat="42.7632257" lon="10.2395494"><ele>5.0</ele><time>2026-04-04T14:32:51.723Z</time></trkpt><trkpt lat="42.7633403" lon="10.2395291"><ele>5.0</ele><time>2026-04-04T14:32:52.723Z</time></trkpt><trkpt lat="42.7634644" lon="10.2395027"><ele>5.0</ele><time>2026-04-04T14:32:53.723Z</time></trkpt><trkpt lat="42.7635945" lon="10.2394829"><ele>5.0</ele><time>2026-04-04T14:32:54.722Z</time></trkpt><trkpt lat="42.7637253" lon="10.2394583"><ele>5.0</ele><time>2026-04-04T14:32:55.723Z</time></trkpt><trkpt lat="42.7638641" lon="10.2394382"><ele>5.25</ele><time>2026-04-04T14:32:56.722Z</time></trkpt><trkpt lat="42.7640054" lon="10.2394111"><ele>5.5</ele><time>2026-04-04T14:32:57.723Z</time></trkpt><trkpt lat="42.7641472" lon="10.239385"><ele>5.75</ele><time>2026-04-04T14:32:58.723Z</time></trkpt><trkpt lat="42.7642917" lon="10.2393608"><ele>6.0</ele><time>2026-04-04T14:32:59.723Z</time></trkpt><trkpt lat="42.7644383" lon="10.2393364"><ele>6.333333333333334</ele><time>2026-04-04T14:33:00.722Z</time></trkpt><trkpt lat="42.7645883" lon="10.2393102"><ele>6.666666666666667</ele><time>2026-04-04T14:33:01.723Z</time></trkpt><trkpt lat="42.7647421" lon="10.2392855"><ele>7.0</ele><time>2026-04-04T14:33:02.722Z</time></trkpt><trkpt lat="42.7648972" lon="10.2392614"><ele>7.0</ele><time>2026-04-04T14:33:03.723Z</time></trkpt><trkpt lat="42.7650508" lon="10.2392348"><ele>7.0</ele><time>2026-04-04T14:33:04.722Z</time></trkpt><trkpt lat="42.7652087" lon="10.2392049"><ele>7.0</ele><time>2026-04-04T14:33:05.723Z</time></trkpt><trkpt lat="42.7653687" lon="10.2391697"><ele>7.333333333333334</ele><time>2026-04-04T14:33:06.723Z</time></trkpt><trkpt lat="42.7655494" lon="10.2391278"><ele>7.666666666666666</ele><time>2026-04-04T14:33:07.723Z</time></trkpt><trkpt lat="42.7657362" lon="10.2390919"><ele>8.0</ele><time>2026-04-04T14:33:08.723Z</time></trkpt><trkpt lat="42.765934" lon="10.2390699"><ele>7.666666666666666</ele><time>2026-04-04T14:33:09.722Z</time></trkpt><trkpt lat="42.7661129" lon="10.2390525"><ele>7.333333333333334</ele><time>2026-04-04T14:33:10.721Z</time></trkpt><trkpt lat="42.7662784" lon="10.2390293"><ele>7.0</ele><time>2026-04-04T14:33:11.723Z</time></trkpt><trkpt lat="42.7664293" lon="10.2389966"><ele>7.5</ele><time>2026-04-04T14:33:12.723Z</time></trkpt><trkpt lat="42.7665685" lon="10.2389539"><ele>8.0</ele><time>2026-04-04T14:33:13.723Z</time></trkpt><trkpt lat="42.7667008" lon="10.2389153"><ele>8.5</ele><time>2026-04-04T14:33:14.723Z</time></trkpt><trkpt lat="42.7668335" lon="10.238876"><ele>9.0</ele><time>2026-04-04T14:33:15.723Z</time></trkpt><trkpt lat="42.7669651" lon="10.2388224"><ele>9.25</ele><time>2026-04-04T14:33:16.723Z</time></trkpt><trkpt lat="42.7670863" lon="10.2387399"><ele>9.5</ele><time>2026-04-04T14:33:17.723Z</time></trkpt><trkpt lat="42.7672002" lon="10.2386513"><ele>9.75</ele><time>2026-04-04T14:33:18.723Z</time></trkpt><trkpt lat="42.7672968" lon="10.2385634"><ele>10.0</ele><time>2026-04-04T14:33:19.723Z</time></trkpt><trkpt lat="42.7673798" lon="10.238473"><ele>10.0</ele><time>2026-04-04T14:33:20.723Z</time></trkpt><trkpt lat="42.7674428" lon="10.2383674"><ele>10.0</ele><time>2026-04-04T14:33:21.723Z</time></trkpt><trkpt lat="42.7674749" lon="10.2382481"><ele>10.0</ele><time>2026-04-04T14:33:22.723Z</time></trkpt><trkpt lat="42.767491" lon="10.2381239"><ele>10.0</ele><time>2026-04-04T14:33:23.723Z</time></trkpt><trkpt lat="42.7674991" lon="10.2380188"><ele>10.0</ele><time>2026-04-04T14:33:24.723Z</time></trkpt><trkpt lat="42.767503" lon="10.2378445"><ele>10.0</ele><time>2026-04-04T14:33:26.723Z</time></trkpt><trkpt lat="42.7675094" lon="10.2376922"><ele>10.0</ele><time>2026-04-04T14:33:28.723Z</time></trkpt><trkpt lat="42.7675354" lon="10.2375741"><ele>10.0</ele><time>2026-04-04T14:33:30.722Z</time></trkpt><trkpt lat="42.7676043" lon="10.237504"><ele>10.0</ele><time>2026-04-04T14:33:32.723Z</time></trkpt><trkpt lat="42.7676709" lon="10.2374952"><ele>10.0</ele><time>2026-04-04T14:33:33.723Z</time></trkpt><trkpt lat="42.7677621" lon="10.2375258"><ele>10.0</ele><time>2026-04-04T14:33:34.723Z</time></trkpt><trkpt lat="42.7678689" lon="10.2375665"><ele>10.25</ele><time>2026-04-04T14:33:35.723Z</time></trkpt><trkpt lat="42.7679805" lon="10.2376084"><ele>10.5</ele><time>2026-04-04T14:33:36.723Z</time></trkpt><trkpt lat="42.7681008" lon="10.2376503"><ele>10.75</ele><time>2026-04-04T14:33:37.722Z</time></trkpt><trkpt lat="42.7682214" lon="10.2376976"><ele>11.0</ele><time>2026-04-04T14:33:38.723Z</time></trkpt><trkpt lat="42.7683402" lon="10.2377466"><ele>11.0</ele><time>2026-04-04T14:33:39.722Z</time></trkpt><trkpt lat="42.7684544" lon="10.2377975"><ele>11.0</ele><time>2026-04-04T14:33:40.722Z</time></trkpt><trkpt lat="42.7685621" lon="10.2378399"><ele>11.0</ele><time>2026-04-04T14:33:41.723Z</time></trkpt><trkpt lat="42.7686641" lon="10.237878"><ele>11.0</ele><time>2026-04-04T14:33:42.723Z</time></trkpt><trkpt lat="42.7687651" lon="10.2379179"><ele>11.0</ele><time>2026-04-04T14:33:43.723Z</time></trkpt><trkpt lat="42.768867" lon="10.2379604"><ele>11.25</ele><time>2026-04-04T14:33:44.723Z</time></trkpt><trkpt lat="42.7689728" lon="10.2380042"><ele>11.5</ele><time>2026-04-04T14:33:45.723Z</time></trkpt><trkpt lat="42.7690897" lon="10.2380509"><ele>11.75</ele><time>2026-04-04T14:33:46.723Z</time></trkpt><trkpt lat="42.76921" lon="10.2380957"><ele>12.0</ele><time>2026-04-04T14:33:47.723Z</time></trkpt><trkpt lat="42.7693337" lon="10.2381455"><ele>12.25</ele><time>2026-04-04T14:33:48.723Z</time></trkpt><trkpt lat="42.7694559" lon="10.2381936"><ele>12.5</ele><time>2026-04-04T14:33:49.723Z</time></trkpt><trkpt lat="42.7695689" lon="10.238239"><ele>12.75</ele><time>2026-04-04T14:33:50.723Z</time></trkpt><trkpt lat="42.7696814" lon="10.2382847"><ele>13.0</ele><time>2026-04-04T14:33:51.723Z</time></trkpt><trkpt lat="42.7697964" lon="10.2383268"><ele>13.0</ele><time>2026-04-04T14:33:52.723Z</time></trkpt><trkpt lat="42.7699151" lon="10.2383678"><ele>13.0</ele><time>2026-04-04T14:33:53.723Z</time></trkpt><trkpt lat="42.770031" lon="10.238412"><ele>13.0</ele><time>2026-04-04T14:33:54.722Z</time></trkpt><trkpt lat="42.770146" lon="10.2384562"><ele>13.0</ele><time>2026-04-04T14:33:55.722Z</time></trkpt><trkpt lat="42.7702657" lon="10.238489"><ele>13.25</ele><time>2026-04-04T14:33:56.723Z</time></trkpt><trkpt lat="42.7703909" lon="10.2385145"><ele>13.5</ele><time>2026-04-04T14:33:57.723Z</time></trkpt><trkpt lat="42.7705201" lon="10.2385228"><ele>13.75</ele><time>2026-04-04T14:33:58.723Z</time></trkpt><trkpt lat="42.7706513" lon="10.2385195"><ele>14.0</ele><time>2026-04-04T14:33:59.723Z</time></trkpt><trkpt lat="42.7707867" lon="10.238516"><ele>14.0</ele><time>2026-04-04T14:34:00.722Z</time></trkpt><trkpt lat="42.7709232" lon="10.2385009"><ele>14.0</ele><time>2026-04-04T14:34:01.723Z</time></trkpt><trkpt lat="42.771064" lon="10.2384905"><ele>14.0</ele><time>2026-04-04T14:34:02.723Z</time></trkpt><trkpt lat="42.7712093" lon="10.2385053"><ele>14.0</ele><time>2026-04-04T14:34:03.723Z</time></trkpt><trkpt lat="42.7713504" lon="10.2385399"><ele>14.75</ele><time>2026-04-04T14:34:04.723Z</time></trkpt><trkpt lat="42.7714866" lon="10.2385993"><ele>15.5</ele><time>2026-04-04T14:34:05.723Z</time></trkpt><trkpt lat="42.7716149" lon="10.238679"><ele>16.25</ele><time>2026-04-04T14:34:06.723Z</time></trkpt><trkpt lat="42.7717421" lon="10.2387737"><ele>17.0</ele><time>2026-04-04T14:34:07.723Z</time></trkpt><trkpt lat="42.771874" lon="10.238882"><ele>17.666666666666668</ele><time>2026-04-04T14:34:08.723Z</time></trkpt><trkpt lat="42.7720035" lon="10.2390084"><ele>18.333333333333332</ele><time>2026-04-04T14:34:09.723Z</time></trkpt><trkpt lat="42.7721278" lon="10.2391556"><ele>19.0</ele><time>2026-04-04T14:34:10.723Z</time></trkpt><trkpt lat="42.7722412" lon="10.2393075"><ele>19.0</ele><time>2026-04-04T14:34:11.722Z</time></trkpt><trkpt lat="42.7723496" lon="10.239476"><ele>19.0</ele><time>2026-04-04T14:34:12.722Z</time></trkpt><trkpt lat="42.7724553" lon="10.2396538"><ele>19.0</ele><time>2026-04-04T14:34:13.722Z</time></trkpt><trkpt lat="42.7725601" lon="10.2398382"><ele>19.0</ele><time>2026-04-04T14:34:14.723Z</time></trkpt><trkpt lat="42.7726669" lon="10.2400306"><ele>19.0</ele><time>2026-04-04T14:34:15.723Z</time></trkpt><trkpt lat="42.772774" lon="10.2402225"><ele>19.0</ele><time>2026-04-04T14:34:16.723Z</time></trkpt><trkpt lat="42.7728711" lon="10.2404067"><ele>19.0</ele><time>2026-04-04T14:34:17.723Z</time></trkpt><trkpt lat="42.7729675" lon="10.2405826"><ele>19.0</ele><time>2026-04-04T14:34:18.723Z</time></trkpt><trkpt lat="42.7730586" lon="10.2407606"><ele>19.0</ele><time>2026-04-04T14:34:19.723Z</time></trkpt><trkpt lat="42.7731385" lon="10.2409507"><ele>19.0</ele><time>2026-04-04T14:34:20.723Z</time></trkpt><trkpt lat="42.7732025" lon="10.2411546"><ele>19.0</ele><time>2026-04-04T14:34:21.723Z</time></trkpt><trkpt lat="42.7732565" lon="10.2413631"><ele>19.0</ele><time>2026-04-04T14:34:22.723Z</time></trkpt><trkpt lat="42.7733032" lon="10.241565"><ele>19.0</ele><time>2026-04-04T14:34:23.723Z</time></trkpt><trkpt lat="42.773351" lon="10.2417616"><ele>19.0</ele><time>2026-04-04T14:34:24.723Z</time></trkpt><trkpt lat="42.7734005" lon="10.2419514"><ele>19.0</ele><time>2026-04-04T14:34:25.723Z</time></trkpt><trkpt lat="42.7734606" lon="10.2421415"><ele>20.0</ele><time>2026-04-04T14:34:26.723Z</time></trkpt><trkpt lat="42.7735424" lon="10.2423191"><ele>21.0</ele><time>2026-04-04T14:34:27.723Z</time></trkpt><trkpt lat="42.7736385" lon="10.2424834"><ele>22.0</ele><time>2026-04-04T14:34:28.723Z</time></trkpt><trkpt lat="42.7737397" lon="10.242647"><ele>22.0</ele><time>2026-04-04T14:34:29.723Z</time></trkpt><trkpt lat="42.7738556" lon="10.2427977"><ele>22.0</ele><time>2026-04-04T14:34:30.722Z</time></trkpt><trkpt lat="42.7739812" lon="10.2429411"><ele>22.0</ele><time>2026-04-04T14:34:31.723Z</time></trkpt><trkpt lat="42.7741057" lon="10.2430806"><ele>22.333333333333332</ele><time>2026-04-04T14:34:32.723Z</time></trkpt><trkpt lat="42.7742309" lon="10.2432147"><ele>22.666666666666668</ele><time>2026-04-04T14:34:33.723Z</time></trkpt><trkpt lat="42.7743583" lon="10.2433438"><ele>23.0</ele><time>2026-04-04T14:34:34.723Z</time></trkpt><trkpt lat="42.7744865" lon="10.2434647"><ele>24.5</ele><time>2026-04-04T14:34:35.723Z</time></trkpt><trkpt lat="42.7746109" lon="10.2435775"><ele>26.0</ele><time>2026-04-04T14:34:36.723Z</time></trkpt><trkpt lat="42.7747292" lon="10.2436849"><ele>27.5</ele><time>2026-04-04T14:34:37.723Z</time></trkpt><trkpt lat="42.7748503" lon="10.2437927"><ele>29.0</ele><time>2026-04-04T14:34:38.722Z</time></trkpt><trkpt lat="42.7749578" lon="10.2438863"><ele>28.799999999999997</ele><time>2026-04-04T14:34:39.723Z</time></trkpt><trkpt lat="42.775058" lon="10.243975"><ele>28.599999999999998</ele><time>2026-04-04T14:34:40.723Z</time></trkpt><trkpt lat="42.7751396" lon="10.2440473"><ele>28.4</ele><time>2026-04-04T14:34:41.723Z</time></trkpt><trkpt lat="42.7752081" lon="10.2441011"><ele>28.2</ele><time>2026-04-04T14:34:42.723Z</time></trkpt><trkpt lat="42.7752616" lon="10.2441562"><ele>28.0</ele><time>2026-04-04T14:34:43.723Z</time></trkpt><trkpt lat="42.7752888" lon="10.2443067"><ele>28.0</ele><time>2026-04-04T14:34:45.723Z</time></trkpt><trkpt lat="42.7752379" lon="10.2444495"><ele>27.999999999999996</ele><time>2026-04-04T14:34:47.723Z</time></trkpt><trkpt lat="42.775179" lon="10.2445731"><ele>27.999999999999996</ele><time>2026-04-04T14:34:49.723Z</time></trkpt><trkpt lat="42.7751293" lon="10.2446764"><ele>28.0</ele><time>2026-04-04T14:34:51.722Z</time></trkpt><trkpt lat="42.7750862" lon="10.244767"><ele>28.0</ele><time>2026-04-04T14:34:54.723Z</time></trkpt><trkpt lat="42.7750313" lon="10.244864"><ele>28.0</ele><time>2026-04-04T14:34:56.722Z</time></trkpt><trkpt lat="42.7749565" lon="10.2449921"><ele>27.999999999999996</ele><time>2026-04-04T14:34:58.723Z</time></trkpt><trkpt lat="42.7748777" lon="10.2450914"><ele>27.999999999999996</ele><time>2026-04-04T14:35:00.723Z</time></trkpt><trkpt lat="42.7748053" lon="10.2451732"><ele>28.0</ele><time>2026-04-04T14:35:02.723Z</time></trkpt><trkpt lat="42.7747311" lon="10.2452463"><ele>28.0</ele><time>2026-04-04T14:35:04.723Z</time></trkpt><trkpt lat="42.7746366" lon="10.2452777"><ele>28.000000000000004</ele><time>2026-04-04T14:35:06.723Z</time></trkpt><trkpt lat="42.7745158" lon="10.2452562"><ele>28.0</ele><time>2026-04-04T14:35:08.723Z</time></trkpt><trkpt lat="42.7744504" lon="10.245254"><ele>28.0</ele><time>2026-04-04T14:35:09.723Z</time></trkpt><trkpt lat="42.774377" lon="10.2452784"><ele>28.0</ele><time>2026-04-04T14:35:10.722Z</time></trkpt><trkpt lat="42.7743045" lon="10.245315"><ele>28.000000000000004</ele><time>2026-04-04T14:35:11.723Z</time></trkpt><trkpt lat="42.7742431" lon="10.2453614"><ele>28.0</ele><time>2026-04-04T14:35:12.723Z</time></trkpt><trkpt lat="42.7741531" lon="10.2454653"><ele>27.833333333333336</ele><time>2026-04-04T14:35:14.723Z</time></trkpt><trkpt lat="42.7741195" lon="10.2456048"><ele>27.666666666666668</ele><time>2026-04-04T14:35:16.723Z</time></trkpt><trkpt lat="42.774128" lon="10.2456942"><ele>27.5</ele><time>2026-04-04T14:35:17.723Z</time></trkpt><trkpt lat="42.7741472" lon="10.2457889"><ele>27.333333333333336</ele><time>2026-04-04T14:35:18.722Z</time></trkpt><trkpt lat="42.7741749" lon="10.2459071"><ele>27.166666666666668</ele><time>2026-04-04T14:35:19.723Z</time></trkpt><trkpt lat="42.7742031" lon="10.246033"><ele>27.0</ele><time>2026-04-04T14:35:20.722Z</time></trkpt><trkpt lat="42.7742205" lon="10.2461709"><ele>27.0</ele><time>2026-04-04T14:35:21.723Z</time></trkpt><trkpt lat="42.7742266" lon="10.2463297"><ele>27.0</ele><time>2026-04-04T14:35:22.723Z</time></trkpt><trkpt lat="42.7742332" lon="10.2464893"><ele>27.0</ele><time>2026-04-04T14:35:23.722Z</time></trkpt><trkpt lat="42.7742277" lon="10.246656"><ele>27.0</ele><time>2026-04-04T14:35:24.723Z</time></trkpt><trkpt lat="42.7742177" lon="10.246811"><ele>27.0</ele><time>2026-04-04T14:35:25.722Z</time></trkpt><trkpt lat="42.774208" lon="10.2469607"><ele>27.000000000000004</ele><time>2026-04-04T14:35:26.723Z</time></trkpt><trkpt lat="42.7742042" lon="10.2471034"><ele>27.000000000000004</ele><time>2026-04-04T14:35:27.723Z</time></trkpt><trkpt lat="42.774195" lon="10.2472381"><ele>27.0</ele><time>2026-04-04T14:35:28.723Z</time></trkpt><trkpt lat="42.7741919" lon="10.2473521"><ele>27.0</ele><time>2026-04-04T14:35:29.723Z</time></trkpt><trkpt lat="42.7741789" lon="10.2474626"><ele>27.166666666666668</ele><time>2026-04-04T14:35:30.723Z</time></trkpt><trkpt lat="42.7741391" lon="10.2475648"><ele>27.333333333333336</ele><time>2026-04-04T14:35:31.723Z</time></trkpt><trkpt lat="42.7740873" lon="10.2476587"><ele>27.5</ele><time>2026-04-04T14:35:32.723Z</time></trkpt><trkpt lat="42.7740297" lon="10.247736"><ele>27.666666666666668</ele><time>2026-04-04T14:35:33.723Z</time></trkpt><trkpt lat="42.7739754" lon="10.2478059"><ele>27.833333333333336</ele><time>2026-04-04T14:35:34.723Z</time></trkpt><trkpt lat="42.77392" lon="10.2478783"><ele>28.0</ele><time>2026-04-04T14:35:35.723Z</time></trkpt><trkpt lat="42.7738671" lon="10.2479375"><ele>28.000000000000004</ele><time>2026-04-04T14:35:36.722Z</time></trkpt><trkpt lat="42.7738174" lon="10.2479972"><ele>28.0</ele><time>2026-04-04T14:35:37.723Z</time></trkpt><trkpt lat="42.7737244" lon="10.2480915"><ele>28.0</ele><time>2026-04-04T14:35:39.722Z</time></trkpt><trkpt lat="42.7736147" lon="10.2480726"><ele>28.0</ele><time>2026-04-04T14:35:41.722Z</time></trkpt><trkpt lat="42.7735595" lon="10.248012"><ele>28.000000000000004</ele><time>2026-04-04T14:35:42.723Z</time></trkpt><trkpt lat="42.7735169" lon="10.2479243"><ele>28.0</ele><time>2026-04-04T14:35:43.723Z</time></trkpt><trkpt lat="42.7734779" lon="10.2478208"><ele>28.000000000000004</ele><time>2026-04-04T14:35:44.723Z</time></trkpt><trkpt lat="42.7734444" lon="10.2477034"><ele>28.0</ele><time>2026-04-04T14:35:45.723Z</time></trkpt><trkpt lat="42.7734147" lon="10.2475965"><ele>28.0</ele><time>2026-04-04T14:35:46.723Z</time></trkpt><trkpt lat="42.7733858" lon="10.2475086"><ele>28.0</ele><time>2026-04-04T14:35:47.723Z</time></trkpt><trkpt lat="42.7733337" lon="10.2474355"><ele>28.000000000000004</ele><time>2026-04-04T14:35:48.723Z</time></trkpt><trkpt lat="42.7732537" lon="10.2473588"><ele>28.0</ele><time>2026-04-04T14:35:49.722Z</time></trkpt><trkpt lat="42.773169" lon="10.2472912"><ele>28.0</ele><time>2026-04-04T14:35:50.723Z</time></trkpt><trkpt lat="42.7730749" lon="10.2472461"><ele>27.999999999999996</ele><time>2026-04-04T14:35:51.723Z</time></trkpt><trkpt lat="42.7729734" lon="10.2472333"><ele>27.999999999999996</ele><time>2026-04-04T14:35:52.723Z</time></trkpt><trkpt lat="42.7728676" lon="10.2472274"><ele>28.0</ele><time>2026-04-04T14:35:53.723Z</time></trkpt><trkpt lat="42.7727636" lon="10.2472257"><ele>28.0</ele><time>2026-04-04T14:35:54.723Z</time></trkpt><trkpt lat="42.77266" lon="10.2472538"><ele>31.4</ele><time>2026-04-04T14:35:55.723Z</time></trkpt><trkpt lat="42.7725604" lon="10.2473033"><ele>34.8</ele><time>2026-04-04T14:35:56.723Z</time></trkpt><trkpt lat="42.7724661" lon="10.247368"><ele>38.2</ele><time>2026-04-04T14:35:57.723Z</time></trkpt><trkpt lat="42.7723795" lon="10.247439"><ele>41.6</ele><time>2026-04-04T14:35:58.723Z</time></trkpt><trkpt lat="42.7722962" lon="10.2475156"><ele>45.0</ele><time>2026-04-04T14:35:59.723Z</time></trkpt><trkpt lat="42.7722099" lon="10.2476127"><ele>45.0</ele><time>2026-04-04T14:36:00.723Z</time></trkpt><trkpt lat="42.7721181" lon="10.2477118"><ele>45.0</ele><time>2026-04-04T14:36:01.723Z</time></trkpt><trkpt lat="42.7720384" lon="10.2478241"><ele>45.0</ele><time>2026-04-04T14:36:02.723Z</time></trkpt><trkpt lat="42.7719683" lon="10.2479493"><ele>45.0</ele><time>2026-04-04T14:36:03.723Z</time></trkpt><trkpt lat="42.7718979" lon="10.2480857"><ele>45.6</ele><time>2026-04-04T14:36:04.723Z</time></trkpt><trkpt lat="42.7718442" lon="10.2482087"><ele>46.2</ele><time>2026-04-04T14:36:05.723Z</time></trkpt><trkpt lat="42.7717765" lon="10.2483327"><ele>46.8</ele><time>2026-04-04T14:36:06.723Z</time></trkpt><trkpt lat="42.7717189" lon="10.2484617"><ele>47.4</ele><time>2026-04-04T14:36:07.723Z</time></trkpt><trkpt lat="42.7716531" lon="10.2485862"><ele>48.0</ele><time>2026-04-04T14:36:08.723Z</time></trkpt><trkpt lat="42.7715679" lon="10.2487015"><ele>48.0</ele><time>2026-04-04T14:36:09.723Z</time></trkpt><trkpt lat="42.7714723" lon="10.2488001"><ele>48.0</ele><time>2026-04-04T14:36:10.722Z</time></trkpt><trkpt lat="42.7713813" lon="10.2488839"><ele>48.0</ele><time>2026-04-04T14:36:11.723Z</time></trkpt><trkpt lat="42.7712982" lon="10.2489767"><ele>48.0</ele><time>2026-04-04T14:36:12.723Z</time></trkpt><trkpt lat="42.7712268" lon="10.2490773"><ele>48.0</ele><time>2026-04-04T14:36:13.723Z</time></trkpt><trkpt lat="42.7711668" lon="10.2491771"><ele>48.166666666666664</ele><time>2026-04-04T14:36:14.723Z</time></trkpt><trkpt lat="42.7711223" lon="10.2492612"><ele>48.33333333333333</ele><time>2026-04-04T14:36:15.723Z</time></trkpt><trkpt lat="42.7710816" lon="10.2493435"><ele>48.5</ele><time>2026-04-04T14:36:16.723Z</time></trkpt><trkpt lat="42.7710239" lon="10.2494657"><ele>48.666666666666664</ele><time>2026-04-04T14:36:18.722Z</time></trkpt><trkpt lat="42.770986" lon="10.249542"><ele>48.83333333333333</ele><time>2026-04-04T14:36:20.723Z</time></trkpt><trkpt lat="42.7709385" lon="10.2496044"><ele>49.0</ele><time>2026-04-04T14:36:23.723Z</time></trkpt><trkpt lat="42.770868" lon="10.2496989"><ele>48.99999999999999</ele><time>2026-04-04T14:36:26.722Z</time></trkpt><trkpt lat="42.7708277" lon="10.2497708"><ele>49.0</ele><time>2026-04-04T14:36:27.723Z</time></trkpt><trkpt lat="42.7707776" lon="10.2498609"><ele>49.0</ele><time>2026-04-04T14:36:28.722Z</time></trkpt><trkpt lat="42.7707357" lon="10.2499677"><ele>49.0</ele><time>2026-04-04T14:36:29.723Z</time></trkpt><trkpt lat="42.7707025" lon="10.2500982"><ele>48.99999999999999</ele><time>2026-04-04T14:36:30.723Z</time></trkpt><trkpt lat="42.7706881" lon="10.250246"><ele>49.0</ele><time>2026-04-04T14:36:31.723Z</time></trkpt><trkpt lat="42.7706999" lon="10.2504088"><ele>50.99999999999999</ele><time>2026-04-04T14:36:32.723Z</time></trkpt><trkpt lat="42.77072" lon="10.2505697"><ele>53.0</ele><time>2026-04-04T14:36:33.723Z</time></trkpt><trkpt lat="42.7707335" lon="10.2507105"><ele>55.0</ele><time>2026-04-04T14:36:34.723Z</time></trkpt><trkpt lat="42.770744" lon="10.2508238"><ele>57.0</ele><time>2026-04-04T14:36:35.723Z</time></trkpt><trkpt lat="42.7707643" lon="10.2509147"><ele>58.99999999999999</ele><time>2026-04-04T14:36:36.723Z</time></trkpt><trkpt lat="42.77081" lon="10.250977"><ele>61.0</ele><time>2026-04-04T14:36:37.723Z</time></trkpt><trkpt lat="42.770917" lon="10.2509504"><ele>61.0</ele><time>2026-04-04T14:36:39.723Z</time></trkpt><trkpt lat="42.770927" lon="10.2507611"><ele>60.99999999999999</ele><time>2026-04-04T14:36:41.722Z</time></trkpt><trkpt lat="42.7709091" lon="10.2506257"><ele>60.99999999999999</ele><time>2026-04-04T14:36:42.723Z</time></trkpt><trkpt lat="42.7708976" lon="10.250499"><ele>61.0</ele><time>2026-04-04T14:36:43.723Z</time></trkpt><trkpt lat="42.7709037" lon="10.2503548"><ele>61.0</ele><time>2026-04-04T14:36:44.723Z</time></trkpt><trkpt lat="42.7709249" lon="10.2502235"><ele>61.0</ele><time>2026-04-04T14:36:45.723Z</time></trkpt><trkpt lat="42.7709775" lon="10.2501187"><ele>60.99999999999999</ele><time>2026-04-04T14:36:46.723Z</time></trkpt><trkpt lat="42.7710535" lon="10.2500259"><ele>60.99999999999999</ele><time>2026-04-04T14:36:47.723Z</time></trkpt><trkpt lat="42.77115" lon="10.2499417"><ele>61.0</ele><time>2026-04-04T14:36:48.723Z</time></trkpt><trkpt lat="42.7712486" lon="10.2498648"><ele>61.0</ele><time>2026-04-04T14:36:49.723Z</time></trkpt><trkpt lat="42.7713224" lon="10.2498105"><ele>63.199999999999996</ele><time>2026-04-04T14:36:50.723Z</time></trkpt><trkpt lat="42.7714449" lon="10.2498282"><ele>65.39999999999999</ele><time>2026-04-04T14:36:52.723Z</time></trkpt><trkpt lat="42.7715027" lon="10.2499059"><ele>67.6</ele><time>2026-04-04T14:36:53.723Z</time></trkpt><trkpt lat="42.7715289" lon="10.2500101"><ele>69.8</ele><time>2026-04-04T14:36:54.723Z</time></trkpt><trkpt lat="42.7715222" lon="10.2501354"><ele>72.0</ele><time>2026-04-04T14:36:55.723Z</time></trkpt><trkpt lat="42.7714926" lon="10.2502749"><ele>72.0</ele><time>2026-04-04T14:36:56.723Z</time></trkpt><trkpt lat="42.7714512" lon="10.2503812"><ele>72.0</ele><time>2026-04-04T14:36:57.723Z</time></trkpt><trkpt lat="42.771415" lon="10.2504527"><ele>72.0</ele><time>2026-04-04T14:36:58.723Z</time></trkpt><trkpt lat="42.7713801" lon="10.2505506"><ele>72.0</ele><time>2026-04-04T14:36:59.723Z</time></trkpt><trkpt lat="42.7713466" lon="10.250688"><ele>72.0</ele><time>2026-04-04T14:37:00.722Z</time></trkpt><trkpt lat="42.771327" lon="10.2508387"><ele>74.2</ele><time>2026-04-04T14:37:01.723Z</time></trkpt><trkpt lat="42.7713319" lon="10.2509838"><ele>76.4</ele><time>2026-04-04T14:37:02.723Z</time></trkpt><trkpt lat="42.7713432" lon="10.2511374"><ele>78.60000000000001</ele><time>2026-04-04T14:37:03.723Z</time></trkpt><trkpt lat="42.7713598" lon="10.2512922"><ele>80.80000000000001</ele><time>2026-04-04T14:37:04.723Z</time></trkpt><trkpt lat="42.7713979" lon="10.251437"><ele>83.0</ele><time>2026-04-04T14:37:05.723Z</time></trkpt><trkpt lat="42.7714398" lon="10.2515883"><ele>84.16666666666667</ele><time>2026-04-04T14:37:06.723Z</time></trkpt><trkpt lat="42.7714703" lon="10.2517339"><ele>85.33333333333334</ele><time>2026-04-04T14:37:07.723Z</time></trkpt><trkpt lat="42.7714865" lon="10.2518637"><ele>86.5</ele><time>2026-04-04T14:37:08.723Z</time></trkpt><trkpt lat="42.7714849" lon="10.2519763"><ele>87.66666666666667</ele><time>2026-04-04T14:37:09.722Z</time></trkpt><trkpt lat="42.7714587" lon="10.2520783"><ele>88.83333333333333</ele><time>2026-04-04T14:37:10.723Z</time></trkpt><trkpt lat="42.7714102" lon="10.2521595"><ele>90.0</ele><time>2026-04-04T14:37:11.723Z</time></trkpt><trkpt lat="42.7713454" lon="10.2522329"><ele>92.0</ele><time>2026-04-04T14:37:12.723Z</time></trkpt><trkpt lat="42.7712778" lon="10.2523038"><ele>94.0</ele><time>2026-04-04T14:37:13.723Z</time></trkpt><trkpt lat="42.7712243" lon="10.252391"><ele>96.0</ele><time>2026-04-04T14:37:14.723Z</time></trkpt><trkpt lat="42.771182" lon="10.2524888"><ele>98.0</ele><time>2026-04-04T14:37:15.723Z</time></trkpt><trkpt lat="42.7711392" lon="10.2526031"><ele>100.0</ele><time>2026-04-04T14:37:16.723Z</time></trkpt><trkpt lat="42.771084" lon="10.2527097"><ele>102.0</ele><time>2026-04-04T14:37:17.723Z</time></trkpt><trkpt lat="42.7710258" lon="10.2528248"><ele>101.0</ele><time>2026-04-04T14:37:18.723Z</time></trkpt><trkpt lat="42.7709849" lon="10.2529761"><ele>100.0</ele><time>2026-04-04T14:37:19.723Z</time></trkpt><trkpt lat="42.7709564" lon="10.2531455"><ele>99.0</ele><time>2026-04-04T14:37:20.722Z</time></trkpt><trkpt lat="42.7709266" lon="10.2532902"><ele>98.0</ele><time>2026-04-04T14:37:21.723Z</time></trkpt><trkpt lat="42.7708857" lon="10.2534217"><ele>98.0</ele><time>2026-04-04T14:37:22.723Z</time></trkpt><trkpt lat="42.7708407" lon="10.2535461"><ele>98.0</ele><time>2026-04-04T14:37:23.723Z</time></trkpt><trkpt lat="42.7707981" lon="10.2536545"><ele>98.0</ele><time>2026-04-04T14:37:24.723Z</time></trkpt><trkpt lat="42.770746" lon="10.2537473"><ele>98.0</ele><time>2026-04-04T14:37:25.723Z</time></trkpt><trkpt lat="42.7706665" lon="10.2538605"><ele>98.0</ele><time>2026-04-04T14:37:26.723Z</time></trkpt><trkpt lat="42.7705784" lon="10.25397"><ele>98.5</ele><time>2026-04-04T14:37:27.723Z</time></trkpt><trkpt lat="42.7704897" lon="10.2540642"><ele>99.0</ele><time>2026-04-04T14:37:28.723Z</time></trkpt><trkpt lat="42.7703911" lon="10.2541511"><ele>99.5</ele><time>2026-04-04T14:37:29.723Z</time></trkpt><trkpt lat="42.7702824" lon="10.2542361"><ele>100.0</ele><time>2026-04-04T14:37:30.723Z</time></trkpt><trkpt lat="42.7701749" lon="10.2543161"><ele>98.5</ele><time>2026-04-04T14:37:31.723Z</time></trkpt><trkpt lat="42.7700654" lon="10.2543926"><ele>97.0</ele><time>2026-04-04T14:37:32.722Z</time></trkpt><trkpt lat="42.769959" lon="10.2544767"><ele>95.5</ele><time>2026-04-04T14:37:33.723Z</time></trkpt><trkpt lat="42.769854" lon="10.2545788"><ele>94.0</ele><time>2026-04-04T14:37:34.723Z</time></trkpt><trkpt lat="42.7697617" lon="10.2547008"><ele>96.25</ele><time>2026-04-04T14:37:35.723Z</time></trkpt><trkpt lat="42.7696794" lon="10.254822"><ele>98.5</ele><time>2026-04-04T14:37:36.723Z</time></trkpt><trkpt lat="42.7696093" lon="10.2549374"><ele>100.75</ele><time>2026-04-04T14:37:37.723Z</time></trkpt><trkpt lat="42.7695493" lon="10.2550644"><ele>103.0</ele><time>2026-04-04T14:37:38.723Z</time></trkpt><trkpt lat="42.76951" lon="10.2552083"><ele>103.00000000000001</ele><time>2026-04-04T14:37:39.723Z</time></trkpt><trkpt lat="42.7694915" lon="10.2553699"><ele>103.0</ele><time>2026-04-04T14:37:40.723Z</time></trkpt><trkpt lat="42.7694773" lon="10.2555077"><ele>103.0</ele><time>2026-04-04T14:37:41.723Z</time></trkpt><trkpt lat="42.7694503" lon="10.2556098"><ele>103.0</ele><time>2026-04-04T14:37:42.723Z</time></trkpt><trkpt lat="42.7694118" lon="10.2556818"><ele>103.00000000000001</ele><time>2026-04-04T14:37:43.723Z</time></trkpt><trkpt lat="42.7693588" lon="10.2557369"><ele>103.0</ele><time>2026-04-04T14:37:44.722Z</time></trkpt><trkpt lat="42.7692918" lon="10.2557819"><ele>103.60000000000001</ele><time>2026-04-04T14:37:45.723Z</time></trkpt><trkpt lat="42.7692015" lon="10.2558134"><ele>104.2</ele><time>2026-04-04T14:37:46.723Z</time></trkpt><trkpt lat="42.7691013" lon="10.2558446"><ele>104.8</ele><time>2026-04-04T14:37:47.722Z</time></trkpt><trkpt lat="42.7689894" lon="10.2558783"><ele>105.4</ele><time>2026-04-04T14:37:48.723Z</time></trkpt><trkpt lat="42.7688668" lon="10.2559146"><ele>106.0</ele><time>2026-04-04T14:37:49.723Z</time></trkpt><trkpt lat="42.7687534" lon="10.2559498"><ele>106.0</ele><time>2026-04-04T14:37:50.723Z</time></trkpt><trkpt lat="42.7686489" lon="10.2559777"><ele>106.0</ele><time>2026-04-04T14:37:51.722Z</time></trkpt><trkpt lat="42.768545" lon="10.2559889"><ele>106.0</ele><time>2026-04-04T14:37:52.723Z</time></trkpt><trkpt lat="42.7684532" lon="10.2559775"><ele>106.0</ele><time>2026-04-04T14:37:53.723Z</time></trkpt><trkpt lat="42.7683772" lon="10.2559584"><ele>106.0</ele><time>2026-04-04T14:37:54.723Z</time></trkpt><trkpt lat="42.7683088" lon="10.2559398"><ele>107.16666666666667</ele><time>2026-04-04T14:37:55.723Z</time></trkpt><trkpt lat="42.7682299" lon="10.2559121"><ele>108.33333333333334</ele><time>2026-04-04T14:37:56.723Z</time></trkpt><trkpt lat="42.7681446" lon="10.2558718"><ele>109.5</ele><time>2026-04-04T14:37:57.722Z</time></trkpt><trkpt lat="42.7680634" lon="10.255821"><ele>110.66666666666666</ele><time>2026-04-04T14:37:58.723Z</time></trkpt><trkpt lat="42.7679877" lon="10.2557534"><ele>111.83333333333333</ele><time>2026-04-04T14:37:59.723Z</time></trkpt><trkpt lat="42.7679119" lon="10.2556718"><ele>113.0</ele><time>2026-04-04T14:38:00.723Z</time></trkpt><trkpt lat="42.7678418" lon="10.2555743"><ele>112.49999999999999</ele><time>2026-04-04T14:38:01.723Z</time></trkpt><trkpt lat="42.7677726" lon="10.2554938"><ele>112.0</ele><time>2026-04-04T14:38:02.723Z</time></trkpt><trkpt lat="42.7677043" lon="10.2554389"><ele>111.5</ele><time>2026-04-04T14:38:03.722Z</time></trkpt><trkpt lat="42.7676324" lon="10.2553976"><ele>111.0</ele><time>2026-04-04T14:38:04.722Z</time></trkpt><trkpt lat="42.7675548" lon="10.2553626"><ele>110.49999999999999</ele><time>2026-04-04T14:38:05.723Z</time></trkpt><trkpt lat="42.7674761" lon="10.2553398"><ele>110.0</ele><time>2026-04-04T14:38:06.722Z</time></trkpt><trkpt lat="42.7674083" lon="10.255329"><ele>110.0</ele><time>2026-04-04T14:38:07.723Z</time></trkpt><trkpt lat="42.7673309" lon="10.2553168"><ele>110.0</ele><time>2026-04-04T14:38:08.723Z</time></trkpt><trkpt lat="42.7672354" lon="10.2552823"><ele>110.0</ele><time>2026-04-04T14:38:09.723Z</time></trkpt><trkpt lat="42.7671461" lon="10.255228"><ele>110.0</ele><time>2026-04-04T14:38:10.723Z</time></trkpt><trkpt lat="42.7670767" lon="10.2551736"><ele>110.0</ele><time>2026-04-04T14:38:11.723Z</time></trkpt><trkpt lat="42.7669669" lon="10.2551235"><ele>110.0</ele><time>2026-04-04T14:38:13.723Z</time></trkpt><trkpt lat="42.7668974" lon="10.2551837"><ele>110.0</ele><time>2026-04-04T14:38:15.723Z</time></trkpt><trkpt lat="42.7668712" lon="10.2553232"><ele>110.0</ele><time>2026-04-04T14:38:17.723Z</time></trkpt><trkpt lat="42.7669015" lon="10.2554228"><ele>110.0</ele><time>2026-04-04T14:38:19.723Z</time></trkpt><trkpt lat="42.7669945" lon="10.2554528"><ele>110.0</ele><time>2026-04-04T14:38:21.723Z</time></trkpt><trkpt lat="42.7670905" lon="10.2554547"><ele>109.99999999999999</ele><time>2026-04-04T14:38:23.722Z</time></trkpt><trkpt lat="42.7672021" lon="10.2554619"><ele>110.0</ele><time>2026-04-04T14:38:25.723Z</time></trkpt><trkpt lat="42.7672687" lon="10.2554776"><ele>110.0</ele><time>2026-04-04T14:38:26.723Z</time></trkpt><trkpt lat="42.7673614" lon="10.2555152"><ele>110.0</ele><time>2026-04-04T14:38:27.723Z</time></trkpt><trkpt lat="42.7674399" lon="10.255552"><ele>109.99999999999999</ele><time>2026-04-04T14:38:28.723Z</time></trkpt><trkpt lat="42.7675179" lon="10.2556061"><ele>110.0</ele><time>2026-04-04T14:38:29.723Z</time></trkpt><trkpt lat="42.7675796" lon="10.2556768"><ele>110.49999999999999</ele><time>2026-04-04T14:38:30.723Z</time></trkpt><trkpt lat="42.7676155" lon="10.255766"><ele>111.0</ele><time>2026-04-04T14:38:31.723Z</time></trkpt><trkpt lat="42.7676522" lon="10.2558653"><ele>111.5</ele><time>2026-04-04T14:38:32.723Z</time></trkpt><trkpt lat="42.7676671" lon="10.2559829"><ele>112.0</ele><time>2026-04-04T14:38:33.723Z</time></trkpt><trkpt lat="42.7676976" lon="10.2560771"><ele>112.49999999999999</ele><time>2026-04-04T14:38:34.723Z</time></trkpt><trkpt lat="42.7677552" lon="10.2561478"><ele>113.0</ele><time>2026-04-04T14:38:35.723Z</time></trkpt><trkpt lat="42.7678105" lon="10.2562093"><ele>112.99999999999999</ele><time>2026-04-04T14:38:36.723Z</time></trkpt><trkpt lat="42.7679166" lon="10.2563101"><ele>113.0</ele><time>2026-04-04T14:38:38.723Z</time></trkpt><trkpt lat="42.7679889" lon="10.2563802"><ele>113.0</ele><time>2026-04-04T14:38:39.722Z</time></trkpt><trkpt lat="42.7680587" lon="10.2564379"><ele>113.0</ele><time>2026-04-04T14:38:40.723Z</time></trkpt><trkpt lat="42.7681221" lon="10.2564865"><ele>112.99999999999999</ele><time>2026-04-04T14:38:41.723Z</time></trkpt><trkpt lat="42.7681854" lon="10.2565144"><ele>113.0</ele><time>2026-04-04T14:38:42.722Z</time></trkpt><trkpt lat="42.7682463" lon="10.2565404"><ele>114.42857142857143</ele><time>2026-04-04T14:38:43.723Z</time></trkpt><trkpt lat="42.7683185" lon="10.2565629"><ele>115.85714285714286</ele><time>2026-04-04T14:38:44.722Z</time></trkpt><trkpt lat="42.7683794" lon="10.2565867"><ele>117.28571428571429</ele><time>2026-04-04T14:38:45.723Z</time></trkpt><trkpt lat="42.7684461" lon="10.2566251"><ele>118.71428571428572</ele><time>2026-04-04T14:38:46.723Z</time></trkpt><trkpt lat="42.7685123" lon="10.2566671"><ele>120.14285714285714</ele><time>2026-04-04T14:38:47.723Z</time></trkpt><trkpt lat="42.7685804" lon="10.2567185"><ele>121.57142857142858</ele><time>2026-04-04T14:38:48.723Z</time></trkpt><trkpt lat="42.7686435" lon="10.256797"><ele>123.00000000000001</ele><time>2026-04-04T14:38:49.723Z</time></trkpt><trkpt lat="42.7687058" lon="10.2568692"><ele>123.0</ele><time>2026-04-04T14:38:50.723Z</time></trkpt><trkpt lat="42.7687632" lon="10.2569668"><ele>123.0</ele><time>2026-04-04T14:38:51.722Z</time></trkpt><trkpt lat="42.7688313" lon="10.2570598"><ele>123.0</ele><time>2026-04-04T14:38:52.723Z</time></trkpt><trkpt lat="42.7688806" lon="10.2571406"><ele>123.0</ele><time>2026-04-04T14:38:53.723Z</time></trkpt><trkpt lat="42.7689383" lon="10.2572326"><ele>123.0</ele><time>2026-04-04T14:38:54.722Z</time></trkpt><trkpt lat="42.7689978" lon="10.2573148"><ele>123.0</ele><time>2026-04-04T14:38:55.723Z</time></trkpt><trkpt lat="42.7690611" lon="10.2573994"><ele>126.0</ele><time>2026-04-04T14:38:56.723Z</time></trkpt><trkpt lat="42.769112" lon="10.2574622"><ele>129.0</ele><time>2026-04-04T14:38:57.723Z</time></trkpt><trkpt lat="42.7691847" lon="10.2575565"><ele>132.0</ele><time>2026-04-04T14:38:59.723Z</time></trkpt><trkpt lat="42.7692231" lon="10.2576537"><ele>135.0</ele><time>2026-04-04T14:39:01.723Z</time></trkpt><trkpt lat="42.7691806" lon="10.257765"><ele>138.0</ele><time>2026-04-04T14:39:04.723Z</time></trkpt><trkpt lat="42.7690963" lon="10.25774"><ele>141.0</ele><time>2026-04-04T14:39:06.723Z</time></trkpt><trkpt lat="42.7689813" lon="10.2575903"><ele>141.0</ele><time>2026-04-04T14:39:08.723Z</time></trkpt><trkpt lat="42.7689151" lon="10.2575291"><ele>141.0</ele><time>2026-04-04T14:39:09.723Z</time></trkpt><trkpt lat="42.7688406" lon="10.257471"><ele>141.0</ele><time>2026-04-04T14:39:10.723Z</time></trkpt><trkpt lat="42.7687472" lon="10.257419"><ele>141.0</ele><time>2026-04-04T14:39:11.723Z</time></trkpt><trkpt lat="42.768664" lon="10.2573594"><ele>141.0</ele><time>2026-04-04T14:39:12.722Z</time></trkpt><trkpt lat="42.7685819" lon="10.2572993"><ele>140.4</ele><time>2026-04-04T14:39:13.723Z</time></trkpt><trkpt lat="42.7685058" lon="10.2572318"><ele>139.8</ele><time>2026-04-04T14:39:14.723Z</time></trkpt><trkpt lat="42.7684277" lon="10.2571635"><ele>139.20000000000002</ele><time>2026-04-04T14:39:15.722Z</time></trkpt><trkpt lat="42.7683413" lon="10.2570842"><ele>138.6</ele><time>2026-04-04T14:39:16.723Z</time></trkpt><trkpt lat="42.7682573" lon="10.2570242"><ele>138.0</ele><time>2026-04-04T14:39:17.723Z</time></trkpt><trkpt lat="42.7681771" lon="10.2569898"><ele>138.0</ele><time>2026-04-04T14:39:18.723Z</time></trkpt><trkpt lat="42.7680831" lon="10.2569678"><ele>138.0</ele><time>2026-04-04T14:39:19.723Z</time></trkpt><trkpt lat="42.7679876" lon="10.256947"><ele>138.0</ele><time>2026-04-04T14:39:20.722Z</time></trkpt><trkpt lat="42.7679053" lon="10.2569254"><ele>138.0</ele><time>2026-04-04T14:39:21.723Z</time></trkpt><trkpt lat="42.7678258" lon="10.2569001"><ele>138.0</ele><time>2026-04-04T14:39:22.723Z</time></trkpt><trkpt lat="42.767747" lon="10.2568712"><ele>138.0</ele><time>2026-04-04T14:39:23.723Z</time></trkpt><trkpt lat="42.7676801" lon="10.2568521"><ele>138.0</ele><time>2026-04-04T14:39:24.723Z</time></trkpt><trkpt lat="42.7675976" lon="10.2569065"><ele>138.0</ele><time>2026-04-04T14:39:26.723Z</time></trkpt><trkpt lat="42.767596" lon="10.2570042"><ele>138.0</ele><time>2026-04-04T14:39:28.723Z</time></trkpt><trkpt lat="42.7676661" lon="10.2570496"><ele>138.0</ele><time>2026-04-04T14:39:30.723Z</time></trkpt><trkpt lat="42.7677795" lon="10.2570731"><ele>138.0</ele><time>2026-04-04T14:39:32.723Z</time></trkpt><trkpt lat="42.7678432" lon="10.2570789"><ele>138.0</ele><time>2026-04-04T14:39:33.723Z</time></trkpt><trkpt lat="42.7679077" lon="10.2570886"><ele>138.0</ele><time>2026-04-04T14:39:34.723Z</time></trkpt><trkpt lat="42.767984" lon="10.2571315"><ele>138.0</ele><time>2026-04-04T14:39:35.723Z</time></trkpt><trkpt lat="42.7680515" lon="10.2571983"><ele>138.0</ele><time>2026-04-04T14:39:36.723Z</time></trkpt><trkpt lat="42.7681264" lon="10.2572701"><ele>138.0</ele><time>2026-04-04T14:39:37.723Z</time></trkpt><trkpt lat="42.7681934" lon="10.2573628"><ele>138.0</ele><time>2026-04-04T14:39:38.723Z</time></trkpt><trkpt lat="42.7682422" lon="10.2574522"><ele>138.0</ele><time>2026-04-04T14:39:39.723Z</time></trkpt><trkpt lat="42.7682877" lon="10.2575406"><ele>140.66666666666666</ele><time>2026-04-04T14:39:40.723Z</time></trkpt><trkpt lat="42.7683353" lon="10.2576349"><ele>143.33333333333334</ele><time>2026-04-04T14:39:41.723Z</time></trkpt><trkpt lat="42.7683705" lon="10.2577163"><ele>146.0</ele><time>2026-04-04T14:39:42.723Z</time></trkpt><trkpt lat="42.7684037" lon="10.2578119"><ele>148.66666666666669</ele><time>2026-04-04T14:39:43.723Z</time></trkpt><trkpt lat="42.768451" lon="10.2579142"><ele>151.33333333333334</ele><time>2026-04-04T14:39:44.723Z</time></trkpt><trkpt lat="42.7684982" lon="10.2580168"><ele>154.0</ele><time>2026-04-04T14:39:45.722Z</time></trkpt><trkpt lat="42.7685352" lon="10.2581217"><ele>154.0</ele><time>2026-04-04T14:39:46.723Z</time></trkpt><trkpt lat="42.7685757" lon="10.2582255"><ele>154.0</ele><time>2026-04-04T14:39:47.723Z</time></trkpt><trkpt lat="42.7686236" lon="10.2583458"><ele>154.0</ele><time>2026-04-04T14:39:48.722Z</time></trkpt><trkpt lat="42.7686617" lon="10.2584984"><ele>154.0</ele><time>2026-04-04T14:39:49.723Z</time></trkpt><trkpt lat="42.7686944" lon="10.2586522"><ele>154.0</ele><time>2026-04-04T14:39:50.723Z</time></trkpt><trkpt lat="42.7687323" lon="10.258802"><ele>156.75</ele><time>2026-04-04T14:39:51.723Z</time></trkpt><trkpt lat="42.7687649" lon="10.258954"><ele>159.5</ele><time>2026-04-04T14:39:52.722Z</time></trkpt><trkpt lat="42.7688231" lon="10.2591068"><ele>162.25</ele><time>2026-04-04T14:39:53.722Z</time></trkpt><trkpt lat="42.768875" lon="10.2592458"><ele>165.0</ele><time>2026-04-04T14:39:54.723Z</time></trkpt><trkpt lat="42.768941" lon="10.2593785"><ele>165.0</ele><time>2026-04-04T14:39:55.723Z</time></trkpt><trkpt lat="42.7689998" lon="10.2595052"><ele>165.0</ele><time>2026-04-04T14:39:56.722Z</time></trkpt><trkpt lat="42.7690596" lon="10.2596178"><ele>165.0</ele><time>2026-04-04T14:39:57.723Z</time></trkpt><trkpt lat="42.76915" lon="10.2597057"><ele>165.0</ele><time>2026-04-04T14:39:58.723Z</time></trkpt><trkpt lat="42.7692482" lon="10.2597919"><ele>165.0</ele><time>2026-04-04T14:39:59.722Z</time></trkpt><trkpt lat="42.7693384" lon="10.2598473"><ele>164.6</ele><time>2026-04-04T14:40:00.723Z</time></trkpt><trkpt lat="42.7694317" lon="10.2598909"><ele>164.2</ele><time>2026-04-04T14:40:01.723Z</time></trkpt><trkpt lat="42.7695134" lon="10.2599446"><ele>163.8</ele><time>2026-04-04T14:40:02.723Z</time></trkpt><trkpt lat="42.7695939" lon="10.2600083"><ele>163.4</ele><time>2026-04-04T14:40:03.723Z</time></trkpt><trkpt lat="42.7696771" lon="10.2601076"><ele>163.0</ele><time>2026-04-04T14:40:04.723Z</time></trkpt><trkpt lat="42.7697529" lon="10.2602087"><ele>163.0</ele><time>2026-04-04T14:40:05.723Z</time></trkpt><trkpt lat="42.7698255" lon="10.2603087"><ele>163.0</ele><time>2026-04-04T14:40:06.722Z</time></trkpt><trkpt lat="42.769904" lon="10.2604131"><ele>163.0</ele><time>2026-04-04T14:40:07.722Z</time></trkpt><trkpt lat="42.7700022" lon="10.2605086"><ele>163.0</ele><time>2026-04-04T14:40:08.723Z</time></trkpt><trkpt lat="42.7701016" lon="10.2605985"><ele>161.6</ele><time>2026-04-04T14:40:09.723Z</time></trkpt><trkpt lat="42.7701803" lon="10.2606955"><ele>160.20000000000002</ele><time>2026-04-04T14:40:10.723Z</time></trkpt><trkpt lat="42.7702478" lon="10.2607972"><ele>158.8</ele><time>2026-04-04T14:40:11.722Z</time></trkpt><trkpt lat="42.7703162" lon="10.260894"><ele>157.4</ele><time>2026-04-04T14:40:12.723Z</time></trkpt><trkpt lat="42.7703682" lon="10.2609869"><ele>156.0</ele><time>2026-04-04T14:40:13.723Z</time></trkpt><trkpt lat="42.7704088" lon="10.2610793"><ele>156.0</ele><time>2026-04-04T14:40:14.723Z</time></trkpt><trkpt lat="42.77044" lon="10.2611809"><ele>156.0</ele><time>2026-04-04T14:40:15.723Z</time></trkpt><trkpt lat="42.7704465" lon="10.2612894"><ele>156.0</ele><time>2026-04-04T14:40:16.723Z</time></trkpt><trkpt lat="42.7704556" lon="10.2613967"><ele>156.0</ele><time>2026-04-04T14:40:17.723Z</time></trkpt><trkpt lat="42.7704255" lon="10.261531"><ele>156.0</ele><time>2026-04-04T14:40:18.723Z</time></trkpt><trkpt lat="42.7704059" lon="10.2616676"><ele>156.0</ele><time>2026-04-04T14:40:19.723Z</time></trkpt><trkpt lat="42.7704035" lon="10.2618062"><ele>156.16666666666666</ele><time>2026-04-04T14:40:20.723Z</time></trkpt><trkpt lat="42.7703916" lon="10.2619174"><ele>156.33333333333334</ele><time>2026-04-04T14:40:21.723Z</time></trkpt><trkpt lat="42.7703667" lon="10.2620049"><ele>156.5</ele><time>2026-04-04T14:40:22.723Z</time></trkpt><trkpt lat="42.7703204" lon="10.2621049"><ele>156.66666666666669</ele><time>2026-04-04T14:40:23.723Z</time></trkpt><trkpt lat="42.7702699" lon="10.2621966"><ele>156.83333333333334</ele><time>2026-04-04T14:40:24.723Z</time></trkpt><trkpt lat="42.7702087" lon="10.2622936"><ele>157.0</ele><time>2026-04-04T14:40:25.723Z</time></trkpt><trkpt lat="42.7701304" lon="10.262391"><ele>162.5</ele><time>2026-04-04T14:40:26.723Z</time></trkpt><trkpt lat="42.7700666" lon="10.2624716"><ele>168.0</ele><time>2026-04-04T14:40:27.723Z</time></trkpt><trkpt lat="42.770005" lon="10.2625528"><ele>173.5</ele><time>2026-04-04T14:40:28.723Z</time></trkpt><trkpt lat="42.7699423" lon="10.2626351"><ele>179.0</ele><time>2026-04-04T14:40:29.723Z</time></trkpt><trkpt lat="42.7698877" lon="10.2627159"><ele>184.5</ele><time>2026-04-04T14:40:30.723Z</time></trkpt><trkpt lat="42.7698396" lon="10.2628013"><ele>190.0</ele><time>2026-04-04T14:40:31.722Z</time></trkpt><trkpt lat="42.7698022" lon="10.2628821"><ele>190.0</ele><time>2026-04-04T14:40:32.723Z</time></trkpt><trkpt lat="42.7697766" lon="10.2629756"><ele>190.0</ele><time>2026-04-04T14:40:33.723Z</time></trkpt><trkpt lat="42.7697551" lon="10.2630763"><ele>190.0</ele><time>2026-04-04T14:40:34.723Z</time></trkpt><trkpt lat="42.7697426" lon="10.2631751"><ele>190.0</ele><time>2026-04-04T14:40:35.723Z</time></trkpt><trkpt lat="42.7697781" lon="10.2632914"><ele>190.0</ele><time>2026-04-04T14:40:36.723Z</time></trkpt><trkpt lat="42.7698108" lon="10.2633902"><ele>190.0</ele><time>2026-04-04T14:40:37.723Z</time></trkpt><trkpt lat="42.7698708" lon="10.2634849"><ele>189.0</ele><time>2026-04-04T14:40:38.723Z</time></trkpt><trkpt lat="42.7699219" lon="10.2635774"><ele>188.0</ele><time>2026-04-04T14:40:39.723Z</time></trkpt><trkpt lat="42.7699571" lon="10.2636813"><ele>187.0</ele><time>2026-04-04T14:40:40.723Z</time></trkpt><trkpt lat="42.769996" lon="10.2637998"><ele>186.0</ele><time>2026-04-04T14:40:41.723Z</time></trkpt><trkpt lat="42.7700499" lon="10.26391"><ele>185.0</ele><time>2026-04-04T14:40:42.723Z</time></trkpt><trkpt lat="42.7701139" lon="10.2640024"><ele>181.2</ele><time>2026-04-04T14:40:43.723Z</time></trkpt><trkpt lat="42.7701962" lon="10.2641024"><ele>177.4</ele><time>2026-04-04T14:40:44.723Z</time></trkpt><trkpt lat="42.7702624" lon="10.264196"><ele>173.60000000000002</ele><time>2026-04-04T14:40:45.723Z</time></trkpt><trkpt lat="42.7703183" lon="10.2643089"><ele>169.8</ele><time>2026-04-04T14:40:46.723Z</time></trkpt><trkpt lat="42.7703744" lon="10.2644072"><ele>166.0</ele><time>2026-04-04T14:40:47.723Z</time></trkpt><trkpt lat="42.7704231" lon="10.2644757"><ele>166.0</ele><time>2026-04-04T14:40:48.723Z</time></trkpt><trkpt lat="42.7704799" lon="10.2645262"><ele>166.0</ele><time>2026-04-04T14:40:49.723Z</time></trkpt><trkpt lat="42.7705326" lon="10.2645907"><ele>166.0</ele><time>2026-04-04T14:40:50.723Z</time></trkpt><trkpt lat="42.7705676" lon="10.2647072"><ele>166.0</ele><time>2026-04-04T14:40:51.723Z</time></trkpt><trkpt lat="42.7705907" lon="10.2648487"><ele>166.0</ele><time>2026-04-04T14:40:52.723Z</time></trkpt><trkpt lat="42.7706024" lon="10.2649993"><ele>166.0</ele><time>2026-04-04T14:40:53.723Z</time></trkpt><trkpt lat="42.7706067" lon="10.2651452"><ele>168.33333333333334</ele><time>2026-04-04T14:40:54.723Z</time></trkpt><trkpt lat="42.7706112" lon="10.2652933"><ele>170.66666666666669</ele><time>2026-04-04T14:40:55.723Z</time></trkpt><trkpt lat="42.770613" lon="10.2654122"><ele>173.0</ele><time>2026-04-04T14:40:56.723Z</time></trkpt><trkpt lat="42.7706177" lon="10.265507"><ele>175.33333333333334</ele><time>2026-04-04T14:40:57.723Z</time></trkpt><trkpt lat="42.7706667" lon="10.265585"><ele>177.66666666666666</ele><time>2026-04-04T14:40:58.722Z</time></trkpt><trkpt lat="42.7707154" lon="10.265663"><ele>180.0</ele><time>2026-04-04T14:40:59.723Z</time></trkpt><trkpt lat="42.7707813" lon="10.2657244"><ele>181.6</ele><time>2026-04-04T14:41:00.723Z</time></trkpt><trkpt lat="42.7708691" lon="10.2657664"><ele>183.2</ele><time>2026-04-04T14:41:01.723Z</time></trkpt><trkpt lat="42.770963" lon="10.265807"><ele>184.8</ele><time>2026-04-04T14:41:02.723Z</time></trkpt><trkpt lat="42.7710615" lon="10.2658451"><ele>186.4</ele><time>2026-04-04T14:41:03.723Z</time></trkpt><trkpt lat="42.7711515" lon="10.2658692"><ele>188.0</ele><time>2026-04-04T14:41:04.722Z</time></trkpt><trkpt lat="42.7712271" lon="10.2659092"><ele>188.0</ele><time>2026-04-04T14:41:05.722Z</time></trkpt><trkpt lat="42.7713215" lon="10.2659408"><ele>188.0</ele><time>2026-04-04T14:41:06.723Z</time></trkpt><trkpt lat="42.7714099" lon="10.2659755"><ele>188.0</ele><time>2026-04-04T14:41:07.723Z</time></trkpt><trkpt lat="42.7714952" lon="10.2660136"><ele>188.0</ele><time>2026-04-04T14:41:08.723Z</time></trkpt><trkpt lat="42.7715745" lon="10.2660607"><ele>188.0</ele><time>2026-04-04T14:41:09.723Z</time></trkpt><trkpt lat="42.7716443" lon="10.2661152"><ele>188.0</ele><time>2026-04-04T14:41:10.723Z</time></trkpt><trkpt lat="42.7716731" lon="10.2662151"><ele>188.0</ele><time>2026-04-04T14:41:11.723Z</time></trkpt><trkpt lat="42.7716863" lon="10.2663136"><ele>188.0</ele><time>2026-04-04T14:41:12.722Z</time></trkpt><trkpt lat="42.7716716" lon="10.266438"><ele>188.0</ele><time>2026-04-04T14:41:13.723Z</time></trkpt><trkpt lat="42.7716338" lon="10.2665805"><ele>188.0</ele><time>2026-04-04T14:41:14.723Z</time></trkpt><trkpt lat="42.7715929" lon="10.2667069"><ele>188.0</ele><time>2026-04-04T14:41:15.723Z</time></trkpt><trkpt lat="42.7715446" lon="10.266851"><ele>188.60000000000002</ele><time>2026-04-04T14:41:16.723Z</time></trkpt><trkpt lat="42.7714988" lon="10.2669777"><ele>189.20000000000002</ele><time>2026-04-04T14:41:17.723Z</time></trkpt><trkpt lat="42.7714424" lon="10.2670918"><ele>189.8</ele><time>2026-04-04T14:41:18.723Z</time></trkpt><trkpt lat="42.7713785" lon="10.2672045"><ele>190.4</ele><time>2026-04-04T14:41:19.723Z</time></trkpt><trkpt lat="42.7713083" lon="10.2673229"><ele>191.0</ele><time>2026-04-04T14:41:20.723Z</time></trkpt><trkpt lat="42.7712567" lon="10.2674238"><ele>191.0</ele><time>2026-04-04T14:41:21.723Z</time></trkpt><trkpt lat="42.7712198" lon="10.2675064"><ele>191.0</ele><time>2026-04-04T14:41:22.723Z</time></trkpt><trkpt lat="42.7711959" lon="10.2675903"><ele>191.0</ele><time>2026-04-04T14:41:23.723Z</time></trkpt><trkpt lat="42.7711877" lon="10.267735"><ele>191.0</ele><time>2026-04-04T14:41:25.722Z</time></trkpt><trkpt lat="42.7712217" lon="10.267808"><ele>191.0</ele><time>2026-04-04T14:41:26.723Z</time></trkpt><trkpt lat="42.7712611" lon="10.2678872"><ele>191.0</ele><time>2026-04-04T14:41:27.723Z</time></trkpt><trkpt lat="42.7713135" lon="10.2679845"><ele>191.0</ele><time>2026-04-04T14:41:28.723Z</time></trkpt><trkpt lat="42.7713581" lon="10.2680816"><ele>191.0</ele><time>2026-04-04T14:41:29.723Z</time></trkpt><trkpt lat="42.7713995" lon="10.2681656"><ele>191.0</ele><time>2026-04-04T14:41:30.723Z</time></trkpt><trkpt lat="42.7714611" lon="10.2682682"><ele>191.0</ele><time>2026-04-04T14:41:31.723Z</time></trkpt><trkpt lat="42.7715118" lon="10.2683576"><ele>191.0</ele><time>2026-04-04T14:41:32.723Z</time></trkpt><trkpt lat="42.7715814" lon="10.2684351"><ele>191.0</ele><time>2026-04-04T14:41:33.723Z</time></trkpt><trkpt lat="42.771651" lon="10.2684997"><ele>190.16666666666666</ele><time>2026-04-04T14:41:34.723Z</time></trkpt><trkpt lat="42.7717192" lon="10.2685571"><ele>189.33333333333331</ele><time>2026-04-04T14:41:35.723Z</time></trkpt><trkpt lat="42.7717858" lon="10.2686231"><ele>188.5</ele><time>2026-04-04T14:41:36.723Z</time></trkpt><trkpt lat="42.7718544" lon="10.2687049"><ele>187.66666666666666</ele><time>2026-04-04T14:41:37.722Z</time></trkpt><trkpt lat="42.771923" lon="10.2687937"><ele>186.83333333333334</ele><time>2026-04-04T14:41:38.722Z</time></trkpt><trkpt lat="42.7719848" lon="10.2688819"><ele>186.0</ele><time>2026-04-04T14:41:39.723Z</time></trkpt><trkpt lat="42.7720329" lon="10.2689774"><ele>186.0</ele><time>2026-04-04T14:41:40.723Z</time></trkpt><trkpt lat="42.7720754" lon="10.2690789"><ele>186.0</ele><time>2026-04-04T14:41:41.723Z</time></trkpt><trkpt lat="42.7720895" lon="10.2691906"><ele>186.0</ele><time>2026-04-04T14:41:42.723Z</time></trkpt><trkpt lat="42.7720852" lon="10.2693076"><ele>186.0</ele><time>2026-04-04T14:41:43.723Z</time></trkpt><trkpt lat="42.7720627" lon="10.2694326"><ele>186.0</ele><time>2026-04-04T14:41:44.723Z</time></trkpt><trkpt lat="42.7720219" lon="10.2695397"><ele>186.0</ele><time>2026-04-04T14:41:45.723Z</time></trkpt><trkpt lat="42.7719719" lon="10.269649"><ele>186.0</ele><time>2026-04-04T14:41:46.723Z</time></trkpt><trkpt lat="42.7719206" lon="10.2697613"><ele>186.0</ele><time>2026-04-04T14:41:47.723Z</time></trkpt><trkpt lat="42.7718687" lon="10.2698615"><ele>186.0</ele><time>2026-04-04T14:41:48.723Z</time></trkpt><trkpt lat="42.7718204" lon="10.2699354"><ele>186.0</ele><time>2026-04-04T14:41:49.723Z</time></trkpt><trkpt lat="42.7717601" lon="10.2700096"><ele>186.0</ele><time>2026-04-04T14:41:50.723Z</time></trkpt><trkpt lat="42.7716959" lon="10.2700667"><ele>186.0</ele><time>2026-04-04T14:41:51.722Z</time></trkpt><trkpt lat="42.7716188" lon="10.2701157"><ele>191.33333333333334</ele><time>2026-04-04T14:41:52.723Z</time></trkpt><trkpt lat="42.7715363" lon="10.2701678"><ele>196.66666666666669</ele><time>2026-04-04T14:41:53.722Z</time></trkpt><trkpt lat="42.7714663" lon="10.2702203"><ele>202.0</ele><time>2026-04-04T14:41:54.723Z</time></trkpt><trkpt lat="42.7714353" lon="10.2703868"><ele>207.33333333333334</ele><time>2026-04-04T14:41:56.723Z</time></trkpt><trkpt lat="42.7714449" lon="10.2704846"><ele>212.66666666666669</ele><time>2026-04-04T14:41:57.723Z</time></trkpt><trkpt lat="42.7714527" lon="10.2705905"><ele>218.0</ele><time>2026-04-04T14:41:58.723Z</time></trkpt><trkpt lat="42.7714978" lon="10.2706839"><ele>218.00000000000003</ele><time>2026-04-04T14:41:59.723Z</time></trkpt><trkpt lat="42.7715166" lon="10.2707853"><ele>218.0</ele><time>2026-04-04T14:42:00.723Z</time></trkpt><trkpt lat="42.771525" lon="10.2709042"><ele>218.0</ele><time>2026-04-04T14:42:01.723Z</time></trkpt><trkpt lat="42.7715442" lon="10.2710151"><ele>218.0</ele><time>2026-04-04T14:42:02.723Z</time></trkpt><trkpt lat="42.7715655" lon="10.2711185"><ele>218.00000000000003</ele><time>2026-04-04T14:42:03.723Z</time></trkpt><trkpt lat="42.7715838" lon="10.2712252"><ele>218.0</ele><time>2026-04-04T14:42:04.723Z</time></trkpt><trkpt lat="42.7716182" lon="10.27131"><ele>218.00000000000003</ele><time>2026-04-04T14:42:05.723Z</time></trkpt><trkpt lat="42.7716636" lon="10.2713702"><ele>218.0</ele><time>2026-04-04T14:42:06.723Z</time></trkpt><trkpt lat="42.7717228" lon="10.2714073"><ele>218.0</ele><time>2026-04-04T14:42:07.723Z</time></trkpt><trkpt lat="42.7718446" lon="10.271376"><ele>218.0</ele><time>2026-04-04T14:42:09.723Z</time></trkpt><trkpt lat="42.7719083" lon="10.2713336"><ele>218.00000000000003</ele><time>2026-04-04T14:42:10.723Z</time></trkpt><trkpt lat="42.7719749" lon="10.2712911"><ele>218.0</ele><time>2026-04-04T14:42:11.723Z</time></trkpt><trkpt lat="42.7720444" lon="10.2712538"><ele>214.8</ele><time>2026-04-04T14:42:12.723Z</time></trkpt><trkpt lat="42.772115" lon="10.2712222"><ele>211.60000000000002</ele><time>2026-04-04T14:42:13.723Z</time></trkpt><trkpt lat="42.772202" lon="10.2712111"><ele>208.39999999999998</ele><time>2026-04-04T14:42:14.723Z</time></trkpt><trkpt lat="42.7723001" lon="10.2712211"><ele>205.2</ele><time>2026-04-04T14:42:15.723Z</time></trkpt><trkpt lat="42.7723892" lon="10.2712543"><ele>202.0</ele><time>2026-04-04T14:42:16.723Z</time></trkpt><trkpt lat="42.7724797" lon="10.2713111"><ele>202.0</ele><time>2026-04-04T14:42:17.723Z</time></trkpt><trkpt lat="42.7725612" lon="10.2713811"><ele>202.0</ele><time>2026-04-04T14:42:18.723Z</time></trkpt><trkpt lat="42.7726144" lon="10.2715193"><ele>202.0</ele><time>2026-04-04T14:42:19.723Z</time></trkpt><trkpt lat="42.7726604" lon="10.2716364"><ele>202.0</ele><time>2026-04-04T14:42:20.723Z</time></trkpt><trkpt lat="42.77269" lon="10.2717614"><ele>202.0</ele><time>2026-04-04T14:42:21.723Z</time></trkpt><trkpt lat="42.772716" lon="10.2718947"><ele>201.16666666666666</ele><time>2026-04-04T14:42:22.723Z</time></trkpt><trkpt lat="42.7727251" lon="10.2720214"><ele>200.33333333333331</ele><time>2026-04-04T14:42:23.722Z</time></trkpt><trkpt lat="42.7727595" lon="10.2721303"><ele>199.5</ele><time>2026-04-04T14:42:24.722Z</time></trkpt><trkpt lat="42.7728043" lon="10.2722217"><ele>198.66666666666669</ele><time>2026-04-04T14:42:25.723Z</time></trkpt><trkpt lat="42.7728552" lon="10.272295"><ele>197.83333333333334</ele><time>2026-04-04T14:42:26.723Z</time></trkpt><trkpt lat="42.7729148" lon="10.272374"><ele>197.0</ele><time>2026-04-04T14:42:27.723Z</time></trkpt><trkpt lat="42.7729654" lon="10.2724654"><ele>199.50000000000003</ele><time>2026-04-04T14:42:28.722Z</time></trkpt><trkpt lat="42.7730047" lon="10.2725657"><ele>202.0</ele><time>2026-04-04T14:42:29.723Z</time></trkpt><trkpt lat="42.7730221" lon="10.272663"><ele>204.5</ele><time>2026-04-04T14:42:30.723Z</time></trkpt><trkpt lat="42.7730273" lon="10.2727954"><ele>207.0</ele><time>2026-04-04T14:42:31.723Z</time></trkpt><trkpt lat="42.7730397" lon="10.272899"><ele>209.50000000000003</ele><time>2026-04-04T14:42:32.723Z</time></trkpt><trkpt lat="42.7730792" lon="10.2729922"><ele>212.0</ele><time>2026-04-04T14:42:33.723Z</time></trkpt><trkpt lat="42.7731375" lon="10.2730761"><ele>216.39999999999998</ele><time>2026-04-04T14:42:34.723Z</time></trkpt><trkpt lat="42.7732132" lon="10.2731602"><ele>220.79999999999998</ele><time>2026-04-04T14:42:35.723Z</time></trkpt><trkpt lat="42.7732927" lon="10.2732343"><ele>225.2</ele><time>2026-04-04T14:42:36.723Z</time></trkpt><trkpt lat="42.7733597" lon="10.2733048"><ele>229.6</ele><time>2026-04-04T14:42:37.723Z</time></trkpt><trkpt lat="42.7734313" lon="10.2733878"><ele>234.0</ele><time>2026-04-04T14:42:38.723Z</time></trkpt><trkpt lat="42.7734892" lon="10.2734874"><ele>232.83333333333334</ele><time>2026-04-04T14:42:39.723Z</time></trkpt><trkpt lat="42.7735365" lon="10.2735977"><ele>231.66666666666669</ele><time>2026-04-04T14:42:40.722Z</time></trkpt><trkpt lat="42.773583" lon="10.2737146"><ele>230.5</ele><time>2026-04-04T14:42:41.723Z</time></trkpt><trkpt lat="42.7736343" lon="10.2738112"><ele>229.33333333333334</ele><time>2026-04-04T14:42:42.723Z</time></trkpt><trkpt lat="42.7736926" lon="10.2738883"><ele>228.16666666666669</ele><time>2026-04-04T14:42:43.722Z</time></trkpt><trkpt lat="42.7737555" lon="10.2739534"><ele>227.0</ele><time>2026-04-04T14:42:44.723Z</time></trkpt><trkpt lat="42.7738352" lon="10.274014"><ele>230.33333333333334</ele><time>2026-04-04T14:42:45.723Z</time></trkpt><trkpt lat="42.773911" lon="10.2740493"><ele>233.66666666666669</ele><time>2026-04-04T14:42:46.723Z</time></trkpt><trkpt lat="42.7739921" lon="10.2740713"><ele>237.0</ele><time>2026-04-04T14:42:47.723Z</time></trkpt><trkpt lat="42.7740661" lon="10.2740987"><ele>240.33333333333331</ele><time>2026-04-04T14:42:48.723Z</time></trkpt><trkpt lat="42.7741399" lon="10.274128"><ele>243.66666666666666</ele><time>2026-04-04T14:42:49.722Z</time></trkpt><trkpt lat="42.7742054" lon="10.2741592"><ele>247.0</ele><time>2026-04-04T14:42:50.723Z</time></trkpt><trkpt lat="42.7743255" lon="10.2741692"><ele>249.0</ele><time>2026-04-04T14:42:52.722Z</time></trkpt><trkpt lat="42.7744131" lon="10.2740596"><ele>251.0</ele><time>2026-04-04T14:42:54.723Z</time></trkpt><trkpt lat="42.7744419" lon="10.2738755"><ele>253.0</ele><time>2026-04-04T14:42:56.723Z</time></trkpt><trkpt lat="42.7744521" lon="10.2737744"><ele>255.0</ele><time>2026-04-04T14:42:57.723Z</time></trkpt><trkpt lat="42.7744599" lon="10.2736544"><ele>257.0</ele><time>2026-04-04T14:42:58.723Z</time></trkpt><trkpt lat="42.774455" lon="10.273505"><ele>257.0</ele><time>2026-04-04T14:42:59.723Z</time></trkpt><trkpt lat="42.7744513" lon="10.2733976"><ele>257.0</ele><time>2026-04-04T14:43:00.723Z</time></trkpt><trkpt lat="42.7744431" lon="10.2733"><ele>257.0</ele><time>2026-04-04T14:43:01.723Z</time></trkpt><trkpt lat="42.7744343" lon="10.2731254"><ele>257.0</ele><time>2026-04-04T14:43:03.723Z</time></trkpt><trkpt lat="42.7744508" lon="10.2730179"><ele>257.0</ele><time>2026-04-04T14:43:04.723Z</time></trkpt><trkpt lat="42.7744805" lon="10.2729278"><ele>257.0</ele><time>2026-04-04T14:43:05.723Z</time></trkpt><trkpt lat="42.7745257" lon="10.2728327"><ele>254.00000000000003</ele><time>2026-04-04T14:43:06.723Z</time></trkpt><trkpt lat="42.7745863" lon="10.2727393"><ele>251.0</ele><time>2026-04-04T14:43:07.723Z</time></trkpt><trkpt lat="42.7746529" lon="10.2726572"><ele>248.0</ele><time>2026-04-04T14:43:08.723Z</time></trkpt><trkpt lat="42.7747252" lon="10.2725928"><ele>245.0</ele><time>2026-04-04T14:43:09.723Z</time></trkpt><trkpt lat="42.7748001" lon="10.2725394"><ele>242.00000000000003</ele><time>2026-04-04T14:43:10.723Z</time></trkpt><trkpt lat="42.7748708" lon="10.2725054"><ele>239.0</ele><time>2026-04-04T14:43:11.723Z</time></trkpt><trkpt lat="42.7749342" lon="10.2724757"><ele>239.00000000000003</ele><time>2026-04-04T14:43:12.723Z</time></trkpt><trkpt lat="42.7750178" lon="10.2724307"><ele>239.0</ele><time>2026-04-04T14:43:14.723Z</time></trkpt><trkpt lat="42.7750868" lon="10.2723958"><ele>239.0</ele><time>2026-04-04T14:43:16.723Z</time></trkpt><trkpt lat="42.7751579" lon="10.272396"><ele>239.0</ele><time>2026-04-04T14:47:27.723Z</time></trkpt><trkpt lat="42.7751341" lon="10.2725058"><ele>239.00000000000003</ele><time>2026-04-04T14:47:31.723Z</time></trkpt><trkpt lat="42.7750167" lon="10.2725594"><ele>239.0</ele><time>2026-04-04T14:47:33.723Z</time></trkpt><trkpt lat="42.774939" lon="10.2725877"><ele>239.0</ele><time>2026-04-04T14:47:34.723Z</time></trkpt><trkpt lat="42.7748438" lon="10.2726349"><ele>238.99999999999997</ele><time>2026-04-04T14:47:35.723Z</time></trkpt><trkpt lat="42.7747569" lon="10.2727004"><ele>238.99999999999997</ele><time>2026-04-04T14:47:36.723Z</time></trkpt><trkpt lat="42.7746917" lon="10.2727843"><ele>239.0</ele><time>2026-04-04T14:47:37.723Z</time></trkpt><trkpt lat="42.7746452" lon="10.2728878"><ele>239.0</ele><time>2026-04-04T14:47:38.723Z</time></trkpt><trkpt lat="42.7746129" lon="10.2730022"><ele>239.00000000000003</ele><time>2026-04-04T14:47:39.723Z</time></trkpt><trkpt lat="42.7746134" lon="10.2731031"><ele>239.0</ele><time>2026-04-04T14:47:40.723Z</time></trkpt><trkpt lat="42.7746511" lon="10.2732143"><ele>239.0</ele><time>2026-04-04T14:47:41.723Z</time></trkpt><trkpt lat="42.7747099" lon="10.27334"><ele>239.0</ele><time>2026-04-04T14:47:42.723Z</time></trkpt><trkpt lat="42.774734" lon="10.2734353"><ele>239.00000000000003</ele><time>2026-04-04T14:47:43.722Z</time></trkpt><trkpt lat="42.774748" lon="10.273542"><ele>239.0</ele><time>2026-04-04T14:47:44.722Z</time></trkpt><trkpt lat="42.7747599" lon="10.2736345"><ele>242.00000000000003</ele><time>2026-04-04T14:48:02.723Z</time></trkpt><trkpt lat="42.7747573" lon="10.2737506"><ele>245.0</ele><time>2026-04-04T14:48:04.723Z</time></trkpt><trkpt lat="42.7747649" lon="10.2738423"><ele>248.0</ele><time>2026-04-04T14:48:05.723Z</time></trkpt><trkpt lat="42.7747737" lon="10.2739585"><ele>251.0</ele><time>2026-04-04T14:48:06.723Z</time></trkpt><trkpt lat="42.7747816" lon="10.2740907"><ele>254.00000000000003</ele><time>2026-04-04T14:48:07.723Z</time></trkpt><trkpt lat="42.774804" lon="10.2742347"><ele>257.0</ele><time>2026-04-04T14:48:08.723Z</time></trkpt><trkpt lat="42.7748072" lon="10.2743727"><ele>260.2</ele><time>2026-04-04T14:48:09.723Z</time></trkpt><trkpt lat="42.7747915" lon="10.2745192"><ele>263.4</ele><time>2026-04-04T14:48:10.723Z</time></trkpt><trkpt lat="42.7747794" lon="10.2746569"><ele>266.6</ele><time>2026-04-04T14:48:11.722Z</time></trkpt><trkpt lat="42.7747644" lon="10.2748064"><ele>269.8</ele><time>2026-04-04T14:48:12.723Z</time></trkpt><trkpt lat="42.7747563" lon="10.274942"><ele>273.0</ele><time>2026-04-04T14:48:13.723Z</time></trkpt><trkpt lat="42.7747546" lon="10.2750645"><ele>275.8</ele><time>2026-04-04T14:48:14.722Z</time></trkpt><trkpt lat="42.7747422" lon="10.2751635"><ele>278.6</ele><time>2026-04-04T14:48:15.723Z</time></trkpt><trkpt lat="42.7746959" lon="10.2752449"><ele>281.4</ele><time>2026-04-04T14:48:17.723Z</time></trkpt><trkpt lat="42.7745737" lon="10.275209"><ele>284.2</ele><time>2026-04-04T14:48:19.722Z</time></trkpt><trkpt lat="42.7744786" lon="10.2751667"><ele>287.0</ele><time>2026-04-04T14:48:20.723Z</time></trkpt><trkpt lat="42.7743767" lon="10.2751139"><ele>284.2</ele><time>2026-04-04T14:48:21.723Z</time></trkpt><trkpt lat="42.7742674" lon="10.2750651"><ele>281.4</ele><time>2026-04-04T14:48:22.722Z</time></trkpt><trkpt lat="42.7741576" lon="10.2750286"><ele>278.6</ele><time>2026-04-04T14:48:23.723Z</time></trkpt><trkpt lat="42.774051" lon="10.275001"><ele>275.8</ele><time>2026-04-04T14:48:24.723Z</time></trkpt><trkpt lat="42.7739404" lon="10.2749949"><ele>273.0</ele><time>2026-04-04T14:48:25.723Z</time></trkpt><trkpt lat="42.7738229" lon="10.2750069"><ele>273.0</ele><time>2026-04-04T14:48:26.722Z</time></trkpt><trkpt lat="42.7737158" lon="10.2750313"><ele>273.0</ele><time>2026-04-04T14:48:27.722Z</time></trkpt><trkpt lat="42.7736102" lon="10.2750491"><ele>273.0</ele><time>2026-04-04T14:48:28.722Z</time></trkpt><trkpt lat="42.7735159" lon="10.2750391"><ele>273.0</ele><time>2026-04-04T14:48:29.723Z</time></trkpt><trkpt lat="42.7734219" lon="10.2750039"><ele>273.0</ele><time>2026-04-04T14:48:30.723Z</time></trkpt><trkpt lat="42.7733179" lon="10.2749372"><ele>270.0</ele><time>2026-04-04T14:48:31.722Z</time></trkpt><trkpt lat="42.7732079" lon="10.2748576"><ele>267.0</ele><time>2026-04-04T14:48:32.723Z</time></trkpt><trkpt lat="42.7731062" lon="10.2747602"><ele>264.0</ele><time>2026-04-04T14:48:33.723Z</time></trkpt><trkpt lat="42.7730119" lon="10.2746455"><ele>261.0</ele><time>2026-04-04T14:48:34.723Z</time></trkpt><trkpt lat="42.7729269" lon="10.2745288"><ele>261.0</ele><time>2026-04-04T14:48:35.723Z</time></trkpt><trkpt lat="42.7728548" lon="10.2744404"><ele>261.0</ele><time>2026-04-04T14:48:36.723Z</time></trkpt><trkpt lat="42.7727812" lon="10.274396"><ele>261.0</ele><time>2026-04-04T14:48:37.723Z</time></trkpt><trkpt lat="42.7726954" lon="10.2743776"><ele>261.0</ele><time>2026-04-04T14:48:38.722Z</time></trkpt><trkpt lat="42.7725967" lon="10.2743973"><ele>261.0</ele><time>2026-04-04T14:48:39.722Z</time></trkpt><trkpt lat="42.7724776" lon="10.2744344"><ele>268.0</ele><time>2026-04-04T14:48:40.723Z</time></trkpt><trkpt lat="42.7723582" lon="10.274465"><ele>275.0</ele><time>2026-04-04T14:48:41.723Z</time></trkpt><trkpt lat="42.7722383" lon="10.2744892"><ele>282.0</ele><time>2026-04-04T14:48:42.723Z</time></trkpt><trkpt lat="42.772138" lon="10.2745018"><ele>289.0</ele><time>2026-04-04T14:48:43.722Z</time></trkpt><trkpt lat="42.7720273" lon="10.2745074"><ele>289.0</ele><time>2026-04-04T14:48:44.723Z</time></trkpt><trkpt lat="42.7719205" lon="10.2744992"><ele>289.0</ele><time>2026-04-04T14:48:45.723Z</time></trkpt><trkpt lat="42.7718245" lon="10.2744947"><ele>289.0</ele><time>2026-04-04T14:48:46.723Z</time></trkpt><trkpt lat="42.7717341" lon="10.2744907"><ele>289.0</ele><time>2026-04-04T14:48:47.723Z</time></trkpt><trkpt lat="42.7716467" lon="10.2744874"><ele>289.0</ele><time>2026-04-04T14:48:48.723Z</time></trkpt><trkpt lat="42.7715605" lon="10.2744754"><ele>291.59999999999997</ele><time>2026-04-04T14:48:49.723Z</time></trkpt><trkpt lat="42.7714722" lon="10.2744619"><ele>294.2</ele><time>2026-04-04T14:48:50.723Z</time></trkpt><trkpt lat="42.7713888" lon="10.2744479"><ele>296.79999999999995</ele><time>2026-04-04T14:48:51.723Z</time></trkpt><trkpt lat="42.7713004" lon="10.2744301"><ele>299.4</ele><time>2026-04-04T14:48:52.723Z</time></trkpt><trkpt lat="42.771208" lon="10.2744212"><ele>302.0</ele><time>2026-04-04T14:48:53.722Z</time></trkpt><trkpt lat="42.7711036" lon="10.2744218"><ele>301.4</ele><time>2026-04-04T14:48:54.723Z</time></trkpt><trkpt lat="42.7710095" lon="10.2744201"><ele>300.79999999999995</ele><time>2026-04-04T14:48:55.722Z</time></trkpt><trkpt lat="42.77092" lon="10.2744139"><ele>300.2</ele><time>2026-04-04T14:48:56.722Z</time></trkpt><trkpt lat="42.7708226" lon="10.2744084"><ele>299.59999999999997</ele><time>2026-04-04T14:48:57.723Z</time></trkpt><trkpt lat="42.770729" lon="10.2744038"><ele>299.0</ele><time>2026-04-04T14:48:58.723Z</time></trkpt><trkpt lat="42.7706353" lon="10.2744038"><ele>299.0</ele><time>2026-04-04T14:48:59.723Z</time></trkpt><trkpt lat="42.7705398" lon="10.2744024"><ele>299.0</ele><time>2026-04-04T14:49:00.723Z</time></trkpt><trkpt lat="42.7704455" lon="10.2744045"><ele>299.0</ele><time>2026-04-04T14:49:01.723Z</time></trkpt><trkpt lat="42.7703577" lon="10.2743995"><ele>299.0</ele><time>2026-04-04T14:49:02.723Z</time></trkpt><trkpt lat="42.7702668" lon="10.2743961"><ele>299.0</ele><time>2026-04-04T14:49:03.723Z</time></trkpt><trkpt lat="42.7701761" lon="10.27441"><ele>298.8</ele><time>2026-04-04T14:49:04.723Z</time></trkpt><trkpt lat="42.7700854" lon="10.2744369"><ele>298.59999999999997</ele><time>2026-04-04T14:49:05.723Z</time></trkpt><trkpt lat="42.7699941" lon="10.2744794"><ele>298.4</ele><time>2026-04-04T14:49:06.723Z</time></trkpt><trkpt lat="42.7699067" lon="10.2745229"><ele>298.2</ele><time>2026-04-04T14:49:07.723Z</time></trkpt><trkpt lat="42.7698187" lon="10.2745651"><ele>298.0</ele><time>2026-04-04T14:49:08.723Z</time></trkpt><trkpt lat="42.7697357" lon="10.2745986"><ele>298.0</ele><time>2026-04-04T14:49:09.722Z</time></trkpt><trkpt lat="42.7696663" lon="10.2746184"><ele>298.0</ele><time>2026-04-04T14:49:10.723Z</time></trkpt><trkpt lat="42.7696036" lon="10.2746273"><ele>298.0</ele><time>2026-04-04T14:49:11.723Z</time></trkpt><trkpt lat="42.7694922" lon="10.2746181"><ele>298.0</ele><time>2026-04-04T14:49:13.723Z</time></trkpt><trkpt lat="42.769385" lon="10.2745681"><ele>298.0</ele><time>2026-04-04T14:49:15.723Z</time></trkpt><trkpt lat="42.7693176" lon="10.2745232"><ele>298.0</ele><time>2026-04-04T14:49:16.723Z</time></trkpt><trkpt lat="42.7692373" lon="10.2744695"><ele>296.2</ele><time>2026-04-04T14:49:17.723Z</time></trkpt><trkpt lat="42.7691609" lon="10.2744255"><ele>294.4</ele><time>2026-04-04T14:49:18.723Z</time></trkpt><trkpt lat="42.7690711" lon="10.2743934"><ele>292.59999999999997</ele><time>2026-04-04T14:49:19.723Z</time></trkpt><trkpt lat="42.7689684" lon="10.2743686"><ele>290.8</ele><time>2026-04-04T14:49:20.723Z</time></trkpt><trkpt lat="42.7688872" lon="10.2743492"><ele>289.0</ele><time>2026-04-04T14:49:21.723Z</time></trkpt><trkpt lat="42.7688017" lon="10.274326"><ele>289.0</ele><time>2026-04-04T14:49:22.722Z</time></trkpt><trkpt lat="42.7687129" lon="10.2743046"><ele>289.0</ele><time>2026-04-04T14:49:23.723Z</time></trkpt><trkpt lat="42.7686395" lon="10.2742931"><ele>289.0</ele><time>2026-04-04T14:49:24.723Z</time></trkpt><trkpt lat="42.7685655" lon="10.2742927"><ele>289.0</ele><time>2026-04-04T14:49:25.723Z</time></trkpt><trkpt lat="42.7684904" lon="10.2743091"><ele>289.0</ele><time>2026-04-04T14:49:26.723Z</time></trkpt><trkpt lat="42.7684034" lon="10.27434"><ele>289.0</ele><time>2026-04-04T14:49:27.723Z</time></trkpt><trkpt lat="42.7683166" lon="10.274367"><ele>287.0</ele><time>2026-04-04T14:49:28.723Z</time></trkpt><trkpt lat="42.7682422" lon="10.2743792"><ele>285.0</ele><time>2026-04-04T14:49:29.723Z</time></trkpt><trkpt lat="42.7681696" lon="10.2743861"><ele>283.0</ele><time>2026-04-04T14:49:30.723Z</time></trkpt><trkpt lat="42.7680566" lon="10.2743528"><ele>281.0</ele><time>2026-04-04T14:49:32.723Z</time></trkpt><trkpt lat="42.7679612" lon="10.2743051"><ele>279.0</ele><time>2026-04-04T14:49:34.722Z</time></trkpt><trkpt lat="42.767873" lon="10.2742469"><ele>279.0</ele><time>2026-04-04T14:49:36.723Z</time></trkpt><trkpt lat="42.7677744" lon="10.274169"><ele>279.0</ele><time>2026-04-04T14:49:38.723Z</time></trkpt><trkpt lat="42.7676853" lon="10.2741193"><ele>279.0</ele><time>2026-04-04T14:49:40.723Z</time></trkpt><trkpt lat="42.7676084" lon="10.2740847"><ele>279.0</ele><time>2026-04-04T14:49:42.723Z</time></trkpt><trkpt lat="42.7675196" lon="10.274068"><ele>279.0</ele><time>2026-04-04T14:49:44.723Z</time></trkpt><trkpt lat="42.7674331" lon="10.2740646"><ele>276.6666666666667</ele><time>2026-04-04T14:49:46.723Z</time></trkpt><trkpt lat="42.7673235" lon="10.2740681"><ele>274.3333333333333</ele><time>2026-04-04T14:49:48.722Z</time></trkpt><trkpt lat="42.7672088" lon="10.274086"><ele>272.0</ele><time>2026-04-04T14:49:50.722Z</time></trkpt><trkpt lat="42.7671438" lon="10.2741057"><ele>269.66666666666663</ele><time>2026-04-04T14:49:51.722Z</time></trkpt><trkpt lat="42.7670829" lon="10.2741292"><ele>267.3333333333333</ele><time>2026-04-04T14:49:52.723Z</time></trkpt><trkpt lat="42.7670241" lon="10.2741604"><ele>265.0</ele><time>2026-04-04T14:49:53.722Z</time></trkpt><trkpt lat="42.766905" lon="10.2742134"><ele>264.0</ele><time>2026-04-04T14:49:55.723Z</time></trkpt><trkpt lat="42.766789" lon="10.2742267"><ele>263.0</ele><time>2026-04-04T14:49:57.723Z</time></trkpt><trkpt lat="42.7667231" lon="10.2742095"><ele>262.0</ele><time>2026-04-04T14:49:58.723Z</time></trkpt><trkpt lat="42.7666087" lon="10.2741534"><ele>261.0</ele><time>2026-04-04T14:50:00.722Z</time></trkpt><trkpt lat="42.7665509" lon="10.2741102"><ele>260.0</ele><time>2026-04-04T14:50:01.723Z</time></trkpt><trkpt lat="42.7665029" lon="10.2740524"><ele>259.0</ele><time>2026-04-04T14:50:02.723Z</time></trkpt><trkpt lat="42.7664361" lon="10.2739083"><ele>259.0</ele><time>2026-04-04T14:50:04.723Z</time></trkpt><trkpt lat="42.7664031" lon="10.2738232"><ele>259.0</ele><time>2026-04-04T14:50:05.722Z</time></trkpt><trkpt lat="42.7663644" lon="10.2737539"><ele>259.0</ele><time>2026-04-04T14:50:06.723Z</time></trkpt><trkpt lat="42.7662337" lon="10.2736569"><ele>259.0</ele><time>2026-04-04T14:50:08.722Z</time></trkpt><trkpt lat="42.7661359" lon="10.2735866"><ele>259.0</ele><time>2026-04-04T14:50:09.723Z</time></trkpt><trkpt lat="42.7660527" lon="10.2735291"><ele>258.5</ele><time>2026-04-04T14:50:10.723Z</time></trkpt><trkpt lat="42.765979" lon="10.2734814"><ele>258.0</ele><time>2026-04-04T14:50:11.723Z</time></trkpt><trkpt lat="42.7659113" lon="10.2734499"><ele>257.5</ele><time>2026-04-04T14:50:12.723Z</time></trkpt><trkpt lat="42.7657926" lon="10.2734716"><ele>257.0</ele><time>2026-04-04T14:50:14.723Z</time></trkpt><trkpt lat="42.7657295" lon="10.273514"><ele>256.5</ele><time>2026-04-04T14:50:15.722Z</time></trkpt><trkpt lat="42.7656696" lon="10.2735583"><ele>256.0</ele><time>2026-04-04T14:50:16.723Z</time></trkpt><trkpt lat="42.7655787" lon="10.2736168"><ele>255.99999999999997</ele><time>2026-04-04T14:50:18.723Z</time></trkpt><trkpt lat="42.7655017" lon="10.2736492"><ele>256.0</ele><time>2026-04-04T14:50:20.723Z</time></trkpt><trkpt lat="42.765436" lon="10.2737154"><ele>256.0</ele><time>2026-04-04T14:50:57.723Z</time></trkpt><trkpt lat="42.7654058" lon="10.2737991"><ele>256.0</ele><time>2026-04-04T14:50:58.723Z</time></trkpt><trkpt lat="42.7653703" lon="10.2739113"><ele>255.99999999999997</ele><time>2026-04-04T14:50:59.723Z</time></trkpt><trkpt lat="42.7653183" lon="10.2739953"><ele>256.0</ele><time>2026-04-04T14:51:00.723Z</time></trkpt><trkpt lat="42.7652557" lon="10.2740465"><ele>255.0</ele><time>2026-04-04T14:51:01.723Z</time></trkpt><trkpt lat="42.7651897" lon="10.2740671"><ele>254.00000000000003</ele><time>2026-04-04T14:51:02.723Z</time></trkpt><trkpt lat="42.765115" lon="10.2740763"><ele>253.00000000000003</ele><time>2026-04-04T14:51:03.723Z</time></trkpt><trkpt lat="42.7650191" lon="10.2740925"><ele>252.0</ele><time>2026-04-04T14:51:04.723Z</time></trkpt><trkpt lat="42.764916" lon="10.2741144"><ele>251.0</ele><time>2026-04-04T14:51:05.723Z</time></trkpt><trkpt lat="42.7648091" lon="10.2741337"><ele>251.0</ele><time>2026-04-04T14:51:06.722Z</time></trkpt><trkpt lat="42.7646958" lon="10.274154"><ele>251.0</ele><time>2026-04-04T14:51:07.723Z</time></trkpt><trkpt lat="42.7645823" lon="10.274177"><ele>251.0</ele><time>2026-04-04T14:51:08.723Z</time></trkpt><trkpt lat="42.7644601" lon="10.2742188"><ele>251.0</ele><time>2026-04-04T14:51:09.723Z</time></trkpt><trkpt lat="42.7643317" lon="10.2742708"><ele>253.25</ele><time>2026-04-04T14:51:10.723Z</time></trkpt><trkpt lat="42.764199" lon="10.2743258"><ele>255.5</ele><time>2026-04-04T14:51:11.723Z</time></trkpt><trkpt lat="42.7640678" lon="10.2743898"><ele>257.75</ele><time>2026-04-04T14:51:12.723Z</time></trkpt><trkpt lat="42.7639431" lon="10.2744565"><ele>260.0</ele><time>2026-04-04T14:51:13.723Z</time></trkpt><trkpt lat="42.7638227" lon="10.274525"><ele>260.0</ele><time>2026-04-04T14:51:14.723Z</time></trkpt><trkpt lat="42.7637043" lon="10.2745913"><ele>260.0</ele><time>2026-04-04T14:51:15.723Z</time></trkpt><trkpt lat="42.7635876" lon="10.2746496"><ele>260.0</ele><time>2026-04-04T14:51:16.723Z</time></trkpt><trkpt lat="42.763465" lon="10.2746813"><ele>260.0</ele><time>2026-04-04T14:51:17.723Z</time></trkpt><trkpt lat="42.7633402" lon="10.2747041"><ele>261.5</ele><time>2026-04-04T14:51:18.723Z</time></trkpt><trkpt lat="42.7632246" lon="10.2747424"><ele>263.0</ele><time>2026-04-04T14:51:19.723Z</time></trkpt><trkpt lat="42.7631128" lon="10.2747918"><ele>264.5</ele><time>2026-04-04T14:51:20.723Z</time></trkpt><trkpt lat="42.7630004" lon="10.2748192"><ele>266.0</ele><time>2026-04-04T14:51:21.723Z</time></trkpt><trkpt lat="42.7628864" lon="10.2748167"><ele>259.2</ele><time>2026-04-04T14:51:22.723Z</time></trkpt><trkpt lat="42.7627787" lon="10.274808"><ele>252.40000000000003</ele><time>2026-04-04T14:51:23.723Z</time></trkpt><trkpt lat="42.7626751" lon="10.2748106"><ele>245.6</ele><time>2026-04-04T14:51:24.723Z</time></trkpt><trkpt lat="42.7625771" lon="10.2748402"><ele>238.8</ele><time>2026-04-04T14:51:25.723Z</time></trkpt><trkpt lat="42.7624916" lon="10.2748975"><ele>232.0</ele><time>2026-04-04T14:51:26.723Z</time></trkpt><trkpt lat="42.7624295" lon="10.2749644"><ele>231.99999999999997</ele><time>2026-04-04T14:51:27.723Z</time></trkpt><trkpt lat="42.7623248" lon="10.2750605"><ele>232.0</ele><time>2026-04-04T14:51:29.723Z</time></trkpt><trkpt lat="42.7622614" lon="10.27507"><ele>232.0</ele><time>2026-04-04T14:51:30.723Z</time></trkpt><trkpt lat="42.7621969" lon="10.275054"><ele>232.0</ele><time>2026-04-04T14:51:31.723Z</time></trkpt><trkpt lat="42.7621223" lon="10.275014"><ele>231.99999999999997</ele><time>2026-04-04T14:51:32.723Z</time></trkpt><trkpt lat="42.7620338" lon="10.2749302"><ele>232.0</ele><time>2026-04-04T14:51:33.723Z</time></trkpt><trkpt lat="42.7619584" lon="10.2748079"><ele>233.5</ele><time>2026-04-04T14:51:34.723Z</time></trkpt><trkpt lat="42.7618768" lon="10.2746682"><ele>235.0</ele><time>2026-04-04T14:51:35.723Z</time></trkpt><trkpt lat="42.7617746" lon="10.2745533"><ele>236.5</ele><time>2026-04-04T14:51:36.723Z</time></trkpt><trkpt lat="42.7616638" lon="10.2744535"><ele>238.0</ele><time>2026-04-04T14:51:37.722Z</time></trkpt><trkpt lat="42.7615642" lon="10.2743388"><ele>238.0</ele><time>2026-04-04T14:51:38.723Z</time></trkpt><trkpt lat="42.7614623" lon="10.2742241"><ele>238.0</ele><time>2026-04-04T14:51:39.723Z</time></trkpt><trkpt lat="42.7613658" lon="10.2741313"><ele>238.0</ele><time>2026-04-04T14:51:40.722Z</time></trkpt><trkpt lat="42.7612792" lon="10.2740742"><ele>238.0</ele><time>2026-04-04T14:51:41.723Z</time></trkpt><trkpt lat="42.7611763" lon="10.274067"><ele>238.0</ele><time>2026-04-04T14:51:42.723Z</time></trkpt><trkpt lat="42.7610684" lon="10.274108"><ele>238.0</ele><time>2026-04-04T14:51:43.723Z</time></trkpt><trkpt lat="42.7609513" lon="10.2741468"><ele>238.0</ele><time>2026-04-04T14:51:44.723Z</time></trkpt><trkpt lat="42.7608109" lon="10.2741442"><ele>238.0</ele><time>2026-04-04T14:51:45.722Z</time></trkpt><trkpt lat="42.7606581" lon="10.2741438"><ele>234.25</ele><time>2026-04-04T14:51:46.723Z</time></trkpt><trkpt lat="42.7605097" lon="10.2741571"><ele>230.5</ele><time>2026-04-04T14:51:47.723Z</time></trkpt><trkpt lat="42.7603675" lon="10.2741827"><ele>226.75</ele><time>2026-04-04T14:51:48.723Z</time></trkpt><trkpt lat="42.7602327" lon="10.2742017"><ele>223.0</ele><time>2026-04-04T14:51:49.723Z</time></trkpt><trkpt lat="42.7601209" lon="10.2742062"><ele>222.99999999999997</ele><time>2026-04-04T14:51:50.722Z</time></trkpt><trkpt lat="42.7600306" lon="10.2742087"><ele>223.0</ele><time>2026-04-04T14:51:51.722Z</time></trkpt><trkpt lat="42.759949" lon="10.2742087"><ele>223.0</ele><time>2026-04-04T14:51:52.723Z</time></trkpt><trkpt lat="42.7598634" lon="10.274249"><ele>223.0</ele><time>2026-04-04T14:51:53.723Z</time></trkpt><trkpt lat="42.759796" lon="10.274327"><ele>222.99999999999997</ele><time>2026-04-04T14:51:54.723Z</time></trkpt><trkpt lat="42.7597594" lon="10.2744415"><ele>223.0</ele><time>2026-04-04T14:51:55.723Z</time></trkpt><trkpt lat="42.7597282" lon="10.2745601"><ele>222.99999999999997</ele><time>2026-04-04T14:51:56.723Z</time></trkpt><trkpt lat="42.7596932" lon="10.2746552"><ele>223.0</ele><time>2026-04-04T14:51:57.723Z</time></trkpt><trkpt lat="42.7596385" lon="10.2747429"><ele>223.0</ele><time>2026-04-04T14:51:58.723Z</time></trkpt><trkpt lat="42.7595663" lon="10.2748247"><ele>223.0</ele><time>2026-04-04T14:51:59.723Z</time></trkpt><trkpt lat="42.7594976" lon="10.2749009"><ele>222.99999999999997</ele><time>2026-04-04T14:52:00.723Z</time></trkpt><trkpt lat="42.759428" lon="10.2749804"><ele>223.0</ele><time>2026-04-04T14:52:01.723Z</time></trkpt><trkpt lat="42.7593627" lon="10.2750672"><ele>221.99999999999997</ele><time>2026-04-04T14:52:02.723Z</time></trkpt><trkpt lat="42.7593163" lon="10.2751439"><ele>221.0</ele><time>2026-04-04T14:52:03.722Z</time></trkpt><trkpt lat="42.7592916" lon="10.2752329"><ele>220.0</ele><time>2026-04-04T14:52:04.723Z</time></trkpt><trkpt lat="42.7592888" lon="10.2753442"><ele>219.0</ele><time>2026-04-04T14:52:05.723Z</time></trkpt><trkpt lat="42.7593215" lon="10.2754513"><ele>217.99999999999997</ele><time>2026-04-04T14:52:06.723Z</time></trkpt><trkpt lat="42.7593771" lon="10.275539"><ele>217.0</ele><time>2026-04-04T14:52:07.723Z</time></trkpt><trkpt lat="42.7594274" lon="10.2756381"><ele>208.6</ele><time>2026-04-04T14:52:08.722Z</time></trkpt><trkpt lat="42.7594517" lon="10.2757559"><ele>200.2</ele><time>2026-04-04T14:52:09.723Z</time></trkpt><trkpt lat="42.7594496" lon="10.2758873"><ele>191.8</ele><time>2026-04-04T14:52:10.722Z</time></trkpt><trkpt lat="42.7594352" lon="10.276015"><ele>183.4</ele><time>2026-04-04T14:52:11.723Z</time></trkpt><trkpt lat="42.7594187" lon="10.276145"><ele>175.0</ele><time>2026-04-04T14:52:12.723Z</time></trkpt><trkpt lat="42.7594002" lon="10.276281"><ele>175.0</ele><time>2026-04-04T14:52:13.723Z</time></trkpt><trkpt lat="42.7593993" lon="10.2764171"><ele>175.0</ele><time>2026-04-04T14:52:14.723Z</time></trkpt><trkpt lat="42.759405" lon="10.2765428"><ele>175.0</ele><time>2026-04-04T14:52:15.723Z</time></trkpt><trkpt lat="42.7594148" lon="10.2766772"><ele>175.0</ele><time>2026-04-04T14:52:16.723Z</time></trkpt><trkpt lat="42.7594154" lon="10.2768376"><ele>175.0</ele><time>2026-04-04T14:52:17.723Z</time></trkpt><trkpt lat="42.759413" lon="10.2770168"><ele>172.75</ele><time>2026-04-04T14:52:18.723Z</time></trkpt><trkpt lat="42.7594076" lon="10.2772165"><ele>170.5</ele><time>2026-04-04T14:52:19.723Z</time></trkpt><trkpt lat="42.7594138" lon="10.2774072"><ele>168.25</ele><time>2026-04-04T14:52:20.723Z</time></trkpt><trkpt lat="42.7594171" lon="10.2775924"><ele>166.0</ele><time>2026-04-04T14:52:21.723Z</time></trkpt><trkpt lat="42.7594028" lon="10.2777463"><ele>164.5</ele><time>2026-04-04T14:52:22.723Z</time></trkpt><trkpt lat="42.7594094" lon="10.2778985"><ele>163.0</ele><time>2026-04-04T14:52:23.723Z</time></trkpt><trkpt lat="42.7594552" lon="10.2780584"><ele>161.5</ele><time>2026-04-04T14:52:24.723Z</time></trkpt><trkpt lat="42.7595307" lon="10.2782214"><ele>160.0</ele><time>2026-04-04T14:52:25.722Z</time></trkpt><trkpt lat="42.7596112" lon="10.2783963"><ele>160.0</ele><time>2026-04-04T14:52:26.723Z</time></trkpt><trkpt lat="42.7596933" lon="10.2785619"><ele>160.0</ele><time>2026-04-04T14:52:27.723Z</time></trkpt><trkpt lat="42.759721" lon="10.2787536"><ele>160.0</ele><time>2026-04-04T14:52:28.723Z</time></trkpt><trkpt lat="42.7597466" lon="10.2789556"><ele>160.0</ele><time>2026-04-04T14:52:29.723Z</time></trkpt><trkpt lat="42.7597707" lon="10.2791619"><ele>159.75</ele><time>2026-04-04T14:52:30.722Z</time></trkpt><trkpt lat="42.7597918" lon="10.2793611"><ele>159.5</ele><time>2026-04-04T14:52:31.723Z</time></trkpt><trkpt lat="42.7598205" lon="10.2795348"><ele>159.25</ele><time>2026-04-04T14:52:32.723Z</time></trkpt><trkpt lat="42.7598463" lon="10.2796894"><ele>159.0</ele><time>2026-04-04T14:52:33.722Z</time></trkpt><trkpt lat="42.7598505" lon="10.2798352"><ele>158.6</ele><time>2026-04-04T14:52:34.723Z</time></trkpt><trkpt lat="42.7598082" lon="10.2799746"><ele>158.2</ele><time>2026-04-04T14:52:35.723Z</time></trkpt><trkpt lat="42.7597368" lon="10.2800923"><ele>157.79999999999998</ele><time>2026-04-04T14:52:36.723Z</time></trkpt><trkpt lat="42.7596592" lon="10.2801921"><ele>157.4</ele><time>2026-04-04T14:52:37.723Z</time></trkpt><trkpt lat="42.7595914" lon="10.2802821"><ele>157.0</ele><time>2026-04-04T14:52:38.723Z</time></trkpt><trkpt lat="42.7595428" lon="10.2803684"><ele>157.0</ele><time>2026-04-04T14:52:39.722Z</time></trkpt><trkpt lat="42.7595233" lon="10.2804662"><ele>157.0</ele><time>2026-04-04T14:52:40.723Z</time></trkpt><trkpt lat="42.7595406" lon="10.2805661"><ele>157.0</ele><time>2026-04-04T14:52:41.723Z</time></trkpt><trkpt lat="42.7596035" lon="10.2806346"><ele>157.0</ele><time>2026-04-04T14:52:42.723Z</time></trkpt><trkpt lat="42.759673" lon="10.2806838"><ele>157.0</ele><time>2026-04-04T14:52:43.723Z</time></trkpt><trkpt lat="42.759736" lon="10.2807253"><ele>157.0</ele><time>2026-04-04T14:52:44.723Z</time></trkpt><trkpt lat="42.7598064" lon="10.2807779"><ele>156.66666666666669</ele><time>2026-04-04T14:52:45.723Z</time></trkpt><trkpt lat="42.7598877" lon="10.2808363"><ele>156.33333333333334</ele><time>2026-04-04T14:52:46.723Z</time></trkpt><trkpt lat="42.7599586" lon="10.2808937"><ele>156.0</ele><time>2026-04-04T14:52:47.723Z</time></trkpt><trkpt lat="42.7600241" lon="10.2809521"><ele>155.66666666666666</ele><time>2026-04-04T14:52:48.722Z</time></trkpt><trkpt lat="42.7600854" lon="10.2810094"><ele>155.33333333333331</ele><time>2026-04-04T14:52:49.723Z</time></trkpt><trkpt lat="42.7601418" lon="10.2810677"><ele>155.0</ele><time>2026-04-04T14:52:50.723Z</time></trkpt><trkpt lat="42.7601965" lon="10.2811198"><ele>152.6</ele><time>2026-04-04T14:52:51.723Z</time></trkpt><trkpt lat="42.7602605" lon="10.2811949"><ele>150.2</ele><time>2026-04-04T14:52:53.723Z</time></trkpt><trkpt lat="42.7603003" lon="10.281298"><ele>147.8</ele><time>2026-04-04T14:52:57.723Z</time></trkpt><trkpt lat="42.7603399" lon="10.2814514"><ele>145.4</ele><time>2026-04-04T14:52:59.723Z</time></trkpt><trkpt lat="42.7603589" lon="10.2815358"><ele>143.0</ele><time>2026-04-04T14:53:00.723Z</time></trkpt><trkpt lat="42.7603656" lon="10.2816704"><ele>143.0</ele><time>2026-04-04T14:53:02.723Z</time></trkpt><trkpt lat="42.7603723" lon="10.2817624"><ele>143.0</ele><time>2026-04-04T14:53:04.723Z</time></trkpt><trkpt lat="42.7603831" lon="10.2818658"><ele>143.0</ele><time>2026-04-04T14:53:07.723Z</time></trkpt><trkpt lat="42.7603979" lon="10.2819747"><ele>143.0</ele><time>2026-04-04T14:53:09.723Z</time></trkpt><trkpt lat="42.7603926" lon="10.2821287"><ele>143.0</ele><time>2026-04-04T14:53:11.723Z</time></trkpt><trkpt lat="42.760371" lon="10.2822119"><ele>143.0</ele><time>2026-04-04T14:53:12.723Z</time></trkpt><trkpt lat="42.7603248" lon="10.2823137"><ele>144.5</ele><time>2026-04-04T14:53:13.723Z</time></trkpt><trkpt lat="42.7602712" lon="10.2824069"><ele>146.0</ele><time>2026-04-04T14:53:14.723Z</time></trkpt><trkpt lat="42.760232" lon="10.282493"><ele>147.5</ele><time>2026-04-04T14:53:15.722Z</time></trkpt><trkpt lat="42.7602637" lon="10.282585"><ele>149.0</ele><time>2026-04-04T14:53:17.723Z</time></trkpt><trkpt lat="42.7603802" lon="10.2826819"><ele>150.5</ele><time>2026-04-04T14:53:19.723Z</time></trkpt><trkpt lat="42.7604282" lon="10.2827454"><ele>152.0</ele><time>2026-04-04T14:53:20.723Z</time></trkpt><trkpt lat="42.7604761" lon="10.282828"><ele>152.0</ele><time>2026-04-04T14:53:21.723Z</time></trkpt><trkpt lat="42.7605161" lon="10.28295"><ele>152.0</ele><time>2026-04-04T14:53:22.723Z</time></trkpt><trkpt lat="42.7605578" lon="10.2830879"><ele>152.0</ele><time>2026-04-04T14:53:23.723Z</time></trkpt><trkpt lat="42.7605807" lon="10.2832258"><ele>152.0</ele><time>2026-04-04T14:53:24.723Z</time></trkpt><trkpt lat="42.7605945" lon="10.2833602"><ele>152.0</ele><time>2026-04-04T14:53:25.723Z</time></trkpt><trkpt lat="42.7605951" lon="10.2835019"><ele>154.8</ele><time>2026-04-04T14:53:26.723Z</time></trkpt><trkpt lat="42.7605841" lon="10.2836422"><ele>157.6</ele><time>2026-04-04T14:53:27.723Z</time></trkpt><trkpt lat="42.7605715" lon="10.2837891"><ele>160.4</ele><time>2026-04-04T14:53:28.723Z</time></trkpt><trkpt lat="42.7605595" lon="10.2839505"><ele>163.20000000000002</ele><time>2026-04-04T14:53:29.723Z</time></trkpt><trkpt lat="42.7605489" lon="10.2841059"><ele>166.0</ele><time>2026-04-04T14:53:30.723Z</time></trkpt><trkpt lat="42.7605359" lon="10.2842316"><ele>168.60000000000002</ele><time>2026-04-04T14:53:31.723Z</time></trkpt><trkpt lat="42.7605269" lon="10.2843661"><ele>171.2</ele><time>2026-04-04T14:53:32.723Z</time></trkpt><trkpt lat="42.7605381" lon="10.2845114"><ele>173.8</ele><time>2026-04-04T14:53:33.723Z</time></trkpt><trkpt lat="42.7605615" lon="10.2846446"><ele>176.39999999999998</ele><time>2026-04-04T14:53:34.723Z</time></trkpt><trkpt lat="42.760581" lon="10.2847724"><ele>179.0</ele><time>2026-04-04T14:53:35.723Z</time></trkpt><trkpt lat="42.7605965" lon="10.2848943"><ele>180.5</ele><time>2026-04-04T14:53:36.723Z</time></trkpt><trkpt lat="42.7605513" lon="10.2850561"><ele>182.0</ele><time>2026-04-04T14:53:38.723Z</time></trkpt><trkpt lat="42.7605041" lon="10.2851237"><ele>183.5</ele><time>2026-04-04T14:53:39.723Z</time></trkpt><trkpt lat="42.760439" lon="10.28518"><ele>185.0</ele><time>2026-04-04T14:53:40.723Z</time></trkpt><trkpt lat="42.7603647" lon="10.2852047"><ele>186.5</ele><time>2026-04-04T14:53:41.723Z</time></trkpt><trkpt lat="42.7602849" lon="10.285234"><ele>188.0</ele><time>2026-04-04T14:53:42.723Z</time></trkpt><trkpt lat="42.7601997" lon="10.2852911"><ele>190.8</ele><time>2026-04-04T14:53:43.723Z</time></trkpt><trkpt lat="42.7600922" lon="10.2853599"><ele>193.60000000000002</ele><time>2026-04-04T14:53:44.722Z</time></trkpt><trkpt lat="42.7599815" lon="10.2854142"><ele>196.39999999999998</ele><time>2026-04-04T14:53:45.723Z</time></trkpt><trkpt lat="42.7598909" lon="10.2854521"><ele>199.2</ele><time>2026-04-04T14:53:46.723Z</time></trkpt><trkpt lat="42.7598258" lon="10.2854714"><ele>202.0</ele><time>2026-04-04T14:53:47.723Z</time></trkpt><trkpt lat="42.7597489" lon="10.2854702"><ele>201.99999999999997</ele><time>2026-04-04T14:53:49.723Z</time></trkpt><trkpt lat="42.7596962" lon="10.2854215"><ele>202.0</ele><time>2026-04-04T14:53:51.723Z</time></trkpt><trkpt lat="42.7596621" lon="10.2852806"><ele>202.0</ele><time>2026-04-04T14:53:54.723Z</time></trkpt><trkpt lat="42.759644" lon="10.2851868"><ele>202.0</ele><time>2026-04-04T14:53:55.723Z</time></trkpt><trkpt lat="42.7596147" lon="10.2850844"><ele>201.99999999999997</ele><time>2026-04-04T14:53:56.723Z</time></trkpt><trkpt lat="42.7595811" lon="10.2849821"><ele>202.0</ele><time>2026-04-04T14:53:57.723Z</time></trkpt><trkpt lat="42.7595459" lon="10.2848802"><ele>202.0</ele><time>2026-04-04T14:53:58.723Z</time></trkpt><trkpt lat="42.7595049" lon="10.2847899"><ele>202.0</ele><time>2026-04-04T14:53:59.723Z</time></trkpt><trkpt lat="42.7594341" lon="10.2846776"><ele>202.0</ele><time>2026-04-04T14:54:01.723Z</time></trkpt><trkpt lat="42.759412" lon="10.2847631"><ele>202.0</ele><time>2026-04-04T14:54:07.723Z</time></trkpt><trkpt lat="42.7595073" lon="10.2848517"><ele>202.0</ele><time>2026-04-04T14:54:10.723Z</time></trkpt><trkpt lat="42.7595806" lon="10.2849696"><ele>201.99999999999997</ele><time>2026-04-04T14:54:12.723Z</time></trkpt><trkpt lat="42.759623" lon="10.2851128"><ele>202.0</ele><time>2026-04-04T14:54:14.723Z</time></trkpt><trkpt lat="42.7596604" lon="10.2852523"><ele>202.0</ele><time>2026-04-04T14:54:16.723Z</time></trkpt><trkpt lat="42.7596757" lon="10.2853368"><ele>202.0</ele><time>2026-04-04T14:54:19.723Z</time></trkpt><trkpt lat="42.7597251" lon="10.2854294"><ele>201.99999999999997</ele><time>2026-04-04T14:55:08.723Z</time></trkpt><trkpt lat="42.7596685" lon="10.2853691"><ele>202.0</ele><time>2026-04-04T15:00:02.723Z</time></trkpt><trkpt lat="42.7596048" lon="10.2853607"><ele>202.0</ele><time>2026-04-04T15:00:03.723Z</time></trkpt><trkpt lat="42.7595414" lon="10.2853538"><ele>202.0</ele><time>2026-04-04T15:00:04.723Z</time></trkpt><trkpt lat="42.759476" lon="10.285353"><ele>202.0</ele><time>2026-04-04T15:00:05.722Z</time></trkpt><trkpt lat="42.7593681" lon="10.2853452"><ele>202.0</ele><time>2026-04-04T15:00:07.723Z</time></trkpt><trkpt lat="42.7592482" lon="10.2852582"><ele>202.0</ele><time>2026-04-04T15:00:09.723Z</time></trkpt><trkpt lat="42.7591786" lon="10.285193"><ele>202.16666666666666</ele><time>2026-04-04T15:00:10.722Z</time></trkpt><trkpt lat="42.7591098" lon="10.2851259"><ele>202.33333333333331</ele><time>2026-04-04T15:00:11.722Z</time></trkpt><trkpt lat="42.7590503" lon="10.2850546"><ele>202.5</ele><time>2026-04-04T15:00:12.723Z</time></trkpt><trkpt lat="42.7589947" lon="10.2849737"><ele>202.66666666666669</ele><time>2026-04-04T15:00:13.723Z</time></trkpt><trkpt lat="42.7589405" lon="10.2848948"><ele>202.83333333333334</ele><time>2026-04-04T15:00:14.722Z</time></trkpt><trkpt lat="42.7588749" lon="10.2848164"><ele>203.0</ele><time>2026-04-04T15:00:15.723Z</time></trkpt><trkpt lat="42.7587943" lon="10.2847398"><ele>204.50000000000003</ele><time>2026-04-04T15:00:16.723Z</time></trkpt><trkpt lat="42.7587204" lon="10.2846649"><ele>206.0</ele><time>2026-04-04T15:00:17.723Z</time></trkpt><trkpt lat="42.7586512" lon="10.2846028"><ele>207.5</ele><time>2026-04-04T15:00:18.723Z</time></trkpt><trkpt lat="42.7585777" lon="10.2845388"><ele>209.0</ele><time>2026-04-04T15:00:19.723Z</time></trkpt><trkpt lat="42.7585255" lon="10.2844878"><ele>210.50000000000003</ele><time>2026-04-04T15:00:20.723Z</time></trkpt><trkpt lat="42.7584707" lon="10.2844226"><ele>212.0</ele><time>2026-04-04T15:00:21.723Z</time></trkpt><trkpt lat="42.758417" lon="10.2843446"><ele>212.66666666666669</ele><time>2026-04-04T15:00:22.723Z</time></trkpt><trkpt lat="42.7583632" lon="10.2842427"><ele>213.33333333333334</ele><time>2026-04-04T15:00:23.723Z</time></trkpt><trkpt lat="42.7583105" lon="10.2841588"><ele>214.0</ele><time>2026-04-04T15:00:24.722Z</time></trkpt><trkpt lat="42.7582613" lon="10.2840755"><ele>214.66666666666669</ele><time>2026-04-04T15:00:25.722Z</time></trkpt><trkpt lat="42.7582205" lon="10.2839987"><ele>215.33333333333334</ele><time>2026-04-04T15:00:26.723Z</time></trkpt><trkpt lat="42.7581314" lon="10.283899"><ele>216.0</ele><time>2026-04-04T15:00:28.723Z</time></trkpt><trkpt lat="42.7580438" lon="10.2838933"><ele>216.0</ele><time>2026-04-04T15:00:30.723Z</time></trkpt><trkpt lat="42.7579742" lon="10.2839876"><ele>216.0</ele><time>2026-04-04T15:00:32.722Z</time></trkpt><trkpt lat="42.7579291" lon="10.2840793"><ele>216.0</ele><time>2026-04-04T15:00:33.723Z</time></trkpt><trkpt lat="42.7578768" lon="10.2841796"><ele>216.0</ele><time>2026-04-04T15:00:34.723Z</time></trkpt><trkpt lat="42.7578334" lon="10.2842618"><ele>216.0</ele><time>2026-04-04T15:00:35.723Z</time></trkpt><trkpt lat="42.7577769" lon="10.2843242"><ele>216.0</ele><time>2026-04-04T15:00:36.723Z</time></trkpt><trkpt lat="42.7577185" lon="10.284373"><ele>217.42857142857142</ele><time>2026-04-04T15:00:37.723Z</time></trkpt><trkpt lat="42.7576568" lon="10.2844142"><ele>218.85714285714283</ele><time>2026-04-04T15:00:38.723Z</time></trkpt><trkpt lat="42.7575794" lon="10.2844625"><ele>220.28571428571428</ele><time>2026-04-04T15:00:39.723Z</time></trkpt><trkpt lat="42.7575048" lon="10.2844933"><ele>221.71428571428572</ele><time>2026-04-04T15:00:40.723Z</time></trkpt><trkpt lat="42.7574339" lon="10.2844981"><ele>223.14285714285714</ele><time>2026-04-04T15:00:41.723Z</time></trkpt><trkpt lat="42.7573686" lon="10.2844814"><ele>224.57142857142858</ele><time>2026-04-04T15:00:42.722Z</time></trkpt><trkpt lat="42.7573004" lon="10.2844448"><ele>226.0</ele><time>2026-04-04T15:00:43.723Z</time></trkpt><trkpt lat="42.7572331" lon="10.2843783"><ele>225.99999999999997</ele><time>2026-04-04T15:00:44.722Z</time></trkpt><trkpt lat="42.7571719" lon="10.2842979"><ele>226.0</ele><time>2026-04-04T15:00:45.723Z</time></trkpt><trkpt lat="42.757119" lon="10.2842415"><ele>226.0</ele><time>2026-04-04T15:00:46.723Z</time></trkpt><trkpt lat="42.7570618" lon="10.2841899"><ele>226.0</ele><time>2026-04-04T15:00:47.723Z</time></trkpt><trkpt lat="42.7570074" lon="10.2841224"><ele>225.99999999999997</ele><time>2026-04-04T15:00:48.723Z</time></trkpt><trkpt lat="42.7569456" lon="10.2840297"><ele>226.0</ele><time>2026-04-04T15:00:49.723Z</time></trkpt><trkpt lat="42.7568925" lon="10.2839361"><ele>228.60000000000002</ele><time>2026-04-04T15:00:50.723Z</time></trkpt><trkpt lat="42.7568434" lon="10.2838342"><ele>231.20000000000002</ele><time>2026-04-04T15:00:51.723Z</time></trkpt><trkpt lat="42.7567978" lon="10.2837325"><ele>233.79999999999998</ele><time>2026-04-04T15:00:52.722Z</time></trkpt><trkpt lat="42.7567375" lon="10.2836372"><ele>236.39999999999998</ele><time>2026-04-04T15:00:53.722Z</time></trkpt><trkpt lat="42.7566601" lon="10.2835439"><ele>239.0</ele><time>2026-04-04T15:00:54.723Z</time></trkpt><trkpt lat="42.7565821" lon="10.2834505"><ele>239.00000000000003</ele><time>2026-04-04T15:00:55.723Z</time></trkpt><trkpt lat="42.7565073" lon="10.283358"><ele>239.0</ele><time>2026-04-04T15:00:56.723Z</time></trkpt><trkpt lat="42.7564428" lon="10.2832818"><ele>239.0</ele><time>2026-04-04T15:00:57.723Z</time></trkpt><trkpt lat="42.7563948" lon="10.2831892"><ele>239.0</ele><time>2026-04-04T15:00:58.722Z</time></trkpt><trkpt lat="42.7563712" lon="10.2831046"><ele>239.00000000000003</ele><time>2026-04-04T15:00:59.723Z</time></trkpt><trkpt lat="42.7563639" lon="10.2830114"><ele>239.0</ele><time>2026-04-04T15:01:00.723Z</time></trkpt><trkpt lat="42.7563599" lon="10.2829033"><ele>241.16666666666669</ele><time>2026-04-04T15:01:01.723Z</time></trkpt><trkpt lat="42.7563478" lon="10.282809"><ele>243.33333333333334</ele><time>2026-04-04T15:01:02.723Z</time></trkpt><trkpt lat="42.7563237" lon="10.282726"><ele>245.5</ele><time>2026-04-04T15:01:03.723Z</time></trkpt><trkpt lat="42.7562863" lon="10.2825644"><ele>247.66666666666669</ele><time>2026-04-04T15:01:05.723Z</time></trkpt><trkpt lat="42.7562729" lon="10.2824752"><ele>249.83333333333334</ele><time>2026-04-04T15:01:06.723Z</time></trkpt><trkpt lat="42.7562559" lon="10.2823921"><ele>252.0</ele><time>2026-04-04T15:01:07.723Z</time></trkpt><trkpt lat="42.7561933" lon="10.2822343"><ele>252.8</ele><time>2026-04-04T15:01:09.723Z</time></trkpt><trkpt lat="42.756134" lon="10.2821551"><ele>253.6</ele><time>2026-04-04T15:01:10.722Z</time></trkpt><trkpt lat="42.756059" lon="10.2820782"><ele>254.40000000000003</ele><time>2026-04-04T15:01:11.722Z</time></trkpt><trkpt lat="42.7559676" lon="10.2819918"><ele>255.20000000000002</ele><time>2026-04-04T15:01:12.722Z</time></trkpt><trkpt lat="42.7558789" lon="10.281929"><ele>256.0</ele><time>2026-04-04T15:01:13.722Z</time></trkpt><trkpt lat="42.7557992" lon="10.281873"><ele>256.0</ele><time>2026-04-04T15:01:14.723Z</time></trkpt><trkpt lat="42.7557088" lon="10.2818182"><ele>256.0</ele><time>2026-04-04T15:01:15.723Z</time></trkpt><trkpt lat="42.7556171" lon="10.2817422"><ele>256.0</ele><time>2026-04-04T15:01:16.723Z</time></trkpt><trkpt lat="42.7555443" lon="10.2816852"><ele>256.0</ele><time>2026-04-04T15:01:17.723Z</time></trkpt><trkpt lat="42.755475" lon="10.2816225"><ele>256.0</ele><time>2026-04-04T15:01:18.723Z</time></trkpt><trkpt lat="42.7553989" lon="10.2815697"><ele>255.99999999999997</ele><time>2026-04-04T15:01:19.722Z</time></trkpt><trkpt lat="42.7553208" lon="10.2815413"><ele>256.0</ele><time>2026-04-04T15:01:20.723Z</time></trkpt><trkpt lat="42.7552581" lon="10.2815203"><ele>256.0</ele><time>2026-04-04T15:01:21.723Z</time></trkpt><trkpt lat="42.7551634" lon="10.2815272"><ele>256.0</ele><time>2026-04-04T15:01:23.722Z</time></trkpt><trkpt lat="42.755102" lon="10.2816372"><ele>255.99999999999997</ele><time>2026-04-04T15:01:25.723Z</time></trkpt><trkpt lat="42.7550793" lon="10.281745"><ele>256.0</ele><time>2026-04-04T15:01:26.723Z</time></trkpt><trkpt lat="42.7550558" lon="10.2818664"><ele>255.8</ele><time>2026-04-04T15:01:27.722Z</time></trkpt><trkpt lat="42.7550202" lon="10.2820134"><ele>255.60000000000002</ele><time>2026-04-04T15:01:28.723Z</time></trkpt><trkpt lat="42.7549786" lon="10.2821519"><ele>255.4</ele><time>2026-04-04T15:01:29.723Z</time></trkpt><trkpt lat="42.754935" lon="10.2822733"><ele>255.2</ele><time>2026-04-04T15:01:30.723Z</time></trkpt><trkpt lat="42.7548908" lon="10.2823925"><ele>255.0</ele><time>2026-04-04T15:01:31.723Z</time></trkpt><trkpt lat="42.7548533" lon="10.2824958"><ele>251.6</ele><time>2026-04-04T15:01:32.723Z</time></trkpt><trkpt lat="42.754808" lon="10.2825903"><ele>248.2</ele><time>2026-04-04T15:01:33.723Z</time></trkpt><trkpt lat="42.7547009" lon="10.2827077"><ele>244.8</ele><time>2026-04-04T15:01:35.723Z</time></trkpt><trkpt lat="42.7546352" lon="10.2827242"><ele>241.4</ele><time>2026-04-04T15:01:36.723Z</time></trkpt><trkpt lat="42.7545664" lon="10.2827434"><ele>238.0</ele><time>2026-04-04T15:01:37.722Z</time></trkpt><trkpt lat="42.7544509" lon="10.2826822"><ele>237.99999999999997</ele><time>2026-04-04T15:01:39.723Z</time></trkpt><trkpt lat="42.7544086" lon="10.2826179"><ele>238.0</ele><time>2026-04-04T15:01:40.723Z</time></trkpt><trkpt lat="42.7543481" lon="10.2825361"><ele>238.0</ele><time>2026-04-04T15:01:41.723Z</time></trkpt><trkpt lat="42.7542839" lon="10.2824269"><ele>238.0</ele><time>2026-04-04T15:01:42.723Z</time></trkpt><trkpt lat="42.7542366" lon="10.2823227"><ele>237.99999999999997</ele><time>2026-04-04T15:01:43.723Z</time></trkpt><trkpt lat="42.7541919" lon="10.2822293"><ele>238.0</ele><time>2026-04-04T15:01:44.723Z</time></trkpt><trkpt lat="42.7541471" lon="10.2821398"><ele>242.4</ele><time>2026-04-04T15:01:45.723Z</time></trkpt><trkpt lat="42.7540999" lon="10.2820525"><ele>246.8</ele><time>2026-04-04T15:01:46.722Z</time></trkpt><trkpt lat="42.754047" lon="10.2819795"><ele>251.2</ele><time>2026-04-04T15:01:47.723Z</time></trkpt><trkpt lat="42.7539236" lon="10.2818915"><ele>255.6</ele><time>2026-04-04T15:01:49.723Z</time></trkpt><trkpt lat="42.7538481" lon="10.2818677"><ele>260.0</ele><time>2026-04-04T15:01:50.723Z</time></trkpt><trkpt lat="42.7537633" lon="10.281827"><ele>260.0</ele><time>2026-04-04T15:01:51.723Z</time></trkpt><trkpt lat="42.7536684" lon="10.2817647"><ele>260.0</ele><time>2026-04-04T15:01:52.723Z</time></trkpt><trkpt lat="42.7535904" lon="10.2817101"><ele>260.0</ele><time>2026-04-04T15:01:53.723Z</time></trkpt><trkpt lat="42.7535249" lon="10.281644"><ele>260.0</ele><time>2026-04-04T15:01:54.723Z</time></trkpt><trkpt lat="42.7534601" lon="10.2815479"><ele>260.0</ele><time>2026-04-04T15:01:55.723Z</time></trkpt><trkpt lat="42.7534014" lon="10.2814474"><ele>259.83333333333337</ele><time>2026-04-04T15:01:56.723Z</time></trkpt><trkpt lat="42.7533658" lon="10.2813603"><ele>259.6666666666667</ele><time>2026-04-04T15:01:57.723Z</time></trkpt><trkpt lat="42.7533358" lon="10.2812621"><ele>259.5</ele><time>2026-04-04T15:01:58.723Z</time></trkpt><trkpt lat="42.7533169" lon="10.2811655"><ele>259.3333333333333</ele><time>2026-04-04T15:01:59.723Z</time></trkpt><trkpt lat="42.7532982" lon="10.2810579"><ele>259.16666666666663</ele><time>2026-04-04T15:02:00.723Z</time></trkpt><trkpt lat="42.7532721" lon="10.2809337"><ele>259.0</ele><time>2026-04-04T15:02:01.723Z</time></trkpt><trkpt lat="42.7532667" lon="10.2808173"><ele>259.0</ele><time>2026-04-04T15:02:02.723Z</time></trkpt><trkpt lat="42.7532642" lon="10.2806849"><ele>259.0</ele><time>2026-04-04T15:02:03.723Z</time></trkpt><trkpt lat="42.7532717" lon="10.2805667"><ele>259.0</ele><time>2026-04-04T15:02:04.723Z</time></trkpt><trkpt lat="42.7532787" lon="10.280436"><ele>259.0</ele><time>2026-04-04T15:02:05.723Z</time></trkpt><trkpt lat="42.7532828" lon="10.2803179"><ele>259.0</ele><time>2026-04-04T15:02:06.723Z</time></trkpt><trkpt lat="42.7532927" lon="10.2801858"><ele>260.0</ele><time>2026-04-04T15:02:07.723Z</time></trkpt><trkpt lat="42.7533124" lon="10.2800504"><ele>261.0</ele><time>2026-04-04T15:02:08.722Z</time></trkpt><trkpt lat="42.7533241" lon="10.2799204"><ele>262.0</ele><time>2026-04-04T15:02:09.723Z</time></trkpt><trkpt lat="42.7533317" lon="10.2797966"><ele>263.0</ele><time>2026-04-04T15:02:10.722Z</time></trkpt><trkpt lat="42.7533327" lon="10.2796857"><ele>264.0</ele><time>2026-04-04T15:02:11.723Z</time></trkpt><trkpt lat="42.7533331" lon="10.2795705"><ele>265.2</ele><time>2026-04-04T15:02:12.722Z</time></trkpt><trkpt lat="42.7533498" lon="10.2794862"><ele>266.4</ele><time>2026-04-04T15:02:13.723Z</time></trkpt><trkpt lat="42.7533311" lon="10.2793566"><ele>267.6</ele><time>2026-04-04T15:02:15.723Z</time></trkpt><trkpt lat="42.7532086" lon="10.2792541"><ele>268.8</ele><time>2026-04-04T15:02:17.723Z</time></trkpt><trkpt lat="42.7531421" lon="10.2792059"><ele>270.0</ele><time>2026-04-04T15:02:18.723Z</time></trkpt><trkpt lat="42.7530546" lon="10.2791384"><ele>270.0</ele><time>2026-04-04T15:02:19.723Z</time></trkpt><trkpt lat="42.7529744" lon="10.2790566"><ele>270.0</ele><time>2026-04-04T15:02:20.722Z</time></trkpt><trkpt lat="42.7529128" lon="10.2789756"><ele>270.0</ele><time>2026-04-04T15:02:21.723Z</time></trkpt><trkpt lat="42.7528541" lon="10.2788762"><ele>270.0</ele><time>2026-04-04T15:02:22.723Z</time></trkpt><trkpt lat="42.7528014" lon="10.2788013"><ele>270.0</ele><time>2026-04-04T15:02:23.723Z</time></trkpt><trkpt lat="42.7527253" lon="10.2787184"><ele>271.6666666666667</ele><time>2026-04-04T15:02:24.722Z</time></trkpt><trkpt lat="42.7526581" lon="10.2786479"><ele>273.3333333333333</ele><time>2026-04-04T15:02:25.723Z</time></trkpt><trkpt lat="42.7525955" lon="10.2785872"><ele>275.0</ele><time>2026-04-04T15:02:26.723Z</time></trkpt><trkpt lat="42.752536" lon="10.2785485"><ele>276.66666666666663</ele><time>2026-04-04T15:02:27.723Z</time></trkpt><trkpt lat="42.7524304" lon="10.2785732"><ele>278.3333333333333</ele><time>2026-04-04T15:02:29.723Z</time></trkpt><trkpt lat="42.7524136" lon="10.2786611"><ele>280.0</ele><time>2026-04-04T15:02:30.723Z</time></trkpt><trkpt lat="42.752395" lon="10.278759"><ele>280.0</ele><time>2026-04-04T15:02:31.723Z</time></trkpt><trkpt lat="42.7523675" lon="10.2788986"><ele>280.0</ele><time>2026-04-04T15:02:32.723Z</time></trkpt><trkpt lat="42.7523369" lon="10.2790274"><ele>280.0</ele><time>2026-04-04T15:02:33.723Z</time></trkpt><trkpt lat="42.7523032" lon="10.2791708"><ele>280.0</ele><time>2026-04-04T15:02:34.723Z</time></trkpt><trkpt lat="42.752261" lon="10.2793072"><ele>280.0</ele><time>2026-04-04T15:02:35.723Z</time></trkpt><trkpt lat="42.7522193" lon="10.2794441"><ele>276.4</ele><time>2026-04-04T15:02:36.723Z</time></trkpt><trkpt lat="42.7521687" lon="10.2795847"><ele>272.8</ele><time>2026-04-04T15:02:37.722Z</time></trkpt><trkpt lat="42.7521139" lon="10.2796964"><ele>269.2</ele><time>2026-04-04T15:02:38.723Z</time></trkpt><trkpt lat="42.7520652" lon="10.2797972"><ele>265.6</ele><time>2026-04-04T15:02:39.723Z</time></trkpt><trkpt lat="42.7520094" lon="10.2798769"><ele>262.0</ele><time>2026-04-04T15:02:40.722Z</time></trkpt><trkpt lat="42.7519501" lon="10.2799384"><ele>262.4</ele><time>2026-04-04T15:02:41.723Z</time></trkpt><trkpt lat="42.7518717" lon="10.2799822"><ele>262.79999999999995</ele><time>2026-04-04T15:02:42.723Z</time></trkpt><trkpt lat="42.7517981" lon="10.2800112"><ele>263.2</ele><time>2026-04-04T15:02:43.723Z</time></trkpt><trkpt lat="42.7516978" lon="10.2801432"><ele>263.59999999999997</ele><time>2026-04-04T15:02:45.723Z</time></trkpt><trkpt lat="42.7516578" lon="10.2802469"><ele>264.0</ele><time>2026-04-04T15:02:46.723Z</time></trkpt><trkpt lat="42.7516101" lon="10.2803203"><ele>264.0</ele><time>2026-04-04T15:02:47.723Z</time></trkpt><trkpt lat="42.7514929" lon="10.2804001"><ele>264.0</ele><time>2026-04-04T15:02:49.722Z</time></trkpt><trkpt lat="42.7514054" lon="10.2804348"><ele>264.0</ele><time>2026-04-04T15:02:50.723Z</time></trkpt><trkpt lat="42.7513263" lon="10.2804981"><ele>264.0</ele><time>2026-04-04T15:02:51.723Z</time></trkpt><trkpt lat="42.7512406" lon="10.2805754"><ele>264.0</ele><time>2026-04-04T15:02:52.723Z</time></trkpt><trkpt lat="42.7511415" lon="10.2806528"><ele>261.5</ele><time>2026-04-04T15:02:53.723Z</time></trkpt><trkpt lat="42.75104" lon="10.2807203"><ele>259.0</ele><time>2026-04-04T15:02:54.723Z</time></trkpt><trkpt lat="42.7509221" lon="10.2807929"><ele>256.5</ele><time>2026-04-04T15:02:55.723Z</time></trkpt><trkpt lat="42.7507994" lon="10.2808524"><ele>254.0</ele><time>2026-04-04T15:02:56.723Z</time></trkpt><trkpt lat="42.7506688" lon="10.2809081"><ele>254.0</ele><time>2026-04-04T15:02:57.723Z</time></trkpt><trkpt lat="42.7505377" lon="10.2809485"><ele>254.0</ele><time>2026-04-04T15:02:58.723Z</time></trkpt><trkpt lat="42.7504099" lon="10.2809852"><ele>254.0</ele><time>2026-04-04T15:02:59.722Z</time></trkpt><trkpt lat="42.7502896" lon="10.2810302"><ele>254.0</ele><time>2026-04-04T15:03:00.723Z</time></trkpt><trkpt lat="42.7501912" lon="10.2810521"><ele>256.0</ele><time>2026-04-04T15:03:01.723Z</time></trkpt><trkpt lat="42.7500948" lon="10.2810632"><ele>258.0</ele><time>2026-04-04T15:03:02.723Z</time></trkpt><trkpt lat="42.749976" lon="10.2810467"><ele>260.0</ele><time>2026-04-04T15:03:03.723Z</time></trkpt><trkpt lat="42.7498702" lon="10.2810081"><ele>262.0</ele><time>2026-04-04T15:03:04.723Z</time></trkpt><trkpt lat="42.749768" lon="10.2809658"><ele>264.0</ele><time>2026-04-04T15:03:05.723Z</time></trkpt><trkpt lat="42.7496829" lon="10.2809302"><ele>264.0</ele><time>2026-04-04T15:03:06.723Z</time></trkpt><trkpt lat="42.749571" lon="10.2809107"><ele>264.0</ele><time>2026-04-04T15:03:08.723Z</time></trkpt><trkpt lat="42.7495177" lon="10.2810289"><ele>264.0</ele><time>2026-04-04T15:03:10.723Z</time></trkpt><trkpt lat="42.7495154" lon="10.2811244"><ele>264.0</ele><time>2026-04-04T15:03:11.722Z</time></trkpt><trkpt lat="42.7495122" lon="10.28125"><ele>264.0</ele><time>2026-04-04T15:03:12.722Z</time></trkpt><trkpt lat="42.7494864" lon="10.2813653"><ele>263.0</ele><time>2026-04-04T15:03:13.723Z</time></trkpt><trkpt lat="42.749448" lon="10.2814715"><ele>262.0</ele><time>2026-04-04T15:03:14.723Z</time></trkpt><trkpt lat="42.7493963" lon="10.2815547"><ele>261.0</ele><time>2026-04-04T15:03:15.723Z</time></trkpt><trkpt lat="42.7493339" lon="10.2816017"><ele>260.0</ele><time>2026-04-04T15:03:16.723Z</time></trkpt><trkpt lat="42.7492719" lon="10.2816281"><ele>259.0</ele><time>2026-04-04T15:03:17.723Z</time></trkpt><trkpt lat="42.7491884" lon="10.2816502"><ele>258.0</ele><time>2026-04-04T15:03:18.723Z</time></trkpt><trkpt lat="42.7491171" lon="10.2816528"><ele>258.0</ele><time>2026-04-04T15:03:19.723Z</time></trkpt><trkpt lat="42.7490348" lon="10.2816359"><ele>258.0</ele><time>2026-04-04T15:03:20.723Z</time></trkpt><trkpt lat="42.7489459" lon="10.2816211"><ele>258.0</ele><time>2026-04-04T15:03:21.723Z</time></trkpt><trkpt lat="42.7488629" lon="10.2816041"><ele>258.0</ele><time>2026-04-04T15:03:22.723Z</time></trkpt><trkpt lat="42.7487689" lon="10.2815865"><ele>258.0</ele><time>2026-04-04T15:03:23.723Z</time></trkpt><trkpt lat="42.7486964" lon="10.2815703"><ele>258.0</ele><time>2026-04-04T15:03:24.723Z</time></trkpt><trkpt lat="42.7486246" lon="10.2815422"><ele>259.6666666666667</ele><time>2026-04-04T15:03:25.723Z</time></trkpt><trkpt lat="42.7485381" lon="10.2815336"><ele>261.3333333333333</ele><time>2026-04-04T15:03:26.722Z</time></trkpt><trkpt lat="42.748458" lon="10.2815138"><ele>263.0</ele><time>2026-04-04T15:03:27.723Z</time></trkpt><trkpt lat="42.7483764" lon="10.2814977"><ele>264.66666666666663</ele><time>2026-04-04T15:03:28.723Z</time></trkpt><trkpt lat="42.7482965" lon="10.2814958"><ele>266.3333333333333</ele><time>2026-04-04T15:03:29.723Z</time></trkpt><trkpt lat="42.7481817" lon="10.2814804"><ele>268.0</ele><time>2026-04-04T15:03:31.722Z</time></trkpt><trkpt lat="42.7480879" lon="10.2814711"><ele>269.5</ele><time>2026-04-04T15:03:33.723Z</time></trkpt><trkpt lat="42.7481155" lon="10.2813675"><ele>271.0</ele><time>2026-04-04T15:03:40.723Z</time></trkpt><trkpt lat="42.7482373" lon="10.2813401"><ele>272.5</ele><time>2026-04-04T15:03:42.722Z</time></trkpt><trkpt lat="42.748308" lon="10.281324"><ele>274.0</ele><time>2026-04-04T15:03:43.723Z</time></trkpt><trkpt lat="42.7483783" lon="10.2812998"><ele>275.5</ele><time>2026-04-04T15:03:44.723Z</time></trkpt><trkpt lat="42.7484643" lon="10.2812588"><ele>277.0</ele><time>2026-04-04T15:03:45.723Z</time></trkpt><trkpt lat="42.7485557" lon="10.2812234"><ele>277.0</ele><time>2026-04-04T15:03:46.723Z</time></trkpt><trkpt lat="42.7486484" lon="10.2811872"><ele>277.0</ele><time>2026-04-04T15:03:47.723Z</time></trkpt><trkpt lat="42.748751" lon="10.2811337"><ele>277.0</ele><time>2026-04-04T15:03:48.723Z</time></trkpt><trkpt lat="42.7488269" lon="10.281073"><ele>277.0</ele><time>2026-04-04T15:03:49.723Z</time></trkpt><trkpt lat="42.7488931" lon="10.2809908"><ele>277.0</ele><time>2026-04-04T15:03:50.723Z</time></trkpt><trkpt lat="42.7489452" lon="10.2809004"><ele>277.0</ele><time>2026-04-04T15:03:51.722Z</time></trkpt><trkpt lat="42.7489879" lon="10.2807861"><ele>277.0</ele><time>2026-04-04T15:03:52.723Z</time></trkpt><trkpt lat="42.7490241" lon="10.2806635"><ele>277.0</ele><time>2026-04-04T15:03:53.723Z</time></trkpt><trkpt lat="42.7490761" lon="10.280533"><ele>277.0</ele><time>2026-04-04T15:03:54.723Z</time></trkpt><trkpt lat="42.7491367" lon="10.2803958"><ele>277.0</ele><time>2026-04-04T15:03:55.723Z</time></trkpt><trkpt lat="42.7492036" lon="10.2802935"><ele>279.0</ele><time>2026-04-04T15:03:56.723Z</time></trkpt><trkpt lat="42.749281" lon="10.2802164"><ele>281.0</ele><time>2026-04-04T15:03:57.723Z</time></trkpt><trkpt lat="42.7493849" lon="10.2801617"><ele>283.0</ele><time>2026-04-04T15:03:58.723Z</time></trkpt><trkpt lat="42.7494951" lon="10.280132"><ele>285.0</ele><time>2026-04-04T15:03:59.723Z</time></trkpt><trkpt lat="42.7496038" lon="10.2801137"><ele>287.0</ele><time>2026-04-04T15:04:00.723Z</time></trkpt><trkpt lat="42.7497255" lon="10.2801065"><ele>287.0</ele><time>2026-04-04T15:04:01.723Z</time></trkpt><trkpt lat="42.7498529" lon="10.2800923"><ele>287.0</ele><time>2026-04-04T15:04:02.723Z</time></trkpt><trkpt lat="42.7499713" lon="10.2800672"><ele>287.0</ele><time>2026-04-04T15:04:03.723Z</time></trkpt><trkpt lat="42.75008" lon="10.2800174"><ele>287.0</ele><time>2026-04-04T15:04:04.723Z</time></trkpt><trkpt lat="42.7501844" lon="10.2799592"><ele>284.6</ele><time>2026-04-04T15:04:05.722Z</time></trkpt><trkpt lat="42.7502751" lon="10.2798828"><ele>282.2</ele><time>2026-04-04T15:04:06.723Z</time></trkpt><trkpt lat="42.7503442" lon="10.2798393"><ele>279.8</ele><time>2026-04-04T15:04:07.723Z</time></trkpt><trkpt lat="42.7504135" lon="10.2798231"><ele>277.4</ele><time>2026-04-04T15:04:08.722Z</time></trkpt><trkpt lat="42.7505148" lon="10.2798274"><ele>275.0</ele><time>2026-04-04T15:04:09.723Z</time></trkpt><trkpt lat="42.7506182" lon="10.2798323"><ele>275.0</ele><time>2026-04-04T15:04:10.723Z</time></trkpt><trkpt lat="42.7507133" lon="10.2798037"><ele>275.0</ele><time>2026-04-04T15:04:11.723Z</time></trkpt><trkpt lat="42.7507898" lon="10.279752"><ele>275.0</ele><time>2026-04-04T15:04:12.723Z</time></trkpt><trkpt lat="42.75085" lon="10.2796716"><ele>275.0</ele><time>2026-04-04T15:04:13.723Z</time></trkpt><trkpt lat="42.7508988" lon="10.2795777"><ele>275.0</ele><time>2026-04-04T15:04:14.722Z</time></trkpt><trkpt lat="42.7509161" lon="10.2794297"><ele>278.8</ele><time>2026-04-04T15:04:15.723Z</time></trkpt><trkpt lat="42.7509621" lon="10.2792969"><ele>282.6</ele><time>2026-04-04T15:04:16.723Z</time></trkpt><trkpt lat="42.7510057" lon="10.27916"><ele>286.4</ele><time>2026-04-04T15:04:17.723Z</time></trkpt><trkpt lat="42.7510278" lon="10.2790227"><ele>290.2</ele><time>2026-04-04T15:04:18.723Z</time></trkpt><trkpt lat="42.7510475" lon="10.2788933"><ele>294.0</ele><time>2026-04-04T15:04:19.723Z</time></trkpt><trkpt lat="42.7510607" lon="10.2787573"><ele>294.0</ele><time>2026-04-04T15:04:20.723Z</time></trkpt><trkpt lat="42.7510677" lon="10.2786333"><ele>294.0</ele><time>2026-04-04T15:04:21.723Z</time></trkpt><trkpt lat="42.7510579" lon="10.2785395"><ele>294.0</ele><time>2026-04-04T15:04:22.723Z</time></trkpt><trkpt lat="42.7510399" lon="10.2784487"><ele>294.0</ele><time>2026-04-04T15:04:23.723Z</time></trkpt><trkpt lat="42.7510103" lon="10.2783638"><ele>294.0</ele><time>2026-04-04T15:04:25.723Z</time></trkpt><trkpt lat="42.7509248" lon="10.2783571"><ele>294.0</ele><time>2026-04-04T15:04:39.723Z</time></trkpt><trkpt lat="42.7508374" lon="10.2784451"><ele>295.0</ele><time>2026-04-04T15:04:41.723Z</time></trkpt><trkpt lat="42.7507658" lon="10.2785028"><ele>296.0</ele><time>2026-04-04T15:04:42.723Z</time></trkpt><trkpt lat="42.7506898" lon="10.2785826"><ele>297.0</ele><time>2026-04-04T15:04:43.723Z</time></trkpt><trkpt lat="42.7505974" lon="10.2786619"><ele>298.0</ele><time>2026-04-04T15:04:44.723Z</time></trkpt><trkpt lat="42.7505153" lon="10.2787219"><ele>299.0</ele><time>2026-04-04T15:04:45.722Z</time></trkpt><trkpt lat="42.7504373" lon="10.2787642"><ele>299.0</ele><time>2026-04-04T15:04:46.722Z</time></trkpt><trkpt lat="42.7503111" lon="10.2787354"><ele>299.0</ele><time>2026-04-04T15:04:48.723Z</time></trkpt><trkpt lat="42.7502353" lon="10.2787052"><ele>299.0</ele><time>2026-04-04T15:04:49.723Z</time></trkpt><trkpt lat="42.7501029" lon="10.2787621"><ele>299.0</ele><time>2026-04-04T15:04:51.723Z</time></trkpt><trkpt lat="42.7500277" lon="10.2788088"><ele>299.0</ele><time>2026-04-04T15:04:52.723Z</time></trkpt><trkpt lat="42.7499618" lon="10.2788099"><ele>301.0</ele><time>2026-04-04T15:04:53.722Z</time></trkpt><trkpt lat="42.7498408" lon="10.278769"><ele>303.0</ele><time>2026-04-04T15:04:55.722Z</time></trkpt><trkpt lat="42.74975" lon="10.2787636"><ele>305.0</ele><time>2026-04-04T15:04:56.723Z</time></trkpt><trkpt lat="42.749643" lon="10.2787671"><ele>307.0</ele><time>2026-04-04T15:04:57.723Z</time></trkpt><trkpt lat="42.7495472" lon="10.2787861"><ele>309.0</ele><time>2026-04-04T15:04:58.723Z</time></trkpt><trkpt lat="42.7494655" lon="10.278838"><ele>309.0</ele><time>2026-04-04T15:04:59.723Z</time></trkpt><trkpt lat="42.7493846" lon="10.2788739"><ele>309.0</ele><time>2026-04-04T15:05:00.722Z</time></trkpt><trkpt lat="42.7493056" lon="10.2789456"><ele>309.0</ele><time>2026-04-04T15:05:02.723Z</time></trkpt><trkpt lat="42.7493682" lon="10.2788896"><ele>309.0</ele><time>2026-04-04T15:14:17.723Z</time></trkpt><trkpt lat="42.7494626" lon="10.2788207"><ele>309.0</ele><time>2026-04-04T15:14:19.722Z</time></trkpt><trkpt lat="42.7495264" lon="10.2787862"><ele>309.0</ele><time>2026-04-04T15:14:20.723Z</time></trkpt><trkpt lat="42.7496012" lon="10.2787649"><ele>309.0</ele><time>2026-04-04T15:14:21.723Z</time></trkpt><trkpt lat="42.7496868" lon="10.2787587"><ele>309.0</ele><time>2026-04-04T15:14:22.723Z</time></trkpt><trkpt lat="42.7497607" lon="10.2787587"><ele>309.0</ele><time>2026-04-04T15:14:23.723Z</time></trkpt><trkpt lat="42.7498291" lon="10.2787643"><ele>309.0</ele><time>2026-04-04T15:14:24.723Z</time></trkpt><trkpt lat="42.7498968" lon="10.2787871"><ele>309.0</ele><time>2026-04-04T15:14:25.723Z</time></trkpt><trkpt lat="42.7500058" lon="10.2788021"><ele>309.0</ele><time>2026-04-04T15:14:27.723Z</time></trkpt><trkpt lat="42.7500662" lon="10.278775"><ele>309.0</ele><time>2026-04-04T15:14:28.723Z</time></trkpt><trkpt lat="42.7501358" lon="10.2787303"><ele>309.0</ele><time>2026-04-04T15:14:29.723Z</time></trkpt><trkpt lat="42.7502466" lon="10.2786908"><ele>309.0</ele><time>2026-04-04T15:14:31.722Z</time></trkpt><trkpt lat="42.7503061" lon="10.2787228"><ele>309.0</ele><time>2026-04-04T15:14:32.722Z</time></trkpt><trkpt lat="42.7503706" lon="10.2787558"><ele>309.0</ele><time>2026-04-04T15:14:33.723Z</time></trkpt><trkpt lat="42.7504948" lon="10.2787126"><ele>307.0</ele><time>2026-04-04T15:14:35.723Z</time></trkpt><trkpt lat="42.7505863" lon="10.2786459"><ele>305.0</ele><time>2026-04-04T15:14:36.723Z</time></trkpt><trkpt lat="42.750665" lon="10.2785834"><ele>303.0</ele><time>2026-04-04T15:14:37.723Z</time></trkpt><trkpt lat="42.7507501" lon="10.2785047"><ele>301.0</ele><time>2026-04-04T15:14:38.723Z</time></trkpt><trkpt lat="42.7508358" lon="10.2784328"><ele>299.0</ele><time>2026-04-04T15:14:39.723Z</time></trkpt><trkpt lat="42.7509142" lon="10.2783577"><ele>299.0</ele><time>2026-04-04T15:14:40.722Z</time></trkpt><trkpt lat="42.7509858" lon="10.2782861"><ele>299.0</ele><time>2026-04-04T15:14:41.723Z</time></trkpt><trkpt lat="42.7510623" lon="10.2781868"><ele>299.0</ele><time>2026-04-04T15:14:42.723Z</time></trkpt><trkpt lat="42.7511228" lon="10.278084"><ele>299.0</ele><time>2026-04-04T15:14:43.723Z</time></trkpt><trkpt lat="42.7511854" lon="10.2779838"><ele>299.0</ele><time>2026-04-04T15:14:44.723Z</time></trkpt><trkpt lat="42.7512568" lon="10.2778778"><ele>298.59999999999997</ele><time>2026-04-04T15:14:45.722Z</time></trkpt><trkpt lat="42.7513272" lon="10.2777816"><ele>298.2</ele><time>2026-04-04T15:14:46.723Z</time></trkpt><trkpt lat="42.7514042" lon="10.2777069"><ele>297.79999999999995</ele><time>2026-04-04T15:14:47.723Z</time></trkpt><trkpt lat="42.7514854" lon="10.2776414"><ele>297.4</ele><time>2026-04-04T15:14:48.722Z</time></trkpt><trkpt lat="42.751576" lon="10.2775627"><ele>297.0</ele><time>2026-04-04T15:14:49.723Z</time></trkpt><trkpt lat="42.751643" lon="10.2774676"><ele>297.0</ele><time>2026-04-04T15:14:50.723Z</time></trkpt><trkpt lat="42.7516985" lon="10.2773624"><ele>297.0</ele><time>2026-04-04T15:14:51.722Z</time></trkpt><trkpt lat="42.7517516" lon="10.2772399"><ele>297.0</ele><time>2026-04-04T15:14:52.723Z</time></trkpt><trkpt lat="42.7518043" lon="10.2771336"><ele>297.0</ele><time>2026-04-04T15:14:53.723Z</time></trkpt><trkpt lat="42.7518686" lon="10.2770385"><ele>297.0</ele><time>2026-04-04T15:14:54.722Z</time></trkpt><trkpt lat="42.7519434" lon="10.2769281"><ele>299.0</ele><time>2026-04-04T15:14:55.723Z</time></trkpt><trkpt lat="42.7520056" lon="10.2768229"><ele>301.0</ele><time>2026-04-04T15:14:56.723Z</time></trkpt><trkpt lat="42.752053" lon="10.276752"><ele>303.0</ele><time>2026-04-04T15:14:57.723Z</time></trkpt><trkpt lat="42.7521333" lon="10.2766864"><ele>305.0</ele><time>2026-04-04T15:14:59.723Z</time></trkpt><trkpt lat="42.7522345" lon="10.2767246"><ele>307.0</ele><time>2026-04-04T15:15:01.723Z</time></trkpt><trkpt lat="42.7523346" lon="10.2767879"><ele>307.0</ele><time>2026-04-04T15:15:03.723Z</time></trkpt><trkpt lat="42.7524349" lon="10.2767909"><ele>307.0</ele><time>2026-04-04T15:15:05.723Z</time></trkpt><trkpt lat="42.7525054" lon="10.2767752"><ele>307.0</ele><time>2026-04-04T15:15:06.723Z</time></trkpt><trkpt lat="42.7526196" lon="10.2767435"><ele>307.0</ele><time>2026-04-04T15:15:08.723Z</time></trkpt><trkpt lat="42.7526905" lon="10.2767087"><ele>307.0</ele><time>2026-04-04T15:15:09.723Z</time></trkpt><trkpt lat="42.752772" lon="10.276692"><ele>307.0</ele><time>2026-04-04T15:15:10.723Z</time></trkpt><trkpt lat="42.7528575" lon="10.2766794"><ele>310.0</ele><time>2026-04-04T15:15:11.723Z</time></trkpt><trkpt lat="42.7529314" lon="10.2766818"><ele>313.0</ele><time>2026-04-04T15:15:12.723Z</time></trkpt><trkpt lat="42.7530029" lon="10.2766832"><ele>316.0</ele><time>2026-04-04T15:15:13.723Z</time></trkpt><trkpt lat="42.7531261" lon="10.2766626"><ele>319.0</ele><time>2026-04-04T15:15:15.723Z</time></trkpt><trkpt lat="42.7532338" lon="10.276616"><ele>322.0</ele><time>2026-04-04T15:15:17.723Z</time></trkpt><trkpt lat="42.7533323" lon="10.2766061"><ele>322.0</ele><time>2026-04-04T15:15:19.723Z</time></trkpt><trkpt lat="42.7534389" lon="10.2765871"><ele>322.0</ele><time>2026-04-04T15:15:21.723Z</time></trkpt><trkpt lat="42.7535395" lon="10.2765533"><ele>322.0</ele><time>2026-04-04T15:15:23.723Z</time></trkpt><trkpt lat="42.7536376" lon="10.2765216"><ele>322.0</ele><time>2026-04-04T15:15:25.723Z</time></trkpt><trkpt lat="42.7537505" lon="10.276502"><ele>322.0</ele><time>2026-04-04T15:15:27.723Z</time></trkpt><trkpt lat="42.7538247" lon="10.2764926"><ele>323.66666666666663</ele><time>2026-04-04T15:15:28.723Z</time></trkpt><trkpt lat="42.7538914" lon="10.2764879"><ele>325.3333333333333</ele><time>2026-04-04T15:15:29.723Z</time></trkpt><trkpt lat="42.7539728" lon="10.2764804"><ele>327.0</ele><time>2026-04-04T15:15:30.723Z</time></trkpt><trkpt lat="42.754062" lon="10.2764753"><ele>328.6666666666667</ele><time>2026-04-04T15:15:31.723Z</time></trkpt><trkpt lat="42.7541405" lon="10.2764697"><ele>330.33333333333337</ele><time>2026-04-04T15:15:32.723Z</time></trkpt><trkpt lat="42.7542105" lon="10.2764521"><ele>332.0</ele><time>2026-04-04T15:15:33.723Z</time></trkpt><trkpt lat="42.7542938" lon="10.2764218"><ele>332.0</ele><time>2026-04-04T15:15:34.723Z</time></trkpt><trkpt lat="42.7543583" lon="10.2763996"><ele>332.0</ele><time>2026-04-04T15:15:35.723Z</time></trkpt><trkpt lat="42.7544189" lon="10.2763587"><ele>332.0</ele><time>2026-04-04T15:15:36.723Z</time></trkpt><trkpt lat="42.7544767" lon="10.2763176"><ele>332.0</ele><time>2026-04-04T15:15:37.722Z</time></trkpt><trkpt lat="42.7545372" lon="10.2762719"><ele>332.0</ele><time>2026-04-04T15:15:38.723Z</time></trkpt><trkpt lat="42.7545963" lon="10.2762388"><ele>332.0</ele><time>2026-04-04T15:15:39.723Z</time></trkpt><trkpt lat="42.7546587" lon="10.2761973"><ele>332.0</ele><time>2026-04-04T15:15:40.722Z</time></trkpt><trkpt lat="42.754769" lon="10.2761111"><ele>334.20000000000005</ele><time>2026-04-04T15:15:42.723Z</time></trkpt><trkpt lat="42.7548184" lon="10.2760474"><ele>336.4</ele><time>2026-04-04T15:15:43.723Z</time></trkpt><trkpt lat="42.7549006" lon="10.2759368"><ele>338.6</ele><time>2026-04-04T15:15:45.723Z</time></trkpt><trkpt lat="42.7549486" lon="10.2758762"><ele>340.79999999999995</ele><time>2026-04-04T15:15:46.722Z</time></trkpt><trkpt lat="42.7550475" lon="10.2757769"><ele>343.0</ele><time>2026-04-04T15:15:48.723Z</time></trkpt><trkpt lat="42.7551314" lon="10.275741"><ele>343.59999999999997</ele><time>2026-04-04T15:15:50.723Z</time></trkpt><trkpt lat="42.7552251" lon="10.2756964"><ele>344.2</ele><time>2026-04-04T15:15:52.723Z</time></trkpt><trkpt lat="42.755324" lon="10.2756512"><ele>344.8</ele><time>2026-04-04T15:15:54.723Z</time></trkpt><trkpt lat="42.7554143" lon="10.2755648"><ele>345.4</ele><time>2026-04-04T15:15:56.723Z</time></trkpt><trkpt lat="42.7554711" lon="10.2754314"><ele>346.0</ele><time>2026-04-04T15:15:58.723Z</time></trkpt><trkpt lat="42.7554937" lon="10.2752876"><ele>346.0</ele><time>2026-04-04T15:16:00.723Z</time></trkpt><trkpt lat="42.7555229" lon="10.2751202"><ele>346.0</ele><time>2026-04-04T15:16:02.723Z</time></trkpt><trkpt lat="42.7555395" lon="10.2750195"><ele>346.0</ele><time>2026-04-04T15:16:03.722Z</time></trkpt><trkpt lat="42.7555613" lon="10.2749094"><ele>346.0</ele><time>2026-04-04T15:16:04.722Z</time></trkpt><trkpt lat="42.7555727" lon="10.2748061"><ele>346.0</ele><time>2026-04-04T15:16:05.723Z</time></trkpt><trkpt lat="42.7555919" lon="10.2747027"><ele>346.0</ele><time>2026-04-04T15:16:06.722Z</time></trkpt><trkpt lat="42.7556048" lon="10.2745753"><ele>347.5</ele><time>2026-04-04T15:16:07.723Z</time></trkpt><trkpt lat="42.755615" lon="10.274455"><ele>349.0</ele><time>2026-04-04T15:16:08.722Z</time></trkpt><trkpt lat="42.7556262" lon="10.2743392"><ele>350.5</ele><time>2026-04-04T15:16:09.723Z</time></trkpt><trkpt lat="42.7556445" lon="10.2742359"><ele>352.0</ele><time>2026-04-04T15:16:10.723Z</time></trkpt><trkpt lat="42.7556619" lon="10.2741427"><ele>353.5</ele><time>2026-04-04T15:16:11.723Z</time></trkpt><trkpt lat="42.7556723" lon="10.2740544"><ele>355.0</ele><time>2026-04-04T15:16:12.723Z</time></trkpt><trkpt lat="42.7556817" lon="10.2738804"><ele>356.5</ele><time>2026-04-04T15:16:14.723Z</time></trkpt><trkpt lat="42.7556899" lon="10.2737858"><ele>358.0</ele><time>2026-04-04T15:16:15.723Z</time></trkpt><trkpt lat="42.755692" lon="10.2736988"><ele>359.5</ele><time>2026-04-04T15:16:16.723Z</time></trkpt><trkpt lat="42.7556904" lon="10.2735947"><ele>361.0</ele><time>2026-04-04T15:16:17.722Z</time></trkpt><trkpt lat="42.7557002" lon="10.2735018"><ele>362.5</ele><time>2026-04-04T15:16:18.723Z</time></trkpt><trkpt lat="42.7557429" lon="10.2733603"><ele>364.0</ele><time>2026-04-04T15:16:20.723Z</time></trkpt><trkpt lat="42.7557701" lon="10.2732479"><ele>364.0</ele><time>2026-04-04T15:16:22.723Z</time></trkpt><trkpt lat="42.7557188" lon="10.2731908"><ele>364.0</ele><time>2026-04-04T15:16:28.723Z</time></trkpt><trkpt lat="42.7557181" lon="10.273092"><ele>364.0</ele><time>2026-04-04T15:29:10.723Z</time></trkpt><trkpt lat="42.7557619" lon="10.2731762"><ele>364.0</ele><time>2026-04-04T15:29:20.723Z</time></trkpt><trkpt lat="42.7557654" lon="10.2732723"><ele>364.0</ele><time>2026-04-04T15:29:22.723Z</time></trkpt><trkpt lat="42.7557407" lon="10.2733545"><ele>364.0</ele><time>2026-04-04T15:29:24.723Z</time></trkpt><trkpt lat="42.75571" lon="10.2734483"><ele>364.0</ele><time>2026-04-04T15:29:26.722Z</time></trkpt><trkpt lat="42.7556956" lon="10.2736017"><ele>364.0</ele><time>2026-04-04T15:29:28.723Z</time></trkpt><trkpt lat="42.7556922" lon="10.2736881"><ele>364.0</ele><time>2026-04-04T15:29:29.723Z</time></trkpt><trkpt lat="42.7556884" lon="10.2738273"><ele>364.0</ele><time>2026-04-04T15:29:31.723Z</time></trkpt><trkpt lat="42.7556805" lon="10.2739472"><ele>364.0</ele><time>2026-04-04T15:29:33.723Z</time></trkpt><trkpt lat="42.7556733" lon="10.2740552"><ele>364.0</ele><time>2026-04-04T15:29:35.723Z</time></trkpt><trkpt lat="42.7556555" lon="10.2741917"><ele>364.0</ele><time>2026-04-04T15:29:37.723Z</time></trkpt><trkpt lat="42.7556356" lon="10.2743049"><ele>361.75</ele><time>2026-04-04T15:29:39.723Z</time></trkpt><trkpt lat="42.7556224" lon="10.2744278"><ele>359.5</ele><time>2026-04-04T15:29:41.723Z</time></trkpt><trkpt lat="42.7556111" lon="10.2745705"><ele>357.25</ele><time>2026-04-04T15:29:43.723Z</time></trkpt><trkpt lat="42.7555924" lon="10.2747418"><ele>355.0</ele><time>2026-04-04T15:29:45.723Z</time></trkpt><trkpt lat="42.7555635" lon="10.2749152"><ele>353.2</ele><time>2026-04-04T15:29:47.723Z</time></trkpt><trkpt lat="42.7555363" lon="10.2750783"><ele>351.4</ele><time>2026-04-04T15:29:49.723Z</time></trkpt><trkpt lat="42.7555123" lon="10.2752084"><ele>349.6</ele><time>2026-04-04T15:29:51.723Z</time></trkpt><trkpt lat="42.7554905" lon="10.2753453"><ele>347.8</ele><time>2026-04-04T15:29:53.723Z</time></trkpt><trkpt lat="42.7554605" lon="10.2754708"><ele>346.0</ele><time>2026-04-04T15:29:55.723Z</time></trkpt><trkpt lat="42.7554217" lon="10.2755649"><ele>345.5</ele><time>2026-04-04T15:29:57.723Z</time></trkpt><trkpt lat="42.755373" lon="10.275625"><ele>345.0</ele><time>2026-04-04T15:29:59.723Z</time></trkpt><trkpt lat="42.7552907" lon="10.275668"><ele>344.5</ele><time>2026-04-04T15:30:03.723Z</time></trkpt><trkpt lat="42.7552106" lon="10.2756903"><ele>344.0</ele><time>2026-04-04T15:30:05.723Z</time></trkpt><trkpt lat="42.7551369" lon="10.275731"><ele>343.5</ele><time>2026-04-04T15:30:07.723Z</time></trkpt><trkpt lat="42.7550473" lon="10.2757833"><ele>343.0</ele><time>2026-04-04T15:30:09.723Z</time></trkpt><trkpt lat="42.7549488" lon="10.2758769"><ele>343.0</ele><time>2026-04-04T15:30:11.723Z</time></trkpt><trkpt lat="42.7548732" lon="10.2759639"><ele>343.0</ele><time>2026-04-04T15:30:13.723Z</time></trkpt><trkpt lat="42.754819" lon="10.2760387"><ele>343.0</ele><time>2026-04-04T15:30:14.723Z</time></trkpt><trkpt lat="42.7547338" lon="10.2761436"><ele>343.0</ele><time>2026-04-04T15:30:16.723Z</time></trkpt><trkpt lat="42.7546435" lon="10.2762313"><ele>343.0</ele><time>2026-04-04T15:30:18.723Z</time></trkpt><trkpt lat="42.7545737" lon="10.2762548"><ele>343.0</ele><time>2026-04-04T15:30:19.723Z</time></trkpt><trkpt lat="42.7544835" lon="10.276307"><ele>343.0</ele><time>2026-04-04T15:30:21.723Z</time></trkpt><trkpt lat="42.7544074" lon="10.276354"><ele>343.0</ele><time>2026-04-04T15:30:23.722Z</time></trkpt><trkpt lat="42.7543304" lon="10.2764073"><ele>343.0</ele><time>2026-04-04T15:30:25.723Z</time></trkpt><trkpt lat="42.754246" lon="10.2764375"><ele>343.0</ele><time>2026-04-04T15:30:27.723Z</time></trkpt><trkpt lat="42.7541526" lon="10.276467"><ele>341.2</ele><time>2026-04-04T15:30:29.723Z</time></trkpt><trkpt lat="42.7540455" lon="10.2764846"><ele>339.4</ele><time>2026-04-04T15:30:31.723Z</time></trkpt><trkpt lat="42.7539439" lon="10.27648"><ele>337.59999999999997</ele><time>2026-04-04T15:30:33.723Z</time></trkpt><trkpt lat="42.7538519" lon="10.2764865"><ele>335.79999999999995</ele><time>2026-04-04T15:30:35.722Z</time></trkpt><trkpt lat="42.7537729" lon="10.2765028"><ele>334.0</ele><time>2026-04-04T15:30:37.723Z</time></trkpt><trkpt lat="42.7536958" lon="10.2765177"><ele>334.0</ele><time>2026-04-04T15:30:39.723Z</time></trkpt><trkpt lat="42.7536289" lon="10.2765437"><ele>334.0</ele><time>2026-04-04T15:30:41.723Z</time></trkpt><trkpt lat="42.7535603" lon="10.2765547"><ele>334.0</ele><time>2026-04-04T15:30:43.723Z</time></trkpt><trkpt lat="42.7534586" lon="10.2765836"><ele>334.0</ele><time>2026-04-04T15:30:45.723Z</time></trkpt><trkpt lat="42.7533714" lon="10.2766083"><ele>334.0</ele><time>2026-04-04T15:30:47.722Z</time></trkpt><trkpt lat="42.7532931" lon="10.2766202"><ele>334.0</ele><time>2026-04-04T15:30:49.723Z</time></trkpt><trkpt lat="42.7532295" lon="10.2766357"><ele>331.6</ele><time>2026-04-04T15:30:51.723Z</time></trkpt><trkpt lat="42.7531499" lon="10.2766688"><ele>329.2</ele><time>2026-04-04T15:30:53.723Z</time></trkpt><trkpt lat="42.7530564" lon="10.2766974"><ele>326.8</ele><time>2026-04-04T15:30:55.723Z</time></trkpt><trkpt lat="42.7529529" lon="10.2767003"><ele>324.40000000000003</ele><time>2026-04-04T15:30:57.723Z</time></trkpt><trkpt lat="42.7528325" lon="10.2766964"><ele>322.0</ele><time>2026-04-04T15:30:59.723Z</time></trkpt><trkpt lat="42.7527046" lon="10.2767068"><ele>319.5</ele><time>2026-04-04T15:31:01.723Z</time></trkpt><trkpt lat="42.7526438" lon="10.2767316"><ele>317.0</ele><time>2026-04-04T15:31:02.723Z</time></trkpt><trkpt lat="42.7525397" lon="10.276783"><ele>314.5</ele><time>2026-04-04T15:31:04.723Z</time></trkpt><trkpt lat="42.7524546" lon="10.2768068"><ele>312.0</ele><time>2026-04-04T15:31:06.722Z</time></trkpt><trkpt lat="42.7523779" lon="10.2768014"><ele>309.5</ele><time>2026-04-04T15:31:08.722Z</time></trkpt><trkpt lat="42.7523024" lon="10.276786"><ele>307.0</ele><time>2026-04-04T15:31:10.723Z</time></trkpt><trkpt lat="42.7522181" lon="10.2767469"><ele>307.0</ele><time>2026-04-04T15:31:12.723Z</time></trkpt><trkpt lat="42.752146" lon="10.2767123"><ele>307.0</ele><time>2026-04-04T15:31:14.723Z</time></trkpt><trkpt lat="42.7520796" lon="10.2767307"><ele>307.0</ele><time>2026-04-04T15:31:16.723Z</time></trkpt><trkpt lat="42.752007" lon="10.2768505"><ele>307.0</ele><time>2026-04-04T15:31:18.723Z</time></trkpt><trkpt lat="42.7519544" lon="10.2769395"><ele>307.0</ele><time>2026-04-04T15:31:19.723Z</time></trkpt><trkpt lat="42.7519011" lon="10.2770027"><ele>307.0</ele><time>2026-04-04T15:31:20.723Z</time></trkpt><trkpt lat="42.7518523" lon="10.2770638"><ele>305.3333333333333</ele><time>2026-04-04T15:31:21.723Z</time></trkpt><trkpt lat="42.7517776" lon="10.2772117"><ele>303.66666666666663</ele><time>2026-04-04T15:31:23.723Z</time></trkpt><trkpt lat="42.7517412" lon="10.2772902"><ele>302.0</ele><time>2026-04-04T15:31:24.723Z</time></trkpt><trkpt lat="42.7517047" lon="10.2773662"><ele>300.3333333333333</ele><time>2026-04-04T15:31:25.722Z</time></trkpt><trkpt lat="42.7516668" lon="10.2774564"><ele>298.6666666666667</ele><time>2026-04-04T15:31:26.723Z</time></trkpt><trkpt lat="42.7515938" lon="10.2775456"><ele>297.0</ele><time>2026-04-04T15:31:27.723Z</time></trkpt><trkpt lat="42.751506" lon="10.2776234"><ele>297.0</ele><time>2026-04-04T15:31:28.723Z</time></trkpt><trkpt lat="42.751437" lon="10.2776779"><ele>297.0</ele><time>2026-04-04T15:31:29.723Z</time></trkpt><trkpt lat="42.7513749" lon="10.2777336"><ele>297.0</ele><time>2026-04-04T15:31:30.723Z</time></trkpt><trkpt lat="42.75131" lon="10.27781"><ele>297.0</ele><time>2026-04-04T15:31:31.723Z</time></trkpt><trkpt lat="42.7512482" lon="10.2778954"><ele>297.0</ele><time>2026-04-04T15:31:32.723Z</time></trkpt><trkpt lat="42.751195" lon="10.2779811"><ele>297.0</ele><time>2026-04-04T15:31:33.723Z</time></trkpt><trkpt lat="42.751152" lon="10.2780577"><ele>297.3333333333333</ele><time>2026-04-04T15:31:34.722Z</time></trkpt><trkpt lat="42.7510696" lon="10.2781802"><ele>297.6666666666667</ele><time>2026-04-04T15:31:36.723Z</time></trkpt><trkpt lat="42.7510169" lon="10.2782894"><ele>298.0</ele><time>2026-04-04T15:31:38.723Z</time></trkpt><trkpt lat="42.7510239" lon="10.2783933"><ele>298.33333333333337</ele><time>2026-04-04T15:31:40.723Z</time></trkpt><trkpt lat="42.7510422" lon="10.2784806"><ele>298.6666666666667</ele><time>2026-04-04T15:31:41.723Z</time></trkpt><trkpt lat="42.7510546" lon="10.2785808"><ele>299.0</ele><time>2026-04-04T15:31:42.723Z</time></trkpt><trkpt lat="42.7510654" lon="10.2786747"><ele>298.1666666666667</ele><time>2026-04-04T15:31:43.723Z</time></trkpt><trkpt lat="42.7510544" lon="10.2787659"><ele>297.33333333333337</ele><time>2026-04-04T15:31:44.723Z</time></trkpt><trkpt lat="42.751047" lon="10.2788649"><ele>296.5</ele><time>2026-04-04T15:31:45.723Z</time></trkpt><trkpt lat="42.7510413" lon="10.2789596"><ele>295.6666666666667</ele><time>2026-04-04T15:31:46.723Z</time></trkpt><trkpt lat="42.7510246" lon="10.279064"><ele>294.8333333333333</ele><time>2026-04-04T15:31:47.723Z</time></trkpt><trkpt lat="42.7509992" lon="10.2791679"><ele>294.0</ele><time>2026-04-04T15:31:48.723Z</time></trkpt><trkpt lat="42.750959" lon="10.2792705"><ele>294.0</ele><time>2026-04-04T15:31:49.723Z</time></trkpt><trkpt lat="42.7509281" lon="10.2793761"><ele>294.0</ele><time>2026-04-04T15:31:50.722Z</time></trkpt><trkpt lat="42.7509099" lon="10.2794757"><ele>294.0</ele><time>2026-04-04T15:31:51.723Z</time></trkpt><trkpt lat="42.7508888" lon="10.2795762"><ele>294.0</ele><time>2026-04-04T15:31:52.723Z</time></trkpt><trkpt lat="42.7508515" lon="10.2796685"><ele>294.0</ele><time>2026-04-04T15:31:53.723Z</time></trkpt><trkpt lat="42.7508079" lon="10.2797412"><ele>294.0</ele><time>2026-04-04T15:31:54.723Z</time></trkpt><trkpt lat="42.7507475" lon="10.279796"><ele>290.8333333333333</ele><time>2026-04-04T15:31:55.723Z</time></trkpt><trkpt lat="42.7506638" lon="10.2798317"><ele>287.6666666666667</ele><time>2026-04-04T15:31:56.723Z</time></trkpt><trkpt lat="42.7505637" lon="10.2798373"><ele>284.5</ele><time>2026-04-04T15:31:57.723Z</time></trkpt><trkpt lat="42.7504683" lon="10.2798344"><ele>281.33333333333337</ele><time>2026-04-04T15:31:58.723Z</time></trkpt><trkpt lat="42.7503918" lon="10.2798308"><ele>278.1666666666667</ele><time>2026-04-04T15:31:59.723Z</time></trkpt><trkpt lat="42.7503234" lon="10.2798576"><ele>275.0</ele><time>2026-04-04T15:32:00.722Z</time></trkpt><trkpt lat="42.7502387" lon="10.2799231"><ele>277.4</ele><time>2026-04-04T15:32:01.723Z</time></trkpt><trkpt lat="42.7501621" lon="10.279979"><ele>279.8</ele><time>2026-04-04T15:32:02.723Z</time></trkpt><trkpt lat="42.7500705" lon="10.2800287"><ele>282.2</ele><time>2026-04-04T15:32:03.723Z</time></trkpt><trkpt lat="42.7499881" lon="10.2800649"><ele>284.6</ele><time>2026-04-04T15:32:04.723Z</time></trkpt><trkpt lat="42.7498866" lon="10.2800808"><ele>287.0</ele><time>2026-04-04T15:32:05.723Z</time></trkpt><trkpt lat="42.7497988" lon="10.2800902"><ele>287.0</ele><time>2026-04-04T15:32:06.722Z</time></trkpt><trkpt lat="42.7497025" lon="10.2801038"><ele>287.0</ele><time>2026-04-04T15:32:07.723Z</time></trkpt><trkpt lat="42.7495976" lon="10.2801137"><ele>287.0</ele><time>2026-04-04T15:32:08.723Z</time></trkpt><trkpt lat="42.7494904" lon="10.2801327"><ele>287.0</ele><time>2026-04-04T15:32:09.723Z</time></trkpt><trkpt lat="42.7493816" lon="10.2801614"><ele>287.0</ele><time>2026-04-04T15:32:10.723Z</time></trkpt><trkpt lat="42.7492903" lon="10.2802036"><ele>288.5</ele><time>2026-04-04T15:32:11.722Z</time></trkpt><trkpt lat="42.7492199" lon="10.2802537"><ele>290.0</ele><time>2026-04-04T15:32:12.723Z</time></trkpt><trkpt lat="42.7491678" lon="10.2803123"><ele>291.5</ele><time>2026-04-04T15:32:13.723Z</time></trkpt><trkpt lat="42.7491165" lon="10.2803979"><ele>293.0</ele><time>2026-04-04T15:32:14.723Z</time></trkpt><trkpt lat="42.7490709" lon="10.2805079"><ele>294.5</ele><time>2026-04-04T15:32:15.723Z</time></trkpt><trkpt lat="42.7490269" lon="10.2806234"><ele>296.0</ele><time>2026-04-04T15:32:16.723Z</time></trkpt><trkpt lat="42.748992" lon="10.2807427"><ele>292.83333333333337</ele><time>2026-04-04T15:32:17.723Z</time></trkpt><trkpt lat="42.7489651" lon="10.2808396"><ele>289.6666666666667</ele><time>2026-04-04T15:32:18.723Z</time></trkpt><trkpt lat="42.7489345" lon="10.2809324"><ele>286.5</ele><time>2026-04-04T15:32:19.723Z</time></trkpt><trkpt lat="42.7488898" lon="10.2810175"><ele>283.3333333333333</ele><time>2026-04-04T15:32:20.723Z</time></trkpt><trkpt lat="42.748839" lon="10.2810785"><ele>280.16666666666663</ele><time>2026-04-04T15:32:21.722Z</time></trkpt><trkpt lat="42.7487707" lon="10.2811239"><ele>277.0</ele><time>2026-04-04T15:32:22.723Z</time></trkpt><trkpt lat="42.7486967" lon="10.2811635"><ele>277.0</ele><time>2026-04-04T15:32:23.723Z</time></trkpt><trkpt lat="42.7486216" lon="10.2811914"><ele>277.0</ele><time>2026-04-04T15:32:24.723Z</time></trkpt><trkpt lat="42.7485446" lon="10.2812243"><ele>277.0</ele><time>2026-04-04T15:32:25.723Z</time></trkpt><trkpt lat="42.7484699" lon="10.2812539"><ele>277.0</ele><time>2026-04-04T15:32:26.723Z</time></trkpt><trkpt lat="42.748401" lon="10.2812835"><ele>277.0</ele><time>2026-04-04T15:32:27.723Z</time></trkpt><trkpt lat="42.7483373" lon="10.2813123"><ele>277.0</ele><time>2026-04-04T15:32:28.723Z</time></trkpt><trkpt lat="42.7482318" lon="10.2813322"><ele>275.2</ele><time>2026-04-04T15:32:30.723Z</time></trkpt><trkpt lat="42.7481335" lon="10.2813372"><ele>273.4</ele><time>2026-04-04T15:32:32.723Z</time></trkpt><trkpt lat="42.7481044" lon="10.2814463"><ele>271.6</ele><time>2026-04-04T15:32:35.722Z</time></trkpt><trkpt lat="42.7481833" lon="10.2814719"><ele>269.8</ele><time>2026-04-04T15:32:38.723Z</time></trkpt><trkpt lat="42.7483066" lon="10.2814844"><ele>268.0</ele><time>2026-04-04T15:32:40.723Z</time></trkpt><trkpt lat="42.7483719" lon="10.281488"><ele>268.0</ele><time>2026-04-04T15:32:41.723Z</time></trkpt><trkpt lat="42.7484537" lon="10.2814974"><ele>268.0</ele><time>2026-04-04T15:32:42.723Z</time></trkpt><trkpt lat="42.7485387" lon="10.2815198"><ele>268.0</ele><time>2026-04-04T15:32:43.722Z</time></trkpt><trkpt lat="42.7486126" lon="10.281544"><ele>268.0</ele><time>2026-04-04T15:32:44.723Z</time></trkpt><trkpt lat="42.7486991" lon="10.2815644"><ele>268.0</ele><time>2026-04-04T15:32:45.723Z</time></trkpt><trkpt lat="42.7487789" lon="10.281578"><ele>268.0</ele><time>2026-04-04T15:32:46.722Z</time></trkpt><trkpt lat="42.748854" lon="10.2815926"><ele>266.3333333333333</ele><time>2026-04-04T15:32:47.723Z</time></trkpt><trkpt lat="42.7489329" lon="10.2816037"><ele>264.66666666666663</ele><time>2026-04-04T15:32:48.723Z</time></trkpt><trkpt lat="42.7490131" lon="10.2816189"><ele>263.0</ele><time>2026-04-04T15:32:49.723Z</time></trkpt><trkpt lat="42.7490943" lon="10.2816325"><ele>261.3333333333333</ele><time>2026-04-04T15:32:50.723Z</time></trkpt><trkpt lat="42.7491806" lon="10.2816418"><ele>259.6666666666667</ele><time>2026-04-04T15:32:51.723Z</time></trkpt><trkpt lat="42.749253" lon="10.2816358"><ele>258.0</ele><time>2026-04-04T15:32:52.723Z</time></trkpt><trkpt lat="42.7493198" lon="10.2816112"><ele>259.0</ele><time>2026-04-04T15:32:53.723Z</time></trkpt><trkpt lat="42.7493874" lon="10.2815735"><ele>260.0</ele><time>2026-04-04T15:32:54.723Z</time></trkpt><trkpt lat="42.7494395" lon="10.2814984"><ele>261.0</ele><time>2026-04-04T15:32:55.723Z</time></trkpt><trkpt lat="42.7494782" lon="10.2814051"><ele>262.0</ele><time>2026-04-04T15:32:56.722Z</time></trkpt><trkpt lat="42.7495172" lon="10.2812979"><ele>263.0</ele><time>2026-04-04T15:32:57.723Z</time></trkpt><trkpt lat="42.7495127" lon="10.2811906"><ele>264.0</ele><time>2026-04-04T15:32:58.723Z</time></trkpt><trkpt lat="42.7495189" lon="10.281105"><ele>264.0</ele><time>2026-04-04T15:32:59.722Z</time></trkpt><trkpt lat="42.7495369" lon="10.2809525"><ele>264.0</ele><time>2026-04-04T15:33:01.723Z</time></trkpt><trkpt lat="42.7496161" lon="10.2809106"><ele>264.0</ele><time>2026-04-04T15:33:03.723Z</time></trkpt><trkpt lat="42.7496905" lon="10.2809302"><ele>264.0</ele><time>2026-04-04T15:33:04.723Z</time></trkpt><trkpt lat="42.7497562" lon="10.2809626"><ele>264.0</ele><time>2026-04-04T15:33:05.723Z</time></trkpt><trkpt lat="42.7498644" lon="10.2810156"><ele>264.0</ele><time>2026-04-04T15:33:07.723Z</time></trkpt><trkpt lat="42.7499327" lon="10.2810392"><ele>264.0</ele><time>2026-04-04T15:33:30.723Z</time></trkpt><trkpt lat="42.7500142" lon="10.2810571"><ele>264.0</ele><time>2026-04-04T15:33:32.723Z</time></trkpt><trkpt lat="42.7501009" lon="10.2810502"><ele>264.0</ele><time>2026-04-04T15:33:34.722Z</time></trkpt><trkpt lat="42.7502241" lon="10.2810345"><ele>264.0</ele><time>2026-04-04T15:33:36.722Z</time></trkpt><trkpt lat="42.7503185" lon="10.2810036"><ele>262.0</ele><time>2026-04-04T15:33:37.723Z</time></trkpt><trkpt lat="42.75043" lon="10.2809698"><ele>260.0</ele><time>2026-04-04T15:33:38.723Z</time></trkpt><trkpt lat="42.7505368" lon="10.2809357"><ele>258.0</ele><time>2026-04-04T15:33:39.723Z</time></trkpt><trkpt lat="42.7506429" lon="10.2809078"><ele>256.0</ele><time>2026-04-04T15:33:40.723Z</time></trkpt><trkpt lat="42.7507473" lon="10.2808803"><ele>254.0</ele><time>2026-04-04T15:33:41.723Z</time></trkpt><trkpt lat="42.7508584" lon="10.2808235"><ele>254.0</ele><time>2026-04-04T15:33:42.723Z</time></trkpt><trkpt lat="42.7509728" lon="10.2807618"><ele>254.0</ele><time>2026-04-04T15:33:43.723Z</time></trkpt><trkpt lat="42.7510816" lon="10.280687"><ele>254.0</ele><time>2026-04-04T15:33:44.722Z</time></trkpt><trkpt lat="42.7511808" lon="10.2806076"><ele>254.0</ele><time>2026-04-04T15:33:45.723Z</time></trkpt><trkpt lat="42.7512738" lon="10.2805231"><ele>256.0</ele><time>2026-04-04T15:33:46.723Z</time></trkpt><trkpt lat="42.7513674" lon="10.2804464"><ele>258.0</ele><time>2026-04-04T15:33:47.723Z</time></trkpt><trkpt lat="42.7514619" lon="10.2803906"><ele>260.0</ele><time>2026-04-04T15:33:48.722Z</time></trkpt><trkpt lat="42.7515391" lon="10.2803528"><ele>262.0</ele><time>2026-04-04T15:33:49.723Z</time></trkpt><trkpt lat="42.7516014" lon="10.2802946"><ele>264.0</ele><time>2026-04-04T15:33:50.723Z</time></trkpt><trkpt lat="42.751657" lon="10.2802043"><ele>264.0</ele><time>2026-04-04T15:33:51.723Z</time></trkpt><trkpt lat="42.7517029" lon="10.2801041"><ele>264.0</ele><time>2026-04-04T15:33:52.723Z</time></trkpt><trkpt lat="42.7517959" lon="10.2799883"><ele>264.0</ele><time>2026-04-04T15:33:54.723Z</time></trkpt><trkpt lat="42.7518881" lon="10.2799706"><ele>264.0</ele><time>2026-04-04T15:33:55.722Z</time></trkpt><trkpt lat="42.7519607" lon="10.2798993"><ele>264.0</ele><time>2026-04-04T15:33:56.723Z</time></trkpt><trkpt lat="42.7520146" lon="10.2798241"><ele>263.59999999999997</ele><time>2026-04-04T15:33:57.723Z</time></trkpt><trkpt lat="42.7520872" lon="10.2797237"><ele>263.2</ele><time>2026-04-04T15:33:58.723Z</time></trkpt><trkpt lat="42.7521486" lon="10.2796055"><ele>262.79999999999995</ele><time>2026-04-04T15:33:59.723Z</time></trkpt><trkpt lat="42.7521904" lon="10.2794799"><ele>262.4</ele><time>2026-04-04T15:34:00.722Z</time></trkpt><trkpt lat="42.7522352" lon="10.2793385"><ele>262.0</ele><time>2026-04-04T15:34:01.723Z</time></trkpt><trkpt lat="42.7522777" lon="10.2791968"><ele>262.0</ele><time>2026-04-04T15:34:02.723Z</time></trkpt><trkpt lat="42.7523195" lon="10.2790401"><ele>262.0</ele><time>2026-04-04T15:34:03.722Z</time></trkpt><trkpt lat="42.7523487" lon="10.2788901"><ele>262.0</ele><time>2026-04-04T15:34:04.722Z</time></trkpt><trkpt lat="42.7523719" lon="10.278759"><ele>262.0</ele><time>2026-04-04T15:34:05.723Z</time></trkpt><trkpt lat="42.7523923" lon="10.2786558"><ele>262.0</ele><time>2026-04-04T15:34:06.723Z</time></trkpt><trkpt lat="42.7524633" lon="10.2785666"><ele>265.0</ele><time>2026-04-04T15:34:08.722Z</time></trkpt><trkpt lat="42.7525277" lon="10.2785609"><ele>268.0</ele><time>2026-04-04T15:34:09.723Z</time></trkpt><trkpt lat="42.7526068" lon="10.2785978"><ele>271.0</ele><time>2026-04-04T15:34:10.722Z</time></trkpt><trkpt lat="42.7526929" lon="10.27868"><ele>274.0</ele><time>2026-04-04T15:34:11.722Z</time></trkpt><trkpt lat="42.7527569" lon="10.2787534"><ele>277.0</ele><time>2026-04-04T15:34:12.723Z</time></trkpt><trkpt lat="42.7528078" lon="10.2788136"><ele>280.0</ele><time>2026-04-04T15:34:13.723Z</time></trkpt><trkpt lat="42.7528605" lon="10.278906"><ele>278.0</ele><time>2026-04-04T15:34:14.723Z</time></trkpt><trkpt lat="42.7529251" lon="10.2790157"><ele>276.0</ele><time>2026-04-04T15:34:15.723Z</time></trkpt><trkpt lat="42.7530121" lon="10.2791064"><ele>274.0</ele><time>2026-04-04T15:34:16.723Z</time></trkpt><trkpt lat="42.7530961" lon="10.2791728"><ele>272.0</ele><time>2026-04-04T15:34:17.723Z</time></trkpt><trkpt lat="42.7531662" lon="10.279232"><ele>270.0</ele><time>2026-04-04T15:34:18.722Z</time></trkpt><trkpt lat="42.7532444" lon="10.2792996"><ele>270.0</ele><time>2026-04-04T15:34:19.723Z</time></trkpt><trkpt lat="42.7533078" lon="10.2793451"><ele>270.0</ele><time>2026-04-04T15:34:20.723Z</time></trkpt><trkpt lat="42.753351" lon="10.2794709"><ele>270.0</ele><time>2026-04-04T15:34:22.723Z</time></trkpt><trkpt lat="42.7533392" lon="10.2795819"><ele>270.0</ele><time>2026-04-04T15:34:23.723Z</time></trkpt><trkpt lat="42.753329" lon="10.2797105"><ele>270.0</ele><time>2026-04-04T15:34:24.723Z</time></trkpt><trkpt lat="42.7533289" lon="10.2798513"><ele>268.8</ele><time>2026-04-04T15:34:25.723Z</time></trkpt><trkpt lat="42.7533221" lon="10.2799863"><ele>267.6</ele><time>2026-04-04T15:34:26.722Z</time></trkpt><trkpt lat="42.7533099" lon="10.280129"><ele>266.4</ele><time>2026-04-04T15:34:27.723Z</time></trkpt><trkpt lat="42.7533023" lon="10.2802643"><ele>265.2</ele><time>2026-04-04T15:34:28.722Z</time></trkpt><trkpt lat="42.7532973" lon="10.2803833"><ele>264.0</ele><time>2026-04-04T15:34:29.723Z</time></trkpt><trkpt lat="42.7532867" lon="10.2804996"><ele>263.1666666666667</ele><time>2026-04-04T15:34:30.723Z</time></trkpt><trkpt lat="42.7532762" lon="10.2806039"><ele>262.3333333333333</ele><time>2026-04-04T15:34:31.723Z</time></trkpt><trkpt lat="42.7532681" lon="10.2807374"><ele>261.5</ele><time>2026-04-04T15:34:32.723Z</time></trkpt><trkpt lat="42.7532641" lon="10.2808553"><ele>260.66666666666663</ele><time>2026-04-04T15:34:33.723Z</time></trkpt><trkpt lat="42.7532726" lon="10.2809608"><ele>259.8333333333333</ele><time>2026-04-04T15:34:34.723Z</time></trkpt><trkpt lat="42.7532906" lon="10.2810701"><ele>259.0</ele><time>2026-04-04T15:34:35.722Z</time></trkpt><trkpt lat="42.7533146" lon="10.2811863"><ele>259.0</ele><time>2026-04-04T15:34:36.723Z</time></trkpt><trkpt lat="42.7533433" lon="10.2812933"><ele>259.0</ele><time>2026-04-04T15:34:37.722Z</time></trkpt><trkpt lat="42.7533859" lon="10.2813944"><ele>259.0</ele><time>2026-04-04T15:34:38.723Z</time></trkpt><trkpt lat="42.7534338" lon="10.2814876"><ele>259.0</ele><time>2026-04-04T15:34:39.723Z</time></trkpt><trkpt lat="42.7534816" lon="10.2815651"><ele>259.0</ele><time>2026-04-04T15:34:40.723Z</time></trkpt><trkpt lat="42.7535467" lon="10.2816565"><ele>259.0</ele><time>2026-04-04T15:34:41.722Z</time></trkpt><trkpt lat="42.7536247" lon="10.2817289"><ele>259.2</ele><time>2026-04-04T15:34:42.723Z</time></trkpt><trkpt lat="42.7537146" lon="10.281788"><ele>259.4</ele><time>2026-04-04T15:34:43.723Z</time></trkpt><trkpt lat="42.7537973" lon="10.281836"><ele>259.6</ele><time>2026-04-04T15:34:44.723Z</time></trkpt><trkpt lat="42.7538824" lon="10.2818739"><ele>259.8</ele><time>2026-04-04T15:34:45.722Z</time></trkpt><trkpt lat="42.7539589" lon="10.2819186"><ele>260.0</ele><time>2026-04-04T15:34:46.723Z</time></trkpt><trkpt lat="42.7540371" lon="10.281972"><ele>260.0</ele><time>2026-04-04T15:34:47.723Z</time></trkpt><trkpt lat="42.7541049" lon="10.282064"><ele>260.0</ele><time>2026-04-04T15:34:48.723Z</time></trkpt><trkpt lat="42.7541506" lon="10.2821523"><ele>260.0</ele><time>2026-04-04T15:34:49.723Z</time></trkpt><trkpt lat="42.7542039" lon="10.2822485"><ele>260.0</ele><time>2026-04-04T15:34:50.723Z</time></trkpt><trkpt lat="42.7542572" lon="10.2823524"><ele>260.0</ele><time>2026-04-04T15:34:51.723Z</time></trkpt><trkpt lat="42.7543125" lon="10.2824556"><ele>257.33333333333337</ele><time>2026-04-04T15:34:52.723Z</time></trkpt><trkpt lat="42.7543677" lon="10.2825575"><ele>254.66666666666669</ele><time>2026-04-04T15:34:53.723Z</time></trkpt><trkpt lat="42.7544181" lon="10.2826354"><ele>252.0</ele><time>2026-04-04T15:34:54.723Z</time></trkpt><trkpt lat="42.754472" lon="10.2826893"><ele>249.33333333333331</ele><time>2026-04-04T15:34:55.723Z</time></trkpt><trkpt lat="42.7545388" lon="10.2827136"><ele>246.66666666666666</ele><time>2026-04-04T15:34:56.723Z</time></trkpt><trkpt lat="42.7546211" lon="10.2827072"><ele>244.0</ele><time>2026-04-04T15:34:57.723Z</time></trkpt><trkpt lat="42.7546982" lon="10.2826672"><ele>242.79999999999998</ele><time>2026-04-04T15:34:58.722Z</time></trkpt><trkpt lat="42.7547604" lon="10.2826092"><ele>241.59999999999997</ele><time>2026-04-04T15:34:59.723Z</time></trkpt><trkpt lat="42.7548172" lon="10.2825204"><ele>240.4</ele><time>2026-04-04T15:35:00.723Z</time></trkpt><trkpt lat="42.7548653" lon="10.2824015"><ele>239.2</ele><time>2026-04-04T15:35:01.723Z</time></trkpt><trkpt lat="42.7549181" lon="10.2822731"><ele>238.0</ele><time>2026-04-04T15:35:02.723Z</time></trkpt><trkpt lat="42.7549641" lon="10.2821448"><ele>240.83333333333331</ele><time>2026-04-04T15:35:03.723Z</time></trkpt><trkpt lat="42.7550006" lon="10.282005"><ele>243.66666666666666</ele><time>2026-04-04T15:35:04.723Z</time></trkpt><trkpt lat="42.7550339" lon="10.281879"><ele>246.5</ele><time>2026-04-04T15:35:05.723Z</time></trkpt><trkpt lat="42.7550638" lon="10.2817685"><ele>249.33333333333331</ele><time>2026-04-04T15:35:06.723Z</time></trkpt><trkpt lat="42.7550827" lon="10.2816697"><ele>252.16666666666666</ele><time>2026-04-04T15:35:07.723Z</time></trkpt><trkpt lat="42.7551121" lon="10.28159"><ele>255.0</ele><time>2026-04-04T15:35:08.723Z</time></trkpt><trkpt lat="42.7551904" lon="10.281521"><ele>255.2</ele><time>2026-04-04T15:35:10.722Z</time></trkpt><trkpt lat="42.7552712" lon="10.2815347"><ele>255.4</ele><time>2026-04-04T15:35:11.723Z</time></trkpt><trkpt lat="42.7553599" lon="10.2815644"><ele>255.60000000000002</ele><time>2026-04-04T15:35:12.723Z</time></trkpt><trkpt lat="42.7554403" lon="10.2816134"><ele>255.8</ele><time>2026-04-04T15:35:13.723Z</time></trkpt><trkpt lat="42.7555217" lon="10.2816735"><ele>256.0</ele><time>2026-04-04T15:35:14.723Z</time></trkpt><trkpt lat="42.7556064" lon="10.2817355"><ele>256.0</ele><time>2026-04-04T15:35:15.723Z</time></trkpt><trkpt lat="42.7556883" lon="10.2818116"><ele>256.0</ele><time>2026-04-04T15:35:16.723Z</time></trkpt><trkpt lat="42.7557754" lon="10.2818648"><ele>256.0</ele><time>2026-04-04T15:35:17.722Z</time></trkpt><trkpt lat="42.7558459" lon="10.2819154"><ele>256.0</ele><time>2026-04-04T15:35:18.723Z</time></trkpt><trkpt lat="42.7559296" lon="10.281975"><ele>256.0</ele><time>2026-04-04T15:35:19.722Z</time></trkpt><trkpt lat="42.7560135" lon="10.2820499"><ele>255.20000000000002</ele><time>2026-04-04T15:35:20.723Z</time></trkpt><trkpt lat="42.7560912" lon="10.2821275"><ele>254.40000000000003</ele><time>2026-04-04T15:35:21.723Z</time></trkpt><trkpt lat="42.7561649" lon="10.282199"><ele>253.6</ele><time>2026-04-04T15:35:22.723Z</time></trkpt><trkpt lat="42.7562395" lon="10.2823686"><ele>252.8</ele><time>2026-04-04T15:35:24.723Z</time></trkpt><trkpt lat="42.7562699" lon="10.2824868"><ele>252.0</ele><time>2026-04-04T15:35:25.723Z</time></trkpt><trkpt lat="42.7563071" lon="10.28267"><ele>252.0</ele><time>2026-04-04T15:35:27.723Z</time></trkpt><trkpt lat="42.7563344" lon="10.2827585"><ele>252.0</ele><time>2026-04-04T15:35:28.723Z</time></trkpt><trkpt lat="42.7563542" lon="10.2828588"><ele>252.0</ele><time>2026-04-04T15:35:29.723Z</time></trkpt><trkpt lat="42.7563574" lon="10.2829638"><ele>252.0</ele><time>2026-04-04T15:35:30.722Z</time></trkpt><trkpt lat="42.7563659" lon="10.283056"><ele>252.0</ele><time>2026-04-04T15:35:31.723Z</time></trkpt><trkpt lat="42.7563862" lon="10.2831486"><ele>252.0</ele><time>2026-04-04T15:35:32.723Z</time></trkpt><trkpt lat="42.7564307" lon="10.2832394"><ele>252.0</ele><time>2026-04-04T15:35:33.723Z</time></trkpt><trkpt lat="42.7565055" lon="10.2833432"><ele>249.39999999999998</ele><time>2026-04-04T15:35:34.723Z</time></trkpt><trkpt lat="42.7565756" lon="10.2834322"><ele>246.79999999999998</ele><time>2026-04-04T15:35:35.723Z</time></trkpt><trkpt lat="42.7566486" lon="10.2835189"><ele>244.2</ele><time>2026-04-04T15:35:36.723Z</time></trkpt><trkpt lat="42.756725" lon="10.2836061"><ele>241.6</ele><time>2026-04-04T15:35:37.723Z</time></trkpt><trkpt lat="42.7567815" lon="10.2837023"><ele>239.0</ele><time>2026-04-04T15:35:38.723Z</time></trkpt><trkpt lat="42.7568272" lon="10.2837938"><ele>238.66666666666669</ele><time>2026-04-04T15:35:39.723Z</time></trkpt><trkpt lat="42.7568714" lon="10.2838914"><ele>238.33333333333334</ele><time>2026-04-04T15:35:40.723Z</time></trkpt><trkpt lat="42.756927" lon="10.2839917"><ele>238.0</ele><time>2026-04-04T15:35:41.723Z</time></trkpt><trkpt lat="42.7569865" lon="10.2840914"><ele>237.66666666666669</ele><time>2026-04-04T15:35:42.723Z</time></trkpt><trkpt lat="42.7570478" lon="10.2841653"><ele>237.33333333333334</ele><time>2026-04-04T15:35:43.723Z</time></trkpt><trkpt lat="42.7571145" lon="10.2842406"><ele>237.0</ele><time>2026-04-04T15:35:44.723Z</time></trkpt><trkpt lat="42.7571905" lon="10.2843251"><ele>235.16666666666666</ele><time>2026-04-04T15:35:45.723Z</time></trkpt><trkpt lat="42.7572508" lon="10.2843881"><ele>233.33333333333331</ele><time>2026-04-04T15:35:46.723Z</time></trkpt><trkpt lat="42.7573058" lon="10.2844412"><ele>231.5</ele><time>2026-04-04T15:35:47.723Z</time></trkpt><trkpt lat="42.7573711" lon="10.2844752"><ele>229.66666666666666</ele><time>2026-04-04T15:35:48.723Z</time></trkpt><trkpt lat="42.7574373" lon="10.2844823"><ele>227.83333333333331</ele><time>2026-04-04T15:35:49.723Z</time></trkpt><trkpt lat="42.7575143" lon="10.2844713"><ele>226.0</ele><time>2026-04-04T15:35:50.722Z</time></trkpt><trkpt lat="42.7576337" lon="10.2844257"><ele>226.0</ele><time>2026-04-04T15:35:52.722Z</time></trkpt><trkpt lat="42.7576993" lon="10.2843759"><ele>226.0</ele><time>2026-04-04T15:35:53.723Z</time></trkpt><trkpt lat="42.7577592" lon="10.2843199"><ele>226.0</ele><time>2026-04-04T15:35:54.723Z</time></trkpt><trkpt lat="42.7578099" lon="10.2842576"><ele>226.0</ele><time>2026-04-04T15:35:55.723Z</time></trkpt><trkpt lat="42.7578559" lon="10.2841921"><ele>226.0</ele><time>2026-04-04T15:35:56.723Z</time></trkpt><trkpt lat="42.7579009" lon="10.2841197"><ele>226.0</ele><time>2026-04-04T15:35:57.723Z</time></trkpt><trkpt lat="42.7579461" lon="10.2840364"><ele>226.0</ele><time>2026-04-04T15:35:58.723Z</time></trkpt><trkpt lat="42.7579855" lon="10.2839668"><ele>226.16666666666666</ele><time>2026-04-04T15:35:59.723Z</time></trkpt><trkpt lat="42.7580534" lon="10.2838824"><ele>226.33333333333331</ele><time>2026-04-04T15:36:01.723Z</time></trkpt><trkpt lat="42.7581292" lon="10.2838744"><ele>226.5</ele><time>2026-04-04T15:36:03.722Z</time></trkpt><trkpt lat="42.7582063" lon="10.2839571"><ele>226.66666666666669</ele><time>2026-04-04T15:36:09.723Z</time></trkpt><trkpt lat="42.7582477" lon="10.2840364"><ele>226.83333333333334</ele><time>2026-04-04T15:36:10.723Z</time></trkpt><trkpt lat="42.7582921" lon="10.2841257"><ele>227.0</ele><time>2026-04-04T15:36:11.723Z</time></trkpt><trkpt lat="42.7583384" lon="10.284207"><ele>225.16666666666669</ele><time>2026-04-04T15:36:12.723Z</time></trkpt><trkpt lat="42.758391" lon="10.2842877"><ele>223.33333333333334</ele><time>2026-04-04T15:36:13.723Z</time></trkpt><trkpt lat="42.7584368" lon="10.2843632"><ele>221.5</ele><time>2026-04-04T15:36:14.723Z</time></trkpt><trkpt lat="42.758488" lon="10.2844356"><ele>219.66666666666669</ele><time>2026-04-04T15:36:15.723Z</time></trkpt><trkpt lat="42.7585466" lon="10.2845143"><ele>217.83333333333334</ele><time>2026-04-04T15:36:16.723Z</time></trkpt><trkpt lat="42.7586231" lon="10.2845719"><ele>216.0</ele><time>2026-04-04T15:36:17.722Z</time></trkpt><trkpt lat="42.7586927" lon="10.2846324"><ele>215.33333333333334</ele><time>2026-04-04T15:36:18.723Z</time></trkpt><trkpt lat="42.7587692" lon="10.2846982"><ele>214.66666666666669</ele><time>2026-04-04T15:36:19.723Z</time></trkpt><trkpt lat="42.7588415" lon="10.284781"><ele>214.0</ele><time>2026-04-04T15:36:20.723Z</time></trkpt><trkpt lat="42.7589107" lon="10.2848572"><ele>213.33333333333334</ele><time>2026-04-04T15:36:21.723Z</time></trkpt><trkpt lat="42.7589707" lon="10.2849332"><ele>212.66666666666669</ele><time>2026-04-04T15:36:22.723Z</time></trkpt><trkpt lat="42.7590181" lon="10.285014"><ele>212.0</ele><time>2026-04-04T15:36:23.723Z</time></trkpt><trkpt lat="42.7590667" lon="10.2850894"><ele>210.50000000000003</ele><time>2026-04-04T15:36:24.722Z</time></trkpt><trkpt lat="42.7591207" lon="10.2851459"><ele>209.0</ele><time>2026-04-04T15:36:25.722Z</time></trkpt><trkpt lat="42.7592033" lon="10.2852281"><ele>207.5</ele><time>2026-04-04T15:36:27.722Z</time></trkpt><trkpt lat="42.7592516" lon="10.2852837"><ele>206.0</ele><time>2026-04-04T15:37:57.723Z</time></trkpt><trkpt lat="42.7593313" lon="10.2853382"><ele>204.50000000000003</ele><time>2026-04-04T15:39:13.723Z</time></trkpt><trkpt lat="42.7594262" lon="10.2853625"><ele>203.0</ele><time>2026-04-04T15:39:15.722Z</time></trkpt><trkpt lat="42.7595481" lon="10.2853575"><ele>202.8</ele><time>2026-04-04T15:39:17.723Z</time></trkpt><trkpt lat="42.7596631" lon="10.285392"><ele>202.60000000000002</ele><time>2026-04-04T15:39:19.723Z</time></trkpt><trkpt lat="42.7597703" lon="10.285438"><ele>202.39999999999998</ele><time>2026-04-04T15:39:21.723Z</time></trkpt><trkpt lat="42.7598355" lon="10.2854478"><ele>202.2</ele><time>2026-04-04T15:39:22.723Z</time></trkpt><trkpt lat="42.7599106" lon="10.2854327"><ele>202.0</ele><time>2026-04-04T15:39:23.723Z</time></trkpt><trkpt lat="42.7600055" lon="10.2853921"><ele>201.99999999999997</ele><time>2026-04-04T15:39:24.723Z</time></trkpt><trkpt lat="42.7600794" lon="10.2853586"><ele>202.0</ele><time>2026-04-04T15:39:25.723Z</time></trkpt><trkpt lat="42.7601493" lon="10.2853213"><ele>202.0</ele><time>2026-04-04T15:39:26.723Z</time></trkpt><trkpt lat="42.7602052" lon="10.2852808"><ele>202.0</ele><time>2026-04-04T15:39:27.723Z</time></trkpt><trkpt lat="42.7603079" lon="10.2851937"><ele>201.99999999999997</ele><time>2026-04-04T15:39:29.723Z</time></trkpt><trkpt lat="42.7603761" lon="10.2851742"><ele>202.0</ele><time>2026-04-04T15:39:30.722Z</time></trkpt><trkpt lat="42.7604926" lon="10.2851173"><ele>199.2</ele><time>2026-04-04T15:39:32.723Z</time></trkpt><trkpt lat="42.7605788" lon="10.2850142"><ele>196.39999999999998</ele><time>2026-04-04T15:39:34.723Z</time></trkpt><trkpt lat="42.7605977" lon="10.2848643"><ele>193.60000000000002</ele><time>2026-04-04T15:39:36.723Z</time></trkpt><trkpt lat="42.7605738" lon="10.2847237"><ele>190.8</ele><time>2026-04-04T15:39:38.722Z</time></trkpt><trkpt lat="42.7605558" lon="10.2846404"><ele>188.0</ele><time>2026-04-04T15:39:39.723Z</time></trkpt><trkpt lat="42.7605355" lon="10.284533"><ele>186.5</ele><time>2026-04-04T15:39:40.723Z</time></trkpt><trkpt lat="42.7605226" lon="10.2844468"><ele>185.0</ele><time>2026-04-04T15:39:41.723Z</time></trkpt><trkpt lat="42.7605165" lon="10.2843012"><ele>183.5</ele><time>2026-04-04T15:39:43.723Z</time></trkpt><trkpt lat="42.7605306" lon="10.2841503"><ele>182.0</ele><time>2026-04-04T15:39:45.722Z</time></trkpt><trkpt lat="42.7605415" lon="10.2840549"><ele>180.5</ele><time>2026-04-04T15:39:46.723Z</time></trkpt><trkpt lat="42.7605483" lon="10.2839631"><ele>179.0</ele><time>2026-04-04T15:39:47.723Z</time></trkpt><trkpt lat="42.760555" lon="10.2838668"><ele>176.83333333333331</ele><time>2026-04-04T15:39:48.722Z</time></trkpt><trkpt lat="42.7605634" lon="10.2837756"><ele>174.66666666666666</ele><time>2026-04-04T15:39:49.723Z</time></trkpt><trkpt lat="42.7605807" lon="10.2836124"><ele>172.5</ele><time>2026-04-04T15:39:51.722Z</time></trkpt><trkpt lat="42.7605838" lon="10.2835022"><ele>170.33333333333334</ele><time>2026-04-04T15:39:52.723Z</time></trkpt><trkpt lat="42.7605885" lon="10.2833995"><ele>168.16666666666669</ele><time>2026-04-04T15:39:53.723Z</time></trkpt><trkpt lat="42.7605853" lon="10.2833073"><ele>166.0</ele><time>2026-04-04T15:39:54.723Z</time></trkpt><trkpt lat="42.7605803" lon="10.2832019"><ele>163.20000000000002</ele><time>2026-04-04T15:39:55.723Z</time></trkpt><trkpt lat="42.7605626" lon="10.2830957"><ele>160.4</ele><time>2026-04-04T15:39:56.722Z</time></trkpt><trkpt lat="42.760538" lon="10.283003"><ele>157.6</ele><time>2026-04-04T15:39:57.723Z</time></trkpt><trkpt lat="42.7605094" lon="10.2829208"><ele>154.8</ele><time>2026-04-04T15:39:58.723Z</time></trkpt><trkpt lat="42.7604417" lon="10.2827794"><ele>152.0</ele><time>2026-04-04T15:40:00.722Z</time></trkpt><trkpt lat="42.7603682" lon="10.2826699"><ele>152.0</ele><time>2026-04-04T15:40:02.722Z</time></trkpt><trkpt lat="42.760267" lon="10.2825981"><ele>152.0</ele><time>2026-04-04T15:40:04.723Z</time></trkpt><trkpt lat="42.7602335" lon="10.2825204"><ele>152.0</ele><time>2026-04-04T15:40:06.723Z</time></trkpt><trkpt lat="42.7602446" lon="10.2824188"><ele>152.0</ele><time>2026-04-04T15:40:08.722Z</time></trkpt><trkpt lat="42.7602995" lon="10.2822988"><ele>152.0</ele><time>2026-04-04T15:40:10.723Z</time></trkpt><trkpt lat="42.7603627" lon="10.2821671"><ele>150.2</ele><time>2026-04-04T15:40:12.723Z</time></trkpt><trkpt lat="42.7603744" lon="10.2820073"><ele>148.39999999999998</ele><time>2026-04-04T15:40:14.723Z</time></trkpt><trkpt lat="42.7603534" lon="10.2818438"><ele>146.60000000000002</ele><time>2026-04-04T15:40:16.723Z</time></trkpt><trkpt lat="42.7603462" lon="10.2817431"><ele>144.8</ele><time>2026-04-04T15:40:17.723Z</time></trkpt><trkpt lat="42.7603411" lon="10.2815869"><ele>143.0</ele><time>2026-04-04T15:40:19.723Z</time></trkpt><trkpt lat="42.7603265" lon="10.2814631"><ele>143.0</ele><time>2026-04-04T15:40:21.723Z</time></trkpt><trkpt lat="42.7602929" lon="10.2813603"><ele>143.0</ele><time>2026-04-04T15:40:24.723Z</time></trkpt><trkpt lat="42.7603245" lon="10.2812779"><ele>143.0</ele><time>2026-04-04T15:40:28.723Z</time></trkpt><trkpt lat="42.760412" lon="10.2813426"><ele>143.0</ele><time>2026-04-04T15:40:30.723Z</time></trkpt><trkpt lat="42.7604777" lon="10.281425"><ele>143.0</ele><time>2026-04-04T15:40:31.723Z</time></trkpt><trkpt lat="42.7605572" lon="10.2815136"><ele>143.0</ele><time>2026-04-04T15:40:32.723Z</time></trkpt><trkpt lat="42.7606429" lon="10.2816083"><ele>143.0</ele><time>2026-04-04T15:40:33.722Z</time></trkpt><trkpt lat="42.7607401" lon="10.2816989"><ele>143.0</ele><time>2026-04-04T15:40:34.723Z</time></trkpt><trkpt lat="42.7608393" lon="10.2817905"><ele>143.0</ele><time>2026-04-04T15:40:35.723Z</time></trkpt><trkpt lat="42.7609355" lon="10.2818854"><ele>143.0</ele><time>2026-04-04T15:40:36.723Z</time></trkpt><trkpt lat="42.7610169" lon="10.2819882"><ele>138.25</ele><time>2026-04-04T15:40:37.723Z</time></trkpt><trkpt lat="42.7610813" lon="10.2821292"><ele>133.5</ele><time>2026-04-04T15:40:38.723Z</time></trkpt><trkpt lat="42.7611412" lon="10.2822937"><ele>128.75</ele><time>2026-04-04T15:40:39.723Z</time></trkpt><trkpt lat="42.7612137" lon="10.2824469"><ele>124.0</ele><time>2026-04-04T15:40:40.723Z</time></trkpt><trkpt lat="42.7612905" lon="10.2825842"><ele>124.0</ele><time>2026-04-04T15:40:41.722Z</time></trkpt><trkpt lat="42.7613618" lon="10.2827187"><ele>124.0</ele><time>2026-04-04T15:40:42.723Z</time></trkpt><trkpt lat="42.7614287" lon="10.2828525"><ele>124.0</ele><time>2026-04-04T15:40:43.723Z</time></trkpt><trkpt lat="42.7614953" lon="10.2829816"><ele>124.0</ele><time>2026-04-04T15:40:44.723Z</time></trkpt><trkpt lat="42.7615696" lon="10.283112"><ele>126.75</ele><time>2026-04-04T15:40:45.722Z</time></trkpt><trkpt lat="42.7616497" lon="10.2832302"><ele>129.5</ele><time>2026-04-04T15:40:46.723Z</time></trkpt><trkpt lat="42.7617478" lon="10.2833257"><ele>132.25</ele><time>2026-04-04T15:40:47.722Z</time></trkpt><trkpt lat="42.7618554" lon="10.2833927"><ele>135.0</ele><time>2026-04-04T15:40:48.723Z</time></trkpt><trkpt lat="42.7619663" lon="10.2834712"><ele>131.75</ele><time>2026-04-04T15:40:49.723Z</time></trkpt><trkpt lat="42.7620733" lon="10.2835878"><ele>128.5</ele><time>2026-04-04T15:40:50.723Z</time></trkpt><trkpt lat="42.7621722" lon="10.2837293"><ele>125.25</ele><time>2026-04-04T15:40:51.723Z</time></trkpt><trkpt lat="42.7622676" lon="10.2838623"><ele>122.0</ele><time>2026-04-04T15:40:52.723Z</time></trkpt><trkpt lat="42.7623723" lon="10.2839727"><ele>122.0</ele><time>2026-04-04T15:40:53.722Z</time></trkpt><trkpt lat="42.762478" lon="10.2840724"><ele>122.0</ele><time>2026-04-04T15:40:54.723Z</time></trkpt><trkpt lat="42.7625708" lon="10.2841893"><ele>122.0</ele><time>2026-04-04T15:40:55.723Z</time></trkpt><trkpt lat="42.7626494" lon="10.2843413"><ele>122.0</ele><time>2026-04-04T15:40:56.723Z</time></trkpt><trkpt lat="42.7627053" lon="10.2845252"><ele>115.5</ele><time>2026-04-04T15:40:57.722Z</time></trkpt><trkpt lat="42.7627431" lon="10.2847071"><ele>109.0</ele><time>2026-04-04T15:40:58.723Z</time></trkpt><trkpt lat="42.7627941" lon="10.2848789"><ele>102.5</ele><time>2026-04-04T15:40:59.723Z</time></trkpt><trkpt lat="42.7628776" lon="10.2850306"><ele>96.0</ele><time>2026-04-04T15:41:00.723Z</time></trkpt><trkpt lat="42.7629832" lon="10.2851831"><ele>96.0</ele><time>2026-04-04T15:41:01.722Z</time></trkpt><trkpt lat="42.7630703" lon="10.2853514"><ele>96.0</ele><time>2026-04-04T15:41:02.723Z</time></trkpt><trkpt lat="42.7631434" lon="10.2855205"><ele>96.0</ele><time>2026-04-04T15:41:03.722Z</time></trkpt><trkpt lat="42.7632117" lon="10.2856935"><ele>96.0</ele><time>2026-04-04T15:41:04.723Z</time></trkpt><trkpt lat="42.7632683" lon="10.2858836"><ele>98.33333333333334</ele><time>2026-04-04T15:41:05.723Z</time></trkpt><trkpt lat="42.763323" lon="10.2860838"><ele>100.66666666666667</ele><time>2026-04-04T15:41:06.723Z</time></trkpt><trkpt lat="42.7633659" lon="10.2863033"><ele>103.0</ele><time>2026-04-04T15:41:07.723Z</time></trkpt><trkpt lat="42.7634318" lon="10.2864995"><ele>103.5</ele><time>2026-04-04T15:41:08.723Z</time></trkpt><trkpt lat="42.7634806" lon="10.2866993"><ele>104.0</ele><time>2026-04-04T15:41:09.723Z</time></trkpt><trkpt lat="42.763508" lon="10.2868885"><ele>104.5</ele><time>2026-04-04T15:41:10.723Z</time></trkpt><trkpt lat="42.7635138" lon="10.2870637"><ele>105.0</ele><time>2026-04-04T15:41:11.723Z</time></trkpt><trkpt lat="42.7634846" lon="10.2872608"><ele>103.33333333333334</ele><time>2026-04-04T15:41:12.722Z</time></trkpt><trkpt lat="42.7634401" lon="10.2874612"><ele>101.66666666666667</ele><time>2026-04-04T15:41:13.723Z</time></trkpt><trkpt lat="42.7633881" lon="10.2876574"><ele>100.0</ele><time>2026-04-04T15:41:14.722Z</time></trkpt><trkpt lat="42.7633242" lon="10.2878433"><ele>100.0</ele><time>2026-04-04T15:41:15.723Z</time></trkpt><trkpt lat="42.7632566" lon="10.2880167"><ele>100.0</ele><time>2026-04-04T15:41:16.723Z</time></trkpt><trkpt lat="42.7632043" lon="10.2881955"><ele>100.0</ele><time>2026-04-04T15:41:17.723Z</time></trkpt><trkpt lat="42.763163" lon="10.2883753"><ele>100.0</ele><time>2026-04-04T15:41:18.723Z</time></trkpt><trkpt lat="42.7631302" lon="10.2885579"><ele>95.25</ele><time>2026-04-04T15:41:19.723Z</time></trkpt><trkpt lat="42.7630901" lon="10.2887425"><ele>90.5</ele><time>2026-04-04T15:41:20.722Z</time></trkpt><trkpt lat="42.7630521" lon="10.2889171"><ele>85.75</ele><time>2026-04-04T15:41:21.723Z</time></trkpt><trkpt lat="42.7630152" lon="10.2890735"><ele>81.0</ele><time>2026-04-04T15:41:22.722Z</time></trkpt><trkpt lat="42.7629778" lon="10.2892017"><ele>81.19999999999999</ele><time>2026-04-04T15:41:23.723Z</time></trkpt><trkpt lat="42.7629268" lon="10.2893109"><ele>81.39999999999999</ele><time>2026-04-04T15:41:24.723Z</time></trkpt><trkpt lat="42.762854" lon="10.2893879"><ele>81.6</ele><time>2026-04-04T15:41:25.722Z</time></trkpt><trkpt lat="42.7627618" lon="10.2894109"><ele>81.8</ele><time>2026-04-04T15:41:26.723Z</time></trkpt><trkpt lat="42.7626556" lon="10.2893853"><ele>82.0</ele><time>2026-04-04T15:41:27.723Z</time></trkpt><trkpt lat="42.7625357" lon="10.2893245"><ele>82.0</ele><time>2026-04-04T15:41:28.723Z</time></trkpt><trkpt lat="42.7624202" lon="10.2892539"><ele>82.0</ele><time>2026-04-04T15:41:29.723Z</time></trkpt><trkpt lat="42.7623242" lon="10.2892082"><ele>82.0</ele><time>2026-04-04T15:41:30.723Z</time></trkpt><trkpt lat="42.7622376" lon="10.2892088"><ele>82.0</ele><time>2026-04-04T15:41:31.723Z</time></trkpt><trkpt lat="42.7621584" lon="10.2892748"><ele>82.0</ele><time>2026-04-04T15:41:32.723Z</time></trkpt><trkpt lat="42.762101" lon="10.2893891"><ele>82.0</ele><time>2026-04-04T15:41:33.723Z</time></trkpt><trkpt lat="42.7620569" lon="10.2895508"><ele>82.0</ele><time>2026-04-04T15:41:34.723Z</time></trkpt><trkpt lat="42.7620142" lon="10.2897335"><ele>82.0</ele><time>2026-04-04T15:41:35.722Z</time></trkpt><trkpt lat="42.7619681" lon="10.289903"><ele>82.0</ele><time>2026-04-04T15:41:36.723Z</time></trkpt><trkpt lat="42.7619156" lon="10.2900553"><ele>78.8</ele><time>2026-04-04T15:41:37.723Z</time></trkpt><trkpt lat="42.7618621" lon="10.2901778"><ele>75.6</ele><time>2026-04-04T15:41:38.723Z</time></trkpt><trkpt lat="42.761815" lon="10.2902715"><ele>72.39999999999999</ele><time>2026-04-04T15:41:39.723Z</time></trkpt><trkpt lat="42.7617483" lon="10.2903302"><ele>69.19999999999999</ele><time>2026-04-04T15:41:40.723Z</time></trkpt><trkpt lat="42.7616532" lon="10.2903515"><ele>66.0</ele><time>2026-04-04T15:41:41.723Z</time></trkpt><trkpt lat="42.7615417" lon="10.2903256"><ele>66.0</ele><time>2026-04-04T15:41:42.723Z</time></trkpt><trkpt lat="42.7614305" lon="10.2902555"><ele>66.0</ele><time>2026-04-04T15:41:43.723Z</time></trkpt><trkpt lat="42.761339" lon="10.2901714"><ele>66.0</ele><time>2026-04-04T15:41:44.723Z</time></trkpt><trkpt lat="42.7612521" lon="10.2901095"><ele>66.0</ele><time>2026-04-04T15:41:45.723Z</time></trkpt><trkpt lat="42.7611572" lon="10.2900928"><ele>66.0</ele><time>2026-04-04T15:41:46.723Z</time></trkpt><trkpt lat="42.761079" lon="10.2901342"><ele>66.8</ele><time>2026-04-04T15:41:47.723Z</time></trkpt><trkpt lat="42.7610275" lon="10.2902247"><ele>67.6</ele><time>2026-04-04T15:41:48.723Z</time></trkpt><trkpt lat="42.7610077" lon="10.2903467"><ele>68.4</ele><time>2026-04-04T15:41:49.722Z</time></trkpt><trkpt lat="42.7610105" lon="10.2905118"><ele>69.2</ele><time>2026-04-04T15:41:50.723Z</time></trkpt><trkpt lat="42.7610153" lon="10.2906967"><ele>70.0</ele><time>2026-04-04T15:41:51.723Z</time></trkpt><trkpt lat="42.7610278" lon="10.2908913"><ele>64.75</ele><time>2026-04-04T15:41:52.723Z</time></trkpt><trkpt lat="42.7610613" lon="10.2910871"><ele>59.5</ele><time>2026-04-04T15:41:53.723Z</time></trkpt><trkpt lat="42.7610995" lon="10.2912739"><ele>54.25</ele><time>2026-04-04T15:41:54.723Z</time></trkpt><trkpt lat="42.7611326" lon="10.291458"><ele>49.0</ele><time>2026-04-04T15:41:55.723Z</time></trkpt><trkpt lat="42.7611604" lon="10.2916391"><ele>47.0</ele><time>2026-04-04T15:41:56.723Z</time></trkpt><trkpt lat="42.7611876" lon="10.2918107"><ele>45.0</ele><time>2026-04-04T15:41:57.723Z</time></trkpt><trkpt lat="42.761217" lon="10.2919738"><ele>43.0</ele><time>2026-04-04T15:41:58.723Z</time></trkpt><trkpt lat="42.7612459" lon="10.2921355"><ele>41.0</ele><time>2026-04-04T15:41:59.723Z</time></trkpt><trkpt lat="42.7612733" lon="10.292291"><ele>39.75</ele><time>2026-04-04T15:42:00.722Z</time></trkpt><trkpt lat="42.7613004" lon="10.2924441"><ele>38.5</ele><time>2026-04-04T15:42:01.723Z</time></trkpt><trkpt lat="42.7613284" lon="10.2925915"><ele>37.25</ele><time>2026-04-04T15:42:02.723Z</time></trkpt><trkpt lat="42.7613573" lon="10.2927346"><ele>36.0</ele><time>2026-04-04T15:42:03.723Z</time></trkpt><trkpt lat="42.7613964" lon="10.2928901"><ele>36.0</ele><time>2026-04-04T15:42:04.722Z</time></trkpt><trkpt lat="42.7614491" lon="10.2930655"><ele>36.0</ele><time>2026-04-04T15:42:05.723Z</time></trkpt><trkpt lat="42.7615028" lon="10.2932451"><ele>36.0</ele><time>2026-04-04T15:42:06.723Z</time></trkpt><trkpt lat="42.7615561" lon="10.2934276"><ele>36.0</ele><time>2026-04-04T15:42:07.723Z</time></trkpt><trkpt lat="42.7616122" lon="10.2936024"><ele>35.0</ele><time>2026-04-04T15:42:08.723Z</time></trkpt><trkpt lat="42.7616622" lon="10.2937768"><ele>34.0</ele><time>2026-04-04T15:42:09.723Z</time></trkpt><trkpt lat="42.7617128" lon="10.2939405"><ele>33.0</ele><time>2026-04-04T15:42:10.722Z</time></trkpt><trkpt lat="42.7617622" lon="10.2940989"><ele>32.0</ele><time>2026-04-04T15:42:11.723Z</time></trkpt><trkpt lat="42.7618095" lon="10.2942499"><ele>32.0</ele><time>2026-04-04T15:42:12.723Z</time></trkpt><trkpt lat="42.7618487" lon="10.2944232"><ele>32.0</ele><time>2026-04-04T15:42:13.723Z</time></trkpt><trkpt lat="42.7618706" lon="10.2946183"><ele>32.0</ele><time>2026-04-04T15:42:14.723Z</time></trkpt><trkpt lat="42.7618706" lon="10.2948152"><ele>32.0</ele><time>2026-04-04T15:42:15.723Z</time></trkpt><trkpt lat="42.7618481" lon="10.2950008"><ele>31.25</ele><time>2026-04-04T15:42:16.722Z</time></trkpt><trkpt lat="42.7618241" lon="10.2951829"><ele>30.5</ele><time>2026-04-04T15:42:17.723Z</time></trkpt><trkpt lat="42.7617994" lon="10.2953488"><ele>29.75</ele><time>2026-04-04T15:42:18.723Z</time></trkpt><trkpt lat="42.7617806" lon="10.2954923"><ele>29.0</ele><time>2026-04-04T15:42:19.723Z</time></trkpt><trkpt lat="42.7617794" lon="10.2956258"><ele>27.799999999999997</ele><time>2026-04-04T15:42:20.723Z</time></trkpt><trkpt lat="42.7618051" lon="10.295758"><ele>26.599999999999998</ele><time>2026-04-04T15:42:21.722Z</time></trkpt><trkpt lat="42.761854" lon="10.2958815"><ele>25.4</ele><time>2026-04-04T15:42:22.722Z</time></trkpt><trkpt lat="42.7619208" lon="10.2960031"><ele>24.2</ele><time>2026-04-04T15:42:23.723Z</time></trkpt><trkpt lat="42.7619925" lon="10.2961297"><ele>23.0</ele><time>2026-04-04T15:42:24.723Z</time></trkpt><trkpt lat="42.7620691" lon="10.2962664"><ele>21.25</ele><time>2026-04-04T15:42:25.723Z</time></trkpt><trkpt lat="42.7621461" lon="10.2964003"><ele>19.5</ele><time>2026-04-04T15:42:26.723Z</time></trkpt><trkpt lat="42.7622291" lon="10.2965347"><ele>17.75</ele><time>2026-04-04T15:42:27.723Z</time></trkpt><trkpt lat="42.7623081" lon="10.2966657"><ele>16.0</ele><time>2026-04-04T15:42:28.723Z</time></trkpt><trkpt lat="42.7623845" lon="10.2967932"><ele>15.25</ele><time>2026-04-04T15:42:29.723Z</time></trkpt><trkpt lat="42.7624467" lon="10.2969236"><ele>14.5</ele><time>2026-04-04T15:42:30.723Z</time></trkpt><trkpt lat="42.7624941" lon="10.2970654"><ele>13.75</ele><time>2026-04-04T15:42:31.722Z</time></trkpt><trkpt lat="42.7625317" lon="10.2972123"><ele>13.0</ele><time>2026-04-04T15:42:32.723Z</time></trkpt><trkpt lat="42.7625546" lon="10.2973616"><ele>12.600000000000001</ele><time>2026-04-04T15:42:33.723Z</time></trkpt><trkpt lat="42.7625492" lon="10.297509"><ele>12.200000000000001</ele><time>2026-04-04T15:42:34.723Z</time></trkpt><trkpt lat="42.7625292" lon="10.2976457"><ele>11.8</ele><time>2026-04-04T15:42:35.723Z</time></trkpt><trkpt lat="42.7624972" lon="10.2977868"><ele>11.4</ele><time>2026-04-04T15:42:36.723Z</time></trkpt><trkpt lat="42.7624547" lon="10.2979096"><ele>11.0</ele><time>2026-04-04T15:42:37.723Z</time></trkpt><trkpt lat="42.7624113" lon="10.2980311"><ele>11.166666666666666</ele><time>2026-04-04T15:42:38.723Z</time></trkpt><trkpt lat="42.762388" lon="10.298148"><ele>11.333333333333332</ele><time>2026-04-04T15:42:39.723Z</time></trkpt><trkpt lat="42.7623667" lon="10.2982449"><ele>11.5</ele><time>2026-04-04T15:42:40.723Z</time></trkpt><trkpt lat="42.7623519" lon="10.2983534"><ele>11.666666666666666</ele><time>2026-04-04T15:42:41.723Z</time></trkpt><trkpt lat="42.7623342" lon="10.2984641"><ele>11.833333333333334</ele><time>2026-04-04T15:42:42.723Z</time></trkpt><trkpt lat="42.7623145" lon="10.2985679"><ele>12.0</ele><time>2026-04-04T15:42:43.723Z</time></trkpt><trkpt lat="42.7622886" lon="10.298669"><ele>12.0</ele><time>2026-04-04T15:42:44.723Z</time></trkpt><trkpt lat="42.7622675" lon="10.2987555"><ele>12.0</ele><time>2026-04-04T15:42:45.722Z</time></trkpt><trkpt lat="42.7622367" lon="10.298912"><ele>12.0</ele><time>2026-04-04T15:42:47.722Z</time></trkpt><trkpt lat="42.7622186" lon="10.2989964"><ele>12.0</ele><time>2026-04-04T15:42:48.722Z</time></trkpt><trkpt lat="42.7621934" lon="10.2990857"><ele>12.0</ele><time>2026-04-04T15:42:49.723Z</time></trkpt><trkpt lat="42.7621696" lon="10.2991751"><ele>12.0</ele><time>2026-04-04T15:42:50.723Z</time></trkpt><trkpt lat="42.7621422" lon="10.299265"><ele>12.166666666666666</ele><time>2026-04-04T15:42:51.723Z</time></trkpt><trkpt lat="42.7621139" lon="10.2993571"><ele>12.333333333333332</ele><time>2026-04-04T15:42:52.723Z</time></trkpt><trkpt lat="42.762075" lon="10.2994604"><ele>12.5</ele><time>2026-04-04T15:42:53.722Z</time></trkpt><trkpt lat="42.762031" lon="10.2995656"><ele>12.666666666666666</ele><time>2026-04-04T15:42:54.723Z</time></trkpt><trkpt lat="42.761978" lon="10.2996793"><ele>12.833333333333332</ele><time>2026-04-04T15:42:55.723Z</time></trkpt><trkpt lat="42.7619245" lon="10.2997879"><ele>13.0</ele><time>2026-04-04T15:42:56.723Z</time></trkpt><trkpt lat="42.7618733" lon="10.2998926"><ele>11.4</ele><time>2026-04-04T15:42:57.723Z</time></trkpt><trkpt lat="42.7618342" lon="10.3000114"><ele>9.8</ele><time>2026-04-04T15:42:58.723Z</time></trkpt><trkpt lat="42.7618006" lon="10.3001444"><ele>8.2</ele><time>2026-04-04T15:42:59.723Z</time></trkpt><trkpt lat="42.7617724" lon="10.3002747"><ele>6.6</ele><time>2026-04-04T15:43:00.723Z</time></trkpt><trkpt lat="42.7617591" lon="10.3004224"><ele>5.0</ele><time>2026-04-04T15:43:01.723Z</time></trkpt><trkpt lat="42.7617661" lon="10.3005891"><ele>5.0</ele><time>2026-04-04T15:43:02.723Z</time></trkpt><trkpt lat="42.7617825" lon="10.3007723"><ele>5.0</ele><time>2026-04-04T15:43:03.723Z</time></trkpt><trkpt lat="42.761796" lon="10.300968"><ele>5.0</ele><time>2026-04-04T15:43:04.723Z</time></trkpt><trkpt lat="42.7618124" lon="10.3011602"><ele>5.0</ele><time>2026-04-04T15:43:05.723Z</time></trkpt><trkpt lat="42.7618301" lon="10.3013483"><ele>5.0</ele><time>2026-04-04T15:43:06.722Z</time></trkpt><trkpt lat="42.7618511" lon="10.3015443"><ele>5.0</ele><time>2026-04-04T15:43:07.723Z</time></trkpt><trkpt lat="42.7618676" lon="10.3017556"><ele>5.0</ele><time>2026-04-04T15:43:08.723Z</time></trkpt><trkpt lat="42.7618749" lon="10.3019918"><ele>5.666666666666667</ele><time>2026-04-04T15:43:09.723Z</time></trkpt><trkpt lat="42.7618809" lon="10.3022407"><ele>6.333333333333334</ele><time>2026-04-04T15:43:10.723Z</time></trkpt><trkpt lat="42.7618781" lon="10.3025104"><ele>7.0</ele><time>2026-04-04T15:43:11.723Z</time></trkpt><trkpt lat="42.7618822" lon="10.3027835"><ele>7.0</ele><time>2026-04-04T15:43:12.723Z</time></trkpt><trkpt lat="42.76189" lon="10.3030837"><ele>7.0</ele><time>2026-04-04T15:43:13.722Z</time></trkpt><trkpt lat="42.7619015" lon="10.3033869"><ele>7.0</ele><time>2026-04-04T15:43:14.722Z</time></trkpt><trkpt lat="42.7619119" lon="10.3036669"><ele>8.333333333333334</ele><time>2026-04-04T15:43:15.723Z</time></trkpt><trkpt lat="42.7619194" lon="10.3039373"><ele>9.666666666666666</ele><time>2026-04-04T15:43:16.723Z</time></trkpt><trkpt lat="42.7619293" lon="10.3041982"><ele>11.0</ele><time>2026-04-04T15:43:17.723Z</time></trkpt><trkpt lat="42.7619415" lon="10.304457"><ele>11.0</ele><time>2026-04-04T15:43:18.723Z</time></trkpt><trkpt lat="42.7619663" lon="10.3046947"><ele>11.0</ele><time>2026-04-04T15:43:19.723Z</time></trkpt><trkpt lat="42.7619638" lon="10.3049475"><ele>11.0</ele><time>2026-04-04T15:43:20.723Z</time></trkpt><trkpt lat="42.7619785" lon="10.3052028"><ele>10.333333333333332</ele><time>2026-04-04T15:43:21.723Z</time></trkpt><trkpt lat="42.7619869" lon="10.305457"><ele>9.666666666666666</ele><time>2026-04-04T15:43:22.723Z</time></trkpt><trkpt lat="42.7619914" lon="10.3057112"><ele>9.0</ele><time>2026-04-04T15:43:23.723Z</time></trkpt><trkpt lat="42.7620014" lon="10.3059625"><ele>8.0</ele><time>2026-04-04T15:43:24.723Z</time></trkpt><trkpt lat="42.7620041" lon="10.3062072"><ele>7.0</ele><time>2026-04-04T15:43:25.723Z</time></trkpt><trkpt lat="42.7620088" lon="10.3064499"><ele>6.0</ele><time>2026-04-04T15:43:26.723Z</time></trkpt><trkpt lat="42.7620158" lon="10.3066871"><ele>6.0</ele><time>2026-04-04T15:43:27.723Z</time></trkpt><trkpt lat="42.7619993" lon="10.3069315"><ele>6.0</ele><time>2026-04-04T15:43:28.723Z</time></trkpt><trkpt lat="42.7619753" lon="10.3071908"><ele>6.0</ele><time>2026-04-04T15:43:29.723Z</time></trkpt><trkpt lat="42.7619375" lon="10.3074637"><ele>5.0</ele><time>2026-04-04T15:43:30.723Z</time></trkpt><trkpt lat="42.7618938" lon="10.3077389"><ele>4.0</ele><time>2026-04-04T15:43:31.723Z</time></trkpt><trkpt lat="42.7618474" lon="10.3080074"><ele>3.0</ele><time>2026-04-04T15:43:32.723Z</time></trkpt><trkpt lat="42.7618056" lon="10.3082665"><ele>2.6666666666666665</ele><time>2026-04-04T15:43:33.723Z</time></trkpt><trkpt lat="42.7617454" lon="10.3085132"><ele>2.333333333333333</ele><time>2026-04-04T15:43:34.723Z</time></trkpt><trkpt lat="42.7616694" lon="10.3087567"><ele>2.0</ele><time>2026-04-04T15:43:35.722Z</time></trkpt><trkpt lat="42.7615814" lon="10.308993"><ele>3.333333333333333</ele><time>2026-04-04T15:43:36.723Z</time></trkpt><trkpt lat="42.7614969" lon="10.3092312"><ele>4.666666666666667</ele><time>2026-04-04T15:43:37.723Z</time></trkpt><trkpt lat="42.7614141" lon="10.3094761"><ele>6.0</ele><time>2026-04-04T15:43:38.723Z</time></trkpt><trkpt lat="42.7613358" lon="10.3097232"><ele>6.666666666666666</ele><time>2026-04-04T15:43:39.723Z</time></trkpt><trkpt lat="42.7612597" lon="10.3099691"><ele>7.333333333333333</ele><time>2026-04-04T15:43:40.722Z</time></trkpt><trkpt lat="42.7611755" lon="10.3102089"><ele>8.0</ele><time>2026-04-04T15:43:41.723Z</time></trkpt><trkpt lat="42.7611018" lon="10.310459"><ele>7.0</ele><time>2026-04-04T15:43:42.723Z</time></trkpt><trkpt lat="42.7610243" lon="10.3107047"><ele>6.0</ele><time>2026-04-04T15:43:43.723Z</time></trkpt><trkpt lat="42.7609517" lon="10.3109506"><ele>5.0</ele><time>2026-04-04T15:43:44.723Z</time></trkpt><trkpt lat="42.7608791" lon="10.3111762"><ele>5.0</ele><time>2026-04-04T15:43:45.723Z</time></trkpt><trkpt lat="42.7608142" lon="10.3113864"><ele>5.0</ele><time>2026-04-04T15:43:46.723Z</time></trkpt><trkpt lat="42.7607682" lon="10.3116105"><ele>5.0</ele><time>2026-04-04T15:43:47.723Z</time></trkpt><trkpt lat="42.7607421" lon="10.3118478"><ele>4.666666666666667</ele><time>2026-04-04T15:43:48.723Z</time></trkpt><trkpt lat="42.7607375" lon="10.3120836"><ele>4.333333333333333</ele><time>2026-04-04T15:43:49.723Z</time></trkpt><trkpt lat="42.7607346" lon="10.3123041"><ele>4.0</ele><time>2026-04-04T15:43:50.723Z</time></trkpt><trkpt lat="42.7607225" lon="10.31251"><ele>4.0</ele><time>2026-04-04T15:43:51.723Z</time></trkpt><trkpt lat="42.7606973" lon="10.3126861"><ele>4.0</ele><time>2026-04-04T15:43:52.723Z</time></trkpt><trkpt lat="42.7606749" lon="10.3128329"><ele>4.0</ele><time>2026-04-04T15:43:53.723Z</time></trkpt><trkpt lat="42.7606533" lon="10.3129482"><ele>4.0</ele><time>2026-04-04T15:43:54.723Z</time></trkpt><trkpt lat="42.7605974" lon="10.3130594"><ele>4.0</ele><time>2026-04-04T15:43:56.723Z</time></trkpt><trkpt lat="42.7605349" lon="10.3130794"><ele>4.0</ele><time>2026-04-04T15:43:59.723Z</time></trkpt></trkseg></trk></gpx>